<?xml version='1.0' encoding='UTF-8'?><gpx version="1.1" creator="JPX - https://github.com/jenetics/jpx" xmlns="http://www.topografix.com/GPX/1/1"><trk><trkseg><trkpt lat="40.7206826" lon="14.8735512"><ele>351.0</ele><time>2026-03-22T07:43:27.11Z</time></trkpt><trkpt lat="40.7208266" lon="14.8735836"><ele>351.0</ele><time>2026-03-22T07:43:39.059Z</time></trkpt><trkpt lat="40.7208978" lon="14.8735191"><ele>351.0</ele><time>2026-03-22T07:43:40.034Z</time></trkpt><trkpt lat="40.7209661" lon="14.8734518"><ele>351.0</ele><time>2026-03-22T07:43:41.048Z</time></trkpt><trkpt lat="40.7210285" lon="14.8733864"><ele>351.0</ele><time>2026-03-22T07:43:41.95Z</time></trkpt><trkpt lat="40.7210956" lon="14.8733202"><ele>355.20000000000005</ele><time>2026-03-22T07:43:42.951Z</time></trkpt><trkpt lat="40.7211658" lon="14.8732469"><ele>359.40000000000003</ele><time>2026-03-22T07:43:43.956Z</time></trkpt><trkpt lat="40.7212476" lon="14.8731669"><ele>363.6</ele><time>2026-03-22T07:43:44.945Z</time></trkpt><trkpt lat="40.7213362" lon="14.8730812"><ele>367.8</ele><time>2026-03-22T07:43:45.942Z</time></trkpt><trkpt lat="40.7214233" lon="14.8729933"><ele>372.0</ele><time>2026-03-22T07:43:46.942Z</time></trkpt><trkpt lat="40.7215169" lon="14.8729016"><ele>372.0</ele><time>2026-03-22T07:43:47.973Z</time></trkpt><trkpt lat="40.7216028" lon="14.8728128"><ele>372.0</ele><time>2026-03-22T07:43:48.944Z</time></trkpt><trkpt lat="40.7216916" lon="14.872713"><ele>372.0</ele><time>2026-03-22T07:43:49.947Z</time></trkpt><trkpt lat="40.7217894" lon="14.8726062"><ele>372.0</ele><time>2026-03-22T07:43:51.039Z</time></trkpt><trkpt lat="40.7218688" lon="14.8725162"><ele>376.75</ele><time>2026-03-22T07:43:51.945Z</time></trkpt><trkpt lat="40.7219597" lon="14.8724062"><ele>381.5</ele><time>2026-03-22T07:43:53.029Z</time></trkpt><trkpt lat="40.7220477" lon="14.8723092"><ele>386.25</ele><time>2026-03-22T07:43:53.952Z</time></trkpt><trkpt lat="40.7221419" lon="14.8722047"><ele>391.0</ele><time>2026-03-22T07:43:55.022Z</time></trkpt><trkpt lat="40.7222341" lon="14.8721063"><ele>391.0</ele><time>2026-03-22T07:43:56.008Z</time></trkpt><trkpt lat="40.7223267" lon="14.8720052"><ele>391.0</ele><time>2026-03-22T07:43:56.939Z</time></trkpt><trkpt lat="40.7224169" lon="14.8719066"><ele>391.0</ele><time>2026-03-22T07:43:57.935Z</time></trkpt><trkpt lat="40.7225117" lon="14.8718025"><ele>391.0</ele><time>2026-03-22T07:43:58.974Z</time></trkpt><trkpt lat="40.7225992" lon="14.8717069"><ele>393.0</ele><time>2026-03-22T07:44:00.004Z</time></trkpt><trkpt lat="40.722683" lon="14.8716201"><ele>395.0</ele><time>2026-03-22T07:44:00.933Z</time></trkpt><trkpt lat="40.7227745" lon="14.8715224"><ele>397.0</ele><time>2026-03-22T07:44:02.007Z</time></trkpt><trkpt lat="40.7228548" lon="14.8714334"><ele>399.0</ele><time>2026-03-22T07:44:03.024Z</time></trkpt><trkpt lat="40.7229311" lon="14.871348"><ele>401.0</ele><time>2026-03-22T07:44:03.94Z</time></trkpt><trkpt lat="40.7230243" lon="14.8712445"><ele>402.20000000000005</ele><time>2026-03-22T07:44:05.012Z</time></trkpt><trkpt lat="40.7231144" lon="14.8711523"><ele>403.40000000000003</ele><time>2026-03-22T07:44:06.034Z</time></trkpt><trkpt lat="40.7231933" lon="14.8710755"><ele>404.6</ele><time>2026-03-22T07:44:06.952Z</time></trkpt><trkpt lat="40.7232835" lon="14.8709805"><ele>405.8</ele><time>2026-03-22T07:44:07.996Z</time></trkpt><trkpt lat="40.723366" lon="14.8708852"><ele>407.0</ele><time>2026-03-22T07:44:09.028Z</time></trkpt><trkpt lat="40.723441" lon="14.8707952"><ele>409.20000000000005</ele><time>2026-03-22T07:44:10.036Z</time></trkpt><trkpt lat="40.7235163" lon="14.8707104"><ele>411.4</ele><time>2026-03-22T07:44:10.943Z</time></trkpt><trkpt lat="40.7236025" lon="14.870619"><ele>413.6</ele><time>2026-03-22T07:44:11.949Z</time></trkpt><trkpt lat="40.7236928" lon="14.8705298"><ele>415.79999999999995</ele><time>2026-03-22T07:44:12.971Z</time></trkpt><trkpt lat="40.723779" lon="14.8704423"><ele>418.0</ele><time>2026-03-22T07:44:14.04Z</time></trkpt><trkpt lat="40.7238473" lon="14.8703697"><ele>420.33333333333337</ele><time>2026-03-22T07:44:14.955Z</time></trkpt><trkpt lat="40.7239183" lon="14.8703026"><ele>422.6666666666667</ele><time>2026-03-22T07:44:15.944Z</time></trkpt><trkpt lat="40.7239915" lon="14.8702382"><ele>425.0</ele><time>2026-03-22T07:44:16.942Z</time></trkpt><trkpt lat="40.7240648" lon="14.8701738"><ele>427.33333333333337</ele><time>2026-03-22T07:44:17.95Z</time></trkpt><trkpt lat="40.7241425" lon="14.8701004"><ele>429.6666666666667</ele><time>2026-03-22T07:44:18.951Z</time></trkpt><trkpt lat="40.7242123" lon="14.8700341"><ele>432.0</ele><time>2026-03-22T07:44:19.951Z</time></trkpt><trkpt lat="40.7242741" lon="14.8699782"><ele>434.6666666666667</ele><time>2026-03-22T07:44:20.943Z</time></trkpt><trkpt lat="40.7243339" lon="14.8699184"><ele>437.33333333333337</ele><time>2026-03-22T07:44:21.952Z</time></trkpt><trkpt lat="40.7243884" lon="14.869865"><ele>440.0</ele><time>2026-03-22T07:44:22.955Z</time></trkpt><trkpt lat="40.7244487" lon="14.8698053"><ele>442.6666666666667</ele><time>2026-03-22T07:44:24.025Z</time></trkpt><trkpt lat="40.724531" lon="14.8697162"><ele>445.33333333333337</ele><time>2026-03-22T07:44:26.01Z</time></trkpt><trkpt lat="40.7246131" lon="14.8696223"><ele>448.0</ele><time>2026-03-22T07:44:27.949Z</time></trkpt><trkpt lat="40.7246696" lon="14.8695641"><ele>448.0</ele><time>2026-03-22T07:44:29.943Z</time></trkpt><trkpt lat="40.7246238" lon="14.8696356"><ele>447.99999999999994</ele><time>2026-03-22T07:44:33.946Z</time></trkpt><trkpt lat="40.7245248" lon="14.8697498"><ele>447.99999999999994</ele><time>2026-03-22T07:44:34.936Z</time></trkpt><trkpt lat="40.7244487" lon="14.8698376"><ele>448.0</ele><time>2026-03-22T07:44:35.943Z</time></trkpt><trkpt lat="40.7244002" lon="14.8698945"><ele>448.0</ele><time>2026-03-22T07:44:36.949Z</time></trkpt><trkpt lat="40.7243281" lon="14.8699805"><ele>448.0</ele><time>2026-03-22T07:44:38.951Z</time></trkpt><trkpt lat="40.7242581" lon="14.8700679"><ele>448.0</ele><time>2026-03-22T07:44:41.948Z</time></trkpt><trkpt lat="40.7242131" lon="14.8701262"><ele>448.0</ele><time>2026-03-22T07:44:43.954Z</time></trkpt><trkpt lat="40.7241567" lon="14.8702005"><ele>448.0</ele><time>2026-03-22T07:44:45.938Z</time></trkpt><trkpt lat="40.7241093" lon="14.8702657"><ele>448.0</ele><time>2026-03-22T07:44:47.952Z</time></trkpt><trkpt lat="40.7240604" lon="14.8703241"><ele>448.0</ele><time>2026-03-22T07:44:52.945Z</time></trkpt><trkpt lat="40.7240093" lon="14.8703788"><ele>448.0</ele><time>2026-03-22T07:44:55.035Z</time></trkpt><trkpt lat="40.7239548" lon="14.8704387"><ele>445.33333333333337</ele><time>2026-03-22T07:44:58.966Z</time></trkpt><trkpt lat="40.7239044" lon="14.8704953"><ele>442.6666666666667</ele><time>2026-03-22T07:45:02.96Z</time></trkpt><trkpt lat="40.7238497" lon="14.8705558"><ele>440.0</ele><time>2026-03-22T07:45:08.967Z</time></trkpt><trkpt lat="40.7237708" lon="14.8706403"><ele>437.33333333333337</ele><time>2026-03-22T07:45:12.967Z</time></trkpt><trkpt lat="40.7237093" lon="14.8707066"><ele>434.6666666666667</ele><time>2026-03-22T07:45:15.974Z</time></trkpt><trkpt lat="40.7236585" lon="14.8707616"><ele>432.0</ele><time>2026-03-22T07:45:18.961Z</time></trkpt><trkpt lat="40.7235897" lon="14.8708348"><ele>430.0</ele><time>2026-03-22T07:45:21.944Z</time></trkpt><trkpt lat="40.7235381" lon="14.8708902"><ele>428.0</ele><time>2026-03-22T07:45:23.95Z</time></trkpt><trkpt lat="40.7234867" lon="14.870945"><ele>426.0</ele><time>2026-03-22T07:45:26.953Z</time></trkpt><trkpt lat="40.7234282" lon="14.8710072"><ele>424.0</ele><time>2026-03-22T07:45:30.946Z</time></trkpt><trkpt lat="40.723377" lon="14.8710608"><ele>422.0</ele><time>2026-03-22T07:45:35.958Z</time></trkpt><trkpt lat="40.7233236" lon="14.8711178"><ele>420.0</ele><time>2026-03-22T07:45:40.951Z</time></trkpt><trkpt lat="40.7232626" lon="14.8711807"><ele>418.0</ele><time>2026-03-22T07:45:46.947Z</time></trkpt><trkpt lat="40.7232081" lon="14.8712382"><ele>416.42857142857144</ele><time>2026-03-22T07:45:51.96Z</time></trkpt><trkpt lat="40.7231514" lon="14.8712992"><ele>414.85714285714283</ele><time>2026-03-22T07:45:57.952Z</time></trkpt><trkpt lat="40.7230953" lon="14.8713565"><ele>413.28571428571433</ele><time>2026-03-22T07:46:04.951Z</time></trkpt><trkpt lat="40.7230382" lon="14.8714145"><ele>411.7142857142857</ele><time>2026-03-22T07:46:12.963Z</time></trkpt><trkpt lat="40.7229876" lon="14.8714655"><ele>410.14285714285717</ele><time>2026-03-22T07:46:18.944Z</time></trkpt><trkpt lat="40.7229354" lon="14.8715199"><ele>408.5714285714286</ele><time>2026-03-22T07:46:24.943Z</time></trkpt><trkpt lat="40.7228773" lon="14.8715784"><ele>407.0</ele><time>2026-03-22T07:46:34.937Z</time></trkpt><trkpt lat="40.7228232" lon="14.8716371"><ele>406.99999999999994</ele><time>2026-03-22T07:46:42.956Z</time></trkpt><trkpt lat="40.722737" lon="14.871724"><ele>407.0</ele><time>2026-03-22T07:46:49.954Z</time></trkpt><trkpt lat="40.7226839" lon="14.8717779"><ele>407.0</ele><time>2026-03-22T07:46:52.964Z</time></trkpt><trkpt lat="40.7226342" lon="14.8718305"><ele>407.0</ele><time>2026-03-22T07:46:55.967Z</time></trkpt><trkpt lat="40.7225785" lon="14.8718866"><ele>406.99999999999994</ele><time>2026-03-22T07:46:58.962Z</time></trkpt><trkpt lat="40.7225083" lon="14.8719541"><ele>407.0</ele><time>2026-03-22T07:47:02.955Z</time></trkpt><trkpt lat="40.7224526" lon="14.8720088"><ele>404.3333333333333</ele><time>2026-03-22T07:47:06.96Z</time></trkpt><trkpt lat="40.7223742" lon="14.8720838"><ele>401.66666666666663</ele><time>2026-03-22T07:47:08.962Z</time></trkpt><trkpt lat="40.7223322" lon="14.8721594"><ele>399.0</ele><time>2026-03-22T07:47:27.037Z</time></trkpt><trkpt lat="40.7222758" lon="14.872199"><ele>396.33333333333337</ele><time>2026-03-22T07:47:28.945Z</time></trkpt><trkpt lat="40.7222146" lon="14.872227"><ele>393.6666666666667</ele><time>2026-03-22T07:47:30.956Z</time></trkpt><trkpt lat="40.7221449" lon="14.872242"><ele>391.0</ele><time>2026-03-22T07:47:35.027Z</time></trkpt><trkpt lat="40.7219588" lon="14.8724325"><ele>351.0</ele><time>2026-03-22T07:47:44.025Z</time></trkpt><trkpt lat="40.7210216" lon="14.8735568"><ele>372.0</ele><time>2026-03-22T07:47:52.186Z</time></trkpt><trkpt lat="40.7213659" lon="14.8731375"><ele>372.0</ele><time>2026-03-22T07:48:00.906Z</time></trkpt><trkpt lat="40.7215965" lon="14.872854"><ele>372.0</ele><time>2026-03-22T07:48:09.903Z</time></trkpt><trkpt lat="40.7208784" lon="14.8737674"><ele>372.0</ele><time>2026-03-22T07:49:48.686Z</time></trkpt><trkpt lat="40.7208566" lon="14.8736846"><ele>372.0</ele><time>2026-03-22T07:50:16.401Z</time></trkpt><trkpt lat="40.7209937" lon="14.8735927"><ele>372.0</ele><time>2026-03-22T07:50:35.407Z</time></trkpt><trkpt lat="40.7211604" lon="14.8734747"><ele>372.0</ele><time>2026-03-22T07:50:36.408Z</time></trkpt><trkpt lat="40.7213105" lon="14.8733453"><ele>372.0</ele><time>2026-03-22T07:50:37.402Z</time></trkpt><trkpt lat="40.7214875" lon="14.8731971"><ele>372.0</ele><time>2026-03-22T07:50:38.545Z</time></trkpt><trkpt lat="40.7216398" lon="14.8730746"><ele>372.0</ele><time>2026-03-22T07:50:39.473Z</time></trkpt><trkpt lat="40.7218081" lon="14.8729476"><ele>374.0</ele><time>2026-03-22T07:50:40.376Z</time></trkpt><trkpt lat="40.7219614" lon="14.8728366"><ele>376.0</ele><time>2026-03-22T07:50:41.349Z</time></trkpt><trkpt lat="40.7220849" lon="14.8727455"><ele>378.0</ele><time>2026-03-22T07:50:42.287Z</time></trkpt><trkpt lat="40.7221906" lon="14.8726681"><ele>380.0</ele><time>2026-03-22T07:50:43.288Z</time></trkpt><trkpt lat="40.7222579" lon="14.872606"><ele>382.2</ele><time>2026-03-22T07:50:44.309Z</time></trkpt><trkpt lat="40.722331" lon="14.8725283"><ele>384.4</ele><time>2026-03-22T07:50:46.172Z</time></trkpt><trkpt lat="40.7222691" lon="14.872453"><ele>386.6</ele><time>2026-03-22T07:50:50.042Z</time></trkpt><trkpt lat="40.7221794" lon="14.8724671"><ele>388.8</ele><time>2026-03-22T07:50:51.03Z</time></trkpt><trkpt lat="40.7220965" lon="14.8725249"><ele>391.0</ele><time>2026-03-22T07:50:51.944Z</time></trkpt><trkpt lat="40.7220082" lon="14.8725943"><ele>389.1666666666667</ele><time>2026-03-22T07:50:52.949Z</time></trkpt><trkpt lat="40.7219446" lon="14.8726503"><ele>387.33333333333337</ele><time>2026-03-22T07:50:53.943Z</time></trkpt><trkpt lat="40.7219169" lon="14.8727568"><ele>385.5</ele><time>2026-03-22T07:50:57.946Z</time></trkpt><trkpt lat="40.7218924" lon="14.8728471"><ele>383.6666666666667</ele><time>2026-03-22T07:51:00.952Z</time></trkpt><trkpt lat="40.7218442" lon="14.8729039"><ele>381.83333333333337</ele><time>2026-03-22T07:51:01.946Z</time></trkpt><trkpt lat="40.7217739" lon="14.8729766"><ele>380.0</ele><time>2026-03-22T07:51:02.956Z</time></trkpt><trkpt lat="40.7217184" lon="14.8730193"><ele>378.0</ele><time>2026-03-22T07:51:04.022Z</time></trkpt><trkpt lat="40.7216433" lon="14.8730391"><ele>376.0</ele><time>2026-03-22T07:51:05.935Z</time></trkpt><trkpt lat="40.7215794" lon="14.8730054"><ele>374.0</ele><time>2026-03-22T07:51:10.947Z</time></trkpt><trkpt lat="40.7213196" lon="14.8731808"><ele>372.0</ele><time>2026-03-22T07:51:24.942Z</time></trkpt><trkpt lat="40.7212347" lon="14.8732585"><ele>372.00000000000006</ele><time>2026-03-22T07:51:26.95Z</time></trkpt><trkpt lat="40.7211571" lon="14.8732883"><ele>372.0</ele><time>2026-03-22T07:51:41.951Z</time></trkpt><trkpt lat="40.7211032" lon="14.8733455"><ele>372.0</ele><time>2026-03-22T07:51:43.957Z</time></trkpt><trkpt lat="40.7210393" lon="14.8734138"><ele>372.0</ele><time>2026-03-22T07:51:46.958Z</time></trkpt><trkpt lat="40.7209976" lon="14.8734838"><ele>372.0</ele><time>2026-03-22T07:51:53.956Z</time></trkpt><trkpt lat="40.720944" lon="14.8735514"><ele>372.00000000000006</ele><time>2026-03-22T07:54:12.958Z</time></trkpt><trkpt lat="40.7208839" lon="14.8736008"><ele>372.0</ele><time>2026-03-22T07:54:16.953Z</time></trkpt><trkpt lat="40.720822" lon="14.8736368"><ele>369.00000000000006</ele><time>2026-03-22T07:54:32.96Z</time></trkpt><trkpt lat="40.7207355" lon="14.8736309"><ele>366.0</ele><time>2026-03-22T07:55:00.924Z</time></trkpt><trkpt lat="40.7206673" lon="14.8736403"><ele>363.0</ele><time>2026-03-22T07:55:04.942Z</time></trkpt><trkpt lat="40.7206509" lon="14.8737215"><ele>360.0</ele><time>2026-03-22T07:55:32.889Z</time></trkpt><trkpt lat="40.7205924" lon="14.8737738"><ele>357.0</ele><time>2026-03-22T07:56:53.94Z</time></trkpt><trkpt lat="40.7206448" lon="14.8737158"><ele>354.00000000000006</ele><time>2026-03-22T07:57:55.957Z</time></trkpt><trkpt lat="40.7206763" lon="14.8736346"><ele>351.0</ele><time>2026-03-22T07:58:01.952Z</time></trkpt><trkpt lat="40.7207359" lon="14.8736815"><ele>351.0</ele><time>2026-03-22T07:58:19.956Z</time></trkpt><trkpt lat="40.7206732" lon="14.8736473"><ele>351.0</ele><time>2026-03-22T07:59:54.968Z</time></trkpt><trkpt lat="40.7206713" lon="14.8737596"><ele>351.0</ele><time>2026-03-22T07:59:56.962Z</time></trkpt><trkpt lat="40.7206624" lon="14.873897"><ele>351.0</ele><time>2026-03-22T07:59:58.966Z</time></trkpt><trkpt lat="40.7205636" lon="14.8740092"><ele>351.0</ele><time>2026-03-22T08:00:00.962Z</time></trkpt><trkpt lat="40.7204708" lon="14.8740991"><ele>351.0</ele><time>2026-03-22T08:00:01.964Z</time></trkpt><trkpt lat="40.7203918" lon="14.8742113"><ele>351.0</ele><time>2026-03-22T08:00:02.957Z</time></trkpt><trkpt lat="40.7203124" lon="14.8743312"><ele>351.0</ele><time>2026-03-22T08:00:03.96Z</time></trkpt><trkpt lat="40.7202405" lon="14.8744367"><ele>351.0</ele><time>2026-03-22T08:00:04.958Z</time></trkpt><trkpt lat="40.7201976" lon="14.8745426"><ele>351.0</ele><time>2026-03-22T08:00:05.965Z</time></trkpt><trkpt lat="40.7201926" lon="14.8746613"><ele>346.6</ele><time>2026-03-22T08:00:06.965Z</time></trkpt><trkpt lat="40.7202068" lon="14.8747701"><ele>342.20000000000005</ele><time>2026-03-22T08:00:07.962Z</time></trkpt><trkpt lat="40.7202081" lon="14.8748876"><ele>337.79999999999995</ele><time>2026-03-22T08:00:09.965Z</time></trkpt><trkpt lat="40.7201138" lon="14.8749969"><ele>333.4</ele><time>2026-03-22T08:00:11.965Z</time></trkpt><trkpt lat="40.7200102" lon="14.8750076"><ele>329.0</ele><time>2026-03-22T08:00:12.955Z</time></trkpt><trkpt lat="40.7198999" lon="14.8750171"><ele>329.0</ele><time>2026-03-22T08:00:13.962Z</time></trkpt><trkpt lat="40.7197714" lon="14.8750402"><ele>329.0</ele><time>2026-03-22T08:00:14.96Z</time></trkpt><trkpt lat="40.719647" lon="14.875054"><ele>329.0</ele><time>2026-03-22T08:00:15.961Z</time></trkpt><trkpt lat="40.7195302" lon="14.8750703"><ele>329.0</ele><time>2026-03-22T08:00:16.964Z</time></trkpt><trkpt lat="40.7194413" lon="14.8750997"><ele>326.0</ele><time>2026-03-22T08:00:17.962Z</time></trkpt><trkpt lat="40.7193647" lon="14.8751243"><ele>323.0</ele><time>2026-03-22T08:00:18.968Z</time></trkpt><trkpt lat="40.7192934" lon="14.8751597"><ele>320.0</ele><time>2026-03-22T08:00:19.964Z</time></trkpt><trkpt lat="40.7192483" lon="14.875232"><ele>317.0</ele><time>2026-03-22T08:00:20.963Z</time></trkpt><trkpt lat="40.7192646" lon="14.8753793"><ele>314.0</ele><time>2026-03-22T08:00:21.959Z</time></trkpt><trkpt lat="40.7192542" lon="14.8755221"><ele>311.0</ele><time>2026-03-22T08:00:23.031Z</time></trkpt><trkpt lat="40.7192223" lon="14.8756577"><ele>311.0</ele><time>2026-03-22T08:00:24.028Z</time></trkpt><trkpt lat="40.7191874" lon="14.8757816"><ele>311.0</ele><time>2026-03-22T08:00:25.03Z</time></trkpt><trkpt lat="40.7191163" lon="14.8759019"><ele>311.0</ele><time>2026-03-22T08:00:25.965Z</time></trkpt><trkpt lat="40.719024" lon="14.876021"><ele>311.0</ele><time>2026-03-22T08:00:26.958Z</time></trkpt><trkpt lat="40.7189395" lon="14.8761417"><ele>309.5</ele><time>2026-03-22T08:00:27.962Z</time></trkpt><trkpt lat="40.7188746" lon="14.8762789"><ele>308.0</ele><time>2026-03-22T08:00:28.955Z</time></trkpt><trkpt lat="40.7188212" lon="14.8764445"><ele>306.5</ele><time>2026-03-22T08:00:29.966Z</time></trkpt><trkpt lat="40.7187742" lon="14.8766116"><ele>305.0</ele><time>2026-03-22T08:00:31.028Z</time></trkpt><trkpt lat="40.718735" lon="14.8767655"><ele>304.33333333333337</ele><time>2026-03-22T08:00:31.952Z</time></trkpt><trkpt lat="40.7186909" lon="14.8768866"><ele>303.6666666666667</ele><time>2026-03-22T08:00:32.95Z</time></trkpt><trkpt lat="40.7186488" lon="14.8769891"><ele>303.0</ele><time>2026-03-22T08:00:33.971Z</time></trkpt><trkpt lat="40.7185984" lon="14.8770524"><ele>302.3333333333333</ele><time>2026-03-22T08:00:34.951Z</time></trkpt><trkpt lat="40.7185093" lon="14.877028"><ele>301.66666666666663</ele><time>2026-03-22T08:00:36.952Z</time></trkpt><trkpt lat="40.7184532" lon="14.8769528"><ele>301.0</ele><time>2026-03-22T08:00:37.962Z</time></trkpt><trkpt lat="40.7183806" lon="14.8768574"><ele>300.40000000000003</ele><time>2026-03-22T08:00:38.959Z</time></trkpt><trkpt lat="40.7183139" lon="14.8767546"><ele>299.8</ele><time>2026-03-22T08:00:40.032Z</time></trkpt><trkpt lat="40.7182539" lon="14.8766558"><ele>299.20000000000005</ele><time>2026-03-22T08:00:41.032Z</time></trkpt><trkpt lat="40.7182086" lon="14.876597"><ele>298.6</ele><time>2026-03-22T08:00:41.954Z</time></trkpt><trkpt lat="40.7180769" lon="14.8765478"><ele>298.0</ele><time>2026-03-22T08:00:43.976Z</time></trkpt><trkpt lat="40.7179652" lon="14.87656"><ele>298.0</ele><time>2026-03-22T08:00:44.957Z</time></trkpt><trkpt lat="40.7178567" lon="14.8765842"><ele>298.0</ele><time>2026-03-22T08:00:46.028Z</time></trkpt><trkpt lat="40.7177469" lon="14.8766218"><ele>298.0</ele><time>2026-03-22T08:00:46.955Z</time></trkpt><trkpt lat="40.7176627" lon="14.8767135"><ele>298.0</ele><time>2026-03-22T08:00:47.951Z</time></trkpt><trkpt lat="40.7175893" lon="14.8768461"><ele>294.0</ele><time>2026-03-22T08:00:48.955Z</time></trkpt><trkpt lat="40.7175159" lon="14.8769958"><ele>290.0</ele><time>2026-03-22T08:00:50.036Z</time></trkpt><trkpt lat="40.7174495" lon="14.8771383"><ele>286.0</ele><time>2026-03-22T08:00:50.959Z</time></trkpt><trkpt lat="40.7173641" lon="14.8772616"><ele>282.0</ele><time>2026-03-22T08:00:51.958Z</time></trkpt><trkpt lat="40.7172786" lon="14.8773771"><ele>282.0</ele><time>2026-03-22T08:00:52.961Z</time></trkpt><trkpt lat="40.7172055" lon="14.8775079"><ele>282.0</ele><time>2026-03-22T08:00:53.976Z</time></trkpt><trkpt lat="40.7171469" lon="14.8776522"><ele>282.0</ele><time>2026-03-22T08:00:55.038Z</time></trkpt><trkpt lat="40.7170958" lon="14.8778016"><ele>282.0</ele><time>2026-03-22T08:00:56.031Z</time></trkpt><trkpt lat="40.7170199" lon="14.8779389"><ele>281.0</ele><time>2026-03-22T08:00:56.964Z</time></trkpt><trkpt lat="40.7169234" lon="14.8780588"><ele>280.0</ele><time>2026-03-22T08:00:57.967Z</time></trkpt><trkpt lat="40.7168243" lon="14.8781666"><ele>279.0</ele><time>2026-03-22T08:00:58.963Z</time></trkpt><trkpt lat="40.716722" lon="14.8782734"><ele>278.0</ele><time>2026-03-22T08:00:59.97Z</time></trkpt><trkpt lat="40.7166192" lon="14.8783738"><ele>273.0</ele><time>2026-03-22T08:01:00.966Z</time></trkpt><trkpt lat="40.7165107" lon="14.8784654"><ele>268.0</ele><time>2026-03-22T08:01:01.971Z</time></trkpt><trkpt lat="40.7164073" lon="14.8785598"><ele>263.0</ele><time>2026-03-22T08:01:02.969Z</time></trkpt><trkpt lat="40.7163153" lon="14.8786395"><ele>258.0</ele><time>2026-03-22T08:01:03.963Z</time></trkpt><trkpt lat="40.7162407" lon="14.8787276"><ele>258.0</ele><time>2026-03-22T08:01:05.042Z</time></trkpt><trkpt lat="40.716183" lon="14.8788338"><ele>258.0</ele><time>2026-03-22T08:01:05.988Z</time></trkpt><trkpt lat="40.7161238" lon="14.8789717"><ele>258.0</ele><time>2026-03-22T08:01:06.965Z</time></trkpt><trkpt lat="40.7160727" lon="14.8791221"><ele>258.0</ele><time>2026-03-22T08:01:07.964Z</time></trkpt><trkpt lat="40.7160478" lon="14.8792673"><ele>254.25</ele><time>2026-03-22T08:01:08.969Z</time></trkpt><trkpt lat="40.7160255" lon="14.8794082"><ele>250.5</ele><time>2026-03-22T08:01:09.97Z</time></trkpt><trkpt lat="40.7159789" lon="14.8795544"><ele>246.75</ele><time>2026-03-22T08:01:10.966Z</time></trkpt><trkpt lat="40.7159121" lon="14.8797128"><ele>243.0</ele><time>2026-03-22T08:01:11.97Z</time></trkpt><trkpt lat="40.7158356" lon="14.8798714"><ele>243.0</ele><time>2026-03-22T08:01:12.963Z</time></trkpt><trkpt lat="40.715754" lon="14.8800183"><ele>243.0</ele><time>2026-03-22T08:01:13.968Z</time></trkpt><trkpt lat="40.7156587" lon="14.8801432"><ele>243.0</ele><time>2026-03-22T08:01:14.966Z</time></trkpt><trkpt lat="40.7155556" lon="14.8802651"><ele>243.0</ele><time>2026-03-22T08:01:15.969Z</time></trkpt><trkpt lat="40.7154485" lon="14.8803808"><ele>241.75</ele><time>2026-03-22T08:01:16.97Z</time></trkpt><trkpt lat="40.715335" lon="14.8804889"><ele>240.5</ele><time>2026-03-22T08:01:17.964Z</time></trkpt><trkpt lat="40.7152114" lon="14.8805936"><ele>239.25</ele><time>2026-03-22T08:01:18.971Z</time></trkpt><trkpt lat="40.7150867" lon="14.8806982"><ele>238.0</ele><time>2026-03-22T08:01:19.969Z</time></trkpt><trkpt lat="40.7149729" lon="14.8808106"><ele>233.25</ele><time>2026-03-22T08:01:20.97Z</time></trkpt><trkpt lat="40.7148669" lon="14.8809353"><ele>228.5</ele><time>2026-03-22T08:01:21.97Z</time></trkpt><trkpt lat="40.7147582" lon="14.8810547"><ele>223.75</ele><time>2026-03-22T08:01:22.969Z</time></trkpt><trkpt lat="40.7146348" lon="14.8811485"><ele>219.0</ele><time>2026-03-22T08:01:23.968Z</time></trkpt><trkpt lat="40.7145058" lon="14.8812295"><ele>217.66666666666669</ele><time>2026-03-22T08:01:24.969Z</time></trkpt><trkpt lat="40.7143731" lon="14.8813178"><ele>216.33333333333334</ele><time>2026-03-22T08:01:25.97Z</time></trkpt><trkpt lat="40.7142389" lon="14.8814186"><ele>215.0</ele><time>2026-03-22T08:01:26.968Z</time></trkpt><trkpt lat="40.7141086" lon="14.881514"><ele>215.0</ele><time>2026-03-22T08:01:27.969Z</time></trkpt><trkpt lat="40.7139812" lon="14.881611"><ele>215.0</ele><time>2026-03-22T08:01:28.97Z</time></trkpt><trkpt lat="40.7138619" lon="14.8817033"><ele>215.0</ele><time>2026-03-22T08:01:29.969Z</time></trkpt><trkpt lat="40.7137485" lon="14.8818024"><ele>215.0</ele><time>2026-03-22T08:01:30.973Z</time></trkpt><trkpt lat="40.7136366" lon="14.881905"><ele>211.25</ele><time>2026-03-22T08:01:31.975Z</time></trkpt><trkpt lat="40.7135303" lon="14.8820123"><ele>207.5</ele><time>2026-03-22T08:01:32.97Z</time></trkpt><trkpt lat="40.7134293" lon="14.8821249"><ele>203.75</ele><time>2026-03-22T08:01:33.964Z</time></trkpt><trkpt lat="40.7133382" lon="14.8822492"><ele>200.0</ele><time>2026-03-22T08:01:34.968Z</time></trkpt><trkpt lat="40.7132508" lon="14.8823778"><ele>200.0</ele><time>2026-03-22T08:01:35.974Z</time></trkpt><trkpt lat="40.7131464" lon="14.8825137"><ele>200.0</ele><time>2026-03-22T08:01:36.962Z</time></trkpt><trkpt lat="40.7130375" lon="14.8826617"><ele>200.0</ele><time>2026-03-22T08:01:37.964Z</time></trkpt><trkpt lat="40.7129273" lon="14.8828068"><ele>198.0</ele><time>2026-03-22T08:01:38.964Z</time></trkpt><trkpt lat="40.7128104" lon="14.8829488"><ele>196.0</ele><time>2026-03-22T08:01:39.969Z</time></trkpt><trkpt lat="40.712705" lon="14.8830845"><ele>194.0</ele><time>2026-03-22T08:01:40.965Z</time></trkpt><trkpt lat="40.7126098" lon="14.8832219"><ele>192.0</ele><time>2026-03-22T08:01:41.977Z</time></trkpt><trkpt lat="40.7125209" lon="14.8833586"><ele>189.75</ele><time>2026-03-22T08:01:42.968Z</time></trkpt><trkpt lat="40.7124199" lon="14.8834885"><ele>187.5</ele><time>2026-03-22T08:01:43.973Z</time></trkpt><trkpt lat="40.712314" lon="14.8835969"><ele>185.25</ele><time>2026-03-22T08:01:44.968Z</time></trkpt><trkpt lat="40.712188" lon="14.8836973"><ele>183.0</ele><time>2026-03-22T08:01:45.975Z</time></trkpt><trkpt lat="40.7120597" lon="14.8837838"><ele>183.0</ele><time>2026-03-22T08:01:46.962Z</time></trkpt><trkpt lat="40.7119377" lon="14.8838796"><ele>183.0</ele><time>2026-03-22T08:01:47.966Z</time></trkpt><trkpt lat="40.7118171" lon="14.8839993"><ele>183.0</ele><time>2026-03-22T08:01:48.972Z</time></trkpt><trkpt lat="40.7117002" lon="14.8841279"><ele>183.0</ele><time>2026-03-22T08:01:49.968Z</time></trkpt><trkpt lat="40.7115892" lon="14.8842562"><ele>180.75</ele><time>2026-03-22T08:01:50.969Z</time></trkpt><trkpt lat="40.7114812" lon="14.8843889"><ele>178.5</ele><time>2026-03-22T08:01:51.969Z</time></trkpt><trkpt lat="40.711368" lon="14.8845138"><ele>176.25</ele><time>2026-03-22T08:01:52.965Z</time></trkpt><trkpt lat="40.7112565" lon="14.8846404"><ele>174.0</ele><time>2026-03-22T08:01:53.97Z</time></trkpt><trkpt lat="40.7111558" lon="14.8847823"><ele>174.0</ele><time>2026-03-22T08:01:54.971Z</time></trkpt><trkpt lat="40.7110742" lon="14.8849509"><ele>174.0</ele><time>2026-03-22T08:01:55.968Z</time></trkpt><trkpt lat="40.7109986" lon="14.8851244"><ele>174.0</ele><time>2026-03-22T08:01:56.966Z</time></trkpt><trkpt lat="40.7109244" lon="14.8853102"><ele>169.33333333333334</ele><time>2026-03-22T08:01:57.965Z</time></trkpt><trkpt lat="40.7108485" lon="14.8854872"><ele>164.66666666666669</ele><time>2026-03-22T08:01:58.965Z</time></trkpt><trkpt lat="40.7107685" lon="14.8856661"><ele>160.0</ele><time>2026-03-22T08:01:59.964Z</time></trkpt><trkpt lat="40.7106903" lon="14.8858397"><ele>157.75</ele><time>2026-03-22T08:02:00.966Z</time></trkpt><trkpt lat="40.7106121" lon="14.8860123"><ele>155.5</ele><time>2026-03-22T08:02:01.972Z</time></trkpt><trkpt lat="40.7105414" lon="14.8861731"><ele>153.25</ele><time>2026-03-22T08:02:02.968Z</time></trkpt><trkpt lat="40.7104775" lon="14.8863173"><ele>151.0</ele><time>2026-03-22T08:02:03.968Z</time></trkpt><trkpt lat="40.7104264" lon="14.8864506"><ele>151.0</ele><time>2026-03-22T08:02:04.966Z</time></trkpt><trkpt lat="40.7103768" lon="14.8865731"><ele>151.0</ele><time>2026-03-22T08:02:05.968Z</time></trkpt><trkpt lat="40.7103417" lon="14.8866718"><ele>151.0</ele><time>2026-03-22T08:02:06.969Z</time></trkpt><trkpt lat="40.7103124" lon="14.8867667"><ele>151.0</ele><time>2026-03-22T08:02:07.964Z</time></trkpt><trkpt lat="40.710278" lon="14.8869194"><ele>151.0</ele><time>2026-03-22T08:02:09.965Z</time></trkpt><trkpt lat="40.7102629" lon="14.8870002"><ele>151.0</ele><time>2026-03-22T08:02:10.961Z</time></trkpt><trkpt lat="40.7102403" lon="14.887155"><ele>150.5</ele><time>2026-03-22T08:02:12.97Z</time></trkpt><trkpt lat="40.7102105" lon="14.8872317"><ele>150.0</ele><time>2026-03-22T08:02:16.952Z</time></trkpt><trkpt lat="40.7102258" lon="14.8871316"><ele>149.5</ele><time>2026-03-22T08:11:04.054Z</time></trkpt><trkpt lat="40.7102528" lon="14.8870558"><ele>149.0</ele><time>2026-03-22T08:11:05.959Z</time></trkpt><trkpt lat="40.7101774" lon="14.8869755"><ele>148.5</ele><time>2026-03-22T08:11:08.951Z</time></trkpt><trkpt lat="40.7101029" lon="14.8869733"><ele>148.0</ele><time>2026-03-22T08:11:09.956Z</time></trkpt><trkpt lat="40.7100081" lon="14.8869653"><ele>147.0</ele><time>2026-03-22T08:11:11.017Z</time></trkpt><trkpt lat="40.7099084" lon="14.8869523"><ele>146.0</ele><time>2026-03-22T08:11:11.954Z</time></trkpt><trkpt lat="40.7098024" lon="14.8869288"><ele>145.0</ele><time>2026-03-22T08:11:12.967Z</time></trkpt><trkpt lat="40.7096851" lon="14.8869067"><ele>144.0</ele><time>2026-03-22T08:11:13.981Z</time></trkpt><trkpt lat="40.7095772" lon="14.8868847"><ele>143.0</ele><time>2026-03-22T08:11:15.029Z</time></trkpt><trkpt lat="40.7094845" lon="14.8868729"><ele>143.0</ele><time>2026-03-22T08:11:16.017Z</time></trkpt><trkpt lat="40.7094147" lon="14.8868779"><ele>143.0</ele><time>2026-03-22T08:11:16.957Z</time></trkpt><trkpt lat="40.7093561" lon="14.8869266"><ele>143.0</ele><time>2026-03-22T08:11:17.96Z</time></trkpt><trkpt lat="40.7092958" lon="14.8870293"><ele>143.0</ele><time>2026-03-22T08:11:18.978Z</time></trkpt><trkpt lat="40.7092573" lon="14.8871635"><ele>143.0</ele><time>2026-03-22T08:11:20.026Z</time></trkpt><trkpt lat="40.7092208" lon="14.8873126"><ele>141.75</ele><time>2026-03-22T08:11:21.029Z</time></trkpt><trkpt lat="40.7092083" lon="14.8874875"><ele>140.5</ele><time>2026-03-22T08:11:21.964Z</time></trkpt><trkpt lat="40.7092233" lon="14.887664"><ele>139.25</ele><time>2026-03-22T08:11:22.966Z</time></trkpt><trkpt lat="40.7092405" lon="14.8878295"><ele>138.0</ele><time>2026-03-22T08:11:23.959Z</time></trkpt><trkpt lat="40.7092515" lon="14.8879754"><ele>137.6</ele><time>2026-03-22T08:11:25.03Z</time></trkpt><trkpt lat="40.7092259" lon="14.8880861"><ele>137.20000000000002</ele><time>2026-03-22T08:11:25.955Z</time></trkpt><trkpt lat="40.7091884" lon="14.8881882"><ele>136.8</ele><time>2026-03-22T08:11:26.953Z</time></trkpt><trkpt lat="40.7091238" lon="14.8882775"><ele>136.4</ele><time>2026-03-22T08:11:27.949Z</time></trkpt><trkpt lat="40.7090347" lon="14.8883656"><ele>136.0</ele><time>2026-03-22T08:11:29.017Z</time></trkpt><trkpt lat="40.7089523" lon="14.8884651"><ele>134.75</ele><time>2026-03-22T08:11:30.035Z</time></trkpt><trkpt lat="40.7088926" lon="14.8885885"><ele>133.5</ele><time>2026-03-22T08:11:30.956Z</time></trkpt><trkpt lat="40.7088637" lon="14.8887536"><ele>132.25</ele><time>2026-03-22T08:11:31.943Z</time></trkpt><trkpt lat="40.708869" lon="14.88895"><ele>131.0</ele><time>2026-03-22T08:11:32.947Z</time></trkpt><trkpt lat="40.7088713" lon="14.8891336"><ele>130.25</ele><time>2026-03-22T08:11:34.022Z</time></trkpt><trkpt lat="40.7088717" lon="14.8893099"><ele>129.5</ele><time>2026-03-22T08:11:34.978Z</time></trkpt><trkpt lat="40.7088747" lon="14.8894745"><ele>128.75</ele><time>2026-03-22T08:11:35.956Z</time></trkpt><trkpt lat="40.7088776" lon="14.8896286"><ele>128.0</ele><time>2026-03-22T08:11:36.962Z</time></trkpt><trkpt lat="40.7088779" lon="14.8897791"><ele>128.0</ele><time>2026-03-22T08:11:37.958Z</time></trkpt><trkpt lat="40.7088827" lon="14.8899109"><ele>128.0</ele><time>2026-03-22T08:11:38.955Z</time></trkpt><trkpt lat="40.7089071" lon="14.8900254"><ele>128.0</ele><time>2026-03-22T08:11:39.954Z</time></trkpt><trkpt lat="40.7089471" lon="14.8901316"><ele>128.0</ele><time>2026-03-22T08:11:40.957Z</time></trkpt><trkpt lat="40.7089889" lon="14.8902346"><ele>128.0</ele><time>2026-03-22T08:11:41.956Z</time></trkpt><trkpt lat="40.7090412" lon="14.8903287"><ele>127.49999999999999</ele><time>2026-03-22T08:11:43.036Z</time></trkpt><trkpt lat="40.7090944" lon="14.8904203"><ele>127.0</ele><time>2026-03-22T08:11:44.032Z</time></trkpt><trkpt lat="40.7091424" lon="14.8905211"><ele>126.5</ele><time>2026-03-22T08:11:44.954Z</time></trkpt><trkpt lat="40.7091907" lon="14.8906282"><ele>126.0</ele><time>2026-03-22T08:11:45.948Z</time></trkpt><trkpt lat="40.7092316" lon="14.8907296"><ele>125.49999999999999</ele><time>2026-03-22T08:11:46.952Z</time></trkpt><trkpt lat="40.7092561" lon="14.8908351"><ele>125.0</ele><time>2026-03-22T08:11:47.955Z</time></trkpt><trkpt lat="40.7092626" lon="14.8909484"><ele>124.66666666666666</ele><time>2026-03-22T08:11:48.956Z</time></trkpt><trkpt lat="40.709262" lon="14.8910634"><ele>124.33333333333333</ele><time>2026-03-22T08:11:49.951Z</time></trkpt><trkpt lat="40.7092658" lon="14.891179"><ele>124.0</ele><time>2026-03-22T08:11:50.955Z</time></trkpt><trkpt lat="40.7092673" lon="14.8912914"><ele>123.66666666666666</ele><time>2026-03-22T08:11:51.952Z</time></trkpt><trkpt lat="40.7092704" lon="14.8913947"><ele>123.33333333333333</ele><time>2026-03-22T08:11:52.951Z</time></trkpt><trkpt lat="40.7092894" lon="14.8914867"><ele>123.0</ele><time>2026-03-22T08:11:53.941Z</time></trkpt><trkpt lat="40.7093192" lon="14.8915736"><ele>123.0</ele><time>2026-03-22T08:11:54.953Z</time></trkpt><trkpt lat="40.7093644" lon="14.8916776"><ele>123.00000000000001</ele><time>2026-03-22T08:11:56.967Z</time></trkpt><trkpt lat="40.7093727" lon="14.8917891"><ele>123.00000000000001</ele><time>2026-03-22T08:11:59.954Z</time></trkpt><trkpt lat="40.7093163" lon="14.8919263"><ele>123.0</ele><time>2026-03-22T08:12:01.959Z</time></trkpt><trkpt lat="40.7092357" lon="14.8920204"><ele>123.0</ele><time>2026-03-22T08:12:02.955Z</time></trkpt><trkpt lat="40.7091519" lon="14.8921124"><ele>122.5</ele><time>2026-03-22T08:12:03.954Z</time></trkpt><trkpt lat="40.7090634" lon="14.8922253"><ele>122.0</ele><time>2026-03-22T08:12:04.96Z</time></trkpt><trkpt lat="40.7089552" lon="14.8923499"><ele>121.5</ele><time>2026-03-22T08:12:05.962Z</time></trkpt><trkpt lat="40.7088396" lon="14.8924695"><ele>121.0</ele><time>2026-03-22T08:12:06.975Z</time></trkpt><trkpt lat="40.7087225" lon="14.8926025"><ele>121.0</ele><time>2026-03-22T08:12:07.963Z</time></trkpt><trkpt lat="40.7086044" lon="14.8927431"><ele>121.0</ele><time>2026-03-22T08:12:08.965Z</time></trkpt><trkpt lat="40.7084832" lon="14.8928826"><ele>121.0</ele><time>2026-03-22T08:12:09.95Z</time></trkpt><trkpt lat="40.7083606" lon="14.8930157"><ele>121.0</ele><time>2026-03-22T08:12:10.96Z</time></trkpt><trkpt lat="40.708236" lon="14.8931331"><ele>121.0</ele><time>2026-03-22T08:12:11.959Z</time></trkpt><trkpt lat="40.70811" lon="14.8932435"><ele>121.0</ele><time>2026-03-22T08:12:12.963Z</time></trkpt><trkpt lat="40.7079732" lon="14.8933289"><ele>121.0</ele><time>2026-03-22T08:12:13.962Z</time></trkpt><trkpt lat="40.707834" lon="14.8934005"><ele>121.0</ele><time>2026-03-22T08:12:14.95Z</time></trkpt><trkpt lat="40.7076829" lon="14.8934521"><ele>121.0</ele><time>2026-03-22T08:12:15.963Z</time></trkpt><trkpt lat="40.7075248" lon="14.893482"><ele>121.0</ele><time>2026-03-22T08:12:16.973Z</time></trkpt><trkpt lat="40.7073661" lon="14.8934963"><ele>121.0</ele><time>2026-03-22T08:12:18.029Z</time></trkpt><trkpt lat="40.707202" lon="14.8934975"><ele>121.0</ele><time>2026-03-22T08:12:18.96Z</time></trkpt><trkpt lat="40.7070374" lon="14.8934896"><ele>121.0</ele><time>2026-03-22T08:12:20.042Z</time></trkpt><trkpt lat="40.7068749" lon="14.8934762"><ele>121.0</ele><time>2026-03-22T08:12:20.971Z</time></trkpt><trkpt lat="40.7067119" lon="14.893447"><ele>121.0</ele><time>2026-03-22T08:12:21.968Z</time></trkpt><trkpt lat="40.7065535" lon="14.8934007"><ele>121.0</ele><time>2026-03-22T08:12:22.968Z</time></trkpt><trkpt lat="40.7064" lon="14.8933417"><ele>121.0</ele><time>2026-03-22T08:12:23.974Z</time></trkpt><trkpt lat="40.7062487" lon="14.8932826"><ele>121.0</ele><time>2026-03-22T08:12:24.97Z</time></trkpt><trkpt lat="40.7060936" lon="14.8932296"><ele>121.0</ele><time>2026-03-22T08:12:25.997Z</time></trkpt><trkpt lat="40.7059462" lon="14.8931669"><ele>121.0</ele><time>2026-03-22T08:12:26.968Z</time></trkpt><trkpt lat="40.7057942" lon="14.8931108"><ele>121.0</ele><time>2026-03-22T08:12:27.969Z</time></trkpt><trkpt lat="40.7056415" lon="14.8930417"><ele>121.0</ele><time>2026-03-22T08:12:29.018Z</time></trkpt><trkpt lat="40.7054918" lon="14.8929692"><ele>121.0</ele><time>2026-03-22T08:12:30.034Z</time></trkpt><trkpt lat="40.7053408" lon="14.8928987"><ele>121.0</ele><time>2026-03-22T08:12:31.033Z</time></trkpt><trkpt lat="40.7051932" lon="14.8928364"><ele>121.75</ele><time>2026-03-22T08:12:31.999Z</time></trkpt><trkpt lat="40.7050477" lon="14.8927882"><ele>122.5</ele><time>2026-03-22T08:12:32.99Z</time></trkpt><trkpt lat="40.7049104" lon="14.8927343"><ele>123.25</ele><time>2026-03-22T08:12:33.966Z</time></trkpt><trkpt lat="40.7047792" lon="14.8926801"><ele>124.0</ele><time>2026-03-22T08:12:35.031Z</time></trkpt><trkpt lat="40.704651" lon="14.892634"><ele>123.6</ele><time>2026-03-22T08:12:36.033Z</time></trkpt><trkpt lat="40.7045333" lon="14.8925868"><ele>123.2</ele><time>2026-03-22T08:12:36.959Z</time></trkpt><trkpt lat="40.7044169" lon="14.8925356"><ele>122.79999999999998</ele><time>2026-03-22T08:12:37.968Z</time></trkpt><trkpt lat="40.7043168" lon="14.8924961"><ele>122.39999999999999</ele><time>2026-03-22T08:12:38.959Z</time></trkpt><trkpt lat="40.7042362" lon="14.8924592"><ele>122.0</ele><time>2026-03-22T08:12:40.034Z</time></trkpt><trkpt lat="40.7041315" lon="14.8924541"><ele>122.8</ele><time>2026-03-22T08:12:41.954Z</time></trkpt><trkpt lat="40.7040932" lon="14.8925759"><ele>123.6</ele><time>2026-03-22T08:12:43.949Z</time></trkpt><trkpt lat="40.7040688" lon="14.8926989"><ele>124.39999999999999</ele><time>2026-03-22T08:12:44.96Z</time></trkpt><trkpt lat="40.7040449" lon="14.8928373"><ele>125.19999999999999</ele><time>2026-03-22T08:12:45.947Z</time></trkpt><trkpt lat="40.7040113" lon="14.8929754"><ele>126.0</ele><time>2026-03-22T08:12:46.955Z</time></trkpt><trkpt lat="40.7039701" lon="14.8931176"><ele>126.19999999999999</ele><time>2026-03-22T08:12:47.945Z</time></trkpt><trkpt lat="40.7039318" lon="14.8932598"><ele>126.39999999999999</ele><time>2026-03-22T08:12:48.949Z</time></trkpt><trkpt lat="40.7038946" lon="14.8933868"><ele>126.6</ele><time>2026-03-22T08:12:49.962Z</time></trkpt><trkpt lat="40.7038615" lon="14.893492"><ele>126.8</ele><time>2026-03-22T08:12:50.96Z</time></trkpt><trkpt lat="40.7038268" lon="14.8935927"><ele>127.0</ele><time>2026-03-22T08:12:51.959Z</time></trkpt><trkpt lat="40.7038023" lon="14.8936887"><ele>127.6</ele><time>2026-03-22T08:12:52.958Z</time></trkpt><trkpt lat="40.7037977" lon="14.8937861"><ele>128.2</ele><time>2026-03-22T08:12:53.948Z</time></trkpt><trkpt lat="40.7038142" lon="14.8939002"><ele>128.8</ele><time>2026-03-22T08:12:54.96Z</time></trkpt><trkpt lat="40.7038108" lon="14.894012"><ele>129.4</ele><time>2026-03-22T08:12:55.958Z</time></trkpt><trkpt lat="40.7037805" lon="14.8941395"><ele>130.0</ele><time>2026-03-22T08:12:56.965Z</time></trkpt><trkpt lat="40.7037481" lon="14.8942782"><ele>131.5</ele><time>2026-03-22T08:12:57.959Z</time></trkpt><trkpt lat="40.7037018" lon="14.8944143"><ele>133.0</ele><time>2026-03-22T08:12:58.965Z</time></trkpt><trkpt lat="40.7036589" lon="14.8945547"><ele>134.5</ele><time>2026-03-22T08:12:59.957Z</time></trkpt><trkpt lat="40.7036148" lon="14.8947102"><ele>136.0</ele><time>2026-03-22T08:13:00.953Z</time></trkpt><trkpt lat="40.7035741" lon="14.8948624"><ele>136.25</ele><time>2026-03-22T08:13:01.956Z</time></trkpt><trkpt lat="40.7035336" lon="14.8950217"><ele>136.5</ele><time>2026-03-22T08:13:02.955Z</time></trkpt><trkpt lat="40.7034944" lon="14.8951829"><ele>136.75</ele><time>2026-03-22T08:13:03.956Z</time></trkpt><trkpt lat="40.7034514" lon="14.8953433"><ele>137.0</ele><time>2026-03-22T08:13:05.023Z</time></trkpt><trkpt lat="40.7034129" lon="14.8954987"><ele>139.2</ele><time>2026-03-22T08:13:06.029Z</time></trkpt><trkpt lat="40.703375" lon="14.8956427"><ele>141.39999999999998</ele><time>2026-03-22T08:13:06.957Z</time></trkpt><trkpt lat="40.7033364" lon="14.8957758"><ele>143.60000000000002</ele><time>2026-03-22T08:13:07.961Z</time></trkpt><trkpt lat="40.7033167" lon="14.8958835"><ele>145.8</ele><time>2026-03-22T08:13:08.98Z</time></trkpt><trkpt lat="40.7032963" lon="14.895971"><ele>148.0</ele><time>2026-03-22T08:13:10.052Z</time></trkpt><trkpt lat="40.7033216" lon="14.8960892"><ele>149.20000000000002</ele><time>2026-03-22T08:13:11.945Z</time></trkpt><trkpt lat="40.7034172" lon="14.896097"><ele>150.4</ele><time>2026-03-22T08:13:14.036Z</time></trkpt><trkpt lat="40.7034923" lon="14.8961044"><ele>151.60000000000002</ele><time>2026-03-22T08:13:15.029Z</time></trkpt><trkpt lat="40.7035847" lon="14.8961114"><ele>152.8</ele><time>2026-03-22T08:13:16.029Z</time></trkpt><trkpt lat="40.7036852" lon="14.8961253"><ele>154.0</ele><time>2026-03-22T08:13:16.96Z</time></trkpt><trkpt lat="40.7037803" lon="14.8961586"><ele>154.2</ele><time>2026-03-22T08:13:18.049Z</time></trkpt><trkpt lat="40.7038787" lon="14.8962053"><ele>154.4</ele><time>2026-03-22T08:13:19.029Z</time></trkpt><trkpt lat="40.7039881" lon="14.8962366"><ele>154.6</ele><time>2026-03-22T08:13:20.045Z</time></trkpt><trkpt lat="40.7040981" lon="14.8962462"><ele>154.8</ele><time>2026-03-22T08:13:20.977Z</time></trkpt><trkpt lat="40.7042012" lon="14.8962583"><ele>155.0</ele><time>2026-03-22T08:13:21.96Z</time></trkpt><trkpt lat="40.7042823" lon="14.8962788"><ele>155.0</ele><time>2026-03-22T08:13:22.962Z</time></trkpt><trkpt lat="40.7043811" lon="14.8963628"><ele>155.0</ele><time>2026-03-22T08:13:24.953Z</time></trkpt><trkpt lat="40.7044492" lon="14.8965007"><ele>155.0</ele><time>2026-03-22T08:13:26.959Z</time></trkpt><trkpt lat="40.7044911" lon="14.8965663"><ele>155.0</ele><time>2026-03-22T08:13:27.962Z</time></trkpt><trkpt lat="40.704541" lon="14.8966253"><ele>155.0</ele><time>2026-03-22T08:13:28.946Z</time></trkpt><trkpt lat="40.7045671" lon="14.89678"><ele>155.28571428571428</ele><time>2026-03-22T08:13:30.96Z</time></trkpt><trkpt lat="40.7045804" lon="14.896889"><ele>155.57142857142856</ele><time>2026-03-22T08:13:31.957Z</time></trkpt><trkpt lat="40.7045954" lon="14.8969907"><ele>155.85714285714283</ele><time>2026-03-22T08:13:32.962Z</time></trkpt><trkpt lat="40.7046036" lon="14.897085"><ele>156.14285714285714</ele><time>2026-03-22T08:13:33.946Z</time></trkpt><trkpt lat="40.7045892" lon="14.8971692"><ele>156.42857142857142</ele><time>2026-03-22T08:13:34.98Z</time></trkpt><trkpt lat="40.7045687" lon="14.8972511"><ele>156.7142857142857</ele><time>2026-03-22T08:13:35.959Z</time></trkpt><trkpt lat="40.7045448" lon="14.8973356"><ele>157.0</ele><time>2026-03-22T08:13:36.951Z</time></trkpt><trkpt lat="40.7044968" lon="14.8974668"><ele>156.2</ele><time>2026-03-22T08:13:37.959Z</time></trkpt><trkpt lat="40.704441" lon="14.8976097"><ele>155.39999999999998</ele><time>2026-03-22T08:13:38.962Z</time></trkpt><trkpt lat="40.7043989" lon="14.8977526"><ele>154.60000000000002</ele><time>2026-03-22T08:13:39.957Z</time></trkpt><trkpt lat="40.7043755" lon="14.8978593"><ele>153.8</ele><time>2026-03-22T08:13:40.959Z</time></trkpt><trkpt lat="40.704324" lon="14.8979792"><ele>153.0</ele><time>2026-03-22T08:13:43.029Z</time></trkpt><trkpt lat="40.7042439" lon="14.8980338"><ele>152.8</ele><time>2026-03-22T08:13:44.963Z</time></trkpt><trkpt lat="40.7041762" lon="14.898054"><ele>152.60000000000002</ele><time>2026-03-22T08:13:45.966Z</time></trkpt><trkpt lat="40.7041355" lon="14.8982077"><ele>152.39999999999998</ele><time>2026-03-22T08:13:47.956Z</time></trkpt><trkpt lat="40.7042163" lon="14.8983999"><ele>152.2</ele><time>2026-03-22T08:13:50.947Z</time></trkpt><trkpt lat="40.7042833" lon="14.8984276"><ele>152.0</ele><time>2026-03-22T08:13:51.959Z</time></trkpt><trkpt lat="40.7043717" lon="14.8984265"><ele>152.2</ele><time>2026-03-22T08:13:52.967Z</time></trkpt><trkpt lat="40.7044693" lon="14.8984342"><ele>152.39999999999998</ele><time>2026-03-22T08:13:53.962Z</time></trkpt><trkpt lat="40.7045842" lon="14.8984319"><ele>152.60000000000002</ele><time>2026-03-22T08:13:54.966Z</time></trkpt><trkpt lat="40.7046924" lon="14.8984123"><ele>152.8</ele><time>2026-03-22T08:13:56.012Z</time></trkpt><trkpt lat="40.70479" lon="14.8983669"><ele>153.0</ele><time>2026-03-22T08:13:56.961Z</time></trkpt><trkpt lat="40.7048726" lon="14.8982972"><ele>153.0</ele><time>2026-03-22T08:13:57.958Z</time></trkpt><trkpt lat="40.7049448" lon="14.8982362"><ele>153.0</ele><time>2026-03-22T08:13:58.955Z</time></trkpt><trkpt lat="40.7050242" lon="14.898204"><ele>153.0</ele><time>2026-03-22T08:13:59.957Z</time></trkpt><trkpt lat="40.7051235" lon="14.8981836"><ele>153.0</ele><time>2026-03-22T08:14:00.955Z</time></trkpt><trkpt lat="40.7052497" lon="14.8982033"><ele>153.0</ele><time>2026-03-22T08:14:01.958Z</time></trkpt><trkpt lat="40.7053771" lon="14.8982458"><ele>153.0</ele><time>2026-03-22T08:14:02.962Z</time></trkpt><trkpt lat="40.7055104" lon="14.8982918"><ele>153.0</ele><time>2026-03-22T08:14:04.007Z</time></trkpt><trkpt lat="40.7056386" lon="14.8983415"><ele>153.0</ele><time>2026-03-22T08:14:05.019Z</time></trkpt><trkpt lat="40.7057643" lon="14.8983984"><ele>153.0</ele><time>2026-03-22T08:14:05.947Z</time></trkpt><trkpt lat="40.7058784" lon="14.8984513"><ele>152.8</ele><time>2026-03-22T08:14:06.971Z</time></trkpt><trkpt lat="40.705988" lon="14.898506"><ele>152.60000000000002</ele><time>2026-03-22T08:14:08.013Z</time></trkpt><trkpt lat="40.7060949" lon="14.8985513"><ele>152.39999999999998</ele><time>2026-03-22T08:14:09.014Z</time></trkpt><trkpt lat="40.7061986" lon="14.898595"><ele>152.2</ele><time>2026-03-22T08:14:10.019Z</time></trkpt><trkpt lat="40.7062974" lon="14.8986279"><ele>152.0</ele><time>2026-03-22T08:14:11.031Z</time></trkpt><trkpt lat="40.7063965" lon="14.8986511"><ele>152.0</ele><time>2026-03-22T08:14:11.961Z</time></trkpt><trkpt lat="40.7065103" lon="14.8986698"><ele>152.0</ele><time>2026-03-22T08:14:12.964Z</time></trkpt><trkpt lat="40.7066207" lon="14.8986698"><ele>152.0</ele><time>2026-03-22T08:14:13.95Z</time></trkpt><trkpt lat="40.7067431" lon="14.8986804"><ele>152.0</ele><time>2026-03-22T08:14:15.046Z</time></trkpt><trkpt lat="40.7068342" lon="14.8987032"><ele>152.0</ele><time>2026-03-22T08:14:16.031Z</time></trkpt><trkpt lat="40.706917" lon="14.8987631"><ele>152.4</ele><time>2026-03-22T08:14:16.951Z</time></trkpt><trkpt lat="40.7069909" lon="14.8988376"><ele>152.79999999999998</ele><time>2026-03-22T08:14:17.937Z</time></trkpt><trkpt lat="40.7070613" lon="14.8989052"><ele>153.2</ele><time>2026-03-22T08:14:18.956Z</time></trkpt><trkpt lat="40.7071353" lon="14.8989354"><ele>153.6</ele><time>2026-03-22T08:14:20.027Z</time></trkpt><trkpt lat="40.7072218" lon="14.8989442"><ele>154.0</ele><time>2026-03-22T08:14:21.031Z</time></trkpt><trkpt lat="40.7073341" lon="14.8989492"><ele>154.0</ele><time>2026-03-22T08:14:21.975Z</time></trkpt><trkpt lat="40.7074522" lon="14.8989531"><ele>154.0</ele><time>2026-03-22T08:14:22.975Z</time></trkpt><trkpt lat="40.7075705" lon="14.8989861"><ele>154.0</ele><time>2026-03-22T08:14:23.978Z</time></trkpt><trkpt lat="40.7076855" lon="14.8990085"><ele>154.0</ele><time>2026-03-22T08:14:25.037Z</time></trkpt><trkpt lat="40.7077976" lon="14.8990309"><ele>154.0</ele><time>2026-03-22T08:14:26.03Z</time></trkpt><trkpt lat="40.7079073" lon="14.8990802"><ele>154.0</ele><time>2026-03-22T08:14:26.948Z</time></trkpt><trkpt lat="40.7080189" lon="14.899138"><ele>154.0</ele><time>2026-03-22T08:14:27.954Z</time></trkpt><trkpt lat="40.7081356" lon="14.8991837"><ele>154.0</ele><time>2026-03-22T08:14:29.043Z</time></trkpt><trkpt lat="40.7082456" lon="14.8992167"><ele>154.4</ele><time>2026-03-22T08:14:29.958Z</time></trkpt><trkpt lat="40.7083315" lon="14.8992536"><ele>154.8</ele><time>2026-03-22T08:14:30.951Z</time></trkpt><trkpt lat="40.7083863" lon="14.899305"><ele>155.2</ele><time>2026-03-22T08:14:31.979Z</time></trkpt><trkpt lat="40.708482" lon="14.8993991"><ele>155.6</ele><time>2026-03-22T08:14:32.958Z</time></trkpt><trkpt lat="40.7085724" lon="14.8995088"><ele>156.0</ele><time>2026-03-22T08:14:33.966Z</time></trkpt><trkpt lat="40.7086687" lon="14.8996105"><ele>156.0</ele><time>2026-03-22T08:14:34.959Z</time></trkpt><trkpt lat="40.7087667" lon="14.8996776"><ele>156.0</ele><time>2026-03-22T08:14:35.947Z</time></trkpt><trkpt lat="40.7088554" lon="14.899708"><ele>156.0</ele><time>2026-03-22T08:14:36.946Z</time></trkpt><trkpt lat="40.7089397" lon="14.8997367"><ele>156.0</ele><time>2026-03-22T08:14:37.961Z</time></trkpt><trkpt lat="40.7090203" lon="14.8997758"><ele>156.0</ele><time>2026-03-22T08:14:38.964Z</time></trkpt><trkpt lat="40.7091019" lon="14.8998679"><ele>156.0</ele><time>2026-03-22T08:14:39.952Z</time></trkpt><trkpt lat="40.7091855" lon="14.8999634"><ele>156.0</ele><time>2026-03-22T08:14:40.958Z</time></trkpt><trkpt lat="40.7092783" lon="14.9000616"><ele>156.0</ele><time>2026-03-22T08:14:41.964Z</time></trkpt><trkpt lat="40.7093808" lon="14.9001268"><ele>156.0</ele><time>2026-03-22T08:14:42.968Z</time></trkpt><trkpt lat="40.7094855" lon="14.9002231"><ele>156.4</ele><time>2026-03-22T08:14:44.02Z</time></trkpt><trkpt lat="40.7095859" lon="14.9003245"><ele>156.8</ele><time>2026-03-22T08:14:45.026Z</time></trkpt><trkpt lat="40.7096626" lon="14.900419"><ele>157.20000000000002</ele><time>2026-03-22T08:14:46.014Z</time></trkpt><trkpt lat="40.7097075" lon="14.9005019"><ele>157.6</ele><time>2026-03-22T08:14:46.967Z</time></trkpt><trkpt lat="40.70972" lon="14.9005987"><ele>158.0</ele><time>2026-03-22T08:14:47.965Z</time></trkpt><trkpt lat="40.7097207" lon="14.9007254"><ele>158.0</ele><time>2026-03-22T08:14:48.985Z</time></trkpt><trkpt lat="40.7097289" lon="14.9008355"><ele>158.0</ele><time>2026-03-22T08:14:49.954Z</time></trkpt><trkpt lat="40.7097499" lon="14.900936"><ele>158.0</ele><time>2026-03-22T08:14:50.963Z</time></trkpt><trkpt lat="40.7097911" lon="14.9010339"><ele>158.0</ele><time>2026-03-22T08:14:51.954Z</time></trkpt><trkpt lat="40.7098066" lon="14.9011315"><ele>158.0</ele><time>2026-03-22T08:14:53.975Z</time></trkpt><trkpt lat="40.7097227" lon="14.9012305"><ele>158.0</ele><time>2026-03-22T08:14:55.955Z</time></trkpt><trkpt lat="40.709647" lon="14.9013104"><ele>159.0</ele><time>2026-03-22T08:14:56.959Z</time></trkpt><trkpt lat="40.7095615" lon="14.9013791"><ele>160.0</ele><time>2026-03-22T08:14:58.003Z</time></trkpt><trkpt lat="40.7094709" lon="14.9014537"><ele>161.0</ele><time>2026-03-22T08:14:58.96Z</time></trkpt><trkpt lat="40.7093737" lon="14.901521"><ele>162.0</ele><time>2026-03-22T08:15:00.029Z</time></trkpt><trkpt lat="40.7092531" lon="14.9015929"><ele>163.0</ele><time>2026-03-22T08:15:00.967Z</time></trkpt><trkpt lat="40.7091286" lon="14.9016617"><ele>163.0</ele><time>2026-03-22T08:15:01.97Z</time></trkpt><trkpt lat="40.7089847" lon="14.9017304"><ele>163.0</ele><time>2026-03-22T08:15:02.97Z</time></trkpt><trkpt lat="40.7088476" lon="14.9018126"><ele>163.0</ele><time>2026-03-22T08:15:03.977Z</time></trkpt><trkpt lat="40.7087149" lon="14.9019113"><ele>164.75</ele><time>2026-03-22T08:15:04.976Z</time></trkpt><trkpt lat="40.7085802" lon="14.9020012"><ele>166.5</ele><time>2026-03-22T08:15:05.965Z</time></trkpt><trkpt lat="40.7084531" lon="14.9020954"><ele>168.25</ele><time>2026-03-22T08:15:06.968Z</time></trkpt><trkpt lat="40.7083354" lon="14.9021908"><ele>170.0</ele><time>2026-03-22T08:15:07.981Z</time></trkpt><trkpt lat="40.708223" lon="14.9022996"><ele>170.0</ele><time>2026-03-22T08:15:08.982Z</time></trkpt><trkpt lat="40.7081073" lon="14.9024029"><ele>170.0</ele><time>2026-03-22T08:15:09.975Z</time></trkpt><trkpt lat="40.7079903" lon="14.9025042"><ele>170.0</ele><time>2026-03-22T08:15:10.976Z</time></trkpt><trkpt lat="40.7078771" lon="14.902596"><ele>170.0</ele><time>2026-03-22T08:15:11.98Z</time></trkpt><trkpt lat="40.7077693" lon="14.9026662"><ele>169.2</ele><time>2026-03-22T08:15:12.974Z</time></trkpt><trkpt lat="40.7076783" lon="14.9027328"><ele>168.4</ele><time>2026-03-22T08:15:13.969Z</time></trkpt><trkpt lat="40.7075948" lon="14.9027941"><ele>167.60000000000002</ele><time>2026-03-22T08:15:14.974Z</time></trkpt><trkpt lat="40.7075212" lon="14.902858"><ele>166.8</ele><time>2026-03-22T08:15:16.971Z</time></trkpt><trkpt lat="40.7074167" lon="14.9028775"><ele>166.0</ele><time>2026-03-22T08:15:18.975Z</time></trkpt><trkpt lat="40.7073143" lon="14.9028715"><ele>166.0</ele><time>2026-03-22T08:15:19.97Z</time></trkpt><trkpt lat="40.7072002" lon="14.9028772"><ele>166.0</ele><time>2026-03-22T08:15:20.972Z</time></trkpt><trkpt lat="40.7070824" lon="14.9029186"><ele>166.0</ele><time>2026-03-22T08:15:21.972Z</time></trkpt><trkpt lat="40.706957" lon="14.9029699"><ele>166.0</ele><time>2026-03-22T08:15:22.973Z</time></trkpt><trkpt lat="40.7068256" lon="14.9030473"><ele>165.33333333333334</ele><time>2026-03-22T08:15:23.974Z</time></trkpt><trkpt lat="40.7066857" lon="14.9031432"><ele>164.66666666666666</ele><time>2026-03-22T08:15:24.969Z</time></trkpt><trkpt lat="40.7065414" lon="14.903239"><ele>164.0</ele><time>2026-03-22T08:15:25.979Z</time></trkpt><trkpt lat="40.7063967" lon="14.9033408"><ele>161.33333333333331</ele><time>2026-03-22T08:15:26.973Z</time></trkpt><trkpt lat="40.7062572" lon="14.9034372"><ele>158.66666666666666</ele><time>2026-03-22T08:15:27.973Z</time></trkpt><trkpt lat="40.7061205" lon="14.9035335"><ele>156.0</ele><time>2026-03-22T08:15:28.969Z</time></trkpt><trkpt lat="40.705982" lon="14.903627"><ele>156.0</ele><time>2026-03-22T08:15:29.962Z</time></trkpt><trkpt lat="40.7058456" lon="14.9037107"><ele>156.0</ele><time>2026-03-22T08:15:30.974Z</time></trkpt><trkpt lat="40.7057078" lon="14.9037992"><ele>156.0</ele><time>2026-03-22T08:15:31.974Z</time></trkpt><trkpt lat="40.7055665" lon="14.90388"><ele>156.0</ele><time>2026-03-22T08:15:32.977Z</time></trkpt><trkpt lat="40.7054255" lon="14.9039688"><ele>156.0</ele><time>2026-03-22T08:15:33.957Z</time></trkpt><trkpt lat="40.7052869" lon="14.9040607"><ele>156.0</ele><time>2026-03-22T08:15:34.993Z</time></trkpt><trkpt lat="40.7051581" lon="14.9041533"><ele>156.25</ele><time>2026-03-22T08:15:35.971Z</time></trkpt><trkpt lat="40.7050406" lon="14.9042412"><ele>156.5</ele><time>2026-03-22T08:15:36.978Z</time></trkpt><trkpt lat="40.704926" lon="14.9043176"><ele>156.75</ele><time>2026-03-22T08:15:37.98Z</time></trkpt><trkpt lat="40.7048239" lon="14.9043841"><ele>157.0</ele><time>2026-03-22T08:15:38.976Z</time></trkpt><trkpt lat="40.7047327" lon="14.9044638"><ele>157.0</ele><time>2026-03-22T08:15:39.977Z</time></trkpt><trkpt lat="40.7046503" lon="14.9045616"><ele>157.0</ele><time>2026-03-22T08:15:40.975Z</time></trkpt><trkpt lat="40.7045698" lon="14.9046666"><ele>157.0</ele><time>2026-03-22T08:15:41.973Z</time></trkpt><trkpt lat="40.7044778" lon="14.9047878"><ele>157.0</ele><time>2026-03-22T08:15:42.969Z</time></trkpt><trkpt lat="40.7043828" lon="14.9049011"><ele>157.0</ele><time>2026-03-22T08:15:43.968Z</time></trkpt><trkpt lat="40.7042817" lon="14.905016"><ele>157.0</ele><time>2026-03-22T08:15:44.974Z</time></trkpt><trkpt lat="40.7041838" lon="14.9051314"><ele>157.0</ele><time>2026-03-22T08:15:45.978Z</time></trkpt><trkpt lat="40.7040844" lon="14.905245"><ele>157.0</ele><time>2026-03-22T08:15:46.97Z</time></trkpt><trkpt lat="40.7039873" lon="14.9053587"><ele>156.25</ele><time>2026-03-22T08:15:47.959Z</time></trkpt><trkpt lat="40.7038936" lon="14.9054594"><ele>155.5</ele><time>2026-03-22T08:15:48.969Z</time></trkpt><trkpt lat="40.7038093" lon="14.9055583"><ele>154.75</ele><time>2026-03-22T08:15:49.976Z</time></trkpt><trkpt lat="40.7037189" lon="14.9056564"><ele>154.0</ele><time>2026-03-22T08:15:50.977Z</time></trkpt><trkpt lat="40.7036361" lon="14.9057586"><ele>153.75</ele><time>2026-03-22T08:15:51.975Z</time></trkpt><trkpt lat="40.7035577" lon="14.9058571"><ele>153.5</ele><time>2026-03-22T08:15:52.969Z</time></trkpt><trkpt lat="40.7034708" lon="14.9059641"><ele>153.25</ele><time>2026-03-22T08:15:53.971Z</time></trkpt><trkpt lat="40.7033724" lon="14.9060899"><ele>153.0</ele><time>2026-03-22T08:15:54.962Z</time></trkpt><trkpt lat="40.7032559" lon="14.9062123"><ele>151.5</ele><time>2026-03-22T08:15:55.969Z</time></trkpt><trkpt lat="40.703138" lon="14.9063276"><ele>150.0</ele><time>2026-03-22T08:15:56.969Z</time></trkpt><trkpt lat="40.7030225" lon="14.9064447"><ele>148.5</ele><time>2026-03-22T08:15:57.974Z</time></trkpt><trkpt lat="40.7029091" lon="14.9065761"><ele>147.0</ele><time>2026-03-22T08:15:58.969Z</time></trkpt><trkpt lat="40.7027934" lon="14.906702"><ele>142.5</ele><time>2026-03-22T08:15:59.969Z</time></trkpt><trkpt lat="40.7026814" lon="14.9068243"><ele>138.0</ele><time>2026-03-22T08:16:00.963Z</time></trkpt><trkpt lat="40.7025719" lon="14.9069455"><ele>133.5</ele><time>2026-03-22T08:16:01.972Z</time></trkpt><trkpt lat="40.702463" lon="14.9070717"><ele>129.0</ele><time>2026-03-22T08:16:02.969Z</time></trkpt><trkpt lat="40.7023472" lon="14.9071942"><ele>129.0</ele><time>2026-03-22T08:16:03.97Z</time></trkpt><trkpt lat="40.7022385" lon="14.9073122"><ele>129.0</ele><time>2026-03-22T08:16:04.976Z</time></trkpt><trkpt lat="40.7021304" lon="14.9074272"><ele>129.0</ele><time>2026-03-22T08:16:05.972Z</time></trkpt><trkpt lat="40.7020281" lon="14.907543"><ele>129.0</ele><time>2026-03-22T08:16:06.973Z</time></trkpt><trkpt lat="40.701933" lon="14.9076541"><ele>125.80000000000001</ele><time>2026-03-22T08:16:07.98Z</time></trkpt><trkpt lat="40.7018391" lon="14.9077593"><ele>122.60000000000001</ele><time>2026-03-22T08:16:08.973Z</time></trkpt><trkpt lat="40.7017543" lon="14.9078525"><ele>119.4</ele><time>2026-03-22T08:16:09.973Z</time></trkpt><trkpt lat="40.7016864" lon="14.9079354"><ele>116.2</ele><time>2026-03-22T08:16:10.958Z</time></trkpt><trkpt lat="40.7016272" lon="14.9080013"><ele>113.0</ele><time>2026-03-22T08:16:11.975Z</time></trkpt><trkpt lat="40.7015714" lon="14.9080688"><ele>113.0</ele><time>2026-03-22T08:16:12.974Z</time></trkpt><trkpt lat="40.7015136" lon="14.90816"><ele>113.00000000000001</ele><time>2026-03-22T08:16:13.967Z</time></trkpt><trkpt lat="40.7014506" lon="14.9082548"><ele>113.00000000000001</ele><time>2026-03-22T08:16:14.972Z</time></trkpt><trkpt lat="40.7013836" lon="14.9083614"><ele>113.0</ele><time>2026-03-22T08:16:15.969Z</time></trkpt><trkpt lat="40.7013121" lon="14.9084687"><ele>113.0</ele><time>2026-03-22T08:16:16.972Z</time></trkpt><trkpt lat="40.7012341" lon="14.9085659"><ele>113.80000000000001</ele><time>2026-03-22T08:16:17.975Z</time></trkpt><trkpt lat="40.7011494" lon="14.9086575"><ele>114.60000000000001</ele><time>2026-03-22T08:16:18.974Z</time></trkpt><trkpt lat="40.7010574" lon="14.9087352"><ele>115.39999999999999</ele><time>2026-03-22T08:16:19.982Z</time></trkpt><trkpt lat="40.7009529" lon="14.9087789"><ele>116.19999999999999</ele><time>2026-03-22T08:16:20.973Z</time></trkpt><trkpt lat="40.7008494" lon="14.9087779"><ele>117.0</ele><time>2026-03-22T08:16:21.971Z</time></trkpt><trkpt lat="40.700743" lon="14.9087511"><ele>116.0</ele><time>2026-03-22T08:16:22.968Z</time></trkpt><trkpt lat="40.7006406" lon="14.9086817"><ele>114.99999999999999</ele><time>2026-03-22T08:16:23.967Z</time></trkpt><trkpt lat="40.7005393" lon="14.9086059"><ele>113.99999999999999</ele><time>2026-03-22T08:16:24.969Z</time></trkpt><trkpt lat="40.700458" lon="14.9085252"><ele>113.0</ele><time>2026-03-22T08:16:25.973Z</time></trkpt><trkpt lat="40.7003715" lon="14.9084375"><ele>112.0</ele><time>2026-03-22T08:16:26.972Z</time></trkpt><trkpt lat="40.7002745" lon="14.9083712"><ele>113.19999999999999</ele><time>2026-03-22T08:16:27.975Z</time></trkpt><trkpt lat="40.7001634" lon="14.9083463"><ele>114.39999999999999</ele><time>2026-03-22T08:16:28.972Z</time></trkpt><trkpt lat="40.7000489" lon="14.9083555"><ele>115.60000000000001</ele><time>2026-03-22T08:16:29.97Z</time></trkpt><trkpt lat="40.699942" lon="14.9083769"><ele>116.80000000000001</ele><time>2026-03-22T08:16:30.978Z</time></trkpt><trkpt lat="40.6998342" lon="14.9084027"><ele>118.0</ele><time>2026-03-22T08:16:31.968Z</time></trkpt><trkpt lat="40.6997313" lon="14.908424"><ele>119.2</ele><time>2026-03-22T08:16:32.974Z</time></trkpt><trkpt lat="40.6996194" lon="14.9084434"><ele>120.4</ele><time>2026-03-22T08:16:33.973Z</time></trkpt><trkpt lat="40.6995131" lon="14.9084601"><ele>121.60000000000001</ele><time>2026-03-22T08:16:34.974Z</time></trkpt><trkpt lat="40.6994136" lon="14.9084814"><ele>122.80000000000001</ele><time>2026-03-22T08:16:35.974Z</time></trkpt><trkpt lat="40.6993076" lon="14.9085158"><ele>124.0</ele><time>2026-03-22T08:16:36.974Z</time></trkpt><trkpt lat="40.699202" lon="14.9085652"><ele>124.0</ele><time>2026-03-22T08:16:37.962Z</time></trkpt><trkpt lat="40.6990975" lon="14.9086316"><ele>124.0</ele><time>2026-03-22T08:16:38.959Z</time></trkpt><trkpt lat="40.6989926" lon="14.9087046"><ele>124.0</ele><time>2026-03-22T08:16:39.971Z</time></trkpt><trkpt lat="40.6988906" lon="14.9087809"><ele>124.0</ele><time>2026-03-22T08:16:40.969Z</time></trkpt><trkpt lat="40.698792" lon="14.9088664"><ele>124.0</ele><time>2026-03-22T08:16:41.964Z</time></trkpt><trkpt lat="40.6986979" lon="14.9089483"><ele>124.0</ele><time>2026-03-22T08:16:42.972Z</time></trkpt><trkpt lat="40.6986144" lon="14.9090296"><ele>124.0</ele><time>2026-03-22T08:16:43.967Z</time></trkpt><trkpt lat="40.6985389" lon="14.9091105"><ele>124.0</ele><time>2026-03-22T08:16:44.974Z</time></trkpt><trkpt lat="40.6984824" lon="14.9092102"><ele>124.0</ele><time>2026-03-22T08:16:45.973Z</time></trkpt><trkpt lat="40.6984337" lon="14.9093195"><ele>123.80000000000001</ele><time>2026-03-22T08:16:46.973Z</time></trkpt><trkpt lat="40.6984042" lon="14.9094414"><ele>123.60000000000001</ele><time>2026-03-22T08:16:47.976Z</time></trkpt><trkpt lat="40.6983899" lon="14.9095703"><ele>123.4</ele><time>2026-03-22T08:16:48.975Z</time></trkpt><trkpt lat="40.6983912" lon="14.9096969"><ele>123.2</ele><time>2026-03-22T08:16:49.97Z</time></trkpt><trkpt lat="40.6984122" lon="14.9098212"><ele>123.0</ele><time>2026-03-22T08:16:50.968Z</time></trkpt><trkpt lat="40.6984485" lon="14.9099326"><ele>123.0</ele><time>2026-03-22T08:16:51.968Z</time></trkpt><trkpt lat="40.6984843" lon="14.9100202"><ele>123.00000000000001</ele><time>2026-03-22T08:16:52.969Z</time></trkpt><trkpt lat="40.6984924" lon="14.9101515"><ele>123.00000000000001</ele><time>2026-03-22T08:16:54.956Z</time></trkpt><trkpt lat="40.698391" lon="14.9102517"><ele>123.0</ele><time>2026-03-22T08:16:56.949Z</time></trkpt><trkpt lat="40.6982895" lon="14.9103167"><ele>123.0</ele><time>2026-03-22T08:16:57.968Z</time></trkpt><trkpt lat="40.6981723" lon="14.9103945"><ele>122.75</ele><time>2026-03-22T08:16:58.958Z</time></trkpt><trkpt lat="40.6980531" lon="14.910453"><ele>122.5</ele><time>2026-03-22T08:16:59.975Z</time></trkpt><trkpt lat="40.6979244" lon="14.9105074"><ele>122.25</ele><time>2026-03-22T08:17:00.975Z</time></trkpt><trkpt lat="40.6977939" lon="14.9105587"><ele>122.0</ele><time>2026-03-22T08:17:01.978Z</time></trkpt><trkpt lat="40.6976609" lon="14.9106011"><ele>120.0</ele><time>2026-03-22T08:17:02.975Z</time></trkpt><trkpt lat="40.697525" lon="14.9106372"><ele>118.0</ele><time>2026-03-22T08:17:03.977Z</time></trkpt><trkpt lat="40.6973855" lon="14.9106698"><ele>116.0</ele><time>2026-03-22T08:17:04.974Z</time></trkpt><trkpt lat="40.6972409" lon="14.9106908"><ele>114.0</ele><time>2026-03-22T08:17:05.975Z</time></trkpt><trkpt lat="40.6970937" lon="14.9107092"><ele>114.0</ele><time>2026-03-22T08:17:06.974Z</time></trkpt><trkpt lat="40.6969487" lon="14.910722"><ele>114.0</ele><time>2026-03-22T08:17:07.971Z</time></trkpt><trkpt lat="40.6968049" lon="14.9107405"><ele>114.0</ele><time>2026-03-22T08:17:08.965Z</time></trkpt><trkpt lat="40.6966636" lon="14.910759"><ele>114.0</ele><time>2026-03-22T08:17:09.966Z</time></trkpt><trkpt lat="40.6965268" lon="14.9107798"><ele>112.5</ele><time>2026-03-22T08:17:10.965Z</time></trkpt><trkpt lat="40.6963961" lon="14.910798"><ele>111.0</ele><time>2026-03-22T08:17:11.955Z</time></trkpt><trkpt lat="40.6962747" lon="14.9107999"><ele>109.5</ele><time>2026-03-22T08:17:12.959Z</time></trkpt><trkpt lat="40.6961565" lon="14.9107711"><ele>108.0</ele><time>2026-03-22T08:17:13.976Z</time></trkpt><trkpt lat="40.6960545" lon="14.9107067"><ele>107.25</ele><time>2026-03-22T08:17:14.966Z</time></trkpt><trkpt lat="40.6959539" lon="14.9106008"><ele>106.5</ele><time>2026-03-22T08:17:15.973Z</time></trkpt><trkpt lat="40.6958641" lon="14.9104589"><ele>105.75</ele><time>2026-03-22T08:17:16.969Z</time></trkpt><trkpt lat="40.6957711" lon="14.9103143"><ele>105.0</ele><time>2026-03-22T08:17:17.968Z</time></trkpt><trkpt lat="40.6956701" lon="14.9101658"><ele>105.0</ele><time>2026-03-22T08:17:18.97Z</time></trkpt><trkpt lat="40.6955629" lon="14.9100371"><ele>105.0</ele><time>2026-03-22T08:17:19.979Z</time></trkpt><trkpt lat="40.6954368" lon="14.9099343"><ele>105.0</ele><time>2026-03-22T08:17:20.979Z</time></trkpt><trkpt lat="40.6953058" lon="14.9098402"><ele>105.0</ele><time>2026-03-22T08:17:21.976Z</time></trkpt><trkpt lat="40.6951697" lon="14.909747"><ele>104.5</ele><time>2026-03-22T08:17:22.971Z</time></trkpt><trkpt lat="40.6950365" lon="14.9096575"><ele>104.0</ele><time>2026-03-22T08:17:23.974Z</time></trkpt><trkpt lat="40.6949069" lon="14.9095678"><ele>103.5</ele><time>2026-03-22T08:17:24.967Z</time></trkpt><trkpt lat="40.6947766" lon="14.9094744"><ele>103.0</ele><time>2026-03-22T08:17:25.978Z</time></trkpt><trkpt lat="40.694653" lon="14.9093833"><ele>103.0</ele><time>2026-03-22T08:17:26.971Z</time></trkpt><trkpt lat="40.6945402" lon="14.9092761"><ele>103.0</ele><time>2026-03-22T08:17:27.971Z</time></trkpt><trkpt lat="40.694438" lon="14.9091601"><ele>103.0</ele><time>2026-03-22T08:17:28.969Z</time></trkpt><trkpt lat="40.6943465" lon="14.9090553"><ele>103.0</ele><time>2026-03-22T08:17:29.97Z</time></trkpt><trkpt lat="40.6942494" lon="14.9089784"><ele>103.0</ele><time>2026-03-22T08:17:30.971Z</time></trkpt><trkpt lat="40.6941384" lon="14.9089415"><ele>103.0</ele><time>2026-03-22T08:17:31.975Z</time></trkpt><trkpt lat="40.694012" lon="14.9089318"><ele>103.0</ele><time>2026-03-22T08:17:32.97Z</time></trkpt><trkpt lat="40.6938818" lon="14.9089388"><ele>103.0</ele><time>2026-03-22T08:17:33.969Z</time></trkpt><trkpt lat="40.6937551" lon="14.90896"><ele>103.0</ele><time>2026-03-22T08:17:34.973Z</time></trkpt><trkpt lat="40.693646" lon="14.9090242"><ele>103.0</ele><time>2026-03-22T08:17:35.978Z</time></trkpt><trkpt lat="40.6935277" lon="14.9091201"><ele>103.0</ele><time>2026-03-22T08:17:36.975Z</time></trkpt><trkpt lat="40.6934229" lon="14.9092417"><ele>103.0</ele><time>2026-03-22T08:17:37.949Z</time></trkpt><trkpt lat="40.6933242" lon="14.9093667"><ele>104.0</ele><time>2026-03-22T08:17:38.965Z</time></trkpt><trkpt lat="40.6932225" lon="14.9094879"><ele>105.0</ele><time>2026-03-22T08:17:39.969Z</time></trkpt><trkpt lat="40.69312" lon="14.9096065"><ele>106.0</ele><time>2026-03-22T08:17:40.972Z</time></trkpt><trkpt lat="40.6930141" lon="14.909689"><ele>107.0</ele><time>2026-03-22T08:17:41.97Z</time></trkpt><trkpt lat="40.6929113" lon="14.909741"><ele>107.0</ele><time>2026-03-22T08:17:42.97Z</time></trkpt><trkpt lat="40.6927967" lon="14.9097698"><ele>107.0</ele><time>2026-03-22T08:17:43.96Z</time></trkpt><trkpt lat="40.6926672" lon="14.9097619"><ele>107.0</ele><time>2026-03-22T08:17:44.97Z</time></trkpt><trkpt lat="40.692533" lon="14.9097306"><ele>107.0</ele><time>2026-03-22T08:17:45.964Z</time></trkpt><trkpt lat="40.6924103" lon="14.9096901"><ele>110.0</ele><time>2026-03-22T08:17:46.962Z</time></trkpt><trkpt lat="40.6922821" lon="14.9096304"><ele>113.0</ele><time>2026-03-22T08:17:47.969Z</time></trkpt><trkpt lat="40.6921608" lon="14.9095446"><ele>116.0</ele><time>2026-03-22T08:17:48.971Z</time></trkpt><trkpt lat="40.692057" lon="14.9094402"><ele>119.0</ele><time>2026-03-22T08:17:49.974Z</time></trkpt><trkpt lat="40.6919562" lon="14.9093385"><ele>120.5</ele><time>2026-03-22T08:17:50.975Z</time></trkpt><trkpt lat="40.6918528" lon="14.9092292"><ele>122.0</ele><time>2026-03-22T08:17:51.974Z</time></trkpt><trkpt lat="40.691751" lon="14.9091126"><ele>123.5</ele><time>2026-03-22T08:17:52.972Z</time></trkpt><trkpt lat="40.6916565" lon="14.909002"><ele>125.0</ele><time>2026-03-22T08:17:53.961Z</time></trkpt><trkpt lat="40.6915545" lon="14.9088918"><ele>125.0</ele><time>2026-03-22T08:17:54.966Z</time></trkpt><trkpt lat="40.6914528" lon="14.9087891"><ele>125.0</ele><time>2026-03-22T08:17:55.977Z</time></trkpt><trkpt lat="40.6913384" lon="14.9087028"><ele>125.0</ele><time>2026-03-22T08:17:56.97Z</time></trkpt><trkpt lat="40.6912156" lon="14.9086502"><ele>125.0</ele><time>2026-03-22T08:17:57.97Z</time></trkpt><trkpt lat="40.6910785" lon="14.9086262"><ele>128.0</ele><time>2026-03-22T08:17:58.961Z</time></trkpt><trkpt lat="40.6909379" lon="14.908604"><ele>131.0</ele><time>2026-03-22T08:17:59.97Z</time></trkpt><trkpt lat="40.6907919" lon="14.9085927"><ele>134.0</ele><time>2026-03-22T08:18:00.969Z</time></trkpt><trkpt lat="40.6906462" lon="14.9085787"><ele>137.0</ele><time>2026-03-22T08:18:01.97Z</time></trkpt><trkpt lat="40.6905017" lon="14.9085585"><ele>137.0</ele><time>2026-03-22T08:18:02.97Z</time></trkpt><trkpt lat="40.6903522" lon="14.9085393"><ele>137.0</ele><time>2026-03-22T08:18:03.973Z</time></trkpt><trkpt lat="40.6902048" lon="14.9085143"><ele>137.0</ele><time>2026-03-22T08:18:04.973Z</time></trkpt><trkpt lat="40.6900523" lon="14.9084979"><ele>140.33333333333331</ele><time>2026-03-22T08:18:05.974Z</time></trkpt><trkpt lat="40.6899012" lon="14.9084784"><ele>143.66666666666666</ele><time>2026-03-22T08:18:06.955Z</time></trkpt><trkpt lat="40.6897432" lon="14.9084628"><ele>147.0</ele><time>2026-03-22T08:18:07.976Z</time></trkpt><trkpt lat="40.6895859" lon="14.9084508"><ele>150.0</ele><time>2026-03-22T08:18:08.975Z</time></trkpt><trkpt lat="40.6894231" lon="14.908436"><ele>153.0</ele><time>2026-03-22T08:18:09.976Z</time></trkpt><trkpt lat="40.6892584" lon="14.9084251"><ele>156.0</ele><time>2026-03-22T08:18:10.966Z</time></trkpt><trkpt lat="40.6890978" lon="14.908421"><ele>156.0</ele><time>2026-03-22T08:18:11.968Z</time></trkpt><trkpt lat="40.6889362" lon="14.9084174"><ele>156.0</ele><time>2026-03-22T08:18:12.954Z</time></trkpt><trkpt lat="40.6887762" lon="14.9084339"><ele>156.0</ele><time>2026-03-22T08:18:13.964Z</time></trkpt><trkpt lat="40.6886273" lon="14.9084617"><ele>158.25</ele><time>2026-03-22T08:18:14.964Z</time></trkpt><trkpt lat="40.6884768" lon="14.9084919"><ele>160.5</ele><time>2026-03-22T08:18:15.97Z</time></trkpt><trkpt lat="40.6883306" lon="14.9085241"><ele>162.75</ele><time>2026-03-22T08:18:16.97Z</time></trkpt><trkpt lat="40.6881985" lon="14.9085273"><ele>165.0</ele><time>2026-03-22T08:18:17.972Z</time></trkpt><trkpt lat="40.6880882" lon="14.9085088"><ele>165.0</ele><time>2026-03-22T08:18:18.975Z</time></trkpt><trkpt lat="40.6879876" lon="14.9084289"><ele>165.0</ele><time>2026-03-22T08:18:19.981Z</time></trkpt><trkpt lat="40.6878949" lon="14.9083138"><ele>165.0</ele><time>2026-03-22T08:18:20.965Z</time></trkpt><trkpt lat="40.6878006" lon="14.9081873"><ele>165.0</ele><time>2026-03-22T08:18:21.957Z</time></trkpt><trkpt lat="40.6877061" lon="14.9080592"><ele>166.0</ele><time>2026-03-22T08:18:22.973Z</time></trkpt><trkpt lat="40.6876094" lon="14.9079413"><ele>167.0</ele><time>2026-03-22T08:18:23.966Z</time></trkpt><trkpt lat="40.6875063" lon="14.9078201"><ele>168.0</ele><time>2026-03-22T08:18:24.956Z</time></trkpt><trkpt lat="40.6873982" lon="14.9076926"><ele>169.0</ele><time>2026-03-22T08:18:25.97Z</time></trkpt><trkpt lat="40.6872926" lon="14.907561"><ele>169.0</ele><time>2026-03-22T08:18:26.967Z</time></trkpt><trkpt lat="40.6871891" lon="14.9074319"><ele>169.0</ele><time>2026-03-22T08:18:27.963Z</time></trkpt><trkpt lat="40.6870874" lon="14.9073343"><ele>169.0</ele><time>2026-03-22T08:18:28.963Z</time></trkpt><trkpt lat="40.6869773" lon="14.9072663"><ele>169.0</ele><time>2026-03-22T08:18:29.962Z</time></trkpt><trkpt lat="40.686852" lon="14.9072548"><ele>172.0</ele><time>2026-03-22T08:18:30.956Z</time></trkpt><trkpt lat="40.6867287" lon="14.9072633"><ele>175.0</ele><time>2026-03-22T08:18:31.969Z</time></trkpt><trkpt lat="40.686607" lon="14.9072828"><ele>178.0</ele><time>2026-03-22T08:18:32.971Z</time></trkpt><trkpt lat="40.6864859" lon="14.9072968"><ele>181.0</ele><time>2026-03-22T08:18:33.969Z</time></trkpt><trkpt lat="40.6863582" lon="14.9073119"><ele>181.0</ele><time>2026-03-22T08:18:34.972Z</time></trkpt><trkpt lat="40.6862291" lon="14.9073268"><ele>181.0</ele><time>2026-03-22T08:18:35.954Z</time></trkpt><trkpt lat="40.6861037" lon="14.9073498"><ele>181.0</ele><time>2026-03-22T08:18:36.968Z</time></trkpt><trkpt lat="40.6859765" lon="14.9073665"><ele>181.0</ele><time>2026-03-22T08:18:37.968Z</time></trkpt><trkpt lat="40.6858469" lon="14.9073882"><ele>183.75</ele><time>2026-03-22T08:18:38.968Z</time></trkpt><trkpt lat="40.6857151" lon="14.9074118"><ele>186.5</ele><time>2026-03-22T08:18:39.975Z</time></trkpt><trkpt lat="40.6855894" lon="14.907435"><ele>189.25</ele><time>2026-03-22T08:18:40.967Z</time></trkpt><trkpt lat="40.6854566" lon="14.9074486"><ele>192.0</ele><time>2026-03-22T08:18:41.968Z</time></trkpt><trkpt lat="40.6853245" lon="14.9074739"><ele>195.0</ele><time>2026-03-22T08:18:42.967Z</time></trkpt><trkpt lat="40.6851913" lon="14.9074951"><ele>198.0</ele><time>2026-03-22T08:18:43.97Z</time></trkpt><trkpt lat="40.6850607" lon="14.9075151"><ele>201.0</ele><time>2026-03-22T08:18:44.968Z</time></trkpt><trkpt lat="40.6849307" lon="14.9075322"><ele>204.0</ele><time>2026-03-22T08:18:45.971Z</time></trkpt><trkpt lat="40.6847983" lon="14.9075519"><ele>204.0</ele><time>2026-03-22T08:18:46.973Z</time></trkpt><trkpt lat="40.6846685" lon="14.9075769"><ele>204.0</ele><time>2026-03-22T08:18:47.966Z</time></trkpt><trkpt lat="40.6845404" lon="14.9076091"><ele>204.0</ele><time>2026-03-22T08:18:48.965Z</time></trkpt><trkpt lat="40.6844126" lon="14.9076565"><ele>204.0</ele><time>2026-03-22T08:18:49.97Z</time></trkpt><trkpt lat="40.684285" lon="14.9077136"><ele>208.25</ele><time>2026-03-22T08:18:50.974Z</time></trkpt><trkpt lat="40.6841662" lon="14.9077793"><ele>212.5</ele><time>2026-03-22T08:18:51.965Z</time></trkpt><trkpt lat="40.684039" lon="14.9078555"><ele>216.75</ele><time>2026-03-22T08:18:52.974Z</time></trkpt><trkpt lat="40.6839233" lon="14.9079298"><ele>221.0</ele><time>2026-03-22T08:18:53.964Z</time></trkpt><trkpt lat="40.683811" lon="14.9080078"><ele>221.0</ele><time>2026-03-22T08:18:54.963Z</time></trkpt><trkpt lat="40.6836941" lon="14.9080847"><ele>221.0</ele><time>2026-03-22T08:18:55.955Z</time></trkpt><trkpt lat="40.6835787" lon="14.9081567"><ele>221.0</ele><time>2026-03-22T08:18:56.965Z</time></trkpt><trkpt lat="40.6834688" lon="14.9082275"><ele>221.0</ele><time>2026-03-22T08:18:57.969Z</time></trkpt><trkpt lat="40.683364" lon="14.9083292"><ele>226.20000000000002</ele><time>2026-03-22T08:18:58.957Z</time></trkpt><trkpt lat="40.6832803" lon="14.9084436"><ele>231.40000000000003</ele><time>2026-03-22T08:18:59.966Z</time></trkpt><trkpt lat="40.6831953" lon="14.9085575"><ele>236.6</ele><time>2026-03-22T08:19:00.97Z</time></trkpt><trkpt lat="40.6831186" lon="14.9086577"><ele>241.8</ele><time>2026-03-22T08:19:01.967Z</time></trkpt><trkpt lat="40.6830573" lon="14.9087431"><ele>247.0</ele><time>2026-03-22T08:19:02.968Z</time></trkpt><trkpt lat="40.6830042" lon="14.9088089"><ele>247.0</ele><time>2026-03-22T08:19:04.97Z</time></trkpt><trkpt lat="40.6829958" lon="14.9088964"><ele>247.0</ele><time>2026-03-22T08:19:08.969Z</time></trkpt><trkpt lat="40.6830428" lon="14.9089798"><ele>247.0</ele><time>2026-03-22T08:19:09.965Z</time></trkpt><trkpt lat="40.683098" lon="14.9090741"><ele>247.0</ele><time>2026-03-22T08:19:10.961Z</time></trkpt><trkpt lat="40.6831553" lon="14.9091916"><ele>247.0</ele><time>2026-03-22T08:19:11.972Z</time></trkpt><trkpt lat="40.6832112" lon="14.9093223"><ele>249.25</ele><time>2026-03-22T08:19:12.966Z</time></trkpt><trkpt lat="40.683252" lon="14.9094647"><ele>251.5</ele><time>2026-03-22T08:19:13.976Z</time></trkpt><trkpt lat="40.6832746" lon="14.909616"><ele>253.75</ele><time>2026-03-22T08:19:14.966Z</time></trkpt><trkpt lat="40.6832746" lon="14.9097734"><ele>256.0</ele><time>2026-03-22T08:19:15.97Z</time></trkpt><trkpt lat="40.6832649" lon="14.9099361"><ele>255.5</ele><time>2026-03-22T08:19:16.966Z</time></trkpt><trkpt lat="40.6832445" lon="14.9100955"><ele>255.0</ele><time>2026-03-22T08:19:17.971Z</time></trkpt><trkpt lat="40.6832096" lon="14.9102611"><ele>254.5</ele><time>2026-03-22T08:19:18.973Z</time></trkpt><trkpt lat="40.6831647" lon="14.9104339"><ele>254.0</ele><time>2026-03-22T08:19:19.972Z</time></trkpt><trkpt lat="40.6831078" lon="14.9106058"><ele>254.0</ele><time>2026-03-22T08:19:20.964Z</time></trkpt><trkpt lat="40.683054" lon="14.9107639"><ele>254.0</ele><time>2026-03-22T08:19:21.969Z</time></trkpt><trkpt lat="40.6830127" lon="14.9109259"><ele>254.0</ele><time>2026-03-22T08:19:22.973Z</time></trkpt><trkpt lat="40.6829889" lon="14.9110941"><ele>254.0</ele><time>2026-03-22T08:19:23.97Z</time></trkpt><trkpt lat="40.6829836" lon="14.9112553"><ele>254.0</ele><time>2026-03-22T08:19:24.963Z</time></trkpt><trkpt lat="40.6830034" lon="14.9114051"><ele>254.0</ele><time>2026-03-22T08:19:25.972Z</time></trkpt><trkpt lat="40.6830428" lon="14.9115541"><ele>254.0</ele><time>2026-03-22T08:19:26.964Z</time></trkpt><trkpt lat="40.6831003" lon="14.91171"><ele>254.0</ele><time>2026-03-22T08:19:27.971Z</time></trkpt><trkpt lat="40.683162" lon="14.91186"><ele>255.0</ele><time>2026-03-22T08:19:28.964Z</time></trkpt><trkpt lat="40.683221" lon="14.912029"><ele>256.0</ele><time>2026-03-22T08:19:29.97Z</time></trkpt><trkpt lat="40.6832731" lon="14.9122005"><ele>257.0</ele><time>2026-03-22T08:19:30.966Z</time></trkpt><trkpt lat="40.6833236" lon="14.9123673"><ele>258.0</ele><time>2026-03-22T08:19:31.964Z</time></trkpt><trkpt lat="40.6833574" lon="14.9124997"><ele>256.75</ele><time>2026-03-22T08:19:32.972Z</time></trkpt><trkpt lat="40.6833992" lon="14.9126205"><ele>255.5</ele><time>2026-03-22T08:19:33.97Z</time></trkpt><trkpt lat="40.6834791" lon="14.9127185"><ele>254.25</ele><time>2026-03-22T08:19:34.967Z</time></trkpt><trkpt lat="40.6835775" lon="14.9128026"><ele>253.0</ele><time>2026-03-22T08:19:35.954Z</time></trkpt><trkpt lat="40.6836805" lon="14.9129051"><ele>253.0</ele><time>2026-03-22T08:19:36.963Z</time></trkpt><trkpt lat="40.6837714" lon="14.9130224"><ele>253.0</ele><time>2026-03-22T08:19:37.967Z</time></trkpt><trkpt lat="40.6838366" lon="14.9131587"><ele>253.0</ele><time>2026-03-22T08:19:38.968Z</time></trkpt><trkpt lat="40.6839016" lon="14.9133016"><ele>253.0</ele><time>2026-03-22T08:19:39.966Z</time></trkpt><trkpt lat="40.6839565" lon="14.9134541"><ele>253.5</ele><time>2026-03-22T08:19:40.966Z</time></trkpt><trkpt lat="40.6839983" lon="14.9136155"><ele>254.0</ele><time>2026-03-22T08:19:41.967Z</time></trkpt><trkpt lat="40.6840435" lon="14.9137931"><ele>254.5</ele><time>2026-03-22T08:19:42.968Z</time></trkpt><trkpt lat="40.6840869" lon="14.9139695"><ele>255.0</ele><time>2026-03-22T08:19:43.966Z</time></trkpt><trkpt lat="40.6841189" lon="14.9141407"><ele>255.0</ele><time>2026-03-22T08:19:44.969Z</time></trkpt><trkpt lat="40.6841389" lon="14.9143148"><ele>255.0</ele><time>2026-03-22T08:19:45.972Z</time></trkpt><trkpt lat="40.6841435" lon="14.9144961"><ele>255.0</ele><time>2026-03-22T08:19:46.969Z</time></trkpt><trkpt lat="40.6841485" lon="14.9146805"><ele>255.0</ele><time>2026-03-22T08:19:47.973Z</time></trkpt><trkpt lat="40.6841567" lon="14.9148552"><ele>255.0</ele><time>2026-03-22T08:19:48.965Z</time></trkpt><trkpt lat="40.684178" lon="14.9150226"><ele>255.0</ele><time>2026-03-22T08:19:49.974Z</time></trkpt><trkpt lat="40.6842285" lon="14.9151763"><ele>255.0</ele><time>2026-03-22T08:19:50.974Z</time></trkpt><trkpt lat="40.6842921" lon="14.9153296"><ele>255.0</ele><time>2026-03-22T08:19:51.967Z</time></trkpt><trkpt lat="40.684369" lon="14.9154688"><ele>255.5</ele><time>2026-03-22T08:19:53.026Z</time></trkpt><trkpt lat="40.6844441" lon="14.9156094"><ele>256.0</ele><time>2026-03-22T08:19:53.957Z</time></trkpt><trkpt lat="40.6845058" lon="14.9157632"><ele>256.5</ele><time>2026-03-22T08:19:55.013Z</time></trkpt><trkpt lat="40.6845603" lon="14.9159142"><ele>257.0</ele><time>2026-03-22T08:19:55.96Z</time></trkpt><trkpt lat="40.6845997" lon="14.9160792"><ele>258.5</ele><time>2026-03-22T08:19:56.954Z</time></trkpt><trkpt lat="40.6846195" lon="14.9162461"><ele>260.0</ele><time>2026-03-22T08:19:57.958Z</time></trkpt><trkpt lat="40.6846321" lon="14.916421"><ele>261.5</ele><time>2026-03-22T08:19:58.953Z</time></trkpt><trkpt lat="40.6846445" lon="14.9166015"><ele>263.0</ele><time>2026-03-22T08:19:59.959Z</time></trkpt><trkpt lat="40.6846585" lon="14.9167875"><ele>264.5</ele><time>2026-03-22T08:20:00.956Z</time></trkpt><trkpt lat="40.6846763" lon="14.9169676"><ele>266.0</ele><time>2026-03-22T08:20:01.961Z</time></trkpt><trkpt lat="40.6846991" lon="14.9171549"><ele>267.5</ele><time>2026-03-22T08:20:02.956Z</time></trkpt><trkpt lat="40.6847212" lon="14.9173474"><ele>269.0</ele><time>2026-03-22T08:20:04.008Z</time></trkpt><trkpt lat="40.6847328" lon="14.9175257"><ele>268.5</ele><time>2026-03-22T08:20:05.033Z</time></trkpt><trkpt lat="40.6847315" lon="14.9176959"><ele>268.0</ele><time>2026-03-22T08:20:05.976Z</time></trkpt><trkpt lat="40.6847131" lon="14.9178482"><ele>267.5</ele><time>2026-03-22T08:20:06.977Z</time></trkpt><trkpt lat="40.6846854" lon="14.9179984"><ele>267.0</ele><time>2026-03-22T08:20:07.972Z</time></trkpt><trkpt lat="40.6846417" lon="14.9181212"><ele>267.0</ele><time>2026-03-22T08:20:09.031Z</time></trkpt><trkpt lat="40.6846038" lon="14.9182251"><ele>267.0</ele><time>2026-03-22T08:20:10.031Z</time></trkpt><trkpt lat="40.6846093" lon="14.9183497"><ele>267.0</ele><time>2026-03-22T08:20:11.03Z</time></trkpt><trkpt lat="40.6846424" lon="14.918492"><ele>267.0</ele><time>2026-03-22T08:20:11.963Z</time></trkpt><trkpt lat="40.6846782" lon="14.9186382"><ele>267.0</ele><time>2026-03-22T08:20:12.962Z</time></trkpt><trkpt lat="40.684731" lon="14.9187733"><ele>267.25</ele><time>2026-03-22T08:20:14.037Z</time></trkpt><trkpt lat="40.6848192" lon="14.9188917"><ele>267.5</ele><time>2026-03-22T08:20:15.018Z</time></trkpt><trkpt lat="40.6849292" lon="14.9189821"><ele>267.75</ele><time>2026-03-22T08:20:16.017Z</time></trkpt><trkpt lat="40.685037" lon="14.9190459"><ele>268.0</ele><time>2026-03-22T08:20:16.955Z</time></trkpt><trkpt lat="40.6851394" lon="14.9191182"><ele>268.0</ele><time>2026-03-22T08:20:17.957Z</time></trkpt><trkpt lat="40.6852272" lon="14.9192202"><ele>268.0</ele><time>2026-03-22T08:20:18.948Z</time></trkpt><trkpt lat="40.6852985" lon="14.9193499"><ele>268.0</ele><time>2026-03-22T08:20:19.96Z</time></trkpt><trkpt lat="40.6853728" lon="14.9194396"><ele>268.0</ele><time>2026-03-22T08:20:20.96Z</time></trkpt><trkpt lat="40.6854682" lon="14.9195012"><ele>268.0</ele><time>2026-03-22T08:20:21.951Z</time></trkpt><trkpt lat="40.6855762" lon="14.9195504"><ele>268.5</ele><time>2026-03-22T08:20:22.965Z</time></trkpt><trkpt lat="40.6856882" lon="14.919611"><ele>269.0</ele><time>2026-03-22T08:20:24.04Z</time></trkpt><trkpt lat="40.6858012" lon="14.9196858"><ele>269.5</ele><time>2026-03-22T08:20:24.975Z</time></trkpt><trkpt lat="40.6859217" lon="14.9197594"><ele>270.0</ele><time>2026-03-22T08:20:25.958Z</time></trkpt><trkpt lat="40.6860338" lon="14.9198432"><ele>268.25</ele><time>2026-03-22T08:20:26.955Z</time></trkpt><trkpt lat="40.686132" lon="14.9199456"><ele>266.5</ele><time>2026-03-22T08:20:27.956Z</time></trkpt><trkpt lat="40.6862189" lon="14.9200523"><ele>264.75</ele><time>2026-03-22T08:20:28.952Z</time></trkpt><trkpt lat="40.6862862" lon="14.9201715"><ele>263.0</ele><time>2026-03-22T08:20:29.958Z</time></trkpt><trkpt lat="40.6863361" lon="14.9203011"><ele>263.0</ele><time>2026-03-22T08:20:30.952Z</time></trkpt><trkpt lat="40.6863822" lon="14.920448"><ele>263.0</ele><time>2026-03-22T08:20:31.963Z</time></trkpt><trkpt lat="40.6864309" lon="14.9206102"><ele>263.0</ele><time>2026-03-22T08:20:33.038Z</time></trkpt><trkpt lat="40.6864817" lon="14.9207749"><ele>263.0</ele><time>2026-03-22T08:20:34.056Z</time></trkpt><trkpt lat="40.6865776" lon="14.9211283"><ele>263.5</ele><time>2026-03-22T08:20:35.954Z</time></trkpt><trkpt lat="40.6866235" lon="14.9213033"><ele>264.0</ele><time>2026-03-22T08:20:36.957Z</time></trkpt><trkpt lat="40.6866754" lon="14.9214813"><ele>264.5</ele><time>2026-03-22T08:20:37.955Z</time></trkpt><trkpt lat="40.6867279" lon="14.9216613"><ele>265.0</ele><time>2026-03-22T08:20:38.958Z</time></trkpt><trkpt lat="40.6867797" lon="14.9218412"><ele>265.25</ele><time>2026-03-22T08:20:39.954Z</time></trkpt><trkpt lat="40.6868351" lon="14.9220187"><ele>265.5</ele><time>2026-03-22T08:20:40.947Z</time></trkpt><trkpt lat="40.6868836" lon="14.9221975"><ele>265.75</ele><time>2026-03-22T08:20:41.96Z</time></trkpt><trkpt lat="40.6869343" lon="14.9223778"><ele>266.0</ele><time>2026-03-22T08:20:42.959Z</time></trkpt><trkpt lat="40.6869865" lon="14.9225406"><ele>263.5</ele><time>2026-03-22T08:20:43.954Z</time></trkpt><trkpt lat="40.6870414" lon="14.9226999"><ele>261.0</ele><time>2026-03-22T08:20:44.954Z</time></trkpt><trkpt lat="40.6870904" lon="14.922861"><ele>258.5</ele><time>2026-03-22T08:20:45.96Z</time></trkpt><trkpt lat="40.6871399" lon="14.92302"><ele>256.0</ele><time>2026-03-22T08:20:46.954Z</time></trkpt><trkpt lat="40.6871981" lon="14.9231741"><ele>256.0</ele><time>2026-03-22T08:20:47.956Z</time></trkpt><trkpt lat="40.6872697" lon="14.923323"><ele>256.0</ele><time>2026-03-22T08:20:48.957Z</time></trkpt><trkpt lat="40.6873632" lon="14.923461"><ele>256.0</ele><time>2026-03-22T08:20:49.955Z</time></trkpt><trkpt lat="40.6874653" lon="14.9235938"><ele>256.0</ele><time>2026-03-22T08:20:50.955Z</time></trkpt><trkpt lat="40.6875558" lon="14.9237228"><ele>256.75</ele><time>2026-03-22T08:20:51.954Z</time></trkpt><trkpt lat="40.6876091" lon="14.9238596"><ele>257.5</ele><time>2026-03-22T08:20:53.031Z</time></trkpt><trkpt lat="40.6876395" lon="14.9240327"><ele>258.25</ele><time>2026-03-22T08:20:53.96Z</time></trkpt><trkpt lat="40.6876596" lon="14.9242009"><ele>259.0</ele><time>2026-03-22T08:20:55.031Z</time></trkpt><trkpt lat="40.6876787" lon="14.9243737"><ele>258.5</ele><time>2026-03-22T08:20:55.948Z</time></trkpt><trkpt lat="40.6877027" lon="14.9245426"><ele>258.0</ele><time>2026-03-22T08:20:56.951Z</time></trkpt><trkpt lat="40.6877284" lon="14.9247004"><ele>257.5</ele><time>2026-03-22T08:20:57.956Z</time></trkpt><trkpt lat="40.6877577" lon="14.9248417"><ele>257.0</ele><time>2026-03-22T08:20:59.016Z</time></trkpt><trkpt lat="40.6878028" lon="14.9249559"><ele>257.0</ele><time>2026-03-22T08:21:00.016Z</time></trkpt><trkpt lat="40.687871" lon="14.9250536"><ele>257.0</ele><time>2026-03-22T08:21:00.951Z</time></trkpt><trkpt lat="40.6879693" lon="14.9251438"><ele>257.0</ele><time>2026-03-22T08:21:01.964Z</time></trkpt><trkpt lat="40.6880806" lon="14.9252158"><ele>257.0</ele><time>2026-03-22T08:21:02.945Z</time></trkpt><trkpt lat="40.6882009" lon="14.9252545"><ele>260.0</ele><time>2026-03-22T08:21:04.024Z</time></trkpt><trkpt lat="40.6883357" lon="14.9252524"><ele>263.0</ele><time>2026-03-22T08:21:05.014Z</time></trkpt><trkpt lat="40.6884709" lon="14.9252133"><ele>266.0</ele><time>2026-03-22T08:21:06.033Z</time></trkpt><trkpt lat="40.6886009" lon="14.9251734"><ele>269.0</ele><time>2026-03-22T08:21:06.956Z</time></trkpt><trkpt lat="40.6887174" lon="14.9251324"><ele>269.0</ele><time>2026-03-22T08:21:07.969Z</time></trkpt><trkpt lat="40.6888411" lon="14.925098"><ele>269.0</ele><time>2026-03-22T08:21:08.958Z</time></trkpt><trkpt lat="40.6889638" lon="14.9250712"><ele>269.0</ele><time>2026-03-22T08:21:09.956Z</time></trkpt><trkpt lat="40.6890869" lon="14.9250641"><ele>269.0</ele><time>2026-03-22T08:21:10.945Z</time></trkpt><trkpt lat="40.6892128" lon="14.9250674"><ele>269.0</ele><time>2026-03-22T08:21:11.956Z</time></trkpt><trkpt lat="40.6893427" lon="14.925069"><ele>269.0</ele><time>2026-03-22T08:21:12.959Z</time></trkpt><trkpt lat="40.6894612" lon="14.9250827"><ele>269.0</ele><time>2026-03-22T08:21:14.033Z</time></trkpt><trkpt lat="40.6895708" lon="14.9250995"><ele>269.0</ele><time>2026-03-22T08:21:14.97Z</time></trkpt><trkpt lat="40.68968" lon="14.9251345"><ele>267.0</ele><time>2026-03-22T08:21:16.023Z</time></trkpt><trkpt lat="40.6897886" lon="14.9251967"><ele>265.0</ele><time>2026-03-22T08:21:16.957Z</time></trkpt><trkpt lat="40.6899065" lon="14.925289"><ele>263.0</ele><time>2026-03-22T08:21:17.96Z</time></trkpt><trkpt lat="40.690003" lon="14.9253894"><ele>261.0</ele><time>2026-03-22T08:21:18.954Z</time></trkpt><trkpt lat="40.690087" lon="14.9255051"><ele>261.0</ele><time>2026-03-22T08:21:19.954Z</time></trkpt><trkpt lat="40.6901561" lon="14.9256356"><ele>261.0</ele><time>2026-03-22T08:21:20.962Z</time></trkpt><trkpt lat="40.6902261" lon="14.9257962"><ele>261.0</ele><time>2026-03-22T08:21:21.965Z</time></trkpt><trkpt lat="40.6902877" lon="14.9259416"><ele>261.0</ele><time>2026-03-22T08:21:23.023Z</time></trkpt><trkpt lat="40.690345" lon="14.9260934"><ele>260.8333333333333</ele><time>2026-03-22T08:21:24.017Z</time></trkpt><trkpt lat="40.6903822" lon="14.9262308"><ele>260.6666666666667</ele><time>2026-03-22T08:21:25.025Z</time></trkpt><trkpt lat="40.6904147" lon="14.9263548"><ele>260.5</ele><time>2026-03-22T08:21:26.037Z</time></trkpt><trkpt lat="40.6904466" lon="14.9264564"><ele>260.33333333333337</ele><time>2026-03-22T08:21:26.955Z</time></trkpt><trkpt lat="40.6904692" lon="14.9265397"><ele>260.1666666666667</ele><time>2026-03-22T08:21:27.959Z</time></trkpt><trkpt lat="40.6905009" lon="14.9266185"><ele>260.0</ele><time>2026-03-22T08:21:28.957Z</time></trkpt><trkpt lat="40.6905252" lon="14.9266962"><ele>260.6666666666667</ele><time>2026-03-22T08:21:30.027Z</time></trkpt><trkpt lat="40.6905457" lon="14.9268072"><ele>261.33333333333337</ele><time>2026-03-22T08:21:31.957Z</time></trkpt><trkpt lat="40.6906029" lon="14.9268443"><ele>262.0</ele><time>2026-03-22T08:21:56.953Z</time></trkpt><trkpt lat="40.6906193" lon="14.9269854"><ele>262.6666666666667</ele><time>2026-03-22T08:21:58.955Z</time></trkpt><trkpt lat="40.6906262" lon="14.9270907"><ele>263.3333333333333</ele><time>2026-03-22T08:22:00.963Z</time></trkpt><trkpt lat="40.6905822" lon="14.927171"><ele>264.0</ele><time>2026-03-22T08:22:02.955Z</time></trkpt><trkpt lat="40.6905002" lon="14.9273034"><ele>264.0</ele><time>2026-03-22T08:22:04.974Z</time></trkpt><trkpt lat="40.6904685" lon="14.9273781"><ele>264.0</ele><time>2026-03-22T08:22:05.953Z</time></trkpt><trkpt lat="40.690457" lon="14.9274879"><ele>264.0</ele><time>2026-03-22T08:22:06.962Z</time></trkpt><trkpt lat="40.6904478" lon="14.9276203"><ele>264.0</ele><time>2026-03-22T08:22:07.959Z</time></trkpt><trkpt lat="40.6904439" lon="14.9277098"><ele>264.0</ele><time>2026-03-22T08:22:08.949Z</time></trkpt><trkpt lat="40.6904245" lon="14.9278664"><ele>264.0</ele><time>2026-03-22T08:22:11.03Z</time></trkpt><trkpt lat="40.6903711" lon="14.9279649"><ele>265.75</ele><time>2026-03-22T08:22:11.956Z</time></trkpt><trkpt lat="40.6902862" lon="14.9280783"><ele>267.5</ele><time>2026-03-22T08:22:12.952Z</time></trkpt><trkpt lat="40.6902058" lon="14.928177"><ele>269.25</ele><time>2026-03-22T08:22:13.972Z</time></trkpt><trkpt lat="40.6901279" lon="14.9282866"><ele>271.0</ele><time>2026-03-22T08:22:14.953Z</time></trkpt><trkpt lat="40.6900606" lon="14.9284178"><ele>274.0</ele><time>2026-03-22T08:22:15.956Z</time></trkpt><trkpt lat="40.6900108" lon="14.9285592"><ele>277.0</ele><time>2026-03-22T08:22:16.956Z</time></trkpt><trkpt lat="40.6899576" lon="14.9286878"><ele>280.0</ele><time>2026-03-22T08:22:18.07Z</time></trkpt><trkpt lat="40.6899108" lon="14.9288039"><ele>283.0</ele><time>2026-03-22T08:22:19.037Z</time></trkpt><trkpt lat="40.6898471" lon="14.9288937"><ele>286.0</ele><time>2026-03-22T08:22:20.036Z</time></trkpt><trkpt lat="40.6897746" lon="14.9289608"><ele>286.0</ele><time>2026-03-22T08:22:21.031Z</time></trkpt><trkpt lat="40.6896958" lon="14.9290365"><ele>286.0</ele><time>2026-03-22T08:22:21.963Z</time></trkpt><trkpt lat="40.6896013" lon="14.9291061"><ele>286.0</ele><time>2026-03-22T08:22:22.963Z</time></trkpt><trkpt lat="40.6895146" lon="14.9291752"><ele>286.0</ele><time>2026-03-22T08:22:23.964Z</time></trkpt><trkpt lat="40.6894231" lon="14.9292691"><ele>286.0</ele><time>2026-03-22T08:22:25.037Z</time></trkpt><trkpt lat="40.6893226" lon="14.9293516"><ele>291.0</ele><time>2026-03-22T08:22:26.017Z</time></trkpt><trkpt lat="40.6892136" lon="14.9294713"><ele>296.0</ele><time>2026-03-22T08:22:26.946Z</time></trkpt><trkpt lat="40.6890979" lon="14.9295998"><ele>301.0</ele><time>2026-03-22T08:22:27.947Z</time></trkpt><trkpt lat="40.6889873" lon="14.9297193"><ele>306.0</ele><time>2026-03-22T08:22:29.017Z</time></trkpt><trkpt lat="40.688887" lon="14.9298301"><ele>306.0</ele><time>2026-03-22T08:22:30.008Z</time></trkpt><trkpt lat="40.688796" lon="14.929946"><ele>306.0</ele><time>2026-03-22T08:22:30.94Z</time></trkpt><trkpt lat="40.6887125" lon="14.9300535"><ele>306.0</ele><time>2026-03-22T08:22:31.96Z</time></trkpt><trkpt lat="40.6886508" lon="14.9301252"><ele>306.0</ele><time>2026-03-22T08:22:32.972Z</time></trkpt><trkpt lat="40.6886104" lon="14.9301899"><ele>306.0</ele><time>2026-03-22T08:22:33.965Z</time></trkpt><trkpt lat="40.6885634" lon="14.9302536"><ele>310.0</ele><time>2026-03-22T08:22:36.953Z</time></trkpt><trkpt lat="40.6885154" lon="14.9303426"><ele>314.0</ele><time>2026-03-22T08:23:42.964Z</time></trkpt><trkpt lat="40.6885413" lon="14.9305197"><ele>318.0</ele><time>2026-03-22T08:23:44.956Z</time></trkpt><trkpt lat="40.6885497" lon="14.9306371"><ele>322.0</ele><time>2026-03-22T08:23:45.959Z</time></trkpt><trkpt lat="40.6885576" lon="14.9307829"><ele>326.0</ele><time>2026-03-22T08:23:46.956Z</time></trkpt><trkpt lat="40.6885625" lon="14.930943"><ele>330.0</ele><time>2026-03-22T08:23:47.96Z</time></trkpt><trkpt lat="40.6885603" lon="14.9310829"><ele>334.0</ele><time>2026-03-22T08:23:48.953Z</time></trkpt><trkpt lat="40.6885481" lon="14.9312128"><ele>338.0</ele><time>2026-03-22T08:23:49.954Z</time></trkpt><trkpt lat="40.6885282" lon="14.9313377"><ele>342.0</ele><time>2026-03-22T08:23:50.954Z</time></trkpt><trkpt lat="40.6885081" lon="14.9314381"><ele>346.0</ele><time>2026-03-22T08:23:51.95Z</time></trkpt><trkpt lat="40.6884341" lon="14.9315499"><ele>346.0</ele><time>2026-03-22T08:23:53.963Z</time></trkpt><trkpt lat="40.6883363" lon="14.9316188"><ele>346.0</ele><time>2026-03-22T08:23:56.042Z</time></trkpt><trkpt lat="40.6882913" lon="14.9316809"><ele>346.0</ele><time>2026-03-22T08:23:56.961Z</time></trkpt><trkpt lat="40.6882393" lon="14.9317447"><ele>346.0</ele><time>2026-03-22T08:23:58.032Z</time></trkpt><trkpt lat="40.688166" lon="14.9318258"><ele>346.0</ele><time>2026-03-22T08:23:59.946Z</time></trkpt><trkpt lat="40.6880437" lon="14.931766"><ele>346.0</ele><time>2026-03-22T08:24:01.943Z</time></trkpt><trkpt lat="40.6879683" lon="14.931722"><ele>346.0</ele><time>2026-03-22T08:24:02.956Z</time></trkpt><trkpt lat="40.6878779" lon="14.9317014"><ele>346.0</ele><time>2026-03-22T08:24:04.013Z</time></trkpt><trkpt lat="40.68778" lon="14.9317011"><ele>346.0</ele><time>2026-03-22T08:24:05.015Z</time></trkpt><trkpt lat="40.6876992" lon="14.9317153"><ele>346.0</ele><time>2026-03-22T08:24:06.031Z</time></trkpt><trkpt lat="40.6876255" lon="14.9317389"><ele>346.0</ele><time>2026-03-22T08:24:06.965Z</time></trkpt><trkpt lat="40.6875492" lon="14.9317836"><ele>353.0</ele><time>2026-03-22T08:24:07.965Z</time></trkpt><trkpt lat="40.6874628" lon="14.9318671"><ele>360.0</ele><time>2026-03-22T08:24:08.96Z</time></trkpt><trkpt lat="40.6873834" lon="14.9319363"><ele>367.0</ele><time>2026-03-22T08:24:09.959Z</time></trkpt><trkpt lat="40.6873079" lon="14.932009"><ele>374.0</ele><time>2026-03-22T08:24:10.963Z</time></trkpt><trkpt lat="40.6872275" lon="14.9320924"><ele>381.0</ele><time>2026-03-22T08:24:11.984Z</time></trkpt><trkpt lat="40.6871499" lon="14.9321814"><ele>381.0</ele><time>2026-03-22T08:24:12.95Z</time></trkpt><trkpt lat="40.6870723" lon="14.9322691"><ele>381.0</ele><time>2026-03-22T08:24:13.962Z</time></trkpt><trkpt lat="40.6869873" lon="14.9323555"><ele>381.0</ele><time>2026-03-22T08:24:14.96Z</time></trkpt><trkpt lat="40.686932" lon="14.9324186"><ele>381.0</ele><time>2026-03-22T08:24:15.959Z</time></trkpt><trkpt lat="40.686888" lon="14.9324965"><ele>381.0</ele><time>2026-03-22T08:24:16.958Z</time></trkpt><trkpt lat="40.6868302" lon="14.9325824"><ele>381.0</ele><time>2026-03-22T08:24:17.962Z</time></trkpt><trkpt lat="40.6867796" lon="14.9326604"><ele>384.8333333333333</ele><time>2026-03-22T08:24:18.958Z</time></trkpt><trkpt lat="40.6867253" lon="14.9327395"><ele>388.66666666666663</ele><time>2026-03-22T08:24:19.962Z</time></trkpt><trkpt lat="40.6866697" lon="14.9328337"><ele>392.5</ele><time>2026-03-22T08:24:20.963Z</time></trkpt><trkpt lat="40.6866202" lon="14.9329211"><ele>396.3333333333333</ele><time>2026-03-22T08:24:21.964Z</time></trkpt><trkpt lat="40.6865756" lon="14.9330039"><ele>400.16666666666663</ele><time>2026-03-22T08:24:22.954Z</time></trkpt><trkpt lat="40.6864713" lon="14.9330756"><ele>404.0</ele><time>2026-03-22T08:24:24.97Z</time></trkpt><trkpt lat="40.6863558" lon="14.9331708"><ele>404.0</ele><time>2026-03-22T08:24:26.965Z</time></trkpt><trkpt lat="40.6862827" lon="14.9332348"><ele>404.0</ele><time>2026-03-22T08:24:27.966Z</time></trkpt><trkpt lat="40.6862228" lon="14.9333018"><ele>404.0</ele><time>2026-03-22T08:24:28.963Z</time></trkpt><trkpt lat="40.6861706" lon="14.9333755"><ele>404.0</ele><time>2026-03-22T08:24:30.032Z</time></trkpt><trkpt lat="40.6861228" lon="14.9334384"><ele>404.0</ele><time>2026-03-22T08:24:31.03Z</time></trkpt><trkpt lat="40.6860801" lon="14.9335092"><ele>404.0</ele><time>2026-03-22T08:24:31.967Z</time></trkpt><trkpt lat="40.6860462" lon="14.9335832"><ele>404.0</ele><time>2026-03-22T08:24:32.956Z</time></trkpt><trkpt lat="40.6860223" lon="14.9336702"><ele>405.3333333333333</ele><time>2026-03-22T08:24:33.96Z</time></trkpt><trkpt lat="40.6860037" lon="14.9337733"><ele>406.66666666666663</ele><time>2026-03-22T08:24:34.953Z</time></trkpt><trkpt lat="40.6859713" lon="14.9338767"><ele>408.0</ele><time>2026-03-22T08:24:35.961Z</time></trkpt><trkpt lat="40.6859416" lon="14.933969"><ele>409.33333333333337</ele><time>2026-03-22T08:24:36.952Z</time></trkpt><trkpt lat="40.6859236" lon="14.9340615"><ele>410.6666666666667</ele><time>2026-03-22T08:24:38.029Z</time></trkpt><trkpt lat="40.6859018" lon="14.9341714"><ele>412.0</ele><time>2026-03-22T08:24:39.019Z</time></trkpt><trkpt lat="40.6858743" lon="14.934283"><ele>416.6</ele><time>2026-03-22T08:24:40.031Z</time></trkpt><trkpt lat="40.6858443" lon="14.934382"><ele>421.20000000000005</ele><time>2026-03-22T08:24:40.947Z</time></trkpt><trkpt lat="40.6858013" lon="14.9344931"><ele>425.8</ele><time>2026-03-22T08:24:41.946Z</time></trkpt><trkpt lat="40.6857531" lon="14.9346062"><ele>430.4</ele><time>2026-03-22T08:24:42.944Z</time></trkpt><trkpt lat="40.6856997" lon="14.9347179"><ele>435.0</ele><time>2026-03-22T08:24:43.951Z</time></trkpt><trkpt lat="40.6856431" lon="14.9348306"><ele>435.0</ele><time>2026-03-22T08:24:44.944Z</time></trkpt><trkpt lat="40.6855993" lon="14.934929"><ele>435.0</ele><time>2026-03-22T08:24:45.952Z</time></trkpt><trkpt lat="40.6855732" lon="14.935015"><ele>435.0</ele><time>2026-03-22T08:24:46.945Z</time></trkpt><trkpt lat="40.6855485" lon="14.9350915"><ele>435.0</ele><time>2026-03-22T08:24:47.945Z</time></trkpt><trkpt lat="40.6854957" lon="14.9352211"><ele>435.0</ele><time>2026-03-22T08:24:49.951Z</time></trkpt><trkpt lat="40.6854727" lon="14.9353603"><ele>435.0</ele><time>2026-03-22T08:24:51.95Z</time></trkpt><trkpt lat="40.6854601" lon="14.9354539"><ele>438.8333333333333</ele><time>2026-03-22T08:24:52.95Z</time></trkpt><trkpt lat="40.6854458" lon="14.9355369"><ele>442.66666666666663</ele><time>2026-03-22T08:24:53.95Z</time></trkpt><trkpt lat="40.6854307" lon="14.9356294"><ele>446.5</ele><time>2026-03-22T08:24:54.948Z</time></trkpt><trkpt lat="40.6854139" lon="14.9357264"><ele>450.3333333333333</ele><time>2026-03-22T08:24:56.042Z</time></trkpt><trkpt lat="40.6853964" lon="14.935829"><ele>454.16666666666663</ele><time>2026-03-22T08:24:56.965Z</time></trkpt><trkpt lat="40.6853801" lon="14.9359319"><ele>458.0</ele><time>2026-03-22T08:24:57.96Z</time></trkpt><trkpt lat="40.6853585" lon="14.936036"><ele>456.79999999999995</ele><time>2026-03-22T08:24:58.961Z</time></trkpt><trkpt lat="40.6853316" lon="14.9361448"><ele>455.59999999999997</ele><time>2026-03-22T08:24:59.96Z</time></trkpt><trkpt lat="40.6853136" lon="14.9362561"><ele>454.40000000000003</ele><time>2026-03-22T08:25:00.956Z</time></trkpt><trkpt lat="40.6852862" lon="14.936367"><ele>453.20000000000005</ele><time>2026-03-22T08:25:01.96Z</time></trkpt><trkpt lat="40.6852666" lon="14.9364934"><ele>452.0</ele><time>2026-03-22T08:25:02.964Z</time></trkpt><trkpt lat="40.6852506" lon="14.9366393"><ele>454.6</ele><time>2026-03-22T08:25:04.03Z</time></trkpt><trkpt lat="40.6852327" lon="14.936795"><ele>457.20000000000005</ele><time>2026-03-22T08:25:05.021Z</time></trkpt><trkpt lat="40.6852343" lon="14.9369317"><ele>459.8</ele><time>2026-03-22T08:25:06.017Z</time></trkpt><trkpt lat="40.6852289" lon="14.9370284"><ele>462.4</ele><time>2026-03-22T08:25:06.952Z</time></trkpt><trkpt lat="40.6851613" lon="14.9371492"><ele>465.0</ele><time>2026-03-22T08:25:08.949Z</time></trkpt><trkpt lat="40.6850968" lon="14.9372164"><ele>465.0</ele><time>2026-03-22T08:25:09.961Z</time></trkpt><trkpt lat="40.6850436" lon="14.9372744"><ele>465.0</ele><time>2026-03-22T08:25:10.964Z</time></trkpt><trkpt lat="40.684999" lon="14.9373454"><ele>465.0</ele><time>2026-03-22T08:25:11.957Z</time></trkpt><trkpt lat="40.6849219" lon="14.9374732"><ele>465.0</ele><time>2026-03-22T08:25:13.953Z</time></trkpt><trkpt lat="40.6849475" lon="14.9375896"><ele>465.0</ele><time>2026-03-22T08:25:15.955Z</time></trkpt><trkpt lat="40.6850035" lon="14.9376363"><ele>465.0</ele><time>2026-03-22T08:25:18.027Z</time></trkpt><trkpt lat="40.6850859" lon="14.9375689"><ele>465.0</ele><time>2026-03-22T08:25:20.026Z</time></trkpt><trkpt lat="40.6851461" lon="14.9375075"><ele>465.0</ele><time>2026-03-22T08:25:20.959Z</time></trkpt><trkpt lat="40.6852125" lon="14.9374449"><ele>465.0</ele><time>2026-03-22T08:25:21.963Z</time></trkpt><trkpt lat="40.6852969" lon="14.9373425"><ele>465.0</ele><time>2026-03-22T08:25:23.957Z</time></trkpt><trkpt lat="40.6852795" lon="14.9375031"><ele>465.0</ele><time>2026-03-22T08:25:28.959Z</time></trkpt><trkpt lat="40.6852423" lon="14.9376056"><ele>468.0</ele><time>2026-03-22T08:25:29.963Z</time></trkpt><trkpt lat="40.6852164" lon="14.9376963"><ele>471.0</ele><time>2026-03-22T08:25:30.957Z</time></trkpt><trkpt lat="40.6851949" lon="14.9377995"><ele>474.0</ele><time>2026-03-22T08:25:31.967Z</time></trkpt><trkpt lat="40.6851786" lon="14.9379097"><ele>477.0</ele><time>2026-03-22T08:25:32.958Z</time></trkpt><trkpt lat="40.685172" lon="14.9380236"><ele>480.0</ele><time>2026-03-22T08:25:33.958Z</time></trkpt><trkpt lat="40.6851909" lon="14.9381913"><ele>480.0</ele><time>2026-03-22T08:25:36.031Z</time></trkpt><trkpt lat="40.6852122" lon="14.9382959"><ele>480.0</ele><time>2026-03-22T08:25:37.954Z</time></trkpt><trkpt lat="40.6852806" lon="14.938263"><ele>480.0</ele><time>2026-03-22T08:25:39.952Z</time></trkpt><trkpt lat="40.6853389" lon="14.9382184"><ele>480.0</ele><time>2026-03-22T08:25:40.94Z</time></trkpt><trkpt lat="40.6854125" lon="14.9381569"><ele>480.0</ele><time>2026-03-22T08:25:41.965Z</time></trkpt><trkpt lat="40.685499" lon="14.9380858"><ele>480.0</ele><time>2026-03-22T08:25:42.955Z</time></trkpt><trkpt lat="40.6855785" lon="14.9380051"><ele>483.6666666666667</ele><time>2026-03-22T08:25:44.011Z</time></trkpt><trkpt lat="40.6856353" lon="14.9379322"><ele>487.33333333333337</ele><time>2026-03-22T08:25:44.956Z</time></trkpt><trkpt lat="40.6857259" lon="14.9378511"><ele>491.0</ele><time>2026-03-22T08:25:46.953Z</time></trkpt><trkpt lat="40.6857297" lon="14.9379505"><ele>494.6666666666667</ele><time>2026-03-22T08:25:49.951Z</time></trkpt><trkpt lat="40.6857171" lon="14.9380476"><ele>498.33333333333337</ele><time>2026-03-22T08:25:50.953Z</time></trkpt><trkpt lat="40.6856903" lon="14.9381779"><ele>502.0</ele><time>2026-03-22T08:25:51.957Z</time></trkpt><trkpt lat="40.6856702" lon="14.9382972"><ele>505.83333333333337</ele><time>2026-03-22T08:25:52.949Z</time></trkpt><trkpt lat="40.6856497" lon="14.9383974"><ele>509.6666666666667</ele><time>2026-03-22T08:25:53.953Z</time></trkpt><trkpt lat="40.6855965" lon="14.9385084"><ele>513.5</ele><time>2026-03-22T08:25:55.957Z</time></trkpt><trkpt lat="40.6855324" lon="14.9385512"><ele>517.3333333333334</ele><time>2026-03-22T08:25:56.958Z</time></trkpt><trkpt lat="40.6854743" lon="14.9385928"><ele>521.1666666666666</ele><time>2026-03-22T08:25:57.955Z</time></trkpt><trkpt lat="40.685426" lon="14.9386483"><ele>525.0</ele><time>2026-03-22T08:25:58.958Z</time></trkpt><trkpt lat="40.6853446" lon="14.9387824"><ele>525.0</ele><time>2026-03-22T08:26:00.951Z</time></trkpt><trkpt lat="40.685314" lon="14.9388636"><ele>525.0</ele><time>2026-03-22T08:26:01.947Z</time></trkpt><trkpt lat="40.6852828" lon="14.9389576"><ele>525.0</ele><time>2026-03-22T08:26:02.954Z</time></trkpt><trkpt lat="40.68524" lon="14.9390804"><ele>525.0</ele><time>2026-03-22T08:26:03.953Z</time></trkpt><trkpt lat="40.6851809" lon="14.9392046"><ele>525.0</ele><time>2026-03-22T08:26:04.945Z</time></trkpt><trkpt lat="40.6851241" lon="14.9393188"><ele>525.2</ele><time>2026-03-22T08:26:05.957Z</time></trkpt><trkpt lat="40.6850621" lon="14.9394482"><ele>525.4</ele><time>2026-03-22T08:26:06.94Z</time></trkpt><trkpt lat="40.6850039" lon="14.9395714"><ele>525.6</ele><time>2026-03-22T08:26:07.953Z</time></trkpt><trkpt lat="40.684953" lon="14.9396717"><ele>525.8</ele><time>2026-03-22T08:26:08.956Z</time></trkpt><trkpt lat="40.6848621" lon="14.9397634"><ele>526.0</ele><time>2026-03-22T08:26:10.956Z</time></trkpt><trkpt lat="40.6847642" lon="14.9397844"><ele>526.0</ele><time>2026-03-22T08:26:12.96Z</time></trkpt><trkpt lat="40.6847074" lon="14.939746"><ele>526.0</ele><time>2026-03-22T08:26:13.958Z</time></trkpt><trkpt lat="40.6846428" lon="14.9396841"><ele>526.0</ele><time>2026-03-22T08:26:14.952Z</time></trkpt><trkpt lat="40.6845896" lon="14.9396298"><ele>526.0</ele><time>2026-03-22T08:26:15.935Z</time></trkpt><trkpt lat="40.6845357" lon="14.9395658"><ele>526.0</ele><time>2026-03-22T08:26:16.956Z</time></trkpt><trkpt lat="40.6844793" lon="14.939495"><ele>526.0</ele><time>2026-03-22T08:26:17.95Z</time></trkpt><trkpt lat="40.6844325" lon="14.9394228"><ele>526.0</ele><time>2026-03-22T08:26:18.951Z</time></trkpt><trkpt lat="40.6843668" lon="14.9393321"><ele>528.0</ele><time>2026-03-22T08:26:19.961Z</time></trkpt><trkpt lat="40.6842973" lon="14.9392418"><ele>530.0</ele><time>2026-03-22T08:26:20.953Z</time></trkpt><trkpt lat="40.6842298" lon="14.9391655"><ele>532.0</ele><time>2026-03-22T08:26:21.952Z</time></trkpt><trkpt lat="40.6841706" lon="14.9390956"><ele>534.0</ele><time>2026-03-22T08:26:22.959Z</time></trkpt><trkpt lat="40.6841113" lon="14.9390191"><ele>536.0</ele><time>2026-03-22T08:26:23.958Z</time></trkpt><trkpt lat="40.6840608" lon="14.9389452"><ele>538.0</ele><time>2026-03-22T08:26:24.954Z</time></trkpt><trkpt lat="40.6839923" lon="14.938881"><ele>537.8333333333334</ele><time>2026-03-22T08:26:25.956Z</time></trkpt><trkpt lat="40.683915" lon="14.9388138"><ele>537.6666666666667</ele><time>2026-03-22T08:26:26.961Z</time></trkpt><trkpt lat="40.6838502" lon="14.9387529"><ele>537.5</ele><time>2026-03-22T08:26:27.958Z</time></trkpt><trkpt lat="40.6837761" lon="14.9387156"><ele>537.3333333333334</ele><time>2026-03-22T08:26:28.961Z</time></trkpt><trkpt lat="40.6836867" lon="14.9387108"><ele>537.1666666666666</ele><time>2026-03-22T08:26:29.953Z</time></trkpt><trkpt lat="40.6835823" lon="14.9387255"><ele>537.0</ele><time>2026-03-22T08:26:30.955Z</time></trkpt><trkpt lat="40.6834854" lon="14.9387588"><ele>537.0</ele><time>2026-03-22T08:26:31.954Z</time></trkpt><trkpt lat="40.6833917" lon="14.9387866"><ele>537.0</ele><time>2026-03-22T08:26:32.955Z</time></trkpt><trkpt lat="40.6833022" lon="14.9387966"><ele>537.0</ele><time>2026-03-22T08:26:33.962Z</time></trkpt><trkpt lat="40.6832222" lon="14.9387649"><ele>537.0</ele><time>2026-03-22T08:26:35.958Z</time></trkpt><trkpt lat="40.6831903" lon="14.9386861"><ele>537.0</ele><time>2026-03-22T08:26:37.972Z</time></trkpt><trkpt lat="40.6831081" lon="14.9385414"><ele>537.0</ele><time>2026-03-22T08:26:39.959Z</time></trkpt><trkpt lat="40.6830604" lon="14.9384176"><ele>537.0</ele><time>2026-03-22T08:26:40.968Z</time></trkpt><trkpt lat="40.6830174" lon="14.9383032"><ele>537.0</ele><time>2026-03-22T08:26:41.958Z</time></trkpt><trkpt lat="40.6829822" lon="14.9381807"><ele>537.0</ele><time>2026-03-22T08:26:42.965Z</time></trkpt><trkpt lat="40.6829365" lon="14.938049"><ele>537.0</ele><time>2026-03-22T08:26:43.961Z</time></trkpt><trkpt lat="40.6828965" lon="14.9379194"><ele>535.4</ele><time>2026-03-22T08:26:44.955Z</time></trkpt><trkpt lat="40.6828668" lon="14.9377807"><ele>533.8000000000001</ele><time>2026-03-22T08:26:45.967Z</time></trkpt><trkpt lat="40.6828434" lon="14.9376477"><ele>532.2</ele><time>2026-03-22T08:26:46.956Z</time></trkpt><trkpt lat="40.6828192" lon="14.9375144"><ele>530.6</ele><time>2026-03-22T08:26:47.946Z</time></trkpt><trkpt lat="40.6828023" lon="14.937399"><ele>529.0</ele><time>2026-03-22T08:26:48.974Z</time></trkpt><trkpt lat="40.682791" lon="14.9372926"><ele>526.8</ele><time>2026-03-22T08:26:49.959Z</time></trkpt><trkpt lat="40.6827572" lon="14.9371769"><ele>524.5999999999999</ele><time>2026-03-22T08:26:50.954Z</time></trkpt><trkpt lat="40.6827104" lon="14.9370477"><ele>522.4</ele><time>2026-03-22T08:26:51.969Z</time></trkpt><trkpt lat="40.6826717" lon="14.9369177"><ele>520.1999999999999</ele><time>2026-03-22T08:26:52.962Z</time></trkpt><trkpt lat="40.6826386" lon="14.9367986"><ele>518.0</ele><time>2026-03-22T08:26:53.957Z</time></trkpt><trkpt lat="40.6826018" lon="14.9366639"><ele>517.6666666666666</ele><time>2026-03-22T08:26:54.961Z</time></trkpt><trkpt lat="40.6825729" lon="14.9365229"><ele>517.3333333333333</ele><time>2026-03-22T08:26:55.964Z</time></trkpt><trkpt lat="40.6825509" lon="14.9363946"><ele>517.0</ele><time>2026-03-22T08:26:56.962Z</time></trkpt><trkpt lat="40.6825375" lon="14.9362869"><ele>516.6666666666666</ele><time>2026-03-22T08:26:57.96Z</time></trkpt><trkpt lat="40.6825326" lon="14.9361966"><ele>516.3333333333334</ele><time>2026-03-22T08:26:58.961Z</time></trkpt><trkpt lat="40.6825315" lon="14.9360952"><ele>516.0</ele><time>2026-03-22T08:27:00.957Z</time></trkpt><trkpt lat="40.6825036" lon="14.9360162"><ele>516.0</ele><time>2026-03-22T08:27:04.963Z</time></trkpt><trkpt lat="40.6825677" lon="14.9360746"><ele>516.0</ele><time>2026-03-22T08:27:20.959Z</time></trkpt><trkpt lat="40.6826379" lon="14.9360999"><ele>516.0</ele><time>2026-03-22T08:27:22.958Z</time></trkpt><trkpt lat="40.6827915" lon="14.9360942"><ele>516.0</ele><time>2026-03-22T08:27:24.959Z</time></trkpt><trkpt lat="40.6828836" lon="14.936079"><ele>516.0</ele><time>2026-03-22T08:27:25.955Z</time></trkpt><trkpt lat="40.6829568" lon="14.9360338"><ele>516.8333333333334</ele><time>2026-03-22T08:27:26.951Z</time></trkpt><trkpt lat="40.6830254" lon="14.9359791"><ele>517.6666666666666</ele><time>2026-03-22T08:27:27.963Z</time></trkpt><trkpt lat="40.6830909" lon="14.9359141"><ele>518.5</ele><time>2026-03-22T08:27:28.97Z</time></trkpt><trkpt lat="40.6831537" lon="14.9358491"><ele>519.3333333333333</ele><time>2026-03-22T08:27:29.962Z</time></trkpt><trkpt lat="40.6832147" lon="14.9357821"><ele>520.1666666666666</ele><time>2026-03-22T08:27:30.968Z</time></trkpt><trkpt lat="40.6833094" lon="14.9357154"><ele>521.0</ele><time>2026-03-22T08:27:32.956Z</time></trkpt><trkpt lat="40.6833736" lon="14.9356753"><ele>519.0</ele><time>2026-03-22T08:27:34.958Z</time></trkpt><trkpt lat="40.6833663" lon="14.9355522"><ele>517.0</ele><time>2026-03-22T08:27:36.963Z</time></trkpt><trkpt lat="40.6833748" lon="14.9353994"><ele>515.0</ele><time>2026-03-22T08:27:38.955Z</time></trkpt><trkpt lat="40.6833867" lon="14.9352715"><ele>513.0</ele><time>2026-03-22T08:27:40.963Z</time></trkpt><trkpt lat="40.6834246" lon="14.9351591"><ele>511.0</ele><time>2026-03-22T08:27:43.034Z</time></trkpt><trkpt lat="40.6834526" lon="14.9350836"><ele>507.4</ele><time>2026-03-22T08:27:44.037Z</time></trkpt><trkpt lat="40.6834905" lon="14.9350152"><ele>503.8</ele><time>2026-03-22T08:27:45.039Z</time></trkpt><trkpt lat="40.6835654" lon="14.9349013"><ele>500.19999999999993</ele><time>2026-03-22T08:27:46.956Z</time></trkpt><trkpt lat="40.6836555" lon="14.9347847"><ele>496.59999999999997</ele><time>2026-03-22T08:27:48.955Z</time></trkpt><trkpt lat="40.6836938" lon="14.9347185"><ele>493.0</ele><time>2026-03-22T08:27:49.954Z</time></trkpt><trkpt lat="40.6837555" lon="14.9346165"><ele>488.1666666666667</ele><time>2026-03-22T08:27:51.949Z</time></trkpt><trkpt lat="40.6838509" lon="14.934594"><ele>483.33333333333337</ele><time>2026-03-22T08:27:53.96Z</time></trkpt><trkpt lat="40.6839304" lon="14.9345718"><ele>478.5</ele><time>2026-03-22T08:27:55.969Z</time></trkpt><trkpt lat="40.683958" lon="14.9344687"><ele>473.66666666666663</ele><time>2026-03-22T08:27:58.974Z</time></trkpt><trkpt lat="40.683924" lon="14.9343902"><ele>468.8333333333333</ele><time>2026-03-22T08:28:00.952Z</time></trkpt><trkpt lat="40.6838618" lon="14.9342973"><ele>464.0</ele><time>2026-03-22T08:28:02.956Z</time></trkpt><trkpt lat="40.6837854" lon="14.9342199"><ele>462.16666666666663</ele><time>2026-03-22T08:28:04.99Z</time></trkpt><trkpt lat="40.6837149" lon="14.9341767"><ele>460.3333333333333</ele><time>2026-03-22T08:28:06.953Z</time></trkpt><trkpt lat="40.6836339" lon="14.9341647"><ele>458.5</ele><time>2026-03-22T08:28:08.949Z</time></trkpt><trkpt lat="40.6835803" lon="14.9340935"><ele>456.66666666666663</ele><time>2026-03-22T08:28:10.953Z</time></trkpt><trkpt lat="40.6835847" lon="14.9339966"><ele>454.8333333333333</ele><time>2026-03-22T08:28:12.951Z</time></trkpt><trkpt lat="40.683629" lon="14.9339081"><ele>453.0</ele><time>2026-03-22T08:28:14.956Z</time></trkpt><trkpt lat="40.6836872" lon="14.9338381"><ele>453.0</ele><time>2026-03-22T08:28:16.947Z</time></trkpt><trkpt lat="40.6837626" lon="14.933787"><ele>453.0</ele><time>2026-03-22T08:28:18.954Z</time></trkpt><trkpt lat="40.6838438" lon="14.9337316"><ele>453.0</ele><time>2026-03-22T08:28:20.95Z</time></trkpt><trkpt lat="40.6839258" lon="14.9336551"><ele>453.0</ele><time>2026-03-22T08:28:22.957Z</time></trkpt><trkpt lat="40.683984" lon="14.9336085"><ele>453.0</ele><time>2026-03-22T08:28:24.951Z</time></trkpt><trkpt lat="40.6840405" lon="14.9335329"><ele>453.0</ele><time>2026-03-22T08:28:26.953Z</time></trkpt><trkpt lat="40.6840806" lon="14.9334653"><ele>452.1666666666667</ele><time>2026-03-22T08:28:27.957Z</time></trkpt><trkpt lat="40.6841338" lon="14.9333572"><ele>451.33333333333337</ele><time>2026-03-22T08:28:28.953Z</time></trkpt><trkpt lat="40.6841989" lon="14.933245"><ele>450.5</ele><time>2026-03-22T08:28:29.951Z</time></trkpt><trkpt lat="40.68426" lon="14.9331597"><ele>449.6666666666667</ele><time>2026-03-22T08:28:30.952Z</time></trkpt><trkpt lat="40.6843056" lon="14.9330766"><ele>448.83333333333337</ele><time>2026-03-22T08:28:31.955Z</time></trkpt><trkpt lat="40.6843324" lon="14.9329928"><ele>448.0</ele><time>2026-03-22T08:28:32.951Z</time></trkpt><trkpt lat="40.6843255" lon="14.9328049"><ele>448.0</ele><time>2026-03-22T08:28:34.951Z</time></trkpt><trkpt lat="40.6843047" lon="14.9327005"><ele>447.99999999999994</ele><time>2026-03-22T08:28:35.947Z</time></trkpt><trkpt lat="40.6842801" lon="14.9326039"><ele>447.99999999999994</ele><time>2026-03-22T08:28:36.949Z</time></trkpt><trkpt lat="40.6842528" lon="14.9325032"><ele>448.0</ele><time>2026-03-22T08:28:37.956Z</time></trkpt><trkpt lat="40.6841974" lon="14.9323959"><ele>448.0</ele><time>2026-03-22T08:28:38.953Z</time></trkpt><trkpt lat="40.6841218" lon="14.932288"><ele>449.0</ele><time>2026-03-22T08:28:39.952Z</time></trkpt><trkpt lat="40.6840571" lon="14.9321783"><ele>449.99999999999994</ele><time>2026-03-22T08:28:40.949Z</time></trkpt><trkpt lat="40.6840148" lon="14.932105"><ele>450.99999999999994</ele><time>2026-03-22T08:28:41.951Z</time></trkpt><trkpt lat="40.6840018" lon="14.9319723"><ele>452.0</ele><time>2026-03-22T08:28:43.949Z</time></trkpt><trkpt lat="40.6840091" lon="14.9318565"><ele>453.0</ele><time>2026-03-22T08:28:44.951Z</time></trkpt><trkpt lat="40.6840301" lon="14.9316972"><ele>454.4</ele><time>2026-03-22T08:28:45.95Z</time></trkpt><trkpt lat="40.6840573" lon="14.9315481"><ele>455.79999999999995</ele><time>2026-03-22T08:28:46.948Z</time></trkpt><trkpt lat="40.6840986" lon="14.9314367"><ele>457.2</ele><time>2026-03-22T08:28:47.949Z</time></trkpt><trkpt lat="40.6841653" lon="14.9313605"><ele>458.6</ele><time>2026-03-22T08:28:48.951Z</time></trkpt><trkpt lat="40.6842218" lon="14.9312798"><ele>460.0</ele><time>2026-03-22T08:28:49.943Z</time></trkpt><trkpt lat="40.6842523" lon="14.9311149"><ele>460.00000000000006</ele><time>2026-03-22T08:28:51.947Z</time></trkpt><trkpt lat="40.6842323" lon="14.9310347"><ele>460.0</ele><time>2026-03-22T08:28:52.956Z</time></trkpt><trkpt lat="40.6841542" lon="14.930987"><ele>460.0</ele><time>2026-03-22T08:28:54.949Z</time></trkpt><trkpt lat="40.684102" lon="14.9310352"><ele>460.0</ele><time>2026-03-22T08:28:55.948Z</time></trkpt><trkpt lat="40.6840513" lon="14.9311135"><ele>460.00000000000006</ele><time>2026-03-22T08:28:56.952Z</time></trkpt><trkpt lat="40.6839812" lon="14.9311927"><ele>460.0</ele><time>2026-03-22T08:28:57.943Z</time></trkpt><trkpt lat="40.6839158" lon="14.9312795"><ele>460.00000000000006</ele><time>2026-03-22T08:28:58.956Z</time></trkpt><trkpt lat="40.6838705" lon="14.9313528"><ele>460.0</ele><time>2026-03-22T08:28:59.954Z</time></trkpt><trkpt lat="40.6838421" lon="14.9314294"><ele>460.0</ele><time>2026-03-22T08:29:00.956Z</time></trkpt><trkpt lat="40.6838065" lon="14.9315318"><ele>460.0</ele><time>2026-03-22T08:29:01.948Z</time></trkpt><trkpt lat="40.6837621" lon="14.9316569"><ele>460.00000000000006</ele><time>2026-03-22T08:29:02.955Z</time></trkpt><trkpt lat="40.6837127" lon="14.9317905"><ele>460.0</ele><time>2026-03-22T08:29:03.949Z</time></trkpt><trkpt lat="40.6836636" lon="14.9319106"><ele>458.83333333333337</ele><time>2026-03-22T08:29:04.934Z</time></trkpt><trkpt lat="40.6836297" lon="14.9320171"><ele>457.6666666666667</ele><time>2026-03-22T08:29:05.951Z</time></trkpt><trkpt lat="40.6836103" lon="14.9321042"><ele>456.5</ele><time>2026-03-22T08:29:06.948Z</time></trkpt><trkpt lat="40.6836149" lon="14.9321934"><ele>455.33333333333337</ele><time>2026-03-22T08:29:07.95Z</time></trkpt><trkpt lat="40.6836341" lon="14.9323016"><ele>454.1666666666667</ele><time>2026-03-22T08:29:08.949Z</time></trkpt><trkpt lat="40.6836467" lon="14.9324131"><ele>453.0</ele><time>2026-03-22T08:29:09.948Z</time></trkpt><trkpt lat="40.6836471" lon="14.9324971"><ele>452.0</ele><time>2026-03-22T08:29:10.939Z</time></trkpt><trkpt lat="40.683629" lon="14.9325924"><ele>450.99999999999994</ele><time>2026-03-22T08:29:12.961Z</time></trkpt><trkpt lat="40.6835682" lon="14.9324732"><ele>449.99999999999994</ele><time>2026-03-22T08:29:16.952Z</time></trkpt><trkpt lat="40.6834904" lon="14.9323523"><ele>449.0</ele><time>2026-03-22T08:29:18.955Z</time></trkpt><trkpt lat="40.6834483" lon="14.9322862"><ele>448.0</ele><time>2026-03-22T08:29:19.953Z</time></trkpt><trkpt lat="40.6833901" lon="14.9322103"><ele>459.59999999999997</ele><time>2026-03-22T08:29:20.949Z</time></trkpt><trkpt lat="40.6833122" lon="14.9321279"><ele>471.19999999999993</ele><time>2026-03-22T08:29:21.951Z</time></trkpt><trkpt lat="40.6832495" lon="14.9320275"><ele>482.8</ele><time>2026-03-22T08:29:22.951Z</time></trkpt><trkpt lat="40.6832156" lon="14.9319399"><ele>494.4</ele><time>2026-03-22T08:29:23.955Z</time></trkpt><trkpt lat="40.6832044" lon="14.9317953"><ele>506.0</ele><time>2026-03-22T08:29:25.952Z</time></trkpt><trkpt lat="40.6832231" lon="14.9317075"><ele>507.4</ele><time>2026-03-22T08:29:26.952Z</time></trkpt><trkpt lat="40.6832475" lon="14.931598"><ele>508.8</ele><time>2026-03-22T08:29:27.964Z</time></trkpt><trkpt lat="40.683277" lon="14.9314625"><ele>510.19999999999993</ele><time>2026-03-22T08:29:28.949Z</time></trkpt><trkpt lat="40.6833047" lon="14.9313563"><ele>511.59999999999997</ele><time>2026-03-22T08:29:29.945Z</time></trkpt><trkpt lat="40.6832981" lon="14.9312268"><ele>513.0</ele><time>2026-03-22T08:29:31.955Z</time></trkpt><trkpt lat="40.6832248" lon="14.9310533"><ele>513.0000000000001</ele><time>2026-03-22T08:29:33.958Z</time></trkpt><trkpt lat="40.6831505" lon="14.9309689"><ele>513.0</ele><time>2026-03-22T08:29:34.951Z</time></trkpt><trkpt lat="40.6831058" lon="14.9308957"><ele>513.0</ele><time>2026-03-22T08:29:35.957Z</time></trkpt><trkpt lat="40.6830783" lon="14.9308191"><ele>513.0</ele><time>2026-03-22T08:29:36.95Z</time></trkpt><trkpt lat="40.6830396" lon="14.9307525"><ele>513.0</ele><time>2026-03-22T08:29:37.962Z</time></trkpt><trkpt lat="40.6829862" lon="14.9306809"><ele>513.0000000000001</ele><time>2026-03-22T08:29:38.959Z</time></trkpt><trkpt lat="40.6829314" lon="14.930614"><ele>513.0</ele><time>2026-03-22T08:29:39.948Z</time></trkpt><trkpt lat="40.6828773" lon="14.9305399"><ele>511.3333333333333</ele><time>2026-03-22T08:29:40.955Z</time></trkpt><trkpt lat="40.6828129" lon="14.9304902"><ele>509.66666666666663</ele><time>2026-03-22T08:29:41.94Z</time></trkpt><trkpt lat="40.6827497" lon="14.9304531"><ele>508.0</ele><time>2026-03-22T08:29:42.957Z</time></trkpt><trkpt lat="40.6826935" lon="14.9303959"><ele>506.3333333333333</ele><time>2026-03-22T08:29:43.961Z</time></trkpt><trkpt lat="40.682617" lon="14.9303577"><ele>504.66666666666663</ele><time>2026-03-22T08:29:44.943Z</time></trkpt><trkpt lat="40.6826574" lon="14.9304457"><ele>503.0</ele><time>2026-03-22T08:29:50.953Z</time></trkpt><trkpt lat="40.6826467" lon="14.930599"><ele>508.0</ele><time>2026-03-22T08:29:53.95Z</time></trkpt><trkpt lat="40.6826502" lon="14.930768"><ele>513.0</ele><time>2026-03-22T08:29:55.941Z</time></trkpt><trkpt lat="40.682797" lon="14.9311599"><ele>513.0</ele><time>2026-03-22T08:29:56.953Z</time></trkpt><trkpt lat="40.6828316" lon="14.9314455"><ele>513.0</ele><time>2026-03-22T08:29:57.952Z</time></trkpt><trkpt lat="40.6828481" lon="14.9316906"><ele>513.0</ele><time>2026-03-22T08:29:58.949Z</time></trkpt><trkpt lat="40.6828446" lon="14.9318429"><ele>511.59999999999997</ele><time>2026-03-22T08:29:59.949Z</time></trkpt><trkpt lat="40.6828679" lon="14.9320054"><ele>510.19999999999993</ele><time>2026-03-22T08:30:00.951Z</time></trkpt><trkpt lat="40.6828763" lon="14.9321442"><ele>508.8</ele><time>2026-03-22T08:30:01.954Z</time></trkpt><trkpt lat="40.6828774" lon="14.9322652"><ele>507.4</ele><time>2026-03-22T08:30:02.959Z</time></trkpt><trkpt lat="40.6828542" lon="14.9323589"><ele>506.0</ele><time>2026-03-22T08:30:03.957Z</time></trkpt><trkpt lat="40.6828016" lon="14.9324322"><ele>507.8333333333333</ele><time>2026-03-22T08:30:04.948Z</time></trkpt><trkpt lat="40.6827198" lon="14.9324986"><ele>509.66666666666663</ele><time>2026-03-22T08:30:05.953Z</time></trkpt><trkpt lat="40.6826358" lon="14.9325596"><ele>511.5</ele><time>2026-03-22T08:30:06.948Z</time></trkpt><trkpt lat="40.6825724" lon="14.9326153"><ele>513.3333333333334</ele><time>2026-03-22T08:30:07.948Z</time></trkpt><trkpt lat="40.6825281" lon="14.9326758"><ele>515.1666666666667</ele><time>2026-03-22T08:30:08.948Z</time></trkpt><trkpt lat="40.6824532" lon="14.9327557"><ele>517.0</ele><time>2026-03-22T08:30:09.949Z</time></trkpt><trkpt lat="40.6823813" lon="14.9328427"><ele>517.0</ele><time>2026-03-22T08:30:10.952Z</time></trkpt><trkpt lat="40.682301" lon="14.932941"><ele>517.0</ele><time>2026-03-22T08:30:11.935Z</time></trkpt><trkpt lat="40.6822259" lon="14.9330391"><ele>517.0</ele><time>2026-03-22T08:30:12.949Z</time></trkpt><trkpt lat="40.6821499" lon="14.9331498"><ele>517.0</ele><time>2026-03-22T08:30:13.945Z</time></trkpt><trkpt lat="40.6820431" lon="14.9332741"><ele>517.0</ele><time>2026-03-22T08:30:14.944Z</time></trkpt><trkpt lat="40.6819479" lon="14.9333862"><ele>517.0</ele><time>2026-03-22T08:30:15.945Z</time></trkpt><trkpt lat="40.6818565" lon="14.9334888"><ele>517.0</ele><time>2026-03-22T08:30:16.95Z</time></trkpt><trkpt lat="40.6817733" lon="14.9335993"><ele>517.0</ele><time>2026-03-22T08:30:17.937Z</time></trkpt><trkpt lat="40.6817055" lon="14.9337102"><ele>518.5</ele><time>2026-03-22T08:30:18.931Z</time></trkpt><trkpt lat="40.6816649" lon="14.9338231"><ele>520.0</ele><time>2026-03-22T08:30:19.947Z</time></trkpt><trkpt lat="40.6816565" lon="14.933927"><ele>521.5</ele><time>2026-03-22T08:30:20.953Z</time></trkpt><trkpt lat="40.6816463" lon="14.9340507"><ele>523.0</ele><time>2026-03-22T08:30:21.952Z</time></trkpt><trkpt lat="40.6816575" lon="14.9341589"><ele>524.5</ele><time>2026-03-22T08:30:22.953Z</time></trkpt><trkpt lat="40.6816614" lon="14.9342719"><ele>526.0</ele><time>2026-03-22T08:30:23.951Z</time></trkpt><trkpt lat="40.6816647" lon="14.9343701"><ele>526.0</ele><time>2026-03-22T08:30:25.961Z</time></trkpt><trkpt lat="40.6816605" lon="14.9344588"><ele>526.0</ele><time>2026-03-22T08:30:31.953Z</time></trkpt><trkpt lat="40.6815968" lon="14.9344057"><ele>526.0</ele><time>2026-03-22T08:30:36.965Z</time></trkpt><trkpt lat="40.6815269" lon="14.9343122"><ele>526.0</ele><time>2026-03-22T08:30:38.966Z</time></trkpt><trkpt lat="40.6815016" lon="14.9342002"><ele>526.0</ele><time>2026-03-22T08:30:41.952Z</time></trkpt><trkpt lat="40.6814965" lon="14.9341011"><ele>526.0</ele><time>2026-03-22T08:30:43.973Z</time></trkpt><trkpt lat="40.681493" lon="14.9340146"><ele>529.6666666666667</ele><time>2026-03-22T08:30:45.948Z</time></trkpt><trkpt lat="40.6815326" lon="14.9337968"><ele>533.3333333333334</ele><time>2026-03-22T08:30:47.965Z</time></trkpt><trkpt lat="40.6815931" lon="14.9336118"><ele>537.0</ele><time>2026-03-22T08:30:48.963Z</time></trkpt><trkpt lat="40.6816649" lon="14.9334063"><ele>539.6</ele><time>2026-03-22T08:30:49.974Z</time></trkpt><trkpt lat="40.6817158" lon="14.9332649"><ele>542.2</ele><time>2026-03-22T08:30:50.96Z</time></trkpt><trkpt lat="40.681762" lon="14.933143"><ele>544.8</ele><time>2026-03-22T08:30:51.963Z</time></trkpt><trkpt lat="40.6818142" lon="14.9330178"><ele>547.4</ele><time>2026-03-22T08:30:52.966Z</time></trkpt><trkpt lat="40.681868" lon="14.9328874"><ele>550.0</ele><time>2026-03-22T08:30:53.965Z</time></trkpt><trkpt lat="40.6819085" lon="14.9327552"><ele>548.2</ele><time>2026-03-22T08:30:54.957Z</time></trkpt><trkpt lat="40.6819488" lon="14.9326254"><ele>546.4</ele><time>2026-03-22T08:30:55.963Z</time></trkpt><trkpt lat="40.6819848" lon="14.9324993"><ele>544.6</ele><time>2026-03-22T08:30:56.958Z</time></trkpt><trkpt lat="40.6820285" lon="14.9323685"><ele>542.8</ele><time>2026-03-22T08:30:57.963Z</time></trkpt><trkpt lat="40.6820711" lon="14.9322287"><ele>541.0</ele><time>2026-03-22T08:30:58.956Z</time></trkpt><trkpt lat="40.6821169" lon="14.9321112"><ele>541.0</ele><time>2026-03-22T08:30:59.963Z</time></trkpt><trkpt lat="40.6821588" lon="14.932015"><ele>541.0</ele><time>2026-03-22T08:31:00.955Z</time></trkpt><trkpt lat="40.6822013" lon="14.9319496"><ele>541.0</ele><time>2026-03-22T08:31:01.965Z</time></trkpt><trkpt lat="40.6822855" lon="14.9318184"><ele>541.0</ele><time>2026-03-22T08:31:03.971Z</time></trkpt><trkpt lat="40.6822985" lon="14.931719"><ele>541.0</ele><time>2026-03-22T08:31:04.97Z</time></trkpt><trkpt lat="40.6823148" lon="14.9316316"><ele>541.0</ele><time>2026-03-22T08:31:05.967Z</time></trkpt><trkpt lat="40.6823247" lon="14.9314708"><ele>542.5</ele><time>2026-03-22T08:31:07.968Z</time></trkpt><trkpt lat="40.6823123" lon="14.9313848"><ele>544.0</ele><time>2026-03-22T08:31:08.959Z</time></trkpt><trkpt lat="40.6822779" lon="14.9312947"><ele>545.5</ele><time>2026-03-22T08:31:09.97Z</time></trkpt><trkpt lat="40.6822224" lon="14.9312055"><ele>547.0</ele><time>2026-03-22T08:31:10.969Z</time></trkpt><trkpt lat="40.6821663" lon="14.9311387"><ele>548.5</ele><time>2026-03-22T08:31:11.969Z</time></trkpt><trkpt lat="40.6821158" lon="14.9310692"><ele>550.0</ele><time>2026-03-22T08:31:12.945Z</time></trkpt><trkpt lat="40.6820245" lon="14.9309681"><ele>551.2</ele><time>2026-03-22T08:31:14.959Z</time></trkpt><trkpt lat="40.6819139" lon="14.9308872"><ele>552.4</ele><time>2026-03-22T08:31:16.963Z</time></trkpt><trkpt lat="40.6818294" lon="14.9308577"><ele>553.6</ele><time>2026-03-22T08:31:18.962Z</time></trkpt><trkpt lat="40.6817049" lon="14.9307767"><ele>554.8</ele><time>2026-03-22T08:31:20.956Z</time></trkpt><trkpt lat="40.6816379" lon="14.9307172"><ele>556.0</ele><time>2026-03-22T08:31:21.966Z</time></trkpt><trkpt lat="40.6815954" lon="14.9306467"><ele>556.0</ele><time>2026-03-22T08:31:22.962Z</time></trkpt><trkpt lat="40.6815506" lon="14.930557"><ele>556.0</ele><time>2026-03-22T08:31:23.972Z</time></trkpt><trkpt lat="40.6815308" lon="14.9304563"><ele>556.0</ele><time>2026-03-22T08:31:24.97Z</time></trkpt><trkpt lat="40.681503" lon="14.9303372"><ele>556.0</ele><time>2026-03-22T08:31:25.958Z</time></trkpt><trkpt lat="40.6814556" lon="14.9302156"><ele>556.0</ele><time>2026-03-22T08:31:26.963Z</time></trkpt><trkpt lat="40.6813899" lon="14.9300943"><ele>557.0</ele><time>2026-03-22T08:31:27.958Z</time></trkpt><trkpt lat="40.6813153" lon="14.9299845"><ele>558.0</ele><time>2026-03-22T08:31:28.963Z</time></trkpt><trkpt lat="40.6812445" lon="14.92988"><ele>559.0</ele><time>2026-03-22T08:31:29.94Z</time></trkpt><trkpt lat="40.6811763" lon="14.9297753"><ele>560.0</ele><time>2026-03-22T08:31:30.965Z</time></trkpt><trkpt lat="40.6811234" lon="14.9296647"><ele>561.0</ele><time>2026-03-22T08:31:31.956Z</time></trkpt><trkpt lat="40.681076" lon="14.9295587"><ele>561.0</ele><time>2026-03-22T08:31:32.97Z</time></trkpt><trkpt lat="40.6810442" lon="14.9294684"><ele>561.0</ele><time>2026-03-22T08:31:33.965Z</time></trkpt><trkpt lat="40.681004" lon="14.9293259"><ele>561.0</ele><time>2026-03-22T08:31:35.944Z</time></trkpt><trkpt lat="40.680939" lon="14.9291853"><ele>561.0</ele><time>2026-03-22T08:31:37.955Z</time></trkpt><trkpt lat="40.6809201" lon="14.9291052"><ele>561.0</ele><time>2026-03-22T08:31:38.968Z</time></trkpt><trkpt lat="40.680937" lon="14.92899"><ele>558.0</ele><time>2026-03-22T08:31:40.972Z</time></trkpt><trkpt lat="40.6809379" lon="14.9288884"><ele>555.0</ele><time>2026-03-22T08:31:42.96Z</time></trkpt><trkpt lat="40.6809071" lon="14.9287647"><ele>552.0</ele><time>2026-03-22T08:31:44.965Z</time></trkpt><trkpt lat="40.6808788" lon="14.9286586"><ele>549.0</ele><time>2026-03-22T08:31:45.974Z</time></trkpt><trkpt lat="40.6808561" lon="14.9285493"><ele>546.0</ele><time>2026-03-22T08:31:46.965Z</time></trkpt><trkpt lat="40.6808397" lon="14.9284476"><ele>543.0</ele><time>2026-03-22T08:31:47.961Z</time></trkpt><trkpt lat="40.680827" lon="14.9283581"><ele>540.8333333333334</ele><time>2026-03-22T08:31:48.976Z</time></trkpt><trkpt lat="40.6808207" lon="14.9281917"><ele>538.6666666666666</ele><time>2026-03-22T08:31:50.975Z</time></trkpt><trkpt lat="40.6808094" lon="14.9281007"><ele>536.5</ele><time>2026-03-22T08:31:51.977Z</time></trkpt><trkpt lat="40.6808" lon="14.9279879"><ele>534.3333333333333</ele><time>2026-03-22T08:31:52.973Z</time></trkpt><trkpt lat="40.6808031" lon="14.9278819"><ele>532.1666666666666</ele><time>2026-03-22T08:31:53.96Z</time></trkpt><trkpt lat="40.6808278" lon="14.9277734"><ele>530.0</ele><time>2026-03-22T08:31:54.974Z</time></trkpt><trkpt lat="40.6808515" lon="14.9276562"><ele>528.8</ele><time>2026-03-22T08:31:55.964Z</time></trkpt><trkpt lat="40.6808703" lon="14.9275596"><ele>527.6</ele><time>2026-03-22T08:31:56.976Z</time></trkpt><trkpt lat="40.6809039" lon="14.9274051"><ele>526.4</ele><time>2026-03-22T08:31:58.961Z</time></trkpt><trkpt lat="40.6809197" lon="14.9272648"><ele>525.2</ele><time>2026-03-22T08:32:00.968Z</time></trkpt><trkpt lat="40.6808452" lon="14.9272465"><ele>524.0</ele><time>2026-03-22T08:32:03.953Z</time></trkpt><trkpt lat="40.6807892" lon="14.9273168"><ele>524.0</ele><time>2026-03-22T08:32:05.962Z</time></trkpt><trkpt lat="40.6807479" lon="14.9274913"><ele>524.0</ele><time>2026-03-22T08:32:07.966Z</time></trkpt><trkpt lat="40.680716" lon="14.9275751"><ele>524.0</ele><time>2026-03-22T08:32:08.968Z</time></trkpt><trkpt lat="40.6807164" lon="14.9276883"><ele>524.0</ele><time>2026-03-22T08:32:09.968Z</time></trkpt><trkpt lat="40.6807159" lon="14.9277932"><ele>524.0</ele><time>2026-03-22T08:32:10.961Z</time></trkpt><trkpt lat="40.6807265" lon="14.9279098"><ele>525.2</ele><time>2026-03-22T08:32:11.963Z</time></trkpt><trkpt lat="40.6807387" lon="14.9280001"><ele>526.4</ele><time>2026-03-22T08:32:12.959Z</time></trkpt><trkpt lat="40.6807376" lon="14.928157"><ele>527.6</ele><time>2026-03-22T08:32:14.96Z</time></trkpt><trkpt lat="40.6807027" lon="14.9282923"><ele>528.8</ele><time>2026-03-22T08:32:16.945Z</time></trkpt><trkpt lat="40.6806845" lon="14.9283757"><ele>530.0</ele><time>2026-03-22T08:32:17.954Z</time></trkpt><trkpt lat="40.6806725" lon="14.9285506"><ele>532.1666666666666</ele><time>2026-03-22T08:32:19.959Z</time></trkpt><trkpt lat="40.6806787" lon="14.928687"><ele>534.3333333333333</ele><time>2026-03-22T08:32:21.96Z</time></trkpt><trkpt lat="40.6807115" lon="14.9287748"><ele>536.5</ele><time>2026-03-22T08:32:23.96Z</time></trkpt><trkpt lat="40.680761" lon="14.9288414"><ele>538.6666666666666</ele><time>2026-03-22T08:32:25.983Z</time></trkpt><trkpt lat="40.6807951" lon="14.928932"><ele>540.8333333333334</ele><time>2026-03-22T08:32:27.968Z</time></trkpt><trkpt lat="40.6808087" lon="14.9290305"><ele>543.0</ele><time>2026-03-22T08:32:29.956Z</time></trkpt><trkpt lat="40.6807933" lon="14.9291155"><ele>546.0</ele><time>2026-03-22T08:32:33.972Z</time></trkpt><trkpt lat="40.6807655" lon="14.9292357"><ele>549.0</ele><time>2026-03-22T08:32:36.965Z</time></trkpt><trkpt lat="40.6807299" lon="14.9293452"><ele>552.0</ele><time>2026-03-22T08:32:38.964Z</time></trkpt><trkpt lat="40.6807201" lon="14.9294278"><ele>555.0</ele><time>2026-03-22T08:32:41.968Z</time></trkpt><trkpt lat="40.6807581" lon="14.9295225"><ele>558.0</ele><time>2026-03-22T08:34:43.974Z</time></trkpt><trkpt lat="40.6807913" lon="14.9296073"><ele>561.0</ele><time>2026-03-22T08:34:46.968Z</time></trkpt><trkpt lat="40.6807914" lon="14.929693"><ele>561.0</ele><time>2026-03-22T08:34:52.968Z</time></trkpt><trkpt lat="40.6807897" lon="14.9297868"><ele>561.0</ele><time>2026-03-22T08:34:55.966Z</time></trkpt><trkpt lat="40.6807934" lon="14.9298963"><ele>561.0</ele><time>2026-03-22T08:35:57.97Z</time></trkpt><trkpt lat="40.6807818" lon="14.9300063"><ele>561.0</ele><time>2026-03-22T08:36:00.955Z</time></trkpt><trkpt lat="40.6807488" lon="14.9301192"><ele>561.0</ele><time>2026-03-22T08:36:03.959Z</time></trkpt><trkpt lat="40.6807343" lon="14.9302007"><ele>561.0</ele><time>2026-03-22T08:36:05.958Z</time></trkpt><trkpt lat="40.6807187" lon="14.9302812"><ele>564.0</ele><time>2026-03-22T08:36:07.955Z</time></trkpt><trkpt lat="40.6807006" lon="14.9303734"><ele>567.0</ele><time>2026-03-22T08:36:09.954Z</time></trkpt><trkpt lat="40.6806995" lon="14.9304747"><ele>570.0</ele><time>2026-03-22T08:36:11.957Z</time></trkpt><trkpt lat="40.6806968" lon="14.9305688"><ele>573.0</ele><time>2026-03-22T08:36:13.957Z</time></trkpt><trkpt lat="40.6806885" lon="14.9306773"><ele>576.0</ele><time>2026-03-22T08:36:15.962Z</time></trkpt><trkpt lat="40.6806794" lon="14.9307749"><ele>579.0</ele><time>2026-03-22T08:36:17.959Z</time></trkpt><trkpt lat="40.6806631" lon="14.9309074"><ele>581.0</ele><time>2026-03-22T08:36:19.955Z</time></trkpt><trkpt lat="40.6806346" lon="14.9310163"><ele>583.0</ele><time>2026-03-22T08:36:21.959Z</time></trkpt><trkpt lat="40.6806277" lon="14.9311289"><ele>585.0</ele><time>2026-03-22T08:36:23.952Z</time></trkpt><trkpt lat="40.6805976" lon="14.9312683"><ele>587.0</ele><time>2026-03-22T08:36:25.952Z</time></trkpt><trkpt lat="40.6806076" lon="14.9314195"><ele>589.0</ele><time>2026-03-22T08:36:27.947Z</time></trkpt><trkpt lat="40.6806291" lon="14.9315044"><ele>589.0</ele><time>2026-03-22T08:36:28.949Z</time></trkpt><trkpt lat="40.6806664" lon="14.9315772"><ele>589.0</ele><time>2026-03-22T08:36:29.948Z</time></trkpt><trkpt lat="40.6807148" lon="14.9316549"><ele>589.0</ele><time>2026-03-22T08:36:30.962Z</time></trkpt><trkpt lat="40.6807729" lon="14.9317427"><ele>589.0</ele><time>2026-03-22T08:36:31.954Z</time></trkpt><trkpt lat="40.6808269" lon="14.9318381"><ele>589.0</ele><time>2026-03-22T08:36:32.953Z</time></trkpt><trkpt lat="40.68087" lon="14.931927"><ele>589.0</ele><time>2026-03-22T08:36:33.951Z</time></trkpt><trkpt lat="40.6809206" lon="14.9320194"><ele>587.1666666666667</ele><time>2026-03-22T08:36:34.96Z</time></trkpt><trkpt lat="40.6809718" lon="14.932093"><ele>585.3333333333334</ele><time>2026-03-22T08:36:35.949Z</time></trkpt><trkpt lat="40.6810264" lon="14.9321516"><ele>583.5</ele><time>2026-03-22T08:36:36.96Z</time></trkpt><trkpt lat="40.6811389" lon="14.9322124"><ele>581.6666666666666</ele><time>2026-03-22T08:36:38.95Z</time></trkpt><trkpt lat="40.6812097" lon="14.9322768"><ele>579.8333333333333</ele><time>2026-03-22T08:36:40.958Z</time></trkpt><trkpt lat="40.6812111" lon="14.9323681"><ele>578.0</ele><time>2026-03-22T08:36:43.939Z</time></trkpt><trkpt lat="40.6811997" lon="14.9324583"><ele>573.3333333333333</ele><time>2026-03-22T08:36:46.954Z</time></trkpt><trkpt lat="40.6812219" lon="14.9325695"><ele>568.6666666666666</ele><time>2026-03-22T08:36:48.95Z</time></trkpt><trkpt lat="40.6812241" lon="14.9326722"><ele>564.0</ele><time>2026-03-22T08:36:51.96Z</time></trkpt><trkpt lat="40.6812205" lon="14.9327752"><ele>559.3333333333334</ele><time>2026-03-22T08:36:54.953Z</time></trkpt><trkpt lat="40.6812122" lon="14.9328972"><ele>554.6666666666667</ele><time>2026-03-22T08:36:57.974Z</time></trkpt><trkpt lat="40.6812021" lon="14.9329946"><ele>550.0</ele><time>2026-03-22T08:36:59.969Z</time></trkpt><trkpt lat="40.6811858" lon="14.9330796"><ele>550.0</ele><time>2026-03-22T08:37:01.971Z</time></trkpt><trkpt lat="40.6811757" lon="14.9331672"><ele>550.0</ele><time>2026-03-22T08:37:03.977Z</time></trkpt><trkpt lat="40.6811703" lon="14.9332688"><ele>550.0</ele><time>2026-03-22T08:37:05.978Z</time></trkpt><trkpt lat="40.6811558" lon="14.9333664"><ele>550.0</ele><time>2026-03-22T08:37:08.025Z</time></trkpt><trkpt lat="40.6811523" lon="14.9334654"><ele>550.0</ele><time>2026-03-22T08:37:09.953Z</time></trkpt><trkpt lat="40.6811406" lon="14.9335873"><ele>550.0</ele><time>2026-03-22T08:37:11.973Z</time></trkpt><trkpt lat="40.6811378" lon="14.9337115"><ele>547.4</ele><time>2026-03-22T08:37:13.964Z</time></trkpt><trkpt lat="40.6811568" lon="14.9338188"><ele>544.8</ele><time>2026-03-22T08:37:15.955Z</time></trkpt><trkpt lat="40.681216" lon="14.9339086"><ele>542.2</ele><time>2026-03-22T08:37:17.968Z</time></trkpt><trkpt lat="40.681288" lon="14.9340279"><ele>539.6</ele><time>2026-03-22T08:37:19.978Z</time></trkpt><trkpt lat="40.681349" lon="14.9341449"><ele>537.0</ele><time>2026-03-22T08:37:21.967Z</time></trkpt><trkpt lat="40.6814049" lon="14.9342464"><ele>535.1666666666666</ele><time>2026-03-22T08:37:23.966Z</time></trkpt><trkpt lat="40.6814695" lon="14.9343702"><ele>533.3333333333334</ele><time>2026-03-22T08:37:25.967Z</time></trkpt><trkpt lat="40.6815055" lon="14.934441"><ele>531.5</ele><time>2026-03-22T08:37:26.97Z</time></trkpt><trkpt lat="40.6815562" lon="14.9345289"><ele>529.6666666666667</ele><time>2026-03-22T08:37:27.97Z</time></trkpt><trkpt lat="40.681608" lon="14.9346337"><ele>527.8333333333334</ele><time>2026-03-22T08:37:29.03Z</time></trkpt><trkpt lat="40.6816435" lon="14.934724"><ele>526.0</ele><time>2026-03-22T08:37:29.961Z</time></trkpt><trkpt lat="40.6816802" lon="14.934856"><ele>526.0</ele><time>2026-03-22T08:37:31.977Z</time></trkpt><trkpt lat="40.6817235" lon="14.9349736"><ele>526.0</ele><time>2026-03-22T08:37:33.978Z</time></trkpt><trkpt lat="40.681763" lon="14.9350663"><ele>526.0</ele><time>2026-03-22T08:37:35.96Z</time></trkpt><trkpt lat="40.681792" lon="14.9351494"><ele>526.0</ele><time>2026-03-22T08:37:36.973Z</time></trkpt><trkpt lat="40.6818208" lon="14.9352275"><ele>526.0</ele><time>2026-03-22T08:37:37.971Z</time></trkpt><trkpt lat="40.6818625" lon="14.9353108"><ele>526.0</ele><time>2026-03-22T08:37:38.967Z</time></trkpt><trkpt lat="40.6819128" lon="14.9353989"><ele>524.3333333333334</ele><time>2026-03-22T08:37:39.965Z</time></trkpt><trkpt lat="40.681969" lon="14.9354793"><ele>522.6666666666667</ele><time>2026-03-22T08:37:41.042Z</time></trkpt><trkpt lat="40.682033" lon="14.9355587"><ele>521.0</ele><time>2026-03-22T08:37:41.963Z</time></trkpt><trkpt lat="40.6820899" lon="14.9356216"><ele>519.3333333333334</ele><time>2026-03-22T08:37:42.957Z</time></trkpt><trkpt lat="40.6821587" lon="14.9356686"><ele>517.6666666666666</ele><time>2026-03-22T08:37:43.962Z</time></trkpt><trkpt lat="40.6822306" lon="14.9357174"><ele>516.0</ele><time>2026-03-22T08:37:45.051Z</time></trkpt><trkpt lat="40.6823499" lon="14.9358408"><ele>516.0</ele><time>2026-03-22T08:37:46.967Z</time></trkpt><trkpt lat="40.6824157" lon="14.9359102"><ele>516.0</ele><time>2026-03-22T08:37:47.968Z</time></trkpt><trkpt lat="40.682479" lon="14.9359918"><ele>516.0</ele><time>2026-03-22T08:37:49.028Z</time></trkpt><trkpt lat="40.6825366" lon="14.9360608"><ele>516.0</ele><time>2026-03-22T08:37:50.018Z</time></trkpt><trkpt lat="40.6825948" lon="14.9360958"><ele>516.0</ele><time>2026-03-22T08:37:51.038Z</time></trkpt><trkpt lat="40.6826855" lon="14.9360972"><ele>516.0</ele><time>2026-03-22T08:37:53.029Z</time></trkpt><trkpt lat="40.6827371" lon="14.9361462"><ele>516.0</ele><time>2026-03-22T08:38:21.962Z</time></trkpt><trkpt lat="40.6826865" lon="14.9360861"><ele>516.0</ele><time>2026-03-22T08:39:59.963Z</time></trkpt><trkpt lat="40.6826211" lon="14.9360847"><ele>516.0</ele><time>2026-03-22T08:40:02.96Z</time></trkpt><trkpt lat="40.6825631" lon="14.9360306"><ele>516.0</ele><time>2026-03-22T08:40:05.949Z</time></trkpt><trkpt lat="40.6825766" lon="14.9359276"><ele>516.0</ele><time>2026-03-22T08:40:14.954Z</time></trkpt><trkpt lat="40.6825731" lon="14.9357776"><ele>516.0</ele><time>2026-03-22T08:40:16.955Z</time></trkpt><trkpt lat="40.6825737" lon="14.9356907"><ele>516.0</ele><time>2026-03-22T08:40:17.96Z</time></trkpt><trkpt lat="40.6825866" lon="14.9356039"><ele>516.0</ele><time>2026-03-22T08:40:18.965Z</time></trkpt><trkpt lat="40.6826125" lon="14.9355278"><ele>516.0</ele><time>2026-03-22T08:40:19.961Z</time></trkpt><trkpt lat="40.6826555" lon="14.9354661"><ele>516.0</ele><time>2026-03-22T08:40:20.955Z</time></trkpt><trkpt lat="40.6827051" lon="14.9353157"><ele>516.0</ele><time>2026-03-22T08:40:22.965Z</time></trkpt><trkpt lat="40.682732" lon="14.9351712"><ele>516.0</ele><time>2026-03-22T08:40:24.962Z</time></trkpt><trkpt lat="40.6827387" lon="14.9350841"><ele>516.0</ele><time>2026-03-22T08:40:25.962Z</time></trkpt><trkpt lat="40.6827524" lon="14.9349364"><ele>516.0</ele><time>2026-03-22T08:40:27.962Z</time></trkpt><trkpt lat="40.6827856" lon="14.9347985"><ele>516.0</ele><time>2026-03-22T08:40:29.957Z</time></trkpt><trkpt lat="40.6828238" lon="14.9346566"><ele>516.0</ele><time>2026-03-22T08:40:31.949Z</time></trkpt><trkpt lat="40.6828436" lon="14.93454"><ele>516.0</ele><time>2026-03-22T08:40:33.966Z</time></trkpt><trkpt lat="40.6828273" lon="14.9344235"><ele>512.1666666666666</ele><time>2026-03-22T08:40:36.968Z</time></trkpt><trkpt lat="40.6828219" lon="14.9343231"><ele>508.33333333333337</ele><time>2026-03-22T08:40:38.963Z</time></trkpt><trkpt lat="40.682853" lon="14.9342105"><ele>504.5</ele><time>2026-03-22T08:40:40.966Z</time></trkpt><trkpt lat="40.6828808" lon="14.9341274"><ele>500.6666666666667</ele><time>2026-03-22T08:40:42.963Z</time></trkpt><trkpt lat="40.68292" lon="14.9340479"><ele>496.83333333333337</ele><time>2026-03-22T08:40:44.944Z</time></trkpt><trkpt lat="40.6829739" lon="14.9339894"><ele>493.0</ele><time>2026-03-22T08:40:46.961Z</time></trkpt><trkpt lat="40.6830485" lon="14.9339459"><ele>490.71428571428567</ele><time>2026-03-22T08:40:49.964Z</time></trkpt><trkpt lat="40.6831233" lon="14.9339216"><ele>488.42857142857144</ele><time>2026-03-22T08:40:52.956Z</time></trkpt><trkpt lat="40.6831974" lon="14.933922"><ele>486.1428571428571</ele><time>2026-03-22T08:40:55.959Z</time></trkpt><trkpt lat="40.6832704" lon="14.933922"><ele>483.85714285714283</ele><time>2026-03-22T08:40:58.958Z</time></trkpt><trkpt lat="40.683331" lon="14.9338918"><ele>481.57142857142856</ele><time>2026-03-22T08:41:02.963Z</time></trkpt><trkpt lat="40.6834157" lon="14.9339018"><ele>479.2857142857143</ele><time>2026-03-22T08:41:15.956Z</time></trkpt><trkpt lat="40.683471" lon="14.9339552"><ele>477.0</ele><time>2026-03-22T08:41:17.961Z</time></trkpt><trkpt lat="40.6835494" lon="14.9339919"><ele>475.1428571428571</ele><time>2026-03-22T08:41:20.966Z</time></trkpt><trkpt lat="40.6836086" lon="14.9340305"><ele>473.2857142857142</ele><time>2026-03-22T08:41:23.963Z</time></trkpt><trkpt lat="40.683674" lon="14.9340574"><ele>471.42857142857144</ele><time>2026-03-22T08:41:25.958Z</time></trkpt><trkpt lat="40.6837439" lon="14.9340998"><ele>469.57142857142856</ele><time>2026-03-22T08:41:28.96Z</time></trkpt><trkpt lat="40.6837886" lon="14.9341592"><ele>467.7142857142857</ele><time>2026-03-22T08:41:30.957Z</time></trkpt><trkpt lat="40.6838125" lon="14.9342427"><ele>465.8571428571429</ele><time>2026-03-22T08:41:32.964Z</time></trkpt><trkpt lat="40.6837899" lon="14.9343541"><ele>464.00000000000006</ele><time>2026-03-22T08:41:36.961Z</time></trkpt><trkpt lat="40.6837427" lon="14.9344388"><ele>463.99999999999994</ele><time>2026-03-22T08:41:38.981Z</time></trkpt><trkpt lat="40.6836888" lon="14.9345199"><ele>464.0</ele><time>2026-03-22T08:41:40.965Z</time></trkpt><trkpt lat="40.6836232" lon="14.9345865"><ele>464.0</ele><time>2026-03-22T08:41:42.965Z</time></trkpt><trkpt lat="40.6835428" lon="14.9346632"><ele>464.0</ele><time>2026-03-22T08:41:44.966Z</time></trkpt><trkpt lat="40.6834717" lon="14.9347476"><ele>463.99999999999994</ele><time>2026-03-22T08:41:46.967Z</time></trkpt><trkpt lat="40.6834075" lon="14.9348307"><ele>464.0</ele><time>2026-03-22T08:41:48.954Z</time></trkpt><trkpt lat="40.6833633" lon="14.9349408"><ele>471.8333333333333</ele><time>2026-03-22T08:41:50.963Z</time></trkpt><trkpt lat="40.6833506" lon="14.9350544"><ele>479.66666666666663</ele><time>2026-03-22T08:41:52.964Z</time></trkpt><trkpt lat="40.6833946" lon="14.9351869"><ele>487.5</ele><time>2026-03-22T08:41:54.967Z</time></trkpt><trkpt lat="40.6834566" lon="14.9352668"><ele>495.33333333333337</ele><time>2026-03-22T08:41:55.944Z</time></trkpt><trkpt lat="40.6835027" lon="14.9353388"><ele>503.1666666666667</ele><time>2026-03-22T08:41:56.958Z</time></trkpt><trkpt lat="40.6835449" lon="14.9354243"><ele>511.0</ele><time>2026-03-22T08:41:57.966Z</time></trkpt><trkpt lat="40.6835857" lon="14.9355253"><ele>506.33333333333337</ele><time>2026-03-22T08:41:58.962Z</time></trkpt><trkpt lat="40.683622" lon="14.9356051"><ele>501.6666666666667</ele><time>2026-03-22T08:41:59.962Z</time></trkpt><trkpt lat="40.6836703" lon="14.9357044"><ele>497.0</ele><time>2026-03-22T08:42:01.968Z</time></trkpt><trkpt lat="40.683717" lon="14.9357818"><ele>492.33333333333337</ele><time>2026-03-22T08:42:03.968Z</time></trkpt><trkpt lat="40.6837615" lon="14.9358672"><ele>487.6666666666667</ele><time>2026-03-22T08:42:06.96Z</time></trkpt><trkpt lat="40.68381" lon="14.9359664"><ele>483.0</ele><time>2026-03-22T08:42:11.956Z</time></trkpt><trkpt lat="40.6838583" lon="14.9360958"><ele>483.0</ele><time>2026-03-22T08:42:13.97Z</time></trkpt><trkpt lat="40.6839048" lon="14.936196"><ele>483.0</ele><time>2026-03-22T08:42:14.967Z</time></trkpt><trkpt lat="40.6839518" lon="14.9362929"><ele>483.0</ele><time>2026-03-22T08:42:15.962Z</time></trkpt><trkpt lat="40.6839765" lon="14.9363847"><ele>483.0</ele><time>2026-03-22T08:42:16.966Z</time></trkpt><trkpt lat="40.6839878" lon="14.9365061"><ele>483.0</ele><time>2026-03-22T08:42:17.959Z</time></trkpt><trkpt lat="40.6839866" lon="14.936616"><ele>483.0</ele><time>2026-03-22T08:42:18.956Z</time></trkpt><trkpt lat="40.6839736" lon="14.9367194"><ele>483.1666666666667</ele><time>2026-03-22T08:42:19.956Z</time></trkpt><trkpt lat="40.6839616" lon="14.9368224"><ele>483.33333333333337</ele><time>2026-03-22T08:42:20.962Z</time></trkpt><trkpt lat="40.6839515" lon="14.9369249"><ele>483.5</ele><time>2026-03-22T08:42:21.961Z</time></trkpt><trkpt lat="40.6839446" lon="14.9370326"><ele>483.6666666666667</ele><time>2026-03-22T08:42:22.959Z</time></trkpt><trkpt lat="40.6839266" lon="14.9371326"><ele>483.83333333333337</ele><time>2026-03-22T08:42:23.958Z</time></trkpt><trkpt lat="40.6839168" lon="14.9372428"><ele>484.0</ele><time>2026-03-22T08:42:24.96Z</time></trkpt><trkpt lat="40.6839069" lon="14.9373405"><ele>484.00000000000006</ele><time>2026-03-22T08:42:25.957Z</time></trkpt><trkpt lat="40.6839058" lon="14.9374372"><ele>484.0</ele><time>2026-03-22T08:42:26.96Z</time></trkpt><trkpt lat="40.6838934" lon="14.9375393"><ele>484.0</ele><time>2026-03-22T08:42:27.946Z</time></trkpt><trkpt lat="40.6839169" lon="14.937671"><ele>484.0</ele><time>2026-03-22T08:42:29.956Z</time></trkpt><trkpt lat="40.6840167" lon="14.9377131"><ele>484.00000000000006</ele><time>2026-03-22T08:42:32.961Z</time></trkpt><trkpt lat="40.6840856" lon="14.9377108"><ele>484.0</ele><time>2026-03-22T08:42:33.959Z</time></trkpt><trkpt lat="40.6841599" lon="14.9376999"><ele>486.79999999999995</ele><time>2026-03-22T08:42:34.948Z</time></trkpt><trkpt lat="40.6842339" lon="14.9377117"><ele>489.59999999999997</ele><time>2026-03-22T08:42:35.953Z</time></trkpt><trkpt lat="40.6843408" lon="14.9377823"><ele>492.4</ele><time>2026-03-22T08:42:37.957Z</time></trkpt><trkpt lat="40.6843775" lon="14.9379331"><ele>495.2</ele><time>2026-03-22T08:42:39.956Z</time></trkpt><trkpt lat="40.6843902" lon="14.9380562"><ele>498.0</ele><time>2026-03-22T08:42:40.958Z</time></trkpt><trkpt lat="40.684415" lon="14.9381804"><ele>498.4</ele><time>2026-03-22T08:42:41.947Z</time></trkpt><trkpt lat="40.6844528" lon="14.9382889"><ele>498.79999999999995</ele><time>2026-03-22T08:42:42.955Z</time></trkpt><trkpt lat="40.6844982" lon="14.9384019"><ele>499.2</ele><time>2026-03-22T08:42:43.952Z</time></trkpt><trkpt lat="40.6845458" lon="14.9384862"><ele>499.6</ele><time>2026-03-22T08:42:44.955Z</time></trkpt><trkpt lat="40.684593" lon="14.9385623"><ele>500.0</ele><time>2026-03-22T08:42:45.959Z</time></trkpt><trkpt lat="40.6846859" lon="14.9386419"><ele>500.0</ele><time>2026-03-22T08:42:47.958Z</time></trkpt><trkpt lat="40.6847737" lon="14.9387059"><ele>500.0</ele><time>2026-03-22T08:42:49.959Z</time></trkpt><trkpt lat="40.6848465" lon="14.9387284"><ele>500.0</ele><time>2026-03-22T08:42:51.959Z</time></trkpt><trkpt lat="40.6849152" lon="14.9386443"><ele>500.0</ele><time>2026-03-22T08:42:54.962Z</time></trkpt><trkpt lat="40.6849688" lon="14.9385442"><ele>500.0</ele><time>2026-03-22T08:42:56.95Z</time></trkpt><trkpt lat="40.6850343" lon="14.9384661"><ele>500.3333333333333</ele><time>2026-03-22T08:42:58.962Z</time></trkpt><trkpt lat="40.6851376" lon="14.9383804"><ele>500.66666666666663</ele><time>2026-03-22T08:43:00.965Z</time></trkpt><trkpt lat="40.6852096" lon="14.9383221"><ele>501.0</ele><time>2026-03-22T08:43:01.96Z</time></trkpt><trkpt lat="40.6852633" lon="14.9382695"><ele>501.33333333333337</ele><time>2026-03-22T08:43:02.956Z</time></trkpt><trkpt lat="40.6853263" lon="14.9381915"><ele>501.6666666666667</ele><time>2026-03-22T08:43:03.955Z</time></trkpt><trkpt lat="40.6853923" lon="14.9381153"><ele>502.0</ele><time>2026-03-22T08:43:04.96Z</time></trkpt><trkpt lat="40.6854556" lon="14.9380407"><ele>502.0</ele><time>2026-03-22T08:43:05.955Z</time></trkpt><trkpt lat="40.6855233" lon="14.9379519"><ele>502.00000000000006</ele><time>2026-03-22T08:43:07.962Z</time></trkpt><trkpt lat="40.6855305" lon="14.9380681"><ele>502.00000000000006</ele><time>2026-03-22T08:43:12.955Z</time></trkpt><trkpt lat="40.685532" lon="14.9382177"><ele>502.0</ele><time>2026-03-22T08:43:14.958Z</time></trkpt><trkpt lat="40.6855128" lon="14.938354"><ele>502.0</ele><time>2026-03-22T08:43:16.962Z</time></trkpt><trkpt lat="40.6854806" lon="14.9384863"><ele>501.6</ele><time>2026-03-22T08:43:18.943Z</time></trkpt><trkpt lat="40.6854042" lon="14.9386214"><ele>501.20000000000005</ele><time>2026-03-22T08:43:20.951Z</time></trkpt><trkpt lat="40.6853504" lon="14.9387251"><ele>500.8</ele><time>2026-03-22T08:43:21.954Z</time></trkpt><trkpt lat="40.6852977" lon="14.9388367"><ele>500.4</ele><time>2026-03-22T08:43:22.955Z</time></trkpt><trkpt lat="40.6852372" lon="14.9389604"><ele>500.0</ele><time>2026-03-22T08:43:23.964Z</time></trkpt><trkpt lat="40.6851709" lon="14.9390964"><ele>505.2</ele><time>2026-03-22T08:43:24.989Z</time></trkpt><trkpt lat="40.6851146" lon="14.9392281"><ele>510.4</ele><time>2026-03-22T08:43:25.955Z</time></trkpt><trkpt lat="40.6850567" lon="14.9393626"><ele>515.6</ele><time>2026-03-22T08:43:26.957Z</time></trkpt><trkpt lat="40.6850036" lon="14.9394992"><ele>520.8</ele><time>2026-03-22T08:43:27.957Z</time></trkpt><trkpt lat="40.6849608" lon="14.9395948"><ele>526.0</ele><time>2026-03-22T08:43:28.952Z</time></trkpt><trkpt lat="40.6849045" lon="14.9396789"><ele>526.0</ele><time>2026-03-22T08:43:29.953Z</time></trkpt><trkpt lat="40.6848502" lon="14.9397477"><ele>526.0</ele><time>2026-03-22T08:43:30.955Z</time></trkpt><trkpt lat="40.6847828" lon="14.9397609"><ele>526.0</ele><time>2026-03-22T08:43:31.956Z</time></trkpt><trkpt lat="40.6847056" lon="14.9397356"><ele>526.0</ele><time>2026-03-22T08:43:32.948Z</time></trkpt><trkpt lat="40.6846367" lon="14.9397118"><ele>526.0</ele><time>2026-03-22T08:43:33.957Z</time></trkpt><trkpt lat="40.6845716" lon="14.9396736"><ele>526.0</ele><time>2026-03-22T08:43:34.954Z</time></trkpt><trkpt lat="40.6845161" lon="14.9396018"><ele>526.0</ele><time>2026-03-22T08:43:35.953Z</time></trkpt><trkpt lat="40.6844706" lon="14.9395144"><ele>528.0</ele><time>2026-03-22T08:43:36.951Z</time></trkpt><trkpt lat="40.6844184" lon="14.9394294"><ele>530.0</ele><time>2026-03-22T08:43:37.954Z</time></trkpt><trkpt lat="40.6843631" lon="14.9393449"><ele>532.0</ele><time>2026-03-22T08:43:38.953Z</time></trkpt><trkpt lat="40.6843136" lon="14.9392742"><ele>534.0</ele><time>2026-03-22T08:43:39.957Z</time></trkpt><trkpt lat="40.684245" lon="14.9391985"><ele>536.0</ele><time>2026-03-22T08:43:41.952Z</time></trkpt><trkpt lat="40.6841973" lon="14.939127"><ele>538.0</ele><time>2026-03-22T08:43:43.953Z</time></trkpt><trkpt lat="40.6841334" lon="14.9390664"><ele>533.1999999999999</ele><time>2026-03-22T08:43:44.965Z</time></trkpt><trkpt lat="40.6840568" lon="14.9389791"><ele>528.4</ele><time>2026-03-22T08:43:45.95Z</time></trkpt><trkpt lat="40.6839801" lon="14.9388978"><ele>523.5999999999999</ele><time>2026-03-22T08:43:46.951Z</time></trkpt><trkpt lat="40.6838958" lon="14.9388217"><ele>518.8</ele><time>2026-03-22T08:43:47.959Z</time></trkpt><trkpt lat="40.6838082" lon="14.9387695"><ele>514.0</ele><time>2026-03-22T08:43:48.963Z</time></trkpt><trkpt lat="40.6837296" lon="14.9387356"><ele>519.75</ele><time>2026-03-22T08:43:49.963Z</time></trkpt><trkpt lat="40.6835305" lon="14.9387803"><ele>525.5</ele><time>2026-03-22T08:43:51.959Z</time></trkpt><trkpt lat="40.6834311" lon="14.9388094"><ele>531.25</ele><time>2026-03-22T08:43:52.952Z</time></trkpt><trkpt lat="40.6833417" lon="14.9388219"><ele>537.0</ele><time>2026-03-22T08:43:53.961Z</time></trkpt><trkpt lat="40.683272" lon="14.9388103"><ele>537.0</ele><time>2026-03-22T08:43:54.961Z</time></trkpt><trkpt lat="40.6832195" lon="14.9387483"><ele>537.0</ele><time>2026-03-22T08:43:55.957Z</time></trkpt><trkpt lat="40.6831617" lon="14.9386273"><ele>537.0</ele><time>2026-03-22T08:43:56.961Z</time></trkpt><trkpt lat="40.6830918" lon="14.9384677"><ele>537.0</ele><time>2026-03-22T08:43:57.96Z</time></trkpt><trkpt lat="40.6830254" lon="14.9382775"><ele>535.4</ele><time>2026-03-22T08:43:58.957Z</time></trkpt><trkpt lat="40.682977" lon="14.9381049"><ele>533.8000000000001</ele><time>2026-03-22T08:43:59.953Z</time></trkpt><trkpt lat="40.6829363" lon="14.9379758"><ele>532.2</ele><time>2026-03-22T08:44:00.961Z</time></trkpt><trkpt lat="40.6828964" lon="14.9378705"><ele>530.6</ele><time>2026-03-22T08:44:01.966Z</time></trkpt><trkpt lat="40.6828621" lon="14.9377467"><ele>529.0</ele><time>2026-03-22T08:44:02.954Z</time></trkpt><trkpt lat="40.6828372" lon="14.9376145"><ele>528.0</ele><time>2026-03-22T08:44:03.963Z</time></trkpt><trkpt lat="40.6828146" lon="14.9374844"><ele>527.0</ele><time>2026-03-22T08:44:04.953Z</time></trkpt><trkpt lat="40.6827913" lon="14.9373835"><ele>526.0</ele><time>2026-03-22T08:44:05.966Z</time></trkpt><trkpt lat="40.682777" lon="14.9372837"><ele>525.0</ele><time>2026-03-22T08:44:06.959Z</time></trkpt><trkpt lat="40.6827465" lon="14.9371746"><ele>524.0</ele><time>2026-03-22T08:44:07.955Z</time></trkpt><trkpt lat="40.6827043" lon="14.9370677"><ele>523.0</ele><time>2026-03-22T08:44:08.958Z</time></trkpt><trkpt lat="40.6826633" lon="14.9369446"><ele>522.0</ele><time>2026-03-22T08:44:09.956Z</time></trkpt><trkpt lat="40.682621" lon="14.9368448"><ele>521.0</ele><time>2026-03-22T08:44:10.967Z</time></trkpt><trkpt lat="40.6825898" lon="14.9367443"><ele>520.0</ele><time>2026-03-22T08:44:11.963Z</time></trkpt><trkpt lat="40.6825732" lon="14.9366155"><ele>519.0</ele><time>2026-03-22T08:44:12.966Z</time></trkpt><trkpt lat="40.682561" lon="14.9364865"><ele>518.0</ele><time>2026-03-22T08:44:13.959Z</time></trkpt><trkpt lat="40.6825459" lon="14.9363702"><ele>517.6</ele><time>2026-03-22T08:44:14.959Z</time></trkpt><trkpt lat="40.6825441" lon="14.9362858"><ele>517.1999999999999</ele><time>2026-03-22T08:44:15.951Z</time></trkpt><trkpt lat="40.6825269" lon="14.936205"><ele>516.8</ele><time>2026-03-22T08:44:18.961Z</time></trkpt><trkpt lat="40.6826108" lon="14.9361717"><ele>516.4</ele><time>2026-03-22T08:44:49.968Z</time></trkpt><trkpt lat="40.6826994" lon="14.9361435"><ele>516.0</ele><time>2026-03-22T09:02:26.955Z</time></trkpt><trkpt lat="40.6828358" lon="14.9360661"><ele>516.8333333333334</ele><time>2026-03-22T09:02:28.957Z</time></trkpt><trkpt lat="40.6829175" lon="14.9360052"><ele>517.6666666666666</ele><time>2026-03-22T09:02:29.953Z</time></trkpt><trkpt lat="40.6829944" lon="14.9359511"><ele>518.5</ele><time>2026-03-22T09:02:30.961Z</time></trkpt><trkpt lat="40.6830679" lon="14.9358873"><ele>519.3333333333333</ele><time>2026-03-22T09:02:31.966Z</time></trkpt><trkpt lat="40.6831366" lon="14.9358268"><ele>520.1666666666666</ele><time>2026-03-22T09:02:32.957Z</time></trkpt><trkpt lat="40.6832018" lon="14.9357665"><ele>521.0</ele><time>2026-03-22T09:02:34.038Z</time></trkpt><trkpt lat="40.683261" lon="14.9357171"><ele>519.0</ele><time>2026-03-22T09:02:35.037Z</time></trkpt><trkpt lat="40.6833378" lon="14.9356615"><ele>517.0</ele><time>2026-03-22T09:02:36.964Z</time></trkpt><trkpt lat="40.6833491" lon="14.9355555"><ele>515.0</ele><time>2026-03-22T09:02:38.965Z</time></trkpt><trkpt lat="40.6833614" lon="14.9353768"><ele>513.0</ele><time>2026-03-22T09:02:40.969Z</time></trkpt><trkpt lat="40.6833788" lon="14.9352368"><ele>511.0</ele><time>2026-03-22T09:02:42.971Z</time></trkpt><trkpt lat="40.6834025" lon="14.9351596"><ele>511.00000000000006</ele><time>2026-03-22T09:02:43.96Z</time></trkpt><trkpt lat="40.6834349" lon="14.9350832"><ele>511.0</ele><time>2026-03-22T09:02:44.967Z</time></trkpt><trkpt lat="40.6835017" lon="14.9349392"><ele>511.0</ele><time>2026-03-22T09:02:46.974Z</time></trkpt><trkpt lat="40.6835394" lon="14.9348718"><ele>511.0</ele><time>2026-03-22T09:02:47.964Z</time></trkpt><trkpt lat="40.683585" lon="14.934797"><ele>511.00000000000006</ele><time>2026-03-22T09:02:48.957Z</time></trkpt><trkpt lat="40.6836323" lon="14.9347252"><ele>511.0</ele><time>2026-03-22T09:02:50.038Z</time></trkpt><trkpt lat="40.6836913" lon="14.9346189"><ele>503.1666666666667</ele><time>2026-03-22T09:02:51.957Z</time></trkpt><trkpt lat="40.6837652" lon="14.9345675"><ele>495.33333333333337</ele><time>2026-03-22T09:02:53.966Z</time></trkpt><trkpt lat="40.6838619" lon="14.9345695"><ele>487.5</ele><time>2026-03-22T09:02:55.969Z</time></trkpt><trkpt lat="40.6839141" lon="14.9344919"><ele>479.66666666666663</ele><time>2026-03-22T09:02:58.96Z</time></trkpt><trkpt lat="40.6839032" lon="14.9343752"><ele>471.8333333333333</ele><time>2026-03-22T09:03:00.956Z</time></trkpt><trkpt lat="40.6838805" lon="14.9342651"><ele>464.0</ele><time>2026-03-22T09:03:02.962Z</time></trkpt><trkpt lat="40.6838321" lon="14.93419"><ele>462.16666666666663</ele><time>2026-03-22T09:03:04.963Z</time></trkpt><trkpt lat="40.6837781" lon="14.9341168"><ele>460.3333333333333</ele><time>2026-03-22T09:03:07.957Z</time></trkpt><trkpt lat="40.6837183" lon="14.9340837"><ele>458.5</ele><time>2026-03-22T09:03:09.96Z</time></trkpt><trkpt lat="40.6836755" lon="14.9339826"><ele>456.66666666666663</ele><time>2026-03-22T09:03:12.963Z</time></trkpt><trkpt lat="40.6836833" lon="14.9338751"><ele>454.8333333333333</ele><time>2026-03-22T09:03:14.939Z</time></trkpt><trkpt lat="40.6837052" lon="14.933748"><ele>453.0</ele><time>2026-03-22T09:03:16.964Z</time></trkpt><trkpt lat="40.6837706" lon="14.9336565"><ele>453.0</ele><time>2026-03-22T09:03:18.954Z</time></trkpt><trkpt lat="40.6838557" lon="14.9335752"><ele>452.99999999999994</ele><time>2026-03-22T09:03:20.965Z</time></trkpt><trkpt lat="40.6839405" lon="14.9335322"><ele>452.99999999999994</ele><time>2026-03-22T09:03:22.966Z</time></trkpt><trkpt lat="40.6840109" lon="14.9334813"><ele>453.0</ele><time>2026-03-22T09:03:23.96Z</time></trkpt><trkpt lat="40.6840962" lon="14.9333946"><ele>453.0</ele><time>2026-03-22T09:03:25.038Z</time></trkpt><trkpt lat="40.6841771" lon="14.933291"><ele>452.1666666666667</ele><time>2026-03-22T09:03:26.036Z</time></trkpt><trkpt lat="40.6842448" lon="14.9331916"><ele>451.33333333333337</ele><time>2026-03-22T09:03:26.997Z</time></trkpt><trkpt lat="40.6843007" lon="14.9330979"><ele>450.5</ele><time>2026-03-22T09:03:27.949Z</time></trkpt><trkpt lat="40.68436" lon="14.9329965"><ele>449.6666666666667</ele><time>2026-03-22T09:03:28.952Z</time></trkpt><trkpt lat="40.6844113" lon="14.9329105"><ele>448.83333333333337</ele><time>2026-03-22T09:03:29.965Z</time></trkpt><trkpt lat="40.6844352" lon="14.9328306"><ele>448.0</ele><time>2026-03-22T09:03:30.948Z</time></trkpt><trkpt lat="40.6844352" lon="14.9327228"><ele>448.0</ele><time>2026-03-22T09:03:31.966Z</time></trkpt><trkpt lat="40.684415" lon="14.9326061"><ele>447.99999999999994</ele><time>2026-03-22T09:03:32.957Z</time></trkpt><trkpt lat="40.6843841" lon="14.932476"><ele>447.99999999999994</ele><time>2026-03-22T09:03:33.947Z</time></trkpt><trkpt lat="40.6843183" lon="14.9323504"><ele>448.0</ele><time>2026-03-22T09:03:34.955Z</time></trkpt><trkpt lat="40.6842257" lon="14.9322459"><ele>448.0</ele><time>2026-03-22T09:03:36.028Z</time></trkpt><trkpt lat="40.6841351" lon="14.9321469"><ele>449.0</ele><time>2026-03-22T09:03:36.96Z</time></trkpt><trkpt lat="40.6840685" lon="14.932068"><ele>449.99999999999994</ele><time>2026-03-22T09:03:37.961Z</time></trkpt><trkpt lat="40.6840234" lon="14.9319562"><ele>450.99999999999994</ele><time>2026-03-22T09:03:40.026Z</time></trkpt><trkpt lat="40.6840206" lon="14.9318379"><ele>452.0</ele><time>2026-03-22T09:03:41.032Z</time></trkpt><trkpt lat="40.6840337" lon="14.9316966"><ele>453.0</ele><time>2026-03-22T09:03:41.95Z</time></trkpt><trkpt lat="40.6840641" lon="14.9315729"><ele>454.1666666666667</ele><time>2026-03-22T09:03:42.954Z</time></trkpt><trkpt lat="40.6841158" lon="14.9314568"><ele>455.33333333333337</ele><time>2026-03-22T09:03:44.022Z</time></trkpt><trkpt lat="40.6841643" lon="14.9313517"><ele>456.5</ele><time>2026-03-22T09:03:45.012Z</time></trkpt><trkpt lat="40.684201" lon="14.9312804"><ele>457.6666666666667</ele><time>2026-03-22T09:03:45.964Z</time></trkpt><trkpt lat="40.6842208" lon="14.9311818"><ele>458.83333333333337</ele><time>2026-03-22T09:03:46.982Z</time></trkpt><trkpt lat="40.6842041" lon="14.9310785"><ele>460.0</ele><time>2026-03-22T09:03:48.032Z</time></trkpt><trkpt lat="40.6841775" lon="14.9310002"><ele>460.0</ele><time>2026-03-22T09:03:49.034Z</time></trkpt><trkpt lat="40.6840678" lon="14.9310429"><ele>460.0</ele><time>2026-03-22T09:03:51.031Z</time></trkpt><trkpt lat="40.6840019" lon="14.9311075"><ele>460.0</ele><time>2026-03-22T09:03:51.968Z</time></trkpt><trkpt lat="40.6839301" lon="14.9311859"><ele>460.0</ele><time>2026-03-22T09:03:53.027Z</time></trkpt><trkpt lat="40.6838522" lon="14.931274"><ele>460.0</ele><time>2026-03-22T09:03:54.03Z</time></trkpt><trkpt lat="40.6838053" lon="14.9313553"><ele>460.0</ele><time>2026-03-22T09:03:55.035Z</time></trkpt><trkpt lat="40.6837803" lon="14.9314434"><ele>460.0</ele><time>2026-03-22T09:03:56.042Z</time></trkpt><trkpt lat="40.6837505" lon="14.9315787"><ele>460.0</ele><time>2026-03-22T09:03:56.956Z</time></trkpt><trkpt lat="40.6837157" lon="14.9317283"><ele>460.0</ele><time>2026-03-22T09:03:57.957Z</time></trkpt><trkpt lat="40.6836817" lon="14.9318735"><ele>460.0</ele><time>2026-03-22T09:03:58.958Z</time></trkpt><trkpt lat="40.6836542" lon="14.9319997"><ele>458.83333333333337</ele><time>2026-03-22T09:04:00.021Z</time></trkpt><trkpt lat="40.6836222" lon="14.9320731"><ele>457.6666666666667</ele><time>2026-03-22T09:04:00.979Z</time></trkpt><trkpt lat="40.683606" lon="14.9322271"><ele>456.5</ele><time>2026-03-22T09:04:02.963Z</time></trkpt><trkpt lat="40.6836081" lon="14.9323395"><ele>455.33333333333337</ele><time>2026-03-22T09:04:03.952Z</time></trkpt><trkpt lat="40.6835997" lon="14.9324504"><ele>454.1666666666667</ele><time>2026-03-22T09:04:04.944Z</time></trkpt><trkpt lat="40.6835677" lon="14.9325684"><ele>453.0</ele><time>2026-03-22T09:04:06.949Z</time></trkpt><trkpt lat="40.6835044" lon="14.9324712"><ele>463.59999999999997</ele><time>2026-03-22T09:04:10.957Z</time></trkpt><trkpt lat="40.6834308" lon="14.9323132"><ele>474.19999999999993</ele><time>2026-03-22T09:04:12.955Z</time></trkpt><trkpt lat="40.6833811" lon="14.9322534"><ele>484.8</ele><time>2026-03-22T09:04:13.948Z</time></trkpt><trkpt lat="40.6833223" lon="14.9321748"><ele>495.4</ele><time>2026-03-22T09:04:14.945Z</time></trkpt><trkpt lat="40.683252" lon="14.9320845"><ele>506.0</ele><time>2026-03-22T09:04:15.952Z</time></trkpt><trkpt lat="40.6831975" lon="14.9319937"><ele>506.0</ele><time>2026-03-22T09:04:16.951Z</time></trkpt><trkpt lat="40.6831698" lon="14.9319053"><ele>506.0</ele><time>2026-03-22T09:04:17.955Z</time></trkpt><trkpt lat="40.6831692" lon="14.9318094"><ele>506.0</ele><time>2026-03-22T09:04:18.948Z</time></trkpt><trkpt lat="40.6831896" lon="14.9316762"><ele>506.0</ele><time>2026-03-22T09:04:19.945Z</time></trkpt><trkpt lat="40.6832293" lon="14.931528"><ele>506.0</ele><time>2026-03-22T09:04:20.946Z</time></trkpt><trkpt lat="40.6832756" lon="14.9313843"><ele>505.49999999999994</ele><time>2026-03-22T09:04:21.948Z</time></trkpt><trkpt lat="40.6832954" lon="14.9312784"><ele>505.0</ele><time>2026-03-22T09:04:23.026Z</time></trkpt><trkpt lat="40.683259" lon="14.9311391"><ele>504.5</ele><time>2026-03-22T09:04:24.96Z</time></trkpt><trkpt lat="40.6832086" lon="14.9310741"><ele>504.0</ele><time>2026-03-22T09:04:26.035Z</time></trkpt><trkpt lat="40.6831395" lon="14.9310036"><ele>503.49999999999994</ele><time>2026-03-22T09:04:26.956Z</time></trkpt><trkpt lat="40.6830907" lon="14.9309357"><ele>503.0</ele><time>2026-03-22T09:04:27.964Z</time></trkpt><trkpt lat="40.6830511" lon="14.930857"><ele>502.99999999999994</ele><time>2026-03-22T09:04:28.979Z</time></trkpt><trkpt lat="40.6829999" lon="14.9307682"><ele>503.0</ele><time>2026-03-22T09:04:29.949Z</time></trkpt><trkpt lat="40.6829419" lon="14.9306891"><ele>503.0</ele><time>2026-03-22T09:04:31.03Z</time></trkpt><trkpt lat="40.6828858" lon="14.9306213"><ele>503.0</ele><time>2026-03-22T09:04:31.956Z</time></trkpt><trkpt lat="40.682829" lon="14.9305648"><ele>502.99999999999994</ele><time>2026-03-22T09:04:33.022Z</time></trkpt><trkpt lat="40.6827702" lon="14.930514"><ele>503.0</ele><time>2026-03-22T09:04:34.028Z</time></trkpt><trkpt lat="40.6826756" lon="14.9304654"><ele>503.0</ele><time>2026-03-22T09:04:35.971Z</time></trkpt><trkpt lat="40.6826638" lon="14.9305675"><ele>502.99999999999994</ele><time>2026-03-22T09:04:40.96Z</time></trkpt><trkpt lat="40.68272" lon="14.9306761"><ele>502.99999999999994</ele><time>2026-03-22T09:04:41.959Z</time></trkpt><trkpt lat="40.6827868" lon="14.9308016"><ele>503.0</ele><time>2026-03-22T09:04:42.966Z</time></trkpt><trkpt lat="40.6828513" lon="14.9309386"><ele>503.0</ele><time>2026-03-22T09:04:43.946Z</time></trkpt><trkpt lat="40.6829039" lon="14.9310513"><ele>503.59999999999997</ele><time>2026-03-22T09:04:44.952Z</time></trkpt><trkpt lat="40.6829413" lon="14.931175"><ele>504.19999999999993</ele><time>2026-03-22T09:04:45.967Z</time></trkpt><trkpt lat="40.682962" lon="14.9313025"><ele>504.8</ele><time>2026-03-22T09:04:46.957Z</time></trkpt><trkpt lat="40.6829632" lon="14.9314241"><ele>505.4</ele><time>2026-03-22T09:04:47.969Z</time></trkpt><trkpt lat="40.6829446" lon="14.9315794"><ele>506.0</ele><time>2026-03-22T09:04:48.962Z</time></trkpt><trkpt lat="40.6829268" lon="14.931755"><ele>506.0</ele><time>2026-03-22T09:04:49.966Z</time></trkpt><trkpt lat="40.682917" lon="14.93192"><ele>506.0</ele><time>2026-03-22T09:04:50.964Z</time></trkpt><trkpt lat="40.6829243" lon="14.9320712"><ele>506.0</ele><time>2026-03-22T09:04:51.97Z</time></trkpt><trkpt lat="40.6829189" lon="14.9321884"><ele>506.0</ele><time>2026-03-22T09:04:52.97Z</time></trkpt><trkpt lat="40.6828827" lon="14.9322763"><ele>506.0</ele><time>2026-03-22T09:04:53.97Z</time></trkpt><trkpt lat="40.6828411" lon="14.9323594"><ele>506.0</ele><time>2026-03-22T09:04:54.961Z</time></trkpt><trkpt lat="40.6827872" lon="14.9324413"><ele>506.0</ele><time>2026-03-22T09:04:56.04Z</time></trkpt><trkpt lat="40.6827118" lon="14.9325247"><ele>506.0</ele><time>2026-03-22T09:04:56.948Z</time></trkpt><trkpt lat="40.6826317" lon="14.9326146"><ele>506.0</ele><time>2026-03-22T09:04:57.953Z</time></trkpt><trkpt lat="40.6825479" lon="14.9327052"><ele>506.0</ele><time>2026-03-22T09:04:58.961Z</time></trkpt><trkpt lat="40.6824576" lon="14.9327958"><ele>508.75</ele><time>2026-03-22T09:05:00.034Z</time></trkpt><trkpt lat="40.6823573" lon="14.9329037"><ele>511.5</ele><time>2026-03-22T09:05:00.958Z</time></trkpt><trkpt lat="40.6822536" lon="14.9330232"><ele>514.25</ele><time>2026-03-22T09:05:01.967Z</time></trkpt><trkpt lat="40.682164" lon="14.9331479"><ele>517.0</ele><time>2026-03-22T09:05:02.954Z</time></trkpt><trkpt lat="40.6820733" lon="14.9332584"><ele>517.0</ele><time>2026-03-22T09:05:04.04Z</time></trkpt><trkpt lat="40.6819615" lon="14.933375"><ele>517.0</ele><time>2026-03-22T09:05:05.025Z</time></trkpt><trkpt lat="40.6818548" lon="14.933497"><ele>517.0</ele><time>2026-03-22T09:05:06.034Z</time></trkpt><trkpt lat="40.6817603" lon="14.9336106"><ele>517.0</ele><time>2026-03-22T09:05:06.968Z</time></trkpt><trkpt lat="40.6816851" lon="14.9337211"><ele>518.8000000000001</ele><time>2026-03-22T09:05:07.982Z</time></trkpt><trkpt lat="40.6816415" lon="14.9338382"><ele>520.6</ele><time>2026-03-22T09:05:09.026Z</time></trkpt><trkpt lat="40.6816363" lon="14.9339687"><ele>522.4000000000001</ele><time>2026-03-22T09:05:10.031Z</time></trkpt><trkpt lat="40.6816572" lon="14.9341082"><ele>524.2</ele><time>2026-03-22T09:05:11.031Z</time></trkpt><trkpt lat="40.6816789" lon="14.9342569"><ele>526.0</ele><time>2026-03-22T09:05:11.959Z</time></trkpt><trkpt lat="40.6816833" lon="14.934371"><ele>526.0</ele><time>2026-03-22T09:05:12.964Z</time></trkpt><trkpt lat="40.6816797" lon="14.934501"><ele>526.0</ele><time>2026-03-22T09:05:15.034Z</time></trkpt><trkpt lat="40.6815965" lon="14.9344091"><ele>526.0</ele><time>2026-03-22T09:05:19.036Z</time></trkpt><trkpt lat="40.6815449" lon="14.9343497"><ele>526.0</ele><time>2026-03-22T09:05:20.035Z</time></trkpt><trkpt lat="40.6814956" lon="14.9342071"><ele>526.0</ele><time>2026-03-22T09:05:21.987Z</time></trkpt><trkpt lat="40.681506" lon="14.9340915"><ele>528.2</ele><time>2026-03-22T09:05:22.962Z</time></trkpt><trkpt lat="40.6815148" lon="14.9339747"><ele>530.4000000000001</ele><time>2026-03-22T09:05:23.959Z</time></trkpt><trkpt lat="40.6815256" lon="14.9338386"><ele>532.6</ele><time>2026-03-22T09:05:24.955Z</time></trkpt><trkpt lat="40.6815375" lon="14.9336931"><ele>534.8000000000001</ele><time>2026-03-22T09:05:25.966Z</time></trkpt><trkpt lat="40.6815502" lon="14.9335482"><ele>537.0</ele><time>2026-03-22T09:05:26.968Z</time></trkpt><trkpt lat="40.6815733" lon="14.9333926"><ele>540.25</ele><time>2026-03-22T09:05:27.979Z</time></trkpt><trkpt lat="40.6816149" lon="14.9332262"><ele>543.5</ele><time>2026-03-22T09:05:28.963Z</time></trkpt><trkpt lat="40.6816738" lon="14.9330808"><ele>546.75</ele><time>2026-03-22T09:05:30.037Z</time></trkpt><trkpt lat="40.6817366" lon="14.9329591"><ele>550.0</ele><time>2026-03-22T09:05:30.973Z</time></trkpt><trkpt lat="40.6818098" lon="14.932846"><ele>550.0</ele><time>2026-03-22T09:05:32.008Z</time></trkpt><trkpt lat="40.6818704" lon="14.9327416"><ele>550.0</ele><time>2026-03-22T09:05:32.964Z</time></trkpt><trkpt lat="40.6819218" lon="14.9326181"><ele>550.0</ele><time>2026-03-22T09:05:33.967Z</time></trkpt><trkpt lat="40.6819672" lon="14.9324798"><ele>550.0</ele><time>2026-03-22T09:05:34.974Z</time></trkpt><trkpt lat="40.682016" lon="14.9323336"><ele>550.0</ele><time>2026-03-22T09:05:36.036Z</time></trkpt><trkpt lat="40.6820533" lon="14.9321983"><ele>550.0</ele><time>2026-03-22T09:05:36.964Z</time></trkpt><trkpt lat="40.682093" lon="14.9321179"><ele>550.0</ele><time>2026-03-22T09:05:37.975Z</time></trkpt><trkpt lat="40.6821666" lon="14.9320077"><ele>550.0</ele><time>2026-03-22T09:05:40.04Z</time></trkpt><trkpt lat="40.6822244" lon="14.9318775"><ele>550.0</ele><time>2026-03-22T09:05:41.95Z</time></trkpt><trkpt lat="40.6822392" lon="14.9317776"><ele>550.0</ele><time>2026-03-22T09:05:43.957Z</time></trkpt><trkpt lat="40.6822702" lon="14.931672"><ele>550.0</ele><time>2026-03-22T09:05:45.955Z</time></trkpt><trkpt lat="40.6822813" lon="14.931585"><ele>550.0</ele><time>2026-03-22T09:05:46.953Z</time></trkpt><trkpt lat="40.6822953" lon="14.9314944"><ele>550.0</ele><time>2026-03-22T09:05:47.955Z</time></trkpt><trkpt lat="40.6823043" lon="14.9314049"><ele>550.0</ele><time>2026-03-22T09:05:48.977Z</time></trkpt><trkpt lat="40.6823135" lon="14.9313224"><ele>550.0</ele><time>2026-03-22T09:05:49.972Z</time></trkpt><trkpt lat="40.6823003" lon="14.9311689"><ele>550.0</ele><time>2026-03-22T09:05:51.953Z</time></trkpt><trkpt lat="40.6822124" lon="14.9310385"><ele>550.0</ele><time>2026-03-22T09:05:53.948Z</time></trkpt><trkpt lat="40.6821569" lon="14.930978"><ele>550.0</ele><time>2026-03-22T09:05:54.951Z</time></trkpt><trkpt lat="40.6821006" lon="14.9309362"><ele>550.0</ele><time>2026-03-22T09:05:55.949Z</time></trkpt><trkpt lat="40.6820395" lon="14.9309107"><ele>550.0</ele><time>2026-03-22T09:05:56.955Z</time></trkpt><trkpt lat="40.6819656" lon="14.9308855"><ele>550.0</ele><time>2026-03-22T09:05:58.042Z</time></trkpt><trkpt lat="40.6818799" lon="14.9308511"><ele>550.0</ele><time>2026-03-22T09:05:58.962Z</time></trkpt><trkpt lat="40.6817867" lon="14.930816"><ele>551.0</ele><time>2026-03-22T09:05:59.961Z</time></trkpt><trkpt lat="40.6817039" lon="14.9307601"><ele>552.0</ele><time>2026-03-22T09:06:00.971Z</time></trkpt><trkpt lat="40.6816533" lon="14.9306812"><ele>553.0</ele><time>2026-03-22T09:06:01.97Z</time></trkpt><trkpt lat="40.681624" lon="14.9305718"><ele>554.0</ele><time>2026-03-22T09:06:02.958Z</time></trkpt><trkpt lat="40.6815921" lon="14.9304692"><ele>555.0</ele><time>2026-03-22T09:06:04.042Z</time></trkpt><trkpt lat="40.6815527" lon="14.9303807"><ele>556.0</ele><time>2026-03-22T09:06:05.02Z</time></trkpt><trkpt lat="40.681495" lon="14.9302793"><ele>556.0</ele><time>2026-03-22T09:06:06.041Z</time></trkpt><trkpt lat="40.6814193" lon="14.930153"><ele>556.0</ele><time>2026-03-22T09:06:06.95Z</time></trkpt><trkpt lat="40.681355" lon="14.9300284"><ele>556.0</ele><time>2026-03-22T09:06:07.949Z</time></trkpt><trkpt lat="40.681292" lon="14.9299018"><ele>556.0</ele><time>2026-03-22T09:06:08.956Z</time></trkpt><trkpt lat="40.6812161" lon="14.9297712"><ele>556.8333333333334</ele><time>2026-03-22T09:06:10.007Z</time></trkpt><trkpt lat="40.6811504" lon="14.9296406"><ele>557.6666666666667</ele><time>2026-03-22T09:06:11.016Z</time></trkpt><trkpt lat="40.6810968" lon="14.9295452"><ele>558.5</ele><time>2026-03-22T09:06:11.956Z</time></trkpt><trkpt lat="40.681059" lon="14.9294555"><ele>559.3333333333334</ele><time>2026-03-22T09:06:12.958Z</time></trkpt><trkpt lat="40.6810328" lon="14.9293579"><ele>560.1666666666666</ele><time>2026-03-22T09:06:13.971Z</time></trkpt><trkpt lat="40.6810025" lon="14.9292817"><ele>561.0</ele><time>2026-03-22T09:06:14.951Z</time></trkpt><trkpt lat="40.6809626" lon="14.9292033"><ele>557.4</ele><time>2026-03-22T09:06:16.037Z</time></trkpt><trkpt lat="40.6809201" lon="14.9291255"><ele>553.8</ele><time>2026-03-22T09:06:16.96Z</time></trkpt><trkpt lat="40.6808907" lon="14.9289803"><ele>550.1999999999999</ele><time>2026-03-22T09:06:18.972Z</time></trkpt><trkpt lat="40.6808955" lon="14.9288559"><ele>546.6</ele><time>2026-03-22T09:06:21.031Z</time></trkpt><trkpt lat="40.6808654" lon="14.9287155"><ele>543.0</ele><time>2026-03-22T09:06:22.954Z</time></trkpt><trkpt lat="40.6808458" lon="14.9286105"><ele>543.0</ele><time>2026-03-22T09:06:23.96Z</time></trkpt><trkpt lat="40.6808177" lon="14.9284864"><ele>543.0</ele><time>2026-03-22T09:06:25.036Z</time></trkpt><trkpt lat="40.6807843" lon="14.9283751"><ele>543.0</ele><time>2026-03-22T09:06:26.039Z</time></trkpt><trkpt lat="40.6807695" lon="14.9282774"><ele>543.0</ele><time>2026-03-22T09:06:26.956Z</time></trkpt><trkpt lat="40.6807726" lon="14.9281921"><ele>543.0</ele><time>2026-03-22T09:06:27.953Z</time></trkpt><trkpt lat="40.6807738" lon="14.9281043"><ele>543.0</ele><time>2026-03-22T09:06:28.946Z</time></trkpt><trkpt lat="40.6807727" lon="14.9279882"><ele>540.8333333333334</ele><time>2026-03-22T09:06:29.962Z</time></trkpt><trkpt lat="40.6807732" lon="14.9278678"><ele>538.6666666666666</ele><time>2026-03-22T09:06:30.959Z</time></trkpt><trkpt lat="40.6807894" lon="14.927752"><ele>536.5</ele><time>2026-03-22T09:06:31.962Z</time></trkpt><trkpt lat="40.6808103" lon="14.9276399"><ele>534.3333333333333</ele><time>2026-03-22T09:06:32.959Z</time></trkpt><trkpt lat="40.6808312" lon="14.9275289"><ele>532.1666666666666</ele><time>2026-03-22T09:06:33.967Z</time></trkpt><trkpt lat="40.6808568" lon="14.927434"><ele>530.0</ele><time>2026-03-22T09:06:34.961Z</time></trkpt><trkpt lat="40.6808728" lon="14.9272951"><ele>529.9999999999999</ele><time>2026-03-22T09:06:36.969Z</time></trkpt><trkpt lat="40.6808103" lon="14.9272532"><ele>530.0</ele><time>2026-03-22T09:06:39.964Z</time></trkpt><trkpt lat="40.6807533" lon="14.92731"><ele>530.0</ele><time>2026-03-22T09:06:41.963Z</time></trkpt><trkpt lat="40.6807159" lon="14.9274172"><ele>530.0</ele><time>2026-03-22T09:06:43.961Z</time></trkpt><trkpt lat="40.6807008" lon="14.9275003"><ele>530.0</ele><time>2026-03-22T09:06:44.964Z</time></trkpt><trkpt lat="40.6806828" lon="14.9275914"><ele>529.9999999999999</ele><time>2026-03-22T09:06:45.982Z</time></trkpt><trkpt lat="40.6806828" lon="14.9276971"><ele>530.0</ele><time>2026-03-22T09:06:46.958Z</time></trkpt><trkpt lat="40.6807015" lon="14.9278374"><ele>530.0</ele><time>2026-03-22T09:06:47.956Z</time></trkpt><trkpt lat="40.680714" lon="14.9279466"><ele>530.0</ele><time>2026-03-22T09:06:48.962Z</time></trkpt><trkpt lat="40.6807198" lon="14.9280345"><ele>530.0</ele><time>2026-03-22T09:06:50.013Z</time></trkpt><trkpt lat="40.6807126" lon="14.9281271"><ele>530.0</ele><time>2026-03-22T09:06:51.017Z</time></trkpt><trkpt lat="40.680695" lon="14.9282228"><ele>530.0</ele><time>2026-03-22T09:06:51.954Z</time></trkpt><trkpt lat="40.6806842" lon="14.9283337"><ele>530.0</ele><time>2026-03-22T09:06:52.962Z</time></trkpt><trkpt lat="40.6806782" lon="14.928425"><ele>532.6</ele><time>2026-03-22T09:06:54.049Z</time></trkpt><trkpt lat="40.680668" lon="14.9285123"><ele>535.2</ele><time>2026-03-22T09:06:54.961Z</time></trkpt><trkpt lat="40.680679" lon="14.9286523"><ele>537.8</ele><time>2026-03-22T09:06:56.957Z</time></trkpt><trkpt lat="40.6807281" lon="14.928777"><ele>540.4</ele><time>2026-03-22T09:06:58.964Z</time></trkpt><trkpt lat="40.6807753" lon="14.9288971"><ele>543.0</ele><time>2026-03-22T09:07:01.953Z</time></trkpt><trkpt lat="40.6808051" lon="14.9289789"><ele>543.0</ele><time>2026-03-22T09:07:03.04Z</time></trkpt><trkpt lat="40.6808241" lon="14.9290887"><ele>543.0</ele><time>2026-03-22T09:07:04.954Z</time></trkpt><trkpt lat="40.6807895" lon="14.9291719"><ele>543.0</ele><time>2026-03-22T09:07:06.957Z</time></trkpt><trkpt lat="40.6807401" lon="14.9293129"><ele>543.0</ele><time>2026-03-22T09:07:08.962Z</time></trkpt><trkpt lat="40.6806933" lon="14.9294274"><ele>543.0</ele><time>2026-03-22T09:07:10.962Z</time></trkpt><trkpt lat="40.6807231" lon="14.9295116"><ele>543.0</ele><time>2026-03-22T09:07:12.948Z</time></trkpt><trkpt lat="40.6807636" lon="14.9295871"><ele>546.6</ele><time>2026-03-22T09:07:13.949Z</time></trkpt><trkpt lat="40.6807937" lon="14.9297176"><ele>550.1999999999999</ele><time>2026-03-22T09:07:15.956Z</time></trkpt><trkpt lat="40.6807661" lon="14.929828"><ele>553.8</ele><time>2026-03-22T09:07:17.959Z</time></trkpt><trkpt lat="40.6807224" lon="14.9299007"><ele>557.4</ele><time>2026-03-22T09:07:18.962Z</time></trkpt><trkpt lat="40.6807003" lon="14.930053"><ele>561.0</ele><time>2026-03-22T09:07:21.046Z</time></trkpt><trkpt lat="40.6806924" lon="14.9301452"><ele>564.0</ele><time>2026-03-22T09:07:21.961Z</time></trkpt><trkpt lat="40.6806699" lon="14.930307"><ele>567.0</ele><time>2026-03-22T09:07:23.965Z</time></trkpt><trkpt lat="40.6806632" lon="14.9303957"><ele>570.0</ele><time>2026-03-22T09:07:24.963Z</time></trkpt><trkpt lat="40.6806713" lon="14.9304819"><ele>573.0</ele><time>2026-03-22T09:07:25.955Z</time></trkpt><trkpt lat="40.6806937" lon="14.9305656"><ele>576.0</ele><time>2026-03-22T09:07:26.957Z</time></trkpt><trkpt lat="40.6807222" lon="14.9306467"><ele>579.0</ele><time>2026-03-22T09:07:27.961Z</time></trkpt><trkpt lat="40.680697" lon="14.930806"><ele>580.6666666666666</ele><time>2026-03-22T09:07:30.037Z</time></trkpt><trkpt lat="40.68066" lon="14.9309542"><ele>582.3333333333334</ele><time>2026-03-22T09:07:31.971Z</time></trkpt><trkpt lat="40.680634" lon="14.931031"><ele>584.0</ele><time>2026-03-22T09:07:32.97Z</time></trkpt><trkpt lat="40.6806146" lon="14.9311207"><ele>585.6666666666667</ele><time>2026-03-22T09:07:34Z</time></trkpt><trkpt lat="40.6805809" lon="14.9312146"><ele>587.3333333333334</ele><time>2026-03-22T09:07:34.97Z</time></trkpt><trkpt lat="40.6805672" lon="14.931319"><ele>589.0</ele><time>2026-03-22T09:07:35.959Z</time></trkpt><trkpt lat="40.6805747" lon="14.931426"><ele>589.0</ele><time>2026-03-22T09:07:36.961Z</time></trkpt><trkpt lat="40.6806269" lon="14.9315311"><ele>589.0</ele><time>2026-03-22T09:07:37.995Z</time></trkpt><trkpt lat="40.6807063" lon="14.9316376"><ele>589.0</ele><time>2026-03-22T09:07:38.976Z</time></trkpt><trkpt lat="40.6807941" lon="14.9317733"><ele>589.0</ele><time>2026-03-22T09:07:39.967Z</time></trkpt><trkpt lat="40.6808729" lon="14.9318922"><ele>587.1666666666667</ele><time>2026-03-22T09:07:41.04Z</time></trkpt><trkpt lat="40.6809333" lon="14.9320115"><ele>585.3333333333334</ele><time>2026-03-22T09:07:41.97Z</time></trkpt><trkpt lat="40.6809888" lon="14.9321063"><ele>583.5</ele><time>2026-03-22T09:07:43.032Z</time></trkpt><trkpt lat="40.6810511" lon="14.9321713"><ele>581.6666666666666</ele><time>2026-03-22T09:07:43.974Z</time></trkpt><trkpt lat="40.6811177" lon="14.9322126"><ele>579.8333333333333</ele><time>2026-03-22T09:07:44.965Z</time></trkpt><trkpt lat="40.6811807" lon="14.9322456"><ele>578.0</ele><time>2026-03-22T09:07:45.955Z</time></trkpt><trkpt lat="40.6812285" lon="14.9323189"><ele>577.0</ele><time>2026-03-22T09:07:48.059Z</time></trkpt><trkpt lat="40.681193" lon="14.9324011"><ele>576.0</ele><time>2026-03-22T09:07:50.954Z</time></trkpt><trkpt lat="40.6811805" lon="14.9325131"><ele>575.0</ele><time>2026-03-22T09:07:53.97Z</time></trkpt><trkpt lat="40.6811795" lon="14.9326016"><ele>574.0</ele><time>2026-03-22T09:07:56.973Z</time></trkpt><trkpt lat="40.6811817" lon="14.932715"><ele>573.0</ele><time>2026-03-22T09:08:00.041Z</time></trkpt><trkpt lat="40.681183" lon="14.9328011"><ele>572.0</ele><time>2026-03-22T09:08:01.969Z</time></trkpt><trkpt lat="40.681173" lon="14.9329028"><ele>567.6</ele><time>2026-03-22T09:08:03.964Z</time></trkpt><trkpt lat="40.6811482" lon="14.9330123"><ele>563.2</ele><time>2026-03-22T09:08:05.971Z</time></trkpt><trkpt lat="40.681135" lon="14.9331507"><ele>558.8</ele><time>2026-03-22T09:08:08.972Z</time></trkpt><trkpt lat="40.6811283" lon="14.9332512"><ele>554.4</ele><time>2026-03-22T09:08:11.034Z</time></trkpt><trkpt lat="40.6811278" lon="14.9333812"><ele>550.0</ele><time>2026-03-22T09:08:12.969Z</time></trkpt><trkpt lat="40.6811262" lon="14.9335324"><ele>547.8333333333334</ele><time>2026-03-22T09:08:14.962Z</time></trkpt><trkpt lat="40.6811316" lon="14.9336231"><ele>545.6666666666667</ele><time>2026-03-22T09:08:15.955Z</time></trkpt><trkpt lat="40.6811522" lon="14.933726"><ele>543.5</ele><time>2026-03-22T09:08:16.974Z</time></trkpt><trkpt lat="40.6811798" lon="14.9338051"><ele>541.3333333333334</ele><time>2026-03-22T09:08:17.957Z</time></trkpt><trkpt lat="40.6812525" lon="14.9339352"><ele>539.1666666666666</ele><time>2026-03-22T09:08:20.027Z</time></trkpt><trkpt lat="40.6812937" lon="14.9340277"><ele>537.0</ele><time>2026-03-22T09:08:21.026Z</time></trkpt><trkpt lat="40.6813349" lon="14.9341082"><ele>536.9999999999999</ele><time>2026-03-22T09:08:21.966Z</time></trkpt><trkpt lat="40.6813733" lon="14.9341843"><ele>537.0</ele><time>2026-03-22T09:08:22.955Z</time></trkpt><trkpt lat="40.6814122" lon="14.9342664"><ele>537.0</ele><time>2026-03-22T09:08:23.965Z</time></trkpt><trkpt lat="40.6814494" lon="14.9343404"><ele>537.0</ele><time>2026-03-22T09:08:24.972Z</time></trkpt><trkpt lat="40.6814957" lon="14.9344141"><ele>537.0</ele><time>2026-03-22T09:08:25.966Z</time></trkpt><trkpt lat="40.6815453" lon="14.9345018"><ele>536.9999999999999</ele><time>2026-03-22T09:08:26.952Z</time></trkpt><trkpt lat="40.6815849" lon="14.9345888"><ele>537.0</ele><time>2026-03-22T09:08:27.969Z</time></trkpt><trkpt lat="40.6816254" lon="14.9346747"><ele>535.1666666666666</ele><time>2026-03-22T09:08:29.025Z</time></trkpt><trkpt lat="40.6816544" lon="14.9347612"><ele>533.3333333333334</ele><time>2026-03-22T09:08:30.028Z</time></trkpt><trkpt lat="40.6816764" lon="14.9348409"><ele>531.5</ele><time>2026-03-22T09:08:30.967Z</time></trkpt><trkpt lat="40.6817435" lon="14.934968"><ele>529.6666666666667</ele><time>2026-03-22T09:08:32.969Z</time></trkpt><trkpt lat="40.6817898" lon="14.9350936"><ele>527.8333333333334</ele><time>2026-03-22T09:08:34.97Z</time></trkpt><trkpt lat="40.6818312" lon="14.9351886"><ele>526.0</ele><time>2026-03-22T09:08:35.956Z</time></trkpt><trkpt lat="40.6818811" lon="14.935283"><ele>524.0</ele><time>2026-03-22T09:08:36.968Z</time></trkpt><trkpt lat="40.6819589" lon="14.9354127"><ele>522.0</ele><time>2026-03-22T09:08:37.954Z</time></trkpt><trkpt lat="40.6820299" lon="14.935521"><ele>520.0</ele><time>2026-03-22T09:08:38.962Z</time></trkpt><trkpt lat="40.6820969" lon="14.9355986"><ele>518.0</ele><time>2026-03-22T09:08:39.968Z</time></trkpt><trkpt lat="40.6821711" lon="14.935676"><ele>516.0</ele><time>2026-03-22T09:08:40.966Z</time></trkpt><trkpt lat="40.6822548" lon="14.9357432"><ele>516.0</ele><time>2026-03-22T09:08:41.961Z</time></trkpt><trkpt lat="40.6823411" lon="14.9358271"><ele>516.0</ele><time>2026-03-22T09:08:42.968Z</time></trkpt><trkpt lat="40.6824278" lon="14.9359263"><ele>516.0</ele><time>2026-03-22T09:08:43.969Z</time></trkpt><trkpt lat="40.6825035" lon="14.9360166"><ele>516.0</ele><time>2026-03-22T09:08:44.965Z</time></trkpt><trkpt lat="40.6825679" lon="14.9360915"><ele>516.0</ele><time>2026-03-22T09:08:45.963Z</time></trkpt><trkpt lat="40.6826862" lon="14.9361299"><ele>516.0</ele><time>2026-03-22T09:08:47.973Z</time></trkpt><trkpt lat="40.6827501" lon="14.9361325"><ele>516.0</ele><time>2026-03-22T09:08:49.97Z</time></trkpt><trkpt lat="40.6828607" lon="14.9360915"><ele>516.0</ele><time>2026-03-22T09:11:40.959Z</time></trkpt><trkpt lat="40.6829494" lon="14.9360205"><ele>516.0</ele><time>2026-03-22T09:11:41.96Z</time></trkpt><trkpt lat="40.683046" lon="14.9359472"><ele>516.0</ele><time>2026-03-22T09:11:42.956Z</time></trkpt><trkpt lat="40.68313" lon="14.9358776"><ele>515.1666666666666</ele><time>2026-03-22T09:11:43.955Z</time></trkpt><trkpt lat="40.6831925" lon="14.9358097"><ele>514.3333333333334</ele><time>2026-03-22T09:11:44.96Z</time></trkpt><trkpt lat="40.6832492" lon="14.9357707"><ele>513.5</ele><time>2026-03-22T09:11:45.955Z</time></trkpt><trkpt lat="40.6833052" lon="14.9357309"><ele>512.6666666666667</ele><time>2026-03-22T09:11:46.966Z</time></trkpt><trkpt lat="40.6833588" lon="14.9356615"><ele>511.83333333333337</ele><time>2026-03-22T09:11:48.944Z</time></trkpt><trkpt lat="40.6833615" lon="14.9355382"><ele>511.0</ele><time>2026-03-22T09:11:50.955Z</time></trkpt><trkpt lat="40.6833695" lon="14.9354015"><ele>511.0</ele><time>2026-03-22T09:11:52.938Z</time></trkpt><trkpt lat="40.6833895" lon="14.9352642"><ele>511.0</ele><time>2026-03-22T09:11:54.961Z</time></trkpt><trkpt lat="40.6834226" lon="14.9351885"><ele>511.0</ele><time>2026-03-22T09:11:55.962Z</time></trkpt><trkpt lat="40.6834537" lon="14.935115"><ele>511.0</ele><time>2026-03-22T09:11:56.956Z</time></trkpt><trkpt lat="40.6834922" lon="14.9350425"><ele>511.0</ele><time>2026-03-22T09:11:57.957Z</time></trkpt><trkpt lat="40.6835329" lon="14.9349688"><ele>511.0</ele><time>2026-03-22T09:11:58.955Z</time></trkpt><trkpt lat="40.6835761" lon="14.9349016"><ele>511.0</ele><time>2026-03-22T09:11:59.949Z</time></trkpt><trkpt lat="40.6836228" lon="14.9348249"><ele>503.1666666666667</ele><time>2026-03-22T09:12:00.958Z</time></trkpt><trkpt lat="40.6836603" lon="14.9347491"><ele>495.33333333333337</ele><time>2026-03-22T09:12:01.955Z</time></trkpt><trkpt lat="40.683727" lon="14.9346388"><ele>487.5</ele><time>2026-03-22T09:12:03.954Z</time></trkpt><trkpt lat="40.6838068" lon="14.934561"><ele>479.66666666666663</ele><time>2026-03-22T09:12:05.959Z</time></trkpt><trkpt lat="40.6838821" lon="14.9345467"><ele>471.8333333333333</ele><time>2026-03-22T09:12:07.958Z</time></trkpt><trkpt lat="40.6839149" lon="14.9344365"><ele>464.0</ele><time>2026-03-22T09:12:10.954Z</time></trkpt><trkpt lat="40.6838899" lon="14.9343396"><ele>464.0</ele><time>2026-03-22T09:12:12.959Z</time></trkpt><trkpt lat="40.68382" lon="14.9342503"><ele>464.0</ele><time>2026-03-22T09:12:15.957Z</time></trkpt><trkpt lat="40.6837717" lon="14.9341893"><ele>464.0</ele><time>2026-03-22T09:12:17.957Z</time></trkpt><trkpt lat="40.6836585" lon="14.9341261"><ele>464.0</ele><time>2026-03-22T09:12:20.955Z</time></trkpt><trkpt lat="40.683576" lon="14.9340179"><ele>464.0</ele><time>2026-03-22T09:12:22.952Z</time></trkpt><trkpt lat="40.6835485" lon="14.9338645"><ele>461.79999999999995</ele><time>2026-03-22T09:12:24.949Z</time></trkpt><trkpt lat="40.6835719" lon="14.933738"><ele>459.59999999999997</ele><time>2026-03-22T09:12:26.95Z</time></trkpt><trkpt lat="40.6836419" lon="14.9336351"><ele>457.4</ele><time>2026-03-22T09:12:28.954Z</time></trkpt><trkpt lat="40.6837318" lon="14.9335545"><ele>455.2</ele><time>2026-03-22T09:12:30.954Z</time></trkpt><trkpt lat="40.6837862" lon="14.9335122"><ele>453.0</ele><time>2026-03-22T09:12:31.952Z</time></trkpt><trkpt lat="40.6838846" lon="14.933432"><ele>452.0</ele><time>2026-03-22T09:12:33.952Z</time></trkpt><trkpt lat="40.6839781" lon="14.9333245"><ele>450.99999999999994</ele><time>2026-03-22T09:12:35.949Z</time></trkpt><trkpt lat="40.6840451" lon="14.9332368"><ele>449.99999999999994</ele><time>2026-03-22T09:12:36.957Z</time></trkpt><trkpt lat="40.6841101" lon="14.9331512"><ele>449.0</ele><time>2026-03-22T09:12:37.957Z</time></trkpt><trkpt lat="40.6841776" lon="14.9330488"><ele>448.0</ele><time>2026-03-22T09:12:38.957Z</time></trkpt><trkpt lat="40.6842498" lon="14.9329624"><ele>448.00000000000006</ele><time>2026-03-22T09:12:39.954Z</time></trkpt><trkpt lat="40.68432" lon="14.9329078"><ele>448.0</ele><time>2026-03-22T09:12:40.95Z</time></trkpt><trkpt lat="40.6843798" lon="14.9328351"><ele>448.0</ele><time>2026-03-22T09:12:41.953Z</time></trkpt><trkpt lat="40.684409" lon="14.9327381"><ele>448.0</ele><time>2026-03-22T09:12:42.955Z</time></trkpt><trkpt lat="40.6844297" lon="14.9326229"><ele>448.00000000000006</ele><time>2026-03-22T09:12:43.963Z</time></trkpt><trkpt lat="40.684445" lon="14.9325072"><ele>448.0</ele><time>2026-03-22T09:12:45.029Z</time></trkpt><trkpt lat="40.6843956" lon="14.9323742"><ele>449.0</ele><time>2026-03-22T09:12:46.036Z</time></trkpt><trkpt lat="40.6843189" lon="14.9322493"><ele>449.99999999999994</ele><time>2026-03-22T09:12:46.97Z</time></trkpt><trkpt lat="40.684232" lon="14.9321334"><ele>450.99999999999994</ele><time>2026-03-22T09:12:47.987Z</time></trkpt><trkpt lat="40.6841595" lon="14.9320553"><ele>452.0</ele><time>2026-03-22T09:12:49.026Z</time></trkpt><trkpt lat="40.6840959" lon="14.9319967"><ele>453.0</ele><time>2026-03-22T09:12:50.041Z</time></trkpt><trkpt lat="40.6840323" lon="14.9318288"><ele>454.4</ele><time>2026-03-22T09:12:51.95Z</time></trkpt><trkpt lat="40.6840431" lon="14.9316842"><ele>455.79999999999995</ele><time>2026-03-22T09:12:53.038Z</time></trkpt><trkpt lat="40.6840742" lon="14.9315727"><ele>457.2</ele><time>2026-03-22T09:12:53.942Z</time></trkpt><trkpt lat="40.6841369" lon="14.9314645"><ele>458.6</ele><time>2026-03-22T09:12:55.027Z</time></trkpt><trkpt lat="40.6841934" lon="14.9313561"><ele>460.0</ele><time>2026-03-22T09:12:56.03Z</time></trkpt><trkpt lat="40.6842324" lon="14.9312661"><ele>460.0</ele><time>2026-03-22T09:12:56.957Z</time></trkpt><trkpt lat="40.6842518" lon="14.9311838"><ele>460.0</ele><time>2026-03-22T09:12:57.965Z</time></trkpt><trkpt lat="40.6842552" lon="14.9310886"><ele>460.0</ele><time>2026-03-22T09:12:58.958Z</time></trkpt><trkpt lat="40.6841731" lon="14.9309829"><ele>460.0</ele><time>2026-03-22T09:13:00.959Z</time></trkpt><trkpt lat="40.6840788" lon="14.9310552"><ele>460.0</ele><time>2026-03-22T09:13:02.963Z</time></trkpt><trkpt lat="40.6839942" lon="14.9311811"><ele>460.0</ele><time>2026-03-22T09:13:04.956Z</time></trkpt><trkpt lat="40.6839436" lon="14.9312613"><ele>460.0</ele><time>2026-03-22T09:13:05.957Z</time></trkpt><trkpt lat="40.6838977" lon="14.9313463"><ele>460.0</ele><time>2026-03-22T09:13:06.964Z</time></trkpt><trkpt lat="40.6838641" lon="14.9314467"><ele>460.0</ele><time>2026-03-22T09:13:07.954Z</time></trkpt><trkpt lat="40.6838188" lon="14.9315851"><ele>460.0</ele><time>2026-03-22T09:13:08.968Z</time></trkpt><trkpt lat="40.6837608" lon="14.9317399"><ele>458.6</ele><time>2026-03-22T09:13:09.953Z</time></trkpt><trkpt lat="40.6837032" lon="14.9318885"><ele>457.2</ele><time>2026-03-22T09:13:10.956Z</time></trkpt><trkpt lat="40.6836657" lon="14.9319878"><ele>455.79999999999995</ele><time>2026-03-22T09:13:11.939Z</time></trkpt><trkpt lat="40.6836383" lon="14.9321433"><ele>454.4</ele><time>2026-03-22T09:13:13.95Z</time></trkpt><trkpt lat="40.6836336" lon="14.9322473"><ele>453.0</ele><time>2026-03-22T09:13:14.951Z</time></trkpt><trkpt lat="40.6836308" lon="14.9323521"><ele>453.0</ele><time>2026-03-22T09:13:15.96Z</time></trkpt><trkpt lat="40.6836207" lon="14.9324483"><ele>453.0</ele><time>2026-03-22T09:13:16.958Z</time></trkpt><trkpt lat="40.6835804" lon="14.9325327"><ele>453.0</ele><time>2026-03-22T09:13:18.959Z</time></trkpt><trkpt lat="40.6835078" lon="14.9324367"><ele>453.0</ele><time>2026-03-22T09:13:21.952Z</time></trkpt><trkpt lat="40.6834207" lon="14.9323213"><ele>453.0</ele><time>2026-03-22T09:13:24.027Z</time></trkpt><trkpt lat="40.6833659" lon="14.9322628"><ele>453.0</ele><time>2026-03-22T09:13:25.01Z</time></trkpt><trkpt lat="40.6832976" lon="14.9321705"><ele>461.8333333333333</ele><time>2026-03-22T09:13:25.956Z</time></trkpt><trkpt lat="40.6832235" lon="14.9320606"><ele>470.66666666666663</ele><time>2026-03-22T09:13:26.949Z</time></trkpt><trkpt lat="40.6831707" lon="14.9319649"><ele>479.5</ele><time>2026-03-22T09:13:27.959Z</time></trkpt><trkpt lat="40.6831465" lon="14.9318631"><ele>488.3333333333333</ele><time>2026-03-22T09:13:28.958Z</time></trkpt><trkpt lat="40.6831248" lon="14.9317785"><ele>497.16666666666663</ele><time>2026-03-22T09:13:29.96Z</time></trkpt><trkpt lat="40.6831315" lon="14.9316728"><ele>506.0</ele><time>2026-03-22T09:13:30.958Z</time></trkpt><trkpt lat="40.6831565" lon="14.9315367"><ele>507.4</ele><time>2026-03-22T09:13:31.952Z</time></trkpt><trkpt lat="40.6832068" lon="14.9314229"><ele>508.8</ele><time>2026-03-22T09:13:32.955Z</time></trkpt><trkpt lat="40.6832605" lon="14.9313133"><ele>510.19999999999993</ele><time>2026-03-22T09:13:34.019Z</time></trkpt><trkpt lat="40.6832818" lon="14.9312128"><ele>511.59999999999997</ele><time>2026-03-22T09:13:34.956Z</time></trkpt><trkpt lat="40.683219" lon="14.9310775"><ele>513.0</ele><time>2026-03-22T09:13:36.953Z</time></trkpt><trkpt lat="40.6831434" lon="14.9309953"><ele>513.0</ele><time>2026-03-22T09:13:37.957Z</time></trkpt><trkpt lat="40.6830695" lon="14.9309106"><ele>513.0</ele><time>2026-03-22T09:13:38.951Z</time></trkpt><trkpt lat="40.6830071" lon="14.9308185"><ele>513.0</ele><time>2026-03-22T09:13:40.027Z</time></trkpt><trkpt lat="40.6829465" lon="14.9307426"><ele>513.0</ele><time>2026-03-22T09:13:41.035Z</time></trkpt><trkpt lat="40.6828737" lon="14.930666"><ele>513.0</ele><time>2026-03-22T09:13:41.964Z</time></trkpt><trkpt lat="40.6827896" lon="14.9305887"><ele>517.6</ele><time>2026-03-22T09:13:42.948Z</time></trkpt><trkpt lat="40.6827019" lon="14.930533"><ele>522.1999999999999</ele><time>2026-03-22T09:13:43.972Z</time></trkpt><trkpt lat="40.6826301" lon="14.9304829"><ele>526.8</ele><time>2026-03-22T09:13:44.979Z</time></trkpt><trkpt lat="40.6825666" lon="14.9304353"><ele>531.4</ele><time>2026-03-22T09:13:46.952Z</time></trkpt><trkpt lat="40.6826375" lon="14.9305829"><ele>536.0</ele><time>2026-03-22T09:13:50.964Z</time></trkpt><trkpt lat="40.6826976" lon="14.9306884"><ele>536.0</ele><time>2026-03-22T09:13:51.954Z</time></trkpt><trkpt lat="40.6827575" lon="14.9308111"><ele>536.0</ele><time>2026-03-22T09:13:52.954Z</time></trkpt><trkpt lat="40.6828267" lon="14.9309563"><ele>536.0</ele><time>2026-03-22T09:13:53.987Z</time></trkpt><trkpt lat="40.6828985" lon="14.9310914"><ele>536.0</ele><time>2026-03-22T09:13:54.961Z</time></trkpt><trkpt lat="40.6829369" lon="14.9312073"><ele>531.4</ele><time>2026-03-22T09:13:55.955Z</time></trkpt><trkpt lat="40.6829513" lon="14.9313193"><ele>526.8</ele><time>2026-03-22T09:13:56.954Z</time></trkpt><trkpt lat="40.6829481" lon="14.9314211"><ele>522.1999999999999</ele><time>2026-03-22T09:13:57.963Z</time></trkpt><trkpt lat="40.6829314" lon="14.931545"><ele>517.6</ele><time>2026-03-22T09:13:58.96Z</time></trkpt><trkpt lat="40.682903" lon="14.9316975"><ele>513.0</ele><time>2026-03-22T09:13:59.969Z</time></trkpt><trkpt lat="40.6828949" lon="14.931863"><ele>511.8333333333333</ele><time>2026-03-22T09:14:00.957Z</time></trkpt><trkpt lat="40.682891" lon="14.9320231"><ele>510.66666666666663</ele><time>2026-03-22T09:14:01.982Z</time></trkpt><trkpt lat="40.6828927" lon="14.9321608"><ele>509.5</ele><time>2026-03-22T09:14:02.956Z</time></trkpt><trkpt lat="40.6828908" lon="14.9322667"><ele>508.3333333333333</ele><time>2026-03-22T09:14:03.965Z</time></trkpt><trkpt lat="40.6828905" lon="14.9323514"><ele>507.16666666666663</ele><time>2026-03-22T09:14:04.952Z</time></trkpt><trkpt lat="40.6828638" lon="14.9324378"><ele>506.0</ele><time>2026-03-22T09:14:05.96Z</time></trkpt><trkpt lat="40.6828205" lon="14.9325151"><ele>508.75</ele><time>2026-03-22T09:14:06.96Z</time></trkpt><trkpt lat="40.6827533" lon="14.9325908"><ele>511.5</ele><time>2026-03-22T09:14:07.972Z</time></trkpt><trkpt lat="40.6826577" lon="14.9326597"><ele>514.25</ele><time>2026-03-22T09:14:09.028Z</time></trkpt><trkpt lat="40.6825582" lon="14.9327457"><ele>517.0</ele><time>2026-03-22T09:14:10.027Z</time></trkpt><trkpt lat="40.6824448" lon="14.932857"><ele>517.0</ele><time>2026-03-22T09:14:11.012Z</time></trkpt><trkpt lat="40.6823293" lon="14.9329591"><ele>517.0</ele><time>2026-03-22T09:14:11.968Z</time></trkpt><trkpt lat="40.6822073" lon="14.9330823"><ele>517.0</ele><time>2026-03-22T09:14:13.025Z</time></trkpt><trkpt lat="40.6820806" lon="14.9332065"><ele>517.0</ele><time>2026-03-22T09:14:13.942Z</time></trkpt><trkpt lat="40.6819731" lon="14.9333357"><ele>517.0</ele><time>2026-03-22T09:14:15.022Z</time></trkpt><trkpt lat="40.6818714" lon="14.933459"><ele>517.0</ele><time>2026-03-22T09:14:15.957Z</time></trkpt><trkpt lat="40.681784" lon="14.9336086"><ele>517.0</ele><time>2026-03-22T09:14:16.958Z</time></trkpt><trkpt lat="40.6817053" lon="14.9337568"><ele>518.8000000000001</ele><time>2026-03-22T09:14:17.956Z</time></trkpt><trkpt lat="40.6816695" lon="14.9339029"><ele>520.6</ele><time>2026-03-22T09:14:19.017Z</time></trkpt><trkpt lat="40.6816795" lon="14.934035"><ele>522.4000000000001</ele><time>2026-03-22T09:14:20.027Z</time></trkpt><trkpt lat="40.6816845" lon="14.9341676"><ele>524.2</ele><time>2026-03-22T09:14:21.017Z</time></trkpt><trkpt lat="40.6816864" lon="14.9342928"><ele>526.0</ele><time>2026-03-22T09:14:21.953Z</time></trkpt><trkpt lat="40.681686" lon="14.9344213"><ele>526.0</ele><time>2026-03-22T09:14:22.957Z</time></trkpt><trkpt lat="40.6816874" lon="14.9345455"><ele>526.0</ele><time>2026-03-22T09:14:25.963Z</time></trkpt><trkpt lat="40.681612" lon="14.9344333"><ele>526.0</ele><time>2026-03-22T09:14:27.958Z</time></trkpt><trkpt lat="40.6815529" lon="14.9343618"><ele>526.0</ele><time>2026-03-22T09:14:29.03Z</time></trkpt><trkpt lat="40.6815081" lon="14.9342945"><ele>526.0</ele><time>2026-03-22T09:14:30.027Z</time></trkpt><trkpt lat="40.6814557" lon="14.9341707"><ele>528.2</ele><time>2026-03-22T09:14:31.959Z</time></trkpt><trkpt lat="40.6814516" lon="14.9340553"><ele>530.4000000000001</ele><time>2026-03-22T09:14:32.952Z</time></trkpt><trkpt lat="40.6814582" lon="14.9339223"><ele>532.6</ele><time>2026-03-22T09:14:33.952Z</time></trkpt><trkpt lat="40.681475" lon="14.9337789"><ele>534.8000000000001</ele><time>2026-03-22T09:14:34.955Z</time></trkpt><trkpt lat="40.6815019" lon="14.9336158"><ele>537.0</ele><time>2026-03-22T09:14:35.96Z</time></trkpt><trkpt lat="40.6815232" lon="14.933462"><ele>540.25</ele><time>2026-03-22T09:14:36.966Z</time></trkpt><trkpt lat="40.6815647" lon="14.93332"><ele>543.5</ele><time>2026-03-22T09:14:38.027Z</time></trkpt><trkpt lat="40.6816251" lon="14.9331814"><ele>546.75</ele><time>2026-03-22T09:14:38.999Z</time></trkpt><trkpt lat="40.6816897" lon="14.9330554"><ele>550.0</ele><time>2026-03-22T09:14:40.03Z</time></trkpt><trkpt lat="40.6817472" lon="14.9329431"><ele>550.0</ele><time>2026-03-22T09:14:40.959Z</time></trkpt><trkpt lat="40.6818009" lon="14.9328361"><ele>550.0</ele><time>2026-03-22T09:14:41.96Z</time></trkpt><trkpt lat="40.6818542" lon="14.9327178"><ele>550.0</ele><time>2026-03-22T09:14:42.964Z</time></trkpt><trkpt lat="40.6819116" lon="14.9325981"><ele>550.0</ele><time>2026-03-22T09:14:43.968Z</time></trkpt><trkpt lat="40.6819611" lon="14.9324786"><ele>550.0</ele><time>2026-03-22T09:14:44.964Z</time></trkpt><trkpt lat="40.6820069" lon="14.9323445"><ele>548.2</ele><time>2026-03-22T09:14:46.017Z</time></trkpt><trkpt lat="40.6820619" lon="14.9322028"><ele>546.4</ele><time>2026-03-22T09:14:46.945Z</time></trkpt><trkpt lat="40.6821147" lon="14.9320989"><ele>544.6</ele><time>2026-03-22T09:14:48.029Z</time></trkpt><trkpt lat="40.6821719" lon="14.9320169"><ele>542.8</ele><time>2026-03-22T09:14:49.034Z</time></trkpt><trkpt lat="40.6822234" lon="14.9319223"><ele>541.0</ele><time>2026-03-22T09:14:50.03Z</time></trkpt><trkpt lat="40.6822578" lon="14.9317295"><ele>542.8</ele><time>2026-03-22T09:14:51.952Z</time></trkpt><trkpt lat="40.6822692" lon="14.9316063"><ele>544.6</ele><time>2026-03-22T09:14:53.042Z</time></trkpt><trkpt lat="40.6822761" lon="14.9315107"><ele>546.4</ele><time>2026-03-22T09:14:54.023Z</time></trkpt><trkpt lat="40.6822748" lon="14.9313581"><ele>548.2</ele><time>2026-03-22T09:14:56.031Z</time></trkpt><trkpt lat="40.6822501" lon="14.93122"><ele>550.0</ele><time>2026-03-22T09:14:57.954Z</time></trkpt><trkpt lat="40.6821878" lon="14.93107"><ele>550.0</ele><time>2026-03-22T09:15:00.013Z</time></trkpt><trkpt lat="40.6821369" lon="14.9310074"><ele>550.0</ele><time>2026-03-22T09:15:00.959Z</time></trkpt><trkpt lat="40.6820484" lon="14.9309133"><ele>550.0</ele><time>2026-03-22T09:15:02.957Z</time></trkpt><trkpt lat="40.6819093" lon="14.9308642"><ele>550.0</ele><time>2026-03-22T09:15:05.029Z</time></trkpt><trkpt lat="40.6818291" lon="14.9308303"><ele>550.0</ele><time>2026-03-22T09:15:06.03Z</time></trkpt><trkpt lat="40.6817523" lon="14.9307784"><ele>551.0</ele><time>2026-03-22T09:15:06.953Z</time></trkpt><trkpt lat="40.681682" lon="14.9307078"><ele>552.0</ele><time>2026-03-22T09:15:07.956Z</time></trkpt><trkpt lat="40.6816167" lon="14.930629"><ele>553.0</ele><time>2026-03-22T09:15:08.951Z</time></trkpt><trkpt lat="40.6815632" lon="14.9305374"><ele>554.0</ele><time>2026-03-22T09:15:09.954Z</time></trkpt><trkpt lat="40.6815124" lon="14.9304443"><ele>555.0</ele><time>2026-03-22T09:15:10.956Z</time></trkpt><trkpt lat="40.6814734" lon="14.9303402"><ele>556.0</ele><time>2026-03-22T09:15:11.955Z</time></trkpt><trkpt lat="40.6814118" lon="14.9302197"><ele>556.0</ele><time>2026-03-22T09:15:13.037Z</time></trkpt><trkpt lat="40.6813537" lon="14.9300767"><ele>556.0</ele><time>2026-03-22T09:15:13.97Z</time></trkpt><trkpt lat="40.6812956" lon="14.9299321"><ele>556.0</ele><time>2026-03-22T09:15:15.042Z</time></trkpt><trkpt lat="40.6812265" lon="14.9297857"><ele>556.0</ele><time>2026-03-22T09:15:15.956Z</time></trkpt><trkpt lat="40.6811718" lon="14.9296567"><ele>556.8333333333334</ele><time>2026-03-22T09:15:16.95Z</time></trkpt><trkpt lat="40.6811151" lon="14.9295355"><ele>557.6666666666667</ele><time>2026-03-22T09:15:17.952Z</time></trkpt><trkpt lat="40.6810642" lon="14.929435"><ele>558.5</ele><time>2026-03-22T09:15:18.964Z</time></trkpt><trkpt lat="40.6810323" lon="14.9293614"><ele>559.3333333333334</ele><time>2026-03-22T09:15:19.966Z</time></trkpt><trkpt lat="40.6810055" lon="14.929279"><ele>560.1666666666666</ele><time>2026-03-22T09:15:21.012Z</time></trkpt><trkpt lat="40.6809653" lon="14.9292069"><ele>561.0</ele><time>2026-03-22T09:15:21.956Z</time></trkpt><trkpt lat="40.6809245" lon="14.9291238"><ele>558.0</ele><time>2026-03-22T09:15:22.959Z</time></trkpt><trkpt lat="40.6809097" lon="14.9290368"><ele>555.0</ele><time>2026-03-22T09:15:23.96Z</time></trkpt><trkpt lat="40.6809132" lon="14.9288762"><ele>552.0</ele><time>2026-03-22T09:15:26.032Z</time></trkpt><trkpt lat="40.6808908" lon="14.928796"><ele>549.0</ele><time>2026-03-22T09:15:26.951Z</time></trkpt><trkpt lat="40.6808618" lon="14.9287083"><ele>546.0</ele><time>2026-03-22T09:15:27.961Z</time></trkpt><trkpt lat="40.6808462" lon="14.9285941"><ele>543.0</ele><time>2026-03-22T09:15:28.976Z</time></trkpt><trkpt lat="40.6808314" lon="14.9284803"><ele>540.8333333333334</ele><time>2026-03-22T09:15:30.026Z</time></trkpt><trkpt lat="40.6808185" lon="14.9283664"><ele>538.6666666666666</ele><time>2026-03-22T09:15:31.028Z</time></trkpt><trkpt lat="40.6808124" lon="14.9282719"><ele>536.5</ele><time>2026-03-22T09:15:31.949Z</time></trkpt><trkpt lat="40.6807951" lon="14.9281662"><ele>534.3333333333333</ele><time>2026-03-22T09:15:33.979Z</time></trkpt><trkpt lat="40.6807834" lon="14.9280308"><ele>532.1666666666666</ele><time>2026-03-22T09:15:35.959Z</time></trkpt><trkpt lat="40.6807829" lon="14.9279248"><ele>530.0</ele><time>2026-03-22T09:15:36.958Z</time></trkpt><trkpt lat="40.6807908" lon="14.9277958"><ele>530.0</ele><time>2026-03-22T09:15:38.027Z</time></trkpt><trkpt lat="40.6808061" lon="14.9276804"><ele>530.0</ele><time>2026-03-22T09:15:39.03Z</time></trkpt><trkpt lat="40.6808294" lon="14.9275751"><ele>530.0</ele><time>2026-03-22T09:15:40.028Z</time></trkpt><trkpt lat="40.6808533" lon="14.9274775"><ele>530.0</ele><time>2026-03-22T09:15:40.958Z</time></trkpt><trkpt lat="40.6809034" lon="14.9273253"><ele>530.0</ele><time>2026-03-22T09:15:42.964Z</time></trkpt><trkpt lat="40.6808823" lon="14.9272359"><ele>530.0</ele><time>2026-03-22T09:15:44.975Z</time></trkpt><trkpt lat="40.6808112" lon="14.9272651"><ele>530.0</ele><time>2026-03-22T09:15:46.965Z</time></trkpt><trkpt lat="40.6807546" lon="14.9273894"><ele>530.0</ele><time>2026-03-22T09:15:49.02Z</time></trkpt><trkpt lat="40.6807023" lon="14.9275661"><ele>530.0</ele><time>2026-03-22T09:15:50.968Z</time></trkpt><trkpt lat="40.6806913" lon="14.9276729"><ele>530.0</ele><time>2026-03-22T09:15:51.963Z</time></trkpt><trkpt lat="40.6806966" lon="14.9277765"><ele>530.0</ele><time>2026-03-22T09:15:52.961Z</time></trkpt><trkpt lat="40.6807087" lon="14.9278794"><ele>530.0</ele><time>2026-03-22T09:15:53.969Z</time></trkpt><trkpt lat="40.6807119" lon="14.9279882"><ele>530.0</ele><time>2026-03-22T09:15:55.026Z</time></trkpt><trkpt lat="40.6807114" lon="14.9280781"><ele>530.0</ele><time>2026-03-22T09:15:56.035Z</time></trkpt><trkpt lat="40.6806914" lon="14.9281659"><ele>530.0</ele><time>2026-03-22T09:15:56.964Z</time></trkpt><trkpt lat="40.680679" lon="14.9282694"><ele>530.0</ele><time>2026-03-22T09:15:57.97Z</time></trkpt><trkpt lat="40.6806747" lon="14.9283742"><ele>530.0</ele><time>2026-03-22T09:15:58.993Z</time></trkpt><trkpt lat="40.6806545" lon="14.9285233"><ele>532.1666666666666</ele><time>2026-03-22T09:16:01.018Z</time></trkpt><trkpt lat="40.6806665" lon="14.9286539"><ele>534.3333333333333</ele><time>2026-03-22T09:16:02.953Z</time></trkpt><trkpt lat="40.6806934" lon="14.9287362"><ele>536.5</ele><time>2026-03-22T09:16:04.96Z</time></trkpt><trkpt lat="40.6807353" lon="14.9288051"><ele>538.6666666666666</ele><time>2026-03-22T09:16:06.96Z</time></trkpt><trkpt lat="40.6807589" lon="14.9289157"><ele>540.8333333333334</ele><time>2026-03-22T09:16:09.08Z</time></trkpt><trkpt lat="40.6807633" lon="14.9290336"><ele>543.0</ele><time>2026-03-22T09:16:10.959Z</time></trkpt><trkpt lat="40.6807393" lon="14.9291365"><ele>546.0</ele><time>2026-03-22T09:16:12.958Z</time></trkpt><trkpt lat="40.6806729" lon="14.929269"><ele>549.0</ele><time>2026-03-22T09:16:15.013Z</time></trkpt><trkpt lat="40.6806452" lon="14.9293635"><ele>552.0</ele><time>2026-03-22T09:16:16.96Z</time></trkpt><trkpt lat="40.6806798" lon="14.9294338"><ele>555.0</ele><time>2026-03-22T09:16:18.958Z</time></trkpt><trkpt lat="40.6807115" lon="14.9295287"><ele>558.0</ele><time>2026-03-22T09:16:20.953Z</time></trkpt><trkpt lat="40.6807294" lon="14.9296124"><ele>561.0</ele><time>2026-03-22T09:16:21.971Z</time></trkpt><trkpt lat="40.6807242" lon="14.929745"><ele>561.0</ele><time>2026-03-22T09:16:23.942Z</time></trkpt><trkpt lat="40.6806909" lon="14.9298681"><ele>561.0</ele><time>2026-03-22T09:16:25.953Z</time></trkpt><trkpt lat="40.6806707" lon="14.9299784"><ele>561.0</ele><time>2026-03-22T09:16:27.944Z</time></trkpt><trkpt lat="40.6806532" lon="14.9300674"><ele>561.0</ele><time>2026-03-22T09:16:29.036Z</time></trkpt><trkpt lat="40.6806341" lon="14.930152"><ele>561.0</ele><time>2026-03-22T09:16:29.954Z</time></trkpt><trkpt lat="40.6806295" lon="14.9302557"><ele>561.0</ele><time>2026-03-22T09:16:31.012Z</time></trkpt><trkpt lat="40.6806317" lon="14.9303563"><ele>564.0</ele><time>2026-03-22T09:16:31.958Z</time></trkpt><trkpt lat="40.6806423" lon="14.9304534"><ele>567.0</ele><time>2026-03-22T09:16:32.954Z</time></trkpt><trkpt lat="40.6806607" lon="14.9305475"><ele>570.0</ele><time>2026-03-22T09:16:33.958Z</time></trkpt><trkpt lat="40.6806931" lon="14.9306219"><ele>573.0</ele><time>2026-03-22T09:16:34.957Z</time></trkpt><trkpt lat="40.6806944" lon="14.9307816"><ele>576.0</ele><time>2026-03-22T09:16:36.957Z</time></trkpt><trkpt lat="40.6806782" lon="14.9308647"><ele>579.0</ele><time>2026-03-22T09:16:37.956Z</time></trkpt><trkpt lat="40.6806271" lon="14.9310009"><ele>580.6666666666666</ele><time>2026-03-22T09:16:39.958Z</time></trkpt><trkpt lat="40.6806075" lon="14.9310867"><ele>582.3333333333334</ele><time>2026-03-22T09:16:40.956Z</time></trkpt><trkpt lat="40.6805846" lon="14.9311798"><ele>584.0</ele><time>2026-03-22T09:16:41.957Z</time></trkpt><trkpt lat="40.6805651" lon="14.9312803"><ele>585.6666666666667</ele><time>2026-03-22T09:16:42.965Z</time></trkpt><trkpt lat="40.6805638" lon="14.9313902"><ele>587.3333333333334</ele><time>2026-03-22T09:16:43.942Z</time></trkpt><trkpt lat="40.680589" lon="14.931489"><ele>589.0</ele><time>2026-03-22T09:16:45.029Z</time></trkpt><trkpt lat="40.6806412" lon="14.9315717"><ele>589.0</ele><time>2026-03-22T09:16:45.944Z</time></trkpt><trkpt lat="40.6807133" lon="14.9316597"><ele>589.0</ele><time>2026-03-22T09:16:46.956Z</time></trkpt><trkpt lat="40.6807867" lon="14.931762"><ele>589.0</ele><time>2026-03-22T09:16:47.96Z</time></trkpt><trkpt lat="40.6808586" lon="14.9318796"><ele>589.0</ele><time>2026-03-22T09:16:48.946Z</time></trkpt><trkpt lat="40.6809252" lon="14.9319961"><ele>589.0</ele><time>2026-03-22T09:16:50.017Z</time></trkpt><trkpt lat="40.6809843" lon="14.9320865"><ele>587.1666666666667</ele><time>2026-03-22T09:16:50.978Z</time></trkpt><trkpt lat="40.6810507" lon="14.9321568"><ele>585.3333333333334</ele><time>2026-03-22T09:16:51.953Z</time></trkpt><trkpt lat="40.6811223" lon="14.9322026"><ele>583.5</ele><time>2026-03-22T09:16:52.958Z</time></trkpt><trkpt lat="40.681186" lon="14.9322386"><ele>581.6666666666666</ele><time>2026-03-22T09:16:54.017Z</time></trkpt><trkpt lat="40.681242" lon="14.93232"><ele>579.8333333333333</ele><time>2026-03-22T09:16:55.944Z</time></trkpt><trkpt lat="40.6812007" lon="14.9323954"><ele>578.0</ele><time>2026-03-22T09:16:58.96Z</time></trkpt><trkpt lat="40.6812061" lon="14.9325244"><ele>573.3333333333333</ele><time>2026-03-22T09:17:01.955Z</time></trkpt><trkpt lat="40.6812151" lon="14.9326186"><ele>568.6666666666666</ele><time>2026-03-22T09:17:03.957Z</time></trkpt><trkpt lat="40.6812123" lon="14.932727"><ele>564.0</ele><time>2026-03-22T09:17:06.956Z</time></trkpt><trkpt lat="40.6812057" lon="14.9328166"><ele>559.3333333333334</ele><time>2026-03-22T09:17:08.963Z</time></trkpt><trkpt lat="40.6811997" lon="14.9329182"><ele>554.6666666666667</ele><time>2026-03-22T09:17:10.953Z</time></trkpt><trkpt lat="40.6811842" lon="14.9330161"><ele>550.0</ele><time>2026-03-22T09:17:12.956Z</time></trkpt><trkpt lat="40.6811742" lon="14.9331208"><ele>550.0</ele><time>2026-03-22T09:17:15.038Z</time></trkpt><trkpt lat="40.6811698" lon="14.9332193"><ele>550.0</ele><time>2026-03-22T09:17:16.957Z</time></trkpt><trkpt lat="40.6811625" lon="14.9333128"><ele>550.0</ele><time>2026-03-22T09:17:18.978Z</time></trkpt><trkpt lat="40.681164" lon="14.933444"><ele>550.0</ele><time>2026-03-22T09:17:21.043Z</time></trkpt><trkpt lat="40.6811571" lon="14.9336004"><ele>550.0</ele><time>2026-03-22T09:17:22.977Z</time></trkpt><trkpt lat="40.6811645" lon="14.933738"><ele>546.75</ele><time>2026-03-22T09:17:24.971Z</time></trkpt><trkpt lat="40.6811979" lon="14.9338683"><ele>543.5</ele><time>2026-03-22T09:17:26.985Z</time></trkpt><trkpt lat="40.681284" lon="14.9339753"><ele>540.25</ele><time>2026-03-22T09:17:29.016Z</time></trkpt><trkpt lat="40.6813583" lon="14.9341088"><ele>537.0</ele><time>2026-03-22T09:17:30.972Z</time></trkpt><trkpt lat="40.6814289" lon="14.9342599"><ele>535.1666666666666</ele><time>2026-03-22T09:17:32.981Z</time></trkpt><trkpt lat="40.6814667" lon="14.9343528"><ele>533.3333333333334</ele><time>2026-03-22T09:17:33.97Z</time></trkpt><trkpt lat="40.6815162" lon="14.9344544"><ele>531.5</ele><time>2026-03-22T09:17:34.963Z</time></trkpt><trkpt lat="40.6815592" lon="14.9345515"><ele>529.6666666666667</ele><time>2026-03-22T09:17:36.035Z</time></trkpt><trkpt lat="40.6816119" lon="14.9346531"><ele>527.8333333333334</ele><time>2026-03-22T09:17:36.956Z</time></trkpt><trkpt lat="40.6816552" lon="14.934735"><ele>526.0</ele><time>2026-03-22T09:17:37.972Z</time></trkpt><trkpt lat="40.6817134" lon="14.9348818"><ele>526.0</ele><time>2026-03-22T09:17:40.037Z</time></trkpt><trkpt lat="40.6817732" lon="14.9350037"><ele>526.0</ele><time>2026-03-22T09:17:41.969Z</time></trkpt><trkpt lat="40.6818128" lon="14.9351287"><ele>526.0</ele><time>2026-03-22T09:17:43.974Z</time></trkpt><trkpt lat="40.6818376" lon="14.9352126"><ele>526.0</ele><time>2026-03-22T09:17:44.97Z</time></trkpt><trkpt lat="40.6818893" lon="14.9353082"><ele>526.0</ele><time>2026-03-22T09:17:46.041Z</time></trkpt><trkpt lat="40.6819557" lon="14.9354213"><ele>524.0</ele><time>2026-03-22T09:17:46.962Z</time></trkpt><trkpt lat="40.6820256" lon="14.9355135"><ele>522.0</ele><time>2026-03-22T09:17:47.955Z</time></trkpt><trkpt lat="40.6820898" lon="14.9355886"><ele>520.0</ele><time>2026-03-22T09:17:48.952Z</time></trkpt><trkpt lat="40.6821671" lon="14.9356551"><ele>518.0</ele><time>2026-03-22T09:17:49.956Z</time></trkpt><trkpt lat="40.6822542" lon="14.9357225"><ele>516.0</ele><time>2026-03-22T09:17:50.964Z</time></trkpt><trkpt lat="40.6823378" lon="14.9357917"><ele>516.0</ele><time>2026-03-22T09:17:51.962Z</time></trkpt><trkpt lat="40.6824174" lon="14.9358761"><ele>516.0</ele><time>2026-03-22T09:17:52.953Z</time></trkpt><trkpt lat="40.682491" lon="14.9359764"><ele>516.0</ele><time>2026-03-22T09:17:53.952Z</time></trkpt><trkpt lat="40.6825603" lon="14.9360581"><ele>516.0</ele><time>2026-03-22T09:17:54.969Z</time></trkpt><trkpt lat="40.6826204" lon="14.936107"><ele>516.0</ele><time>2026-03-22T09:17:55.952Z</time></trkpt><trkpt lat="40.6826875" lon="14.9361319"><ele>516.0</ele><time>2026-03-22T09:17:56.95Z</time></trkpt><trkpt lat="40.6827779" lon="14.9361375"><ele>517.0</ele><time>2026-03-22T09:17:57.954Z</time></trkpt><trkpt lat="40.6828705" lon="14.9360988"><ele>518.0</ele><time>2026-03-22T09:17:58.951Z</time></trkpt><trkpt lat="40.6829625" lon="14.9360384"><ele>519.0</ele><time>2026-03-22T09:17:59.953Z</time></trkpt><trkpt lat="40.6830365" lon="14.9359698"><ele>520.0</ele><time>2026-03-22T09:18:01.04Z</time></trkpt><trkpt lat="40.6830955" lon="14.9359011"><ele>521.0</ele><time>2026-03-22T09:18:01.951Z</time></trkpt><trkpt lat="40.683166" lon="14.9358377"><ele>519.3333333333333</ele><time>2026-03-22T09:18:03.031Z</time></trkpt><trkpt lat="40.6832257" lon="14.9357902"><ele>517.6666666666666</ele><time>2026-03-22T09:18:03.966Z</time></trkpt><trkpt lat="40.6833251" lon="14.9357061"><ele>516.0</ele><time>2026-03-22T09:18:06.024Z</time></trkpt><trkpt lat="40.6833707" lon="14.9356006"><ele>514.3333333333334</ele><time>2026-03-22T09:18:08.95Z</time></trkpt><trkpt lat="40.6833654" lon="14.9355116"><ele>512.6666666666667</ele><time>2026-03-22T09:18:09.955Z</time></trkpt><trkpt lat="40.6833677" lon="14.9354113"><ele>511.0</ele><time>2026-03-22T09:18:11.004Z</time></trkpt><trkpt lat="40.6833751" lon="14.9353263"><ele>511.0</ele><time>2026-03-22T09:18:11.954Z</time></trkpt><trkpt lat="40.6833853" lon="14.9352412"><ele>511.0</ele><time>2026-03-22T09:18:12.957Z</time></trkpt><trkpt lat="40.6834066" lon="14.9351565"><ele>511.0</ele><time>2026-03-22T09:18:13.946Z</time></trkpt><trkpt lat="40.6834325" lon="14.935069"><ele>511.0</ele><time>2026-03-22T09:18:14.956Z</time></trkpt><trkpt lat="40.6834685" lon="14.934991"><ele>511.0</ele><time>2026-03-22T09:18:15.957Z</time></trkpt><trkpt lat="40.6835033" lon="14.9349193"><ele>511.0</ele><time>2026-03-22T09:18:16.957Z</time></trkpt><trkpt lat="40.6835417" lon="14.9348493"><ele>511.0</ele><time>2026-03-22T09:18:17.94Z</time></trkpt><trkpt lat="40.6835908" lon="14.9347807"><ele>501.6</ele><time>2026-03-22T09:18:18.957Z</time></trkpt><trkpt lat="40.6836319" lon="14.9347126"><ele>492.20000000000005</ele><time>2026-03-22T09:18:19.984Z</time></trkpt><trkpt lat="40.6836947" lon="14.9346118"><ele>482.79999999999995</ele><time>2026-03-22T09:18:21.956Z</time></trkpt><trkpt lat="40.6837942" lon="14.9345521"><ele>473.4</ele><time>2026-03-22T09:18:23.955Z</time></trkpt><trkpt lat="40.6838755" lon="14.9345471"><ele>464.0</ele><time>2026-03-22T09:18:25.954Z</time></trkpt><trkpt lat="40.6839336" lon="14.9344432"><ele>463.99999999999994</ele><time>2026-03-22T09:18:28.951Z</time></trkpt><trkpt lat="40.6839328" lon="14.9343394"><ele>464.0</ele><time>2026-03-22T09:18:30.959Z</time></trkpt><trkpt lat="40.6838961" lon="14.9342634"><ele>464.0</ele><time>2026-03-22T09:18:32.959Z</time></trkpt><trkpt lat="40.6838253" lon="14.9341971"><ele>464.0</ele><time>2026-03-22T09:18:34.951Z</time></trkpt><trkpt lat="40.6837673" lon="14.9341386"><ele>463.99999999999994</ele><time>2026-03-22T09:18:36.944Z</time></trkpt><trkpt lat="40.6836912" lon="14.9341178"><ele>464.0</ele><time>2026-03-22T09:18:39.955Z</time></trkpt><trkpt lat="40.6836314" lon="14.9340453"><ele>462.16666666666663</ele><time>2026-03-22T09:18:42.96Z</time></trkpt><trkpt lat="40.6836252" lon="14.933951"><ele>460.3333333333333</ele><time>2026-03-22T09:18:46.043Z</time></trkpt><trkpt lat="40.6836863" lon="14.9338873"><ele>458.5</ele><time>2026-03-22T09:18:47.954Z</time></trkpt><trkpt lat="40.6837737" lon="14.9337703"><ele>456.66666666666663</ele><time>2026-03-22T09:18:49.958Z</time></trkpt><trkpt lat="40.6838184" lon="14.9337031"><ele>454.8333333333333</ele><time>2026-03-22T09:18:50.957Z</time></trkpt><trkpt lat="40.6838615" lon="14.9336401"><ele>453.0</ele><time>2026-03-22T09:18:51.945Z</time></trkpt><trkpt lat="40.6839257" lon="14.9335528"><ele>453.0</ele><time>2026-03-22T09:18:53.941Z</time></trkpt><trkpt lat="40.6839703" lon="14.9334639"><ele>452.99999999999994</ele><time>2026-03-22T09:18:55.956Z</time></trkpt><trkpt lat="40.684013" lon="14.9333807"><ele>452.99999999999994</ele><time>2026-03-22T09:18:56.941Z</time></trkpt><trkpt lat="40.6840712" lon="14.9332562"><ele>453.0</ele><time>2026-03-22T09:18:57.959Z</time></trkpt><trkpt lat="40.6841335" lon="14.933136"><ele>453.0</ele><time>2026-03-22T09:18:58.991Z</time></trkpt><trkpt lat="40.6841919" lon="14.9330319"><ele>453.0</ele><time>2026-03-22T09:18:59.955Z</time></trkpt><trkpt lat="40.684232" lon="14.9329387"><ele>453.0</ele><time>2026-03-22T09:19:00.961Z</time></trkpt><trkpt lat="40.6842509" lon="14.9328377"><ele>453.0</ele><time>2026-03-22T09:19:01.951Z</time></trkpt><trkpt lat="40.6842507" lon="14.9327292"><ele>453.0</ele><time>2026-03-22T09:19:02.951Z</time></trkpt><trkpt lat="40.6842391" lon="14.932629"><ele>453.0</ele><time>2026-03-22T09:19:03.953Z</time></trkpt><trkpt lat="40.6842148" lon="14.9325171"><ele>453.0</ele><time>2026-03-22T09:19:04.978Z</time></trkpt><trkpt lat="40.6841758" lon="14.9323835"><ele>453.0</ele><time>2026-03-22T09:19:05.953Z</time></trkpt><trkpt lat="40.6841152" lon="14.9322643"><ele>452.99999999999994</ele><time>2026-03-22T09:19:06.947Z</time></trkpt><trkpt lat="40.6840428" lon="14.9321529"><ele>452.99999999999994</ele><time>2026-03-22T09:19:07.951Z</time></trkpt><trkpt lat="40.6839941" lon="14.9320684"><ele>453.0</ele><time>2026-03-22T09:19:08.944Z</time></trkpt><trkpt lat="40.6839493" lon="14.9319349"><ele>453.0</ele><time>2026-03-22T09:19:11.961Z</time></trkpt><trkpt lat="40.6839562" lon="14.9318417"><ele>454.4</ele><time>2026-03-22T09:19:12.952Z</time></trkpt><trkpt lat="40.683986" lon="14.9317024"><ele>455.79999999999995</ele><time>2026-03-22T09:19:13.956Z</time></trkpt><trkpt lat="40.6840091" lon="14.9315696"><ele>457.2</ele><time>2026-03-22T09:19:14.976Z</time></trkpt><trkpt lat="40.6840481" lon="14.9314694"><ele>458.6</ele><time>2026-03-22T09:19:15.95Z</time></trkpt><trkpt lat="40.6841185" lon="14.931362"><ele>460.0</ele><time>2026-03-22T09:19:16.952Z</time></trkpt><trkpt lat="40.6841811" lon="14.9312867"><ele>459.99999999999994</ele><time>2026-03-22T09:19:17.953Z</time></trkpt><trkpt lat="40.6842312" lon="14.9312352"><ele>460.0</ele><time>2026-03-22T09:19:18.951Z</time></trkpt><trkpt lat="40.6842278" lon="14.931146"><ele>459.99999999999994</ele><time>2026-03-22T09:19:19.952Z</time></trkpt><trkpt lat="40.6842319" lon="14.9310562"><ele>459.99999999999994</ele><time>2026-03-22T09:19:20.963Z</time></trkpt><trkpt lat="40.6841516" lon="14.9310508"><ele>460.0</ele><time>2026-03-22T09:19:23.946Z</time></trkpt><trkpt lat="40.6841016" lon="14.9311262"><ele>459.99999999999994</ele><time>2026-03-22T09:19:24.962Z</time></trkpt><trkpt lat="40.6840471" lon="14.9312074"><ele>459.99999999999994</ele><time>2026-03-22T09:19:25.952Z</time></trkpt><trkpt lat="40.6839757" lon="14.9313067"><ele>460.0</ele><time>2026-03-22T09:19:26.952Z</time></trkpt><trkpt lat="40.6839093" lon="14.9313916"><ele>460.0</ele><time>2026-03-22T09:19:27.972Z</time></trkpt><trkpt lat="40.6838361" lon="14.9315401"><ele>460.0</ele><time>2026-03-22T09:19:29.952Z</time></trkpt><trkpt lat="40.6837907" lon="14.9316505"><ele>460.0</ele><time>2026-03-22T09:19:30.95Z</time></trkpt><trkpt lat="40.6837295" lon="14.9317853"><ele>460.0</ele><time>2026-03-22T09:19:31.947Z</time></trkpt><trkpt lat="40.6836876" lon="14.931923"><ele>458.6</ele><time>2026-03-22T09:19:32.952Z</time></trkpt><trkpt lat="40.6836605" lon="14.9320163"><ele>457.2</ele><time>2026-03-22T09:19:33.953Z</time></trkpt><trkpt lat="40.6836352" lon="14.9321691"><ele>455.79999999999995</ele><time>2026-03-22T09:19:35.953Z</time></trkpt><trkpt lat="40.6836421" lon="14.9322859"><ele>454.4</ele><time>2026-03-22T09:19:36.956Z</time></trkpt><trkpt lat="40.6836384" lon="14.9324004"><ele>453.0</ele><time>2026-03-22T09:19:37.944Z</time></trkpt><trkpt lat="40.6836137" lon="14.9325091"><ele>458.0</ele><time>2026-03-22T09:19:39.955Z</time></trkpt><trkpt lat="40.6835698" lon="14.9325724"><ele>463.0</ele><time>2026-03-22T09:19:41.957Z</time></trkpt><trkpt lat="40.6835316" lon="14.9324774"><ele>468.0</ele><time>2026-03-22T09:19:44.955Z</time></trkpt><trkpt lat="40.6834934" lon="14.9323788"><ele>473.0</ele><time>2026-03-22T09:19:45.957Z</time></trkpt><trkpt lat="40.6834477" lon="14.9322919"><ele>478.0</ele><time>2026-03-22T09:19:46.949Z</time></trkpt><trkpt lat="40.6833888" lon="14.9322051"><ele>483.0</ele><time>2026-03-22T09:19:47.951Z</time></trkpt><trkpt lat="40.6833133" lon="14.93211"><ele>487.59999999999997</ele><time>2026-03-22T09:19:48.954Z</time></trkpt><trkpt lat="40.6832431" lon="14.9320013"><ele>492.19999999999993</ele><time>2026-03-22T09:19:49.952Z</time></trkpt><trkpt lat="40.6832018" lon="14.9319089"><ele>496.8</ele><time>2026-03-22T09:19:50.954Z</time></trkpt><trkpt lat="40.6832019" lon="14.9317662"><ele>501.4</ele><time>2026-03-22T09:19:52.951Z</time></trkpt><trkpt lat="40.6832244" lon="14.9316516"><ele>506.0</ele><time>2026-03-22T09:19:54.02Z</time></trkpt><trkpt lat="40.6832694" lon="14.9315123"><ele>507.16666666666663</ele><time>2026-03-22T09:19:54.951Z</time></trkpt><trkpt lat="40.6833152" lon="14.9314167"><ele>508.3333333333333</ele><time>2026-03-22T09:19:56.033Z</time></trkpt><trkpt lat="40.6833324" lon="14.931336"><ele>509.5</ele><time>2026-03-22T09:19:56.951Z</time></trkpt><trkpt lat="40.6833225" lon="14.931192"><ele>510.66666666666663</ele><time>2026-03-22T09:19:58.957Z</time></trkpt><trkpt lat="40.6832816" lon="14.9311073"><ele>511.8333333333333</ele><time>2026-03-22T09:19:59.95Z</time></trkpt><trkpt lat="40.6832233" lon="14.9310143"><ele>513.0</ele><time>2026-03-22T09:20:00.944Z</time></trkpt><trkpt lat="40.6831719" lon="14.9309373"><ele>511.57142857142867</ele><time>2026-03-22T09:20:01.951Z</time></trkpt><trkpt lat="40.6831236" lon="14.9308537"><ele>510.14285714285717</ele><time>2026-03-22T09:20:03.025Z</time></trkpt><trkpt lat="40.6830791" lon="14.9307792"><ele>508.7142857142858</ele><time>2026-03-22T09:20:04.035Z</time></trkpt><trkpt lat="40.6830348" lon="14.9307071"><ele>507.28571428571433</ele><time>2026-03-22T09:20:04.945Z</time></trkpt><trkpt lat="40.6829882" lon="14.930646"><ele>505.8571428571429</ele><time>2026-03-22T09:20:05.956Z</time></trkpt><trkpt lat="40.6829347" lon="14.9305808"><ele>504.42857142857144</ele><time>2026-03-22T09:20:06.956Z</time></trkpt><trkpt lat="40.6828626" lon="14.9305401"><ele>503.0</ele><time>2026-03-22T09:20:07.955Z</time></trkpt><trkpt lat="40.6827867" lon="14.930502"><ele>503.0</ele><time>2026-03-22T09:20:08.953Z</time></trkpt><trkpt lat="40.6827288" lon="14.9304669"><ele>502.99999999999994</ele><time>2026-03-22T09:20:09.947Z</time></trkpt><trkpt lat="40.6826484" lon="14.9304437"><ele>502.99999999999994</ele><time>2026-03-22T09:20:11.958Z</time></trkpt><trkpt lat="40.6827227" lon="14.9306409"><ele>503.0</ele><time>2026-03-22T09:20:16.948Z</time></trkpt><trkpt lat="40.6827596" lon="14.9307255"><ele>503.0</ele><time>2026-03-22T09:20:17.95Z</time></trkpt><trkpt lat="40.6827978" lon="14.930821"><ele>505.0</ele><time>2026-03-22T09:20:18.953Z</time></trkpt><trkpt lat="40.6828462" lon="14.9309255"><ele>506.99999999999994</ele><time>2026-03-22T09:20:19.952Z</time></trkpt><trkpt lat="40.6828945" lon="14.9310518"><ele>508.99999999999994</ele><time>2026-03-22T09:20:20.958Z</time></trkpt><trkpt lat="40.6829252" lon="14.9311839"><ele>511.0</ele><time>2026-03-22T09:20:21.962Z</time></trkpt><trkpt lat="40.6829479" lon="14.9313144"><ele>513.0</ele><time>2026-03-22T09:20:23.028Z</time></trkpt><trkpt lat="40.6829398" lon="14.9314544"><ele>513.0</ele><time>2026-03-22T09:20:24.032Z</time></trkpt><trkpt lat="40.6829268" lon="14.9315734"><ele>513.0</ele><time>2026-03-22T09:20:24.945Z</time></trkpt><trkpt lat="40.6829112" lon="14.9316984"><ele>513.0</ele><time>2026-03-22T09:20:25.943Z</time></trkpt><trkpt lat="40.68291" lon="14.931824"><ele>513.0</ele><time>2026-03-22T09:20:26.952Z</time></trkpt><trkpt lat="40.6829133" lon="14.9319567"><ele>513.0</ele><time>2026-03-22T09:20:27.965Z</time></trkpt><trkpt lat="40.6829154" lon="14.9320723"><ele>511.8333333333333</ele><time>2026-03-22T09:20:28.954Z</time></trkpt><trkpt lat="40.6829105" lon="14.9321826"><ele>510.66666666666663</ele><time>2026-03-22T09:20:29.953Z</time></trkpt><trkpt lat="40.6828869" lon="14.9322758"><ele>509.5</ele><time>2026-03-22T09:20:30.972Z</time></trkpt><trkpt lat="40.6828563" lon="14.932352"><ele>508.3333333333333</ele><time>2026-03-22T09:20:31.949Z</time></trkpt><trkpt lat="40.6828146" lon="14.9324187"><ele>507.16666666666663</ele><time>2026-03-22T09:20:32.949Z</time></trkpt><trkpt lat="40.6827434" lon="14.9324789"><ele>506.0</ele><time>2026-03-22T09:20:33.957Z</time></trkpt><trkpt lat="40.6826542" lon="14.9325422"><ele>508.20000000000005</ele><time>2026-03-22T09:20:34.952Z</time></trkpt><trkpt lat="40.6825666" lon="14.9326161"><ele>510.40000000000003</ele><time>2026-03-22T09:20:35.949Z</time></trkpt><trkpt lat="40.6824856" lon="14.9326959"><ele>512.6</ele><time>2026-03-22T09:20:36.956Z</time></trkpt><trkpt lat="40.6824063" lon="14.9327767"><ele>514.8000000000001</ele><time>2026-03-22T09:20:37.951Z</time></trkpt><trkpt lat="40.682345" lon="14.9328665"><ele>517.0</ele><time>2026-03-22T09:20:38.945Z</time></trkpt><trkpt lat="40.6822718" lon="14.9329616"><ele>517.0</ele><time>2026-03-22T09:20:40.043Z</time></trkpt><trkpt lat="40.6821856" lon="14.9330726"><ele>517.0</ele><time>2026-03-22T09:20:41.028Z</time></trkpt><trkpt lat="40.6821149" lon="14.9331721"><ele>517.0</ele><time>2026-03-22T09:20:41.952Z</time></trkpt><trkpt lat="40.6820295" lon="14.9332718"><ele>517.0</ele><time>2026-03-22T09:20:42.948Z</time></trkpt><trkpt lat="40.6819337" lon="14.9333789"><ele>522.0</ele><time>2026-03-22T09:20:43.963Z</time></trkpt><trkpt lat="40.681876" lon="14.9335298"><ele>527.0</ele><time>2026-03-22T09:20:45.028Z</time></trkpt><trkpt lat="40.6818286" lon="14.9337028"><ele>532.0</ele><time>2026-03-22T09:20:46.026Z</time></trkpt><trkpt lat="40.6817874" lon="14.9338597"><ele>537.0</ele><time>2026-03-22T09:20:46.958Z</time></trkpt><trkpt lat="40.6817506" lon="14.9339805"><ele>537.0</ele><time>2026-03-22T09:20:47.95Z</time></trkpt><trkpt lat="40.6817347" lon="14.9340993"><ele>537.0</ele><time>2026-03-22T09:20:48.978Z</time></trkpt><trkpt lat="40.6817222" lon="14.9342401"><ele>537.0</ele><time>2026-03-22T09:20:50.033Z</time></trkpt><trkpt lat="40.6817159" lon="14.9343682"><ele>537.0</ele><time>2026-03-22T09:20:50.97Z</time></trkpt><trkpt lat="40.6817174" lon="14.9344672"><ele>537.0</ele><time>2026-03-22T09:20:51.957Z</time></trkpt><trkpt lat="40.6817338" lon="14.934583"><ele>537.0</ele><time>2026-03-22T09:20:53.959Z</time></trkpt><trkpt lat="40.6816639" lon="14.9345169"><ele>537.0</ele><time>2026-03-22T09:20:55.953Z</time></trkpt><trkpt lat="40.6816128" lon="14.9344406"><ele>537.0</ele><time>2026-03-22T09:20:56.964Z</time></trkpt><trkpt lat="40.6815504" lon="14.9343708"><ele>537.0</ele><time>2026-03-22T09:20:58.018Z</time></trkpt><trkpt lat="40.6814804" lon="14.9342782"><ele>537.0</ele><time>2026-03-22T09:20:59.959Z</time></trkpt><trkpt lat="40.6814584" lon="14.9340725"><ele>537.0</ele><time>2026-03-22T09:21:01.96Z</time></trkpt><trkpt lat="40.6814584" lon="14.9339231"><ele>537.0</ele><time>2026-03-22T09:21:02.95Z</time></trkpt><trkpt lat="40.6814646" lon="14.9338065"><ele>537.0</ele><time>2026-03-22T09:21:03.953Z</time></trkpt><trkpt lat="40.6814963" lon="14.9336882"><ele>537.0</ele><time>2026-03-22T09:21:05.024Z</time></trkpt><trkpt lat="40.6815287" lon="14.9335495"><ele>537.0</ele><time>2026-03-22T09:21:06.032Z</time></trkpt><trkpt lat="40.6815685" lon="14.9333942"><ele>539.6</ele><time>2026-03-22T09:21:06.964Z</time></trkpt><trkpt lat="40.6816098" lon="14.9332564"><ele>542.2</ele><time>2026-03-22T09:21:07.968Z</time></trkpt><trkpt lat="40.6816566" lon="14.933132"><ele>544.8</ele><time>2026-03-22T09:21:08.962Z</time></trkpt><trkpt lat="40.6817119" lon="14.9330116"><ele>547.4</ele><time>2026-03-22T09:21:09.964Z</time></trkpt><trkpt lat="40.6817677" lon="14.932911"><ele>550.0</ele><time>2026-03-22T09:21:10.965Z</time></trkpt><trkpt lat="40.6818279" lon="14.9328168"><ele>550.0</ele><time>2026-03-22T09:21:11.997Z</time></trkpt><trkpt lat="40.6818796" lon="14.9327234"><ele>550.0</ele><time>2026-03-22T09:21:13.04Z</time></trkpt><trkpt lat="40.6819224" lon="14.9326183"><ele>550.0</ele><time>2026-03-22T09:21:14.043Z</time></trkpt><trkpt lat="40.681958" lon="14.9325036"><ele>550.0</ele><time>2026-03-22T09:21:14.957Z</time></trkpt><trkpt lat="40.681997" lon="14.9323864"><ele>550.0</ele><time>2026-03-22T09:21:15.958Z</time></trkpt><trkpt lat="40.6820324" lon="14.9322695"><ele>550.0</ele><time>2026-03-22T09:21:16.966Z</time></trkpt><trkpt lat="40.6820771" lon="14.9321694"><ele>550.0</ele><time>2026-03-22T09:21:17.972Z</time></trkpt><trkpt lat="40.6821286" lon="14.9320738"><ele>550.0</ele><time>2026-03-22T09:21:19.046Z</time></trkpt><trkpt lat="40.682174" lon="14.9320159"><ele>550.0</ele><time>2026-03-22T09:21:20.029Z</time></trkpt><trkpt lat="40.6822412" lon="14.9319023"><ele>550.0</ele><time>2026-03-22T09:21:21.96Z</time></trkpt><trkpt lat="40.6822642" lon="14.9317754"><ele>550.0</ele><time>2026-03-22T09:21:23.956Z</time></trkpt><trkpt lat="40.6822814" lon="14.9316945"><ele>550.0</ele><time>2026-03-22T09:21:24.963Z</time></trkpt><trkpt lat="40.6823017" lon="14.931551"><ele>550.0</ele><time>2026-03-22T09:21:26.957Z</time></trkpt><trkpt lat="40.6822969" lon="14.9314086"><ele>550.0</ele><time>2026-03-22T09:21:28.956Z</time></trkpt><trkpt lat="40.6822781" lon="14.93126"><ele>550.0</ele><time>2026-03-22T09:21:30.966Z</time></trkpt><trkpt lat="40.6822409" lon="14.9311398"><ele>550.0</ele><time>2026-03-22T09:21:33.052Z</time></trkpt><trkpt lat="40.6821969" lon="14.9310603"><ele>550.0</ele><time>2026-03-22T09:21:34.036Z</time></trkpt><trkpt lat="40.6821298" lon="14.9309621"><ele>550.0</ele><time>2026-03-22T09:21:35.951Z</time></trkpt><trkpt lat="40.6820445" lon="14.9309339"><ele>550.0</ele><time>2026-03-22T09:21:39.955Z</time></trkpt><trkpt lat="40.6819666" lon="14.9308999"><ele>550.0</ele><time>2026-03-22T09:21:41.961Z</time></trkpt><trkpt lat="40.6819061" lon="14.9308137"><ele>550.0</ele><time>2026-03-22T09:21:43.949Z</time></trkpt><trkpt lat="40.6818414" lon="14.9307081"><ele>551.2</ele><time>2026-03-22T09:21:45.958Z</time></trkpt><trkpt lat="40.6817964" lon="14.9306449"><ele>552.4</ele><time>2026-03-22T09:21:46.959Z</time></trkpt><trkpt lat="40.6817153" lon="14.9305333"><ele>553.6</ele><time>2026-03-22T09:21:47.96Z</time></trkpt><trkpt lat="40.6816347" lon="14.9304312"><ele>554.8</ele><time>2026-03-22T09:21:49.052Z</time></trkpt><trkpt lat="40.681555" lon="14.9303038"><ele>556.0</ele><time>2026-03-22T09:21:50.028Z</time></trkpt><trkpt lat="40.6814778" lon="14.9301794"><ele>550.75</ele><time>2026-03-22T09:21:51.039Z</time></trkpt><trkpt lat="40.6813936" lon="14.9300443"><ele>545.5</ele><time>2026-03-22T09:21:51.96Z</time></trkpt><trkpt lat="40.6813186" lon="14.9299055"><ele>540.25</ele><time>2026-03-22T09:21:52.954Z</time></trkpt><trkpt lat="40.6812342" lon="14.929764"><ele>535.0</ele><time>2026-03-22T09:21:53.959Z</time></trkpt><trkpt lat="40.6811771" lon="14.9296333"><ele>535.0</ele><time>2026-03-22T09:21:54.958Z</time></trkpt><trkpt lat="40.6811332" lon="14.9295142"><ele>535.0</ele><time>2026-03-22T09:21:55.96Z</time></trkpt><trkpt lat="40.6810894" lon="14.9294188"><ele>535.0</ele><time>2026-03-22T09:21:56.953Z</time></trkpt><trkpt lat="40.6810327" lon="14.9293332"><ele>535.0</ele><time>2026-03-22T09:21:57.963Z</time></trkpt><trkpt lat="40.6809881" lon="14.9292361"><ele>535.0</ele><time>2026-03-22T09:21:58.945Z</time></trkpt><trkpt lat="40.6809686" lon="14.9291404"><ele>535.0</ele><time>2026-03-22T09:21:59.957Z</time></trkpt><trkpt lat="40.6809514" lon="14.9289859"><ele>536.3333333333334</ele><time>2026-03-22T09:22:01.963Z</time></trkpt><trkpt lat="40.6809209" lon="14.9288584"><ele>537.6666666666667</ele><time>2026-03-22T09:22:03.969Z</time></trkpt><trkpt lat="40.6809018" lon="14.9287702"><ele>539.0</ele><time>2026-03-22T09:22:04.957Z</time></trkpt><trkpt lat="40.6808741" lon="14.9286862"><ele>540.3333333333334</ele><time>2026-03-22T09:22:05.946Z</time></trkpt><trkpt lat="40.6808525" lon="14.9285942"><ele>541.6666666666666</ele><time>2026-03-22T09:22:06.964Z</time></trkpt><trkpt lat="40.6808333" lon="14.9284871"><ele>543.0</ele><time>2026-03-22T09:22:07.962Z</time></trkpt><trkpt lat="40.6808135" lon="14.928398"><ele>540.8333333333334</ele><time>2026-03-22T09:22:08.988Z</time></trkpt><trkpt lat="40.6807932" lon="14.9282602"><ele>538.6666666666666</ele><time>2026-03-22T09:22:10.962Z</time></trkpt><trkpt lat="40.6807791" lon="14.9281328"><ele>536.5</ele><time>2026-03-22T09:22:12.964Z</time></trkpt><trkpt lat="40.680778" lon="14.928041"><ele>534.3333333333333</ele><time>2026-03-22T09:22:13.963Z</time></trkpt><trkpt lat="40.6807765" lon="14.9279374"><ele>532.1666666666666</ele><time>2026-03-22T09:22:14.954Z</time></trkpt><trkpt lat="40.6807799" lon="14.9278382"><ele>530.0</ele><time>2026-03-22T09:22:16.047Z</time></trkpt><trkpt lat="40.6808011" lon="14.9277453"><ele>530.0</ele><time>2026-03-22T09:22:16.956Z</time></trkpt><trkpt lat="40.6808211" lon="14.9276506"><ele>530.0</ele><time>2026-03-22T09:22:17.965Z</time></trkpt><trkpt lat="40.6808499" lon="14.9275589"><ele>530.0</ele><time>2026-03-22T09:22:18.958Z</time></trkpt><trkpt lat="40.6808763" lon="14.9274697"><ele>530.0</ele><time>2026-03-22T09:22:20.042Z</time></trkpt><trkpt lat="40.6808975" lon="14.9273476"><ele>530.0</ele><time>2026-03-22T09:22:21.957Z</time></trkpt><trkpt lat="40.6808984" lon="14.9272476"><ele>530.0</ele><time>2026-03-22T09:22:23.968Z</time></trkpt><trkpt lat="40.6808109" lon="14.9272806"><ele>530.0</ele><time>2026-03-22T09:22:26.978Z</time></trkpt><trkpt lat="40.6807685" lon="14.927354"><ele>530.0</ele><time>2026-03-22T09:22:28.958Z</time></trkpt><trkpt lat="40.6807051" lon="14.9274511"><ele>530.0</ele><time>2026-03-22T09:22:30.958Z</time></trkpt><trkpt lat="40.6806674" lon="14.927635"><ele>530.0</ele><time>2026-03-22T09:22:32.967Z</time></trkpt><trkpt lat="40.6806739" lon="14.9277513"><ele>530.0</ele><time>2026-03-22T09:22:33.961Z</time></trkpt><trkpt lat="40.6806913" lon="14.9278643"><ele>530.0</ele><time>2026-03-22T09:22:35.04Z</time></trkpt><trkpt lat="40.6806991" lon="14.9279691"><ele>530.0</ele><time>2026-03-22T09:22:36.029Z</time></trkpt><trkpt lat="40.6806939" lon="14.9280597"><ele>530.0</ele><time>2026-03-22T09:22:36.956Z</time></trkpt><trkpt lat="40.6806621" lon="14.9282232"><ele>530.0</ele><time>2026-03-22T09:22:38.964Z</time></trkpt><trkpt lat="40.6806528" lon="14.9283091"><ele>530.0</ele><time>2026-03-22T09:22:39.958Z</time></trkpt><trkpt lat="40.6806443" lon="14.9284022"><ele>530.0</ele><time>2026-03-22T09:22:40.954Z</time></trkpt><trkpt lat="40.680646" lon="14.9284866"><ele>532.6</ele><time>2026-03-22T09:22:41.969Z</time></trkpt><trkpt lat="40.6806582" lon="14.928623"><ele>535.2</ele><time>2026-03-22T09:22:44.026Z</time></trkpt><trkpt lat="40.6806938" lon="14.9287647"><ele>537.8</ele><time>2026-03-22T09:22:46.033Z</time></trkpt><trkpt lat="40.6807452" lon="14.9288404"><ele>540.4</ele><time>2026-03-22T09:22:47.951Z</time></trkpt><trkpt lat="40.6807917" lon="14.9289904"><ele>543.0</ele><time>2026-03-22T09:22:49.957Z</time></trkpt><trkpt lat="40.6807767" lon="14.9290963"><ele>543.0</ele><time>2026-03-22T09:22:52.975Z</time></trkpt><trkpt lat="40.6807313" lon="14.9291877"><ele>543.0</ele><time>2026-03-22T09:22:55.034Z</time></trkpt><trkpt lat="40.680698" lon="14.929289"><ele>543.0</ele><time>2026-03-22T09:22:56.956Z</time></trkpt><trkpt lat="40.6806897" lon="14.9294205"><ele>543.0</ele><time>2026-03-22T09:22:59.957Z</time></trkpt><trkpt lat="40.6807309" lon="14.9295182"><ele>543.0</ele><time>2026-03-22T09:23:01.948Z</time></trkpt><trkpt lat="40.6807483" lon="14.9296697"><ele>546.6</ele><time>2026-03-22T09:23:04.042Z</time></trkpt><trkpt lat="40.6807561" lon="14.9298138"><ele>550.1999999999999</ele><time>2026-03-22T09:23:05.95Z</time></trkpt><trkpt lat="40.6807102" lon="14.9299297"><ele>553.8</ele><time>2026-03-22T09:23:07.965Z</time></trkpt><trkpt lat="40.6806944" lon="14.9300704"><ele>557.4</ele><time>2026-03-22T09:23:09.957Z</time></trkpt><trkpt lat="40.6806835" lon="14.930153"><ele>561.0</ele><time>2026-03-22T09:23:10.958Z</time></trkpt><trkpt lat="40.6806657" lon="14.9303143"><ele>564.0</ele><time>2026-03-22T09:23:12.974Z</time></trkpt><trkpt lat="40.6806615" lon="14.9304111"><ele>567.0</ele><time>2026-03-22T09:23:14.029Z</time></trkpt><trkpt lat="40.6806504" lon="14.9305382"><ele>570.0</ele><time>2026-03-22T09:23:16.011Z</time></trkpt><trkpt lat="40.6806821" lon="14.9306389"><ele>573.0</ele><time>2026-03-22T09:23:17.957Z</time></trkpt><trkpt lat="40.6807055" lon="14.9307386"><ele>576.0</ele><time>2026-03-22T09:23:19.956Z</time></trkpt><trkpt lat="40.6806742" lon="14.9308653"><ele>579.0</ele><time>2026-03-22T09:23:22.967Z</time></trkpt><trkpt lat="40.6806447" lon="14.9310113"><ele>580.6666666666666</ele><time>2026-03-22T09:23:24.954Z</time></trkpt><trkpt lat="40.6806025" lon="14.9311658"><ele>582.3333333333334</ele><time>2026-03-22T09:23:26.958Z</time></trkpt><trkpt lat="40.6805908" lon="14.9312607"><ele>584.0</ele><time>2026-03-22T09:23:27.964Z</time></trkpt><trkpt lat="40.6805886" lon="14.9313573"><ele>585.6666666666667</ele><time>2026-03-22T09:23:29.036Z</time></trkpt><trkpt lat="40.6806072" lon="14.9314441"><ele>587.3333333333334</ele><time>2026-03-22T09:23:30.03Z</time></trkpt><trkpt lat="40.6806371" lon="14.9315214"><ele>589.0</ele><time>2026-03-22T09:23:31.029Z</time></trkpt><trkpt lat="40.6806799" lon="14.9315853"><ele>589.0</ele><time>2026-03-22T09:23:31.956Z</time></trkpt><trkpt lat="40.6807344" lon="14.9316593"><ele>589.0</ele><time>2026-03-22T09:23:32.95Z</time></trkpt><trkpt lat="40.680784" lon="14.9317378"><ele>589.0</ele><time>2026-03-22T09:23:33.956Z</time></trkpt><trkpt lat="40.6808348" lon="14.9318265"><ele>589.0</ele><time>2026-03-22T09:23:34.95Z</time></trkpt><trkpt lat="40.6808863" lon="14.9319274"><ele>589.0</ele><time>2026-03-22T09:23:35.95Z</time></trkpt><trkpt lat="40.6809324" lon="14.9320225"><ele>589.0</ele><time>2026-03-22T09:23:36.957Z</time></trkpt><trkpt lat="40.6809812" lon="14.9321053"><ele>587.1666666666667</ele><time>2026-03-22T09:23:37.957Z</time></trkpt><trkpt lat="40.6810396" lon="14.9321675"><ele>585.3333333333334</ele><time>2026-03-22T09:23:38.961Z</time></trkpt><trkpt lat="40.6811045" lon="14.9322059"><ele>583.5</ele><time>2026-03-22T09:23:40.031Z</time></trkpt><trkpt lat="40.6811695" lon="14.9322281"><ele>581.6666666666666</ele><time>2026-03-22T09:23:41.016Z</time></trkpt><trkpt lat="40.6812321" lon="14.9323047"><ele>579.8333333333333</ele><time>2026-03-22T09:23:42.945Z</time></trkpt><trkpt lat="40.6812044" lon="14.9324069"><ele>578.0</ele><time>2026-03-22T09:23:46.989Z</time></trkpt><trkpt lat="40.6812007" lon="14.9325145"><ele>573.3333333333333</ele><time>2026-03-22T09:23:49.956Z</time></trkpt><trkpt lat="40.6811999" lon="14.9326341"><ele>568.6666666666666</ele><time>2026-03-22T09:23:52.963Z</time></trkpt><trkpt lat="40.6812038" lon="14.932741"><ele>564.0</ele><time>2026-03-22T09:23:56.035Z</time></trkpt><trkpt lat="40.681205" lon="14.9328581"><ele>559.3333333333334</ele><time>2026-03-22T09:23:58.953Z</time></trkpt><trkpt lat="40.6812224" lon="14.9329879"><ele>554.6666666666667</ele><time>2026-03-22T09:24:00.957Z</time></trkpt><trkpt lat="40.6811973" lon="14.9330723"><ele>550.0</ele><time>2026-03-22T09:24:02.958Z</time></trkpt><trkpt lat="40.6811757" lon="14.9331704"><ele>550.0</ele><time>2026-03-22T09:24:04.945Z</time></trkpt><trkpt lat="40.6811733" lon="14.9332767"><ele>550.0</ele><time>2026-03-22T09:24:06.952Z</time></trkpt><trkpt lat="40.6811602" lon="14.9333795"><ele>550.0</ele><time>2026-03-22T09:24:08.973Z</time></trkpt><trkpt lat="40.6811469" lon="14.9335085"><ele>550.0</ele><time>2026-03-22T09:24:10.944Z</time></trkpt><trkpt lat="40.6811526" lon="14.9335936"><ele>550.0</ele><time>2026-03-22T09:24:11.955Z</time></trkpt><trkpt lat="40.6811631" lon="14.9337189"><ele>550.0</ele><time>2026-03-22T09:24:14.029Z</time></trkpt><trkpt lat="40.6811965" lon="14.9338542"><ele>547.4</ele><time>2026-03-22T09:24:15.948Z</time></trkpt><trkpt lat="40.6812707" lon="14.933979"><ele>544.8</ele><time>2026-03-22T09:24:17.959Z</time></trkpt><trkpt lat="40.6813118" lon="14.9340545"><ele>542.2</ele><time>2026-03-22T09:24:18.954Z</time></trkpt><trkpt lat="40.6813809" lon="14.9341809"><ele>539.6</ele><time>2026-03-22T09:24:20.96Z</time></trkpt><trkpt lat="40.68142" lon="14.9342525"><ele>537.0</ele><time>2026-03-22T09:24:21.958Z</time></trkpt><trkpt lat="40.6814541" lon="14.9343438"><ele>535.1666666666666</ele><time>2026-03-22T09:24:23.038Z</time></trkpt><trkpt lat="40.6815058" lon="14.9344325"><ele>533.3333333333334</ele><time>2026-03-22T09:24:24.023Z</time></trkpt><trkpt lat="40.6815628" lon="14.9345323"><ele>531.5</ele><time>2026-03-22T09:24:25.037Z</time></trkpt><trkpt lat="40.6816119" lon="14.9346276"><ele>529.6666666666667</ele><time>2026-03-22T09:24:26.034Z</time></trkpt><trkpt lat="40.6816559" lon="14.9346997"><ele>527.8333333333334</ele><time>2026-03-22T09:24:26.962Z</time></trkpt><trkpt lat="40.6816869" lon="14.9347788"><ele>526.0</ele><time>2026-03-22T09:24:28.027Z</time></trkpt><trkpt lat="40.6817211" lon="14.9348993"><ele>526.0</ele><time>2026-03-22T09:24:30.028Z</time></trkpt><trkpt lat="40.6817768" lon="14.9349992"><ele>526.0</ele><time>2026-03-22T09:24:31.965Z</time></trkpt><trkpt lat="40.6818121" lon="14.9350762"><ele>526.0</ele><time>2026-03-22T09:24:32.966Z</time></trkpt><trkpt lat="40.6818538" lon="14.9352217"><ele>526.0</ele><time>2026-03-22T09:24:35.034Z</time></trkpt><trkpt lat="40.6818959" lon="14.93532"><ele>526.0</ele><time>2026-03-22T09:24:36.021Z</time></trkpt><trkpt lat="40.6819512" lon="14.935412"><ele>524.0</ele><time>2026-03-22T09:24:36.955Z</time></trkpt><trkpt lat="40.6820159" lon="14.9354966"><ele>522.0</ele><time>2026-03-22T09:24:37.965Z</time></trkpt><trkpt lat="40.6820836" lon="14.9355732"><ele>520.0</ele><time>2026-03-22T09:24:38.955Z</time></trkpt><trkpt lat="40.6821557" lon="14.935641"><ele>518.0</ele><time>2026-03-22T09:24:39.966Z</time></trkpt><trkpt lat="40.6822378" lon="14.9357123"><ele>516.0</ele><time>2026-03-22T09:24:40.97Z</time></trkpt><trkpt lat="40.6823214" lon="14.9357825"><ele>516.0</ele><time>2026-03-22T09:24:41.958Z</time></trkpt><trkpt lat="40.6824057" lon="14.9358711"><ele>516.0</ele><time>2026-03-22T09:24:42.973Z</time></trkpt><trkpt lat="40.6824825" lon="14.9359788"><ele>516.0</ele><time>2026-03-22T09:24:43.983Z</time></trkpt><trkpt lat="40.6825554" lon="14.9360687"><ele>516.0</ele><time>2026-03-22T09:24:44.965Z</time></trkpt><trkpt lat="40.6826095" lon="14.9361243"><ele>516.0</ele><time>2026-03-22T09:24:45.954Z</time></trkpt><trkpt lat="40.6826789" lon="14.9361396"><ele>516.0</ele><time>2026-03-22T09:24:46.958Z</time></trkpt><trkpt lat="40.682751" lon="14.9361413"><ele>516.0</ele><time>2026-03-22T09:24:47.964Z</time></trkpt><trkpt lat="40.6828243" lon="14.9361355"><ele>516.0</ele><time>2026-03-22T09:47:10.959Z</time></trkpt><trkpt lat="40.6829197" lon="14.9360796"><ele>516.0</ele><time>2026-03-22T09:47:26.036Z</time></trkpt><trkpt lat="40.6829931" lon="14.9360381"><ele>516.0</ele><time>2026-03-22T09:47:26.964Z</time></trkpt><trkpt lat="40.6830643" lon="14.9359816"><ele>516.0</ele><time>2026-03-22T09:47:27.964Z</time></trkpt><trkpt lat="40.6831256" lon="14.9359128"><ele>515.1666666666666</ele><time>2026-03-22T09:47:28.965Z</time></trkpt><trkpt lat="40.6831799" lon="14.9358512"><ele>514.3333333333334</ele><time>2026-03-22T09:47:29.96Z</time></trkpt><trkpt lat="40.6832314" lon="14.9358012"><ele>513.5</ele><time>2026-03-22T09:47:30.963Z</time></trkpt><trkpt lat="40.6832912" lon="14.9357658"><ele>512.6666666666667</ele><time>2026-03-22T09:47:31.945Z</time></trkpt><trkpt lat="40.6833547" lon="14.9357322"><ele>511.83333333333337</ele><time>2026-03-22T09:47:32.975Z</time></trkpt><trkpt lat="40.6834146" lon="14.9356573"><ele>511.0</ele><time>2026-03-22T09:47:34.96Z</time></trkpt><trkpt lat="40.6833914" lon="14.9354741"><ele>511.00000000000006</ele><time>2026-03-22T09:47:36.958Z</time></trkpt><trkpt lat="40.6833961" lon="14.9353859"><ele>511.0</ele><time>2026-03-22T09:47:37.955Z</time></trkpt><trkpt lat="40.6834095" lon="14.9352379"><ele>511.0</ele><time>2026-03-22T09:47:40.04Z</time></trkpt><trkpt lat="40.6834465" lon="14.9350868"><ele>511.0</ele><time>2026-03-22T09:47:41.951Z</time></trkpt><trkpt lat="40.6835007" lon="14.9350047"><ele>511.00000000000006</ele><time>2026-03-22T09:47:42.955Z</time></trkpt><trkpt lat="40.6835448" lon="14.9349417"><ele>511.0</ele><time>2026-03-22T09:47:43.953Z</time></trkpt><trkpt lat="40.6836394" lon="14.9348166"><ele>503.1666666666667</ele><time>2026-03-22T09:47:45.949Z</time></trkpt><trkpt lat="40.683683" lon="14.9347457"><ele>495.33333333333337</ele><time>2026-03-22T09:47:46.954Z</time></trkpt><trkpt lat="40.6837245" lon="14.9346797"><ele>487.5</ele><time>2026-03-22T09:47:47.958Z</time></trkpt><trkpt lat="40.6837976" lon="14.9345913"><ele>479.66666666666663</ele><time>2026-03-22T09:47:49.965Z</time></trkpt><trkpt lat="40.6838972" lon="14.9345835"><ele>471.8333333333333</ele><time>2026-03-22T09:47:51.96Z</time></trkpt><trkpt lat="40.6839701" lon="14.9345705"><ele>464.0</ele><time>2026-03-22T09:47:53.959Z</time></trkpt><trkpt lat="40.6839902" lon="14.9344516"><ele>464.0</ele><time>2026-03-22T09:47:56.028Z</time></trkpt><trkpt lat="40.683928" lon="14.9343275"><ele>464.0</ele><time>2026-03-22T09:47:57.963Z</time></trkpt><trkpt lat="40.6838337" lon="14.9342534"><ele>464.0</ele><time>2026-03-22T09:47:59.964Z</time></trkpt><trkpt lat="40.6837675" lon="14.9341645"><ele>464.0</ele><time>2026-03-22T09:48:02.019Z</time></trkpt><trkpt lat="40.683705" lon="14.9341055"><ele>464.0</ele><time>2026-03-22T09:48:03.955Z</time></trkpt><trkpt lat="40.6836343" lon="14.9341112"><ele>462.16666666666663</ele><time>2026-03-22T09:48:05.966Z</time></trkpt><trkpt lat="40.6835683" lon="14.9340527"><ele>460.3333333333333</ele><time>2026-03-22T09:48:07.97Z</time></trkpt><trkpt lat="40.6835577" lon="14.9339486"><ele>458.5</ele><time>2026-03-22T09:48:09.96Z</time></trkpt><trkpt lat="40.6836463" lon="14.9338439"><ele>456.66666666666663</ele><time>2026-03-22T09:48:11.969Z</time></trkpt><trkpt lat="40.6837074" lon="14.9338065"><ele>454.8333333333333</ele><time>2026-03-22T09:48:12.961Z</time></trkpt><trkpt lat="40.6837587" lon="14.933757"><ele>453.0</ele><time>2026-03-22T09:48:13.963Z</time></trkpt><trkpt lat="40.6838129" lon="14.9337105"><ele>453.0</ele><time>2026-03-22T09:48:14.962Z</time></trkpt><trkpt lat="40.6838805" lon="14.9336633"><ele>452.99999999999994</ele><time>2026-03-22T09:48:15.964Z</time></trkpt><trkpt lat="40.6839418" lon="14.9336031"><ele>452.99999999999994</ele><time>2026-03-22T09:48:16.963Z</time></trkpt><trkpt lat="40.6840278" lon="14.9334991"><ele>453.0</ele><time>2026-03-22T09:48:18.948Z</time></trkpt><trkpt lat="40.6841314" lon="14.9333766"><ele>453.0</ele><time>2026-03-22T09:48:20.962Z</time></trkpt><trkpt lat="40.6841907" lon="14.9332839"><ele>452.1666666666667</ele><time>2026-03-22T09:48:21.964Z</time></trkpt><trkpt lat="40.6842537" lon="14.9331711"><ele>451.33333333333337</ele><time>2026-03-22T09:48:22.965Z</time></trkpt><trkpt lat="40.6843082" lon="14.9330745"><ele>450.5</ele><time>2026-03-22T09:48:23.966Z</time></trkpt><trkpt lat="40.6843417" lon="14.9329696"><ele>449.6666666666667</ele><time>2026-03-22T09:48:24.967Z</time></trkpt><trkpt lat="40.6843514" lon="14.9328725"><ele>448.83333333333337</ele><time>2026-03-22T09:48:25.97Z</time></trkpt><trkpt lat="40.6843632" lon="14.9327569"><ele>448.0</ele><time>2026-03-22T09:48:26.982Z</time></trkpt><trkpt lat="40.6843634" lon="14.9326451"><ele>449.25</ele><time>2026-03-22T09:48:27.963Z</time></trkpt><trkpt lat="40.6843356" lon="14.9325295"><ele>450.5</ele><time>2026-03-22T09:48:28.972Z</time></trkpt><trkpt lat="40.6842639" lon="14.9324017"><ele>451.75</ele><time>2026-03-22T09:48:29.968Z</time></trkpt><trkpt lat="40.6841697" lon="14.9322825"><ele>453.0</ele><time>2026-03-22T09:48:30.97Z</time></trkpt><trkpt lat="40.6840884" lon="14.9321617"><ele>453.0</ele><time>2026-03-22T09:48:31.97Z</time></trkpt><trkpt lat="40.6840294" lon="14.9320881"><ele>452.99999999999994</ele><time>2026-03-22T09:48:32.968Z</time></trkpt><trkpt lat="40.6840278" lon="14.9319947"><ele>452.99999999999994</ele><time>2026-03-22T09:48:34.042Z</time></trkpt><trkpt lat="40.6840534" lon="14.9318659"><ele>453.0</ele><time>2026-03-22T09:48:34.955Z</time></trkpt><trkpt lat="40.6840809" lon="14.9316967"><ele>453.0</ele><time>2026-03-22T09:48:36.036Z</time></trkpt><trkpt lat="40.6841053" lon="14.9315454"><ele>454.4</ele><time>2026-03-22T09:48:36.961Z</time></trkpt><trkpt lat="40.6841343" lon="14.9314216"><ele>455.79999999999995</ele><time>2026-03-22T09:48:37.964Z</time></trkpt><trkpt lat="40.6841888" lon="14.9313054"><ele>457.2</ele><time>2026-03-22T09:48:38.982Z</time></trkpt><trkpt lat="40.6842356" lon="14.9312405"><ele>458.6</ele><time>2026-03-22T09:48:40.025Z</time></trkpt><trkpt lat="40.6842446" lon="14.9310891"><ele>460.0</ele><time>2026-03-22T09:48:41.967Z</time></trkpt><trkpt lat="40.6841854" lon="14.9309732"><ele>460.0</ele><time>2026-03-22T09:48:43.964Z</time></trkpt><trkpt lat="40.6840878" lon="14.9310833"><ele>460.0</ele><time>2026-03-22T09:48:45.969Z</time></trkpt><trkpt lat="40.6840142" lon="14.9311605"><ele>460.0</ele><time>2026-03-22T09:48:46.968Z</time></trkpt><trkpt lat="40.6839411" lon="14.931254"><ele>460.0</ele><time>2026-03-22T09:48:47.966Z</time></trkpt><trkpt lat="40.6838789" lon="14.9313396"><ele>460.0</ele><time>2026-03-22T09:48:49.044Z</time></trkpt><trkpt lat="40.6838396" lon="14.9314274"><ele>460.0</ele><time>2026-03-22T09:48:50.027Z</time></trkpt><trkpt lat="40.6837931" lon="14.9315475"><ele>460.0</ele><time>2026-03-22T09:48:50.967Z</time></trkpt><trkpt lat="40.6837265" lon="14.9317078"><ele>460.0</ele><time>2026-03-22T09:48:51.952Z</time></trkpt><trkpt lat="40.6836673" lon="14.9318768"><ele>460.0</ele><time>2026-03-22T09:48:52.952Z</time></trkpt><trkpt lat="40.6836276" lon="14.9319972"><ele>458.83333333333337</ele><time>2026-03-22T09:48:53.962Z</time></trkpt><trkpt lat="40.6836191" lon="14.9321633"><ele>457.6666666666667</ele><time>2026-03-22T09:48:55.959Z</time></trkpt><trkpt lat="40.683625" lon="14.9322573"><ele>456.5</ele><time>2026-03-22T09:48:56.953Z</time></trkpt><trkpt lat="40.6836325" lon="14.9323604"><ele>455.33333333333337</ele><time>2026-03-22T09:48:57.977Z</time></trkpt><trkpt lat="40.6836331" lon="14.9324685"><ele>454.1666666666667</ele><time>2026-03-22T09:48:58.961Z</time></trkpt><trkpt lat="40.6835844" lon="14.9325519"><ele>453.0</ele><time>2026-03-22T09:49:00.96Z</time></trkpt><trkpt lat="40.6835678" lon="14.9324542"><ele>463.59999999999997</ele><time>2026-03-22T09:49:03.963Z</time></trkpt><trkpt lat="40.6835248" lon="14.932367"><ele>474.19999999999993</ele><time>2026-03-22T09:49:04.958Z</time></trkpt><trkpt lat="40.6834593" lon="14.9322862"><ele>484.8</ele><time>2026-03-22T09:49:06.028Z</time></trkpt><trkpt lat="40.6833911" lon="14.9321938"><ele>495.4</ele><time>2026-03-22T09:49:06.959Z</time></trkpt><trkpt lat="40.6833155" lon="14.9320863"><ele>506.0</ele><time>2026-03-22T09:49:07.968Z</time></trkpt><trkpt lat="40.6832485" lon="14.9319755"><ele>506.0</ele><time>2026-03-22T09:49:09.047Z</time></trkpt><trkpt lat="40.6832123" lon="14.9318943"><ele>506.0</ele><time>2026-03-22T09:49:10.028Z</time></trkpt><trkpt lat="40.6831876" lon="14.9317364"><ele>506.0</ele><time>2026-03-22T09:49:11.954Z</time></trkpt><trkpt lat="40.6832261" lon="14.931609"><ele>506.0</ele><time>2026-03-22T09:49:12.964Z</time></trkpt><trkpt lat="40.6832711" lon="14.931471"><ele>506.0</ele><time>2026-03-22T09:49:13.976Z</time></trkpt><trkpt lat="40.6833147" lon="14.9313708"><ele>505.49999999999994</ele><time>2026-03-22T09:49:15.036Z</time></trkpt><trkpt lat="40.6833365" lon="14.9312841"><ele>505.0</ele><time>2026-03-22T09:49:15.962Z</time></trkpt><trkpt lat="40.6833232" lon="14.9311994"><ele>504.5</ele><time>2026-03-22T09:49:16.941Z</time></trkpt><trkpt lat="40.6832822" lon="14.9311231"><ele>504.0</ele><time>2026-03-22T09:49:17.96Z</time></trkpt><trkpt lat="40.6832179" lon="14.9310367"><ele>503.49999999999994</ele><time>2026-03-22T09:49:18.978Z</time></trkpt><trkpt lat="40.6831645" lon="14.9309339"><ele>503.0</ele><time>2026-03-22T09:49:19.961Z</time></trkpt><trkpt lat="40.6831211" lon="14.9308643"><ele>502.99999999999994</ele><time>2026-03-22T09:49:20.959Z</time></trkpt><trkpt lat="40.683071" lon="14.9307943"><ele>503.0</ele><time>2026-03-22T09:49:21.959Z</time></trkpt><trkpt lat="40.6830236" lon="14.9307363"><ele>503.0</ele><time>2026-03-22T09:49:22.954Z</time></trkpt><trkpt lat="40.6829747" lon="14.9306751"><ele>503.0</ele><time>2026-03-22T09:49:23.96Z</time></trkpt><trkpt lat="40.6829043" lon="14.9306039"><ele>502.99999999999994</ele><time>2026-03-22T09:49:24.952Z</time></trkpt><trkpt lat="40.682803" lon="14.9305413"><ele>503.0</ele><time>2026-03-22T09:49:25.961Z</time></trkpt><trkpt lat="40.6827164" lon="14.9304835"><ele>505.0</ele><time>2026-03-22T09:49:26.956Z</time></trkpt><trkpt lat="40.6826447" lon="14.9304427"><ele>506.99999999999994</ele><time>2026-03-22T09:49:27.956Z</time></trkpt><trkpt lat="40.6826481" lon="14.9305603"><ele>508.99999999999994</ele><time>2026-03-22T09:49:32.961Z</time></trkpt><trkpt lat="40.6826859" lon="14.9306485"><ele>511.0</ele><time>2026-03-22T09:49:33.956Z</time></trkpt><trkpt lat="40.6827611" lon="14.9307957"><ele>513.0</ele><time>2026-03-22T09:49:34.959Z</time></trkpt><trkpt lat="40.6828247" lon="14.9309338"><ele>513.0</ele><time>2026-03-22T09:49:35.952Z</time></trkpt><trkpt lat="40.6828655" lon="14.9310909"><ele>513.0</ele><time>2026-03-22T09:49:36.954Z</time></trkpt><trkpt lat="40.6828871" lon="14.9312367"><ele>513.0</ele><time>2026-03-22T09:49:37.953Z</time></trkpt><trkpt lat="40.6828702" lon="14.9313905"><ele>513.0</ele><time>2026-03-22T09:49:38.954Z</time></trkpt><trkpt lat="40.6828496" lon="14.9315831"><ele>511.25</ele><time>2026-03-22T09:49:39.95Z</time></trkpt><trkpt lat="40.6828229" lon="14.9317748"><ele>509.5</ele><time>2026-03-22T09:49:40.958Z</time></trkpt><trkpt lat="40.6828282" lon="14.931944"><ele>507.75</ele><time>2026-03-22T09:49:41.962Z</time></trkpt><trkpt lat="40.6828564" lon="14.9320955"><ele>506.0</ele><time>2026-03-22T09:49:42.956Z</time></trkpt><trkpt lat="40.682867" lon="14.9322271"><ele>505.99999999999994</ele><time>2026-03-22T09:49:43.964Z</time></trkpt><trkpt lat="40.6828677" lon="14.9323157"><ele>506.0</ele><time>2026-03-22T09:49:44.973Z</time></trkpt><trkpt lat="40.6828146" lon="14.9323962"><ele>506.0</ele><time>2026-03-22T09:49:45.957Z</time></trkpt><trkpt lat="40.6827451" lon="14.9324698"><ele>506.0</ele><time>2026-03-22T09:49:46.96Z</time></trkpt><trkpt lat="40.6826492" lon="14.9325468"><ele>505.99999999999994</ele><time>2026-03-22T09:49:47.95Z</time></trkpt><trkpt lat="40.6825706" lon="14.9326097"><ele>506.0</ele><time>2026-03-22T09:49:49.03Z</time></trkpt><trkpt lat="40.6825013" lon="14.9326617"><ele>508.75</ele><time>2026-03-22T09:49:50.018Z</time></trkpt><trkpt lat="40.6824303" lon="14.9327365"><ele>511.5</ele><time>2026-03-22T09:49:51.031Z</time></trkpt><trkpt lat="40.6823539" lon="14.9328332"><ele>514.25</ele><time>2026-03-22T09:49:51.968Z</time></trkpt><trkpt lat="40.6822742" lon="14.9329565"><ele>517.0</ele><time>2026-03-22T09:49:52.97Z</time></trkpt><trkpt lat="40.6821766" lon="14.9330752"><ele>517.0</ele><time>2026-03-22T09:49:53.987Z</time></trkpt><trkpt lat="40.6820849" lon="14.9332039"><ele>517.0</ele><time>2026-03-22T09:49:55.054Z</time></trkpt><trkpt lat="40.6819935" lon="14.9333161"><ele>517.0</ele><time>2026-03-22T09:49:56.03Z</time></trkpt><trkpt lat="40.6819001" lon="14.9334356"><ele>517.0</ele><time>2026-03-22T09:49:56.958Z</time></trkpt><trkpt lat="40.6818288" lon="14.9335833"><ele>522.0</ele><time>2026-03-22T09:49:57.96Z</time></trkpt><trkpt lat="40.6817692" lon="14.9337547"><ele>527.0</ele><time>2026-03-22T09:49:58.989Z</time></trkpt><trkpt lat="40.6817299" lon="14.9338995"><ele>532.0</ele><time>2026-03-22T09:50:00.027Z</time></trkpt><trkpt lat="40.6817155" lon="14.9340474"><ele>537.0</ele><time>2026-03-22T09:50:01.036Z</time></trkpt><trkpt lat="40.681718" lon="14.9342026"><ele>534.8000000000001</ele><time>2026-03-22T09:50:01.956Z</time></trkpt><trkpt lat="40.6817163" lon="14.9343622"><ele>532.6</ele><time>2026-03-22T09:50:02.962Z</time></trkpt><trkpt lat="40.6817118" lon="14.9344744"><ele>530.4000000000001</ele><time>2026-03-22T09:50:03.978Z</time></trkpt><trkpt lat="40.6817172" lon="14.9346127"><ele>528.2</ele><time>2026-03-22T09:50:06.033Z</time></trkpt><trkpt lat="40.6816497" lon="14.9345209"><ele>526.0</ele><time>2026-03-22T09:50:07.957Z</time></trkpt><trkpt lat="40.6815983" lon="14.934453"><ele>526.0</ele><time>2026-03-22T09:50:08.956Z</time></trkpt><trkpt lat="40.6815445" lon="14.9343856"><ele>526.0</ele><time>2026-03-22T09:50:10.039Z</time></trkpt><trkpt lat="40.6814948" lon="14.9343214"><ele>526.0</ele><time>2026-03-22T09:50:11.03Z</time></trkpt><trkpt lat="40.6814687" lon="14.9341554"><ele>526.0</ele><time>2026-03-22T09:50:12.958Z</time></trkpt><trkpt lat="40.6814605" lon="14.9340211"><ele>526.0</ele><time>2026-03-22T09:50:13.956Z</time></trkpt><trkpt lat="40.6814721" lon="14.9338708"><ele>528.75</ele><time>2026-03-22T09:50:14.951Z</time></trkpt><trkpt lat="40.6814931" lon="14.933724"><ele>531.5</ele><time>2026-03-22T09:50:15.954Z</time></trkpt><trkpt lat="40.681526" lon="14.9335562"><ele>534.25</ele><time>2026-03-22T09:50:16.959Z</time></trkpt><trkpt lat="40.6815725" lon="14.9333903"><ele>537.0</ele><time>2026-03-22T09:50:17.947Z</time></trkpt><trkpt lat="40.6816251" lon="14.9332397"><ele>539.6</ele><time>2026-03-22T09:50:19.021Z</time></trkpt><trkpt lat="40.6816754" lon="14.9330967"><ele>542.2</ele><time>2026-03-22T09:50:20.029Z</time></trkpt><trkpt lat="40.6817249" lon="14.9329741"><ele>544.8</ele><time>2026-03-22T09:50:20.959Z</time></trkpt><trkpt lat="40.6817835" lon="14.9328568"><ele>547.4</ele><time>2026-03-22T09:50:21.962Z</time></trkpt><trkpt lat="40.6818417" lon="14.9327569"><ele>550.0</ele><time>2026-03-22T09:50:22.951Z</time></trkpt><trkpt lat="40.6818928" lon="14.932642"><ele>548.5</ele><time>2026-03-22T09:50:23.964Z</time></trkpt><trkpt lat="40.6819352" lon="14.932531"><ele>547.0</ele><time>2026-03-22T09:50:24.961Z</time></trkpt><trkpt lat="40.6819832" lon="14.9324167"><ele>545.5</ele><time>2026-03-22T09:50:25.965Z</time></trkpt><trkpt lat="40.6820229" lon="14.9322976"><ele>544.0</ele><time>2026-03-22T09:50:26.959Z</time></trkpt><trkpt lat="40.6820597" lon="14.9321966"><ele>542.5</ele><time>2026-03-22T09:50:28.042Z</time></trkpt><trkpt lat="40.6820949" lon="14.9321138"><ele>541.0</ele><time>2026-03-22T09:50:29.028Z</time></trkpt><trkpt lat="40.6821462" lon="14.9320328"><ele>541.0</ele><time>2026-03-22T09:50:30.034Z</time></trkpt><trkpt lat="40.6822095" lon="14.9319611"><ele>541.0</ele><time>2026-03-22T09:50:31.025Z</time></trkpt><trkpt lat="40.6822406" lon="14.9318845"><ele>541.0</ele><time>2026-03-22T09:50:31.957Z</time></trkpt><trkpt lat="40.6822694" lon="14.931805"><ele>541.0</ele><time>2026-03-22T09:50:32.958Z</time></trkpt><trkpt lat="40.6822824" lon="14.9316939"><ele>541.0</ele><time>2026-03-22T09:50:34.068Z</time></trkpt><trkpt lat="40.6822909" lon="14.9315737"><ele>541.0</ele><time>2026-03-22T09:50:35.032Z</time></trkpt><trkpt lat="40.6822968" lon="14.9314872"><ele>542.8</ele><time>2026-03-22T09:50:36.036Z</time></trkpt><trkpt lat="40.6822613" lon="14.9313082"><ele>544.6</ele><time>2026-03-22T09:50:37.972Z</time></trkpt><trkpt lat="40.6822244" lon="14.9312201"><ele>546.4</ele><time>2026-03-22T09:50:39.065Z</time></trkpt><trkpt lat="40.6821788" lon="14.9311302"><ele>548.2</ele><time>2026-03-22T09:50:40.038Z</time></trkpt><trkpt lat="40.6821198" lon="14.9310457"><ele>550.0</ele><time>2026-03-22T09:50:40.959Z</time></trkpt><trkpt lat="40.6820634" lon="14.9309682"><ele>550.0</ele><time>2026-03-22T09:50:41.959Z</time></trkpt><trkpt lat="40.6819903" lon="14.9309168"><ele>550.0</ele><time>2026-03-22T09:50:43.034Z</time></trkpt><trkpt lat="40.6819132" lon="14.9308786"><ele>550.0</ele><time>2026-03-22T09:50:43.943Z</time></trkpt><trkpt lat="40.6818237" lon="14.9308391"><ele>550.0</ele><time>2026-03-22T09:50:45.02Z</time></trkpt><trkpt lat="40.6817258" lon="14.9307926"><ele>550.0</ele><time>2026-03-22T09:50:46.026Z</time></trkpt><trkpt lat="40.6816444" lon="14.9307413"><ele>550.8571428571429</ele><time>2026-03-22T09:50:46.967Z</time></trkpt><trkpt lat="40.681586" lon="14.9306784"><ele>551.7142857142857</ele><time>2026-03-22T09:50:47.967Z</time></trkpt><trkpt lat="40.6815356" lon="14.930609"><ele>552.5714285714286</ele><time>2026-03-22T09:50:48.961Z</time></trkpt><trkpt lat="40.6814903" lon="14.9305295"><ele>553.4285714285714</ele><time>2026-03-22T09:50:49.986Z</time></trkpt><trkpt lat="40.6814775" lon="14.9304472"><ele>554.2857142857143</ele><time>2026-03-22T09:50:51.032Z</time></trkpt><trkpt lat="40.6814466" lon="14.9303627"><ele>555.1428571428571</ele><time>2026-03-22T09:50:51.953Z</time></trkpt><trkpt lat="40.6814113" lon="14.9302602"><ele>556.0</ele><time>2026-03-22T09:50:52.954Z</time></trkpt><trkpt lat="40.6813834" lon="14.9301341"><ele>550.75</ele><time>2026-03-22T09:50:53.966Z</time></trkpt><trkpt lat="40.6813271" lon="14.9300023"><ele>545.5</ele><time>2026-03-22T09:50:54.953Z</time></trkpt><trkpt lat="40.6812667" lon="14.9298837"><ele>540.25</ele><time>2026-03-22T09:50:55.952Z</time></trkpt><trkpt lat="40.6811925" lon="14.9297487"><ele>535.0</ele><time>2026-03-22T09:50:56.953Z</time></trkpt><trkpt lat="40.6811205" lon="14.9296109"><ele>536.3333333333334</ele><time>2026-03-22T09:50:57.96Z</time></trkpt><trkpt lat="40.6810681" lon="14.9294993"><ele>537.6666666666667</ele><time>2026-03-22T09:50:58.958Z</time></trkpt><trkpt lat="40.6810341" lon="14.9294064"><ele>539.0</ele><time>2026-03-22T09:51:00.047Z</time></trkpt><trkpt lat="40.6810112" lon="14.9293178"><ele>540.3333333333334</ele><time>2026-03-22T09:51:01.027Z</time></trkpt><trkpt lat="40.6809713" lon="14.9292267"><ele>541.6666666666666</ele><time>2026-03-22T09:51:01.978Z</time></trkpt><trkpt lat="40.6809276" lon="14.9291391"><ele>543.0</ele><time>2026-03-22T09:51:02.98Z</time></trkpt><trkpt lat="40.6809198" lon="14.9289824"><ele>543.0</ele><time>2026-03-22T09:51:04.985Z</time></trkpt><trkpt lat="40.6809233" lon="14.9288559"><ele>543.0</ele><time>2026-03-22T09:51:06.984Z</time></trkpt><trkpt lat="40.6808974" lon="14.9287672"><ele>543.0</ele><time>2026-03-22T09:51:08.028Z</time></trkpt><trkpt lat="40.6808649" lon="14.9286488"><ele>543.0</ele><time>2026-03-22T09:51:09.027Z</time></trkpt><trkpt lat="40.6808367" lon="14.9285441"><ele>543.0</ele><time>2026-03-22T09:51:10.039Z</time></trkpt><trkpt lat="40.6808173" lon="14.928435"><ele>543.0</ele><time>2026-03-22T09:51:10.965Z</time></trkpt><trkpt lat="40.6808022" lon="14.9283236"><ele>540.8333333333334</ele><time>2026-03-22T09:51:11.963Z</time></trkpt><trkpt lat="40.6807978" lon="14.9281799"><ele>538.6666666666666</ele><time>2026-03-22T09:51:13.958Z</time></trkpt><trkpt lat="40.6808046" lon="14.9280882"><ele>536.5</ele><time>2026-03-22T09:51:14.963Z</time></trkpt><trkpt lat="40.6808095" lon="14.9279744"><ele>534.3333333333333</ele><time>2026-03-22T09:51:15.962Z</time></trkpt><trkpt lat="40.6808097" lon="14.92786"><ele>532.1666666666666</ele><time>2026-03-22T09:51:16.964Z</time></trkpt><trkpt lat="40.6808138" lon="14.9277483"><ele>530.0</ele><time>2026-03-22T09:51:18.027Z</time></trkpt><trkpt lat="40.6808367" lon="14.9276246"><ele>529.0</ele><time>2026-03-22T09:51:19.037Z</time></trkpt><trkpt lat="40.6808632" lon="14.9275125"><ele>528.0</ele><time>2026-03-22T09:51:19.96Z</time></trkpt><trkpt lat="40.6808967" lon="14.92742"><ele>527.0</ele><time>2026-03-22T09:51:21.015Z</time></trkpt><trkpt lat="40.6809361" lon="14.9273071"><ele>526.0</ele><time>2026-03-22T09:51:22.953Z</time></trkpt><trkpt lat="40.6808817" lon="14.9272546"><ele>525.0</ele><time>2026-03-22T09:51:24.957Z</time></trkpt><trkpt lat="40.6808124" lon="14.9273205"><ele>524.0</ele><time>2026-03-22T09:51:26.997Z</time></trkpt><trkpt lat="40.6807719" lon="14.9274858"><ele>525.0</ele><time>2026-03-22T09:51:29.046Z</time></trkpt><trkpt lat="40.6807458" lon="14.9275759"><ele>526.0</ele><time>2026-03-22T09:51:29.955Z</time></trkpt><trkpt lat="40.6807229" lon="14.9276738"><ele>527.0</ele><time>2026-03-22T09:51:30.95Z</time></trkpt><trkpt lat="40.6807221" lon="14.9277876"><ele>528.0</ele><time>2026-03-22T09:51:31.956Z</time></trkpt><trkpt lat="40.6807273" lon="14.9279119"><ele>529.0</ele><time>2026-03-22T09:51:32.952Z</time></trkpt><trkpt lat="40.6807318" lon="14.9280137"><ele>530.0</ele><time>2026-03-22T09:51:33.959Z</time></trkpt><trkpt lat="40.6807307" lon="14.9281003"><ele>530.0</ele><time>2026-03-22T09:51:34.959Z</time></trkpt><trkpt lat="40.6806937" lon="14.9282597"><ele>530.0</ele><time>2026-03-22T09:51:36.962Z</time></trkpt><trkpt lat="40.680678" lon="14.9283544"><ele>530.0</ele><time>2026-03-22T09:51:37.958Z</time></trkpt><trkpt lat="40.6806742" lon="14.9285233"><ele>530.0</ele><time>2026-03-22T09:51:39.955Z</time></trkpt><trkpt lat="40.6806692" lon="14.9286108"><ele>530.0</ele><time>2026-03-22T09:51:40.958Z</time></trkpt><trkpt lat="40.680692" lon="14.9287668"><ele>532.6</ele><time>2026-03-22T09:51:42.953Z</time></trkpt><trkpt lat="40.6807479" lon="14.9288282"><ele>535.2</ele><time>2026-03-22T09:51:44.954Z</time></trkpt><trkpt lat="40.6808051" lon="14.9289259"><ele>537.8</ele><time>2026-03-22T09:51:46.953Z</time></trkpt><trkpt lat="40.6808407" lon="14.9290393"><ele>540.4</ele><time>2026-03-22T09:51:48.957Z</time></trkpt><trkpt lat="40.6808158" lon="14.9291312"><ele>543.0</ele><time>2026-03-22T09:51:50.96Z</time></trkpt><trkpt lat="40.6807679" lon="14.9292942"><ele>546.0</ele><time>2026-03-22T09:51:53.026Z</time></trkpt><trkpt lat="40.680733" lon="14.9293685"><ele>549.0</ele><time>2026-03-22T09:51:54.01Z</time></trkpt><trkpt lat="40.6807013" lon="14.9294686"><ele>552.0</ele><time>2026-03-22T09:51:56.957Z</time></trkpt><trkpt lat="40.6807206" lon="14.9295735"><ele>555.0</ele><time>2026-03-22T09:52:00.015Z</time></trkpt><trkpt lat="40.6807651" lon="14.9296969"><ele>558.0</ele><time>2026-03-22T09:52:02.963Z</time></trkpt><trkpt lat="40.6807406" lon="14.92983"><ele>561.0</ele><time>2026-03-22T09:52:04.965Z</time></trkpt><trkpt lat="40.6807104" lon="14.929998"><ele>564.0</ele><time>2026-03-22T09:52:06.963Z</time></trkpt><trkpt lat="40.6806793" lon="14.9301056"><ele>567.0</ele><time>2026-03-22T09:52:07.96Z</time></trkpt><trkpt lat="40.6806602" lon="14.9302023"><ele>570.0</ele><time>2026-03-22T09:52:08.957Z</time></trkpt><trkpt lat="40.6806473" lon="14.9303074"><ele>573.0</ele><time>2026-03-22T09:52:09.96Z</time></trkpt><trkpt lat="40.6806479" lon="14.9304054"><ele>576.0</ele><time>2026-03-22T09:52:10.955Z</time></trkpt><trkpt lat="40.6806529" lon="14.9304907"><ele>579.0</ele><time>2026-03-22T09:52:11.955Z</time></trkpt><trkpt lat="40.6806959" lon="14.9306348"><ele>579.0</ele><time>2026-03-22T09:52:13.951Z</time></trkpt><trkpt lat="40.6807039" lon="14.930776"><ele>579.0</ele><time>2026-03-22T09:52:15.963Z</time></trkpt><trkpt lat="40.6806698" lon="14.9309258"><ele>579.0</ele><time>2026-03-22T09:52:17.955Z</time></trkpt><trkpt lat="40.6806382" lon="14.9310109"><ele>579.0</ele><time>2026-03-22T09:52:18.955Z</time></trkpt><trkpt lat="40.6806163" lon="14.9311031"><ele>579.0</ele><time>2026-03-22T09:52:20.016Z</time></trkpt><trkpt lat="40.6805908" lon="14.9312005"><ele>579.0</ele><time>2026-03-22T09:52:21.021Z</time></trkpt><trkpt lat="40.6805754" lon="14.9313099"><ele>578.8</ele><time>2026-03-22T09:52:21.946Z</time></trkpt><trkpt lat="40.6805851" lon="14.9314272"><ele>578.5999999999999</ele><time>2026-03-22T09:52:22.953Z</time></trkpt><trkpt lat="40.6806306" lon="14.9315469"><ele>578.4</ele><time>2026-03-22T09:52:23.959Z</time></trkpt><trkpt lat="40.6807102" lon="14.9316517"><ele>578.1999999999999</ele><time>2026-03-22T09:52:24.956Z</time></trkpt><trkpt lat="40.6807971" lon="14.9317701"><ele>578.0</ele><time>2026-03-22T09:52:25.955Z</time></trkpt><trkpt lat="40.6808776" lon="14.9319011"><ele>578.0</ele><time>2026-03-22T09:52:26.947Z</time></trkpt><trkpt lat="40.6809425" lon="14.9320338"><ele>578.0</ele><time>2026-03-22T09:52:27.96Z</time></trkpt><trkpt lat="40.6809962" lon="14.9321315"><ele>578.0</ele><time>2026-03-22T09:52:28.952Z</time></trkpt><trkpt lat="40.6810579" lon="14.9322014"><ele>578.0</ele><time>2026-03-22T09:52:29.965Z</time></trkpt><trkpt lat="40.6811271" lon="14.9322467"><ele>578.0</ele><time>2026-03-22T09:52:30.956Z</time></trkpt><trkpt lat="40.6811939" lon="14.9322747"><ele>578.0</ele><time>2026-03-22T09:52:31.954Z</time></trkpt><trkpt lat="40.6812482" lon="14.9323408"><ele>577.0</ele><time>2026-03-22T09:52:33.952Z</time></trkpt><trkpt lat="40.6811869" lon="14.9324242"><ele>576.0</ele><time>2026-03-22T09:52:36.959Z</time></trkpt><trkpt lat="40.6812079" lon="14.9325699"><ele>575.0</ele><time>2026-03-22T09:52:40.034Z</time></trkpt><trkpt lat="40.6812185" lon="14.9326554"><ele>574.0</ele><time>2026-03-22T09:52:41.969Z</time></trkpt><trkpt lat="40.6812297" lon="14.9327429"><ele>573.0</ele><time>2026-03-22T09:52:43.974Z</time></trkpt><trkpt lat="40.6812234" lon="14.9328305"><ele>572.0</ele><time>2026-03-22T09:52:45.995Z</time></trkpt><trkpt lat="40.6812251" lon="14.9329159"><ele>568.3333333333333</ele><time>2026-03-22T09:52:47.974Z</time></trkpt><trkpt lat="40.6812274" lon="14.9330153"><ele>564.6666666666666</ele><time>2026-03-22T09:52:49.972Z</time></trkpt><trkpt lat="40.6812115" lon="14.9331068"><ele>561.0</ele><time>2026-03-22T09:52:51.968Z</time></trkpt><trkpt lat="40.6812103" lon="14.9332028"><ele>557.3333333333334</ele><time>2026-03-22T09:52:53.977Z</time></trkpt><trkpt lat="40.68121" lon="14.9333212"><ele>553.6666666666667</ele><time>2026-03-22T09:52:55.978Z</time></trkpt><trkpt lat="40.6812056" lon="14.9334415"><ele>550.0</ele><time>2026-03-22T09:52:58.027Z</time></trkpt><trkpt lat="40.6811843" lon="14.9336132"><ele>547.4</ele><time>2026-03-22T09:53:00.066Z</time></trkpt><trkpt lat="40.6811969" lon="14.9337515"><ele>544.8</ele><time>2026-03-22T09:53:01.96Z</time></trkpt><trkpt lat="40.681216" lon="14.9338882"><ele>542.2</ele><time>2026-03-22T09:53:03.971Z</time></trkpt><trkpt lat="40.6812879" lon="14.9340068"><ele>539.6</ele><time>2026-03-22T09:53:05.948Z</time></trkpt><trkpt lat="40.6813401" lon="14.9340787"><ele>537.0</ele><time>2026-03-22T09:53:06.961Z</time></trkpt><trkpt lat="40.6813911" lon="14.9341619"><ele>534.8000000000001</ele><time>2026-03-22T09:53:07.961Z</time></trkpt><trkpt lat="40.6814302" lon="14.9342326"><ele>532.6</ele><time>2026-03-22T09:53:09.044Z</time></trkpt><trkpt lat="40.6815144" lon="14.9343791"><ele>530.4000000000001</ele><time>2026-03-22T09:53:10.949Z</time></trkpt><trkpt lat="40.6815673" lon="14.934478"><ele>528.2</ele><time>2026-03-22T09:53:11.975Z</time></trkpt><trkpt lat="40.6816158" lon="14.9345815"><ele>526.0</ele><time>2026-03-22T09:53:12.962Z</time></trkpt><trkpt lat="40.6816681" lon="14.934689"><ele>526.0</ele><time>2026-03-22T09:53:13.969Z</time></trkpt><trkpt lat="40.6817082" lon="14.9347736"><ele>526.0</ele><time>2026-03-22T09:53:15.054Z</time></trkpt><trkpt lat="40.6817535" lon="14.9349177"><ele>526.0</ele><time>2026-03-22T09:53:16.972Z</time></trkpt><trkpt lat="40.6817914" lon="14.935027"><ele>526.0</ele><time>2026-03-22T09:53:18.996Z</time></trkpt><trkpt lat="40.6818464" lon="14.9351338"><ele>526.0</ele><time>2026-03-22T09:53:20.975Z</time></trkpt><trkpt lat="40.6818666" lon="14.9352243"><ele>524.3333333333334</ele><time>2026-03-22T09:53:21.967Z</time></trkpt><trkpt lat="40.6818927" lon="14.9353006"><ele>522.6666666666667</ele><time>2026-03-22T09:53:23.047Z</time></trkpt><trkpt lat="40.6819503" lon="14.9353955"><ele>521.0</ele><time>2026-03-22T09:53:23.968Z</time></trkpt><trkpt lat="40.6820095" lon="14.935496"><ele>519.3333333333334</ele><time>2026-03-22T09:53:24.948Z</time></trkpt><trkpt lat="40.682071" lon="14.9355954"><ele>517.6666666666666</ele><time>2026-03-22T09:53:25.964Z</time></trkpt><trkpt lat="40.6821336" lon="14.935684"><ele>516.0</ele><time>2026-03-22T09:53:26.961Z</time></trkpt><trkpt lat="40.682213" lon="14.9357413"><ele>516.0</ele><time>2026-03-22T09:53:27.967Z</time></trkpt><trkpt lat="40.6822898" lon="14.9357965"><ele>516.0</ele><time>2026-03-22T09:53:28.964Z</time></trkpt><trkpt lat="40.6823621" lon="14.9358622"><ele>516.0</ele><time>2026-03-22T09:53:29.969Z</time></trkpt><trkpt lat="40.6824299" lon="14.9359377"><ele>516.0</ele><time>2026-03-22T09:53:30.974Z</time></trkpt><trkpt lat="40.6825015" lon="14.9360288"><ele>516.0</ele><time>2026-03-22T09:53:31.962Z</time></trkpt><trkpt lat="40.6825716" lon="14.9361324"><ele>516.0</ele><time>2026-03-22T09:53:33.032Z</time></trkpt><trkpt lat="40.6826307" lon="14.9361771"><ele>516.0</ele><time>2026-03-22T09:53:34.032Z</time></trkpt><trkpt lat="40.6827719" lon="14.9361801"><ele>516.0</ele><time>2026-03-22T09:53:35.962Z</time></trkpt><trkpt lat="40.6828868" lon="14.9361416"><ele>516.0</ele><time>2026-03-22T09:53:36.971Z</time></trkpt><trkpt lat="40.6829818" lon="14.936078"><ele>516.0</ele><time>2026-03-22T09:53:37.966Z</time></trkpt><trkpt lat="40.6830647" lon="14.9360099"><ele>516.8333333333334</ele><time>2026-03-22T09:53:38.97Z</time></trkpt><trkpt lat="40.6831296" lon="14.9359367"><ele>517.6666666666666</ele><time>2026-03-22T09:53:39.966Z</time></trkpt><trkpt lat="40.6832014" lon="14.9358558"><ele>518.5</ele><time>2026-03-22T09:53:41.039Z</time></trkpt><trkpt lat="40.6832656" lon="14.935791"><ele>519.3333333333333</ele><time>2026-03-22T09:53:41.956Z</time></trkpt><trkpt lat="40.6833248" lon="14.9357552"><ele>520.1666666666666</ele><time>2026-03-22T09:53:42.963Z</time></trkpt><trkpt lat="40.6834111" lon="14.9356973"><ele>521.0</ele><time>2026-03-22T09:53:45.039Z</time></trkpt><trkpt lat="40.683407" lon="14.9355698"><ele>519.3333333333333</ele><time>2026-03-22T09:53:46.935Z</time></trkpt><trkpt lat="40.6833944" lon="14.9354688"><ele>517.6666666666666</ele><time>2026-03-22T09:53:47.938Z</time></trkpt><trkpt lat="40.683391" lon="14.9353705"><ele>516.0</ele><time>2026-03-22T09:53:49.005Z</time></trkpt><trkpt lat="40.6834197" lon="14.9352203"><ele>514.3333333333334</ele><time>2026-03-22T09:53:51.012Z</time></trkpt><trkpt lat="40.6834507" lon="14.9351382"><ele>512.6666666666667</ele><time>2026-03-22T09:53:51.95Z</time></trkpt><trkpt lat="40.6834919" lon="14.9350524"><ele>511.0</ele><time>2026-03-22T09:53:52.951Z</time></trkpt><trkpt lat="40.6835358" lon="14.934974"><ele>503.1666666666667</ele><time>2026-03-22T09:53:53.959Z</time></trkpt><trkpt lat="40.6836217" lon="14.9348569"><ele>495.33333333333337</ele><time>2026-03-22T09:53:55.945Z</time></trkpt><trkpt lat="40.6836699" lon="14.9347954"><ele>487.5</ele><time>2026-03-22T09:53:56.95Z</time></trkpt><trkpt lat="40.6837197" lon="14.934725"><ele>479.66666666666663</ele><time>2026-03-22T09:53:58.018Z</time></trkpt><trkpt lat="40.6837623" lon="14.9346621"><ele>471.8333333333333</ele><time>2026-03-22T09:53:59.027Z</time></trkpt><trkpt lat="40.6838268" lon="14.9345838"><ele>464.0</ele><time>2026-03-22T09:54:00.962Z</time></trkpt><trkpt lat="40.6839289" lon="14.9346007"><ele>463.99999999999994</ele><time>2026-03-22T09:54:02.961Z</time></trkpt><trkpt lat="40.6839942" lon="14.9345818"><ele>464.0</ele><time>2026-03-22T09:54:04.956Z</time></trkpt><trkpt lat="40.6840017" lon="14.934497"><ele>464.0</ele><time>2026-03-22T09:54:06.962Z</time></trkpt><trkpt lat="40.6839618" lon="14.9344022"><ele>464.0</ele><time>2026-03-22T09:54:08.951Z</time></trkpt><trkpt lat="40.6838902" lon="14.9343254"><ele>463.99999999999994</ele><time>2026-03-22T09:54:10.949Z</time></trkpt><trkpt lat="40.6838272" lon="14.9342339"><ele>464.0</ele><time>2026-03-22T09:54:12.961Z</time></trkpt><trkpt lat="40.6837805" lon="14.9341663"><ele>462.16666666666663</ele><time>2026-03-22T09:54:15.022Z</time></trkpt><trkpt lat="40.6837112" lon="14.9341122"><ele>460.3333333333333</ele><time>2026-03-22T09:54:17.963Z</time></trkpt><trkpt lat="40.6836334" lon="14.934084"><ele>458.5</ele><time>2026-03-22T09:54:19.96Z</time></trkpt><trkpt lat="40.6835958" lon="14.9340022"><ele>456.66666666666663</ele><time>2026-03-22T09:54:21.956Z</time></trkpt><trkpt lat="40.6836258" lon="14.9339039"><ele>454.8333333333333</ele><time>2026-03-22T09:54:24.954Z</time></trkpt><trkpt lat="40.6837118" lon="14.9338235"><ele>453.0</ele><time>2026-03-22T09:54:26.946Z</time></trkpt><trkpt lat="40.6838221" lon="14.9337494"><ele>453.0</ele><time>2026-03-22T09:54:28.959Z</time></trkpt><trkpt lat="40.683885" lon="14.9337002"><ele>452.99999999999994</ele><time>2026-03-22T09:54:30.049Z</time></trkpt><trkpt lat="40.6839442" lon="14.9336483"><ele>452.99999999999994</ele><time>2026-03-22T09:54:31.031Z</time></trkpt><trkpt lat="40.6840375" lon="14.9335579"><ele>453.0</ele><time>2026-03-22T09:54:33.08Z</time></trkpt><trkpt lat="40.6841186" lon="14.9334096"><ele>453.0</ele><time>2026-03-22T09:54:35.029Z</time></trkpt><trkpt lat="40.6841705" lon="14.9333243"><ele>452.1666666666667</ele><time>2026-03-22T09:54:36.024Z</time></trkpt><trkpt lat="40.6842296" lon="14.9332267"><ele>451.33333333333337</ele><time>2026-03-22T09:54:36.954Z</time></trkpt><trkpt lat="40.6842889" lon="14.9331221"><ele>450.5</ele><time>2026-03-22T09:54:37.958Z</time></trkpt><trkpt lat="40.6843167" lon="14.9330222"><ele>449.6666666666667</ele><time>2026-03-22T09:54:38.97Z</time></trkpt><trkpt lat="40.6843523" lon="14.9329112"><ele>448.83333333333337</ele><time>2026-03-22T09:54:40.028Z</time></trkpt><trkpt lat="40.6843622" lon="14.9328074"><ele>448.0</ele><time>2026-03-22T09:54:41.032Z</time></trkpt><trkpt lat="40.6843499" lon="14.9326945"><ele>448.0</ele><time>2026-03-22T09:54:41.949Z</time></trkpt><trkpt lat="40.6843145" lon="14.9325663"><ele>448.0</ele><time>2026-03-22T09:54:42.953Z</time></trkpt><trkpt lat="40.6842704" lon="14.9324327"><ele>448.0</ele><time>2026-03-22T09:54:43.948Z</time></trkpt><trkpt lat="40.6841844" lon="14.9323183"><ele>448.0</ele><time>2026-03-22T09:54:45.046Z</time></trkpt><trkpt lat="40.6840877" lon="14.9322092"><ele>449.0</ele><time>2026-03-22T09:54:46.034Z</time></trkpt><trkpt lat="40.6840346" lon="14.9321274"><ele>449.99999999999994</ele><time>2026-03-22T09:54:46.988Z</time></trkpt><trkpt lat="40.6840339" lon="14.9319941"><ele>450.99999999999994</ele><time>2026-03-22T09:54:49.029Z</time></trkpt><trkpt lat="40.684041" lon="14.9318953"><ele>452.0</ele><time>2026-03-22T09:54:49.95Z</time></trkpt><trkpt lat="40.6840566" lon="14.9317586"><ele>453.0</ele><time>2026-03-22T09:54:51.015Z</time></trkpt><trkpt lat="40.6840933" lon="14.9316029"><ele>454.4</ele><time>2026-03-22T09:54:51.943Z</time></trkpt><trkpt lat="40.6841259" lon="14.9314789"><ele>455.79999999999995</ele><time>2026-03-22T09:54:53.014Z</time></trkpt><trkpt lat="40.6841928" lon="14.9313818"><ele>457.2</ele><time>2026-03-22T09:54:54.033Z</time></trkpt><trkpt lat="40.6842555" lon="14.9312884"><ele>458.6</ele><time>2026-03-22T09:54:55.04Z</time></trkpt><trkpt lat="40.6842739" lon="14.9311923"><ele>460.0</ele><time>2026-03-22T09:54:56.957Z</time></trkpt><trkpt lat="40.68427" lon="14.9310404"><ele>460.00000000000006</ele><time>2026-03-22T09:54:58.961Z</time></trkpt><trkpt lat="40.6841716" lon="14.9310367"><ele>460.0</ele><time>2026-03-22T09:55:01.966Z</time></trkpt><trkpt lat="40.6841197" lon="14.9310904"><ele>460.0</ele><time>2026-03-22T09:55:02.968Z</time></trkpt><trkpt lat="40.6840702" lon="14.9311453"><ele>460.0</ele><time>2026-03-22T09:55:03.986Z</time></trkpt><trkpt lat="40.6839959" lon="14.9312452"><ele>460.00000000000006</ele><time>2026-03-22T09:55:04.947Z</time></trkpt><trkpt lat="40.6839322" lon="14.9313473"><ele>460.0</ele><time>2026-03-22T09:55:05.965Z</time></trkpt><trkpt lat="40.6838646" lon="14.931506"><ele>460.0</ele><time>2026-03-22T09:55:06.969Z</time></trkpt><trkpt lat="40.6837897" lon="14.9316662"><ele>460.0</ele><time>2026-03-22T09:55:07.967Z</time></trkpt><trkpt lat="40.6837186" lon="14.931834"><ele>460.0</ele><time>2026-03-22T09:55:08.966Z</time></trkpt><trkpt lat="40.6836694" lon="14.9319711"><ele>460.0</ele><time>2026-03-22T09:55:09.958Z</time></trkpt><trkpt lat="40.6836332" lon="14.9320875"><ele>458.83333333333337</ele><time>2026-03-22T09:55:11.036Z</time></trkpt><trkpt lat="40.683627" lon="14.9321786"><ele>457.6666666666667</ele><time>2026-03-22T09:55:11.947Z</time></trkpt><trkpt lat="40.6836402" lon="14.932267"><ele>456.5</ele><time>2026-03-22T09:55:12.944Z</time></trkpt><trkpt lat="40.6836497" lon="14.9323844"><ele>455.33333333333337</ele><time>2026-03-22T09:55:13.944Z</time></trkpt><trkpt lat="40.6836548" lon="14.9324745"><ele>454.1666666666667</ele><time>2026-03-22T09:55:14.956Z</time></trkpt><trkpt lat="40.683639" lon="14.932585"><ele>453.0</ele><time>2026-03-22T09:55:16.956Z</time></trkpt><trkpt lat="40.6836016" lon="14.9324812"><ele>463.59999999999997</ele><time>2026-03-22T09:55:20.964Z</time></trkpt><trkpt lat="40.6835582" lon="14.932353"><ele>474.19999999999993</ele><time>2026-03-22T09:55:22.962Z</time></trkpt><trkpt lat="40.6834937" lon="14.9322412"><ele>484.8</ele><time>2026-03-22T09:55:23.953Z</time></trkpt><trkpt lat="40.6834197" lon="14.9321459"><ele>495.4</ele><time>2026-03-22T09:55:24.946Z</time></trkpt><trkpt lat="40.6833526" lon="14.9320386"><ele>506.0</ele><time>2026-03-22T09:55:25.957Z</time></trkpt><trkpt lat="40.683308" lon="14.9319501"><ele>506.0</ele><time>2026-03-22T09:55:26.955Z</time></trkpt><trkpt lat="40.6832761" lon="14.9318293"><ele>506.0</ele><time>2026-03-22T09:55:28.956Z</time></trkpt><trkpt lat="40.6832935" lon="14.9316574"><ele>506.0</ele><time>2026-03-22T09:55:30.954Z</time></trkpt><trkpt lat="40.6833187" lon="14.9315365"><ele>506.0</ele><time>2026-03-22T09:55:31.958Z</time></trkpt><trkpt lat="40.6833503" lon="14.9314183"><ele>506.0</ele><time>2026-03-22T09:55:33.05Z</time></trkpt><trkpt lat="40.6833677" lon="14.9313161"><ele>505.4</ele><time>2026-03-22T09:55:34.032Z</time></trkpt><trkpt lat="40.6833291" lon="14.931163"><ele>504.8</ele><time>2026-03-22T09:55:35.969Z</time></trkpt><trkpt lat="40.6832731" lon="14.9310466"><ele>504.19999999999993</ele><time>2026-03-22T09:55:36.959Z</time></trkpt><trkpt lat="40.6832113" lon="14.9309119"><ele>503.59999999999997</ele><time>2026-03-22T09:55:37.962Z</time></trkpt><trkpt lat="40.6831649" lon="14.9308191"><ele>503.0</ele><time>2026-03-22T09:55:38.966Z</time></trkpt><trkpt lat="40.6831132" lon="14.9307472"><ele>502.99999999999994</ele><time>2026-03-22T09:55:40.012Z</time></trkpt><trkpt lat="40.6830602" lon="14.9306862"><ele>503.0</ele><time>2026-03-22T09:55:40.952Z</time></trkpt><trkpt lat="40.682999" lon="14.9306259"><ele>503.0</ele><time>2026-03-22T09:55:41.96Z</time></trkpt><trkpt lat="40.6829493" lon="14.9305694"><ele>503.0</ele><time>2026-03-22T09:55:42.958Z</time></trkpt><trkpt lat="40.6828914" lon="14.9305293"><ele>502.99999999999994</ele><time>2026-03-22T09:55:44.047Z</time></trkpt><trkpt lat="40.6828063" lon="14.930465"><ele>503.0</ele><time>2026-03-22T09:55:45.961Z</time></trkpt><trkpt lat="40.6827279" lon="14.9304538"><ele>503.0</ele><time>2026-03-22T09:55:47.964Z</time></trkpt><trkpt lat="40.6827314" lon="14.9305447"><ele>502.99999999999994</ele><time>2026-03-22T09:55:50.97Z</time></trkpt><trkpt lat="40.6827719" lon="14.930723"><ele>502.99999999999994</ele><time>2026-03-22T09:55:52.965Z</time></trkpt><trkpt lat="40.6828082" lon="14.9308504"><ele>503.0</ele><time>2026-03-22T09:55:53.968Z</time></trkpt><trkpt lat="40.6828453" lon="14.9309892"><ele>503.0</ele><time>2026-03-22T09:55:54.963Z</time></trkpt><trkpt lat="40.6828707" lon="14.9311573"><ele>503.75</ele><time>2026-03-22T09:55:55.965Z</time></trkpt><trkpt lat="40.6828801" lon="14.931324"><ele>504.5</ele><time>2026-03-22T09:55:56.973Z</time></trkpt><trkpt lat="40.682867" lon="14.9314695"><ele>505.25</ele><time>2026-03-22T09:55:57.957Z</time></trkpt><trkpt lat="40.6828403" lon="14.9316253"><ele>506.0</ele><time>2026-03-22T09:55:58.965Z</time></trkpt><trkpt lat="40.6828326" lon="14.9318091"><ele>506.0</ele><time>2026-03-22T09:55:59.966Z</time></trkpt><trkpt lat="40.6828417" lon="14.9319864"><ele>506.0</ele><time>2026-03-22T09:56:00.966Z</time></trkpt><trkpt lat="40.6828615" lon="14.932138"><ele>506.0</ele><time>2026-03-22T09:56:01.976Z</time></trkpt><trkpt lat="40.6828655" lon="14.9322554"><ele>506.0</ele><time>2026-03-22T09:56:02.97Z</time></trkpt><trkpt lat="40.6828565" lon="14.932346"><ele>506.0</ele><time>2026-03-22T09:56:03.974Z</time></trkpt><trkpt lat="40.6828094" lon="14.9324227"><ele>508.75</ele><time>2026-03-22T09:56:05.035Z</time></trkpt><trkpt lat="40.6826864" lon="14.932533"><ele>511.5</ele><time>2026-03-22T09:56:07.002Z</time></trkpt><trkpt lat="40.6825839" lon="14.9325861"><ele>514.25</ele><time>2026-03-22T09:56:08.033Z</time></trkpt><trkpt lat="40.6824946" lon="14.9326413"><ele>517.0</ele><time>2026-03-22T09:56:09.028Z</time></trkpt><trkpt lat="40.6824007" lon="14.9327105"><ele>517.0</ele><time>2026-03-22T09:56:10.031Z</time></trkpt><trkpt lat="40.6823139" lon="14.9327964"><ele>517.0</ele><time>2026-03-22T09:56:11.021Z</time></trkpt><trkpt lat="40.6822208" lon="14.9329073"><ele>517.0</ele><time>2026-03-22T09:56:11.953Z</time></trkpt><trkpt lat="40.6821266" lon="14.9330433"><ele>517.0</ele><time>2026-03-22T09:56:13.039Z</time></trkpt><trkpt lat="40.6820477" lon="14.9331854"><ele>517.0</ele><time>2026-03-22T09:56:13.966Z</time></trkpt><trkpt lat="40.6819728" lon="14.9333072"><ele>517.0</ele><time>2026-03-22T09:56:15.034Z</time></trkpt><trkpt lat="40.6818885" lon="14.9334285"><ele>517.0</ele><time>2026-03-22T09:56:16.038Z</time></trkpt><trkpt lat="40.6818149" lon="14.9335719"><ele>517.0</ele><time>2026-03-22T09:56:16.969Z</time></trkpt><trkpt lat="40.6817615" lon="14.9337462"><ele>518.8000000000001</ele><time>2026-03-22T09:56:17.983Z</time></trkpt><trkpt lat="40.6817167" lon="14.933906"><ele>520.6</ele><time>2026-03-22T09:56:18.991Z</time></trkpt><trkpt lat="40.6817055" lon="14.9340376"><ele>522.4000000000001</ele><time>2026-03-22T09:56:20.029Z</time></trkpt><trkpt lat="40.6817037" lon="14.9341748"><ele>524.2</ele><time>2026-03-22T09:56:20.953Z</time></trkpt><trkpt lat="40.681709" lon="14.9343197"><ele>526.0</ele><time>2026-03-22T09:56:21.961Z</time></trkpt><trkpt lat="40.6817166" lon="14.9344504"><ele>526.0</ele><time>2026-03-22T09:56:22.962Z</time></trkpt><trkpt lat="40.6817139" lon="14.9345352"><ele>526.0</ele><time>2026-03-22T09:56:24.043Z</time></trkpt><trkpt lat="40.6816391" lon="14.9344971"><ele>526.0</ele><time>2026-03-22T09:56:27.959Z</time></trkpt><trkpt lat="40.6815816" lon="14.9344152"><ele>526.0</ele><time>2026-03-22T09:56:29.033Z</time></trkpt><trkpt lat="40.6815229" lon="14.9343603"><ele>526.0</ele><time>2026-03-22T09:56:29.963Z</time></trkpt><trkpt lat="40.6814851" lon="14.9342527"><ele>526.0</ele><time>2026-03-22T09:56:31.957Z</time></trkpt><trkpt lat="40.6814886" lon="14.9340224"><ele>528.75</ele><time>2026-03-22T09:56:33.971Z</time></trkpt><trkpt lat="40.6815011" lon="14.9338754"><ele>531.5</ele><time>2026-03-22T09:56:34.973Z</time></trkpt><trkpt lat="40.6815171" lon="14.9337398"><ele>534.25</ele><time>2026-03-22T09:56:35.984Z</time></trkpt><trkpt lat="40.6815504" lon="14.9335967"><ele>537.0</ele><time>2026-03-22T09:56:36.967Z</time></trkpt><trkpt lat="40.681603" lon="14.9334329"><ele>540.25</ele><time>2026-03-22T09:56:38.034Z</time></trkpt><trkpt lat="40.6816649" lon="14.9332682"><ele>543.5</ele><time>2026-03-22T09:56:38.958Z</time></trkpt><trkpt lat="40.6817282" lon="14.9331129"><ele>546.75</ele><time>2026-03-22T09:56:39.959Z</time></trkpt><trkpt lat="40.6817915" lon="14.9330083"><ele>550.0</ele><time>2026-03-22T09:56:40.961Z</time></trkpt><trkpt lat="40.6818416" lon="14.9329076"><ele>550.0</ele><time>2026-03-22T09:56:41.959Z</time></trkpt><trkpt lat="40.6818947" lon="14.9328029"><ele>550.0</ele><time>2026-03-22T09:56:42.953Z</time></trkpt><trkpt lat="40.6819446" lon="14.9326899"><ele>550.0</ele><time>2026-03-22T09:56:44.031Z</time></trkpt><trkpt lat="40.6819911" lon="14.9325532"><ele>550.0</ele><time>2026-03-22T09:56:45.037Z</time></trkpt><trkpt lat="40.6820261" lon="14.932416"><ele>550.0</ele><time>2026-03-22T09:56:46.026Z</time></trkpt><trkpt lat="40.6820554" lon="14.9323033"><ele>548.2</ele><time>2026-03-22T09:56:46.968Z</time></trkpt><trkpt lat="40.6820883" lon="14.9322092"><ele>546.4</ele><time>2026-03-22T09:56:47.963Z</time></trkpt><trkpt lat="40.6821254" lon="14.9321169"><ele>544.6</ele><time>2026-03-22T09:56:48.983Z</time></trkpt><trkpt lat="40.6821875" lon="14.9320401"><ele>542.8</ele><time>2026-03-22T09:56:50.04Z</time></trkpt><trkpt lat="40.6822466" lon="14.9319762"><ele>541.0</ele><time>2026-03-22T09:56:51.027Z</time></trkpt><trkpt lat="40.68228" lon="14.9317989"><ele>542.8</ele><time>2026-03-22T09:56:52.955Z</time></trkpt><trkpt lat="40.6822914" lon="14.9316777"><ele>544.6</ele><time>2026-03-22T09:56:53.957Z</time></trkpt><trkpt lat="40.6823072" lon="14.931563"><ele>546.4</ele><time>2026-03-22T09:56:55.032Z</time></trkpt><trkpt lat="40.6823045" lon="14.9314106"><ele>548.2</ele><time>2026-03-22T09:56:56.958Z</time></trkpt><trkpt lat="40.6822617" lon="14.9313252"><ele>550.0</ele><time>2026-03-22T09:56:57.969Z</time></trkpt><trkpt lat="40.6822124" lon="14.9312388"><ele>550.0</ele><time>2026-03-22T09:56:58.979Z</time></trkpt><trkpt lat="40.6821642" lon="14.9311589"><ele>550.0</ele><time>2026-03-22T09:56:59.96Z</time></trkpt><trkpt lat="40.6821025" lon="14.931076"><ele>550.0</ele><time>2026-03-22T09:57:00.964Z</time></trkpt><trkpt lat="40.6820465" lon="14.9309999"><ele>550.0</ele><time>2026-03-22T09:57:01.96Z</time></trkpt><trkpt lat="40.6819886" lon="14.9309465"><ele>550.0</ele><time>2026-03-22T09:57:02.942Z</time></trkpt><trkpt lat="40.6819195" lon="14.9308979"><ele>550.0</ele><time>2026-03-22T09:57:03.949Z</time></trkpt><trkpt lat="40.6818611" lon="14.9308642"><ele>551.0</ele><time>2026-03-22T09:57:04.957Z</time></trkpt><trkpt lat="40.6817911" lon="14.9308347"><ele>552.0</ele><time>2026-03-22T09:57:05.957Z</time></trkpt><trkpt lat="40.6817289" lon="14.9307933"><ele>553.0</ele><time>2026-03-22T09:57:06.953Z</time></trkpt><trkpt lat="40.681665" lon="14.9307417"><ele>554.0</ele><time>2026-03-22T09:57:07.958Z</time></trkpt><trkpt lat="40.6816056" lon="14.9306867"><ele>555.0</ele><time>2026-03-22T09:57:08.953Z</time></trkpt><trkpt lat="40.6815365" lon="14.9305561"><ele>556.0</ele><time>2026-03-22T09:57:10.952Z</time></trkpt><trkpt lat="40.6815155" lon="14.9304673"><ele>556.0</ele><time>2026-03-22T09:57:11.946Z</time></trkpt><trkpt lat="40.6814814" lon="14.9303731"><ele>556.0</ele><time>2026-03-22T09:57:12.973Z</time></trkpt><trkpt lat="40.6814341" lon="14.9302631"><ele>556.0</ele><time>2026-03-22T09:57:13.955Z</time></trkpt><trkpt lat="40.6813917" lon="14.930141"><ele>556.0</ele><time>2026-03-22T09:57:14.958Z</time></trkpt><trkpt lat="40.6813431" lon="14.930024"><ele>556.0</ele><time>2026-03-22T09:57:15.961Z</time></trkpt><trkpt lat="40.6812773" lon="14.9299235"><ele>557.0</ele><time>2026-03-22T09:57:16.954Z</time></trkpt><trkpt lat="40.68121" lon="14.9298027"><ele>558.0</ele><time>2026-03-22T09:57:17.962Z</time></trkpt><trkpt lat="40.681147" lon="14.9296709"><ele>559.0</ele><time>2026-03-22T09:57:18.965Z</time></trkpt><trkpt lat="40.6810887" lon="14.9295543"><ele>560.0</ele><time>2026-03-22T09:57:19.965Z</time></trkpt><trkpt lat="40.6810361" lon="14.9294596"><ele>561.0</ele><time>2026-03-22T09:57:20.962Z</time></trkpt><trkpt lat="40.6810063" lon="14.9293765"><ele>557.4</ele><time>2026-03-22T09:57:21.972Z</time></trkpt><trkpt lat="40.6809438" lon="14.9292233"><ele>553.8</ele><time>2026-03-22T09:57:23.966Z</time></trkpt><trkpt lat="40.6809068" lon="14.9291409"><ele>550.1999999999999</ele><time>2026-03-22T09:57:24.967Z</time></trkpt><trkpt lat="40.6809139" lon="14.9290563"><ele>546.6</ele><time>2026-03-22T09:57:25.961Z</time></trkpt><trkpt lat="40.6809223" lon="14.9289291"><ele>543.0</ele><time>2026-03-22T09:57:27.96Z</time></trkpt><trkpt lat="40.6808847" lon="14.9287764"><ele>543.0</ele><time>2026-03-22T09:57:29.959Z</time></trkpt><trkpt lat="40.6808559" lon="14.9286817"><ele>543.0</ele><time>2026-03-22T09:57:30.964Z</time></trkpt><trkpt lat="40.6808323" lon="14.9285799"><ele>543.0</ele><time>2026-03-22T09:57:31.958Z</time></trkpt><trkpt lat="40.6808152" lon="14.9284835"><ele>543.0</ele><time>2026-03-22T09:57:33.032Z</time></trkpt><trkpt lat="40.6808034" lon="14.9283861"><ele>543.0</ele><time>2026-03-22T09:57:34.028Z</time></trkpt><trkpt lat="40.6807906" lon="14.928295"><ele>543.0</ele><time>2026-03-22T09:57:35.032Z</time></trkpt><trkpt lat="40.6807856" lon="14.9282103"><ele>543.0</ele><time>2026-03-22T09:57:36.028Z</time></trkpt><trkpt lat="40.6807913" lon="14.9281263"><ele>540.4</ele><time>2026-03-22T09:57:36.97Z</time></trkpt><trkpt lat="40.6807986" lon="14.9280189"><ele>537.8</ele><time>2026-03-22T09:57:37.973Z</time></trkpt><trkpt lat="40.6808007" lon="14.9278995"><ele>535.2</ele><time>2026-03-22T09:57:38.981Z</time></trkpt><trkpt lat="40.6808147" lon="14.9277676"><ele>532.6</ele><time>2026-03-22T09:57:40.03Z</time></trkpt><trkpt lat="40.6808389" lon="14.9276355"><ele>530.0</ele><time>2026-03-22T09:57:41.029Z</time></trkpt><trkpt lat="40.6808643" lon="14.9275174"><ele>529.0</ele><time>2026-03-22T09:57:41.954Z</time></trkpt><trkpt lat="40.6808994" lon="14.9274244"><ele>528.0</ele><time>2026-03-22T09:57:42.96Z</time></trkpt><trkpt lat="40.6809292" lon="14.9273486"><ele>527.0</ele><time>2026-03-22T09:57:43.951Z</time></trkpt><trkpt lat="40.6809199" lon="14.9272463"><ele>526.0</ele><time>2026-03-22T09:57:46.962Z</time></trkpt><trkpt lat="40.6808339" lon="14.9273241"><ele>525.0</ele><time>2026-03-22T09:57:50.04Z</time></trkpt><trkpt lat="40.6807989" lon="14.9274219"><ele>524.0</ele><time>2026-03-22T09:57:51.961Z</time></trkpt><trkpt lat="40.6807583" lon="14.9275372"><ele>525.2</ele><time>2026-03-22T09:57:53.963Z</time></trkpt><trkpt lat="40.6807273" lon="14.9277067"><ele>526.4</ele><time>2026-03-22T09:57:55.944Z</time></trkpt><trkpt lat="40.6807365" lon="14.9278349"><ele>527.6</ele><time>2026-03-22T09:57:56.953Z</time></trkpt><trkpt lat="40.6807475" lon="14.9279422"><ele>528.8</ele><time>2026-03-22T09:57:57.959Z</time></trkpt><trkpt lat="40.6807359" lon="14.9280276"><ele>530.0</ele><time>2026-03-22T09:57:58.958Z</time></trkpt><trkpt lat="40.6807141" lon="14.9281178"><ele>530.0</ele><time>2026-03-22T09:58:00.023Z</time></trkpt><trkpt lat="40.680695" lon="14.9282074"><ele>530.0</ele><time>2026-03-22T09:58:00.962Z</time></trkpt><trkpt lat="40.6806678" lon="14.9283705"><ele>530.0</ele><time>2026-03-22T09:58:02.953Z</time></trkpt><trkpt lat="40.6806597" lon="14.9284631"><ele>530.0</ele><time>2026-03-22T09:58:03.954Z</time></trkpt><trkpt lat="40.6806611" lon="14.9285985"><ele>530.0</ele><time>2026-03-22T09:58:05.953Z</time></trkpt><trkpt lat="40.6806876" lon="14.9287084"><ele>532.6</ele><time>2026-03-22T09:58:07.966Z</time></trkpt><trkpt lat="40.6807462" lon="14.9288224"><ele>535.2</ele><time>2026-03-22T09:58:10.959Z</time></trkpt><trkpt lat="40.6807693" lon="14.9289281"><ele>537.8</ele><time>2026-03-22T09:58:12.944Z</time></trkpt><trkpt lat="40.680762" lon="14.9290373"><ele>540.4</ele><time>2026-03-22T09:58:15.95Z</time></trkpt><trkpt lat="40.6807239" lon="14.9291626"><ele>543.0</ele><time>2026-03-22T09:58:18.953Z</time></trkpt><trkpt lat="40.6807267" lon="14.9292926"><ele>546.0</ele><time>2026-03-22T09:58:20.953Z</time></trkpt><trkpt lat="40.6807517" lon="14.929374"><ele>549.0</ele><time>2026-03-22T09:58:22.959Z</time></trkpt><trkpt lat="40.6807858" lon="14.9294676"><ele>552.0</ele><time>2026-03-22T09:58:24.954Z</time></trkpt><trkpt lat="40.6807973" lon="14.9295695"><ele>555.0</ele><time>2026-03-22T09:58:26.961Z</time></trkpt><trkpt lat="40.6807976" lon="14.9296922"><ele>558.0</ele><time>2026-03-22T09:58:28.958Z</time></trkpt><trkpt lat="40.680796" lon="14.9298404"><ele>561.0</ele><time>2026-03-22T09:58:30.939Z</time></trkpt><trkpt lat="40.6807447" lon="14.92995"><ele>564.6</ele><time>2026-03-22T09:58:32.946Z</time></trkpt><trkpt lat="40.6807278" lon="14.9301041"><ele>568.2</ele><time>2026-03-22T09:58:34.951Z</time></trkpt><trkpt lat="40.6807005" lon="14.9302427"><ele>571.8</ele><time>2026-03-22T09:58:36.948Z</time></trkpt><trkpt lat="40.6806724" lon="14.9303828"><ele>575.4</ele><time>2026-03-22T09:58:38.96Z</time></trkpt><trkpt lat="40.6806636" lon="14.9304657"><ele>579.0</ele><time>2026-03-22T09:58:39.963Z</time></trkpt><trkpt lat="40.6806747" lon="14.9306033"><ele>579.0</ele><time>2026-03-22T09:58:41.957Z</time></trkpt><trkpt lat="40.6807072" lon="14.9307123"><ele>579.0</ele><time>2026-03-22T09:58:44.959Z</time></trkpt><trkpt lat="40.6807076" lon="14.9308264"><ele>579.0</ele><time>2026-03-22T09:58:46.96Z</time></trkpt><trkpt lat="40.6806506" lon="14.9309873"><ele>579.0</ele><time>2026-03-22T09:58:48.958Z</time></trkpt><trkpt lat="40.6806255" lon="14.9311369"><ele>579.0</ele><time>2026-03-22T09:58:50.956Z</time></trkpt><trkpt lat="40.680582" lon="14.9312978"><ele>578.8333333333334</ele><time>2026-03-22T09:58:52.956Z</time></trkpt><trkpt lat="40.6805802" lon="14.931391"><ele>578.6666666666666</ele><time>2026-03-22T09:58:53.963Z</time></trkpt><trkpt lat="40.6805988" lon="14.9314922"><ele>578.5</ele><time>2026-03-22T09:58:54.944Z</time></trkpt><trkpt lat="40.680639" lon="14.9315785"><ele>578.3333333333333</ele><time>2026-03-22T09:58:55.954Z</time></trkpt><trkpt lat="40.6806974" lon="14.9316655"><ele>578.1666666666666</ele><time>2026-03-22T09:58:56.962Z</time></trkpt><trkpt lat="40.6807767" lon="14.931777"><ele>578.0</ele><time>2026-03-22T09:58:57.955Z</time></trkpt><trkpt lat="40.6808638" lon="14.9318995"><ele>578.0</ele><time>2026-03-22T09:58:58.96Z</time></trkpt><trkpt lat="40.6809296" lon="14.932015"><ele>578.0</ele><time>2026-03-22T09:58:59.959Z</time></trkpt><trkpt lat="40.6809741" lon="14.932097"><ele>578.0</ele><time>2026-03-22T09:59:00.954Z</time></trkpt><trkpt lat="40.6810296" lon="14.9321654"><ele>578.0</ele><time>2026-03-22T09:59:01.955Z</time></trkpt><trkpt lat="40.6810924" lon="14.9322196"><ele>578.0</ele><time>2026-03-22T09:59:02.954Z</time></trkpt><trkpt lat="40.6811607" lon="14.9322564"><ele>578.0</ele><time>2026-03-22T09:59:03.953Z</time></trkpt><trkpt lat="40.6812328" lon="14.932318"><ele>577.0</ele><time>2026-03-22T09:59:05.957Z</time></trkpt><trkpt lat="40.6812098" lon="14.9324038"><ele>576.0</ele><time>2026-03-22T09:59:08.956Z</time></trkpt><trkpt lat="40.6811979" lon="14.9325098"><ele>575.0</ele><time>2026-03-22T09:59:11.959Z</time></trkpt><trkpt lat="40.6812108" lon="14.9325958"><ele>574.0</ele><time>2026-03-22T09:59:13.961Z</time></trkpt><trkpt lat="40.6812159" lon="14.9326798"><ele>573.0</ele><time>2026-03-22T09:59:15.953Z</time></trkpt><trkpt lat="40.6812224" lon="14.9327738"><ele>572.0</ele><time>2026-03-22T09:59:17.958Z</time></trkpt><trkpt lat="40.6812287" lon="14.9329031"><ele>568.3333333333333</ele><time>2026-03-22T09:59:19.964Z</time></trkpt><trkpt lat="40.6812304" lon="14.9330223"><ele>564.6666666666666</ele><time>2026-03-22T09:59:21.975Z</time></trkpt><trkpt lat="40.6812046" lon="14.9331016"><ele>561.0</ele><time>2026-03-22T09:59:23.982Z</time></trkpt><trkpt lat="40.6811997" lon="14.9332035"><ele>557.3333333333334</ele><time>2026-03-22T09:59:25.978Z</time></trkpt><trkpt lat="40.6811837" lon="14.9333037"><ele>553.6666666666667</ele><time>2026-03-22T09:59:27.97Z</time></trkpt><trkpt lat="40.681175" lon="14.9334512"><ele>550.0</ele><time>2026-03-22T09:59:29.99Z</time></trkpt><trkpt lat="40.6811616" lon="14.9335559"><ele>547.8333333333334</ele><time>2026-03-22T09:59:31.968Z</time></trkpt><trkpt lat="40.6811658" lon="14.9336945"><ele>545.6666666666667</ele><time>2026-03-22T09:59:33.971Z</time></trkpt><trkpt lat="40.6811668" lon="14.933781"><ele>543.5</ele><time>2026-03-22T09:59:35.96Z</time></trkpt><trkpt lat="40.6812093" lon="14.9339069"><ele>541.3333333333334</ele><time>2026-03-22T09:59:38.959Z</time></trkpt><trkpt lat="40.6812604" lon="14.9339729"><ele>539.1666666666666</ele><time>2026-03-22T09:59:39.968Z</time></trkpt><trkpt lat="40.6813147" lon="14.9340487"><ele>537.0</ele><time>2026-03-22T09:59:40.961Z</time></trkpt><trkpt lat="40.681349" lon="14.9341246"><ele>535.1666666666666</ele><time>2026-03-22T09:59:41.963Z</time></trkpt><trkpt lat="40.6814077" lon="14.9342523"><ele>533.3333333333334</ele><time>2026-03-22T09:59:43.972Z</time></trkpt><trkpt lat="40.6814541" lon="14.93433"><ele>531.5</ele><time>2026-03-22T09:59:44.964Z</time></trkpt><trkpt lat="40.6815062" lon="14.934423"><ele>529.6666666666667</ele><time>2026-03-22T09:59:46.042Z</time></trkpt><trkpt lat="40.6815492" lon="14.934508"><ele>527.8333333333334</ele><time>2026-03-22T09:59:46.959Z</time></trkpt><trkpt lat="40.6816035" lon="14.9346007"><ele>526.0</ele><time>2026-03-22T09:59:47.957Z</time></trkpt><trkpt lat="40.6816523" lon="14.9346955"><ele>526.0</ele><time>2026-03-22T09:59:48.967Z</time></trkpt><trkpt lat="40.6816874" lon="14.934783"><ele>526.0</ele><time>2026-03-22T09:59:50.03Z</time></trkpt><trkpt lat="40.6817089" lon="14.9348693"><ele>526.0</ele><time>2026-03-22T09:59:51.01Z</time></trkpt><trkpt lat="40.6817582" lon="14.9349937"><ele>526.0</ele><time>2026-03-22T09:59:52.967Z</time></trkpt><trkpt lat="40.6818261" lon="14.9351222"><ele>526.0</ele><time>2026-03-22T09:59:54.968Z</time></trkpt><trkpt lat="40.6818524" lon="14.9352188"><ele>526.0</ele><time>2026-03-22T09:59:56.047Z</time></trkpt><trkpt lat="40.6818793" lon="14.9353169"><ele>524.3333333333334</ele><time>2026-03-22T09:59:56.968Z</time></trkpt><trkpt lat="40.6819213" lon="14.9354134"><ele>522.6666666666667</ele><time>2026-03-22T09:59:57.971Z</time></trkpt><trkpt lat="40.6819755" lon="14.9355018"><ele>521.0</ele><time>2026-03-22T09:59:58.962Z</time></trkpt><trkpt lat="40.6820464" lon="14.9356008"><ele>519.3333333333334</ele><time>2026-03-22T09:59:59.972Z</time></trkpt><trkpt lat="40.6821101" lon="14.9356807"><ele>517.6666666666666</ele><time>2026-03-22T10:00:00.962Z</time></trkpt><trkpt lat="40.6821744" lon="14.935727"><ele>516.0</ele><time>2026-03-22T10:00:01.973Z</time></trkpt><trkpt lat="40.6822381" lon="14.9357755"><ele>516.0</ele><time>2026-03-22T10:00:02.974Z</time></trkpt><trkpt lat="40.6823052" lon="14.9358341"><ele>516.0</ele><time>2026-03-22T10:00:03.964Z</time></trkpt><trkpt lat="40.682383" lon="14.9359072"><ele>516.0</ele><time>2026-03-22T10:00:04.957Z</time></trkpt><trkpt lat="40.6824642" lon="14.9360034"><ele>516.0</ele><time>2026-03-22T10:00:05.958Z</time></trkpt><trkpt lat="40.6825379" lon="14.9360972"><ele>516.0</ele><time>2026-03-22T10:00:07.038Z</time></trkpt><trkpt lat="40.6825992" lon="14.936164"><ele>516.0</ele><time>2026-03-22T10:00:07.964Z</time></trkpt><trkpt lat="40.6827306" lon="14.9361648"><ele>516.0</ele><time>2026-03-22T10:00:09.966Z</time></trkpt><trkpt lat="40.6828229" lon="14.936122"><ele>516.0</ele><time>2026-03-22T10:00:11.042Z</time></trkpt><trkpt lat="40.6829351" lon="14.9360769"><ele>516.0</ele><time>2026-03-22T10:00:11.963Z</time></trkpt><trkpt lat="40.6830307" lon="14.9360101"><ele>517.0</ele><time>2026-03-22T10:00:13.035Z</time></trkpt><trkpt lat="40.6831226" lon="14.9359221"><ele>518.0</ele><time>2026-03-22T10:00:14.036Z</time></trkpt><trkpt lat="40.6832095" lon="14.9358303"><ele>519.0</ele><time>2026-03-22T10:00:15.028Z</time></trkpt><trkpt lat="40.6832772" lon="14.9357725"><ele>520.0</ele><time>2026-03-22T10:00:16.053Z</time></trkpt><trkpt lat="40.6833862" lon="14.9357172"><ele>521.0</ele><time>2026-03-22T10:00:17.965Z</time></trkpt><trkpt lat="40.6834099" lon="14.9356263"><ele>519.0</ele><time>2026-03-22T10:00:19.961Z</time></trkpt><trkpt lat="40.6833978" lon="14.9355255"><ele>517.0</ele><time>2026-03-22T10:00:20.971Z</time></trkpt><trkpt lat="40.6834018" lon="14.9353663"><ele>515.0</ele><time>2026-03-22T10:00:23.041Z</time></trkpt><trkpt lat="40.6834418" lon="14.9351976"><ele>513.0</ele><time>2026-03-22T10:00:25.033Z</time></trkpt><trkpt lat="40.6834733" lon="14.9351077"><ele>511.0</ele><time>2026-03-22T10:00:25.949Z</time></trkpt><trkpt lat="40.6835128" lon="14.9350197"><ele>508.00000000000006</ele><time>2026-03-22T10:00:26.959Z</time></trkpt><trkpt lat="40.6835616" lon="14.9349487"><ele>505.0</ele><time>2026-03-22T10:00:27.954Z</time></trkpt><trkpt lat="40.6836168" lon="14.9348902"><ele>502.0</ele><time>2026-03-22T10:00:28.957Z</time></trkpt><trkpt lat="40.6836727" lon="14.9348215"><ele>499.0</ele><time>2026-03-22T10:00:29.958Z</time></trkpt><trkpt lat="40.6837307" lon="14.9347508"><ele>496.00000000000006</ele><time>2026-03-22T10:00:30.952Z</time></trkpt><trkpt lat="40.6837727" lon="14.9346828"><ele>493.0</ele><time>2026-03-22T10:00:31.955Z</time></trkpt><trkpt lat="40.6838556" lon="14.9345945"><ele>487.2</ele><time>2026-03-22T10:00:34.026Z</time></trkpt><trkpt lat="40.6839615" lon="14.9346124"><ele>481.4</ele><time>2026-03-22T10:00:35.954Z</time></trkpt><trkpt lat="40.6840102" lon="14.9345359"><ele>475.59999999999997</ele><time>2026-03-22T10:00:37.942Z</time></trkpt><trkpt lat="40.6839817" lon="14.934417"><ele>469.79999999999995</ele><time>2026-03-22T10:00:40.015Z</time></trkpt><trkpt lat="40.6839122" lon="14.9343072"><ele>464.0</ele><time>2026-03-22T10:00:41.955Z</time></trkpt><trkpt lat="40.6837969" lon="14.9342061"><ele>462.16666666666663</ele><time>2026-03-22T10:00:44.048Z</time></trkpt><trkpt lat="40.6837407" lon="14.9341356"><ele>460.3333333333333</ele><time>2026-03-22T10:00:45.979Z</time></trkpt><trkpt lat="40.6836626" lon="14.9341189"><ele>458.5</ele><time>2026-03-22T10:00:47.97Z</time></trkpt><trkpt lat="40.6835853" lon="14.9340793"><ele>456.66666666666663</ele><time>2026-03-22T10:00:49.966Z</time></trkpt><trkpt lat="40.6835549" lon="14.93397"><ele>454.8333333333333</ele><time>2026-03-22T10:00:52.969Z</time></trkpt><trkpt lat="40.683605" lon="14.9339112"><ele>453.0</ele><time>2026-03-22T10:00:54.971Z</time></trkpt><trkpt lat="40.683683" lon="14.9338465"><ele>453.0</ele><time>2026-03-22T10:00:56.974Z</time></trkpt><trkpt lat="40.6837469" lon="14.9337925"><ele>453.0</ele><time>2026-03-22T10:00:58.041Z</time></trkpt><trkpt lat="40.6838112" lon="14.933756"><ele>453.0</ele><time>2026-03-22T10:00:59.024Z</time></trkpt><trkpt lat="40.6838835" lon="14.9336945"><ele>453.0</ele><time>2026-03-22T10:01:00.035Z</time></trkpt><trkpt lat="40.6839426" lon="14.9336441"><ele>453.0</ele><time>2026-03-22T10:01:01.036Z</time></trkpt><trkpt lat="40.6840448" lon="14.9335639"><ele>453.0</ele><time>2026-03-22T10:01:02.965Z</time></trkpt><trkpt lat="40.6841141" lon="14.9334837"><ele>452.0</ele><time>2026-03-22T10:01:03.957Z</time></trkpt><trkpt lat="40.6841755" lon="14.9333656"><ele>450.99999999999994</ele><time>2026-03-22T10:01:04.959Z</time></trkpt><trkpt lat="40.684244" lon="14.9332352"><ele>449.99999999999994</ele><time>2026-03-22T10:01:05.973Z</time></trkpt><trkpt lat="40.6843116" lon="14.9331362"><ele>449.0</ele><time>2026-03-22T10:01:06.962Z</time></trkpt><trkpt lat="40.684364" lon="14.9330273"><ele>448.0</ele><time>2026-03-22T10:01:07.954Z</time></trkpt><trkpt lat="40.6843913" lon="14.9329456"><ele>448.0</ele><time>2026-03-22T10:01:08.972Z</time></trkpt><trkpt lat="40.6844016" lon="14.9328467"><ele>447.99999999999994</ele><time>2026-03-22T10:01:09.981Z</time></trkpt><trkpt lat="40.6843865" lon="14.9327354"><ele>447.99999999999994</ele><time>2026-03-22T10:01:10.966Z</time></trkpt><trkpt lat="40.6843421" lon="14.93261"><ele>448.0</ele><time>2026-03-22T10:01:11.961Z</time></trkpt><trkpt lat="40.684302" lon="14.9324853"><ele>448.0</ele><time>2026-03-22T10:01:12.963Z</time></trkpt><trkpt lat="40.6842262" lon="14.9323641"><ele>449.0</ele><time>2026-03-22T10:01:13.961Z</time></trkpt><trkpt lat="40.6841337" lon="14.9322429"><ele>449.99999999999994</ele><time>2026-03-22T10:01:14.958Z</time></trkpt><trkpt lat="40.6840582" lon="14.9321593"><ele>450.99999999999994</ele><time>2026-03-22T10:01:15.956Z</time></trkpt><trkpt lat="40.6840257" lon="14.9320797"><ele>452.0</ele><time>2026-03-22T10:01:16.962Z</time></trkpt><trkpt lat="40.6840539" lon="14.9319154"><ele>453.0</ele><time>2026-03-22T10:01:18.962Z</time></trkpt><trkpt lat="40.6840755" lon="14.9317796"><ele>454.4</ele><time>2026-03-22T10:01:19.957Z</time></trkpt><trkpt lat="40.6841003" lon="14.9316345"><ele>455.79999999999995</ele><time>2026-03-22T10:01:20.965Z</time></trkpt><trkpt lat="40.6841309" lon="14.931505"><ele>457.2</ele><time>2026-03-22T10:01:21.963Z</time></trkpt><trkpt lat="40.6841751" lon="14.9314234"><ele>458.6</ele><time>2026-03-22T10:01:23.028Z</time></trkpt><trkpt lat="40.6842279" lon="14.9313356"><ele>460.0</ele><time>2026-03-22T10:01:24.033Z</time></trkpt><trkpt lat="40.6842616" lon="14.9312177"><ele>460.00000000000006</ele><time>2026-03-22T10:01:26.032Z</time></trkpt><trkpt lat="40.6842567" lon="14.9311222"><ele>460.0</ele><time>2026-03-22T10:01:26.961Z</time></trkpt><trkpt lat="40.6842337" lon="14.9310197"><ele>460.0</ele><time>2026-03-22T10:01:28.968Z</time></trkpt><trkpt lat="40.6841549" lon="14.9310559"><ele>460.0</ele><time>2026-03-22T10:01:31.038Z</time></trkpt><trkpt lat="40.6840792" lon="14.9311261"><ele>460.00000000000006</ele><time>2026-03-22T10:01:31.96Z</time></trkpt><trkpt lat="40.6840015" lon="14.9312082"><ele>460.0</ele><time>2026-03-22T10:01:32.961Z</time></trkpt><trkpt lat="40.6839379" lon="14.93129"><ele>460.0</ele><time>2026-03-22T10:01:33.957Z</time></trkpt><trkpt lat="40.6838909" lon="14.9313691"><ele>460.0</ele><time>2026-03-22T10:01:34.955Z</time></trkpt><trkpt lat="40.6838571" lon="14.9314547"><ele>460.0</ele><time>2026-03-22T10:01:35.956Z</time></trkpt><trkpt lat="40.6838081" lon="14.93158"><ele>460.0</ele><time>2026-03-22T10:01:36.959Z</time></trkpt><trkpt lat="40.6837463" lon="14.9317552"><ele>460.0</ele><time>2026-03-22T10:01:37.956Z</time></trkpt><trkpt lat="40.6836919" lon="14.9319228"><ele>458.83333333333337</ele><time>2026-03-22T10:01:38.954Z</time></trkpt><trkpt lat="40.6836578" lon="14.9320085"><ele>457.6666666666667</ele><time>2026-03-22T10:01:39.954Z</time></trkpt><trkpt lat="40.6836468" lon="14.9321447"><ele>456.5</ele><time>2026-03-22T10:01:41.959Z</time></trkpt><trkpt lat="40.6836537" lon="14.9322371"><ele>455.33333333333337</ele><time>2026-03-22T10:01:42.955Z</time></trkpt><trkpt lat="40.6836515" lon="14.9323376"><ele>454.1666666666667</ele><time>2026-03-22T10:01:43.953Z</time></trkpt><trkpt lat="40.6836458" lon="14.9324309"><ele>453.0</ele><time>2026-03-22T10:01:44.957Z</time></trkpt><trkpt lat="40.6836189" lon="14.9325413"><ele>463.59999999999997</ele><time>2026-03-22T10:01:46.964Z</time></trkpt><trkpt lat="40.6835632" lon="14.9324196"><ele>474.19999999999993</ele><time>2026-03-22T10:01:50.943Z</time></trkpt><trkpt lat="40.6835211" lon="14.9323245"><ele>484.8</ele><time>2026-03-22T10:01:51.943Z</time></trkpt><trkpt lat="40.6834779" lon="14.9322547"><ele>495.4</ele><time>2026-03-22T10:01:52.955Z</time></trkpt><trkpt lat="40.6834043" lon="14.9321641"><ele>506.0</ele><time>2026-03-22T10:01:53.954Z</time></trkpt><trkpt lat="40.6833246" lon="14.9320598"><ele>506.0</ele><time>2026-03-22T10:01:54.961Z</time></trkpt><trkpt lat="40.6832715" lon="14.9319426"><ele>506.0</ele><time>2026-03-22T10:01:56.035Z</time></trkpt><trkpt lat="40.6832579" lon="14.9318562"><ele>506.0</ele><time>2026-03-22T10:01:56.953Z</time></trkpt><trkpt lat="40.6832653" lon="14.9317075"><ele>506.0</ele><time>2026-03-22T10:01:58.938Z</time></trkpt><trkpt lat="40.6832858" lon="14.9315828"><ele>506.0</ele><time>2026-03-22T10:01:59.962Z</time></trkpt><trkpt lat="40.6833184" lon="14.9314496"><ele>505.49999999999994</ele><time>2026-03-22T10:02:00.962Z</time></trkpt><trkpt lat="40.6833461" lon="14.9313397"><ele>505.0</ele><time>2026-03-22T10:02:01.959Z</time></trkpt><trkpt lat="40.6833416" lon="14.9312564"><ele>504.5</ele><time>2026-03-22T10:02:02.957Z</time></trkpt><trkpt lat="40.6833097" lon="14.931173"><ele>504.0</ele><time>2026-03-22T10:02:03.959Z</time></trkpt><trkpt lat="40.6832515" lon="14.9310822"><ele>503.49999999999994</ele><time>2026-03-22T10:02:05.027Z</time></trkpt><trkpt lat="40.6831927" lon="14.9309747"><ele>503.0</ele><time>2026-03-22T10:02:06.028Z</time></trkpt><trkpt lat="40.6831449" lon="14.9308746"><ele>503.0</ele><time>2026-03-22T10:02:06.961Z</time></trkpt><trkpt lat="40.6831041" lon="14.9307882"><ele>503.00000000000006</ele><time>2026-03-22T10:02:07.965Z</time></trkpt><trkpt lat="40.6830514" lon="14.9307233"><ele>503.0</ele><time>2026-03-22T10:02:08.966Z</time></trkpt><trkpt lat="40.6829873" lon="14.9306591"><ele>503.0</ele><time>2026-03-22T10:02:09.96Z</time></trkpt><trkpt lat="40.6829255" lon="14.930595"><ele>503.00000000000006</ele><time>2026-03-22T10:02:10.964Z</time></trkpt><trkpt lat="40.682869" lon="14.9305384"><ele>503.0</ele><time>2026-03-22T10:02:11.973Z</time></trkpt><trkpt lat="40.6828123" lon="14.9304902"><ele>503.0</ele><time>2026-03-22T10:02:13.026Z</time></trkpt><trkpt lat="40.6827496" lon="14.9304498"><ele>504.66666666666663</ele><time>2026-03-22T10:02:14.02Z</time></trkpt><trkpt lat="40.6826873" lon="14.9304246"><ele>506.3333333333333</ele><time>2026-03-22T10:02:15.018Z</time></trkpt><trkpt lat="40.6826277" lon="14.9303976"><ele>508.0</ele><time>2026-03-22T10:02:16.965Z</time></trkpt><trkpt lat="40.6826316" lon="14.930489"><ele>509.66666666666663</ele><time>2026-03-22T10:02:20.023Z</time></trkpt><trkpt lat="40.6826915" lon="14.9306263"><ele>511.3333333333333</ele><time>2026-03-22T10:02:20.957Z</time></trkpt><trkpt lat="40.6827483" lon="14.9307694"><ele>513.0</ele><time>2026-03-22T10:02:21.981Z</time></trkpt><trkpt lat="40.6828133" lon="14.9309086"><ele>513.0</ele><time>2026-03-22T10:02:22.961Z</time></trkpt><trkpt lat="40.6828604" lon="14.9310557"><ele>513.0</ele><time>2026-03-22T10:02:23.963Z</time></trkpt><trkpt lat="40.6828768" lon="14.9311834"><ele>513.0</ele><time>2026-03-22T10:02:24.965Z</time></trkpt><trkpt lat="40.6828834" lon="14.9313035"><ele>513.0</ele><time>2026-03-22T10:02:25.96Z</time></trkpt><trkpt lat="40.6828633" lon="14.9314455"><ele>513.0</ele><time>2026-03-22T10:02:26.959Z</time></trkpt><trkpt lat="40.682841" lon="14.9316019"><ele>511.25</ele><time>2026-03-22T10:02:27.963Z</time></trkpt><trkpt lat="40.682835" lon="14.9317736"><ele>509.5</ele><time>2026-03-22T10:02:29.03Z</time></trkpt><trkpt lat="40.6828392" lon="14.9319416"><ele>507.75</ele><time>2026-03-22T10:02:30.032Z</time></trkpt><trkpt lat="40.6828566" lon="14.9320785"><ele>506.0</ele><time>2026-03-22T10:02:30.959Z</time></trkpt><trkpt lat="40.6828757" lon="14.9321913"><ele>505.99999999999994</ele><time>2026-03-22T10:02:31.955Z</time></trkpt><trkpt lat="40.6828657" lon="14.932302"><ele>506.0</ele><time>2026-03-22T10:02:32.956Z</time></trkpt><trkpt lat="40.6828371" lon="14.9323839"><ele>506.0</ele><time>2026-03-22T10:02:33.952Z</time></trkpt><trkpt lat="40.682782" lon="14.9324576"><ele>506.0</ele><time>2026-03-22T10:02:34.956Z</time></trkpt><trkpt lat="40.6826953" lon="14.9325303"><ele>505.99999999999994</ele><time>2026-03-22T10:02:36.03Z</time></trkpt><trkpt lat="40.6826021" lon="14.9325975"><ele>506.0</ele><time>2026-03-22T10:02:36.95Z</time></trkpt><trkpt lat="40.6825079" lon="14.9326666"><ele>508.75</ele><time>2026-03-22T10:02:37.955Z</time></trkpt><trkpt lat="40.6824138" lon="14.9327402"><ele>511.5</ele><time>2026-03-22T10:02:38.981Z</time></trkpt><trkpt lat="40.6823302" lon="14.9328371"><ele>514.25</ele><time>2026-03-22T10:02:40.027Z</time></trkpt><trkpt lat="40.6822475" lon="14.9329515"><ele>517.0</ele><time>2026-03-22T10:02:41.05Z</time></trkpt><trkpt lat="40.682166" lon="14.9330807"><ele>517.0</ele><time>2026-03-22T10:02:41.956Z</time></trkpt><trkpt lat="40.6820914" lon="14.9332113"><ele>517.0</ele><time>2026-03-22T10:02:43.021Z</time></trkpt><trkpt lat="40.6819981" lon="14.9333263"><ele>517.0</ele><time>2026-03-22T10:02:44.03Z</time></trkpt><trkpt lat="40.6819007" lon="14.9334398"><ele>517.0</ele><time>2026-03-22T10:02:44.957Z</time></trkpt><trkpt lat="40.6818212" lon="14.9335643"><ele>522.0</ele><time>2026-03-22T10:02:45.952Z</time></trkpt><trkpt lat="40.6817491" lon="14.9337156"><ele>527.0</ele><time>2026-03-22T10:02:46.955Z</time></trkpt><trkpt lat="40.6816836" lon="14.9338822"><ele>532.0</ele><time>2026-03-22T10:02:47.954Z</time></trkpt><trkpt lat="40.6816374" lon="14.9340043"><ele>537.0</ele><time>2026-03-22T10:02:49.017Z</time></trkpt><trkpt lat="40.681631" lon="14.9341315"><ele>534.8000000000001</ele><time>2026-03-22T10:02:50.032Z</time></trkpt><trkpt lat="40.6816465" lon="14.9342581"><ele>532.6</ele><time>2026-03-22T10:02:50.952Z</time></trkpt><trkpt lat="40.6816626" lon="14.9343955"><ele>530.4000000000001</ele><time>2026-03-22T10:02:51.956Z</time></trkpt><trkpt lat="40.6816647" lon="14.9345089"><ele>528.2</ele><time>2026-03-22T10:02:52.956Z</time></trkpt><trkpt lat="40.681639" lon="14.9345883"><ele>526.0</ele><time>2026-03-22T10:02:55.963Z</time></trkpt><trkpt lat="40.681553" lon="14.9344234"><ele>526.0</ele><time>2026-03-22T10:02:57.961Z</time></trkpt><trkpt lat="40.6815014" lon="14.9343497"><ele>526.0</ele><time>2026-03-22T10:02:59.036Z</time></trkpt><trkpt lat="40.6814698" lon="14.9342264"><ele>526.0</ele><time>2026-03-22T10:03:01.038Z</time></trkpt><trkpt lat="40.6814705" lon="14.9341096"><ele>526.0</ele><time>2026-03-22T10:03:01.958Z</time></trkpt><trkpt lat="40.6814739" lon="14.933956"><ele>526.0</ele><time>2026-03-22T10:03:02.962Z</time></trkpt><trkpt lat="40.6814818" lon="14.9338127"><ele>528.75</ele><time>2026-03-22T10:03:03.967Z</time></trkpt><trkpt lat="40.6815096" lon="14.9336817"><ele>531.5</ele><time>2026-03-22T10:03:04.971Z</time></trkpt><trkpt lat="40.6815406" lon="14.9335309"><ele>534.25</ele><time>2026-03-22T10:03:05.969Z</time></trkpt><trkpt lat="40.6815953" lon="14.9333729"><ele>537.0</ele><time>2026-03-22T10:03:06.949Z</time></trkpt><trkpt lat="40.6816583" lon="14.9332113"><ele>539.6</ele><time>2026-03-22T10:03:08.024Z</time></trkpt><trkpt lat="40.6817225" lon="14.9330582"><ele>542.2</ele><time>2026-03-22T10:03:09.029Z</time></trkpt><trkpt lat="40.6817822" lon="14.9329243"><ele>544.8</ele><time>2026-03-22T10:03:10.027Z</time></trkpt><trkpt lat="40.6818382" lon="14.9328381"><ele>547.4</ele><time>2026-03-22T10:03:10.966Z</time></trkpt><trkpt lat="40.6818852" lon="14.932749"><ele>550.0</ele><time>2026-03-22T10:03:11.955Z</time></trkpt><trkpt lat="40.6819267" lon="14.9326485"><ele>548.2</ele><time>2026-03-22T10:03:12.961Z</time></trkpt><trkpt lat="40.6819691" lon="14.9325351"><ele>546.4</ele><time>2026-03-22T10:03:13.964Z</time></trkpt><trkpt lat="40.6820034" lon="14.9324203"><ele>544.6</ele><time>2026-03-22T10:03:14.964Z</time></trkpt><trkpt lat="40.6820465" lon="14.9323002"><ele>542.8</ele><time>2026-03-22T10:03:16.014Z</time></trkpt><trkpt lat="40.6820872" lon="14.9321773"><ele>541.0</ele><time>2026-03-22T10:03:16.96Z</time></trkpt><trkpt lat="40.6821481" lon="14.9320827"><ele>541.0</ele><time>2026-03-22T10:03:17.959Z</time></trkpt><trkpt lat="40.6822011" lon="14.9320278"><ele>541.0</ele><time>2026-03-22T10:03:18.967Z</time></trkpt><trkpt lat="40.682253" lon="14.9318775"><ele>541.0</ele><time>2026-03-22T10:03:20.954Z</time></trkpt><trkpt lat="40.6822659" lon="14.9317433"><ele>541.0</ele><time>2026-03-22T10:03:21.96Z</time></trkpt><trkpt lat="40.682281" lon="14.9316331"><ele>541.0</ele><time>2026-03-22T10:03:22.958Z</time></trkpt><trkpt lat="40.6822807" lon="14.9315371"><ele>542.8</ele><time>2026-03-22T10:03:23.959Z</time></trkpt><trkpt lat="40.6822471" lon="14.9313696"><ele>544.6</ele><time>2026-03-22T10:03:26.035Z</time></trkpt><trkpt lat="40.6821954" lon="14.9312766"><ele>546.4</ele><time>2026-03-22T10:03:26.972Z</time></trkpt><trkpt lat="40.6821495" lon="14.9311915"><ele>548.2</ele><time>2026-03-22T10:03:27.969Z</time></trkpt><trkpt lat="40.6820958" lon="14.9310994"><ele>550.0</ele><time>2026-03-22T10:03:29.04Z</time></trkpt><trkpt lat="40.682042" lon="14.9310202"><ele>550.0</ele><time>2026-03-22T10:03:29.958Z</time></trkpt><trkpt lat="40.6819972" lon="14.9309422"><ele>550.0</ele><time>2026-03-22T10:03:30.958Z</time></trkpt><trkpt lat="40.681942" lon="14.9308969"><ele>550.0</ele><time>2026-03-22T10:03:31.971Z</time></trkpt><trkpt lat="40.6818329" lon="14.9308442"><ele>550.0</ele><time>2026-03-22T10:03:33.97Z</time></trkpt><trkpt lat="40.6817367" lon="14.930801"><ele>550.0</ele><time>2026-03-22T10:03:34.963Z</time></trkpt><trkpt lat="40.6816391" lon="14.9307402"><ele>551.2</ele><time>2026-03-22T10:03:35.97Z</time></trkpt><trkpt lat="40.6815759" lon="14.9306755"><ele>552.4</ele><time>2026-03-22T10:03:36.967Z</time></trkpt><trkpt lat="40.6815118" lon="14.9305736"><ele>553.6</ele><time>2026-03-22T10:03:38.972Z</time></trkpt><trkpt lat="40.6814494" lon="14.9304673"><ele>554.8</ele><time>2026-03-22T10:03:40.975Z</time></trkpt><trkpt lat="40.6813687" lon="14.9302822"><ele>556.0</ele><time>2026-03-22T10:03:42.969Z</time></trkpt><trkpt lat="40.6813381" lon="14.9301539"><ele>557.0</ele><time>2026-03-22T10:03:43.962Z</time></trkpt><trkpt lat="40.6812935" lon="14.9300273"><ele>558.0</ele><time>2026-03-22T10:03:45.068Z</time></trkpt><trkpt lat="40.6812455" lon="14.9299107"><ele>559.0</ele><time>2026-03-22T10:03:45.991Z</time></trkpt><trkpt lat="40.6811811" lon="14.9297858"><ele>560.0</ele><time>2026-03-22T10:03:46.969Z</time></trkpt><trkpt lat="40.6811187" lon="14.9296594"><ele>561.0</ele><time>2026-03-22T10:03:47.969Z</time></trkpt><trkpt lat="40.6810671" lon="14.9295412"><ele>561.0</ele><time>2026-03-22T10:03:48.965Z</time></trkpt><trkpt lat="40.6810195" lon="14.9294447"><ele>561.0</ele><time>2026-03-22T10:03:49.974Z</time></trkpt><trkpt lat="40.6809922" lon="14.9293493"><ele>561.0</ele><time>2026-03-22T10:03:50.968Z</time></trkpt><trkpt lat="40.6809589" lon="14.9292602"><ele>561.0</ele><time>2026-03-22T10:03:51.972Z</time></trkpt><trkpt lat="40.6809192" lon="14.9291812"><ele>561.0</ele><time>2026-03-22T10:03:52.973Z</time></trkpt><trkpt lat="40.6809117" lon="14.9290285"><ele>561.0</ele><time>2026-03-22T10:03:55.037Z</time></trkpt><trkpt lat="40.6809169" lon="14.9289231"><ele>557.4</ele><time>2026-03-22T10:03:56.967Z</time></trkpt><trkpt lat="40.6808665" lon="14.9287569"><ele>553.8</ele><time>2026-03-22T10:03:58.974Z</time></trkpt><trkpt lat="40.6808419" lon="14.9286657"><ele>550.1999999999999</ele><time>2026-03-22T10:03:59.985Z</time></trkpt><trkpt lat="40.6808272" lon="14.9285655"><ele>546.6</ele><time>2026-03-22T10:04:01.042Z</time></trkpt><trkpt lat="40.6808151" lon="14.9284478"><ele>543.0</ele><time>2026-03-22T10:04:01.951Z</time></trkpt><trkpt lat="40.6808016" lon="14.9283281"><ele>540.4</ele><time>2026-03-22T10:04:02.949Z</time></trkpt><trkpt lat="40.680794" lon="14.9282364"><ele>537.8</ele><time>2026-03-22T10:04:03.968Z</time></trkpt><trkpt lat="40.6807871" lon="14.9280678"><ele>535.2</ele><time>2026-03-22T10:04:05.955Z</time></trkpt><trkpt lat="40.6807927" lon="14.9279469"><ele>532.6</ele><time>2026-03-22T10:04:06.954Z</time></trkpt><trkpt lat="40.6808028" lon="14.9278229"><ele>530.0</ele><time>2026-03-22T10:04:07.952Z</time></trkpt><trkpt lat="40.6808269" lon="14.9277079"><ele>530.0</ele><time>2026-03-22T10:04:08.946Z</time></trkpt><trkpt lat="40.6808457" lon="14.9275889"><ele>530.0</ele><time>2026-03-22T10:04:09.949Z</time></trkpt><trkpt lat="40.680873" lon="14.9274853"><ele>530.0</ele><time>2026-03-22T10:04:11.043Z</time></trkpt><trkpt lat="40.6809091" lon="14.9273987"><ele>530.0</ele><time>2026-03-22T10:04:11.951Z</time></trkpt><trkpt lat="40.6809323" lon="14.9272934"><ele>530.0</ele><time>2026-03-22T10:04:13.958Z</time></trkpt><trkpt lat="40.6808497" lon="14.9273035"><ele>530.0</ele><time>2026-03-22T10:04:16.964Z</time></trkpt><trkpt lat="40.6807993" lon="14.9273959"><ele>530.0</ele><time>2026-03-22T10:04:19.029Z</time></trkpt><trkpt lat="40.6807454" lon="14.9275284"><ele>530.0</ele><time>2026-03-22T10:04:21.021Z</time></trkpt><trkpt lat="40.680715" lon="14.9276055"><ele>530.0</ele><time>2026-03-22T10:04:21.963Z</time></trkpt><trkpt lat="40.6806814" lon="14.9277532"><ele>530.0</ele><time>2026-03-22T10:04:23.983Z</time></trkpt><trkpt lat="40.680676" lon="14.9278473"><ele>530.0</ele><time>2026-03-22T10:04:25.033Z</time></trkpt><trkpt lat="40.6806797" lon="14.9279379"><ele>530.0</ele><time>2026-03-22T10:04:26.028Z</time></trkpt><trkpt lat="40.6806908" lon="14.9280416"><ele>530.0</ele><time>2026-03-22T10:04:26.955Z</time></trkpt><trkpt lat="40.6806831" lon="14.9281323"><ele>530.0</ele><time>2026-03-22T10:04:27.962Z</time></trkpt><trkpt lat="40.6806648" lon="14.9282404"><ele>530.0</ele><time>2026-03-22T10:04:28.978Z</time></trkpt><trkpt lat="40.6806536" lon="14.9283422"><ele>530.0</ele><time>2026-03-22T10:04:30.04Z</time></trkpt><trkpt lat="40.6806395" lon="14.928488"><ele>530.0</ele><time>2026-03-22T10:04:31.957Z</time></trkpt><trkpt lat="40.6806392" lon="14.9285886"><ele>530.0</ele><time>2026-03-22T10:04:32.959Z</time></trkpt><trkpt lat="40.6806543" lon="14.9287169"><ele>532.1666666666666</ele><time>2026-03-22T10:04:35.035Z</time></trkpt><trkpt lat="40.6807195" lon="14.9288072"><ele>534.3333333333333</ele><time>2026-03-22T10:04:37.965Z</time></trkpt><trkpt lat="40.6807712" lon="14.9289051"><ele>536.5</ele><time>2026-03-22T10:04:39.983Z</time></trkpt><trkpt lat="40.6808094" lon="14.9290015"><ele>538.6666666666666</ele><time>2026-03-22T10:04:40.968Z</time></trkpt><trkpt lat="40.6808191" lon="14.9291119"><ele>540.8333333333334</ele><time>2026-03-22T10:04:42.964Z</time></trkpt><trkpt lat="40.6807913" lon="14.9292014"><ele>543.0</ele><time>2026-03-22T10:04:44.965Z</time></trkpt><trkpt lat="40.6807429" lon="14.9293327"><ele>546.0</ele><time>2026-03-22T10:04:46.946Z</time></trkpt><trkpt lat="40.6807128" lon="14.9294111"><ele>549.0</ele><time>2026-03-22T10:04:49.018Z</time></trkpt><trkpt lat="40.6807153" lon="14.9295092"><ele>552.0</ele><time>2026-03-22T10:04:51.956Z</time></trkpt><trkpt lat="40.6807446" lon="14.9296376"><ele>555.0</ele><time>2026-03-22T10:04:53.948Z</time></trkpt><trkpt lat="40.6807519" lon="14.9297211"><ele>558.0</ele><time>2026-03-22T10:04:54.964Z</time></trkpt><trkpt lat="40.6807401" lon="14.9298038"><ele>561.0</ele><time>2026-03-22T10:04:55.964Z</time></trkpt><trkpt lat="40.680705" lon="14.9299488"><ele>564.6</ele><time>2026-03-22T10:04:57.963Z</time></trkpt><trkpt lat="40.6806844" lon="14.9301201"><ele>568.2</ele><time>2026-03-22T10:04:59.957Z</time></trkpt><trkpt lat="40.680671" lon="14.9302109"><ele>571.8</ele><time>2026-03-22T10:05:01.014Z</time></trkpt><trkpt lat="40.6806553" lon="14.9303915"><ele>575.4</ele><time>2026-03-22T10:05:02.955Z</time></trkpt><trkpt lat="40.6806597" lon="14.9304778"><ele>579.0</ele><time>2026-03-22T10:05:03.944Z</time></trkpt><trkpt lat="40.6806646" lon="14.9306166"><ele>579.0</ele><time>2026-03-22T10:05:05.966Z</time></trkpt><trkpt lat="40.680688" lon="14.9307677"><ele>579.0</ele><time>2026-03-22T10:05:07.961Z</time></trkpt><trkpt lat="40.6806614" lon="14.930901"><ele>579.0</ele><time>2026-03-22T10:05:09.961Z</time></trkpt><trkpt lat="40.6806369" lon="14.9309852"><ele>579.0</ele><time>2026-03-22T10:05:10.965Z</time></trkpt><trkpt lat="40.6806143" lon="14.931087"><ele>579.0</ele><time>2026-03-22T10:05:11.961Z</time></trkpt><trkpt lat="40.6805949" lon="14.9311863"><ele>579.0</ele><time>2026-03-22T10:05:12.952Z</time></trkpt><trkpt lat="40.6805696" lon="14.9312745"><ele>578.8333333333334</ele><time>2026-03-22T10:05:13.954Z</time></trkpt><trkpt lat="40.6805688" lon="14.9313743"><ele>578.6666666666666</ele><time>2026-03-22T10:05:14.962Z</time></trkpt><trkpt lat="40.6805852" lon="14.9314791"><ele>578.5</ele><time>2026-03-22T10:05:15.954Z</time></trkpt><trkpt lat="40.6806273" lon="14.9315686"><ele>578.3333333333333</ele><time>2026-03-22T10:05:16.969Z</time></trkpt><trkpt lat="40.6806932" lon="14.9316679"><ele>578.1666666666666</ele><time>2026-03-22T10:05:18.038Z</time></trkpt><trkpt lat="40.6807662" lon="14.9317696"><ele>578.0</ele><time>2026-03-22T10:05:19.03Z</time></trkpt><trkpt lat="40.6808393" lon="14.9318772"><ele>578.0</ele><time>2026-03-22T10:05:19.958Z</time></trkpt><trkpt lat="40.6809081" lon="14.9319953"><ele>578.0</ele><time>2026-03-22T10:05:21.014Z</time></trkpt><trkpt lat="40.6809566" lon="14.9320984"><ele>578.0</ele><time>2026-03-22T10:05:21.954Z</time></trkpt><trkpt lat="40.6810088" lon="14.9321718"><ele>578.0</ele><time>2026-03-22T10:05:22.958Z</time></trkpt><trkpt lat="40.6810774" lon="14.9322104"><ele>578.0</ele><time>2026-03-22T10:05:24.058Z</time></trkpt><trkpt lat="40.6811394" lon="14.9322499"><ele>578.0</ele><time>2026-03-22T10:05:25.036Z</time></trkpt><trkpt lat="40.6812246" lon="14.9323018"><ele>577.0</ele><time>2026-03-22T10:05:26.96Z</time></trkpt><trkpt lat="40.6812262" lon="14.9323855"><ele>576.0</ele><time>2026-03-22T10:05:29.958Z</time></trkpt><trkpt lat="40.6812168" lon="14.932488"><ele>575.0</ele><time>2026-03-22T10:05:33.965Z</time></trkpt><trkpt lat="40.6812329" lon="14.9325975"><ele>574.0</ele><time>2026-03-22T10:05:35.943Z</time></trkpt><trkpt lat="40.6812271" lon="14.9327127"><ele>573.0</ele><time>2026-03-22T10:05:38.977Z</time></trkpt><trkpt lat="40.681214" lon="14.9328377"><ele>572.0</ele><time>2026-03-22T10:05:41.95Z</time></trkpt><trkpt lat="40.681204" lon="14.9329377"><ele>568.3333333333333</ele><time>2026-03-22T10:05:43.964Z</time></trkpt><trkpt lat="40.6811902" lon="14.9330278"><ele>564.6666666666666</ele><time>2026-03-22T10:05:45.961Z</time></trkpt><trkpt lat="40.6811786" lon="14.9331179"><ele>561.0</ele><time>2026-03-22T10:05:47.969Z</time></trkpt><trkpt lat="40.681168" lon="14.9332196"><ele>557.3333333333334</ele><time>2026-03-22T10:05:49.964Z</time></trkpt><trkpt lat="40.6811664" lon="14.9333246"><ele>553.6666666666667</ele><time>2026-03-22T10:05:51.96Z</time></trkpt><trkpt lat="40.6811685" lon="14.9334605"><ele>550.0</ele><time>2026-03-22T10:05:53.958Z</time></trkpt><trkpt lat="40.6811638" lon="14.933576"><ele>547.4</ele><time>2026-03-22T10:05:55.947Z</time></trkpt><trkpt lat="40.6811638" lon="14.933713"><ele>544.8</ele><time>2026-03-22T10:05:57.957Z</time></trkpt><trkpt lat="40.6811824" lon="14.9338407"><ele>542.2</ele><time>2026-03-22T10:05:59.963Z</time></trkpt><trkpt lat="40.6812407" lon="14.933961"><ele>539.6</ele><time>2026-03-22T10:06:01.954Z</time></trkpt><trkpt lat="40.6812914" lon="14.9340225"><ele>537.0</ele><time>2026-03-22T10:06:02.949Z</time></trkpt><trkpt lat="40.6813368" lon="14.9340955"><ele>537.0</ele><time>2026-03-22T10:06:03.953Z</time></trkpt><trkpt lat="40.6813668" lon="14.9341686"><ele>537.0</ele><time>2026-03-22T10:06:04.956Z</time></trkpt><trkpt lat="40.6814331" lon="14.9343065"><ele>537.0</ele><time>2026-03-22T10:06:06.954Z</time></trkpt><trkpt lat="40.681485" lon="14.9343902"><ele>537.0</ele><time>2026-03-22T10:06:07.961Z</time></trkpt><trkpt lat="40.6815333" lon="14.9344736"><ele>537.0</ele><time>2026-03-22T10:06:08.958Z</time></trkpt><trkpt lat="40.6815827" lon="14.934565"><ele>537.0</ele><time>2026-03-22T10:06:09.959Z</time></trkpt><trkpt lat="40.6816384" lon="14.934669"><ele>534.8000000000001</ele><time>2026-03-22T10:06:10.964Z</time></trkpt><trkpt lat="40.6816778" lon="14.9347617"><ele>532.6</ele><time>2026-03-22T10:06:11.954Z</time></trkpt><trkpt lat="40.6817117" lon="14.9348892"><ele>530.4000000000001</ele><time>2026-03-22T10:06:13.96Z</time></trkpt><trkpt lat="40.6817408" lon="14.9349799"><ele>528.2</ele><time>2026-03-22T10:06:15.939Z</time></trkpt><trkpt lat="40.6817983" lon="14.9351094"><ele>526.0</ele><time>2026-03-22T10:06:18.019Z</time></trkpt><trkpt lat="40.6818322" lon="14.9352121"><ele>524.0</ele><time>2026-03-22T10:06:19.034Z</time></trkpt><trkpt lat="40.6818729" lon="14.9353176"><ele>522.0</ele><time>2026-03-22T10:06:19.949Z</time></trkpt><trkpt lat="40.6819332" lon="14.9354134"><ele>520.0</ele><time>2026-03-22T10:06:20.958Z</time></trkpt><trkpt lat="40.6820023" lon="14.935514"><ele>518.0</ele><time>2026-03-22T10:06:21.961Z</time></trkpt><trkpt lat="40.6820681" lon="14.9356066"><ele>516.0</ele><time>2026-03-22T10:06:22.95Z</time></trkpt><trkpt lat="40.6821387" lon="14.9356746"><ele>516.0</ele><time>2026-03-22T10:06:23.966Z</time></trkpt><trkpt lat="40.6822122" lon="14.9357309"><ele>516.0</ele><time>2026-03-22T10:06:24.957Z</time></trkpt><trkpt lat="40.6822901" lon="14.9357981"><ele>516.0</ele><time>2026-03-22T10:06:25.966Z</time></trkpt><trkpt lat="40.6823725" lon="14.9358784"><ele>516.0</ele><time>2026-03-22T10:06:26.959Z</time></trkpt><trkpt lat="40.68245" lon="14.9359733"><ele>516.0</ele><time>2026-03-22T10:06:27.964Z</time></trkpt><trkpt lat="40.6825256" lon="14.9360739"><ele>516.0</ele><time>2026-03-22T10:06:28.962Z</time></trkpt><trkpt lat="40.6825785" lon="14.9361406"><ele>516.0</ele><time>2026-03-22T10:06:30.032Z</time></trkpt><trkpt lat="40.6827153" lon="14.9361663"><ele>516.0</ele><time>2026-03-22T10:06:31.96Z</time></trkpt><trkpt lat="40.6828215" lon="14.9361429"><ele>516.0</ele><time>2026-03-22T10:06:32.97Z</time></trkpt><trkpt lat="40.682929" lon="14.9360802"><ele>516.0</ele><time>2026-03-22T10:06:33.962Z</time></trkpt><trkpt lat="40.6830267" lon="14.9359961"><ele>517.0</ele><time>2026-03-22T10:06:35.027Z</time></trkpt><trkpt lat="40.6831264" lon="14.9359046"><ele>518.0</ele><time>2026-03-22T10:06:36.026Z</time></trkpt><trkpt lat="40.6832148" lon="14.9358205"><ele>519.0</ele><time>2026-03-22T10:06:36.964Z</time></trkpt><trkpt lat="40.6832806" lon="14.9357607"><ele>520.0</ele><time>2026-03-22T10:06:37.971Z</time></trkpt><trkpt lat="40.6833907" lon="14.9357038"><ele>521.0</ele><time>2026-03-22T10:06:40.039Z</time></trkpt><trkpt lat="40.6833917" lon="14.9355508"><ele>519.3333333333333</ele><time>2026-03-22T10:06:42.959Z</time></trkpt><trkpt lat="40.6833743" lon="14.9353962"><ele>517.6666666666666</ele><time>2026-03-22T10:06:45.025Z</time></trkpt><trkpt lat="40.6834014" lon="14.9353165"><ele>516.0</ele><time>2026-03-22T10:06:46.032Z</time></trkpt><trkpt lat="40.6834327" lon="14.9352183"><ele>514.3333333333334</ele><time>2026-03-22T10:06:46.961Z</time></trkpt><trkpt lat="40.6834612" lon="14.9351402"><ele>512.6666666666667</ele><time>2026-03-22T10:06:47.963Z</time></trkpt><trkpt lat="40.6835054" lon="14.9350529"><ele>511.0</ele><time>2026-03-22T10:06:48.951Z</time></trkpt><trkpt lat="40.6835528" lon="14.934982"><ele>503.1666666666667</ele><time>2026-03-22T10:06:49.965Z</time></trkpt><trkpt lat="40.6836006" lon="14.9349183"><ele>495.33333333333337</ele><time>2026-03-22T10:06:50.964Z</time></trkpt><trkpt lat="40.6836513" lon="14.9348581"><ele>487.5</ele><time>2026-03-22T10:06:51.967Z</time></trkpt><trkpt lat="40.6837039" lon="14.9347975"><ele>479.66666666666663</ele><time>2026-03-22T10:06:52.945Z</time></trkpt><trkpt lat="40.6837456" lon="14.9347275"><ele>471.8333333333333</ele><time>2026-03-22T10:06:54.017Z</time></trkpt><trkpt lat="40.6838183" lon="14.9346239"><ele>464.0</ele><time>2026-03-22T10:06:56.03Z</time></trkpt><trkpt lat="40.6839194" lon="14.9346178"><ele>463.99999999999994</ele><time>2026-03-22T10:06:57.968Z</time></trkpt><trkpt lat="40.6839962" lon="14.9346275"><ele>464.0</ele><time>2026-03-22T10:07:00.967Z</time></trkpt><trkpt lat="40.6839782" lon="14.9345236"><ele>464.0</ele><time>2026-03-22T10:07:02.97Z</time></trkpt><trkpt lat="40.6839279" lon="14.9344071"><ele>464.0</ele><time>2026-03-22T10:07:04.96Z</time></trkpt><trkpt lat="40.6838756" lon="14.9343421"><ele>463.99999999999994</ele><time>2026-03-22T10:07:06.97Z</time></trkpt><trkpt lat="40.6838147" lon="14.9342772"><ele>464.0</ele><time>2026-03-22T10:07:08.967Z</time></trkpt><trkpt lat="40.6837782" lon="14.934198"><ele>461.79999999999995</ele><time>2026-03-22T10:07:10.982Z</time></trkpt><trkpt lat="40.6837174" lon="14.9341482"><ele>459.59999999999997</ele><time>2026-03-22T10:07:12.95Z</time></trkpt><trkpt lat="40.6836295" lon="14.9340761"><ele>457.4</ele><time>2026-03-22T10:07:14.959Z</time></trkpt><trkpt lat="40.683612" lon="14.9339773"><ele>455.2</ele><time>2026-03-22T10:07:16.95Z</time></trkpt><trkpt lat="40.6836752" lon="14.9338785"><ele>453.0</ele><time>2026-03-22T10:07:18.959Z</time></trkpt><trkpt lat="40.6837629" lon="14.9337913"><ele>453.0</ele><time>2026-03-22T10:07:20.946Z</time></trkpt><trkpt lat="40.6838668" lon="14.9336903"><ele>453.0</ele><time>2026-03-22T10:07:22.948Z</time></trkpt><trkpt lat="40.6839332" lon="14.9336324"><ele>453.0</ele><time>2026-03-22T10:07:23.953Z</time></trkpt><trkpt lat="40.6840148" lon="14.9335552"><ele>453.0</ele><time>2026-03-22T10:07:25.994Z</time></trkpt><trkpt lat="40.6840765" lon="14.9335195"><ele>453.0</ele><time>2026-03-22T10:07:27.944Z</time></trkpt><trkpt lat="40.6841226" lon="14.9334622"><ele>453.0</ele><time>2026-03-22T10:07:28.985Z</time></trkpt><trkpt lat="40.6841736" lon="14.9333744"><ele>452.1666666666667</ele><time>2026-03-22T10:07:29.955Z</time></trkpt><trkpt lat="40.6842299" lon="14.9332698"><ele>451.33333333333337</ele><time>2026-03-22T10:07:31.034Z</time></trkpt><trkpt lat="40.6842882" lon="14.9331743"><ele>450.5</ele><time>2026-03-22T10:07:31.956Z</time></trkpt><trkpt lat="40.684335" lon="14.9330798"><ele>449.6666666666667</ele><time>2026-03-22T10:07:32.964Z</time></trkpt><trkpt lat="40.6843604" lon="14.9329885"><ele>448.83333333333337</ele><time>2026-03-22T10:07:33.962Z</time></trkpt><trkpt lat="40.6843627" lon="14.9328736"><ele>448.0</ele><time>2026-03-22T10:07:34.949Z</time></trkpt><trkpt lat="40.6843447" lon="14.9327565"><ele>448.0</ele><time>2026-03-22T10:07:36.032Z</time></trkpt><trkpt lat="40.6843194" lon="14.9326357"><ele>447.99999999999994</ele><time>2026-03-22T10:07:36.955Z</time></trkpt><trkpt lat="40.6842835" lon="14.9325207"><ele>447.99999999999994</ele><time>2026-03-22T10:07:37.96Z</time></trkpt><trkpt lat="40.6842408" lon="14.9324031"><ele>448.0</ele><time>2026-03-22T10:07:38.954Z</time></trkpt><trkpt lat="40.6841576" lon="14.9322843"><ele>448.0</ele><time>2026-03-22T10:07:40.029Z</time></trkpt><trkpt lat="40.6840744" lon="14.9321684"><ele>449.0</ele><time>2026-03-22T10:07:40.988Z</time></trkpt><trkpt lat="40.6840229" lon="14.9320774"><ele>449.99999999999994</ele><time>2026-03-22T10:07:41.965Z</time></trkpt><trkpt lat="40.6840658" lon="14.9319288"><ele>450.99999999999994</ele><time>2026-03-22T10:07:43.962Z</time></trkpt><trkpt lat="40.6840814" lon="14.9317853"><ele>452.0</ele><time>2026-03-22T10:07:45.054Z</time></trkpt><trkpt lat="40.6840924" lon="14.9316432"><ele>453.0</ele><time>2026-03-22T10:07:46.027Z</time></trkpt><trkpt lat="40.6841164" lon="14.9315251"><ele>454.1666666666667</ele><time>2026-03-22T10:07:46.953Z</time></trkpt><trkpt lat="40.684161" lon="14.9314293"><ele>455.33333333333337</ele><time>2026-03-22T10:07:47.948Z</time></trkpt><trkpt lat="40.6842119" lon="14.9313451"><ele>456.5</ele><time>2026-03-22T10:07:48.963Z</time></trkpt><trkpt lat="40.6842519" lon="14.9312595"><ele>457.6666666666667</ele><time>2026-03-22T10:07:50.037Z</time></trkpt><trkpt lat="40.6842678" lon="14.9311733"><ele>458.83333333333337</ele><time>2026-03-22T10:07:51.037Z</time></trkpt><trkpt lat="40.6842638" lon="14.9310865"><ele>460.0</ele><time>2026-03-22T10:07:51.971Z</time></trkpt><trkpt lat="40.6842388" lon="14.9309937"><ele>460.00000000000006</ele><time>2026-03-22T10:07:53.961Z</time></trkpt><trkpt lat="40.6841636" lon="14.9310287"><ele>460.0</ele><time>2026-03-22T10:07:55.966Z</time></trkpt><trkpt lat="40.6840775" lon="14.931112"><ele>460.0</ele><time>2026-03-22T10:07:56.967Z</time></trkpt><trkpt lat="40.6840083" lon="14.9311927"><ele>460.0</ele><time>2026-03-22T10:07:58.039Z</time></trkpt><trkpt lat="40.6839416" lon="14.9312783"><ele>460.00000000000006</ele><time>2026-03-22T10:07:59.033Z</time></trkpt><trkpt lat="40.6838966" lon="14.9313453"><ele>460.0</ele><time>2026-03-22T10:08:00.036Z</time></trkpt><trkpt lat="40.6838649" lon="14.9314252"><ele>460.0</ele><time>2026-03-22T10:08:00.964Z</time></trkpt><trkpt lat="40.6838263" lon="14.9315478"><ele>460.0</ele><time>2026-03-22T10:08:01.946Z</time></trkpt><trkpt lat="40.6837722" lon="14.9316837"><ele>460.0</ele><time>2026-03-22T10:08:02.967Z</time></trkpt><trkpt lat="40.6837036" lon="14.9318428"><ele>460.0</ele><time>2026-03-22T10:08:03.963Z</time></trkpt><trkpt lat="40.6836624" lon="14.9319953"><ele>458.83333333333337</ele><time>2026-03-22T10:08:04.961Z</time></trkpt><trkpt lat="40.6836361" lon="14.9320966"><ele>457.6666666666667</ele><time>2026-03-22T10:08:06.007Z</time></trkpt><trkpt lat="40.6836348" lon="14.9322674"><ele>456.5</ele><time>2026-03-22T10:08:08.033Z</time></trkpt><trkpt lat="40.6836424" lon="14.9323717"><ele>455.33333333333337</ele><time>2026-03-22T10:08:09.035Z</time></trkpt><trkpt lat="40.6836487" lon="14.9324636"><ele>454.1666666666667</ele><time>2026-03-22T10:08:09.958Z</time></trkpt><trkpt lat="40.6836455" lon="14.9325493"><ele>453.0</ele><time>2026-03-22T10:08:10.961Z</time></trkpt><trkpt lat="40.6836002" lon="14.932611"><ele>463.59999999999997</ele><time>2026-03-22T10:08:12.965Z</time></trkpt><trkpt lat="40.6835478" lon="14.9325064"><ele>474.19999999999993</ele><time>2026-03-22T10:08:16.952Z</time></trkpt><trkpt lat="40.6835151" lon="14.9323934"><ele>484.8</ele><time>2026-03-22T10:08:17.962Z</time></trkpt><trkpt lat="40.683472" lon="14.9323015"><ele>495.4</ele><time>2026-03-22T10:08:18.951Z</time></trkpt><trkpt lat="40.6834194" lon="14.9322021"><ele>506.0</ele><time>2026-03-22T10:08:20.015Z</time></trkpt><trkpt lat="40.6833488" lon="14.9321127"><ele>506.0</ele><time>2026-03-22T10:08:21.016Z</time></trkpt><trkpt lat="40.6832709" lon="14.932"><ele>506.0</ele><time>2026-03-22T10:08:21.951Z</time></trkpt><trkpt lat="40.6832334" lon="14.9318947"><ele>506.0</ele><time>2026-03-22T10:08:22.951Z</time></trkpt><trkpt lat="40.6832259" lon="14.9317443"><ele>506.0</ele><time>2026-03-22T10:08:24.954Z</time></trkpt><trkpt lat="40.6832502" lon="14.931638"><ele>506.0</ele><time>2026-03-22T10:08:25.956Z</time></trkpt><trkpt lat="40.6832837" lon="14.9315162"><ele>507.4</ele><time>2026-03-22T10:08:26.947Z</time></trkpt><trkpt lat="40.683314" lon="14.9314064"><ele>508.8</ele><time>2026-03-22T10:08:27.958Z</time></trkpt><trkpt lat="40.683342" lon="14.9312983"><ele>510.19999999999993</ele><time>2026-03-22T10:08:29.068Z</time></trkpt><trkpt lat="40.683319" lon="14.931214"><ele>511.59999999999997</ele><time>2026-03-22T10:08:30.039Z</time></trkpt><trkpt lat="40.6832402" lon="14.9310507"><ele>513.0</ele><time>2026-03-22T10:08:31.95Z</time></trkpt><trkpt lat="40.6831747" lon="14.9309446"><ele>511.0</ele><time>2026-03-22T10:08:33.044Z</time></trkpt><trkpt lat="40.6831227" lon="14.9308538"><ele>508.99999999999994</ele><time>2026-03-22T10:08:34.026Z</time></trkpt><trkpt lat="40.683084" lon="14.930767"><ele>506.99999999999994</ele><time>2026-03-22T10:08:35.027Z</time></trkpt><trkpt lat="40.6829767" lon="14.9306414"><ele>505.0</ele><time>2026-03-22T10:08:36.956Z</time></trkpt><trkpt lat="40.6829245" lon="14.9305741"><ele>503.0</ele><time>2026-03-22T10:08:37.965Z</time></trkpt><trkpt lat="40.682863" lon="14.9305195"><ele>502.99999999999994</ele><time>2026-03-22T10:08:39.031Z</time></trkpt><trkpt lat="40.6828039" lon="14.9304827"><ele>503.0</ele><time>2026-03-22T10:08:40.041Z</time></trkpt><trkpt lat="40.6827057" lon="14.9304466"><ele>503.0</ele><time>2026-03-22T10:08:41.974Z</time></trkpt><trkpt lat="40.6826958" lon="14.9305447"><ele>503.0</ele><time>2026-03-22T10:08:45.025Z</time></trkpt><trkpt lat="40.6827403" lon="14.9306479"><ele>502.99999999999994</ele><time>2026-03-22T10:08:46.025Z</time></trkpt><trkpt lat="40.6827876" lon="14.9307607"><ele>503.0</ele><time>2026-03-22T10:08:46.955Z</time></trkpt><trkpt lat="40.6828286" lon="14.9308818"><ele>505.0</ele><time>2026-03-22T10:08:47.954Z</time></trkpt><trkpt lat="40.6828958" lon="14.931024"><ele>506.99999999999994</ele><time>2026-03-22T10:08:48.954Z</time></trkpt><trkpt lat="40.6829491" lon="14.9311554"><ele>508.99999999999994</ele><time>2026-03-22T10:08:49.958Z</time></trkpt><trkpt lat="40.6829703" lon="14.9312918"><ele>511.0</ele><time>2026-03-22T10:08:50.962Z</time></trkpt><trkpt lat="40.682964" lon="14.9314042"><ele>513.0</ele><time>2026-03-22T10:08:51.96Z</time></trkpt><trkpt lat="40.682939" lon="14.9315077"><ele>513.0</ele><time>2026-03-22T10:08:52.945Z</time></trkpt><trkpt lat="40.6829124" lon="14.9316251"><ele>513.0</ele><time>2026-03-22T10:08:54.034Z</time></trkpt><trkpt lat="40.6828962" lon="14.9317732"><ele>513.0</ele><time>2026-03-22T10:08:55.036Z</time></trkpt><trkpt lat="40.6828878" lon="14.9319481"><ele>513.0</ele><time>2026-03-22T10:08:56.025Z</time></trkpt><trkpt lat="40.6828997" lon="14.9320935"><ele>511.59999999999997</ele><time>2026-03-22T10:08:56.962Z</time></trkpt><trkpt lat="40.682919" lon="14.9322122"><ele>510.19999999999993</ele><time>2026-03-22T10:08:57.957Z</time></trkpt><trkpt lat="40.6829246" lon="14.9323131"><ele>508.8</ele><time>2026-03-22T10:08:58.965Z</time></trkpt><trkpt lat="40.682838" lon="14.9324369"><ele>507.4</ele><time>2026-03-22T10:09:00.972Z</time></trkpt><trkpt lat="40.6827662" lon="14.9324923"><ele>506.0</ele><time>2026-03-22T10:09:01.964Z</time></trkpt><trkpt lat="40.6826681" lon="14.9325488"><ele>508.75</ele><time>2026-03-22T10:09:02.968Z</time></trkpt><trkpt lat="40.68257" lon="14.932618"><ele>511.5</ele><time>2026-03-22T10:09:04.032Z</time></trkpt><trkpt lat="40.6824789" lon="14.9326979"><ele>514.25</ele><time>2026-03-22T10:09:05.048Z</time></trkpt><trkpt lat="40.6823849" lon="14.9327892"><ele>517.0</ele><time>2026-03-22T10:09:06.011Z</time></trkpt><trkpt lat="40.6822933" lon="14.9328928"><ele>517.0</ele><time>2026-03-22T10:09:06.953Z</time></trkpt><trkpt lat="40.682214" lon="14.9330176"><ele>517.0</ele><time>2026-03-22T10:09:07.96Z</time></trkpt><trkpt lat="40.6821443" lon="14.9331317"><ele>517.0</ele><time>2026-03-22T10:09:08.984Z</time></trkpt><trkpt lat="40.6820588" lon="14.9332546"><ele>517.0</ele><time>2026-03-22T10:09:09.982Z</time></trkpt><trkpt lat="40.6819509" lon="14.933413"><ele>522.0</ele><time>2026-03-22T10:09:10.958Z</time></trkpt><trkpt lat="40.6818384" lon="14.9335664"><ele>527.0</ele><time>2026-03-22T10:09:11.954Z</time></trkpt><trkpt lat="40.6817706" lon="14.9337358"><ele>532.0</ele><time>2026-03-22T10:09:12.949Z</time></trkpt><trkpt lat="40.6817102" lon="14.9339018"><ele>537.0</ele><time>2026-03-22T10:09:13.951Z</time></trkpt><trkpt lat="40.6816975" lon="14.9340294"><ele>537.0</ele><time>2026-03-22T10:09:14.959Z</time></trkpt><trkpt lat="40.6817179" lon="14.9341484"><ele>537.0</ele><time>2026-03-22T10:09:16.04Z</time></trkpt><trkpt lat="40.6817111" lon="14.9343054"><ele>537.0</ele><time>2026-03-22T10:09:16.961Z</time></trkpt><trkpt lat="40.6817058" lon="14.9344183"><ele>537.0</ele><time>2026-03-22T10:09:17.959Z</time></trkpt><trkpt lat="40.6817189" lon="14.9345682"><ele>537.0</ele><time>2026-03-22T10:09:19.951Z</time></trkpt><trkpt lat="40.6816385" lon="14.9345188"><ele>537.0</ele><time>2026-03-22T10:09:22.946Z</time></trkpt><trkpt lat="40.6815827" lon="14.9344341"><ele>537.0</ele><time>2026-03-22T10:09:24.031Z</time></trkpt><trkpt lat="40.6815252" lon="14.934368"><ele>537.0</ele><time>2026-03-22T10:09:25.011Z</time></trkpt><trkpt lat="40.6814641" lon="14.9342869"><ele>537.0</ele><time>2026-03-22T10:09:26.96Z</time></trkpt><trkpt lat="40.6814278" lon="14.9341975"><ele>537.0</ele><time>2026-03-22T10:09:28.962Z</time></trkpt><trkpt lat="40.6814246" lon="14.9340568"><ele>537.0</ele><time>2026-03-22T10:09:29.949Z</time></trkpt><trkpt lat="40.681451" lon="14.933889"><ele>537.0</ele><time>2026-03-22T10:09:30.972Z</time></trkpt><trkpt lat="40.6814812" lon="14.9337501"><ele>537.0</ele><time>2026-03-22T10:09:31.95Z</time></trkpt><trkpt lat="40.6815183" lon="14.9335986"><ele>537.0</ele><time>2026-03-22T10:09:32.952Z</time></trkpt><trkpt lat="40.681568" lon="14.9334433"><ele>537.0</ele><time>2026-03-22T10:09:33.952Z</time></trkpt><trkpt lat="40.6816349" lon="14.933287"><ele>540.25</ele><time>2026-03-22T10:09:34.954Z</time></trkpt><trkpt lat="40.6816993" lon="14.9331335"><ele>543.5</ele><time>2026-03-22T10:09:35.957Z</time></trkpt><trkpt lat="40.6817714" lon="14.9329969"><ele>546.75</ele><time>2026-03-22T10:09:36.956Z</time></trkpt><trkpt lat="40.6818326" lon="14.9328867"><ele>550.0</ele><time>2026-03-22T10:09:37.963Z</time></trkpt><trkpt lat="40.6818876" lon="14.9327958"><ele>548.2</ele><time>2026-03-22T10:09:38.959Z</time></trkpt><trkpt lat="40.6819337" lon="14.9326878"><ele>546.4</ele><time>2026-03-22T10:09:39.958Z</time></trkpt><trkpt lat="40.6819692" lon="14.9325728"><ele>544.6</ele><time>2026-03-22T10:09:40.952Z</time></trkpt><trkpt lat="40.6820111" lon="14.9324613"><ele>542.8</ele><time>2026-03-22T10:09:41.961Z</time></trkpt><trkpt lat="40.6820507" lon="14.9323344"><ele>541.0</ele><time>2026-03-22T10:09:43.05Z</time></trkpt><trkpt lat="40.6820991" lon="14.9322055"><ele>541.0</ele><time>2026-03-22T10:09:44.032Z</time></trkpt><trkpt lat="40.6821554" lon="14.9320989"><ele>541.0</ele><time>2026-03-22T10:09:44.955Z</time></trkpt><trkpt lat="40.6822205" lon="14.9320091"><ele>541.0</ele><time>2026-03-22T10:09:46.03Z</time></trkpt><trkpt lat="40.6822625" lon="14.9319358"><ele>541.0</ele><time>2026-03-22T10:09:46.965Z</time></trkpt><trkpt lat="40.6822777" lon="14.9318411"><ele>541.0</ele><time>2026-03-22T10:09:47.972Z</time></trkpt><trkpt lat="40.6822798" lon="14.9317303"><ele>541.0</ele><time>2026-03-22T10:09:49.007Z</time></trkpt><trkpt lat="40.6822816" lon="14.9316309"><ele>542.5</ele><time>2026-03-22T10:09:50.037Z</time></trkpt><trkpt lat="40.682288" lon="14.9315432"><ele>544.0</ele><time>2026-03-22T10:09:51.031Z</time></trkpt><trkpt lat="40.6822798" lon="14.9314554"><ele>545.5</ele><time>2026-03-22T10:09:51.97Z</time></trkpt><trkpt lat="40.6822478" lon="14.9313566"><ele>547.0</ele><time>2026-03-22T10:09:52.968Z</time></trkpt><trkpt lat="40.6822031" lon="14.9312647"><ele>548.5</ele><time>2026-03-22T10:09:53.982Z</time></trkpt><trkpt lat="40.6821642" lon="14.9311779"><ele>550.0</ele><time>2026-03-22T10:09:55.035Z</time></trkpt><trkpt lat="40.6821157" lon="14.9310896"><ele>550.0</ele><time>2026-03-22T10:09:56.022Z</time></trkpt><trkpt lat="40.6820647" lon="14.931001"><ele>550.0</ele><time>2026-03-22T10:09:56.962Z</time></trkpt><trkpt lat="40.682011" lon="14.9309375"><ele>550.0</ele><time>2026-03-22T10:09:57.965Z</time></trkpt><trkpt lat="40.6819412" lon="14.9308878"><ele>550.0</ele><time>2026-03-22T10:09:58.957Z</time></trkpt><trkpt lat="40.6818724" lon="14.9308517"><ele>550.0</ele><time>2026-03-22T10:10:00.042Z</time></trkpt><trkpt lat="40.6818041" lon="14.93082"><ele>550.0</ele><time>2026-03-22T10:10:01.028Z</time></trkpt><trkpt lat="40.6817327" lon="14.9307819"><ele>551.2</ele><time>2026-03-22T10:10:01.958Z</time></trkpt><trkpt lat="40.6816294" lon="14.9306845"><ele>552.4</ele><time>2026-03-22T10:10:03.973Z</time></trkpt><trkpt lat="40.681598" lon="14.9306102"><ele>553.6</ele><time>2026-03-22T10:10:05.064Z</time></trkpt><trkpt lat="40.6815348" lon="14.9304436"><ele>554.8</ele><time>2026-03-22T10:10:06.957Z</time></trkpt><trkpt lat="40.6815003" lon="14.9303539"><ele>556.0</ele><time>2026-03-22T10:10:07.956Z</time></trkpt><trkpt lat="40.6814618" lon="14.9302576"><ele>556.0</ele><time>2026-03-22T10:10:09.036Z</time></trkpt><trkpt lat="40.6814235" lon="14.9301565"><ele>556.0</ele><time>2026-03-22T10:10:09.957Z</time></trkpt><trkpt lat="40.6813787" lon="14.930043"><ele>556.0</ele><time>2026-03-22T10:10:10.941Z</time></trkpt><trkpt lat="40.6813339" lon="14.9299247"><ele>556.0</ele><time>2026-03-22T10:10:11.956Z</time></trkpt><trkpt lat="40.6812802" lon="14.9298013"><ele>556.0</ele><time>2026-03-22T10:10:12.96Z</time></trkpt><trkpt lat="40.6812179" lon="14.9296783"><ele>556.8333333333334</ele><time>2026-03-22T10:10:13.969Z</time></trkpt><trkpt lat="40.6811426" lon="14.9295615"><ele>557.6666666666667</ele><time>2026-03-22T10:10:14.958Z</time></trkpt><trkpt lat="40.6810814" lon="14.9294597"><ele>558.5</ele><time>2026-03-22T10:10:15.95Z</time></trkpt><trkpt lat="40.6810333" lon="14.9293776"><ele>559.3333333333334</ele><time>2026-03-22T10:10:16.961Z</time></trkpt><trkpt lat="40.6810068" lon="14.9292881"><ele>560.1666666666666</ele><time>2026-03-22T10:10:18.026Z</time></trkpt><trkpt lat="40.6809646" lon="14.9292104"><ele>561.0</ele><time>2026-03-22T10:10:19.034Z</time></trkpt><trkpt lat="40.6809294" lon="14.9291385"><ele>557.4</ele><time>2026-03-22T10:10:20.037Z</time></trkpt><trkpt lat="40.68092" lon="14.9290155"><ele>553.8</ele><time>2026-03-22T10:10:21.965Z</time></trkpt><trkpt lat="40.6809241" lon="14.9288847"><ele>550.1999999999999</ele><time>2026-03-22T10:10:23.958Z</time></trkpt><trkpt lat="40.6808774" lon="14.9287145"><ele>546.6</ele><time>2026-03-22T10:10:25.973Z</time></trkpt><trkpt lat="40.6808609" lon="14.9286057"><ele>543.0</ele><time>2026-03-22T10:10:26.969Z</time></trkpt><trkpt lat="40.6808528" lon="14.9284761"><ele>540.8333333333334</ele><time>2026-03-22T10:10:27.969Z</time></trkpt><trkpt lat="40.6808294" lon="14.9283554"><ele>538.6666666666666</ele><time>2026-03-22T10:10:29.063Z</time></trkpt><trkpt lat="40.6808147" lon="14.9281894"><ele>536.5</ele><time>2026-03-22T10:10:30.963Z</time></trkpt><trkpt lat="40.6808138" lon="14.9281042"><ele>534.3333333333333</ele><time>2026-03-22T10:10:31.969Z</time></trkpt><trkpt lat="40.6808028" lon="14.9280012"><ele>532.1666666666666</ele><time>2026-03-22T10:10:32.964Z</time></trkpt><trkpt lat="40.6807937" lon="14.9278944"><ele>530.0</ele><time>2026-03-22T10:10:33.964Z</time></trkpt><trkpt lat="40.6807984" lon="14.9277743"><ele>530.0</ele><time>2026-03-22T10:10:34.97Z</time></trkpt><trkpt lat="40.6808147" lon="14.9276488"><ele>530.0</ele><time>2026-03-22T10:10:35.961Z</time></trkpt><trkpt lat="40.6808556" lon="14.9275289"><ele>530.0</ele><time>2026-03-22T10:10:36.966Z</time></trkpt><trkpt lat="40.6808956" lon="14.9274501"><ele>530.0</ele><time>2026-03-22T10:10:37.975Z</time></trkpt><trkpt lat="40.6809361" lon="14.9273052"><ele>530.0</ele><time>2026-03-22T10:10:39.959Z</time></trkpt><trkpt lat="40.6809008" lon="14.9272303"><ele>530.0</ele><time>2026-03-22T10:10:41.961Z</time></trkpt><trkpt lat="40.6808426" lon="14.9272926"><ele>530.0</ele><time>2026-03-22T10:10:43.953Z</time></trkpt><trkpt lat="40.6808197" lon="14.9273998"><ele>530.0</ele><time>2026-03-22T10:10:46.04Z</time></trkpt><trkpt lat="40.6807934" lon="14.9274755"><ele>530.0</ele><time>2026-03-22T10:10:46.948Z</time></trkpt><trkpt lat="40.6807566" lon="14.9275536"><ele>530.0</ele><time>2026-03-22T10:10:47.963Z</time></trkpt><trkpt lat="40.6807168" lon="14.9277102"><ele>530.0</ele><time>2026-03-22T10:10:50.037Z</time></trkpt><trkpt lat="40.6807156" lon="14.9278266"><ele>530.0</ele><time>2026-03-22T10:10:51.041Z</time></trkpt><trkpt lat="40.6807293" lon="14.927945"><ele>530.0</ele><time>2026-03-22T10:10:51.965Z</time></trkpt><trkpt lat="40.6807355" lon="14.9280465"><ele>530.0</ele><time>2026-03-22T10:10:52.958Z</time></trkpt><trkpt lat="40.6807216" lon="14.9281485"><ele>530.0</ele><time>2026-03-22T10:10:55.034Z</time></trkpt><trkpt lat="40.6806904" lon="14.9282773"><ele>530.0</ele><time>2026-03-22T10:10:56.975Z</time></trkpt><trkpt lat="40.6806832" lon="14.9283726"><ele>530.0</ele><time>2026-03-22T10:10:57.969Z</time></trkpt><trkpt lat="40.6806748" lon="14.9284607"><ele>532.1666666666666</ele><time>2026-03-22T10:10:58.982Z</time></trkpt><trkpt lat="40.6806654" lon="14.9285453"><ele>534.3333333333333</ele><time>2026-03-22T10:11:00.049Z</time></trkpt><trkpt lat="40.6806705" lon="14.9286777"><ele>536.5</ele><time>2026-03-22T10:11:01.972Z</time></trkpt><trkpt lat="40.6806986" lon="14.9287726"><ele>538.6666666666666</ele><time>2026-03-22T10:11:03.981Z</time></trkpt><trkpt lat="40.680755" lon="14.9288506"><ele>540.8333333333334</ele><time>2026-03-22T10:11:05.953Z</time></trkpt><trkpt lat="40.6807812" lon="14.9289368"><ele>543.0</ele><time>2026-03-22T10:11:06.971Z</time></trkpt><trkpt lat="40.6808081" lon="14.9290222"><ele>543.0</ele><time>2026-03-22T10:11:07.97Z</time></trkpt><trkpt lat="40.6807976" lon="14.9291079"><ele>543.0</ele><time>2026-03-22T10:11:10.975Z</time></trkpt><trkpt lat="40.6807374" lon="14.9292086"><ele>543.0</ele><time>2026-03-22T10:11:14.093Z</time></trkpt><trkpt lat="40.6807112" lon="14.929365"><ele>543.0</ele><time>2026-03-22T10:11:16.034Z</time></trkpt><trkpt lat="40.6807335" lon="14.9294563"><ele>543.0</ele><time>2026-03-22T10:11:18.953Z</time></trkpt><trkpt lat="40.680756" lon="14.9295871"><ele>546.0</ele><time>2026-03-22T10:11:20.957Z</time></trkpt><trkpt lat="40.6807597" lon="14.9296777"><ele>549.0</ele><time>2026-03-22T10:11:21.982Z</time></trkpt><trkpt lat="40.6807618" lon="14.9297681"><ele>552.0</ele><time>2026-03-22T10:11:23.027Z</time></trkpt><trkpt lat="40.6807399" lon="14.92985"><ele>555.0</ele><time>2026-03-22T10:11:24.027Z</time></trkpt><trkpt lat="40.6807129" lon="14.9300044"><ele>558.0</ele><time>2026-03-22T10:11:25.963Z</time></trkpt><trkpt lat="40.6806825" lon="14.9301489"><ele>561.0</ele><time>2026-03-22T10:11:27.967Z</time></trkpt><trkpt lat="40.6806582" lon="14.9302333"><ele>564.0</ele><time>2026-03-22T10:11:28.971Z</time></trkpt><trkpt lat="40.680647" lon="14.930316"><ele>567.0</ele><time>2026-03-22T10:11:29.965Z</time></trkpt><trkpt lat="40.6806471" lon="14.9304024"><ele>570.0</ele><time>2026-03-22T10:11:31.031Z</time></trkpt><trkpt lat="40.6806579" lon="14.9304847"><ele>573.0</ele><time>2026-03-22T10:11:31.965Z</time></trkpt><trkpt lat="40.6806716" lon="14.9305683"><ele>576.0</ele><time>2026-03-22T10:11:32.968Z</time></trkpt><trkpt lat="40.6807058" lon="14.9307104"><ele>579.0</ele><time>2026-03-22T10:11:34.953Z</time></trkpt><trkpt lat="40.6806797" lon="14.930871"><ele>580.6666666666666</ele><time>2026-03-22T10:11:36.971Z</time></trkpt><trkpt lat="40.6806512" lon="14.9309541"><ele>582.3333333333334</ele><time>2026-03-22T10:11:37.998Z</time></trkpt><trkpt lat="40.6806295" lon="14.9310513"><ele>584.0</ele><time>2026-03-22T10:11:38.955Z</time></trkpt><trkpt lat="40.6806169" lon="14.9311453"><ele>585.6666666666667</ele><time>2026-03-22T10:11:39.959Z</time></trkpt><trkpt lat="40.6805956" lon="14.9312284"><ele>587.3333333333334</ele><time>2026-03-22T10:11:41.032Z</time></trkpt><trkpt lat="40.6805792" lon="14.9313287"><ele>589.0</ele><time>2026-03-22T10:11:41.955Z</time></trkpt><trkpt lat="40.6806001" lon="14.9314995"><ele>589.0</ele><time>2026-03-22T10:11:44.033Z</time></trkpt><trkpt lat="40.6806565" lon="14.9316011"><ele>589.0</ele><time>2026-03-22T10:11:45.051Z</time></trkpt><trkpt lat="40.6807352" lon="14.9316967"><ele>589.0</ele><time>2026-03-22T10:11:46.029Z</time></trkpt><trkpt lat="40.680816" lon="14.9318127"><ele>589.0</ele><time>2026-03-22T10:11:46.967Z</time></trkpt><trkpt lat="40.6808809" lon="14.9319311"><ele>589.0</ele><time>2026-03-22T10:11:47.978Z</time></trkpt><trkpt lat="40.6809269" lon="14.9320164"><ele>587.1666666666667</ele><time>2026-03-22T10:11:49.038Z</time></trkpt><trkpt lat="40.6810023" lon="14.9321453"><ele>585.3333333333334</ele><time>2026-03-22T10:11:50.979Z</time></trkpt><trkpt lat="40.6810659" lon="14.9322085"><ele>583.5</ele><time>2026-03-22T10:11:51.964Z</time></trkpt><trkpt lat="40.6811339" lon="14.9322631"><ele>581.6666666666666</ele><time>2026-03-22T10:11:52.974Z</time></trkpt><trkpt lat="40.6812009" lon="14.9323025"><ele>579.8333333333333</ele><time>2026-03-22T10:11:54.065Z</time></trkpt><trkpt lat="40.6812465" lon="14.9323658"><ele>578.0</ele><time>2026-03-22T10:11:56.035Z</time></trkpt><trkpt lat="40.6812306" lon="14.9324478"><ele>577.1428571428571</ele><time>2026-03-22T10:11:58.961Z</time></trkpt><trkpt lat="40.6812447" lon="14.9325438"><ele>576.2857142857142</ele><time>2026-03-22T10:12:01.971Z</time></trkpt><trkpt lat="40.6812415" lon="14.9326309"><ele>575.4285714285713</ele><time>2026-03-22T10:12:03.974Z</time></trkpt><trkpt lat="40.681241" lon="14.9327452"><ele>574.5714285714286</ele><time>2026-03-22T10:12:06.962Z</time></trkpt><trkpt lat="40.6812282" lon="14.9328386"><ele>573.7142857142857</ele><time>2026-03-22T10:12:08.979Z</time></trkpt><trkpt lat="40.6812184" lon="14.9329278"><ele>572.8571428571428</ele><time>2026-03-22T10:12:10.972Z</time></trkpt><trkpt lat="40.6811993" lon="14.9330253"><ele>572.0</ele><time>2026-03-22T10:12:12.973Z</time></trkpt><trkpt lat="40.6811814" lon="14.9331491"><ele>568.3333333333333</ele><time>2026-03-22T10:12:15.027Z</time></trkpt><trkpt lat="40.6811748" lon="14.9332583"><ele>564.6666666666666</ele><time>2026-03-22T10:12:16.967Z</time></trkpt><trkpt lat="40.6811636" lon="14.9333744"><ele>561.0</ele><time>2026-03-22T10:12:18.984Z</time></trkpt><trkpt lat="40.6811638" lon="14.9334584"><ele>557.3333333333334</ele><time>2026-03-22T10:12:20.035Z</time></trkpt><trkpt lat="40.6811608" lon="14.9335483"><ele>553.6666666666667</ele><time>2026-03-22T10:12:21.032Z</time></trkpt><trkpt lat="40.6811557" lon="14.933678"><ele>550.0</ele><time>2026-03-22T10:12:22.957Z</time></trkpt><trkpt lat="40.6811581" lon="14.9337951"><ele>547.4</ele><time>2026-03-22T10:12:24.953Z</time></trkpt><trkpt lat="40.6811926" lon="14.9339123"><ele>544.8</ele><time>2026-03-22T10:12:26.958Z</time></trkpt><trkpt lat="40.6812892" lon="14.9340217"><ele>542.2</ele><time>2026-03-22T10:12:29.072Z</time></trkpt><trkpt lat="40.6813282" lon="14.9340899"><ele>539.6</ele><time>2026-03-22T10:12:30.027Z</time></trkpt><trkpt lat="40.6813966" lon="14.9342062"><ele>537.0</ele><time>2026-03-22T10:12:31.955Z</time></trkpt><trkpt lat="40.6814352" lon="14.9342822"><ele>535.1666666666666</ele><time>2026-03-22T10:12:32.96Z</time></trkpt><trkpt lat="40.6814852" lon="14.9343855"><ele>533.3333333333334</ele><time>2026-03-22T10:12:33.953Z</time></trkpt><trkpt lat="40.6815305" lon="14.9344753"><ele>531.5</ele><time>2026-03-22T10:12:34.955Z</time></trkpt><trkpt lat="40.6815756" lon="14.9345599"><ele>529.6666666666667</ele><time>2026-03-22T10:12:36.027Z</time></trkpt><trkpt lat="40.6816315" lon="14.9346598"><ele>527.8333333333334</ele><time>2026-03-22T10:12:36.96Z</time></trkpt><trkpt lat="40.681676" lon="14.9347509"><ele>526.0</ele><time>2026-03-22T10:12:37.961Z</time></trkpt><trkpt lat="40.6817183" lon="14.9348913"><ele>526.0</ele><time>2026-03-22T10:12:40.003Z</time></trkpt><trkpt lat="40.6817612" lon="14.9350171"><ele>526.0</ele><time>2026-03-22T10:12:41.954Z</time></trkpt><trkpt lat="40.6818105" lon="14.9351483"><ele>526.0</ele><time>2026-03-22T10:12:43.962Z</time></trkpt><trkpt lat="40.6818377" lon="14.9352434"><ele>526.0</ele><time>2026-03-22T10:12:44.944Z</time></trkpt><trkpt lat="40.6818713" lon="14.9353445"><ele>526.0</ele><time>2026-03-22T10:12:46.022Z</time></trkpt><trkpt lat="40.6819169" lon="14.9354455"><ele>524.0</ele><time>2026-03-22T10:12:46.951Z</time></trkpt><trkpt lat="40.6819842" lon="14.9355544"><ele>522.0</ele><time>2026-03-22T10:12:47.954Z</time></trkpt><trkpt lat="40.682046" lon="14.9356403"><ele>520.0</ele><time>2026-03-22T10:12:48.959Z</time></trkpt><trkpt lat="40.6821101" lon="14.9357097"><ele>518.0</ele><time>2026-03-22T10:12:49.958Z</time></trkpt><trkpt lat="40.6821875" lon="14.9357629"><ele>516.0</ele><time>2026-03-22T10:12:50.958Z</time></trkpt><trkpt lat="40.6822769" lon="14.9358257"><ele>516.0</ele><time>2026-03-22T10:12:51.964Z</time></trkpt><trkpt lat="40.6823664" lon="14.9359039"><ele>516.0</ele><time>2026-03-22T10:12:52.952Z</time></trkpt><trkpt lat="40.6824493" lon="14.9360022"><ele>516.0</ele><time>2026-03-22T10:12:54.005Z</time></trkpt><trkpt lat="40.6825317" lon="14.936102"><ele>516.0</ele><time>2026-03-22T10:12:55.029Z</time></trkpt><trkpt lat="40.6825877" lon="14.9361563"><ele>516.0</ele><time>2026-03-22T10:12:56.02Z</time></trkpt><trkpt lat="40.6826833" lon="14.9361583"><ele>516.0</ele><time>2026-03-22T10:12:57.965Z</time></trkpt><trkpt lat="40.6827514" lon="14.9361731"><ele>516.0</ele><time>2026-03-22T10:12:59.964Z</time></trkpt><trkpt lat="40.6828297" lon="14.9361852"><ele>516.0</ele><time>2026-03-22T10:19:57.973Z</time></trkpt><trkpt lat="40.6827322" lon="14.9361546"><ele>516.0</ele><time>2026-03-22T10:20:03.97Z</time></trkpt><trkpt lat="40.6826225" lon="14.9361569"><ele>516.0</ele><time>2026-03-22T10:20:05.967Z</time></trkpt><trkpt lat="40.6825595" lon="14.9360969"><ele>516.0</ele><time>2026-03-22T10:20:08.979Z</time></trkpt><trkpt lat="40.682596" lon="14.9360233"><ele>516.0</ele><time>2026-03-22T10:20:10.975Z</time></trkpt><trkpt lat="40.6826175" lon="14.9358656"><ele>516.0</ele><time>2026-03-22T10:20:12.979Z</time></trkpt><trkpt lat="40.6826099" lon="14.935763"><ele>516.0</ele><time>2026-03-22T10:20:13.97Z</time></trkpt><trkpt lat="40.6826132" lon="14.9356734"><ele>516.0</ele><time>2026-03-22T10:20:14.949Z</time></trkpt><trkpt lat="40.6826254" lon="14.9355903"><ele>516.0</ele><time>2026-03-22T10:20:15.971Z</time></trkpt><trkpt lat="40.6826792" lon="14.9354234"><ele>516.0</ele><time>2026-03-22T10:20:17.975Z</time></trkpt><trkpt lat="40.6827025" lon="14.9353341"><ele>516.0</ele><time>2026-03-22T10:20:18.971Z</time></trkpt><trkpt lat="40.6827207" lon="14.9352394"><ele>516.0</ele><time>2026-03-22T10:20:19.969Z</time></trkpt><trkpt lat="40.6827299" lon="14.9351492"><ele>516.0</ele><time>2026-03-22T10:20:20.97Z</time></trkpt><trkpt lat="40.6827385" lon="14.9350658"><ele>516.0</ele><time>2026-03-22T10:20:21.973Z</time></trkpt><trkpt lat="40.6827487" lon="14.9349828"><ele>516.0</ele><time>2026-03-22T10:20:22.973Z</time></trkpt><trkpt lat="40.682799" lon="14.9348374"><ele>511.4</ele><time>2026-03-22T10:20:24.973Z</time></trkpt><trkpt lat="40.6828337" lon="14.9347597"><ele>506.8</ele><time>2026-03-22T10:20:25.97Z</time></trkpt><trkpt lat="40.6828613" lon="14.9346764"><ele>502.19999999999993</ele><time>2026-03-22T10:20:26.965Z</time></trkpt><trkpt lat="40.6828633" lon="14.9345611"><ele>497.59999999999997</ele><time>2026-03-22T10:20:28.976Z</time></trkpt><trkpt lat="40.6827847" lon="14.9344348"><ele>493.0</ele><time>2026-03-22T10:20:30.981Z</time></trkpt><trkpt lat="40.6827649" lon="14.9342732"><ele>489.79999999999995</ele><time>2026-03-22T10:20:32.972Z</time></trkpt><trkpt lat="40.6828179" lon="14.9341416"><ele>486.59999999999997</ele><time>2026-03-22T10:20:34.963Z</time></trkpt><trkpt lat="40.6828979" lon="14.934077"><ele>483.40000000000003</ele><time>2026-03-22T10:20:36.966Z</time></trkpt><trkpt lat="40.6829967" lon="14.9340002"><ele>480.20000000000005</ele><time>2026-03-22T10:20:38.972Z</time></trkpt><trkpt lat="40.6830885" lon="14.9339466"><ele>477.0</ele><time>2026-03-22T10:20:40.966Z</time></trkpt><trkpt lat="40.6831781" lon="14.9339398"><ele>477.0</ele><time>2026-03-22T10:20:42.978Z</time></trkpt><trkpt lat="40.6832728" lon="14.9339491"><ele>477.0</ele><time>2026-03-22T10:20:44.971Z</time></trkpt><trkpt lat="40.6833608" lon="14.9339513"><ele>477.0</ele><time>2026-03-22T10:20:48.972Z</time></trkpt><trkpt lat="40.6834237" lon="14.9339414"><ele>477.0</ele><time>2026-03-22T10:20:51.969Z</time></trkpt><trkpt lat="40.6834835" lon="14.9339686"><ele>477.0</ele><time>2026-03-22T10:20:53.969Z</time></trkpt><trkpt lat="40.6835799" lon="14.9340356"><ele>477.0</ele><time>2026-03-22T10:20:55.977Z</time></trkpt><trkpt lat="40.6836594" lon="14.9340629"><ele>474.8333333333333</ele><time>2026-03-22T10:20:57.97Z</time></trkpt><trkpt lat="40.683712" lon="14.9341097"><ele>472.66666666666663</ele><time>2026-03-22T10:21:00.967Z</time></trkpt><trkpt lat="40.6837923" lon="14.9341675"><ele>470.5</ele><time>2026-03-22T10:21:03.971Z</time></trkpt><trkpt lat="40.6838523" lon="14.9342163"><ele>468.3333333333333</ele><time>2026-03-22T10:21:05.972Z</time></trkpt><trkpt lat="40.6839012" lon="14.9342787"><ele>466.16666666666663</ele><time>2026-03-22T10:21:06.967Z</time></trkpt><trkpt lat="40.683904" lon="14.9343828"><ele>464.0</ele><time>2026-03-22T10:21:09.972Z</time></trkpt><trkpt lat="40.6838353" lon="14.9344731"><ele>463.99999999999994</ele><time>2026-03-22T10:21:11.979Z</time></trkpt><trkpt lat="40.6837536" lon="14.9345734"><ele>464.0</ele><time>2026-03-22T10:21:13.97Z</time></trkpt><trkpt lat="40.6837027" lon="14.9346483"><ele>464.0</ele><time>2026-03-22T10:21:14.975Z</time></trkpt><trkpt lat="40.6836455" lon="14.93471"><ele>464.0</ele><time>2026-03-22T10:21:15.965Z</time></trkpt><trkpt lat="40.683585" lon="14.9347708"><ele>463.99999999999994</ele><time>2026-03-22T10:21:16.968Z</time></trkpt><trkpt lat="40.6835249" lon="14.9348499"><ele>464.0</ele><time>2026-03-22T10:21:17.967Z</time></trkpt><trkpt lat="40.6834788" lon="14.9349318"><ele>468.8333333333333</ele><time>2026-03-22T10:21:18.973Z</time></trkpt><trkpt lat="40.683439" lon="14.9350113"><ele>473.66666666666663</ele><time>2026-03-22T10:21:19.969Z</time></trkpt><trkpt lat="40.683407" lon="14.9350887"><ele>478.5</ele><time>2026-03-22T10:21:20.97Z</time></trkpt><trkpt lat="40.6833786" lon="14.9351868"><ele>483.33333333333337</ele><time>2026-03-22T10:21:21.973Z</time></trkpt><trkpt lat="40.6833889" lon="14.9352911"><ele>488.1666666666667</ele><time>2026-03-22T10:21:22.97Z</time></trkpt><trkpt lat="40.6834026" lon="14.9353883"><ele>493.0</ele><time>2026-03-22T10:21:23.965Z</time></trkpt><trkpt lat="40.6834313" lon="14.9355121"><ele>491.57142857142856</ele><time>2026-03-22T10:21:25.97Z</time></trkpt><trkpt lat="40.6834842" lon="14.9355584"><ele>490.14285714285717</ele><time>2026-03-22T10:21:26.957Z</time></trkpt><trkpt lat="40.6835401" lon="14.9356195"><ele>488.7142857142857</ele><time>2026-03-22T10:21:27.975Z</time></trkpt><trkpt lat="40.6835825" lon="14.9356859"><ele>487.2857142857143</ele><time>2026-03-22T10:21:28.974Z</time></trkpt><trkpt lat="40.6836196" lon="14.9357575"><ele>485.8571428571429</ele><time>2026-03-22T10:21:29.972Z</time></trkpt><trkpt lat="40.68366" lon="14.9358328"><ele>484.42857142857144</ele><time>2026-03-22T10:21:30.966Z</time></trkpt><trkpt lat="40.6836935" lon="14.9359117"><ele>483.0</ele><time>2026-03-22T10:21:31.965Z</time></trkpt><trkpt lat="40.683733" lon="14.9359806"><ele>483.0</ele><time>2026-03-22T10:21:32.975Z</time></trkpt><trkpt lat="40.6838089" lon="14.936074"><ele>483.0</ele><time>2026-03-22T10:21:34.977Z</time></trkpt><trkpt lat="40.6838622" lon="14.9361236"><ele>483.0</ele><time>2026-03-22T10:21:36.971Z</time></trkpt><trkpt lat="40.6839111" lon="14.9361796"><ele>483.0</ele><time>2026-03-22T10:21:38.969Z</time></trkpt><trkpt lat="40.6839295" lon="14.9362695"><ele>483.0</ele><time>2026-03-22T10:21:40.962Z</time></trkpt><trkpt lat="40.6839732" lon="14.9364184"><ele>483.0</ele><time>2026-03-22T10:21:42.968Z</time></trkpt><trkpt lat="40.6840098" lon="14.9365046"><ele>483.0</ele><time>2026-03-22T10:21:43.957Z</time></trkpt><trkpt lat="40.6840466" lon="14.9366158"><ele>483.0</ele><time>2026-03-22T10:21:44.973Z</time></trkpt><trkpt lat="40.684063" lon="14.9367184"><ele>483.0</ele><time>2026-03-22T10:21:45.965Z</time></trkpt><trkpt lat="40.6840594" lon="14.9368217"><ele>483.0</ele><time>2026-03-22T10:21:46.965Z</time></trkpt><trkpt lat="40.6840405" lon="14.9369308"><ele>483.0</ele><time>2026-03-22T10:21:47.963Z</time></trkpt><trkpt lat="40.6840118" lon="14.9370303"><ele>483.0</ele><time>2026-03-22T10:21:48.963Z</time></trkpt><trkpt lat="40.683973" lon="14.9371234"><ele>483.1666666666667</ele><time>2026-03-22T10:21:49.967Z</time></trkpt><trkpt lat="40.6839435" lon="14.9372199"><ele>483.33333333333337</ele><time>2026-03-22T10:21:50.961Z</time></trkpt><trkpt lat="40.6839304" lon="14.9373238"><ele>483.5</ele><time>2026-03-22T10:21:51.966Z</time></trkpt><trkpt lat="40.6839352" lon="14.9374174"><ele>483.6666666666667</ele><time>2026-03-22T10:21:52.965Z</time></trkpt><trkpt lat="40.683939" lon="14.9375143"><ele>483.83333333333337</ele><time>2026-03-22T10:21:53.963Z</time></trkpt><trkpt lat="40.6839201" lon="14.9376208"><ele>484.0</ele><time>2026-03-22T10:21:54.968Z</time></trkpt><trkpt lat="40.683904" lon="14.9377173"><ele>486.79999999999995</ele><time>2026-03-22T10:21:55.972Z</time></trkpt><trkpt lat="40.6839623" lon="14.9377766"><ele>489.59999999999997</ele><time>2026-03-22T10:21:58.978Z</time></trkpt><trkpt lat="40.6840989" lon="14.9377454"><ele>492.4</ele><time>2026-03-22T10:22:00.966Z</time></trkpt><trkpt lat="40.6841822" lon="14.9377462"><ele>495.2</ele><time>2026-03-22T10:22:01.974Z</time></trkpt><trkpt lat="40.6842693" lon="14.9377665"><ele>498.0</ele><time>2026-03-22T10:22:02.967Z</time></trkpt><trkpt lat="40.6843404" lon="14.937822"><ele>498.0</ele><time>2026-03-22T10:22:03.977Z</time></trkpt><trkpt lat="40.6843821" lon="14.9378895"><ele>498.0</ele><time>2026-03-22T10:22:04.969Z</time></trkpt><trkpt lat="40.6843999" lon="14.9379863"><ele>498.0</ele><time>2026-03-22T10:22:05.976Z</time></trkpt><trkpt lat="40.6844057" lon="14.9381078"><ele>498.0</ele><time>2026-03-22T10:22:06.966Z</time></trkpt><trkpt lat="40.6844191" lon="14.9382046"><ele>498.0</ele><time>2026-03-22T10:22:07.97Z</time></trkpt><trkpt lat="40.6844541" lon="14.9383034"><ele>498.0</ele><time>2026-03-22T10:22:08.969Z</time></trkpt><trkpt lat="40.6844928" lon="14.9384036"><ele>498.3333333333333</ele><time>2026-03-22T10:22:09.96Z</time></trkpt><trkpt lat="40.6845334" lon="14.9384976"><ele>498.66666666666663</ele><time>2026-03-22T10:22:10.961Z</time></trkpt><trkpt lat="40.6845939" lon="14.9385884"><ele>499.0</ele><time>2026-03-22T10:22:11.968Z</time></trkpt><trkpt lat="40.6846634" lon="14.9386596"><ele>499.3333333333333</ele><time>2026-03-22T10:22:12.949Z</time></trkpt><trkpt lat="40.6847415" lon="14.9386991"><ele>499.66666666666663</ele><time>2026-03-22T10:22:13.964Z</time></trkpt><trkpt lat="40.6848244" lon="14.9387297"><ele>500.0</ele><time>2026-03-22T10:22:14.962Z</time></trkpt><trkpt lat="40.684897" lon="14.9387359"><ele>499.99999999999994</ele><time>2026-03-22T10:22:15.964Z</time></trkpt><trkpt lat="40.6849635" lon="14.9387095"><ele>500.0</ele><time>2026-03-22T10:22:16.971Z</time></trkpt><trkpt lat="40.6850454" lon="14.9386564"><ele>500.0</ele><time>2026-03-22T10:22:17.969Z</time></trkpt><trkpt lat="40.6851006" lon="14.9385862"><ele>500.0</ele><time>2026-03-22T10:22:18.966Z</time></trkpt><trkpt lat="40.6851426" lon="14.9385112"><ele>499.99999999999994</ele><time>2026-03-22T10:22:19.971Z</time></trkpt><trkpt lat="40.6851732" lon="14.9384256"><ele>500.0</ele><time>2026-03-22T10:22:20.965Z</time></trkpt><trkpt lat="40.6852667" lon="14.9383219"><ele>500.4</ele><time>2026-03-22T10:22:22.966Z</time></trkpt><trkpt lat="40.6853433" lon="14.9382635"><ele>500.8</ele><time>2026-03-22T10:22:23.97Z</time></trkpt><trkpt lat="40.6854218" lon="14.9382022"><ele>501.20000000000005</ele><time>2026-03-22T10:22:24.962Z</time></trkpt><trkpt lat="40.6854983" lon="14.9381303"><ele>501.6</ele><time>2026-03-22T10:22:25.968Z</time></trkpt><trkpt lat="40.6855794" lon="14.9380483"><ele>502.0</ele><time>2026-03-22T10:22:26.966Z</time></trkpt><trkpt lat="40.6856512" lon="14.9379661"><ele>502.0</ele><time>2026-03-22T10:22:27.973Z</time></trkpt><trkpt lat="40.6857087" lon="14.9378941"><ele>502.00000000000006</ele><time>2026-03-22T10:22:28.964Z</time></trkpt><trkpt lat="40.6858034" lon="14.9378778"><ele>502.00000000000006</ele><time>2026-03-22T10:22:30.965Z</time></trkpt><trkpt lat="40.6857416" lon="14.9380202"><ele>502.0</ele><time>2026-03-22T10:22:33.972Z</time></trkpt><trkpt lat="40.6857173" lon="14.9381321"><ele>502.0</ele><time>2026-03-22T10:22:34.965Z</time></trkpt><trkpt lat="40.6856849" lon="14.9382668"><ele>506.6</ele><time>2026-03-22T10:22:35.959Z</time></trkpt><trkpt lat="40.6856539" lon="14.9383904"><ele>511.20000000000005</ele><time>2026-03-22T10:22:36.968Z</time></trkpt><trkpt lat="40.6856177" lon="14.93848"><ele>515.8</ele><time>2026-03-22T10:22:37.968Z</time></trkpt><trkpt lat="40.6855417" lon="14.9386056"><ele>520.4</ele><time>2026-03-22T10:22:39.963Z</time></trkpt><trkpt lat="40.6854656" lon="14.9386555"><ele>525.0</ele><time>2026-03-22T10:22:40.959Z</time></trkpt><trkpt lat="40.6853556" lon="14.9387435"><ele>525.0</ele><time>2026-03-22T10:22:42.958Z</time></trkpt><trkpt lat="40.6852931" lon="14.9388322"><ele>525.0</ele><time>2026-03-22T10:22:43.964Z</time></trkpt><trkpt lat="40.6852431" lon="14.9389545"><ele>525.0</ele><time>2026-03-22T10:22:44.964Z</time></trkpt><trkpt lat="40.6851918" lon="14.9391032"><ele>525.0</ele><time>2026-03-22T10:22:45.969Z</time></trkpt><trkpt lat="40.6851391" lon="14.9392373"><ele>525.0</ele><time>2026-03-22T10:22:46.963Z</time></trkpt><trkpt lat="40.685098" lon="14.9393572"><ele>525.2</ele><time>2026-03-22T10:22:47.962Z</time></trkpt><trkpt lat="40.6850426" lon="14.9394989"><ele>525.4</ele><time>2026-03-22T10:22:48.963Z</time></trkpt><trkpt lat="40.68497" lon="14.9396371"><ele>525.6</ele><time>2026-03-22T10:22:49.96Z</time></trkpt><trkpt lat="40.6849228" lon="14.9397156"><ele>525.8</ele><time>2026-03-22T10:22:50.964Z</time></trkpt><trkpt lat="40.6848518" lon="14.939757"><ele>526.0</ele><time>2026-03-22T10:22:51.963Z</time></trkpt><trkpt lat="40.6847684" lon="14.9397768"><ele>526.0</ele><time>2026-03-22T10:22:52.963Z</time></trkpt><trkpt lat="40.6846945" lon="14.9397645"><ele>526.0</ele><time>2026-03-22T10:22:53.964Z</time></trkpt><trkpt lat="40.6846038" lon="14.9397067"><ele>526.0</ele><time>2026-03-22T10:22:54.958Z</time></trkpt><trkpt lat="40.6845391" lon="14.939636"><ele>526.0</ele><time>2026-03-22T10:22:55.97Z</time></trkpt><trkpt lat="40.6844991" lon="14.9395301"><ele>526.0</ele><time>2026-03-22T10:22:56.974Z</time></trkpt><trkpt lat="40.6844536" lon="14.9394104"><ele>528.4</ele><time>2026-03-22T10:22:57.958Z</time></trkpt><trkpt lat="40.6843669" lon="14.9393264"><ele>530.8</ele><time>2026-03-22T10:22:58.965Z</time></trkpt><trkpt lat="40.6842868" lon="14.9392748"><ele>533.1999999999999</ele><time>2026-03-22T10:22:59.966Z</time></trkpt><trkpt lat="40.6842047" lon="14.9392162"><ele>535.6</ele><time>2026-03-22T10:23:00.974Z</time></trkpt><trkpt lat="40.6841334" lon="14.9391586"><ele>538.0</ele><time>2026-03-22T10:23:01.961Z</time></trkpt><trkpt lat="40.6840394" lon="14.9390448"><ele>534.5714285714286</ele><time>2026-03-22T10:23:03.96Z</time></trkpt><trkpt lat="40.6840041" lon="14.9389721"><ele>531.1428571428572</ele><time>2026-03-22T10:23:04.967Z</time></trkpt><trkpt lat="40.6839609" lon="14.9388992"><ele>527.7142857142858</ele><time>2026-03-22T10:23:05.963Z</time></trkpt><trkpt lat="40.6839175" lon="14.9388301"><ele>524.2857142857143</ele><time>2026-03-22T10:23:06.967Z</time></trkpt><trkpt lat="40.683862" lon="14.9387641"><ele>520.8571428571429</ele><time>2026-03-22T10:23:07.955Z</time></trkpt><trkpt lat="40.6837885" lon="14.9387423"><ele>517.4285714285714</ele><time>2026-03-22T10:23:08.967Z</time></trkpt><trkpt lat="40.6836983" lon="14.9387483"><ele>514.0</ele><time>2026-03-22T10:23:09.974Z</time></trkpt><trkpt lat="40.6835975" lon="14.9387586"><ele>518.6</ele><time>2026-03-22T10:23:10.967Z</time></trkpt><trkpt lat="40.6835029" lon="14.9387713"><ele>523.2</ele><time>2026-03-22T10:23:11.963Z</time></trkpt><trkpt lat="40.683423" lon="14.9387818"><ele>527.8000000000001</ele><time>2026-03-22T10:23:12.969Z</time></trkpt><trkpt lat="40.6833348" lon="14.9387815"><ele>532.4</ele><time>2026-03-22T10:23:13.972Z</time></trkpt><trkpt lat="40.6832438" lon="14.9387318"><ele>537.0</ele><time>2026-03-22T10:23:14.975Z</time></trkpt><trkpt lat="40.6831743" lon="14.9386146"><ele>537.0</ele><time>2026-03-22T10:23:15.975Z</time></trkpt><trkpt lat="40.6831144" lon="14.938479"><ele>537.0</ele><time>2026-03-22T10:23:16.963Z</time></trkpt><trkpt lat="40.6830779" lon="14.9383701"><ele>537.0</ele><time>2026-03-22T10:23:17.974Z</time></trkpt><trkpt lat="40.6830504" lon="14.938267"><ele>537.0</ele><time>2026-03-22T10:23:18.97Z</time></trkpt><trkpt lat="40.6830434" lon="14.9381765"><ele>537.0</ele><time>2026-03-22T10:23:19.974Z</time></trkpt><trkpt lat="40.6830672" lon="14.938037"><ele>535.6666666666666</ele><time>2026-03-22T10:23:21.975Z</time></trkpt><trkpt lat="40.6830674" lon="14.9379179"><ele>534.3333333333334</ele><time>2026-03-22T10:23:23.987Z</time></trkpt><trkpt lat="40.683059" lon="14.9377937"><ele>533.0</ele><time>2026-03-22T10:23:25.97Z</time></trkpt><trkpt lat="40.6830387" lon="14.937675"><ele>531.6666666666667</ele><time>2026-03-22T10:23:27.977Z</time></trkpt><trkpt lat="40.6830571" lon="14.9375924"><ele>530.3333333333334</ele><time>2026-03-22T10:23:29.971Z</time></trkpt><trkpt lat="40.6830711" lon="14.9374901"><ele>529.0</ele><time>2026-03-22T10:23:33.973Z</time></trkpt><trkpt lat="40.683075" lon="14.9374022"><ele>528.1428571428571</ele><time>2026-03-22T10:23:35.975Z</time></trkpt><trkpt lat="40.6830794" lon="14.9373149"><ele>527.2857142857142</ele><time>2026-03-22T10:23:36.974Z</time></trkpt><trkpt lat="40.6830692" lon="14.9372163"><ele>526.4285714285713</ele><time>2026-03-22T10:23:38.973Z</time></trkpt><trkpt lat="40.6830467" lon="14.9371126"><ele>525.5714285714286</ele><time>2026-03-22T10:23:40.953Z</time></trkpt><trkpt lat="40.6829997" lon="14.9370366"><ele>524.7142857142857</ele><time>2026-03-22T10:23:43.969Z</time></trkpt><trkpt lat="40.682955" lon="14.9369595"><ele>523.8571428571428</ele><time>2026-03-22T10:24:01.974Z</time></trkpt><trkpt lat="40.6828801" lon="14.9369472"><ele>523.0</ele><time>2026-03-22T10:24:14.972Z</time></trkpt><trkpt lat="40.6828271" lon="14.9368929"><ele>522.1666666666667</ele><time>2026-03-22T10:24:59.969Z</time></trkpt><trkpt lat="40.6827631" lon="14.9367459"><ele>521.3333333333334</ele><time>2026-03-22T10:25:07.97Z</time></trkpt><trkpt lat="40.6827234" lon="14.9366759"><ele>520.5</ele><time>2026-03-22T10:25:10.975Z</time></trkpt><trkpt lat="40.6826819" lon="14.9366017"><ele>519.6666666666666</ele><time>2026-03-22T10:25:12.968Z</time></trkpt><trkpt lat="40.6826642" lon="14.9364831"><ele>518.8333333333333</ele><time>2026-03-22T10:25:14.973Z</time></trkpt><trkpt lat="40.6826556" lon="14.9363754"><ele>518.0</ele><time>2026-03-22T10:25:16.976Z</time></trkpt><trkpt lat="40.6826609" lon="14.9362835"><ele>517.6666666666666</ele><time>2026-03-22T10:25:18.977Z</time></trkpt><trkpt lat="40.6826046" lon="14.9362111"><ele>517.3333333333333</ele><time>2026-03-22T10:25:27.972Z</time></trkpt><trkpt lat="40.6825349" lon="14.9360909"><ele>517.0</ele><time>2026-03-22T10:25:29.972Z</time></trkpt><trkpt lat="40.6824911" lon="14.9360224"><ele>516.6666666666666</ele><time>2026-03-22T10:25:30.967Z</time></trkpt><trkpt lat="40.6824336" lon="14.9359576"><ele>516.3333333333334</ele><time>2026-03-22T10:25:31.966Z</time></trkpt><trkpt lat="40.682379" lon="14.9358851"><ele>516.0</ele><time>2026-03-22T10:25:32.973Z</time></trkpt><trkpt lat="40.6823238" lon="14.9358123"><ele>516.0</ele><time>2026-03-22T10:25:33.957Z</time></trkpt><trkpt lat="40.6822798" lon="14.9357331"><ele>516.0</ele><time>2026-03-22T10:25:34.968Z</time></trkpt><trkpt lat="40.6822233" lon="14.9356441"><ele>516.0</ele><time>2026-03-22T10:25:35.966Z</time></trkpt><trkpt lat="40.6821577" lon="14.9355567"><ele>516.0</ele><time>2026-03-22T10:25:36.965Z</time></trkpt><trkpt lat="40.6820992" lon="14.9354602"><ele>516.0</ele><time>2026-03-22T10:25:37.977Z</time></trkpt><trkpt lat="40.6820345" lon="14.9353583"><ele>516.0</ele><time>2026-03-22T10:25:38.972Z</time></trkpt><trkpt lat="40.6819726" lon="14.9352523"><ele>516.0</ele><time>2026-03-22T10:25:39.974Z</time></trkpt><trkpt lat="40.6819175" lon="14.9351497"><ele>516.0</ele><time>2026-03-22T10:25:40.973Z</time></trkpt><trkpt lat="40.6818732" lon="14.9350448"><ele>516.0</ele><time>2026-03-22T10:25:41.966Z</time></trkpt><trkpt lat="40.6818335" lon="14.9349347"><ele>516.0</ele><time>2026-03-22T10:25:42.972Z</time></trkpt><trkpt lat="40.6817941" lon="14.9348314"><ele>517.6666666666666</ele><time>2026-03-22T10:25:43.965Z</time></trkpt><trkpt lat="40.6817558" lon="14.93475"><ele>519.3333333333334</ele><time>2026-03-22T10:25:44.973Z</time></trkpt><trkpt lat="40.6817151" lon="14.9346783"><ele>521.0</ele><time>2026-03-22T10:26:09.973Z</time></trkpt><trkpt lat="40.6817177" lon="14.9345555"><ele>522.6666666666667</ele><time>2026-03-22T10:26:11.969Z</time></trkpt><trkpt lat="40.681713" lon="14.9344468"><ele>524.3333333333334</ele><time>2026-03-22T10:26:12.976Z</time></trkpt><trkpt lat="40.6817126" lon="14.9343403"><ele>526.0</ele><time>2026-03-22T10:26:13.975Z</time></trkpt><trkpt lat="40.6817126" lon="14.9342367"><ele>527.8333333333334</ele><time>2026-03-22T10:26:15.025Z</time></trkpt><trkpt lat="40.681714" lon="14.9341336"><ele>529.6666666666667</ele><time>2026-03-22T10:26:16.024Z</time></trkpt><trkpt lat="40.6817098" lon="14.9340422"><ele>531.5</ele><time>2026-03-22T10:26:16.963Z</time></trkpt><trkpt lat="40.6817208" lon="14.9339443"><ele>533.3333333333334</ele><time>2026-03-22T10:26:17.964Z</time></trkpt><trkpt lat="40.6817428" lon="14.9338522"><ele>535.1666666666666</ele><time>2026-03-22T10:26:18.978Z</time></trkpt><trkpt lat="40.6817859" lon="14.9337482"><ele>537.0</ele><time>2026-03-22T10:26:19.967Z</time></trkpt><trkpt lat="40.6818403" lon="14.933633"><ele>537.0</ele><time>2026-03-22T10:26:20.971Z</time></trkpt><trkpt lat="40.6819055" lon="14.9335306"><ele>537.0</ele><time>2026-03-22T10:26:21.964Z</time></trkpt><trkpt lat="40.6819712" lon="14.9334313"><ele>537.0</ele><time>2026-03-22T10:26:22.968Z</time></trkpt><trkpt lat="40.6820499" lon="14.9333371"><ele>537.0</ele><time>2026-03-22T10:26:24.104Z</time></trkpt><trkpt lat="40.6821135" lon="14.933247"><ele>537.0</ele><time>2026-03-22T10:26:25.03Z</time></trkpt><trkpt lat="40.6821696" lon="14.9331662"><ele>533.0</ele><time>2026-03-22T10:26:26.029Z</time></trkpt><trkpt lat="40.6822313" lon="14.9330721"><ele>529.0</ele><time>2026-03-22T10:26:26.949Z</time></trkpt><trkpt lat="40.6822931" lon="14.9329701"><ele>525.0</ele><time>2026-03-22T10:26:27.946Z</time></trkpt><trkpt lat="40.6823527" lon="14.932881"><ele>521.0</ele><time>2026-03-22T10:26:28.962Z</time></trkpt><trkpt lat="40.6824134" lon="14.9327928"><ele>517.0</ele><time>2026-03-22T10:26:30.043Z</time></trkpt><trkpt lat="40.68248" lon="14.9327081"><ele>517.0</ele><time>2026-03-22T10:26:30.945Z</time></trkpt><trkpt lat="40.6825358" lon="14.9326218"><ele>517.0</ele><time>2026-03-22T10:26:31.959Z</time></trkpt><trkpt lat="40.6826092" lon="14.9325509"><ele>517.0</ele><time>2026-03-22T10:26:33.035Z</time></trkpt><trkpt lat="40.6826965" lon="14.9325042"><ele>517.0</ele><time>2026-03-22T10:26:34.032Z</time></trkpt><trkpt lat="40.6827699" lon="14.9324601"><ele>517.0</ele><time>2026-03-22T10:26:35.033Z</time></trkpt><trkpt lat="40.6828545" lon="14.9323758"><ele>515.4285714285714</ele><time>2026-03-22T10:26:36.956Z</time></trkpt><trkpt lat="40.6829248" lon="14.9323106"><ele>513.8571428571429</ele><time>2026-03-22T10:26:44.955Z</time></trkpt><trkpt lat="40.6829876" lon="14.9323252"><ele>512.2857142857143</ele><time>2026-03-22T10:26:49.036Z</time></trkpt><trkpt lat="40.6830035" lon="14.9324127"><ele>510.7142857142858</ele><time>2026-03-22T10:26:53.966Z</time></trkpt><trkpt lat="40.6830224" lon="14.9325162"><ele>509.14285714285717</ele><time>2026-03-22T10:26:58.037Z</time></trkpt><trkpt lat="40.6830082" lon="14.9326083"><ele>507.57142857142867</ele><time>2026-03-22T10:27:05.96Z</time></trkpt><trkpt lat="40.682947" lon="14.9326395"><ele>506.00000000000006</ele><time>2026-03-22T10:27:07.955Z</time></trkpt><trkpt lat="40.6828795" lon="14.9326845"><ele>508.20000000000005</ele><time>2026-03-22T10:27:09.954Z</time></trkpt><trkpt lat="40.6828046" lon="14.9327612"><ele>510.40000000000003</ele><time>2026-03-22T10:27:11.942Z</time></trkpt><trkpt lat="40.6827577" lon="14.9328317"><ele>512.6</ele><time>2026-03-22T10:27:12.953Z</time></trkpt><trkpt lat="40.6827113" lon="14.9328947"><ele>514.8000000000001</ele><time>2026-03-22T10:27:14.041Z</time></trkpt><trkpt lat="40.6826322" lon="14.9329823"><ele>517.0</ele><time>2026-03-22T10:27:16.037Z</time></trkpt><trkpt lat="40.6825691" lon="14.933134"><ele>517.0</ele><time>2026-03-22T10:27:17.96Z</time></trkpt><trkpt lat="40.6825377" lon="14.9332282"><ele>517.0</ele><time>2026-03-22T10:27:18.951Z</time></trkpt><trkpt lat="40.6824868" lon="14.9333218"><ele>517.0</ele><time>2026-03-22T10:27:19.958Z</time></trkpt><trkpt lat="40.682443" lon="14.9334077"><ele>517.0</ele><time>2026-03-22T10:27:20.953Z</time></trkpt><trkpt lat="40.6823939" lon="14.9334892"><ele>517.0</ele><time>2026-03-22T10:27:21.96Z</time></trkpt><trkpt lat="40.6823517" lon="14.9335822"><ele>517.0</ele><time>2026-03-22T10:27:23.035Z</time></trkpt><trkpt lat="40.6823104" lon="14.9336686"><ele>516.8333333333334</ele><time>2026-03-22T10:27:23.953Z</time></trkpt><trkpt lat="40.6822706" lon="14.9337676"><ele>516.6666666666667</ele><time>2026-03-22T10:27:25.027Z</time></trkpt><trkpt lat="40.6822397" lon="14.9338635"><ele>516.5</ele><time>2026-03-22T10:27:26.015Z</time></trkpt><trkpt lat="40.6822225" lon="14.9339613"><ele>516.3333333333334</ele><time>2026-03-22T10:27:26.951Z</time></trkpt><trkpt lat="40.6822116" lon="14.9341062"><ele>516.1666666666666</ele><time>2026-03-22T10:27:29.051Z</time></trkpt><trkpt lat="40.6822177" lon="14.9341911"><ele>516.0</ele><time>2026-03-22T10:27:30.015Z</time></trkpt><trkpt lat="40.6822279" lon="14.9342875"><ele>516.0</ele><time>2026-03-22T10:27:30.98Z</time></trkpt><trkpt lat="40.6822329" lon="14.9343871"><ele>516.0</ele><time>2026-03-22T10:27:31.95Z</time></trkpt><trkpt lat="40.6822427" lon="14.9344841"><ele>516.0</ele><time>2026-03-22T10:27:32.951Z</time></trkpt><trkpt lat="40.6822635" lon="14.9345895"><ele>516.0</ele><time>2026-03-22T10:27:33.956Z</time></trkpt><trkpt lat="40.6822908" lon="14.9346999"><ele>516.0</ele><time>2026-03-22T10:27:35.022Z</time></trkpt><trkpt lat="40.6823277" lon="14.9348024"><ele>516.0</ele><time>2026-03-22T10:27:35.951Z</time></trkpt><trkpt lat="40.6823693" lon="14.9348879"><ele>516.0</ele><time>2026-03-22T10:27:36.95Z</time></trkpt><trkpt lat="40.6823979" lon="14.9349649"><ele>516.0</ele><time>2026-03-22T10:27:37.953Z</time></trkpt><trkpt lat="40.6824137" lon="14.9350503"><ele>516.0</ele><time>2026-03-22T10:27:38.954Z</time></trkpt><trkpt lat="40.6824272" lon="14.935147"><ele>516.0</ele><time>2026-03-22T10:27:39.95Z</time></trkpt><trkpt lat="40.682438" lon="14.935261"><ele>516.0</ele><time>2026-03-22T10:27:40.952Z</time></trkpt><trkpt lat="40.6824459" lon="14.935389"><ele>516.0</ele><time>2026-03-22T10:27:41.957Z</time></trkpt><trkpt lat="40.6824618" lon="14.9355116"><ele>516.0</ele><time>2026-03-22T10:27:42.954Z</time></trkpt><trkpt lat="40.6824649" lon="14.9356077"><ele>516.0</ele><time>2026-03-22T10:27:43.958Z</time></trkpt><trkpt lat="40.6824669" lon="14.9357327"><ele>516.0</ele><time>2026-03-22T10:27:45.951Z</time></trkpt><trkpt lat="40.6824627" lon="14.935819"><ele>516.0</ele><time>2026-03-22T10:27:47.951Z</time></trkpt><trkpt lat="40.6824625" lon="14.9359216"><ele>516.0</ele><time>2026-03-22T10:27:50.957Z</time></trkpt><trkpt lat="40.6825087" lon="14.935995"><ele>516.0</ele><time>2026-03-22T10:28:01.964Z</time></trkpt><trkpt lat="40.6825873" lon="14.9359956"><ele>516.0</ele><time>2026-03-22T10:28:04.958Z</time></trkpt><trkpt lat="40.6826023" lon="14.9358944"><ele>516.0</ele><time>2026-03-22T10:28:07.958Z</time></trkpt><trkpt lat="40.6826141" lon="14.9358073"><ele>516.0</ele><time>2026-03-22T10:28:09.966Z</time></trkpt><trkpt lat="40.6826184" lon="14.9356773"><ele>516.0</ele><time>2026-03-22T10:28:11.959Z</time></trkpt><trkpt lat="40.6826451" lon="14.9355354"><ele>516.0</ele><time>2026-03-22T10:28:14.033Z</time></trkpt><trkpt lat="40.6826763" lon="14.9353973"><ele>516.0</ele><time>2026-03-22T10:28:16.013Z</time></trkpt><trkpt lat="40.6827064" lon="14.9352294"><ele>516.0</ele><time>2026-03-22T10:28:17.955Z</time></trkpt><trkpt lat="40.6827191" lon="14.9351403"><ele>516.0</ele><time>2026-03-22T10:28:18.95Z</time></trkpt><trkpt lat="40.6827276" lon="14.9350573"><ele>516.0</ele><time>2026-03-22T10:28:19.958Z</time></trkpt><trkpt lat="40.6827558" lon="14.9349176"><ele>516.0</ele><time>2026-03-22T10:28:21.957Z</time></trkpt><trkpt lat="40.6828046" lon="14.9347664"><ele>516.0</ele><time>2026-03-22T10:28:23.962Z</time></trkpt><trkpt lat="40.6828408" lon="14.9346372"><ele>516.0</ele><time>2026-03-22T10:28:25.956Z</time></trkpt><trkpt lat="40.6828215" lon="14.9345169"><ele>516.0</ele><time>2026-03-22T10:28:27.961Z</time></trkpt><trkpt lat="40.6827733" lon="14.9343911"><ele>516.0</ele><time>2026-03-22T10:28:29.958Z</time></trkpt><trkpt lat="40.6827596" lon="14.934295"><ele>516.0</ele><time>2026-03-22T10:28:31.959Z</time></trkpt><trkpt lat="40.6828011" lon="14.934179"><ele>509.5</ele><time>2026-03-22T10:28:33.957Z</time></trkpt><trkpt lat="40.6828727" lon="14.9340967"><ele>503.0</ele><time>2026-03-22T10:28:36.029Z</time></trkpt><trkpt lat="40.6829361" lon="14.9340392"><ele>496.5</ele><time>2026-03-22T10:28:36.958Z</time></trkpt><trkpt lat="40.6830043" lon="14.9340094"><ele>490.0</ele><time>2026-03-22T10:28:37.961Z</time></trkpt><trkpt lat="40.6831038" lon="14.9339679"><ele>483.5</ele><time>2026-03-22T10:28:39.962Z</time></trkpt><trkpt lat="40.6831932" lon="14.9339718"><ele>477.0</ele><time>2026-03-22T10:28:41.964Z</time></trkpt><trkpt lat="40.6832703" lon="14.9339723"><ele>477.0</ele><time>2026-03-22T10:28:44.955Z</time></trkpt><trkpt lat="40.683335" lon="14.9339755"><ele>477.0</ele><time>2026-03-22T10:28:47.962Z</time></trkpt><trkpt lat="40.6834056" lon="14.9339638"><ele>477.0</ele><time>2026-03-22T10:28:51.96Z</time></trkpt><trkpt lat="40.6834877" lon="14.9340239"><ele>477.0</ele><time>2026-03-22T10:28:54.959Z</time></trkpt><trkpt lat="40.6835665" lon="14.934036"><ele>477.0</ele><time>2026-03-22T10:28:56.949Z</time></trkpt><trkpt lat="40.6836554" lon="14.9340315"><ele>477.0</ele><time>2026-03-22T10:28:58.95Z</time></trkpt><trkpt lat="40.6837232" lon="14.9340603"><ele>474.8333333333333</ele><time>2026-03-22T10:29:01.954Z</time></trkpt><trkpt lat="40.6837914" lon="14.9340966"><ele>472.66666666666663</ele><time>2026-03-22T10:29:03.955Z</time></trkpt><trkpt lat="40.6838491" lon="14.9341677"><ele>470.5</ele><time>2026-03-22T10:29:05.965Z</time></trkpt><trkpt lat="40.6838931" lon="14.9342947"><ele>468.3333333333333</ele><time>2026-03-22T10:29:07.962Z</time></trkpt><trkpt lat="40.6839194" lon="14.9344087"><ele>466.16666666666663</ele><time>2026-03-22T10:29:09.965Z</time></trkpt><trkpt lat="40.6839225" lon="14.9344981"><ele>464.0</ele><time>2026-03-22T10:29:11.946Z</time></trkpt><trkpt lat="40.6838631" lon="14.9345799"><ele>463.99999999999994</ele><time>2026-03-22T10:29:14.964Z</time></trkpt><trkpt lat="40.6838083" lon="14.9346374"><ele>464.0</ele><time>2026-03-22T10:29:17.958Z</time></trkpt><trkpt lat="40.683751" lon="14.9346959"><ele>464.0</ele><time>2026-03-22T10:29:20.037Z</time></trkpt><trkpt lat="40.6836714" lon="14.9347856"><ele>464.0</ele><time>2026-03-22T10:29:21.954Z</time></trkpt><trkpt lat="40.6835993" lon="14.9348637"><ele>463.99999999999994</ele><time>2026-03-22T10:29:23.951Z</time></trkpt><trkpt lat="40.683529" lon="14.9349546"><ele>464.0</ele><time>2026-03-22T10:29:25.946Z</time></trkpt><trkpt lat="40.6834438" lon="14.9350708"><ele>473.4</ele><time>2026-03-22T10:29:27.981Z</time></trkpt><trkpt lat="40.683404" lon="14.9351888"><ele>482.79999999999995</ele><time>2026-03-22T10:29:29.95Z</time></trkpt><trkpt lat="40.683394" lon="14.9353388"><ele>492.20000000000005</ele><time>2026-03-22T10:29:31.955Z</time></trkpt><trkpt lat="40.6834034" lon="14.935432"><ele>501.6</ele><time>2026-03-22T10:29:32.955Z</time></trkpt><trkpt lat="40.6834092" lon="14.9355515"><ele>511.0</ele><time>2026-03-22T10:29:34.961Z</time></trkpt><trkpt lat="40.6834774" lon="14.9356156"><ele>511.0</ele><time>2026-03-22T10:29:49.95Z</time></trkpt><trkpt lat="40.683572" lon="14.9357049"><ele>511.0</ele><time>2026-03-22T10:29:51.971Z</time></trkpt><trkpt lat="40.6836328" lon="14.9358024"><ele>511.0</ele><time>2026-03-22T10:29:53.975Z</time></trkpt><trkpt lat="40.6836856" lon="14.9359137"><ele>511.0</ele><time>2026-03-22T10:29:54.97Z</time></trkpt><trkpt lat="40.683728" lon="14.9359947"><ele>511.0</ele><time>2026-03-22T10:29:55.971Z</time></trkpt><trkpt lat="40.683797" lon="14.9360763"><ele>506.33333333333337</ele><time>2026-03-22T10:29:57.97Z</time></trkpt><trkpt lat="40.6838514" lon="14.9361241"><ele>501.6666666666667</ele><time>2026-03-22T10:29:59.962Z</time></trkpt><trkpt lat="40.6839196" lon="14.9362245"><ele>497.0</ele><time>2026-03-22T10:30:02.968Z</time></trkpt><trkpt lat="40.6839462" lon="14.93634"><ele>492.33333333333337</ele><time>2026-03-22T10:30:04.965Z</time></trkpt><trkpt lat="40.683967" lon="14.9364303"><ele>487.6666666666667</ele><time>2026-03-22T10:30:05.95Z</time></trkpt><trkpt lat="40.684009" lon="14.9365484"><ele>483.0</ele><time>2026-03-22T10:30:06.958Z</time></trkpt><trkpt lat="40.6840518" lon="14.9366673"><ele>483.1666666666667</ele><time>2026-03-22T10:30:07.969Z</time></trkpt><trkpt lat="40.6840707" lon="14.9367633"><ele>483.33333333333337</ele><time>2026-03-22T10:30:09.047Z</time></trkpt><trkpt lat="40.6840763" lon="14.9368572"><ele>483.5</ele><time>2026-03-22T10:30:10.031Z</time></trkpt><trkpt lat="40.684055" lon="14.9369576"><ele>483.6666666666667</ele><time>2026-03-22T10:30:11.031Z</time></trkpt><trkpt lat="40.6840294" lon="14.9370451"><ele>483.83333333333337</ele><time>2026-03-22T10:30:11.959Z</time></trkpt><trkpt lat="40.6839662" lon="14.9372034"><ele>484.0</ele><time>2026-03-22T10:30:13.958Z</time></trkpt><trkpt lat="40.6839373" lon="14.9373106"><ele>484.00000000000006</ele><time>2026-03-22T10:30:14.953Z</time></trkpt><trkpt lat="40.6839304" lon="14.9374133"><ele>484.0</ele><time>2026-03-22T10:30:15.96Z</time></trkpt><trkpt lat="40.6839368" lon="14.9374963"><ele>484.0</ele><time>2026-03-22T10:30:16.961Z</time></trkpt><trkpt lat="40.6839236" lon="14.937662"><ele>484.0</ele><time>2026-03-22T10:30:19.028Z</time></trkpt><trkpt lat="40.6839251" lon="14.9377783"><ele>484.00000000000006</ele><time>2026-03-22T10:30:20.968Z</time></trkpt><trkpt lat="40.6840012" lon="14.9378154"><ele>484.0</ele><time>2026-03-22T10:30:22.954Z</time></trkpt><trkpt lat="40.6841301" lon="14.9377981"><ele>486.33333333333337</ele><time>2026-03-22T10:30:25.023Z</time></trkpt><trkpt lat="40.684209" lon="14.9377968"><ele>488.6666666666667</ele><time>2026-03-22T10:30:26.034Z</time></trkpt><trkpt lat="40.6842838" lon="14.9378089"><ele>491.0</ele><time>2026-03-22T10:30:26.948Z</time></trkpt><trkpt lat="40.6843419" lon="14.9378496"><ele>493.33333333333337</ele><time>2026-03-22T10:30:27.955Z</time></trkpt><trkpt lat="40.6843992" lon="14.9379927"><ele>495.6666666666667</ele><time>2026-03-22T10:30:29.948Z</time></trkpt><trkpt lat="40.684408" lon="14.9381036"><ele>498.0</ele><time>2026-03-22T10:30:30.953Z</time></trkpt><trkpt lat="40.6844263" lon="14.9382188"><ele>498.4</ele><time>2026-03-22T10:30:31.953Z</time></trkpt><trkpt lat="40.6844629" lon="14.9383344"><ele>498.79999999999995</ele><time>2026-03-22T10:30:32.946Z</time></trkpt><trkpt lat="40.6844996" lon="14.9384458"><ele>499.2</ele><time>2026-03-22T10:30:34.029Z</time></trkpt><trkpt lat="40.6845578" lon="14.9385513"><ele>499.6</ele><time>2026-03-22T10:30:34.951Z</time></trkpt><trkpt lat="40.6846094" lon="14.9386173"><ele>500.0</ele><time>2026-03-22T10:30:35.951Z</time></trkpt><trkpt lat="40.6847432" lon="14.938675"><ele>499.99999999999994</ele><time>2026-03-22T10:30:37.952Z</time></trkpt><trkpt lat="40.6848393" lon="14.9387097"><ele>500.0</ele><time>2026-03-22T10:30:38.954Z</time></trkpt><trkpt lat="40.6849033" lon="14.9387144"><ele>500.0</ele><time>2026-03-22T10:30:39.949Z</time></trkpt><trkpt lat="40.6850058" lon="14.9386295"><ele>500.0</ele><time>2026-03-22T10:30:41.956Z</time></trkpt><trkpt lat="40.6850563" lon="14.9385779"><ele>499.99999999999994</ele><time>2026-03-22T10:30:42.953Z</time></trkpt><trkpt lat="40.6851122" lon="14.9385167"><ele>500.0</ele><time>2026-03-22T10:30:43.956Z</time></trkpt><trkpt lat="40.6851772" lon="14.9384065"><ele>500.3333333333333</ele><time>2026-03-22T10:30:45.948Z</time></trkpt><trkpt lat="40.6852528" lon="14.9383156"><ele>500.66666666666663</ele><time>2026-03-22T10:30:48.024Z</time></trkpt><trkpt lat="40.6853139" lon="14.9382749"><ele>501.0</ele><time>2026-03-22T10:30:49.039Z</time></trkpt><trkpt lat="40.6853786" lon="14.9382294"><ele>501.33333333333337</ele><time>2026-03-22T10:30:50.032Z</time></trkpt><trkpt lat="40.6854452" lon="14.9381756"><ele>501.6666666666667</ele><time>2026-03-22T10:30:50.951Z</time></trkpt><trkpt lat="40.6855127" lon="14.9381205"><ele>502.0</ele><time>2026-03-22T10:30:51.946Z</time></trkpt><trkpt lat="40.6855896" lon="14.9380518"><ele>502.0</ele><time>2026-03-22T10:30:52.951Z</time></trkpt><trkpt lat="40.6856484" lon="14.9379805"><ele>502.00000000000006</ele><time>2026-03-22T10:30:53.953Z</time></trkpt><trkpt lat="40.6857319" lon="14.9379039"><ele>502.00000000000006</ele><time>2026-03-22T10:30:56.027Z</time></trkpt><trkpt lat="40.6857226" lon="14.9380168"><ele>502.0</ele><time>2026-03-22T10:30:59.99Z</time></trkpt><trkpt lat="40.6856617" lon="14.938162"><ele>502.0</ele><time>2026-03-22T10:31:01.953Z</time></trkpt><trkpt lat="40.6856283" lon="14.9382769"><ele>505.83333333333337</ele><time>2026-03-22T10:31:02.95Z</time></trkpt><trkpt lat="40.6856034" lon="14.9383946"><ele>509.6666666666667</ele><time>2026-03-22T10:31:03.959Z</time></trkpt><trkpt lat="40.6855736" lon="14.9384951"><ele>513.5</ele><time>2026-03-22T10:31:04.951Z</time></trkpt><trkpt lat="40.6855415" lon="14.9385952"><ele>517.3333333333334</ele><time>2026-03-22T10:31:05.957Z</time></trkpt><trkpt lat="40.6854984" lon="14.938668"><ele>521.1666666666666</ele><time>2026-03-22T10:31:06.953Z</time></trkpt><trkpt lat="40.6854457" lon="14.9387154"><ele>525.0</ele><time>2026-03-22T10:31:07.956Z</time></trkpt><trkpt lat="40.6853541" lon="14.9388469"><ele>525.0</ele><time>2026-03-22T10:31:10.03Z</time></trkpt><trkpt lat="40.6853107" lon="14.9389456"><ele>525.0</ele><time>2026-03-22T10:31:11.034Z</time></trkpt><trkpt lat="40.6852791" lon="14.9390607"><ele>525.0</ele><time>2026-03-22T10:31:11.953Z</time></trkpt><trkpt lat="40.685241" lon="14.9391788"><ele>525.0</ele><time>2026-03-22T10:31:12.952Z</time></trkpt><trkpt lat="40.685189" lon="14.9392954"><ele>525.0</ele><time>2026-03-22T10:31:13.955Z</time></trkpt><trkpt lat="40.6851278" lon="14.9394081"><ele>525.1666666666666</ele><time>2026-03-22T10:31:14.956Z</time></trkpt><trkpt lat="40.6850698" lon="14.9395307"><ele>525.3333333333334</ele><time>2026-03-22T10:31:15.969Z</time></trkpt><trkpt lat="40.6850023" lon="14.9396425"><ele>525.5</ele><time>2026-03-22T10:31:16.956Z</time></trkpt><trkpt lat="40.6849469" lon="14.9397199"><ele>525.6666666666667</ele><time>2026-03-22T10:31:18.036Z</time></trkpt><trkpt lat="40.6848843" lon="14.9397467"><ele>525.8333333333334</ele><time>2026-03-22T10:31:19.033Z</time></trkpt><trkpt lat="40.6848058" lon="14.9397766"><ele>526.0</ele><time>2026-03-22T10:31:19.955Z</time></trkpt><trkpt lat="40.6847174" lon="14.9397963"><ele>526.0</ele><time>2026-03-22T10:31:20.953Z</time></trkpt><trkpt lat="40.6846243" lon="14.9397611"><ele>526.0</ele><time>2026-03-22T10:31:21.953Z</time></trkpt><trkpt lat="40.684556" lon="14.9397035"><ele>526.0</ele><time>2026-03-22T10:31:22.956Z</time></trkpt><trkpt lat="40.6844837" lon="14.9395893"><ele>526.0</ele><time>2026-03-22T10:31:24.959Z</time></trkpt><trkpt lat="40.6844396" lon="14.9395114"><ele>526.0</ele><time>2026-03-22T10:31:26.03Z</time></trkpt><trkpt lat="40.6843977" lon="14.939427"><ele>526.0</ele><time>2026-03-22T10:31:26.964Z</time></trkpt><trkpt lat="40.6843555" lon="14.9393505"><ele>528.0</ele><time>2026-03-22T10:31:27.957Z</time></trkpt><trkpt lat="40.6842954" lon="14.9392877"><ele>530.0</ele><time>2026-03-22T10:31:28.964Z</time></trkpt><trkpt lat="40.6842237" lon="14.9392225"><ele>532.0</ele><time>2026-03-22T10:31:29.946Z</time></trkpt><trkpt lat="40.6841598" lon="14.9391728"><ele>534.0</ele><time>2026-03-22T10:31:30.964Z</time></trkpt><trkpt lat="40.6840873" lon="14.9390828"><ele>536.0</ele><time>2026-03-22T10:31:32.967Z</time></trkpt><trkpt lat="40.6840411" lon="14.939025"><ele>538.0</ele><time>2026-03-22T10:31:33.966Z</time></trkpt><trkpt lat="40.6839716" lon="14.938925"><ele>537.8</ele><time>2026-03-22T10:31:36.026Z</time></trkpt><trkpt lat="40.6839052" lon="14.9388359"><ele>537.5999999999999</ele><time>2026-03-22T10:31:37.955Z</time></trkpt><trkpt lat="40.6838258" lon="14.938752"><ele>537.4000000000001</ele><time>2026-03-22T10:31:39.955Z</time></trkpt><trkpt lat="40.6837434" lon="14.9387128"><ele>537.2</ele><time>2026-03-22T10:31:41.956Z</time></trkpt><trkpt lat="40.6836375" lon="14.9386753"><ele>537.0</ele><time>2026-03-22T10:31:43.98Z</time></trkpt><trkpt lat="40.6835654" lon="14.9386564"><ele>537.0</ele><time>2026-03-22T10:31:44.982Z</time></trkpt><trkpt lat="40.6834624" lon="14.938624"><ele>537.0</ele><time>2026-03-22T10:31:45.956Z</time></trkpt><trkpt lat="40.683383" lon="14.9385826"><ele>537.0</ele><time>2026-03-22T10:31:46.96Z</time></trkpt><trkpt lat="40.6833119" lon="14.9385624"><ele>537.0</ele><time>2026-03-22T10:31:47.958Z</time></trkpt><trkpt lat="40.6832183" lon="14.9385179"><ele>537.0</ele><time>2026-03-22T10:31:49.96Z</time></trkpt><trkpt lat="40.683146" lon="14.9384228"><ele>535.6666666666666</ele><time>2026-03-22T10:31:51.95Z</time></trkpt><trkpt lat="40.6830979" lon="14.9383007"><ele>534.3333333333334</ele><time>2026-03-22T10:31:54.06Z</time></trkpt><trkpt lat="40.6830729" lon="14.9381724"><ele>533.0</ele><time>2026-03-22T10:31:55.959Z</time></trkpt><trkpt lat="40.6830769" lon="14.9380475"><ele>531.6666666666667</ele><time>2026-03-22T10:31:57.974Z</time></trkpt><trkpt lat="40.6830801" lon="14.9379634"><ele>530.3333333333334</ele><time>2026-03-22T10:31:59.966Z</time></trkpt><trkpt lat="40.6830656" lon="14.9378581"><ele>529.0</ele><time>2026-03-22T10:32:02.965Z</time></trkpt><trkpt lat="40.6830469" lon="14.9377541"><ele>529.0</ele><time>2026-03-22T10:32:05.969Z</time></trkpt><trkpt lat="40.683052" lon="14.937644"><ele>529.0</ele><time>2026-03-22T10:32:08.963Z</time></trkpt><trkpt lat="40.683059" lon="14.9375585"><ele>529.0</ele><time>2026-03-22T10:32:10.959Z</time></trkpt><trkpt lat="40.6830718" lon="14.9374694"><ele>529.0</ele><time>2026-03-22T10:32:12.963Z</time></trkpt><trkpt lat="40.6830713" lon="14.9373601"><ele>529.0</ele><time>2026-03-22T10:32:16.053Z</time></trkpt><trkpt lat="40.6830885" lon="14.9372305"><ele>529.0</ele><time>2026-03-22T10:32:17.961Z</time></trkpt><trkpt lat="40.6830825" lon="14.9371241"><ele>528.1428571428571</ele><time>2026-03-22T10:32:19.96Z</time></trkpt><trkpt lat="40.6831032" lon="14.9370453"><ele>527.2857142857142</ele><time>2026-03-22T10:32:21.967Z</time></trkpt><trkpt lat="40.6830998" lon="14.9369498"><ele>526.4285714285713</ele><time>2026-03-22T10:32:24.971Z</time></trkpt><trkpt lat="40.6830371" lon="14.9368742"><ele>525.5714285714286</ele><time>2026-03-22T10:32:29.979Z</time></trkpt><trkpt lat="40.6830073" lon="14.936794"><ele>524.7142857142857</ele><time>2026-03-22T10:32:30.961Z</time></trkpt><trkpt lat="40.6829783" lon="14.936716"><ele>523.8571428571428</ele><time>2026-03-22T10:32:31.991Z</time></trkpt><trkpt lat="40.6829541" lon="14.9366176"><ele>523.0</ele><time>2026-03-22T10:32:34.032Z</time></trkpt><trkpt lat="40.6829036" lon="14.9365025"><ele>522.6666666666667</ele><time>2026-03-22T10:32:36.037Z</time></trkpt><trkpt lat="40.6828571" lon="14.9363471"><ele>522.3333333333334</ele><time>2026-03-22T10:32:37.968Z</time></trkpt><trkpt lat="40.6828424" lon="14.9362588"><ele>522.0</ele><time>2026-03-22T10:32:40.974Z</time></trkpt><trkpt lat="40.6827592" lon="14.9362241"><ele>521.6666666666666</ele><time>2026-03-22T10:42:55.959Z</time></trkpt><trkpt lat="40.6828251" lon="14.936203"><ele>521.3333333333333</ele><time>2026-03-22T10:43:06.952Z</time></trkpt><trkpt lat="40.6829062" lon="14.9361547"><ele>521.0</ele><time>2026-03-22T10:43:14.972Z</time></trkpt><trkpt lat="40.6830001" lon="14.9360651"><ele>521.0</ele><time>2026-03-22T10:43:15.961Z</time></trkpt><trkpt lat="40.6831014" lon="14.9359612"><ele>521.0</ele><time>2026-03-22T10:43:16.958Z</time></trkpt><trkpt lat="40.6831903" lon="14.9358678"><ele>521.0</ele><time>2026-03-22T10:43:17.96Z</time></trkpt><trkpt lat="40.6832486" lon="14.9358055"><ele>521.0</ele><time>2026-03-22T10:43:18.964Z</time></trkpt><trkpt lat="40.6833004" lon="14.9357578"><ele>521.0</ele><time>2026-03-22T10:43:20.032Z</time></trkpt><trkpt lat="40.6833822" lon="14.9357004"><ele>519.0</ele><time>2026-03-22T10:43:21.96Z</time></trkpt><trkpt lat="40.6833666" lon="14.9355685"><ele>517.0</ele><time>2026-03-22T10:43:23.953Z</time></trkpt><trkpt lat="40.6833645" lon="14.9354842"><ele>515.0</ele><time>2026-03-22T10:43:24.947Z</time></trkpt><trkpt lat="40.6833859" lon="14.9353393"><ele>513.0</ele><time>2026-03-22T10:43:26.955Z</time></trkpt><trkpt lat="40.6834477" lon="14.9351977"><ele>511.0</ele><time>2026-03-22T10:43:28.951Z</time></trkpt><trkpt lat="40.6834797" lon="14.9351083"><ele>507.4</ele><time>2026-03-22T10:43:29.955Z</time></trkpt><trkpt lat="40.6835521" lon="14.934974"><ele>503.8</ele><time>2026-03-22T10:43:31.954Z</time></trkpt><trkpt lat="40.6836402" lon="14.934852"><ele>500.19999999999993</ele><time>2026-03-22T10:43:33.958Z</time></trkpt><trkpt lat="40.6836767" lon="14.9347758"><ele>496.59999999999997</ele><time>2026-03-22T10:43:34.952Z</time></trkpt><trkpt lat="40.6837194" lon="14.9347044"><ele>493.0</ele><time>2026-03-22T10:43:35.953Z</time></trkpt><trkpt lat="40.6838055" lon="14.9346074"><ele>487.2</ele><time>2026-03-22T10:43:37.957Z</time></trkpt><trkpt lat="40.6839128" lon="14.93462"><ele>481.4</ele><time>2026-03-22T10:43:39.955Z</time></trkpt><trkpt lat="40.6839649" lon="14.9345059"><ele>475.59999999999997</ele><time>2026-03-22T10:43:43.963Z</time></trkpt><trkpt lat="40.6839502" lon="14.9344055"><ele>469.79999999999995</ele><time>2026-03-22T10:43:45.959Z</time></trkpt><trkpt lat="40.6838924" lon="14.9343266"><ele>464.0</ele><time>2026-03-22T10:43:47.965Z</time></trkpt><trkpt lat="40.683796" lon="14.9342405"><ele>462.16666666666663</ele><time>2026-03-22T10:43:49.959Z</time></trkpt><trkpt lat="40.6837423" lon="14.9341738"><ele>460.3333333333333</ele><time>2026-03-22T10:43:51.964Z</time></trkpt><trkpt lat="40.6836549" lon="14.9341726"><ele>458.5</ele><time>2026-03-22T10:43:53.952Z</time></trkpt><trkpt lat="40.6835855" lon="14.9341158"><ele>456.66666666666663</ele><time>2026-03-22T10:43:55.952Z</time></trkpt><trkpt lat="40.6835836" lon="14.9340168"><ele>454.8333333333333</ele><time>2026-03-22T10:43:57.945Z</time></trkpt><trkpt lat="40.6836414" lon="14.9339074"><ele>453.0</ele><time>2026-03-22T10:43:59.96Z</time></trkpt><trkpt lat="40.6837114" lon="14.9338775"><ele>453.0</ele><time>2026-03-22T10:44:00.965Z</time></trkpt><trkpt lat="40.6837851" lon="14.9338173"><ele>453.0</ele><time>2026-03-22T10:44:01.956Z</time></trkpt><trkpt lat="40.6838548" lon="14.9337513"><ele>453.0</ele><time>2026-03-22T10:44:02.953Z</time></trkpt><trkpt lat="40.6839251" lon="14.9336885"><ele>453.0</ele><time>2026-03-22T10:44:03.955Z</time></trkpt><trkpt lat="40.6839749" lon="14.9336325"><ele>453.0</ele><time>2026-03-22T10:44:04.953Z</time></trkpt><trkpt lat="40.6840383" lon="14.93355"><ele>453.0</ele><time>2026-03-22T10:44:06.957Z</time></trkpt><trkpt lat="40.6840992" lon="14.933475"><ele>452.0</ele><time>2026-03-22T10:44:07.953Z</time></trkpt><trkpt lat="40.684162" lon="14.9333873"><ele>450.99999999999994</ele><time>2026-03-22T10:44:08.952Z</time></trkpt><trkpt lat="40.6842216" lon="14.9332708"><ele>449.99999999999994</ele><time>2026-03-22T10:44:09.963Z</time></trkpt><trkpt lat="40.6842912" lon="14.9331503"><ele>449.0</ele><time>2026-03-22T10:44:10.957Z</time></trkpt><trkpt lat="40.684346" lon="14.9330336"><ele>448.0</ele><time>2026-03-22T10:44:11.957Z</time></trkpt><trkpt lat="40.684382" lon="14.9329303"><ele>448.00000000000006</ele><time>2026-03-22T10:44:12.958Z</time></trkpt><trkpt lat="40.6843955" lon="14.9328273"><ele>448.0</ele><time>2026-03-22T10:44:13.959Z</time></trkpt><trkpt lat="40.6843816" lon="14.9327161"><ele>448.0</ele><time>2026-03-22T10:44:14.956Z</time></trkpt><trkpt lat="40.684354" lon="14.9326044"><ele>448.0</ele><time>2026-03-22T10:44:15.958Z</time></trkpt><trkpt lat="40.6843112" lon="14.9325013"><ele>448.00000000000006</ele><time>2026-03-22T10:44:16.958Z</time></trkpt><trkpt lat="40.6842544" lon="14.9323937"><ele>448.0</ele><time>2026-03-22T10:44:17.955Z</time></trkpt><trkpt lat="40.6841695" lon="14.9322908"><ele>449.0</ele><time>2026-03-22T10:44:18.955Z</time></trkpt><trkpt lat="40.6840725" lon="14.9321659"><ele>449.99999999999994</ele><time>2026-03-22T10:44:19.959Z</time></trkpt><trkpt lat="40.6840141" lon="14.9320912"><ele>450.99999999999994</ele><time>2026-03-22T10:44:20.944Z</time></trkpt><trkpt lat="40.6840117" lon="14.9319478"><ele>452.0</ele><time>2026-03-22T10:44:22.953Z</time></trkpt><trkpt lat="40.6840322" lon="14.9318002"><ele>453.0</ele><time>2026-03-22T10:44:23.951Z</time></trkpt><trkpt lat="40.684059" lon="14.9316345"><ele>454.4</ele><time>2026-03-22T10:44:24.952Z</time></trkpt><trkpt lat="40.6840984" lon="14.9314944"><ele>455.79999999999995</ele><time>2026-03-22T10:44:25.951Z</time></trkpt><trkpt lat="40.6841498" lon="14.9314024"><ele>457.2</ele><time>2026-03-22T10:44:26.954Z</time></trkpt><trkpt lat="40.6842096" lon="14.9313232"><ele>458.6</ele><time>2026-03-22T10:44:27.946Z</time></trkpt><trkpt lat="40.6842588" lon="14.9312294"><ele>460.0</ele><time>2026-03-22T10:44:29.95Z</time></trkpt><trkpt lat="40.6842612" lon="14.9310806"><ele>459.99999999999994</ele><time>2026-03-22T10:44:31.948Z</time></trkpt><trkpt lat="40.6842324" lon="14.9310046"><ele>460.0</ele><time>2026-03-22T10:44:32.961Z</time></trkpt><trkpt lat="40.6841692" lon="14.9310051"><ele>459.99999999999994</ele><time>2026-03-22T10:44:33.951Z</time></trkpt><trkpt lat="40.6841121" lon="14.9310425"><ele>459.99999999999994</ele><time>2026-03-22T10:44:34.948Z</time></trkpt><trkpt lat="40.6840681" lon="14.9311181"><ele>460.0</ele><time>2026-03-22T10:44:35.952Z</time></trkpt><trkpt lat="40.6840151" lon="14.9311836"><ele>459.99999999999994</ele><time>2026-03-22T10:44:36.953Z</time></trkpt><trkpt lat="40.6839473" lon="14.931275"><ele>459.99999999999994</ele><time>2026-03-22T10:44:37.955Z</time></trkpt><trkpt lat="40.6838968" lon="14.9313579"><ele>460.0</ele><time>2026-03-22T10:44:38.951Z</time></trkpt><trkpt lat="40.6838353" lon="14.931538"><ele>460.0</ele><time>2026-03-22T10:44:40.955Z</time></trkpt><trkpt lat="40.6837833" lon="14.9316768"><ele>460.0</ele><time>2026-03-22T10:44:41.945Z</time></trkpt><trkpt lat="40.683711" lon="14.9318286"><ele>460.0</ele><time>2026-03-22T10:44:42.942Z</time></trkpt><trkpt lat="40.6836636" lon="14.9319575"><ele>458.83333333333337</ele><time>2026-03-22T10:44:43.947Z</time></trkpt><trkpt lat="40.6836465" lon="14.9320446"><ele>457.6666666666667</ele><time>2026-03-22T10:44:44.955Z</time></trkpt><trkpt lat="40.6836645" lon="14.9322131"><ele>456.5</ele><time>2026-03-22T10:44:46.954Z</time></trkpt><trkpt lat="40.6836738" lon="14.9323289"><ele>455.33333333333337</ele><time>2026-03-22T10:44:47.952Z</time></trkpt><trkpt lat="40.6836755" lon="14.9324422"><ele>454.1666666666667</ele><time>2026-03-22T10:44:48.953Z</time></trkpt><trkpt lat="40.6836603" lon="14.9325345"><ele>453.0</ele><time>2026-03-22T10:44:49.959Z</time></trkpt><trkpt lat="40.6835918" lon="14.9324706"><ele>463.59999999999997</ele><time>2026-03-22T10:44:54.963Z</time></trkpt><trkpt lat="40.6835393" lon="14.9323481"><ele>474.19999999999993</ele><time>2026-03-22T10:44:56.963Z</time></trkpt><trkpt lat="40.6834818" lon="14.9322523"><ele>484.8</ele><time>2026-03-22T10:44:57.956Z</time></trkpt><trkpt lat="40.6834015" lon="14.9321589"><ele>495.4</ele><time>2026-03-22T10:44:58.954Z</time></trkpt><trkpt lat="40.6833163" lon="14.9320405"><ele>506.0</ele><time>2026-03-22T10:44:59.94Z</time></trkpt><trkpt lat="40.6832618" lon="14.9319384"><ele>506.0</ele><time>2026-03-22T10:45:00.953Z</time></trkpt><trkpt lat="40.6832226" lon="14.9318685"><ele>506.0</ele><time>2026-03-22T10:45:01.951Z</time></trkpt><trkpt lat="40.6832463" lon="14.931707"><ele>506.0</ele><time>2026-03-22T10:45:03.948Z</time></trkpt><trkpt lat="40.6832815" lon="14.9315984"><ele>506.0</ele><time>2026-03-22T10:45:04.952Z</time></trkpt><trkpt lat="40.6833221" lon="14.9314659"><ele>506.0</ele><time>2026-03-22T10:45:05.955Z</time></trkpt><trkpt lat="40.6833439" lon="14.9313591"><ele>505.4</ele><time>2026-03-22T10:45:06.953Z</time></trkpt><trkpt lat="40.6833371" lon="14.9311983"><ele>504.8</ele><time>2026-03-22T10:45:08.958Z</time></trkpt><trkpt lat="40.6833015" lon="14.9311054"><ele>504.19999999999993</ele><time>2026-03-22T10:45:09.962Z</time></trkpt><trkpt lat="40.6832265" lon="14.9309937"><ele>503.59999999999997</ele><time>2026-03-22T10:45:10.955Z</time></trkpt><trkpt lat="40.683156" lon="14.9308916"><ele>503.0</ele><time>2026-03-22T10:45:11.955Z</time></trkpt><trkpt lat="40.6831079" lon="14.9308277"><ele>503.0</ele><time>2026-03-22T10:45:12.952Z</time></trkpt><trkpt lat="40.6830068" lon="14.9307166"><ele>502.99999999999994</ele><time>2026-03-22T10:45:15.02Z</time></trkpt><trkpt lat="40.6829316" lon="14.9306441"><ele>502.99999999999994</ele><time>2026-03-22T10:45:15.952Z</time></trkpt><trkpt lat="40.6828552" lon="14.9305741"><ele>503.0</ele><time>2026-03-22T10:45:16.945Z</time></trkpt><trkpt lat="40.6827894" lon="14.9305105"><ele>503.0</ele><time>2026-03-22T10:45:17.95Z</time></trkpt><trkpt lat="40.6827187" lon="14.9304496"><ele>503.0</ele><time>2026-03-22T10:45:19.952Z</time></trkpt><trkpt lat="40.6826476" lon="14.9304418"><ele>503.0</ele><time>2026-03-22T10:45:21.935Z</time></trkpt><trkpt lat="40.6826896" lon="14.9305628"><ele>503.0</ele><time>2026-03-22T10:45:25.951Z</time></trkpt><trkpt lat="40.6827686" lon="14.9307515"><ele>503.0</ele><time>2026-03-22T10:45:27.954Z</time></trkpt><trkpt lat="40.6828305" lon="14.9308927"><ele>505.0</ele><time>2026-03-22T10:45:28.952Z</time></trkpt><trkpt lat="40.6828691" lon="14.9310222"><ele>506.99999999999994</ele><time>2026-03-22T10:45:29.946Z</time></trkpt><trkpt lat="40.6828872" lon="14.9311545"><ele>508.99999999999994</ele><time>2026-03-22T10:45:30.945Z</time></trkpt><trkpt lat="40.6828823" lon="14.9312918"><ele>511.0</ele><time>2026-03-22T10:45:31.951Z</time></trkpt><trkpt lat="40.6828588" lon="14.9314299"><ele>513.0</ele><time>2026-03-22T10:45:32.951Z</time></trkpt><trkpt lat="40.6828323" lon="14.9315908"><ele>511.25</ele><time>2026-03-22T10:45:33.943Z</time></trkpt><trkpt lat="40.6828222" lon="14.93176"><ele>509.5</ele><time>2026-03-22T10:45:34.953Z</time></trkpt><trkpt lat="40.6828292" lon="14.9319173"><ele>507.75</ele><time>2026-03-22T10:45:35.948Z</time></trkpt><trkpt lat="40.6828686" lon="14.9320634"><ele>506.0</ele><time>2026-03-22T10:45:36.952Z</time></trkpt><trkpt lat="40.6828867" lon="14.9321874"><ele>505.99999999999994</ele><time>2026-03-22T10:45:37.995Z</time></trkpt><trkpt lat="40.682872" lon="14.9322815"><ele>506.0</ele><time>2026-03-22T10:45:38.955Z</time></trkpt><trkpt lat="40.6828445" lon="14.9323828"><ele>506.0</ele><time>2026-03-22T10:45:39.947Z</time></trkpt><trkpt lat="40.6828065" lon="14.9324651"><ele>506.0</ele><time>2026-03-22T10:45:40.951Z</time></trkpt><trkpt lat="40.6827321" lon="14.9325447"><ele>505.99999999999994</ele><time>2026-03-22T10:45:41.954Z</time></trkpt><trkpt lat="40.682633" lon="14.9326088"><ele>506.0</ele><time>2026-03-22T10:45:42.954Z</time></trkpt><trkpt lat="40.6825231" lon="14.9326799"><ele>508.20000000000005</ele><time>2026-03-22T10:45:43.948Z</time></trkpt><trkpt lat="40.68243" lon="14.9327487"><ele>510.40000000000003</ele><time>2026-03-22T10:45:44.938Z</time></trkpt><trkpt lat="40.6823616" lon="14.932851"><ele>512.6</ele><time>2026-03-22T10:45:45.946Z</time></trkpt><trkpt lat="40.6822947" lon="14.9329646"><ele>514.8000000000001</ele><time>2026-03-22T10:45:46.954Z</time></trkpt><trkpt lat="40.6822251" lon="14.9330676"><ele>517.0</ele><time>2026-03-22T10:45:48.028Z</time></trkpt><trkpt lat="40.6821481" lon="14.9331755"><ele>517.0</ele><time>2026-03-22T10:45:49.028Z</time></trkpt><trkpt lat="40.6820615" lon="14.9332763"><ele>517.0</ele><time>2026-03-22T10:45:49.958Z</time></trkpt><trkpt lat="40.6819679" lon="14.9333854"><ele>517.0</ele><time>2026-03-22T10:45:50.96Z</time></trkpt><trkpt lat="40.6818628" lon="14.9335165"><ele>517.0</ele><time>2026-03-22T10:45:51.96Z</time></trkpt><trkpt lat="40.6817774" lon="14.9336507"><ele>518.8000000000001</ele><time>2026-03-22T10:45:52.964Z</time></trkpt><trkpt lat="40.6817176" lon="14.9338039"><ele>520.6</ele><time>2026-03-22T10:45:53.964Z</time></trkpt><trkpt lat="40.6816907" lon="14.9339345"><ele>522.4000000000001</ele><time>2026-03-22T10:45:54.951Z</time></trkpt><trkpt lat="40.6817001" lon="14.9340274"><ele>524.2</ele><time>2026-03-22T10:45:56.03Z</time></trkpt><trkpt lat="40.6817069" lon="14.9341314"><ele>526.0</ele><time>2026-03-22T10:45:56.958Z</time></trkpt><trkpt lat="40.6817219" lon="14.934258"><ele>526.0</ele><time>2026-03-22T10:45:57.959Z</time></trkpt><trkpt lat="40.6817317" lon="14.9344032"><ele>526.0</ele><time>2026-03-22T10:45:58.999Z</time></trkpt><trkpt lat="40.6817288" lon="14.9345028"><ele>526.0</ele><time>2026-03-22T10:45:59.96Z</time></trkpt><trkpt lat="40.6816558" lon="14.9345085"><ele>526.0</ele><time>2026-03-22T10:46:03.963Z</time></trkpt><trkpt lat="40.6815959" lon="14.9344196"><ele>526.0</ele><time>2026-03-22T10:46:04.955Z</time></trkpt><trkpt lat="40.6815329" lon="14.9343487"><ele>526.0</ele><time>2026-03-22T10:46:05.961Z</time></trkpt><trkpt lat="40.6814924" lon="14.9342545"><ele>528.75</ele><time>2026-03-22T10:46:07.961Z</time></trkpt><trkpt lat="40.681483" lon="14.9340493"><ele>531.5</ele><time>2026-03-22T10:46:09.963Z</time></trkpt><trkpt lat="40.6814896" lon="14.9339069"><ele>534.25</ele><time>2026-03-22T10:46:10.965Z</time></trkpt><trkpt lat="40.6815108" lon="14.9337665"><ele>537.0</ele><time>2026-03-22T10:46:11.958Z</time></trkpt><trkpt lat="40.6815372" lon="14.9336248"><ele>537.0</ele><time>2026-03-22T10:46:13.04Z</time></trkpt><trkpt lat="40.6815677" lon="14.9334735"><ele>537.0</ele><time>2026-03-22T10:46:14.038Z</time></trkpt><trkpt lat="40.6816057" lon="14.9333322"><ele>537.0</ele><time>2026-03-22T10:46:14.984Z</time></trkpt><trkpt lat="40.6816621" lon="14.9331998"><ele>537.0</ele><time>2026-03-22T10:46:15.952Z</time></trkpt><trkpt lat="40.6817186" lon="14.9330874"><ele>537.8000000000001</ele><time>2026-03-22T10:46:16.947Z</time></trkpt><trkpt lat="40.6817778" lon="14.9329932"><ele>538.6</ele><time>2026-03-22T10:46:17.962Z</time></trkpt><trkpt lat="40.6818393" lon="14.9328933"><ele>539.4000000000001</ele><time>2026-03-22T10:46:18.954Z</time></trkpt><trkpt lat="40.681897" lon="14.9327881"><ele>540.2</ele><time>2026-03-22T10:46:19.955Z</time></trkpt><trkpt lat="40.6819436" lon="14.9326714"><ele>541.0</ele><time>2026-03-22T10:46:21.056Z</time></trkpt><trkpt lat="40.6819789" lon="14.9325308"><ele>541.0</ele><time>2026-03-22T10:46:21.959Z</time></trkpt><trkpt lat="40.6820234" lon="14.9323915"><ele>541.0</ele><time>2026-03-22T10:46:22.955Z</time></trkpt><trkpt lat="40.6820673" lon="14.932257"><ele>541.0</ele><time>2026-03-22T10:46:23.967Z</time></trkpt><trkpt lat="40.6821141" lon="14.9321575"><ele>541.0</ele><time>2026-03-22T10:46:25.033Z</time></trkpt><trkpt lat="40.6821642" lon="14.9320903"><ele>541.0</ele><time>2026-03-22T10:46:26.033Z</time></trkpt><trkpt lat="40.6822256" lon="14.9320184"><ele>541.0</ele><time>2026-03-22T10:46:26.949Z</time></trkpt><trkpt lat="40.6822645" lon="14.9319523"><ele>541.0</ele><time>2026-03-22T10:46:27.956Z</time></trkpt><trkpt lat="40.6822857" lon="14.9318578"><ele>541.0</ele><time>2026-03-22T10:46:28.968Z</time></trkpt><trkpt lat="40.6823029" lon="14.9317456"><ele>541.0</ele><time>2026-03-22T10:46:30.027Z</time></trkpt><trkpt lat="40.6823144" lon="14.9316372"><ele>541.0</ele><time>2026-03-22T10:46:31.029Z</time></trkpt><trkpt lat="40.6823197" lon="14.9315408"><ele>541.0</ele><time>2026-03-22T10:46:31.959Z</time></trkpt><trkpt lat="40.6823115" lon="14.9314449"><ele>542.5</ele><time>2026-03-22T10:46:33.025Z</time></trkpt><trkpt lat="40.6822925" lon="14.9313455"><ele>544.0</ele><time>2026-03-22T10:46:34.019Z</time></trkpt><trkpt lat="40.6822667" lon="14.931254"><ele>545.5</ele><time>2026-03-22T10:46:35.015Z</time></trkpt><trkpt lat="40.6822307" lon="14.9311594"><ele>547.0</ele><time>2026-03-22T10:46:35.952Z</time></trkpt><trkpt lat="40.6821829" lon="14.9310765"><ele>548.5</ele><time>2026-03-22T10:46:36.949Z</time></trkpt><trkpt lat="40.6821201" lon="14.9310049"><ele>550.0</ele><time>2026-03-22T10:46:37.947Z</time></trkpt><trkpt lat="40.6820627" lon="14.9309507"><ele>550.0</ele><time>2026-03-22T10:46:38.948Z</time></trkpt><trkpt lat="40.6819913" lon="14.9309098"><ele>550.0</ele><time>2026-03-22T10:46:39.953Z</time></trkpt><trkpt lat="40.6819169" lon="14.9308777"><ele>550.0</ele><time>2026-03-22T10:46:41.013Z</time></trkpt><trkpt lat="40.6818296" lon="14.9308413"><ele>550.0</ele><time>2026-03-22T10:46:41.958Z</time></trkpt><trkpt lat="40.6817297" lon="14.9307988"><ele>550.0</ele><time>2026-03-22T10:46:42.955Z</time></trkpt><trkpt lat="40.6816493" lon="14.9307231"><ele>551.0</ele><time>2026-03-22T10:46:43.957Z</time></trkpt><trkpt lat="40.6815883" lon="14.9306578"><ele>552.0</ele><time>2026-03-22T10:46:45.02Z</time></trkpt><trkpt lat="40.6815425" lon="14.9305921"><ele>553.0</ele><time>2026-03-22T10:46:46.031Z</time></trkpt><trkpt lat="40.6814971" lon="14.930512"><ele>554.0</ele><time>2026-03-22T10:46:46.95Z</time></trkpt><trkpt lat="40.6814909" lon="14.930422"><ele>555.0</ele><time>2026-03-22T10:46:47.951Z</time></trkpt><trkpt lat="40.6814521" lon="14.9303236"><ele>556.0</ele><time>2026-03-22T10:46:48.944Z</time></trkpt><trkpt lat="40.6813937" lon="14.930218"><ele>556.0</ele><time>2026-03-22T10:46:49.951Z</time></trkpt><trkpt lat="40.6813442" lon="14.9300743"><ele>556.0</ele><time>2026-03-22T10:46:50.959Z</time></trkpt><trkpt lat="40.6812904" lon="14.9299529"><ele>556.0</ele><time>2026-03-22T10:46:51.951Z</time></trkpt><trkpt lat="40.6812407" lon="14.9298448"><ele>556.0</ele><time>2026-03-22T10:46:52.952Z</time></trkpt><trkpt lat="40.6811847" lon="14.9297376"><ele>556.0</ele><time>2026-03-22T10:46:53.952Z</time></trkpt><trkpt lat="40.6811249" lon="14.929637"><ele>556.7142857142857</ele><time>2026-03-22T10:46:55.032Z</time></trkpt><trkpt lat="40.6810816" lon="14.9295386"><ele>557.4285714285714</ele><time>2026-03-22T10:46:56.027Z</time></trkpt><trkpt lat="40.6810399" lon="14.9294538"><ele>558.1428571428571</ele><time>2026-03-22T10:46:56.949Z</time></trkpt><trkpt lat="40.6810076" lon="14.9293818"><ele>558.8571428571429</ele><time>2026-03-22T10:46:57.948Z</time></trkpt><trkpt lat="40.6809735" lon="14.9292998"><ele>559.5714285714286</ele><time>2026-03-22T10:46:58.955Z</time></trkpt><trkpt lat="40.6809288" lon="14.9292216"><ele>560.2857142857142</ele><time>2026-03-22T10:46:59.957Z</time></trkpt><trkpt lat="40.6808953" lon="14.9291382"><ele>561.0</ele><time>2026-03-22T10:47:00.954Z</time></trkpt><trkpt lat="40.6809024" lon="14.9290512"><ele>558.0</ele><time>2026-03-22T10:47:01.951Z</time></trkpt><trkpt lat="40.6809173" lon="14.9289361"><ele>555.0</ele><time>2026-03-22T10:47:04.054Z</time></trkpt><trkpt lat="40.6809145" lon="14.9288531"><ele>552.0</ele><time>2026-03-22T10:47:04.956Z</time></trkpt><trkpt lat="40.6808919" lon="14.9287462"><ele>549.0</ele><time>2026-03-22T10:47:05.957Z</time></trkpt><trkpt lat="40.6808653" lon="14.9286427"><ele>546.0</ele><time>2026-03-22T10:47:06.954Z</time></trkpt><trkpt lat="40.6808535" lon="14.9285365"><ele>543.0</ele><time>2026-03-22T10:47:07.957Z</time></trkpt><trkpt lat="40.6808319" lon="14.9284273"><ele>540.8333333333334</ele><time>2026-03-22T10:47:09.041Z</time></trkpt><trkpt lat="40.680812" lon="14.928324"><ele>538.6666666666666</ele><time>2026-03-22T10:47:10.027Z</time></trkpt><trkpt lat="40.6808028" lon="14.9282378"><ele>536.5</ele><time>2026-03-22T10:47:11.038Z</time></trkpt><trkpt lat="40.6808031" lon="14.9281537"><ele>534.3333333333333</ele><time>2026-03-22T10:47:11.956Z</time></trkpt><trkpt lat="40.680805" lon="14.928054"><ele>532.1666666666666</ele><time>2026-03-22T10:47:12.959Z</time></trkpt><trkpt lat="40.6808071" lon="14.9279396"><ele>530.0</ele><time>2026-03-22T10:47:13.978Z</time></trkpt><trkpt lat="40.6808153" lon="14.9278292"><ele>530.0</ele><time>2026-03-22T10:47:15.033Z</time></trkpt><trkpt lat="40.6808349" lon="14.9277197"><ele>530.0</ele><time>2026-03-22T10:47:16.031Z</time></trkpt><trkpt lat="40.6808549" lon="14.9275899"><ele>530.0</ele><time>2026-03-22T10:47:16.951Z</time></trkpt><trkpt lat="40.6808889" lon="14.9274909"><ele>530.0</ele><time>2026-03-22T10:47:18.039Z</time></trkpt><trkpt lat="40.6809217" lon="14.9274126"><ele>530.0</ele><time>2026-03-22T10:47:19.033Z</time></trkpt><trkpt lat="40.6809309" lon="14.927303"><ele>530.0</ele><time>2026-03-22T10:47:20.96Z</time></trkpt><trkpt lat="40.6808356" lon="14.9272929"><ele>530.0</ele><time>2026-03-22T10:47:23.957Z</time></trkpt><trkpt lat="40.6807723" lon="14.9273792"><ele>530.0</ele><time>2026-03-22T10:47:25.957Z</time></trkpt><trkpt lat="40.6807535" lon="14.9274661"><ele>530.0</ele><time>2026-03-22T10:47:26.956Z</time></trkpt><trkpt lat="40.6807278" lon="14.9275614"><ele>530.0</ele><time>2026-03-22T10:47:27.956Z</time></trkpt><trkpt lat="40.6807079" lon="14.9276592"><ele>530.0</ele><time>2026-03-22T10:47:28.952Z</time></trkpt><trkpt lat="40.6807053" lon="14.9277639"><ele>530.0</ele><time>2026-03-22T10:47:29.955Z</time></trkpt><trkpt lat="40.6807109" lon="14.927883"><ele>530.0</ele><time>2026-03-22T10:47:30.955Z</time></trkpt><trkpt lat="40.6807188" lon="14.927988"><ele>530.0</ele><time>2026-03-22T10:47:31.957Z</time></trkpt><trkpt lat="40.6807294" lon="14.9280905"><ele>530.0</ele><time>2026-03-22T10:47:32.972Z</time></trkpt><trkpt lat="40.6807278" lon="14.9281769"><ele>530.0</ele><time>2026-03-22T10:47:33.954Z</time></trkpt><trkpt lat="40.6807181" lon="14.9282639"><ele>530.0</ele><time>2026-03-22T10:47:34.95Z</time></trkpt><trkpt lat="40.6807034" lon="14.9283526"><ele>530.0</ele><time>2026-03-22T10:47:35.957Z</time></trkpt><trkpt lat="40.6806846" lon="14.9284965"><ele>532.1666666666666</ele><time>2026-03-22T10:47:37.964Z</time></trkpt><trkpt lat="40.6806692" lon="14.9286405"><ele>534.3333333333333</ele><time>2026-03-22T10:47:40.034Z</time></trkpt><trkpt lat="40.6806896" lon="14.9287572"><ele>536.5</ele><time>2026-03-22T10:47:41.97Z</time></trkpt><trkpt lat="40.6807374" lon="14.9288243"><ele>538.6666666666666</ele><time>2026-03-22T10:47:45.025Z</time></trkpt><trkpt lat="40.6807722" lon="14.9289298"><ele>540.8333333333334</ele><time>2026-03-22T10:47:46.955Z</time></trkpt><trkpt lat="40.6808063" lon="14.929013"><ele>543.0</ele><time>2026-03-22T10:47:47.972Z</time></trkpt><trkpt lat="40.6807974" lon="14.9291148"><ele>546.0</ele><time>2026-03-22T10:47:49.97Z</time></trkpt><trkpt lat="40.6807752" lon="14.9292328"><ele>549.0</ele><time>2026-03-22T10:47:51.975Z</time></trkpt><trkpt lat="40.6807463" lon="14.9293325"><ele>552.0</ele><time>2026-03-22T10:47:52.965Z</time></trkpt><trkpt lat="40.680718" lon="14.9294144"><ele>555.0</ele><time>2026-03-22T10:47:55.051Z</time></trkpt><trkpt lat="40.6807345" lon="14.9294956"><ele>558.0</ele><time>2026-03-22T10:47:57.966Z</time></trkpt><trkpt lat="40.6807634" lon="14.9296385"><ele>561.0</ele><time>2026-03-22T10:48:00.958Z</time></trkpt><trkpt lat="40.6807777" lon="14.9297262"><ele>561.0</ele><time>2026-03-22T10:48:01.963Z</time></trkpt><trkpt lat="40.6807627" lon="14.9298839"><ele>561.0</ele><time>2026-03-22T10:48:03.96Z</time></trkpt><trkpt lat="40.6807366" lon="14.9300436"><ele>561.0</ele><time>2026-03-22T10:48:06.024Z</time></trkpt><trkpt lat="40.6807277" lon="14.9301447"><ele>561.0</ele><time>2026-03-22T10:48:06.96Z</time></trkpt><trkpt lat="40.6807146" lon="14.930243"><ele>561.0</ele><time>2026-03-22T10:48:07.968Z</time></trkpt><trkpt lat="40.6806939" lon="14.9303327"><ele>564.0</ele><time>2026-03-22T10:48:08.947Z</time></trkpt><trkpt lat="40.680698" lon="14.930477"><ele>567.0</ele><time>2026-03-22T10:48:10.961Z</time></trkpt><trkpt lat="40.6807036" lon="14.9305873"><ele>570.0</ele><time>2026-03-22T10:48:12.963Z</time></trkpt><trkpt lat="40.6807228" lon="14.9306805"><ele>573.0</ele><time>2026-03-22T10:48:14.958Z</time></trkpt><trkpt lat="40.6807242" lon="14.9308223"><ele>576.0</ele><time>2026-03-22T10:48:16.966Z</time></trkpt><trkpt lat="40.6807071" lon="14.9309036"><ele>579.0</ele><time>2026-03-22T10:48:18.033Z</time></trkpt><trkpt lat="40.6806736" lon="14.9309792"><ele>580.6666666666666</ele><time>2026-03-22T10:48:18.977Z</time></trkpt><trkpt lat="40.6806236" lon="14.9311201"><ele>582.3333333333334</ele><time>2026-03-22T10:48:21.028Z</time></trkpt><trkpt lat="40.6806063" lon="14.9312153"><ele>584.0</ele><time>2026-03-22T10:48:21.963Z</time></trkpt><trkpt lat="40.6805955" lon="14.9313148"><ele>585.6666666666667</ele><time>2026-03-22T10:48:22.966Z</time></trkpt><trkpt lat="40.6806125" lon="14.9314206"><ele>587.3333333333334</ele><time>2026-03-22T10:48:23.99Z</time></trkpt><trkpt lat="40.6806436" lon="14.9315292"><ele>589.0</ele><time>2026-03-22T10:48:24.983Z</time></trkpt><trkpt lat="40.6807106" lon="14.9316332"><ele>586.8</ele><time>2026-03-22T10:48:25.988Z</time></trkpt><trkpt lat="40.6807874" lon="14.9317439"><ele>584.5999999999999</ele><time>2026-03-22T10:48:26.96Z</time></trkpt><trkpt lat="40.6808609" lon="14.9318696"><ele>582.4</ele><time>2026-03-22T10:48:28.027Z</time></trkpt><trkpt lat="40.6809224" lon="14.9319952"><ele>580.1999999999999</ele><time>2026-03-22T10:48:29.022Z</time></trkpt><trkpt lat="40.6809777" lon="14.9320928"><ele>578.0</ele><time>2026-03-22T10:48:30.001Z</time></trkpt><trkpt lat="40.6810394" lon="14.9321675"><ele>577.0</ele><time>2026-03-22T10:48:30.964Z</time></trkpt><trkpt lat="40.6811113" lon="14.9322268"><ele>576.0</ele><time>2026-03-22T10:48:31.96Z</time></trkpt><trkpt lat="40.6811808" lon="14.932253"><ele>575.0</ele><time>2026-03-22T10:48:32.967Z</time></trkpt><trkpt lat="40.6812477" lon="14.9323194"><ele>574.0</ele><time>2026-03-22T10:48:35.031Z</time></trkpt><trkpt lat="40.6812279" lon="14.9324141"><ele>573.0</ele><time>2026-03-22T10:48:37.962Z</time></trkpt><trkpt lat="40.6812248" lon="14.9325166"><ele>572.0</ele><time>2026-03-22T10:48:40.965Z</time></trkpt><trkpt lat="40.681255" lon="14.9326239"><ele>568.3333333333333</ele><time>2026-03-22T10:48:42.96Z</time></trkpt><trkpt lat="40.6812504" lon="14.9327354"><ele>564.6666666666666</ele><time>2026-03-22T10:48:46.021Z</time></trkpt><trkpt lat="40.6812562" lon="14.9328509"><ele>561.0</ele><time>2026-03-22T10:48:48.969Z</time></trkpt><trkpt lat="40.6812497" lon="14.9329385"><ele>557.3333333333334</ele><time>2026-03-22T10:48:50.968Z</time></trkpt><trkpt lat="40.6812325" lon="14.9330288"><ele>553.6666666666667</ele><time>2026-03-22T10:48:52.963Z</time></trkpt><trkpt lat="40.6812106" lon="14.933142"><ele>550.0</ele><time>2026-03-22T10:48:54.96Z</time></trkpt><trkpt lat="40.6811979" lon="14.9332499"><ele>550.0</ele><time>2026-03-22T10:48:56.962Z</time></trkpt><trkpt lat="40.6811682" lon="14.9333666"><ele>550.0</ele><time>2026-03-22T10:48:58.951Z</time></trkpt><trkpt lat="40.681161" lon="14.9334839"><ele>550.0</ele><time>2026-03-22T10:49:00.958Z</time></trkpt><trkpt lat="40.6811599" lon="14.9336278"><ele>550.0</ele><time>2026-03-22T10:49:02.96Z</time></trkpt><trkpt lat="40.6811731" lon="14.9337841"><ele>550.0</ele><time>2026-03-22T10:49:04.958Z</time></trkpt><trkpt lat="40.6812158" lon="14.9339173"><ele>547.4</ele><time>2026-03-22T10:49:06.946Z</time></trkpt><trkpt lat="40.6813116" lon="14.9340414"><ele>544.8</ele><time>2026-03-22T10:49:08.953Z</time></trkpt><trkpt lat="40.6813559" lon="14.9341144"><ele>542.2</ele><time>2026-03-22T10:49:09.955Z</time></trkpt><trkpt lat="40.6814074" lon="14.9342401"><ele>539.6</ele><time>2026-03-22T10:49:11.958Z</time></trkpt><trkpt lat="40.6814405" lon="14.9343137"><ele>537.0</ele><time>2026-03-22T10:49:12.955Z</time></trkpt><trkpt lat="40.6814863" lon="14.9344055"><ele>534.8000000000001</ele><time>2026-03-22T10:49:13.958Z</time></trkpt><trkpt lat="40.6815406" lon="14.9345022"><ele>532.6</ele><time>2026-03-22T10:49:14.961Z</time></trkpt><trkpt lat="40.6815934" lon="14.9346105"><ele>530.4000000000001</ele><time>2026-03-22T10:49:15.943Z</time></trkpt><trkpt lat="40.6816413" lon="14.9347202"><ele>528.2</ele><time>2026-03-22T10:49:16.952Z</time></trkpt><trkpt lat="40.6816771" lon="14.9348203"><ele>526.0</ele><time>2026-03-22T10:49:17.96Z</time></trkpt><trkpt lat="40.6817232" lon="14.9349342"><ele>526.0</ele><time>2026-03-22T10:49:19.956Z</time></trkpt><trkpt lat="40.6817678" lon="14.9350335"><ele>526.0</ele><time>2026-03-22T10:49:21.94Z</time></trkpt><trkpt lat="40.6818116" lon="14.9350977"><ele>526.0</ele><time>2026-03-22T10:49:22.958Z</time></trkpt><trkpt lat="40.6818348" lon="14.9351883"><ele>526.0</ele><time>2026-03-22T10:49:23.959Z</time></trkpt><trkpt lat="40.6818582" lon="14.9352889"><ele>526.0</ele><time>2026-03-22T10:49:24.96Z</time></trkpt><trkpt lat="40.6819091" lon="14.9354008"><ele>526.0</ele><time>2026-03-22T10:49:25.957Z</time></trkpt><trkpt lat="40.6819796" lon="14.9355148"><ele>524.0</ele><time>2026-03-22T10:49:26.957Z</time></trkpt><trkpt lat="40.6820539" lon="14.9356133"><ele>522.0</ele><time>2026-03-22T10:49:27.953Z</time></trkpt><trkpt lat="40.6821262" lon="14.9356859"><ele>520.0</ele><time>2026-03-22T10:49:28.963Z</time></trkpt><trkpt lat="40.6822088" lon="14.9357402"><ele>518.0</ele><time>2026-03-22T10:49:29.952Z</time></trkpt><trkpt lat="40.6823049" lon="14.9358076"><ele>516.0</ele><time>2026-03-22T10:49:30.955Z</time></trkpt><trkpt lat="40.6823918" lon="14.9358806"><ele>516.0</ele><time>2026-03-22T10:49:31.997Z</time></trkpt><trkpt lat="40.6824808" lon="14.9359772"><ele>516.0</ele><time>2026-03-22T10:49:32.956Z</time></trkpt><trkpt lat="40.6825411" lon="14.936078"><ele>516.0</ele><time>2026-03-22T10:49:33.952Z</time></trkpt><trkpt lat="40.6826044" lon="14.9361346"><ele>516.0</ele><time>2026-03-22T10:49:34.955Z</time></trkpt><trkpt lat="40.6827116" lon="14.9361365"><ele>516.0</ele><time>2026-03-22T10:49:36.956Z</time></trkpt><trkpt lat="40.6828071" lon="14.9361216"><ele>517.0</ele><time>2026-03-22T10:49:37.951Z</time></trkpt><trkpt lat="40.6829218" lon="14.9360852"><ele>518.0</ele><time>2026-03-22T10:49:38.946Z</time></trkpt><trkpt lat="40.6830144" lon="14.9360229"><ele>519.0</ele><time>2026-03-22T10:49:39.954Z</time></trkpt><trkpt lat="40.6830976" lon="14.9359473"><ele>520.0</ele><time>2026-03-22T10:49:40.96Z</time></trkpt><trkpt lat="40.6831717" lon="14.9358614"><ele>521.0</ele><time>2026-03-22T10:49:41.958Z</time></trkpt><trkpt lat="40.6832386" lon="14.9357935"><ele>519.0</ele><time>2026-03-22T10:49:42.961Z</time></trkpt><trkpt lat="40.6832957" lon="14.9357511"><ele>517.0</ele><time>2026-03-22T10:49:43.948Z</time></trkpt><trkpt lat="40.6833899" lon="14.9356797"><ele>515.0</ele><time>2026-03-22T10:49:45.953Z</time></trkpt><trkpt lat="40.6834092" lon="14.9355978"><ele>513.0</ele><time>2026-03-22T10:49:47.961Z</time></trkpt><trkpt lat="40.6834144" lon="14.9354445"><ele>511.0</ele><time>2026-03-22T10:49:49.953Z</time></trkpt><trkpt lat="40.6834357" lon="14.9352841"><ele>511.00000000000006</ele><time>2026-03-22T10:49:51.953Z</time></trkpt><trkpt lat="40.6834788" lon="14.9351355"><ele>511.0</ele><time>2026-03-22T10:49:53.959Z</time></trkpt><trkpt lat="40.6835132" lon="14.9350504"><ele>511.0</ele><time>2026-03-22T10:49:54.95Z</time></trkpt><trkpt lat="40.6835578" lon="14.9349763"><ele>511.0</ele><time>2026-03-22T10:49:55.961Z</time></trkpt><trkpt lat="40.6836102" lon="14.9349201"><ele>511.00000000000006</ele><time>2026-03-22T10:49:56.954Z</time></trkpt><trkpt lat="40.683657" lon="14.9348605"><ele>511.0</ele><time>2026-03-22T10:49:57.958Z</time></trkpt><trkpt lat="40.6837087" lon="14.9348001"><ele>503.1666666666667</ele><time>2026-03-22T10:49:58.951Z</time></trkpt><trkpt lat="40.6837586" lon="14.9347239"><ele>495.33333333333337</ele><time>2026-03-22T10:49:59.957Z</time></trkpt><trkpt lat="40.6838297" lon="14.934627"><ele>487.5</ele><time>2026-03-22T10:50:01.957Z</time></trkpt><trkpt lat="40.6839071" lon="14.934639"><ele>479.66666666666663</ele><time>2026-03-22T10:50:03.961Z</time></trkpt><trkpt lat="40.6839413" lon="14.9345542"><ele>471.8333333333333</ele><time>2026-03-22T10:50:07.958Z</time></trkpt><trkpt lat="40.6839224" lon="14.9344461"><ele>464.0</ele><time>2026-03-22T10:50:09.965Z</time></trkpt><trkpt lat="40.6838773" lon="14.9343551"><ele>463.99999999999994</ele><time>2026-03-22T10:50:11.959Z</time></trkpt><trkpt lat="40.6838089" lon="14.9342377"><ele>464.0</ele><time>2026-03-22T10:50:13.967Z</time></trkpt><trkpt lat="40.6837575" lon="14.934172"><ele>464.0</ele><time>2026-03-22T10:50:15.97Z</time></trkpt><trkpt lat="40.6836828" lon="14.9341458"><ele>464.0</ele><time>2026-03-22T10:50:17.955Z</time></trkpt><trkpt lat="40.6836228" lon="14.9341018"><ele>463.99999999999994</ele><time>2026-03-22T10:50:19.97Z</time></trkpt><trkpt lat="40.6836173" lon="14.9340158"><ele>464.0</ele><time>2026-03-22T10:50:21.957Z</time></trkpt><trkpt lat="40.6837026" lon="14.9339288"><ele>461.79999999999995</ele><time>2026-03-22T10:50:23.955Z</time></trkpt><trkpt lat="40.6837928" lon="14.9338463"><ele>459.59999999999997</ele><time>2026-03-22T10:50:25.956Z</time></trkpt><trkpt lat="40.6838986" lon="14.9337469"><ele>457.4</ele><time>2026-03-22T10:50:27.955Z</time></trkpt><trkpt lat="40.6839542" lon="14.9336985"><ele>455.2</ele><time>2026-03-22T10:50:28.95Z</time></trkpt><trkpt lat="40.6840089" lon="14.9336472"><ele>453.0</ele><time>2026-03-22T10:50:29.957Z</time></trkpt><trkpt lat="40.6840944" lon="14.9335153"><ele>453.0</ele><time>2026-03-22T10:50:31.947Z</time></trkpt><trkpt lat="40.6841474" lon="14.9334162"><ele>453.0</ele><time>2026-03-22T10:50:32.952Z</time></trkpt><trkpt lat="40.6842052" lon="14.9332988"><ele>453.0</ele><time>2026-03-22T10:50:33.951Z</time></trkpt><trkpt lat="40.6842575" lon="14.9332016"><ele>453.0</ele><time>2026-03-22T10:50:34.958Z</time></trkpt><trkpt lat="40.6843017" lon="14.9331143"><ele>453.0</ele><time>2026-03-22T10:50:35.952Z</time></trkpt><trkpt lat="40.6843379" lon="14.9330192"><ele>453.0</ele><time>2026-03-22T10:50:36.956Z</time></trkpt><trkpt lat="40.6843555" lon="14.9329184"><ele>453.0</ele><time>2026-03-22T10:50:37.955Z</time></trkpt><trkpt lat="40.6843554" lon="14.9328106"><ele>453.0</ele><time>2026-03-22T10:50:38.945Z</time></trkpt><trkpt lat="40.6843359" lon="14.9327057"><ele>453.0</ele><time>2026-03-22T10:50:39.952Z</time></trkpt><trkpt lat="40.6843033" lon="14.9325999"><ele>453.0</ele><time>2026-03-22T10:50:40.96Z</time></trkpt><trkpt lat="40.6842666" lon="14.9325053"><ele>453.0</ele><time>2026-03-22T10:50:41.953Z</time></trkpt><trkpt lat="40.6842115" lon="14.9324134"><ele>453.0</ele><time>2026-03-22T10:50:42.963Z</time></trkpt><trkpt lat="40.6841499" lon="14.9323227"><ele>453.0</ele><time>2026-03-22T10:50:43.946Z</time></trkpt><trkpt lat="40.6840769" lon="14.932208"><ele>453.0</ele><time>2026-03-22T10:50:44.953Z</time></trkpt><trkpt lat="40.6840081" lon="14.932104"><ele>453.0</ele><time>2026-03-22T10:50:45.959Z</time></trkpt><trkpt lat="40.6839966" lon="14.9319631"><ele>453.0</ele><time>2026-03-22T10:50:47.947Z</time></trkpt><trkpt lat="40.6840292" lon="14.9317953"><ele>454.75</ele><time>2026-03-22T10:50:48.953Z</time></trkpt><trkpt lat="40.6840727" lon="14.9316047"><ele>456.5</ele><time>2026-03-22T10:50:49.945Z</time></trkpt><trkpt lat="40.6841172" lon="14.931458"><ele>458.25</ele><time>2026-03-22T10:50:51.048Z</time></trkpt><trkpt lat="40.6841703" lon="14.9313598"><ele>460.0</ele><time>2026-03-22T10:50:51.953Z</time></trkpt><trkpt lat="40.6842313" lon="14.9312609"><ele>460.00000000000006</ele><time>2026-03-22T10:50:52.956Z</time></trkpt><trkpt lat="40.6842541" lon="14.9311526"><ele>460.0</ele><time>2026-03-22T10:50:55.026Z</time></trkpt><trkpt lat="40.6842297" lon="14.9310753"><ele>460.0</ele><time>2026-03-22T10:50:55.95Z</time></trkpt><trkpt lat="40.6841747" lon="14.930988"><ele>460.0</ele><time>2026-03-22T10:50:57.957Z</time></trkpt><trkpt lat="40.6841129" lon="14.9310249"><ele>460.00000000000006</ele><time>2026-03-22T10:51:00.033Z</time></trkpt><trkpt lat="40.684061" lon="14.9310999"><ele>460.0</ele><time>2026-03-22T10:51:00.959Z</time></trkpt><trkpt lat="40.6839976" lon="14.9311961"><ele>460.0</ele><time>2026-03-22T10:51:01.954Z</time></trkpt><trkpt lat="40.683937" lon="14.9312897"><ele>460.0</ele><time>2026-03-22T10:51:02.963Z</time></trkpt><trkpt lat="40.6838899" lon="14.9313777"><ele>460.0</ele><time>2026-03-22T10:51:03.961Z</time></trkpt><trkpt lat="40.6838536" lon="14.9314698"><ele>460.0</ele><time>2026-03-22T10:51:04.959Z</time></trkpt><trkpt lat="40.6838165" lon="14.9315913"><ele>460.0</ele><time>2026-03-22T10:51:05.962Z</time></trkpt><trkpt lat="40.6837546" lon="14.9317467"><ele>458.6</ele><time>2026-03-22T10:51:06.961Z</time></trkpt><trkpt lat="40.6836858" lon="14.9319216"><ele>457.2</ele><time>2026-03-22T10:51:08.029Z</time></trkpt><trkpt lat="40.6836478" lon="14.932033"><ele>455.79999999999995</ele><time>2026-03-22T10:51:09.03Z</time></trkpt><trkpt lat="40.6836169" lon="14.9321499"><ele>454.4</ele><time>2026-03-22T10:51:10.99Z</time></trkpt><trkpt lat="40.6836273" lon="14.9322419"><ele>453.0</ele><time>2026-03-22T10:51:11.956Z</time></trkpt><trkpt lat="40.6836447" lon="14.932363"><ele>453.0</ele><time>2026-03-22T10:51:12.949Z</time></trkpt><trkpt lat="40.6836528" lon="14.9324591"><ele>453.0</ele><time>2026-03-22T10:51:13.964Z</time></trkpt><trkpt lat="40.683637" lon="14.9325796"><ele>453.0</ele><time>2026-03-22T10:51:16.031Z</time></trkpt><trkpt lat="40.6835762" lon="14.9324664"><ele>453.0</ele><time>2026-03-22T10:51:19.978Z</time></trkpt><trkpt lat="40.6835435" lon="14.9323884"><ele>453.0</ele><time>2026-03-22T10:51:21.039Z</time></trkpt><trkpt lat="40.6835004" lon="14.9323225"><ele>453.0</ele><time>2026-03-22T10:51:21.961Z</time></trkpt><trkpt lat="40.6834489" lon="14.9322551"><ele>463.59999999999997</ele><time>2026-03-22T10:51:22.955Z</time></trkpt><trkpt lat="40.6833765" lon="14.9321704"><ele>474.19999999999993</ele><time>2026-03-22T10:51:23.962Z</time></trkpt><trkpt lat="40.683299" lon="14.9320688"><ele>484.8</ele><time>2026-03-22T10:51:24.955Z</time></trkpt><trkpt lat="40.6832395" lon="14.9319634"><ele>495.4</ele><time>2026-03-22T10:51:25.959Z</time></trkpt><trkpt lat="40.6832178" lon="14.9318788"><ele>506.0</ele><time>2026-03-22T10:51:26.954Z</time></trkpt><trkpt lat="40.6832247" lon="14.9317077"><ele>507.4</ele><time>2026-03-22T10:51:28.963Z</time></trkpt><trkpt lat="40.6832583" lon="14.931588"><ele>508.8</ele><time>2026-03-22T10:51:29.954Z</time></trkpt><trkpt lat="40.6833023" lon="14.9314683"><ele>510.19999999999993</ele><time>2026-03-22T10:51:31.025Z</time></trkpt><trkpt lat="40.6833343" lon="14.9313762"><ele>511.59999999999997</ele><time>2026-03-22T10:51:31.954Z</time></trkpt><trkpt lat="40.6833396" lon="14.9312901"><ele>513.0</ele><time>2026-03-22T10:51:32.957Z</time></trkpt><trkpt lat="40.6832971" lon="14.931123"><ele>513.0</ele><time>2026-03-22T10:51:34.959Z</time></trkpt><trkpt lat="40.6832298" lon="14.9310226"><ele>513.0</ele><time>2026-03-22T10:51:35.957Z</time></trkpt><trkpt lat="40.6831641" lon="14.9309192"><ele>513.0</ele><time>2026-03-22T10:51:36.956Z</time></trkpt><trkpt lat="40.6831175" lon="14.930843"><ele>513.0</ele><time>2026-03-22T10:51:37.959Z</time></trkpt><trkpt lat="40.6830724" lon="14.9307751"><ele>513.0</ele><time>2026-03-22T10:51:38.965Z</time></trkpt><trkpt lat="40.683022" lon="14.9307079"><ele>513.0</ele><time>2026-03-22T10:51:40.036Z</time></trkpt><trkpt lat="40.6829513" lon="14.9306387"><ele>511.3333333333333</ele><time>2026-03-22T10:51:41.028Z</time></trkpt><trkpt lat="40.6828721" lon="14.93057"><ele>509.66666666666663</ele><time>2026-03-22T10:51:41.961Z</time></trkpt><trkpt lat="40.6827974" lon="14.9305142"><ele>508.0</ele><time>2026-03-22T10:51:42.961Z</time></trkpt><trkpt lat="40.6827357" lon="14.9304728"><ele>506.3333333333333</ele><time>2026-03-22T10:51:44.046Z</time></trkpt><trkpt lat="40.6826437" lon="14.930415"><ele>504.66666666666663</ele><time>2026-03-22T10:51:45.96Z</time></trkpt><trkpt lat="40.68263" lon="14.9305066"><ele>503.0</ele><time>2026-03-22T10:51:49.027Z</time></trkpt><trkpt lat="40.682684" lon="14.9306018"><ele>503.0</ele><time>2026-03-22T10:51:50.031Z</time></trkpt><trkpt lat="40.6827481" lon="14.9307122"><ele>503.0</ele><time>2026-03-22T10:51:50.958Z</time></trkpt><trkpt lat="40.6828257" lon="14.9308477"><ele>503.0</ele><time>2026-03-22T10:51:51.956Z</time></trkpt><trkpt lat="40.682895" lon="14.930982"><ele>503.0</ele><time>2026-03-22T10:51:52.951Z</time></trkpt><trkpt lat="40.6829512" lon="14.9311132"><ele>503.59999999999997</ele><time>2026-03-22T10:51:53.963Z</time></trkpt><trkpt lat="40.6829663" lon="14.9312415"><ele>504.19999999999993</ele><time>2026-03-22T10:51:54.971Z</time></trkpt><trkpt lat="40.6829569" lon="14.9313701"><ele>504.8</ele><time>2026-03-22T10:51:55.959Z</time></trkpt><trkpt lat="40.6829331" lon="14.931501"><ele>505.4</ele><time>2026-03-22T10:51:56.954Z</time></trkpt><trkpt lat="40.6829017" lon="14.9316536"><ele>506.0</ele><time>2026-03-22T10:51:58.033Z</time></trkpt><trkpt lat="40.682882" lon="14.9318154"><ele>506.0</ele><time>2026-03-22T10:51:59.048Z</time></trkpt><trkpt lat="40.6828742" lon="14.9319896"><ele>506.0</ele><time>2026-03-22T10:52:00.033Z</time></trkpt><trkpt lat="40.6828791" lon="14.9321285"><ele>506.0</ele><time>2026-03-22T10:52:00.939Z</time></trkpt><trkpt lat="40.6828959" lon="14.9322313"><ele>506.0</ele><time>2026-03-22T10:52:01.953Z</time></trkpt><trkpt lat="40.6828696" lon="14.9323817"><ele>506.0</ele><time>2026-03-22T10:52:03.952Z</time></trkpt><trkpt lat="40.6828112" lon="14.9324654"><ele>508.20000000000005</ele><time>2026-03-22T10:52:04.95Z</time></trkpt><trkpt lat="40.6827184" lon="14.9325445"><ele>510.40000000000003</ele><time>2026-03-22T10:52:06.052Z</time></trkpt><trkpt lat="40.6826191" lon="14.9326071"><ele>512.6</ele><time>2026-03-22T10:52:06.954Z</time></trkpt><trkpt lat="40.6825096" lon="14.932666"><ele>514.8000000000001</ele><time>2026-03-22T10:52:07.955Z</time></trkpt><trkpt lat="40.6824131" lon="14.932728"><ele>517.0</ele><time>2026-03-22T10:52:08.976Z</time></trkpt><trkpt lat="40.6823305" lon="14.9328036"><ele>517.0</ele><time>2026-03-22T10:52:09.952Z</time></trkpt><trkpt lat="40.6822623" lon="14.9329089"><ele>517.0</ele><time>2026-03-22T10:52:10.954Z</time></trkpt><trkpt lat="40.6822007" lon="14.9330335"><ele>517.0</ele><time>2026-03-22T10:52:11.952Z</time></trkpt><trkpt lat="40.6821277" lon="14.9331673"><ele>517.0</ele><time>2026-03-22T10:52:12.958Z</time></trkpt><trkpt lat="40.6820516" lon="14.9332832"><ele>514.75</ele><time>2026-03-22T10:52:13.956Z</time></trkpt><trkpt lat="40.681964" lon="14.9333912"><ele>512.5</ele><time>2026-03-22T10:52:15.022Z</time></trkpt><trkpt lat="40.6818705" lon="14.9335024"><ele>510.25</ele><time>2026-03-22T10:52:15.955Z</time></trkpt><trkpt lat="40.6817822" lon="14.9336483"><ele>508.0</ele><time>2026-03-22T10:52:16.957Z</time></trkpt><trkpt lat="40.6817061" lon="14.9338006"><ele>511.59999999999997</ele><time>2026-03-22T10:52:17.952Z</time></trkpt><trkpt lat="40.6816601" lon="14.9339376"><ele>515.1999999999999</ele><time>2026-03-22T10:52:19.049Z</time></trkpt><trkpt lat="40.681661" lon="14.934047"><ele>518.8</ele><time>2026-03-22T10:52:19.977Z</time></trkpt><trkpt lat="40.6816834" lon="14.9341789"><ele>522.4</ele><time>2026-03-22T10:52:20.944Z</time></trkpt><trkpt lat="40.6817046" lon="14.9343315"><ele>526.0</ele><time>2026-03-22T10:52:21.951Z</time></trkpt><trkpt lat="40.6817168" lon="14.9344581"><ele>526.0</ele><time>2026-03-22T10:52:22.961Z</time></trkpt><trkpt lat="40.681726" lon="14.934573"><ele>526.0</ele><time>2026-03-22T10:52:25.032Z</time></trkpt><trkpt lat="40.6816529" lon="14.9345251"><ele>526.0</ele><time>2026-03-22T10:52:27.952Z</time></trkpt><trkpt lat="40.6815952" lon="14.934425"><ele>526.0</ele><time>2026-03-22T10:52:29.033Z</time></trkpt><trkpt lat="40.6815387" lon="14.9343389"><ele>526.0</ele><time>2026-03-22T10:52:30.014Z</time></trkpt><trkpt lat="40.6814994" lon="14.9342697"><ele>526.0</ele><time>2026-03-22T10:52:31.034Z</time></trkpt><trkpt lat="40.6814938" lon="14.9341856"><ele>528.2</ele><time>2026-03-22T10:52:31.949Z</time></trkpt><trkpt lat="40.6815049" lon="14.9340483"><ele>530.4000000000001</ele><time>2026-03-22T10:52:32.956Z</time></trkpt><trkpt lat="40.6815096" lon="14.9338974"><ele>532.6</ele><time>2026-03-22T10:52:33.949Z</time></trkpt><trkpt lat="40.6815209" lon="14.933756"><ele>534.8000000000001</ele><time>2026-03-22T10:52:34.955Z</time></trkpt><trkpt lat="40.6815419" lon="14.9336134"><ele>537.0</ele><time>2026-03-22T10:52:35.959Z</time></trkpt><trkpt lat="40.6815729" lon="14.9334683"><ele>540.25</ele><time>2026-03-22T10:52:36.947Z</time></trkpt><trkpt lat="40.6816316" lon="14.9332881"><ele>543.5</ele><time>2026-03-22T10:52:38.036Z</time></trkpt><trkpt lat="40.6816831" lon="14.9331502"><ele>546.75</ele><time>2026-03-22T10:52:39.034Z</time></trkpt><trkpt lat="40.6817426" lon="14.9330333"><ele>550.0</ele><time>2026-03-22T10:52:40.016Z</time></trkpt><trkpt lat="40.6818069" lon="14.9329211"><ele>550.0</ele><time>2026-03-22T10:52:40.957Z</time></trkpt><trkpt lat="40.6818698" lon="14.9328125"><ele>550.0</ele><time>2026-03-22T10:52:41.955Z</time></trkpt><trkpt lat="40.6819243" lon="14.9327019"><ele>550.0</ele><time>2026-03-22T10:52:42.953Z</time></trkpt><trkpt lat="40.6819683" lon="14.9325662"><ele>550.0</ele><time>2026-03-22T10:52:43.96Z</time></trkpt><trkpt lat="40.6820087" lon="14.9324176"><ele>550.0</ele><time>2026-03-22T10:52:44.951Z</time></trkpt><trkpt lat="40.6820547" lon="14.9322595"><ele>550.0</ele><time>2026-03-22T10:52:46.022Z</time></trkpt><trkpt lat="40.6820977" lon="14.9321258"><ele>550.0</ele><time>2026-03-22T10:52:46.95Z</time></trkpt><trkpt lat="40.6821601" lon="14.9320149"><ele>550.0</ele><time>2026-03-22T10:52:48.038Z</time></trkpt><trkpt lat="40.682222" lon="14.9319433"><ele>550.0</ele><time>2026-03-22T10:52:49.033Z</time></trkpt><trkpt lat="40.6822799" lon="14.9318755"><ele>550.0</ele><time>2026-03-22T10:52:50.031Z</time></trkpt><trkpt lat="40.6822927" lon="14.9317852"><ele>550.0</ele><time>2026-03-22T10:52:51.033Z</time></trkpt><trkpt lat="40.6822957" lon="14.9316798"><ele>550.0</ele><time>2026-03-22T10:52:51.951Z</time></trkpt><trkpt lat="40.6823054" lon="14.9315766"><ele>550.0</ele><time>2026-03-22T10:52:52.954Z</time></trkpt><trkpt lat="40.6823124" lon="14.9314886"><ele>550.0</ele><time>2026-03-22T10:52:53.975Z</time></trkpt><trkpt lat="40.6822725" lon="14.9313378"><ele>550.0</ele><time>2026-03-22T10:52:55.972Z</time></trkpt><trkpt lat="40.6822239" lon="14.9312586"><ele>550.0</ele><time>2026-03-22T10:52:56.966Z</time></trkpt><trkpt lat="40.682174" lon="14.9311737"><ele>550.0</ele><time>2026-03-22T10:52:57.962Z</time></trkpt><trkpt lat="40.6821146" lon="14.9310906"><ele>550.0</ele><time>2026-03-22T10:52:59.035Z</time></trkpt><trkpt lat="40.6820548" lon="14.9310144"><ele>550.0</ele><time>2026-03-22T10:52:59.958Z</time></trkpt><trkpt lat="40.6820054" lon="14.9309567"><ele>550.0</ele><time>2026-03-22T10:53:00.957Z</time></trkpt><trkpt lat="40.6819519" lon="14.9309021"><ele>550.0</ele><time>2026-03-22T10:53:01.953Z</time></trkpt><trkpt lat="40.6818864" lon="14.9308624"><ele>550.0</ele><time>2026-03-22T10:53:03.032Z</time></trkpt><trkpt lat="40.6818062" lon="14.9308251"><ele>550.0</ele><time>2026-03-22T10:53:04.013Z</time></trkpt><trkpt lat="40.6817178" lon="14.9307714"><ele>551.0</ele><time>2026-03-22T10:53:05.033Z</time></trkpt><trkpt lat="40.6816343" lon="14.930702"><ele>552.0</ele><time>2026-03-22T10:53:06.029Z</time></trkpt><trkpt lat="40.6815738" lon="14.930632"><ele>553.0</ele><time>2026-03-22T10:53:06.949Z</time></trkpt><trkpt lat="40.6815421" lon="14.9305405"><ele>554.0</ele><time>2026-03-22T10:53:07.952Z</time></trkpt><trkpt lat="40.6815101" lon="14.9304523"><ele>555.0</ele><time>2026-03-22T10:53:08.971Z</time></trkpt><trkpt lat="40.6814804" lon="14.930361"><ele>556.0</ele><time>2026-03-22T10:53:09.946Z</time></trkpt><trkpt lat="40.681445" lon="14.9302555"><ele>556.0</ele><time>2026-03-22T10:53:11.041Z</time></trkpt><trkpt lat="40.6814091" lon="14.9301451"><ele>556.0</ele><time>2026-03-22T10:53:11.951Z</time></trkpt><trkpt lat="40.6813561" lon="14.930021"><ele>556.0</ele><time>2026-03-22T10:53:12.957Z</time></trkpt><trkpt lat="40.6812929" lon="14.9298918"><ele>556.0</ele><time>2026-03-22T10:53:13.96Z</time></trkpt><trkpt lat="40.6812172" lon="14.9297652"><ele>556.0</ele><time>2026-03-22T10:53:14.956Z</time></trkpt><trkpt lat="40.6811483" lon="14.9296495"><ele>556.8333333333334</ele><time>2026-03-22T10:53:15.952Z</time></trkpt><trkpt lat="40.6810925" lon="14.9295486"><ele>557.6666666666667</ele><time>2026-03-22T10:53:16.954Z</time></trkpt><trkpt lat="40.6810435" lon="14.9294572"><ele>558.5</ele><time>2026-03-22T10:53:17.959Z</time></trkpt><trkpt lat="40.6810112" lon="14.9293781"><ele>559.3333333333334</ele><time>2026-03-22T10:53:19.032Z</time></trkpt><trkpt lat="40.6809653" lon="14.9292335"><ele>560.1666666666666</ele><time>2026-03-22T10:53:20.953Z</time></trkpt><trkpt lat="40.6809312" lon="14.9291626"><ele>561.0</ele><time>2026-03-22T10:53:21.951Z</time></trkpt><trkpt lat="40.6809266" lon="14.929015"><ele>557.4</ele><time>2026-03-22T10:53:23.965Z</time></trkpt><trkpt lat="40.6809277" lon="14.9288889"><ele>553.8</ele><time>2026-03-22T10:53:25.96Z</time></trkpt><trkpt lat="40.6808788" lon="14.9287287"><ele>550.1999999999999</ele><time>2026-03-22T10:53:27.956Z</time></trkpt><trkpt lat="40.6808491" lon="14.9286352"><ele>546.6</ele><time>2026-03-22T10:53:29.029Z</time></trkpt><trkpt lat="40.680827" lon="14.9285397"><ele>543.0</ele><time>2026-03-22T10:53:29.959Z</time></trkpt><trkpt lat="40.6808064" lon="14.9284253"><ele>540.4</ele><time>2026-03-22T10:53:30.953Z</time></trkpt><trkpt lat="40.6807955" lon="14.9283269"><ele>537.8</ele><time>2026-03-22T10:53:31.959Z</time></trkpt><trkpt lat="40.6807915" lon="14.9282412"><ele>535.2</ele><time>2026-03-22T10:53:32.964Z</time></trkpt><trkpt lat="40.6807932" lon="14.9280667"><ele>532.6</ele><time>2026-03-22T10:53:34.962Z</time></trkpt><trkpt lat="40.6807928" lon="14.9279456"><ele>530.0</ele><time>2026-03-22T10:53:35.952Z</time></trkpt><trkpt lat="40.680801" lon="14.9278305"><ele>530.0</ele><time>2026-03-22T10:53:36.956Z</time></trkpt><trkpt lat="40.6808257" lon="14.9276967"><ele>530.0</ele><time>2026-03-22T10:53:37.96Z</time></trkpt><trkpt lat="40.6808596" lon="14.9275761"><ele>530.0</ele><time>2026-03-22T10:53:39.053Z</time></trkpt><trkpt lat="40.680894" lon="14.9274667"><ele>530.0</ele><time>2026-03-22T10:53:40.004Z</time></trkpt><trkpt lat="40.6809278" lon="14.9273903"><ele>530.0</ele><time>2026-03-22T10:53:40.964Z</time></trkpt><trkpt lat="40.6809303" lon="14.9272861"><ele>530.0</ele><time>2026-03-22T10:53:42.96Z</time></trkpt><trkpt lat="40.680853" lon="14.9273148"><ele>530.0</ele><time>2026-03-22T10:53:46.962Z</time></trkpt><trkpt lat="40.6808182" lon="14.9274259"><ele>530.0</ele><time>2026-03-22T10:53:48.951Z</time></trkpt><trkpt lat="40.6807803" lon="14.9275697"><ele>530.0</ele><time>2026-03-22T10:53:50.963Z</time></trkpt><trkpt lat="40.6807655" lon="14.9276659"><ele>530.0</ele><time>2026-03-22T10:53:51.96Z</time></trkpt><trkpt lat="40.6807643" lon="14.9277723"><ele>530.0</ele><time>2026-03-22T10:53:52.957Z</time></trkpt><trkpt lat="40.6807584" lon="14.9278825"><ele>530.0</ele><time>2026-03-22T10:53:54.054Z</time></trkpt><trkpt lat="40.6807654" lon="14.9279905"><ele>530.0</ele><time>2026-03-22T10:53:55.019Z</time></trkpt><trkpt lat="40.6807579" lon="14.9280873"><ele>530.0</ele><time>2026-03-22T10:53:55.953Z</time></trkpt><trkpt lat="40.6807363" lon="14.9281778"><ele>530.0</ele><time>2026-03-22T10:53:56.956Z</time></trkpt><trkpt lat="40.6807098" lon="14.9282797"><ele>530.0</ele><time>2026-03-22T10:53:57.963Z</time></trkpt><trkpt lat="40.6806973" lon="14.9283835"><ele>530.0</ele><time>2026-03-22T10:53:58.958Z</time></trkpt><trkpt lat="40.6806873" lon="14.9285502"><ele>530.0</ele><time>2026-03-22T10:54:00.956Z</time></trkpt><trkpt lat="40.6806923" lon="14.9286563"><ele>532.1666666666666</ele><time>2026-03-22T10:54:01.958Z</time></trkpt><trkpt lat="40.6807154" lon="14.9287676"><ele>534.3333333333333</ele><time>2026-03-22T10:54:04.033Z</time></trkpt><trkpt lat="40.6807877" lon="14.9288634"><ele>536.5</ele><time>2026-03-22T10:54:06.967Z</time></trkpt><trkpt lat="40.6808226" lon="14.9289927"><ele>538.6666666666666</ele><time>2026-03-22T10:54:08.972Z</time></trkpt><trkpt lat="40.6808459" lon="14.9290805"><ele>540.8333333333334</ele><time>2026-03-22T10:54:09.953Z</time></trkpt><trkpt lat="40.6808353" lon="14.9291688"><ele>543.0</ele><time>2026-03-22T10:54:11.953Z</time></trkpt><trkpt lat="40.6807827" lon="14.9292592"><ele>546.0</ele><time>2026-03-22T10:54:13.948Z</time></trkpt><trkpt lat="40.6807566" lon="14.9293613"><ele>549.0</ele><time>2026-03-22T10:54:14.951Z</time></trkpt><trkpt lat="40.6807246" lon="14.9294689"><ele>552.0</ele><time>2026-03-22T10:54:16.95Z</time></trkpt><trkpt lat="40.680773" lon="14.9295645"><ele>555.0</ele><time>2026-03-22T10:54:19.933Z</time></trkpt><trkpt lat="40.680797" lon="14.9296878"><ele>558.0</ele><time>2026-03-22T10:54:21.955Z</time></trkpt><trkpt lat="40.680808" lon="14.9297776"><ele>561.0</ele><time>2026-03-22T10:54:22.948Z</time></trkpt><trkpt lat="40.6807909" lon="14.9299011"><ele>561.0</ele><time>2026-03-22T10:54:25.023Z</time></trkpt><trkpt lat="40.6807494" lon="14.9300009"><ele>561.0</ele><time>2026-03-22T10:54:26.953Z</time></trkpt><trkpt lat="40.6807408" lon="14.9301542"><ele>561.0</ele><time>2026-03-22T10:54:28.949Z</time></trkpt><trkpt lat="40.6807277" lon="14.9302419"><ele>561.0</ele><time>2026-03-22T10:54:29.958Z</time></trkpt><trkpt lat="40.6807128" lon="14.9303349"><ele>561.0</ele><time>2026-03-22T10:54:30.946Z</time></trkpt><trkpt lat="40.6807074" lon="14.9304241"><ele>561.0</ele><time>2026-03-22T10:54:31.954Z</time></trkpt><trkpt lat="40.6807149" lon="14.9305619"><ele>564.6</ele><time>2026-03-22T10:54:33.964Z</time></trkpt><trkpt lat="40.6807359" lon="14.9306741"><ele>568.2</ele><time>2026-03-22T10:54:35.953Z</time></trkpt><trkpt lat="40.6807241" lon="14.9308052"><ele>571.8</ele><time>2026-03-22T10:54:37.952Z</time></trkpt><trkpt lat="40.6806926" lon="14.9309575"><ele>575.4</ele><time>2026-03-22T10:54:40.009Z</time></trkpt><trkpt lat="40.6806381" lon="14.9311025"><ele>579.0</ele><time>2026-03-22T10:54:41.948Z</time></trkpt><trkpt lat="40.6806112" lon="14.9312801"><ele>578.8333333333334</ele><time>2026-03-22T10:54:43.954Z</time></trkpt><trkpt lat="40.6806078" lon="14.9313708"><ele>578.6666666666666</ele><time>2026-03-22T10:54:44.95Z</time></trkpt><trkpt lat="40.6806335" lon="14.9314748"><ele>578.5</ele><time>2026-03-22T10:54:45.953Z</time></trkpt><trkpt lat="40.6806912" lon="14.9315762"><ele>578.3333333333333</ele><time>2026-03-22T10:54:47.021Z</time></trkpt><trkpt lat="40.6807579" lon="14.9316627"><ele>578.1666666666666</ele><time>2026-03-22T10:54:47.96Z</time></trkpt><trkpt lat="40.6808263" lon="14.9317659"><ele>578.0</ele><time>2026-03-22T10:54:48.953Z</time></trkpt><trkpt lat="40.6808934" lon="14.9318959"><ele>578.0</ele><time>2026-03-22T10:54:50.005Z</time></trkpt><trkpt lat="40.6809575" lon="14.9320212"><ele>578.0</ele><time>2026-03-22T10:54:51.015Z</time></trkpt><trkpt lat="40.6810116" lon="14.932115"><ele>578.0</ele><time>2026-03-22T10:54:51.962Z</time></trkpt><trkpt lat="40.6810682" lon="14.932182"><ele>578.0</ele><time>2026-03-22T10:54:52.937Z</time></trkpt><trkpt lat="40.6811407" lon="14.9322256"><ele>578.0</ele><time>2026-03-22T10:54:53.956Z</time></trkpt><trkpt lat="40.681205" lon="14.9322661"><ele>578.0</ele><time>2026-03-22T10:54:54.954Z</time></trkpt><trkpt lat="40.6812485" lon="14.9323353"><ele>577.1428571428571</ele><time>2026-03-22T10:54:56.957Z</time></trkpt><trkpt lat="40.6812237" lon="14.932417"><ele>576.2857142857142</ele><time>2026-03-22T10:54:59.947Z</time></trkpt><trkpt lat="40.6812312" lon="14.9325358"><ele>575.4285714285713</ele><time>2026-03-22T10:55:02.95Z</time></trkpt><trkpt lat="40.6812397" lon="14.9326186"><ele>574.5714285714286</ele><time>2026-03-22T10:55:04.954Z</time></trkpt><trkpt lat="40.6812417" lon="14.9327091"><ele>573.7142857142857</ele><time>2026-03-22T10:55:06.955Z</time></trkpt><trkpt lat="40.6812344" lon="14.9327959"><ele>572.8571428571428</ele><time>2026-03-22T10:55:09.044Z</time></trkpt><trkpt lat="40.6812356" lon="14.9328836"><ele>572.0</ele><time>2026-03-22T10:55:10.969Z</time></trkpt><trkpt lat="40.6812428" lon="14.9329717"><ele>568.3333333333333</ele><time>2026-03-22T10:55:12.968Z</time></trkpt><trkpt lat="40.6812311" lon="14.9330538"><ele>564.6666666666666</ele><time>2026-03-22T10:55:14.974Z</time></trkpt><trkpt lat="40.6812075" lon="14.9331667"><ele>561.0</ele><time>2026-03-22T10:55:16.976Z</time></trkpt><trkpt lat="40.6811885" lon="14.9332768"><ele>557.3333333333334</ele><time>2026-03-22T10:55:18.976Z</time></trkpt><trkpt lat="40.6811721" lon="14.9334134"><ele>553.6666666666667</ele><time>2026-03-22T10:55:21.031Z</time></trkpt><trkpt lat="40.6811742" lon="14.9335356"><ele>550.0</ele><time>2026-03-22T10:55:22.959Z</time></trkpt><trkpt lat="40.6811765" lon="14.9336756"><ele>547.4</ele><time>2026-03-22T10:55:24.953Z</time></trkpt><trkpt lat="40.6811914" lon="14.9337951"><ele>544.8</ele><time>2026-03-22T10:55:26.961Z</time></trkpt><trkpt lat="40.6812306" lon="14.9339205"><ele>542.2</ele><time>2026-03-22T10:55:28.938Z</time></trkpt><trkpt lat="40.6813319" lon="14.934046"><ele>539.6</ele><time>2026-03-22T10:55:30.956Z</time></trkpt><trkpt lat="40.6813794" lon="14.934129"><ele>537.0</ele><time>2026-03-22T10:55:31.954Z</time></trkpt><trkpt lat="40.6814083" lon="14.9342034"><ele>534.8000000000001</ele><time>2026-03-22T10:55:32.951Z</time></trkpt><trkpt lat="40.6814749" lon="14.9343393"><ele>532.6</ele><time>2026-03-22T10:55:34.961Z</time></trkpt><trkpt lat="40.6815245" lon="14.934437"><ele>530.4000000000001</ele><time>2026-03-22T10:55:35.943Z</time></trkpt><trkpt lat="40.6815839" lon="14.9345462"><ele>528.2</ele><time>2026-03-22T10:55:36.955Z</time></trkpt><trkpt lat="40.6816434" lon="14.9346673"><ele>526.0</ele><time>2026-03-22T10:55:37.958Z</time></trkpt><trkpt lat="40.6816825" lon="14.9347638"><ele>526.0</ele><time>2026-03-22T10:55:39.035Z</time></trkpt><trkpt lat="40.6817255" lon="14.9348948"><ele>526.0</ele><time>2026-03-22T10:55:41.028Z</time></trkpt><trkpt lat="40.681777" lon="14.9350073"><ele>526.0</ele><time>2026-03-22T10:55:42.966Z</time></trkpt><trkpt lat="40.681855" lon="14.935142"><ele>526.0</ele><time>2026-03-22T10:55:45.033Z</time></trkpt><trkpt lat="40.6818878" lon="14.9352325"><ele>526.0</ele><time>2026-03-22T10:55:46.034Z</time></trkpt><trkpt lat="40.6819273" lon="14.9353303"><ele>524.0</ele><time>2026-03-22T10:55:46.951Z</time></trkpt><trkpt lat="40.68198" lon="14.935438"><ele>522.0</ele><time>2026-03-22T10:55:47.952Z</time></trkpt><trkpt lat="40.6820363" lon="14.9355542"><ele>520.0</ele><time>2026-03-22T10:55:48.951Z</time></trkpt><trkpt lat="40.6820986" lon="14.9356521"><ele>518.0</ele><time>2026-03-22T10:55:49.947Z</time></trkpt><trkpt lat="40.6821687" lon="14.935708"><ele>516.0</ele><time>2026-03-22T10:55:50.951Z</time></trkpt><trkpt lat="40.6822527" lon="14.9357637"><ele>516.0</ele><time>2026-03-22T10:55:51.955Z</time></trkpt><trkpt lat="40.6823346" lon="14.935834"><ele>516.0</ele><time>2026-03-22T10:55:52.95Z</time></trkpt><trkpt lat="40.6824256" lon="14.9359252"><ele>516.0</ele><time>2026-03-22T10:55:53.967Z</time></trkpt><trkpt lat="40.6825196" lon="14.9360352"><ele>516.0</ele><time>2026-03-22T10:55:54.98Z</time></trkpt><trkpt lat="40.6825896" lon="14.9361305"><ele>516.0</ele><time>2026-03-22T10:55:55.95Z</time></trkpt><trkpt lat="40.6826451" lon="14.9361788"><ele>516.0</ele><time>2026-03-22T10:55:56.955Z</time></trkpt><trkpt lat="40.682735" lon="14.9361783"><ele>516.0</ele><time>2026-03-22T10:55:58.954Z</time></trkpt><trkpt lat="40.6828122" lon="14.9361768"><ele>516.0</ele><time>2026-03-22T11:19:18.964Z</time></trkpt><trkpt lat="40.6828935" lon="14.9361114"><ele>516.0</ele><time>2026-03-22T11:19:46.973Z</time></trkpt><trkpt lat="40.6829672" lon="14.9360608"><ele>516.0</ele><time>2026-03-22T11:19:47.968Z</time></trkpt><trkpt lat="40.6830541" lon="14.9359977"><ele>516.0</ele><time>2026-03-22T11:19:48.969Z</time></trkpt><trkpt lat="40.6831497" lon="14.9359012"><ele>515.1666666666666</ele><time>2026-03-22T11:19:49.971Z</time></trkpt><trkpt lat="40.6832188" lon="14.9358123"><ele>514.3333333333334</ele><time>2026-03-22T11:19:50.955Z</time></trkpt><trkpt lat="40.6832669" lon="14.9357495"><ele>513.5</ele><time>2026-03-22T11:19:51.97Z</time></trkpt><trkpt lat="40.6833599" lon="14.935691"><ele>512.6666666666667</ele><time>2026-03-22T11:19:53.976Z</time></trkpt><trkpt lat="40.6833987" lon="14.935573"><ele>511.83333333333337</ele><time>2026-03-22T11:19:56.961Z</time></trkpt><trkpt lat="40.683391" lon="14.9354814"><ele>511.0</ele><time>2026-03-22T11:19:58.028Z</time></trkpt><trkpt lat="40.683397" lon="14.9353216"><ele>511.0</ele><time>2026-03-22T11:19:59.959Z</time></trkpt><trkpt lat="40.6834329" lon="14.9351662"><ele>511.0</ele><time>2026-03-22T11:20:01.956Z</time></trkpt><trkpt lat="40.6834678" lon="14.9350827"><ele>511.0</ele><time>2026-03-22T11:20:02.961Z</time></trkpt><trkpt lat="40.6835097" lon="14.9349995"><ele>511.0</ele><time>2026-03-22T11:20:03.965Z</time></trkpt><trkpt lat="40.6835536" lon="14.9349314"><ele>511.0</ele><time>2026-03-22T11:20:05.035Z</time></trkpt><trkpt lat="40.683638" lon="14.9348183"><ele>503.1666666666667</ele><time>2026-03-22T11:20:06.949Z</time></trkpt><trkpt lat="40.6836787" lon="14.9347483"><ele>495.33333333333337</ele><time>2026-03-22T11:20:07.957Z</time></trkpt><trkpt lat="40.6837189" lon="14.9346835"><ele>487.5</ele><time>2026-03-22T11:20:08.949Z</time></trkpt><trkpt lat="40.6838048" lon="14.934612"><ele>479.66666666666663</ele><time>2026-03-22T11:20:10.958Z</time></trkpt><trkpt lat="40.6838702" lon="14.9346057"><ele>471.8333333333333</ele><time>2026-03-22T11:20:11.955Z</time></trkpt><trkpt lat="40.6839609" lon="14.9346069"><ele>464.0</ele><time>2026-03-22T11:20:14.027Z</time></trkpt><trkpt lat="40.6839745" lon="14.9344973"><ele>463.99999999999994</ele><time>2026-03-22T11:20:16.95Z</time></trkpt><trkpt lat="40.6839575" lon="14.934394"><ele>464.0</ele><time>2026-03-22T11:20:18.967Z</time></trkpt><trkpt lat="40.6838999" lon="14.9342852"><ele>464.0</ele><time>2026-03-22T11:20:20.967Z</time></trkpt><trkpt lat="40.6838441" lon="14.9342297"><ele>464.0</ele><time>2026-03-22T11:20:21.97Z</time></trkpt><trkpt lat="40.6837794" lon="14.9341651"><ele>463.99999999999994</ele><time>2026-03-22T11:20:24.971Z</time></trkpt><trkpt lat="40.6837161" lon="14.9341165"><ele>464.0</ele><time>2026-03-22T11:20:26.965Z</time></trkpt><trkpt lat="40.6836783" lon="14.9340255"><ele>462.16666666666663</ele><time>2026-03-22T11:20:28.949Z</time></trkpt><trkpt lat="40.6836984" lon="14.9339456"><ele>460.3333333333333</ele><time>2026-03-22T11:20:30.959Z</time></trkpt><trkpt lat="40.6837484" lon="14.9338657"><ele>458.5</ele><time>2026-03-22T11:20:33.032Z</time></trkpt><trkpt lat="40.6838245" lon="14.9337767"><ele>456.66666666666663</ele><time>2026-03-22T11:20:34.957Z</time></trkpt><trkpt lat="40.6839105" lon="14.9337058"><ele>454.8333333333333</ele><time>2026-03-22T11:20:36.959Z</time></trkpt><trkpt lat="40.6840007" lon="14.933647"><ele>453.0</ele><time>2026-03-22T11:20:38.96Z</time></trkpt><trkpt lat="40.6840652" lon="14.9335645"><ele>453.0</ele><time>2026-03-22T11:20:39.964Z</time></trkpt><trkpt lat="40.6841495" lon="14.9334372"><ele>453.0</ele><time>2026-03-22T11:20:40.961Z</time></trkpt><trkpt lat="40.6842278" lon="14.9333185"><ele>453.0</ele><time>2026-03-22T11:20:41.983Z</time></trkpt><trkpt lat="40.6842993" lon="14.9331982"><ele>453.0</ele><time>2026-03-22T11:20:42.954Z</time></trkpt><trkpt lat="40.6843472" lon="14.9330892"><ele>453.0</ele><time>2026-03-22T11:20:44.029Z</time></trkpt><trkpt lat="40.6843784" lon="14.9329793"><ele>453.0</ele><time>2026-03-22T11:20:44.957Z</time></trkpt><trkpt lat="40.6843874" lon="14.9328761"><ele>453.0</ele><time>2026-03-22T11:20:45.963Z</time></trkpt><trkpt lat="40.6843732" lon="14.9327725"><ele>453.0</ele><time>2026-03-22T11:20:46.961Z</time></trkpt><trkpt lat="40.6843455" lon="14.9326494"><ele>453.0</ele><time>2026-03-22T11:20:47.961Z</time></trkpt><trkpt lat="40.6843029" lon="14.9325348"><ele>453.0</ele><time>2026-03-22T11:20:48.958Z</time></trkpt><trkpt lat="40.6842488" lon="14.9324265"><ele>453.0</ele><time>2026-03-22T11:20:50.03Z</time></trkpt><trkpt lat="40.6841635" lon="14.93232"><ele>452.99999999999994</ele><time>2026-03-22T11:20:51.031Z</time></trkpt><trkpt lat="40.6840706" lon="14.9322066"><ele>452.99999999999994</ele><time>2026-03-22T11:20:51.953Z</time></trkpt><trkpt lat="40.6840232" lon="14.9321129"><ele>453.0</ele><time>2026-03-22T11:20:53.027Z</time></trkpt><trkpt lat="40.6840016" lon="14.9319909"><ele>453.0</ele><time>2026-03-22T11:20:55.028Z</time></trkpt><trkpt lat="40.6839849" lon="14.9319006"><ele>453.0</ele><time>2026-03-22T11:20:56.028Z</time></trkpt><trkpt lat="40.6839871" lon="14.9317872"><ele>452.99999999999994</ele><time>2026-03-22T11:20:56.956Z</time></trkpt><trkpt lat="40.6840047" lon="14.9316898"><ele>452.99999999999994</ele><time>2026-03-22T11:20:57.958Z</time></trkpt><trkpt lat="40.6840611" lon="14.931575"><ele>453.0</ele><time>2026-03-22T11:20:58.947Z</time></trkpt><trkpt lat="40.6841331" lon="14.9314593"><ele>453.0</ele><time>2026-03-22T11:21:00.017Z</time></trkpt><trkpt lat="40.6841977" lon="14.9313653"><ele>454.1666666666667</ele><time>2026-03-22T11:21:00.955Z</time></trkpt><trkpt lat="40.684234" lon="14.9312856"><ele>455.33333333333337</ele><time>2026-03-22T11:21:01.956Z</time></trkpt><trkpt lat="40.6842721" lon="14.931194"><ele>456.5</ele><time>2026-03-22T11:21:02.962Z</time></trkpt><trkpt lat="40.6842462" lon="14.9310536"><ele>457.6666666666667</ele><time>2026-03-22T11:21:04.96Z</time></trkpt><trkpt lat="40.6841775" lon="14.931092"><ele>458.83333333333337</ele><time>2026-03-22T11:21:06.945Z</time></trkpt><trkpt lat="40.6841184" lon="14.9311599"><ele>460.0</ele><time>2026-03-22T11:21:07.951Z</time></trkpt><trkpt lat="40.6840568" lon="14.931227"><ele>460.00000000000006</ele><time>2026-03-22T11:21:08.949Z</time></trkpt><trkpt lat="40.6839934" lon="14.9312971"><ele>460.0</ele><time>2026-03-22T11:21:09.952Z</time></trkpt><trkpt lat="40.6839431" lon="14.9313645"><ele>460.0</ele><time>2026-03-22T11:21:10.956Z</time></trkpt><trkpt lat="40.6839095" lon="14.9314388"><ele>460.0</ele><time>2026-03-22T11:21:11.957Z</time></trkpt><trkpt lat="40.6838729" lon="14.9315392"><ele>460.00000000000006</ele><time>2026-03-22T11:21:12.951Z</time></trkpt><trkpt lat="40.6838297" lon="14.9316883"><ele>460.0</ele><time>2026-03-22T11:21:13.958Z</time></trkpt><trkpt lat="40.683769" lon="14.9318579"><ele>458.6</ele><time>2026-03-22T11:21:14.95Z</time></trkpt><trkpt lat="40.6837135" lon="14.9319909"><ele>457.2</ele><time>2026-03-22T11:21:15.969Z</time></trkpt><trkpt lat="40.6836691" lon="14.9320595"><ele>455.79999999999995</ele><time>2026-03-22T11:21:16.94Z</time></trkpt><trkpt lat="40.6836308" lon="14.9322096"><ele>454.4</ele><time>2026-03-22T11:21:18.945Z</time></trkpt><trkpt lat="40.6836162" lon="14.9323933"><ele>453.0</ele><time>2026-03-22T11:21:20.954Z</time></trkpt><trkpt lat="40.6836116" lon="14.9324955"><ele>452.1666666666667</ele><time>2026-03-22T11:21:21.955Z</time></trkpt><trkpt lat="40.6836013" lon="14.9326062"><ele>451.33333333333337</ele><time>2026-03-22T11:21:23.938Z</time></trkpt><trkpt lat="40.6835735" lon="14.9324941"><ele>450.5</ele><time>2026-03-22T11:21:26.952Z</time></trkpt><trkpt lat="40.6835326" lon="14.9323955"><ele>449.6666666666667</ele><time>2026-03-22T11:21:27.949Z</time></trkpt><trkpt lat="40.6834685" lon="14.9323159"><ele>448.83333333333337</ele><time>2026-03-22T11:21:28.949Z</time></trkpt><trkpt lat="40.6833977" lon="14.9322302"><ele>448.0</ele><time>2026-03-22T11:21:29.952Z</time></trkpt><trkpt lat="40.6833192" lon="14.9321048"><ele>459.59999999999997</ele><time>2026-03-22T11:21:30.952Z</time></trkpt><trkpt lat="40.6832611" lon="14.9319857"><ele>471.19999999999993</ele><time>2026-03-22T11:21:31.951Z</time></trkpt><trkpt lat="40.6832152" lon="14.9319075"><ele>482.8</ele><time>2026-03-22T11:21:32.951Z</time></trkpt><trkpt lat="40.6832078" lon="14.9317413"><ele>494.4</ele><time>2026-03-22T11:21:34.947Z</time></trkpt><trkpt lat="40.6832514" lon="14.9315838"><ele>506.0</ele><time>2026-03-22T11:21:35.953Z</time></trkpt><trkpt lat="40.6833093" lon="14.9314325"><ele>507.4</ele><time>2026-03-22T11:21:36.948Z</time></trkpt><trkpt lat="40.6833731" lon="14.9313205"><ele>508.8</ele><time>2026-03-22T11:21:37.953Z</time></trkpt><trkpt lat="40.683336" lon="14.9311693"><ele>510.19999999999993</ele><time>2026-03-22T11:21:39.951Z</time></trkpt><trkpt lat="40.6832741" lon="14.9310989"><ele>511.59999999999997</ele><time>2026-03-22T11:21:40.959Z</time></trkpt><trkpt lat="40.6832037" lon="14.9309953"><ele>513.0</ele><time>2026-03-22T11:21:41.954Z</time></trkpt><trkpt lat="40.6831288" lon="14.9308968"><ele>511.0</ele><time>2026-03-22T11:21:42.959Z</time></trkpt><trkpt lat="40.6830603" lon="14.9307745"><ele>508.99999999999994</ele><time>2026-03-22T11:21:45.027Z</time></trkpt><trkpt lat="40.682958" lon="14.9306498"><ele>506.99999999999994</ele><time>2026-03-22T11:21:46.958Z</time></trkpt><trkpt lat="40.6828703" lon="14.9305933"><ele>505.0</ele><time>2026-03-22T11:21:47.961Z</time></trkpt><trkpt lat="40.6827872" lon="14.9305367"><ele>503.0</ele><time>2026-03-22T11:21:48.977Z</time></trkpt><trkpt lat="40.6827152" lon="14.9305011"><ele>509.59999999999997</ele><time>2026-03-22T11:21:50.029Z</time></trkpt><trkpt lat="40.6826167" lon="14.9304751"><ele>516.1999999999999</ele><time>2026-03-22T11:21:51.961Z</time></trkpt><trkpt lat="40.6826014" lon="14.9305875"><ele>522.8</ele><time>2026-03-22T11:21:56.025Z</time></trkpt><trkpt lat="40.68263" lon="14.9306701"><ele>529.4</ele><time>2026-03-22T11:21:56.97Z</time></trkpt><trkpt lat="40.6826647" lon="14.9307781"><ele>536.0</ele><time>2026-03-22T11:21:57.967Z</time></trkpt><trkpt lat="40.682743" lon="14.9309369"><ele>530.25</ele><time>2026-03-22T11:21:58.959Z</time></trkpt><trkpt lat="40.6828249" lon="14.9311365"><ele>524.5</ele><time>2026-03-22T11:21:59.965Z</time></trkpt><trkpt lat="40.6828741" lon="14.9312783"><ele>518.75</ele><time>2026-03-22T11:22:00.969Z</time></trkpt><trkpt lat="40.6829017" lon="14.9314221"><ele>513.0</ele><time>2026-03-22T11:22:01.962Z</time></trkpt><trkpt lat="40.6829024" lon="14.9315566"><ele>513.0</ele><time>2026-03-22T11:22:02.957Z</time></trkpt><trkpt lat="40.6828877" lon="14.9317026"><ele>513.0</ele><time>2026-03-22T11:22:03.997Z</time></trkpt><trkpt lat="40.6828716" lon="14.9318557"><ele>513.0</ele><time>2026-03-22T11:22:04.964Z</time></trkpt><trkpt lat="40.6828726" lon="14.9320266"><ele>513.0</ele><time>2026-03-22T11:22:06.025Z</time></trkpt><trkpt lat="40.6828914" lon="14.9321594"><ele>513.6666666666666</ele><time>2026-03-22T11:22:06.965Z</time></trkpt><trkpt lat="40.6828913" lon="14.9322608"><ele>514.3333333333334</ele><time>2026-03-22T11:22:07.965Z</time></trkpt><trkpt lat="40.6828879" lon="14.9323572"><ele>515.0</ele><time>2026-03-22T11:22:08.971Z</time></trkpt><trkpt lat="40.682819" lon="14.9324888"><ele>515.6666666666667</ele><time>2026-03-22T11:22:10.966Z</time></trkpt><trkpt lat="40.682758" lon="14.9325437"><ele>516.3333333333334</ele><time>2026-03-22T11:22:11.966Z</time></trkpt><trkpt lat="40.6826709" lon="14.9326114"><ele>517.0</ele><time>2026-03-22T11:22:12.966Z</time></trkpt><trkpt lat="40.6825766" lon="14.9326808"><ele>517.0</ele><time>2026-03-22T11:22:13.985Z</time></trkpt><trkpt lat="40.6824922" lon="14.9327699"><ele>517.0</ele><time>2026-03-22T11:22:14.991Z</time></trkpt><trkpt lat="40.6824188" lon="14.9328819"><ele>517.0</ele><time>2026-03-22T11:22:15.966Z</time></trkpt><trkpt lat="40.6823255" lon="14.9329943"><ele>517.0</ele><time>2026-03-22T11:22:16.973Z</time></trkpt><trkpt lat="40.6822321" lon="14.9331089"><ele>517.0</ele><time>2026-03-22T11:22:17.962Z</time></trkpt><trkpt lat="40.6821459" lon="14.9332246"><ele>517.0</ele><time>2026-03-22T11:22:18.965Z</time></trkpt><trkpt lat="40.6820755" lon="14.9333196"><ele>517.0</ele><time>2026-03-22T11:22:19.966Z</time></trkpt><trkpt lat="40.6819819" lon="14.9334294"><ele>517.0</ele><time>2026-03-22T11:22:20.965Z</time></trkpt><trkpt lat="40.6818747" lon="14.9335543"><ele>522.0</ele><time>2026-03-22T11:22:21.961Z</time></trkpt><trkpt lat="40.6817901" lon="14.9336915"><ele>527.0</ele><time>2026-03-22T11:22:22.968Z</time></trkpt><trkpt lat="40.6817273" lon="14.9338316"><ele>532.0</ele><time>2026-03-22T11:22:23.968Z</time></trkpt><trkpt lat="40.6816849" lon="14.9339651"><ele>537.0</ele><time>2026-03-22T11:22:24.965Z</time></trkpt><trkpt lat="40.681668" lon="14.9340955"><ele>537.0</ele><time>2026-03-22T11:22:25.972Z</time></trkpt><trkpt lat="40.6816799" lon="14.9342209"><ele>537.0</ele><time>2026-03-22T11:22:26.97Z</time></trkpt><trkpt lat="40.6816956" lon="14.934355"><ele>537.0</ele><time>2026-03-22T11:22:28.036Z</time></trkpt><trkpt lat="40.6817012" lon="14.9344625"><ele>537.0</ele><time>2026-03-22T11:22:29.026Z</time></trkpt><trkpt lat="40.6816952" lon="14.9345673"><ele>537.0</ele><time>2026-03-22T11:22:30.965Z</time></trkpt><trkpt lat="40.6816145" lon="14.934506"><ele>537.0</ele><time>2026-03-22T11:22:33.958Z</time></trkpt><trkpt lat="40.6815552" lon="14.9344236"><ele>537.0</ele><time>2026-03-22T11:22:34.959Z</time></trkpt><trkpt lat="40.6815172" lon="14.9343544"><ele>537.0</ele><time>2026-03-22T11:22:35.957Z</time></trkpt><trkpt lat="40.6815141" lon="14.9341462"><ele>537.0</ele><time>2026-03-22T11:22:37.956Z</time></trkpt><trkpt lat="40.6815122" lon="14.933974"><ele>537.0</ele><time>2026-03-22T11:22:38.958Z</time></trkpt><trkpt lat="40.681528" lon="14.9338131"><ele>537.0</ele><time>2026-03-22T11:22:39.957Z</time></trkpt><trkpt lat="40.6815447" lon="14.9336579"><ele>537.0</ele><time>2026-03-22T11:22:40.959Z</time></trkpt><trkpt lat="40.6815753" lon="14.9334874"><ele>537.0</ele><time>2026-03-22T11:22:41.956Z</time></trkpt><trkpt lat="40.6816448" lon="14.9332934"><ele>537.0</ele><time>2026-03-22T11:22:42.955Z</time></trkpt><trkpt lat="40.6817164" lon="14.9331254"><ele>537.8000000000001</ele><time>2026-03-22T11:22:43.957Z</time></trkpt><trkpt lat="40.6817836" lon="14.932983"><ele>538.6</ele><time>2026-03-22T11:22:44.955Z</time></trkpt><trkpt lat="40.6818396" lon="14.9328817"><ele>539.4000000000001</ele><time>2026-03-22T11:22:45.964Z</time></trkpt><trkpt lat="40.6818875" lon="14.932785"><ele>540.2</ele><time>2026-03-22T11:22:46.957Z</time></trkpt><trkpt lat="40.6819347" lon="14.9326659"><ele>541.0</ele><time>2026-03-22T11:22:47.957Z</time></trkpt><trkpt lat="40.6819798" lon="14.9325287"><ele>541.0</ele><time>2026-03-22T11:22:48.946Z</time></trkpt><trkpt lat="40.6820266" lon="14.9323738"><ele>541.0</ele><time>2026-03-22T11:22:49.957Z</time></trkpt><trkpt lat="40.6820786" lon="14.9322096"><ele>541.0</ele><time>2026-03-22T11:22:50.955Z</time></trkpt><trkpt lat="40.6821344" lon="14.9320662"><ele>541.0</ele><time>2026-03-22T11:22:51.957Z</time></trkpt><trkpt lat="40.6821878" lon="14.931991"><ele>541.0000000000001</ele><time>2026-03-22T11:22:53.063Z</time></trkpt><trkpt lat="40.6822342" lon="14.9319225"><ele>541.0</ele><time>2026-03-22T11:22:54.034Z</time></trkpt><trkpt lat="40.6822692" lon="14.9318511"><ele>541.0</ele><time>2026-03-22T11:22:54.957Z</time></trkpt><trkpt lat="40.6822809" lon="14.9317588"><ele>541.0</ele><time>2026-03-22T11:22:56.028Z</time></trkpt><trkpt lat="40.6822884" lon="14.9316601"><ele>541.0</ele><time>2026-03-22T11:22:56.971Z</time></trkpt><trkpt lat="40.6823009" lon="14.9315766"><ele>541.0000000000001</ele><time>2026-03-22T11:22:57.966Z</time></trkpt><trkpt lat="40.682304" lon="14.9314817"><ele>541.0</ele><time>2026-03-22T11:22:59.058Z</time></trkpt><trkpt lat="40.6823032" lon="14.9313765"><ele>540.1666666666667</ele><time>2026-03-22T11:22:59.969Z</time></trkpt><trkpt lat="40.6822836" lon="14.9312823"><ele>539.3333333333334</ele><time>2026-03-22T11:23:01.03Z</time></trkpt><trkpt lat="40.6822666" lon="14.9311869"><ele>538.5</ele><time>2026-03-22T11:23:01.952Z</time></trkpt><trkpt lat="40.6822325" lon="14.9310972"><ele>537.6666666666666</ele><time>2026-03-22T11:23:02.955Z</time></trkpt><trkpt lat="40.6821954" lon="14.9310281"><ele>536.8333333333333</ele><time>2026-03-22T11:23:03.952Z</time></trkpt><trkpt lat="40.6820945" lon="14.9309281"><ele>536.0</ele><time>2026-03-22T11:23:05.955Z</time></trkpt><trkpt lat="40.6820235" lon="14.9308902"><ele>539.3333333333333</ele><time>2026-03-22T11:23:06.956Z</time></trkpt><trkpt lat="40.6819267" lon="14.9308541"><ele>542.6666666666666</ele><time>2026-03-22T11:23:07.957Z</time></trkpt><trkpt lat="40.6818401" lon="14.9308181"><ele>546.0</ele><time>2026-03-22T11:23:09.008Z</time></trkpt><trkpt lat="40.6817688" lon="14.9307595"><ele>549.3333333333334</ele><time>2026-03-22T11:23:10.037Z</time></trkpt><trkpt lat="40.6817034" lon="14.9306979"><ele>552.6666666666667</ele><time>2026-03-22T11:23:11.031Z</time></trkpt><trkpt lat="40.6816599" lon="14.9306208"><ele>556.0</ele><time>2026-03-22T11:23:11.945Z</time></trkpt><trkpt lat="40.6816282" lon="14.9305249"><ele>556.0</ele><time>2026-03-22T11:23:12.961Z</time></trkpt><trkpt lat="40.6815974" lon="14.9304218"><ele>556.0</ele><time>2026-03-22T11:23:13.973Z</time></trkpt><trkpt lat="40.681547" lon="14.9303281"><ele>556.0</ele><time>2026-03-22T11:23:14.956Z</time></trkpt><trkpt lat="40.681494" lon="14.930224"><ele>556.0</ele><time>2026-03-22T11:23:16.031Z</time></trkpt><trkpt lat="40.6814203" lon="14.9301086"><ele>556.0</ele><time>2026-03-22T11:23:16.954Z</time></trkpt><trkpt lat="40.681357" lon="14.929991"><ele>557.0</ele><time>2026-03-22T11:23:17.958Z</time></trkpt><trkpt lat="40.6812936" lon="14.9298725"><ele>558.0</ele><time>2026-03-22T11:23:18.942Z</time></trkpt><trkpt lat="40.6812291" lon="14.9297495"><ele>559.0</ele><time>2026-03-22T11:23:19.948Z</time></trkpt><trkpt lat="40.6811797" lon="14.929635"><ele>560.0</ele><time>2026-03-22T11:23:20.957Z</time></trkpt><trkpt lat="40.6811248" lon="14.9295218"><ele>561.0</ele><time>2026-03-22T11:23:21.951Z</time></trkpt><trkpt lat="40.6810837" lon="14.9294402"><ele>561.0</ele><time>2026-03-22T11:23:23.03Z</time></trkpt><trkpt lat="40.6810427" lon="14.9293616"><ele>561.0</ele><time>2026-03-22T11:23:24.022Z</time></trkpt><trkpt lat="40.6809994" lon="14.9292727"><ele>561.0</ele><time>2026-03-22T11:23:25.03Z</time></trkpt><trkpt lat="40.6809483" lon="14.9291995"><ele>561.0</ele><time>2026-03-22T11:23:25.959Z</time></trkpt><trkpt lat="40.6809101" lon="14.9291092"><ele>561.0</ele><time>2026-03-22T11:23:26.954Z</time></trkpt><trkpt lat="40.6809117" lon="14.9290223"><ele>561.0</ele><time>2026-03-22T11:23:27.96Z</time></trkpt><trkpt lat="40.6809146" lon="14.9288771"><ele>558.0</ele><time>2026-03-22T11:23:29.959Z</time></trkpt><trkpt lat="40.6808944" lon="14.9287949"><ele>555.0</ele><time>2026-03-22T11:23:30.951Z</time></trkpt><trkpt lat="40.6808577" lon="14.9286875"><ele>552.0</ele><time>2026-03-22T11:23:31.947Z</time></trkpt><trkpt lat="40.6808338" lon="14.9285797"><ele>549.0</ele><time>2026-03-22T11:23:32.961Z</time></trkpt><trkpt lat="40.6808157" lon="14.9284704"><ele>546.0</ele><time>2026-03-22T11:23:33.959Z</time></trkpt><trkpt lat="40.6807961" lon="14.9283661"><ele>543.0</ele><time>2026-03-22T11:23:34.953Z</time></trkpt><trkpt lat="40.6807805" lon="14.9282711"><ele>540.8333333333334</ele><time>2026-03-22T11:23:35.953Z</time></trkpt><trkpt lat="40.6807893" lon="14.9281865"><ele>538.6666666666666</ele><time>2026-03-22T11:23:36.959Z</time></trkpt><trkpt lat="40.6807912" lon="14.9281033"><ele>536.5</ele><time>2026-03-22T11:23:37.952Z</time></trkpt><trkpt lat="40.6807866" lon="14.9280021"><ele>534.3333333333333</ele><time>2026-03-22T11:23:38.955Z</time></trkpt><trkpt lat="40.6807874" lon="14.9279005"><ele>532.1666666666666</ele><time>2026-03-22T11:23:40.067Z</time></trkpt><trkpt lat="40.6807975" lon="14.9277976"><ele>530.0</ele><time>2026-03-22T11:23:41.033Z</time></trkpt><trkpt lat="40.6808213" lon="14.9276755"><ele>529.0</ele><time>2026-03-22T11:23:41.955Z</time></trkpt><trkpt lat="40.6808585" lon="14.9275572"><ele>528.0</ele><time>2026-03-22T11:23:42.955Z</time></trkpt><trkpt lat="40.6808924" lon="14.9274602"><ele>527.0</ele><time>2026-03-22T11:23:44Z</time></trkpt><trkpt lat="40.6809253" lon="14.9273335"><ele>526.0</ele><time>2026-03-22T11:23:46.026Z</time></trkpt><trkpt lat="40.6808694" lon="14.9272718"><ele>525.0</ele><time>2026-03-22T11:23:48.971Z</time></trkpt><trkpt lat="40.6807955" lon="14.9273497"><ele>524.0</ele><time>2026-03-22T11:23:50.961Z</time></trkpt><trkpt lat="40.6807735" lon="14.9274979"><ele>525.0</ele><time>2026-03-22T11:23:52.953Z</time></trkpt><trkpt lat="40.6807499" lon="14.927578"><ele>526.0</ele><time>2026-03-22T11:23:53.961Z</time></trkpt><trkpt lat="40.680727" lon="14.927679"><ele>527.0</ele><time>2026-03-22T11:23:54.96Z</time></trkpt><trkpt lat="40.6807232" lon="14.9277849"><ele>528.0</ele><time>2026-03-22T11:23:55.96Z</time></trkpt><trkpt lat="40.6807299" lon="14.9279044"><ele>529.0</ele><time>2026-03-22T11:23:56.962Z</time></trkpt><trkpt lat="40.680739" lon="14.9280177"><ele>530.0</ele><time>2026-03-22T11:23:57.962Z</time></trkpt><trkpt lat="40.6807556" lon="14.9281083"><ele>530.0</ele><time>2026-03-22T11:23:59.018Z</time></trkpt><trkpt lat="40.6807362" lon="14.9282403"><ele>530.0</ele><time>2026-03-22T11:24:00.957Z</time></trkpt><trkpt lat="40.6807194" lon="14.9283243"><ele>530.0</ele><time>2026-03-22T11:24:01.958Z</time></trkpt><trkpt lat="40.6807054" lon="14.9284166"><ele>530.0</ele><time>2026-03-22T11:24:02.958Z</time></trkpt><trkpt lat="40.6806892" lon="14.9285688"><ele>530.0</ele><time>2026-03-22T11:24:04.954Z</time></trkpt><trkpt lat="40.6806981" lon="14.9287165"><ele>532.1666666666666</ele><time>2026-03-22T11:24:06.946Z</time></trkpt><trkpt lat="40.6807373" lon="14.9288296"><ele>534.3333333333333</ele><time>2026-03-22T11:24:08.958Z</time></trkpt><trkpt lat="40.6807962" lon="14.9288928"><ele>536.5</ele><time>2026-03-22T11:24:10.961Z</time></trkpt><trkpt lat="40.680829" lon="14.9289728"><ele>538.6666666666666</ele><time>2026-03-22T11:24:11.959Z</time></trkpt><trkpt lat="40.6808506" lon="14.9290636"><ele>540.8333333333334</ele><time>2026-03-22T11:24:12.958Z</time></trkpt><trkpt lat="40.6808449" lon="14.929176"><ele>543.0</ele><time>2026-03-22T11:24:14.956Z</time></trkpt><trkpt lat="40.6808028" lon="14.9292923"><ele>546.0</ele><time>2026-03-22T11:24:16.962Z</time></trkpt><trkpt lat="40.6807754" lon="14.9293742"><ele>549.0</ele><time>2026-03-22T11:24:17.965Z</time></trkpt><trkpt lat="40.6807315" lon="14.9294677"><ele>552.0</ele><time>2026-03-22T11:24:19.959Z</time></trkpt><trkpt lat="40.6807763" lon="14.9295393"><ele>555.0</ele><time>2026-03-22T11:24:23.959Z</time></trkpt><trkpt lat="40.6807796" lon="14.9296624"><ele>558.0</ele><time>2026-03-22T11:24:26.959Z</time></trkpt><trkpt lat="40.6807627" lon="14.9298234"><ele>561.0</ele><time>2026-03-22T11:24:28.955Z</time></trkpt><trkpt lat="40.6807343" lon="14.9299169"><ele>561.0</ele><time>2026-03-22T11:24:29.962Z</time></trkpt><trkpt lat="40.6807296" lon="14.9300103"><ele>561.0</ele><time>2026-03-22T11:24:30.959Z</time></trkpt><trkpt lat="40.6807289" lon="14.9301205"><ele>561.0</ele><time>2026-03-22T11:24:31.957Z</time></trkpt><trkpt lat="40.680715" lon="14.9302128"><ele>561.0</ele><time>2026-03-22T11:24:32.987Z</time></trkpt><trkpt lat="40.6807071" lon="14.9303055"><ele>561.0</ele><time>2026-03-22T11:24:33.951Z</time></trkpt><trkpt lat="40.6806962" lon="14.930391"><ele>561.0</ele><time>2026-03-22T11:24:34.954Z</time></trkpt><trkpt lat="40.6806942" lon="14.9304889"><ele>561.0</ele><time>2026-03-22T11:24:35.954Z</time></trkpt><trkpt lat="40.6807071" lon="14.9306243"><ele>564.6</ele><time>2026-03-22T11:24:37.953Z</time></trkpt><trkpt lat="40.6807315" lon="14.9307503"><ele>568.2</ele><time>2026-03-22T11:24:39.962Z</time></trkpt><trkpt lat="40.680708" lon="14.9309097"><ele>571.8</ele><time>2026-03-22T11:24:41.968Z</time></trkpt><trkpt lat="40.6806828" lon="14.9309887"><ele>575.4</ele><time>2026-03-22T11:24:42.951Z</time></trkpt><trkpt lat="40.6806499" lon="14.9311493"><ele>579.0</ele><time>2026-03-22T11:24:44.944Z</time></trkpt><trkpt lat="40.6806334" lon="14.9312427"><ele>578.8333333333334</ele><time>2026-03-22T11:24:45.959Z</time></trkpt><trkpt lat="40.6806148" lon="14.9313367"><ele>578.6666666666666</ele><time>2026-03-22T11:24:46.956Z</time></trkpt><trkpt lat="40.680612" lon="14.9314294"><ele>578.5</ele><time>2026-03-22T11:24:47.959Z</time></trkpt><trkpt lat="40.6806476" lon="14.9315236"><ele>578.3333333333333</ele><time>2026-03-22T11:24:48.961Z</time></trkpt><trkpt lat="40.680703" lon="14.9316194"><ele>578.1666666666666</ele><time>2026-03-22T11:24:49.959Z</time></trkpt><trkpt lat="40.6807717" lon="14.9317087"><ele>578.0</ele><time>2026-03-22T11:24:50.957Z</time></trkpt><trkpt lat="40.6808467" lon="14.9318251"><ele>578.0</ele><time>2026-03-22T11:24:51.951Z</time></trkpt><trkpt lat="40.6809172" lon="14.9319562"><ele>578.0</ele><time>2026-03-22T11:24:52.955Z</time></trkpt><trkpt lat="40.6809679" lon="14.9320576"><ele>578.0</ele><time>2026-03-22T11:24:53.957Z</time></trkpt><trkpt lat="40.681011" lon="14.932138"><ele>578.0</ele><time>2026-03-22T11:24:54.959Z</time></trkpt><trkpt lat="40.6810702" lon="14.9322079"><ele>578.0</ele><time>2026-03-22T11:24:55.959Z</time></trkpt><trkpt lat="40.6811412" lon="14.9322568"><ele>578.0</ele><time>2026-03-22T11:24:56.955Z</time></trkpt><trkpt lat="40.6812034" lon="14.9322896"><ele>577.0</ele><time>2026-03-22T11:24:57.957Z</time></trkpt><trkpt lat="40.6812632" lon="14.9323587"><ele>576.0</ele><time>2026-03-22T11:24:59.959Z</time></trkpt><trkpt lat="40.6812433" lon="14.932446"><ele>575.0</ele><time>2026-03-22T11:25:02.96Z</time></trkpt><trkpt lat="40.6812415" lon="14.9325714"><ele>574.0</ele><time>2026-03-22T11:25:05.951Z</time></trkpt><trkpt lat="40.6812539" lon="14.9326545"><ele>573.0</ele><time>2026-03-22T11:25:07.966Z</time></trkpt><trkpt lat="40.6812448" lon="14.9327746"><ele>572.0</ele><time>2026-03-22T11:25:10.959Z</time></trkpt><trkpt lat="40.6812487" lon="14.9328624"><ele>568.3333333333333</ele><time>2026-03-22T11:25:12.958Z</time></trkpt><trkpt lat="40.681253" lon="14.9329503"><ele>564.6666666666666</ele><time>2026-03-22T11:25:14.961Z</time></trkpt><trkpt lat="40.6812285" lon="14.9330442"><ele>561.0</ele><time>2026-03-22T11:25:16.954Z</time></trkpt><trkpt lat="40.6812101" lon="14.9331544"><ele>557.3333333333334</ele><time>2026-03-22T11:25:18.959Z</time></trkpt><trkpt lat="40.6812126" lon="14.9332533"><ele>553.6666666666667</ele><time>2026-03-22T11:25:20.957Z</time></trkpt><trkpt lat="40.6812121" lon="14.9333963"><ele>550.0</ele><time>2026-03-22T11:25:22.957Z</time></trkpt><trkpt lat="40.6812085" lon="14.933493"><ele>547.4</ele><time>2026-03-22T11:25:24.958Z</time></trkpt><trkpt lat="40.681205" lon="14.9336189"><ele>544.8</ele><time>2026-03-22T11:25:26.956Z</time></trkpt><trkpt lat="40.6812021" lon="14.933736"><ele>542.2</ele><time>2026-03-22T11:25:28.943Z</time></trkpt><trkpt lat="40.6812181" lon="14.9338712"><ele>539.6</ele><time>2026-03-22T11:25:30.962Z</time></trkpt><trkpt lat="40.6812841" lon="14.933989"><ele>537.0</ele><time>2026-03-22T11:25:33.043Z</time></trkpt><trkpt lat="40.6813365" lon="14.9340567"><ele>537.0</ele><time>2026-03-22T11:25:34.032Z</time></trkpt><trkpt lat="40.6813669" lon="14.9341346"><ele>537.0</ele><time>2026-03-22T11:25:34.988Z</time></trkpt><trkpt lat="40.681411" lon="14.9342551"><ele>537.0</ele><time>2026-03-22T11:25:36.949Z</time></trkpt><trkpt lat="40.6814852" lon="14.9343835"><ele>537.0</ele><time>2026-03-22T11:25:38.968Z</time></trkpt><trkpt lat="40.6815307" lon="14.9344745"><ele>537.0</ele><time>2026-03-22T11:25:39.966Z</time></trkpt><trkpt lat="40.6815893" lon="14.9345819"><ele>534.8000000000001</ele><time>2026-03-22T11:25:40.946Z</time></trkpt><trkpt lat="40.6816522" lon="14.9346954"><ele>532.6</ele><time>2026-03-22T11:25:41.991Z</time></trkpt><trkpt lat="40.6817013" lon="14.9347935"><ele>530.4000000000001</ele><time>2026-03-22T11:25:42.983Z</time></trkpt><trkpt lat="40.6817499" lon="14.9349233"><ele>528.2</ele><time>2026-03-22T11:25:45.039Z</time></trkpt><trkpt lat="40.6817827" lon="14.9350361"><ele>526.0</ele><time>2026-03-22T11:25:46.947Z</time></trkpt><trkpt lat="40.6818512" lon="14.935172"><ele>524.0</ele><time>2026-03-22T11:25:48.956Z</time></trkpt><trkpt lat="40.6818688" lon="14.9352682"><ele>522.0</ele><time>2026-03-22T11:25:49.971Z</time></trkpt><trkpt lat="40.6819071" lon="14.935363"><ele>520.0</ele><time>2026-03-22T11:25:50.967Z</time></trkpt><trkpt lat="40.6819597" lon="14.9354641"><ele>518.0</ele><time>2026-03-22T11:25:51.97Z</time></trkpt><trkpt lat="40.6820245" lon="14.9355703"><ele>516.0</ele><time>2026-03-22T11:25:52.942Z</time></trkpt><trkpt lat="40.6820972" lon="14.9356735"><ele>516.0</ele><time>2026-03-22T11:25:53.942Z</time></trkpt><trkpt lat="40.6821783" lon="14.935748"><ele>516.0</ele><time>2026-03-22T11:25:54.952Z</time></trkpt><trkpt lat="40.6822628" lon="14.9358073"><ele>516.0</ele><time>2026-03-22T11:25:55.958Z</time></trkpt><trkpt lat="40.6823515" lon="14.9358854"><ele>516.0</ele><time>2026-03-22T11:25:56.953Z</time></trkpt><trkpt lat="40.6824356" lon="14.9359671"><ele>516.0</ele><time>2026-03-22T11:25:57.959Z</time></trkpt><trkpt lat="40.6825168" lon="14.9360646"><ele>516.0</ele><time>2026-03-22T11:25:58.96Z</time></trkpt><trkpt lat="40.6826056" lon="14.9361579"><ele>516.0</ele><time>2026-03-22T11:25:59.962Z</time></trkpt><trkpt lat="40.6826746" lon="14.9361924"><ele>516.0</ele><time>2026-03-22T11:26:00.947Z</time></trkpt><trkpt lat="40.6828141" lon="14.9361523"><ele>516.0</ele><time>2026-03-22T11:26:02.955Z</time></trkpt><trkpt lat="40.6829374" lon="14.936114"><ele>517.0</ele><time>2026-03-22T11:26:04.036Z</time></trkpt><trkpt lat="40.6830486" lon="14.9360539"><ele>518.0</ele><time>2026-03-22T11:26:04.959Z</time></trkpt><trkpt lat="40.6831267" lon="14.9359699"><ele>519.0</ele><time>2026-03-22T11:26:06.029Z</time></trkpt><trkpt lat="40.6832073" lon="14.9358843"><ele>520.0</ele><time>2026-03-22T11:26:06.992Z</time></trkpt><trkpt lat="40.6832697" lon="14.9358024"><ele>521.0</ele><time>2026-03-22T11:26:08.035Z</time></trkpt><trkpt lat="40.6833204" lon="14.9357497"><ele>519.5714285714286</ele><time>2026-03-22T11:26:08.948Z</time></trkpt><trkpt lat="40.6834075" lon="14.9357064"><ele>518.1428571428571</ele><time>2026-03-22T11:26:10.958Z</time></trkpt><trkpt lat="40.6834021" lon="14.9356056"><ele>516.7142857142858</ele><time>2026-03-22T11:26:12.945Z</time></trkpt><trkpt lat="40.6833945" lon="14.9355145"><ele>515.2857142857142</ele><time>2026-03-22T11:26:13.953Z</time></trkpt><trkpt lat="40.6833952" lon="14.9354229"><ele>513.8571428571429</ele><time>2026-03-22T11:26:15.02Z</time></trkpt><trkpt lat="40.6833973" lon="14.9353398"><ele>512.4285714285714</ele><time>2026-03-22T11:26:16.035Z</time></trkpt><trkpt lat="40.6834205" lon="14.9352511"><ele>511.0</ele><time>2026-03-22T11:26:16.973Z</time></trkpt><trkpt lat="40.6834523" lon="14.9351637"><ele>511.0</ele><time>2026-03-22T11:26:17.976Z</time></trkpt><trkpt lat="40.683488" lon="14.9350824"><ele>511.0</ele><time>2026-03-22T11:26:18.97Z</time></trkpt><trkpt lat="40.6835356" lon="14.9349991"><ele>511.0</ele><time>2026-03-22T11:26:19.973Z</time></trkpt><trkpt lat="40.6835817" lon="14.9349275"><ele>511.0</ele><time>2026-03-22T11:26:20.973Z</time></trkpt><trkpt lat="40.6836342" lon="14.9348681"><ele>511.0</ele><time>2026-03-22T11:26:21.96Z</time></trkpt><trkpt lat="40.6836849" lon="14.934798"><ele>511.0</ele><time>2026-03-22T11:26:22.966Z</time></trkpt><trkpt lat="40.6837288" lon="14.9347275"><ele>511.0</ele><time>2026-03-22T11:26:23.961Z</time></trkpt><trkpt lat="40.6837689" lon="14.9346632"><ele>503.1666666666667</ele><time>2026-03-22T11:26:25.079Z</time></trkpt><trkpt lat="40.6838544" lon="14.9346227"><ele>495.33333333333337</ele><time>2026-03-22T11:26:26.965Z</time></trkpt><trkpt lat="40.6839416" lon="14.9346439"><ele>487.5</ele><time>2026-03-22T11:26:28.977Z</time></trkpt><trkpt lat="40.6839777" lon="14.934542"><ele>479.66666666666663</ele><time>2026-03-22T11:26:30.957Z</time></trkpt><trkpt lat="40.6839593" lon="14.9344394"><ele>471.8333333333333</ele><time>2026-03-22T11:26:32.97Z</time></trkpt><trkpt lat="40.6839235" lon="14.9343222"><ele>464.0</ele><time>2026-03-22T11:26:35.026Z</time></trkpt><trkpt lat="40.6838484" lon="14.9342365"><ele>462.16666666666663</ele><time>2026-03-22T11:26:36.959Z</time></trkpt><trkpt lat="40.6837927" lon="14.9341831"><ele>460.3333333333333</ele><time>2026-03-22T11:26:38.956Z</time></trkpt><trkpt lat="40.6836941" lon="14.934174"><ele>458.5</ele><time>2026-03-22T11:26:40.966Z</time></trkpt><trkpt lat="40.6836168" lon="14.9341202"><ele>456.66666666666663</ele><time>2026-03-22T11:26:42.957Z</time></trkpt><trkpt lat="40.6835989" lon="14.9340175"><ele>454.8333333333333</ele><time>2026-03-22T11:26:45.03Z</time></trkpt><trkpt lat="40.6835995" lon="14.9339333"><ele>453.0</ele><time>2026-03-22T11:26:46.963Z</time></trkpt><trkpt lat="40.6836777" lon="14.9338479"><ele>452.99999999999994</ele><time>2026-03-22T11:26:49.962Z</time></trkpt><trkpt lat="40.6837328" lon="14.9338045"><ele>453.0</ele><time>2026-03-22T11:26:50.956Z</time></trkpt><trkpt lat="40.6837926" lon="14.9337404"><ele>452.99999999999994</ele><time>2026-03-22T11:26:51.963Z</time></trkpt><trkpt lat="40.6838579" lon="14.9336887"><ele>452.99999999999994</ele><time>2026-03-22T11:26:52.965Z</time></trkpt><trkpt lat="40.6839191" lon="14.9336355"><ele>453.0</ele><time>2026-03-22T11:26:54.032Z</time></trkpt><trkpt lat="40.6839774" lon="14.933589"><ele>452.99999999999994</ele><time>2026-03-22T11:26:54.964Z</time></trkpt><trkpt lat="40.684036" lon="14.9335413"><ele>452.99999999999994</ele><time>2026-03-22T11:26:55.967Z</time></trkpt><trkpt lat="40.684092" lon="14.9334788"><ele>452.0</ele><time>2026-03-22T11:26:56.959Z</time></trkpt><trkpt lat="40.6841554" lon="14.9333886"><ele>450.99999999999994</ele><time>2026-03-22T11:26:57.959Z</time></trkpt><trkpt lat="40.6842274" lon="14.9332735"><ele>449.99999999999994</ele><time>2026-03-22T11:26:58.962Z</time></trkpt><trkpt lat="40.6842898" lon="14.9331711"><ele>449.0</ele><time>2026-03-22T11:27:00.04Z</time></trkpt><trkpt lat="40.6843438" lon="14.9330559"><ele>448.0</ele><time>2026-03-22T11:27:01.034Z</time></trkpt><trkpt lat="40.6843846" lon="14.932961"><ele>448.00000000000006</ele><time>2026-03-22T11:27:01.958Z</time></trkpt><trkpt lat="40.684414" lon="14.9328557"><ele>448.0</ele><time>2026-03-22T11:27:02.955Z</time></trkpt><trkpt lat="40.6844219" lon="14.9327445"><ele>448.0</ele><time>2026-03-22T11:27:03.961Z</time></trkpt><trkpt lat="40.6844084" lon="14.932648"><ele>448.0</ele><time>2026-03-22T11:27:05.038Z</time></trkpt><trkpt lat="40.6843777" lon="14.9325453"><ele>448.00000000000006</ele><time>2026-03-22T11:27:06.034Z</time></trkpt><trkpt lat="40.6843306" lon="14.9324348"><ele>448.0</ele><time>2026-03-22T11:27:06.95Z</time></trkpt><trkpt lat="40.6842566" lon="14.9323398"><ele>449.0</ele><time>2026-03-22T11:27:07.959Z</time></trkpt><trkpt lat="40.684168" lon="14.9322194"><ele>449.99999999999994</ele><time>2026-03-22T11:27:08.994Z</time></trkpt><trkpt lat="40.6841192" lon="14.932123"><ele>450.99999999999994</ele><time>2026-03-22T11:27:10.036Z</time></trkpt><trkpt lat="40.6840814" lon="14.9320375"><ele>452.0</ele><time>2026-03-22T11:27:11.952Z</time></trkpt><trkpt lat="40.6840564" lon="14.9319481"><ele>453.0</ele><time>2026-03-22T11:27:12.956Z</time></trkpt><trkpt lat="40.684062" lon="14.9318004"><ele>454.4</ele><time>2026-03-22T11:27:13.953Z</time></trkpt><trkpt lat="40.6840782" lon="14.9316445"><ele>455.79999999999995</ele><time>2026-03-22T11:27:15.01Z</time></trkpt><trkpt lat="40.6841462" lon="14.9315014"><ele>457.2</ele><time>2026-03-22T11:27:16.017Z</time></trkpt><trkpt lat="40.6842109" lon="14.9314102"><ele>458.6</ele><time>2026-03-22T11:27:16.955Z</time></trkpt><trkpt lat="40.6842636" lon="14.9313246"><ele>460.0</ele><time>2026-03-22T11:27:17.956Z</time></trkpt><trkpt lat="40.6842979" lon="14.9312361"><ele>460.00000000000006</ele><time>2026-03-22T11:27:18.972Z</time></trkpt><trkpt lat="40.6842871" lon="14.9311465"><ele>460.0</ele><time>2026-03-22T11:27:20.029Z</time></trkpt><trkpt lat="40.6842549" lon="14.9310587"><ele>460.0</ele><time>2026-03-22T11:27:21.029Z</time></trkpt><trkpt lat="40.6841897" lon="14.9310303"><ele>460.0</ele><time>2026-03-22T11:27:21.943Z</time></trkpt><trkpt lat="40.6840843" lon="14.9311306"><ele>460.00000000000006</ele><time>2026-03-22T11:27:23.958Z</time></trkpt><trkpt lat="40.6840278" lon="14.9312099"><ele>460.0</ele><time>2026-03-22T11:27:24.941Z</time></trkpt><trkpt lat="40.6839641" lon="14.9312993"><ele>460.0</ele><time>2026-03-22T11:27:26.011Z</time></trkpt><trkpt lat="40.6839154" lon="14.9313794"><ele>460.0</ele><time>2026-03-22T11:27:26.948Z</time></trkpt><trkpt lat="40.6838715" lon="14.9315351"><ele>460.0</ele><time>2026-03-22T11:27:28.943Z</time></trkpt><trkpt lat="40.6838317" lon="14.9316491"><ele>460.0</ele><time>2026-03-22T11:27:29.943Z</time></trkpt><trkpt lat="40.6837738" lon="14.9317961"><ele>460.0</ele><time>2026-03-22T11:27:30.955Z</time></trkpt><trkpt lat="40.683721" lon="14.931942"><ele>458.83333333333337</ele><time>2026-03-22T11:27:31.95Z</time></trkpt><trkpt lat="40.683682" lon="14.9320478"><ele>457.6666666666667</ele><time>2026-03-22T11:27:33.03Z</time></trkpt><trkpt lat="40.6836826" lon="14.9322001"><ele>456.5</ele><time>2026-03-22T11:27:34.975Z</time></trkpt><trkpt lat="40.6836906" lon="14.9322986"><ele>455.33333333333337</ele><time>2026-03-22T11:27:35.957Z</time></trkpt><trkpt lat="40.6836937" lon="14.9324243"><ele>454.1666666666667</ele><time>2026-03-22T11:27:36.963Z</time></trkpt><trkpt lat="40.6836745" lon="14.9325135"><ele>453.0</ele><time>2026-03-22T11:27:37.958Z</time></trkpt><trkpt lat="40.6836537" lon="14.9326176"><ele>453.0</ele><time>2026-03-22T11:27:39.958Z</time></trkpt><trkpt lat="40.6836217" lon="14.9325384"><ele>453.0</ele><time>2026-03-22T11:27:42.962Z</time></trkpt><trkpt lat="40.6835895" lon="14.9324536"><ele>453.0</ele><time>2026-03-22T11:27:43.957Z</time></trkpt><trkpt lat="40.6835442" lon="14.9323805"><ele>453.0</ele><time>2026-03-22T11:27:44.954Z</time></trkpt><trkpt lat="40.6834755" lon="14.9322954"><ele>453.0</ele><time>2026-03-22T11:27:45.954Z</time></trkpt><trkpt lat="40.6834038" lon="14.9321922"><ele>453.0</ele><time>2026-03-22T11:27:46.963Z</time></trkpt><trkpt lat="40.6833426" lon="14.9320838"><ele>461.8333333333333</ele><time>2026-03-22T11:27:47.959Z</time></trkpt><trkpt lat="40.6832932" lon="14.9319696"><ele>470.66666666666663</ele><time>2026-03-22T11:27:48.95Z</time></trkpt><trkpt lat="40.6832677" lon="14.9318928"><ele>479.5</ele><time>2026-03-22T11:27:49.96Z</time></trkpt><trkpt lat="40.6832571" lon="14.931768"><ele>488.3333333333333</ele><time>2026-03-22T11:27:51.952Z</time></trkpt><trkpt lat="40.6832699" lon="14.9316767"><ele>497.16666666666663</ele><time>2026-03-22T11:27:52.955Z</time></trkpt><trkpt lat="40.683293" lon="14.9315568"><ele>506.0</ele><time>2026-03-22T11:27:53.964Z</time></trkpt><trkpt lat="40.6833223" lon="14.9314336"><ele>505.49999999999994</ele><time>2026-03-22T11:27:54.956Z</time></trkpt><trkpt lat="40.6833353" lon="14.9313289"><ele>505.0</ele><time>2026-03-22T11:27:56.04Z</time></trkpt><trkpt lat="40.6833128" lon="14.9312408"><ele>504.5</ele><time>2026-03-22T11:27:56.962Z</time></trkpt><trkpt lat="40.6832749" lon="14.9311589"><ele>504.0</ele><time>2026-03-22T11:27:57.967Z</time></trkpt><trkpt lat="40.6832091" lon="14.9310598"><ele>503.49999999999994</ele><time>2026-03-22T11:27:58.992Z</time></trkpt><trkpt lat="40.6831511" lon="14.9309735"><ele>503.0</ele><time>2026-03-22T11:28:00.041Z</time></trkpt><trkpt lat="40.6831161" lon="14.9308882"><ele>502.99999999999994</ele><time>2026-03-22T11:28:01.031Z</time></trkpt><trkpt lat="40.6830339" lon="14.9307631"><ele>503.0</ele><time>2026-03-22T11:28:02.965Z</time></trkpt><trkpt lat="40.6829834" lon="14.9307083"><ele>503.0</ele><time>2026-03-22T11:28:03.963Z</time></trkpt><trkpt lat="40.6829228" lon="14.9306683"><ele>503.0</ele><time>2026-03-22T11:28:05.025Z</time></trkpt><trkpt lat="40.6828724" lon="14.9306182"><ele>502.99999999999994</ele><time>2026-03-22T11:28:06.032Z</time></trkpt><trkpt lat="40.6828145" lon="14.9305779"><ele>503.0</ele><time>2026-03-22T11:28:06.967Z</time></trkpt><trkpt lat="40.6827514" lon="14.9305363"><ele>503.0</ele><time>2026-03-22T11:28:07.97Z</time></trkpt><trkpt lat="40.6826974" lon="14.9304918"><ele>502.99999999999994</ele><time>2026-03-22T11:28:08.969Z</time></trkpt><trkpt lat="40.6826314" lon="14.9304842"><ele>502.99999999999994</ele><time>2026-03-22T11:28:11.971Z</time></trkpt><trkpt lat="40.6826955" lon="14.9306301"><ele>503.0</ele><time>2026-03-22T11:28:14.029Z</time></trkpt><trkpt lat="40.6827736" lon="14.9308076"><ele>503.0</ele><time>2026-03-22T11:28:14.962Z</time></trkpt><trkpt lat="40.6828603" lon="14.9309564"><ele>505.0</ele><time>2026-03-22T11:28:15.952Z</time></trkpt><trkpt lat="40.6829235" lon="14.9310943"><ele>506.99999999999994</ele><time>2026-03-22T11:28:16.965Z</time></trkpt><trkpt lat="40.6829545" lon="14.9312258"><ele>508.99999999999994</ele><time>2026-03-22T11:28:17.957Z</time></trkpt><trkpt lat="40.6829573" lon="14.9313532"><ele>511.0</ele><time>2026-03-22T11:28:18.96Z</time></trkpt><trkpt lat="40.6829493" lon="14.931479"><ele>513.0</ele><time>2026-03-22T11:28:19.956Z</time></trkpt><trkpt lat="40.6829326" lon="14.9315934"><ele>511.25</ele><time>2026-03-22T11:28:20.957Z</time></trkpt><trkpt lat="40.6829042" lon="14.9317268"><ele>509.5</ele><time>2026-03-22T11:28:21.951Z</time></trkpt><trkpt lat="40.682889" lon="14.9318977"><ele>507.75</ele><time>2026-03-22T11:28:22.954Z</time></trkpt><trkpt lat="40.6828887" lon="14.9320517"><ele>506.0</ele><time>2026-03-22T11:28:23.951Z</time></trkpt><trkpt lat="40.6828982" lon="14.9321816"><ele>505.99999999999994</ele><time>2026-03-22T11:28:24.951Z</time></trkpt><trkpt lat="40.6829131" lon="14.932268"><ele>506.0</ele><time>2026-03-22T11:28:25.958Z</time></trkpt><trkpt lat="40.6829102" lon="14.9323531"><ele>506.0</ele><time>2026-03-22T11:28:26.956Z</time></trkpt><trkpt lat="40.6828542" lon="14.932487"><ele>506.0</ele><time>2026-03-22T11:28:28.965Z</time></trkpt><trkpt lat="40.6827782" lon="14.9325498"><ele>505.99999999999994</ele><time>2026-03-22T11:28:29.961Z</time></trkpt><trkpt lat="40.6826801" lon="14.9326083"><ele>506.0</ele><time>2026-03-22T11:28:30.958Z</time></trkpt><trkpt lat="40.6825836" lon="14.9326892"><ele>508.75</ele><time>2026-03-22T11:28:31.963Z</time></trkpt><trkpt lat="40.6824828" lon="14.9327713"><ele>511.5</ele><time>2026-03-22T11:28:32.96Z</time></trkpt><trkpt lat="40.6823917" lon="14.9328675"><ele>514.25</ele><time>2026-03-22T11:28:33.96Z</time></trkpt><trkpt lat="40.6823105" lon="14.9329613"><ele>517.0</ele><time>2026-03-22T11:28:34.954Z</time></trkpt><trkpt lat="40.6822307" lon="14.9330591"><ele>517.0</ele><time>2026-03-22T11:28:35.946Z</time></trkpt><trkpt lat="40.6821419" lon="14.9331714"><ele>517.0</ele><time>2026-03-22T11:28:36.96Z</time></trkpt><trkpt lat="40.6820544" lon="14.9332989"><ele>517.0</ele><time>2026-03-22T11:28:37.954Z</time></trkpt><trkpt lat="40.6819622" lon="14.933432"><ele>517.0</ele><time>2026-03-22T11:28:38.958Z</time></trkpt><trkpt lat="40.6818691" lon="14.9335589"><ele>522.0</ele><time>2026-03-22T11:28:39.962Z</time></trkpt><trkpt lat="40.6817551" lon="14.9336848"><ele>527.0</ele><time>2026-03-22T11:28:40.967Z</time></trkpt><trkpt lat="40.6816525" lon="14.9338243"><ele>532.0</ele><time>2026-03-22T11:28:41.959Z</time></trkpt><trkpt lat="40.6816004" lon="14.9339335"><ele>537.0</ele><time>2026-03-22T11:28:42.951Z</time></trkpt><trkpt lat="40.681601" lon="14.93405"><ele>537.0</ele><time>2026-03-22T11:28:43.962Z</time></trkpt><trkpt lat="40.6816383" lon="14.9341697"><ele>537.0</ele><time>2026-03-22T11:28:44.96Z</time></trkpt><trkpt lat="40.6816652" lon="14.934296"><ele>537.0</ele><time>2026-03-22T11:28:45.959Z</time></trkpt><trkpt lat="40.6816937" lon="14.9344201"><ele>537.0</ele><time>2026-03-22T11:28:46.958Z</time></trkpt><trkpt lat="40.6817207" lon="14.9345219"><ele>537.0</ele><time>2026-03-22T11:28:47.961Z</time></trkpt><trkpt lat="40.6816211" lon="14.9344493"><ele>537.0</ele><time>2026-03-22T11:28:51.96Z</time></trkpt><trkpt lat="40.6815737" lon="14.9343844"><ele>537.0</ele><time>2026-03-22T11:28:52.962Z</time></trkpt><trkpt lat="40.6815024" lon="14.9342941"><ele>537.0</ele><time>2026-03-22T11:28:54.959Z</time></trkpt><trkpt lat="40.681494" lon="14.9341233"><ele>537.0</ele><time>2026-03-22T11:28:56.963Z</time></trkpt><trkpt lat="40.6814936" lon="14.9339808"><ele>537.0</ele><time>2026-03-22T11:28:57.965Z</time></trkpt><trkpt lat="40.681502" lon="14.9338299"><ele>537.0</ele><time>2026-03-22T11:28:58.96Z</time></trkpt><trkpt lat="40.6815235" lon="14.9336923"><ele>537.0</ele><time>2026-03-22T11:28:59.961Z</time></trkpt><trkpt lat="40.6815476" lon="14.9335485"><ele>537.0</ele><time>2026-03-22T11:29:00.96Z</time></trkpt><trkpt lat="40.6815763" lon="14.9334056"><ele>537.0</ele><time>2026-03-22T11:29:01.953Z</time></trkpt><trkpt lat="40.6816371" lon="14.933233"><ele>539.6</ele><time>2026-03-22T11:29:02.958Z</time></trkpt><trkpt lat="40.6816988" lon="14.9330843"><ele>542.2</ele><time>2026-03-22T11:29:03.962Z</time></trkpt><trkpt lat="40.6817526" lon="14.932969"><ele>544.8</ele><time>2026-03-22T11:29:04.959Z</time></trkpt><trkpt lat="40.6818097" lon="14.9328527"><ele>547.4</ele><time>2026-03-22T11:29:05.957Z</time></trkpt><trkpt lat="40.6818626" lon="14.9327488"><ele>550.0</ele><time>2026-03-22T11:29:06.957Z</time></trkpt><trkpt lat="40.681908" lon="14.9326417"><ele>547.75</ele><time>2026-03-22T11:29:07.963Z</time></trkpt><trkpt lat="40.6819471" lon="14.9325178"><ele>545.5</ele><time>2026-03-22T11:29:08.961Z</time></trkpt><trkpt lat="40.6820004" lon="14.9323645"><ele>543.25</ele><time>2026-03-22T11:29:09.963Z</time></trkpt><trkpt lat="40.6820598" lon="14.9322053"><ele>541.0</ele><time>2026-03-22T11:29:10.958Z</time></trkpt><trkpt lat="40.6821151" lon="14.9320914"><ele>541.0</ele><time>2026-03-22T11:29:11.962Z</time></trkpt><trkpt lat="40.6821742" lon="14.931999"><ele>541.0</ele><time>2026-03-22T11:29:12.953Z</time></trkpt><trkpt lat="40.682224" lon="14.9319343"><ele>541.0</ele><time>2026-03-22T11:29:13.963Z</time></trkpt><trkpt lat="40.6822601" lon="14.93185"><ele>541.0</ele><time>2026-03-22T11:29:14.964Z</time></trkpt><trkpt lat="40.6822825" lon="14.9317676"><ele>541.0</ele><time>2026-03-22T11:29:15.962Z</time></trkpt><trkpt lat="40.6823085" lon="14.9316544"><ele>541.0</ele><time>2026-03-22T11:29:16.96Z</time></trkpt><trkpt lat="40.6823265" lon="14.931562"><ele>542.2857142857143</ele><time>2026-03-22T11:29:17.957Z</time></trkpt><trkpt lat="40.6823386" lon="14.9314643"><ele>543.5714285714286</ele><time>2026-03-22T11:29:19.023Z</time></trkpt><trkpt lat="40.6823338" lon="14.9313792"><ele>544.8571428571429</ele><time>2026-03-22T11:29:20.039Z</time></trkpt><trkpt lat="40.6823067" lon="14.9312971"><ele>546.1428571428571</ele><time>2026-03-22T11:29:20.953Z</time></trkpt><trkpt lat="40.682271" lon="14.9312174"><ele>547.4285714285714</ele><time>2026-03-22T11:29:21.951Z</time></trkpt><trkpt lat="40.6822146" lon="14.9311331"><ele>548.7142857142858</ele><time>2026-03-22T11:29:22.957Z</time></trkpt><trkpt lat="40.6821563" lon="14.9310626"><ele>550.0</ele><time>2026-03-22T11:29:23.953Z</time></trkpt><trkpt lat="40.6821016" lon="14.9309955"><ele>550.0</ele><time>2026-03-22T11:29:25.031Z</time></trkpt><trkpt lat="40.6820504" lon="14.9309358"><ele>550.0</ele><time>2026-03-22T11:29:26.024Z</time></trkpt><trkpt lat="40.6819877" lon="14.9308848"><ele>550.0</ele><time>2026-03-22T11:29:26.979Z</time></trkpt><trkpt lat="40.6819266" lon="14.9308424"><ele>550.0</ele><time>2026-03-22T11:29:28.017Z</time></trkpt><trkpt lat="40.6818733" lon="14.9307876"><ele>550.0</ele><time>2026-03-22T11:29:29.012Z</time></trkpt><trkpt lat="40.6818073" lon="14.9307403"><ele>550.0</ele><time>2026-03-22T11:29:30.02Z</time></trkpt><trkpt lat="40.681748" lon="14.9306704"><ele>550.0</ele><time>2026-03-22T11:29:31.006Z</time></trkpt><trkpt lat="40.681693" lon="14.9305879"><ele>551.0</ele><time>2026-03-22T11:29:31.947Z</time></trkpt><trkpt lat="40.6816563" lon="14.9304895"><ele>552.0</ele><time>2026-03-22T11:29:32.953Z</time></trkpt><trkpt lat="40.6816111" lon="14.9303914"><ele>553.0</ele><time>2026-03-22T11:29:33.978Z</time></trkpt><trkpt lat="40.6815781" lon="14.9302938"><ele>554.0</ele><time>2026-03-22T11:29:34.95Z</time></trkpt><trkpt lat="40.6815266" lon="14.9301966"><ele>555.0</ele><time>2026-03-22T11:29:35.952Z</time></trkpt><trkpt lat="40.6814624" lon="14.9300823"><ele>556.0</ele><time>2026-03-22T11:29:36.947Z</time></trkpt><trkpt lat="40.681394" lon="14.9299564"><ele>557.0</ele><time>2026-03-22T11:29:37.952Z</time></trkpt><trkpt lat="40.6813164" lon="14.9298307"><ele>558.0</ele><time>2026-03-22T11:29:38.945Z</time></trkpt><trkpt lat="40.6812385" lon="14.9297163"><ele>559.0</ele><time>2026-03-22T11:29:39.956Z</time></trkpt><trkpt lat="40.6811707" lon="14.9296101"><ele>560.0</ele><time>2026-03-22T11:29:40.948Z</time></trkpt><trkpt lat="40.6811076" lon="14.9295203"><ele>561.0</ele><time>2026-03-22T11:29:41.943Z</time></trkpt><trkpt lat="40.6810549" lon="14.9294417"><ele>561.0</ele><time>2026-03-22T11:29:42.953Z</time></trkpt><trkpt lat="40.680996" lon="14.929312"><ele>561.0</ele><time>2026-03-22T11:29:44.951Z</time></trkpt><trkpt lat="40.6809356" lon="14.9291802"><ele>561.0</ele><time>2026-03-22T11:29:46.956Z</time></trkpt><trkpt lat="40.680924" lon="14.9290985"><ele>561.0</ele><time>2026-03-22T11:29:47.95Z</time></trkpt><trkpt lat="40.680926" lon="14.9290119"><ele>561.0</ele><time>2026-03-22T11:29:48.955Z</time></trkpt><trkpt lat="40.6809221" lon="14.9288792"><ele>558.0</ele><time>2026-03-22T11:29:50.954Z</time></trkpt><trkpt lat="40.6809099" lon="14.9287963"><ele>555.0</ele><time>2026-03-22T11:29:51.978Z</time></trkpt><trkpt lat="40.6808966" lon="14.9287031"><ele>552.0</ele><time>2026-03-22T11:29:52.955Z</time></trkpt><trkpt lat="40.680875" lon="14.928606"><ele>549.0</ele><time>2026-03-22T11:29:53.947Z</time></trkpt><trkpt lat="40.6808541" lon="14.9285034"><ele>546.0</ele><time>2026-03-22T11:29:54.952Z</time></trkpt><trkpt lat="40.6808327" lon="14.9283929"><ele>543.0</ele><time>2026-03-22T11:29:55.937Z</time></trkpt><trkpt lat="40.6808213" lon="14.9283006"><ele>540.4</ele><time>2026-03-22T11:29:56.954Z</time></trkpt><trkpt lat="40.6808067" lon="14.9281147"><ele>537.8</ele><time>2026-03-22T11:29:58.956Z</time></trkpt><trkpt lat="40.6808041" lon="14.9279938"><ele>535.2</ele><time>2026-03-22T11:29:59.952Z</time></trkpt><trkpt lat="40.6808021" lon="14.9278826"><ele>532.6</ele><time>2026-03-22T11:30:00.957Z</time></trkpt><trkpt lat="40.6808136" lon="14.9277711"><ele>530.0</ele><time>2026-03-22T11:30:01.946Z</time></trkpt><trkpt lat="40.6808353" lon="14.9276394"><ele>529.0</ele><time>2026-03-22T11:30:02.955Z</time></trkpt><trkpt lat="40.6808677" lon="14.9275158"><ele>528.0</ele><time>2026-03-22T11:30:03.953Z</time></trkpt><trkpt lat="40.6808965" lon="14.9274355"><ele>527.0</ele><time>2026-03-22T11:30:04.979Z</time></trkpt><trkpt lat="40.6809311" lon="14.9273252"><ele>526.0</ele><time>2026-03-22T11:30:06.956Z</time></trkpt><trkpt lat="40.6808587" lon="14.9273355"><ele>525.0</ele><time>2026-03-22T11:30:10.961Z</time></trkpt><trkpt lat="40.6808141" lon="14.9274583"><ele>524.0</ele><time>2026-03-22T11:30:12.951Z</time></trkpt><trkpt lat="40.6807942" lon="14.9275453"><ele>525.0</ele><time>2026-03-22T11:30:13.961Z</time></trkpt><trkpt lat="40.6807628" lon="14.9276225"><ele>526.0</ele><time>2026-03-22T11:30:14.955Z</time></trkpt><trkpt lat="40.6807492" lon="14.9277138"><ele>527.0</ele><time>2026-03-22T11:30:15.959Z</time></trkpt><trkpt lat="40.6807517" lon="14.9278251"><ele>528.0</ele><time>2026-03-22T11:30:16.961Z</time></trkpt><trkpt lat="40.6807588" lon="14.9279456"><ele>529.0</ele><time>2026-03-22T11:30:17.956Z</time></trkpt><trkpt lat="40.6807666" lon="14.9280473"><ele>530.0</ele><time>2026-03-22T11:30:18.961Z</time></trkpt><trkpt lat="40.6807635" lon="14.9281308"><ele>530.0</ele><time>2026-03-22T11:30:19.941Z</time></trkpt><trkpt lat="40.6807554" lon="14.9282152"><ele>530.0</ele><time>2026-03-22T11:30:20.952Z</time></trkpt><trkpt lat="40.6807424" lon="14.9283015"><ele>530.0</ele><time>2026-03-22T11:30:21.959Z</time></trkpt><trkpt lat="40.6807347" lon="14.9284103"><ele>530.0</ele><time>2026-03-22T11:30:22.953Z</time></trkpt><trkpt lat="40.6807228" lon="14.9284973"><ele>530.0</ele><time>2026-03-22T11:30:23.957Z</time></trkpt><trkpt lat="40.6807161" lon="14.928588"><ele>530.0</ele><time>2026-03-22T11:30:24.948Z</time></trkpt><trkpt lat="40.6807178" lon="14.9287331"><ele>532.1666666666666</ele><time>2026-03-22T11:30:26.953Z</time></trkpt><trkpt lat="40.6807717" lon="14.9288345"><ele>534.3333333333333</ele><time>2026-03-22T11:30:28.953Z</time></trkpt><trkpt lat="40.6808217" lon="14.928902"><ele>536.5</ele><time>2026-03-22T11:30:30.942Z</time></trkpt><trkpt lat="40.6808614" lon="14.9290314"><ele>538.6666666666666</ele><time>2026-03-22T11:30:32.95Z</time></trkpt><trkpt lat="40.6808617" lon="14.9291326"><ele>540.8333333333334</ele><time>2026-03-22T11:30:34.957Z</time></trkpt><trkpt lat="40.6808266" lon="14.9292224"><ele>543.0</ele><time>2026-03-22T11:30:36.952Z</time></trkpt><trkpt lat="40.680782" lon="14.9293445"><ele>546.0</ele><time>2026-03-22T11:30:38.947Z</time></trkpt><trkpt lat="40.6807413" lon="14.9294465"><ele>549.0</ele><time>2026-03-22T11:30:40.949Z</time></trkpt><trkpt lat="40.6807761" lon="14.929527"><ele>552.0</ele><time>2026-03-22T11:30:43.956Z</time></trkpt><trkpt lat="40.6808091" lon="14.9296217"><ele>555.0</ele><time>2026-03-22T11:30:45.948Z</time></trkpt><trkpt lat="40.6808184" lon="14.929704"><ele>558.0</ele><time>2026-03-22T11:30:46.95Z</time></trkpt><trkpt lat="40.6808152" lon="14.9297911"><ele>561.0</ele><time>2026-03-22T11:30:47.956Z</time></trkpt><trkpt lat="40.6807714" lon="14.9299312"><ele>561.0</ele><time>2026-03-22T11:30:49.959Z</time></trkpt><trkpt lat="40.6807283" lon="14.9299946"><ele>561.0</ele><time>2026-03-22T11:30:50.951Z</time></trkpt><trkpt lat="40.6807214" lon="14.9301317"><ele>561.0</ele><time>2026-03-22T11:30:52.951Z</time></trkpt><trkpt lat="40.6807163" lon="14.9302244"><ele>561.0</ele><time>2026-03-22T11:30:53.948Z</time></trkpt><trkpt lat="40.6806987" lon="14.9303755"><ele>561.0</ele><time>2026-03-22T11:30:55.952Z</time></trkpt><trkpt lat="40.680697" lon="14.930527"><ele>564.0</ele><time>2026-03-22T11:30:57.953Z</time></trkpt><trkpt lat="40.680727" lon="14.9306509"><ele>567.0</ele><time>2026-03-22T11:30:59.95Z</time></trkpt><trkpt lat="40.6807222" lon="14.9307995"><ele>570.0</ele><time>2026-03-22T11:31:01.964Z</time></trkpt><trkpt lat="40.6807014" lon="14.9308837"><ele>573.0</ele><time>2026-03-22T11:31:02.961Z</time></trkpt><trkpt lat="40.6806816" lon="14.9309705"><ele>576.0</ele><time>2026-03-22T11:31:03.95Z</time></trkpt><trkpt lat="40.6806641" lon="14.9310514"><ele>579.0</ele><time>2026-03-22T11:31:04.944Z</time></trkpt><trkpt lat="40.6806499" lon="14.9311333"><ele>578.8333333333334</ele><time>2026-03-22T11:31:05.957Z</time></trkpt><trkpt lat="40.6806293" lon="14.9312282"><ele>578.6666666666666</ele><time>2026-03-22T11:31:06.952Z</time></trkpt><trkpt lat="40.6806178" lon="14.9313267"><ele>578.5</ele><time>2026-03-22T11:31:07.949Z</time></trkpt><trkpt lat="40.680626" lon="14.9314391"><ele>578.3333333333333</ele><time>2026-03-22T11:31:08.946Z</time></trkpt><trkpt lat="40.6806615" lon="14.9315586"><ele>578.1666666666666</ele><time>2026-03-22T11:31:09.951Z</time></trkpt><trkpt lat="40.6807166" lon="14.9316619"><ele>578.0</ele><time>2026-03-22T11:31:10.954Z</time></trkpt><trkpt lat="40.6807877" lon="14.9317583"><ele>578.0</ele><time>2026-03-22T11:31:11.954Z</time></trkpt><trkpt lat="40.6808643" lon="14.9318775"><ele>578.0</ele><time>2026-03-22T11:31:12.959Z</time></trkpt><trkpt lat="40.6809346" lon="14.9320024"><ele>578.0</ele><time>2026-03-22T11:31:13.956Z</time></trkpt><trkpt lat="40.6809889" lon="14.9321153"><ele>578.0</ele><time>2026-03-22T11:31:14.951Z</time></trkpt><trkpt lat="40.6810371" lon="14.9321826"><ele>578.0</ele><time>2026-03-22T11:31:15.956Z</time></trkpt><trkpt lat="40.6810951" lon="14.9322375"><ele>577.0</ele><time>2026-03-22T11:31:16.949Z</time></trkpt><trkpt lat="40.6811668" lon="14.9322803"><ele>576.0</ele><time>2026-03-22T11:31:17.952Z</time></trkpt><trkpt lat="40.6812293" lon="14.9323073"><ele>575.0</ele><time>2026-03-22T11:31:18.958Z</time></trkpt><trkpt lat="40.6812593" lon="14.9323982"><ele>574.0</ele><time>2026-03-22T11:31:21.949Z</time></trkpt><trkpt lat="40.6812502" lon="14.9325131"><ele>573.0</ele><time>2026-03-22T11:31:25.958Z</time></trkpt><trkpt lat="40.681268" lon="14.9326073"><ele>572.0</ele><time>2026-03-22T11:31:27.952Z</time></trkpt><trkpt lat="40.681259" lon="14.9327223"><ele>568.3333333333333</ele><time>2026-03-22T11:31:30.958Z</time></trkpt><trkpt lat="40.6812493" lon="14.9328419"><ele>564.6666666666666</ele><time>2026-03-22T11:31:33.952Z</time></trkpt><trkpt lat="40.681244" lon="14.9329611"><ele>561.0</ele><time>2026-03-22T11:31:36.951Z</time></trkpt><trkpt lat="40.6812298" lon="14.9330519"><ele>557.3333333333334</ele><time>2026-03-22T11:31:38.963Z</time></trkpt><trkpt lat="40.6812295" lon="14.9331663"><ele>553.6666666666667</ele><time>2026-03-22T11:31:40.964Z</time></trkpt><trkpt lat="40.6812228" lon="14.9332771"><ele>550.0</ele><time>2026-03-22T11:31:42.957Z</time></trkpt><trkpt lat="40.6812047" lon="14.9333973"><ele>547.8333333333334</ele><time>2026-03-22T11:31:44.954Z</time></trkpt><trkpt lat="40.6811964" lon="14.9335045"><ele>545.6666666666667</ele><time>2026-03-22T11:31:46.943Z</time></trkpt><trkpt lat="40.6811931" lon="14.9336551"><ele>543.5</ele><time>2026-03-22T11:31:48.957Z</time></trkpt><trkpt lat="40.6812014" lon="14.9337753"><ele>541.3333333333334</ele><time>2026-03-22T11:31:50.952Z</time></trkpt><trkpt lat="40.6812245" lon="14.9338635"><ele>539.1666666666666</ele><time>2026-03-22T11:31:52.952Z</time></trkpt><trkpt lat="40.6812638" lon="14.9339355"><ele>537.0</ele><time>2026-03-22T11:31:53.94Z</time></trkpt><trkpt lat="40.6813114" lon="14.934009"><ele>537.0</ele><time>2026-03-22T11:31:54.948Z</time></trkpt><trkpt lat="40.6813477" lon="14.9340808"><ele>537.0</ele><time>2026-03-22T11:31:55.961Z</time></trkpt><trkpt lat="40.6814192" lon="14.9342144"><ele>537.0</ele><time>2026-03-22T11:31:57.951Z</time></trkpt><trkpt lat="40.6814669" lon="14.9342798"><ele>537.0</ele><time>2026-03-22T11:31:58.953Z</time></trkpt><trkpt lat="40.6815165" lon="14.9343596"><ele>537.0</ele><time>2026-03-22T11:31:59.939Z</time></trkpt><trkpt lat="40.681576" lon="14.9344599"><ele>537.0</ele><time>2026-03-22T11:32:00.949Z</time></trkpt><trkpt lat="40.6816319" lon="14.9345695"><ele>534.8000000000001</ele><time>2026-03-22T11:32:01.946Z</time></trkpt><trkpt lat="40.6817004" lon="14.9346703"><ele>532.6</ele><time>2026-03-22T11:32:02.951Z</time></trkpt><trkpt lat="40.6817489" lon="14.9347698"><ele>530.4000000000001</ele><time>2026-03-22T11:32:03.954Z</time></trkpt><trkpt lat="40.681776" lon="14.9349146"><ele>528.2</ele><time>2026-03-22T11:32:05.941Z</time></trkpt><trkpt lat="40.681815" lon="14.9349991"><ele>526.0</ele><time>2026-03-22T11:32:07.961Z</time></trkpt><trkpt lat="40.6818386" lon="14.9351632"><ele>524.0</ele><time>2026-03-22T11:32:09.95Z</time></trkpt><trkpt lat="40.6818642" lon="14.935265"><ele>522.0</ele><time>2026-03-22T11:32:10.954Z</time></trkpt><trkpt lat="40.681916" lon="14.9353579"><ele>520.0</ele><time>2026-03-22T11:32:11.956Z</time></trkpt><trkpt lat="40.6819825" lon="14.9354631"><ele>518.0</ele><time>2026-03-22T11:32:12.95Z</time></trkpt><trkpt lat="40.6820576" lon="14.9355736"><ele>516.0</ele><time>2026-03-22T11:32:13.954Z</time></trkpt><trkpt lat="40.6821241" lon="14.9356436"><ele>516.0</ele><time>2026-03-22T11:32:14.954Z</time></trkpt><trkpt lat="40.6822034" lon="14.9357073"><ele>516.0</ele><time>2026-03-22T11:32:15.94Z</time></trkpt><trkpt lat="40.6822849" lon="14.9357762"><ele>516.0</ele><time>2026-03-22T11:32:16.949Z</time></trkpt><trkpt lat="40.6823743" lon="14.9358641"><ele>516.0</ele><time>2026-03-22T11:32:17.944Z</time></trkpt><trkpt lat="40.6824648" lon="14.935965"><ele>516.0</ele><time>2026-03-22T11:32:18.958Z</time></trkpt><trkpt lat="40.6825498" lon="14.9360805"><ele>516.0</ele><time>2026-03-22T11:32:19.955Z</time></trkpt><trkpt lat="40.6826074" lon="14.9361507"><ele>516.0</ele><time>2026-03-22T11:32:20.948Z</time></trkpt><trkpt lat="40.6827099" lon="14.9361954"><ele>516.0</ele><time>2026-03-22T11:32:22.95Z</time></trkpt><trkpt lat="40.6828072" lon="14.9361696"><ele>516.0</ele><time>2026-03-22T11:32:23.951Z</time></trkpt><trkpt lat="40.6829284" lon="14.9360977"><ele>516.0</ele><time>2026-03-22T11:32:24.958Z</time></trkpt><trkpt lat="40.6830419" lon="14.9360151"><ele>517.0</ele><time>2026-03-22T11:32:25.949Z</time></trkpt><trkpt lat="40.6831451" lon="14.9359197"><ele>518.0</ele><time>2026-03-22T11:32:26.957Z</time></trkpt><trkpt lat="40.6832332" lon="14.93582"><ele>519.0</ele><time>2026-03-22T11:32:27.958Z</time></trkpt><trkpt lat="40.6832946" lon="14.9357542"><ele>520.0</ele><time>2026-03-22T11:32:28.957Z</time></trkpt><trkpt lat="40.6833889" lon="14.9356974"><ele>521.0</ele><time>2026-03-22T11:32:30.962Z</time></trkpt><trkpt lat="40.6833913" lon="14.9355824"><ele>519.5714285714286</ele><time>2026-03-22T11:32:32.954Z</time></trkpt><trkpt lat="40.6833868" lon="14.9354835"><ele>518.1428571428571</ele><time>2026-03-22T11:32:33.943Z</time></trkpt><trkpt lat="40.6834042" lon="14.9353906"><ele>516.7142857142858</ele><time>2026-03-22T11:32:34.954Z</time></trkpt><trkpt lat="40.6834192" lon="14.9353017"><ele>515.2857142857142</ele><time>2026-03-22T11:32:35.935Z</time></trkpt><trkpt lat="40.6834425" lon="14.9352024"><ele>513.8571428571429</ele><time>2026-03-22T11:32:36.957Z</time></trkpt><trkpt lat="40.6834715" lon="14.9351181"><ele>512.4285714285714</ele><time>2026-03-22T11:32:37.939Z</time></trkpt><trkpt lat="40.6835151" lon="14.935033"><ele>511.0</ele><time>2026-03-22T11:32:38.951Z</time></trkpt><trkpt lat="40.6835588" lon="14.9349641"><ele>503.1666666666667</ele><time>2026-03-22T11:32:39.948Z</time></trkpt><trkpt lat="40.6836081" lon="14.9349006"><ele>495.33333333333337</ele><time>2026-03-22T11:32:40.955Z</time></trkpt><trkpt lat="40.6836621" lon="14.9348249"><ele>487.5</ele><time>2026-03-22T11:32:41.958Z</time></trkpt><trkpt lat="40.6837015" lon="14.9347419"><ele>479.66666666666663</ele><time>2026-03-22T11:32:43.013Z</time></trkpt><trkpt lat="40.6837495" lon="14.9346701"><ele>471.8333333333333</ele><time>2026-03-22T11:32:43.957Z</time></trkpt><trkpt lat="40.6838344" lon="14.9346198"><ele>464.0</ele><time>2026-03-22T11:32:45.96Z</time></trkpt><trkpt lat="40.6839274" lon="14.9346522"><ele>463.99999999999994</ele><time>2026-03-22T11:32:47.955Z</time></trkpt><trkpt lat="40.6839802" lon="14.9345718"><ele>464.0</ele><time>2026-03-22T11:32:51.043Z</time></trkpt><trkpt lat="40.6839785" lon="14.9344421"><ele>464.0</ele><time>2026-03-22T11:32:52.964Z</time></trkpt><trkpt lat="40.6839475" lon="14.9343345"><ele>464.0</ele><time>2026-03-22T11:32:54.972Z</time></trkpt><trkpt lat="40.6839034" lon="14.9342417"><ele>463.99999999999994</ele><time>2026-03-22T11:32:56.955Z</time></trkpt><trkpt lat="40.6838436" lon="14.934181"><ele>464.0</ele><time>2026-03-22T11:33:00.029Z</time></trkpt><trkpt lat="40.6837742" lon="14.934119"><ele>461.79999999999995</ele><time>2026-03-22T11:33:02.961Z</time></trkpt><trkpt lat="40.6837483" lon="14.9340106"><ele>459.59999999999997</ele><time>2026-03-22T11:33:05.949Z</time></trkpt><trkpt lat="40.6838105" lon="14.9339296"><ele>457.4</ele><time>2026-03-22T11:33:07.968Z</time></trkpt><trkpt lat="40.6838636" lon="14.933821"><ele>455.2</ele><time>2026-03-22T11:33:09.962Z</time></trkpt><trkpt lat="40.6839275" lon="14.9337185"><ele>453.0</ele><time>2026-03-22T11:33:11.968Z</time></trkpt><trkpt lat="40.6840137" lon="14.9336396"><ele>453.0</ele><time>2026-03-22T11:33:14.033Z</time></trkpt><trkpt lat="40.6840705" lon="14.9335738"><ele>452.99999999999994</ele><time>2026-03-22T11:33:15.035Z</time></trkpt><trkpt lat="40.6841363" lon="14.9334815"><ele>452.99999999999994</ele><time>2026-03-22T11:33:15.953Z</time></trkpt><trkpt lat="40.6841986" lon="14.933372"><ele>453.0</ele><time>2026-03-22T11:33:16.954Z</time></trkpt><trkpt lat="40.6842719" lon="14.9332467"><ele>453.0</ele><time>2026-03-22T11:33:17.972Z</time></trkpt><trkpt lat="40.6843287" lon="14.9331277"><ele>453.0</ele><time>2026-03-22T11:33:18.959Z</time></trkpt><trkpt lat="40.6843659" lon="14.9330332"><ele>453.0</ele><time>2026-03-22T11:33:19.953Z</time></trkpt><trkpt lat="40.6843805" lon="14.9329223"><ele>453.0</ele><time>2026-03-22T11:33:20.956Z</time></trkpt><trkpt lat="40.6843755" lon="14.9328239"><ele>453.0</ele><time>2026-03-22T11:33:21.951Z</time></trkpt><trkpt lat="40.6843527" lon="14.9327204"><ele>453.0</ele><time>2026-03-22T11:33:22.951Z</time></trkpt><trkpt lat="40.6843444" lon="14.9325938"><ele>453.0</ele><time>2026-03-22T11:33:23.953Z</time></trkpt><trkpt lat="40.6843297" lon="14.9324817"><ele>453.0</ele><time>2026-03-22T11:33:24.953Z</time></trkpt><trkpt lat="40.684278" lon="14.9323587"><ele>452.99999999999994</ele><time>2026-03-22T11:33:25.966Z</time></trkpt><trkpt lat="40.6842121" lon="14.9322365"><ele>452.99999999999994</ele><time>2026-03-22T11:33:26.959Z</time></trkpt><trkpt lat="40.6841542" lon="14.932123"><ele>453.0</ele><time>2026-03-22T11:33:27.964Z</time></trkpt><trkpt lat="40.6841195" lon="14.9320183"><ele>453.0</ele><time>2026-03-22T11:33:30.059Z</time></trkpt><trkpt lat="40.6840783" lon="14.9318685"><ele>453.0</ele><time>2026-03-22T11:33:31.96Z</time></trkpt><trkpt lat="40.6841086" lon="14.9317407"><ele>452.99999999999994</ele><time>2026-03-22T11:33:32.955Z</time></trkpt><trkpt lat="40.6841443" lon="14.9316016"><ele>452.99999999999994</ele><time>2026-03-22T11:33:33.961Z</time></trkpt><trkpt lat="40.6841988" lon="14.9314814"><ele>453.0</ele><time>2026-03-22T11:33:34.952Z</time></trkpt><trkpt lat="40.6842473" lon="14.9313928"><ele>453.0</ele><time>2026-03-22T11:33:35.961Z</time></trkpt><trkpt lat="40.6842858" lon="14.9313082"><ele>454.1666666666667</ele><time>2026-03-22T11:33:36.981Z</time></trkpt><trkpt lat="40.6842925" lon="14.9312173"><ele>455.33333333333337</ele><time>2026-03-22T11:33:37.963Z</time></trkpt><trkpt lat="40.684272" lon="14.9311221"><ele>456.5</ele><time>2026-03-22T11:33:38.96Z</time></trkpt><trkpt lat="40.6842441" lon="14.9310418"><ele>457.6666666666667</ele><time>2026-03-22T11:33:39.959Z</time></trkpt><trkpt lat="40.6841279" lon="14.9310945"><ele>458.83333333333337</ele><time>2026-03-22T11:33:41.955Z</time></trkpt><trkpt lat="40.6840437" lon="14.9311762"><ele>460.0</ele><time>2026-03-22T11:33:42.945Z</time></trkpt><trkpt lat="40.6839653" lon="14.9312794"><ele>460.0</ele><time>2026-03-22T11:33:44.038Z</time></trkpt><trkpt lat="40.6839018" lon="14.9313778"><ele>460.0</ele><time>2026-03-22T11:33:45.028Z</time></trkpt><trkpt lat="40.6838636" lon="14.9314662"><ele>460.0</ele><time>2026-03-22T11:33:46.026Z</time></trkpt><trkpt lat="40.6838479" lon="14.9315634"><ele>460.0</ele><time>2026-03-22T11:33:46.95Z</time></trkpt><trkpt lat="40.6837977" lon="14.9317181"><ele>460.0</ele><time>2026-03-22T11:33:47.955Z</time></trkpt><trkpt lat="40.6837351" lon="14.9318923"><ele>458.83333333333337</ele><time>2026-03-22T11:33:48.956Z</time></trkpt><trkpt lat="40.6836975" lon="14.9320111"><ele>457.6666666666667</ele><time>2026-03-22T11:33:49.954Z</time></trkpt><trkpt lat="40.6836721" lon="14.9320895"><ele>456.5</ele><time>2026-03-22T11:33:50.953Z</time></trkpt><trkpt lat="40.6836626" lon="14.9321758"><ele>455.33333333333337</ele><time>2026-03-22T11:33:51.951Z</time></trkpt><trkpt lat="40.6836685" lon="14.9322813"><ele>454.1666666666667</ele><time>2026-03-22T11:33:52.952Z</time></trkpt><trkpt lat="40.6836848" lon="14.9324031"><ele>453.0</ele><time>2026-03-22T11:33:54.026Z</time></trkpt><trkpt lat="40.6836704" lon="14.932503"><ele>453.0</ele><time>2026-03-22T11:33:55.026Z</time></trkpt><trkpt lat="40.683638" lon="14.9326151"><ele>453.0</ele><time>2026-03-22T11:33:56.968Z</time></trkpt><trkpt lat="40.6836119" lon="14.9325005"><ele>453.0</ele><time>2026-03-22T11:33:59.959Z</time></trkpt><trkpt lat="40.6835603" lon="14.9324308"><ele>453.0</ele><time>2026-03-22T11:34:01.03Z</time></trkpt><trkpt lat="40.6835025" lon="14.932355"><ele>453.0</ele><time>2026-03-22T11:34:01.955Z</time></trkpt><trkpt lat="40.6834456" lon="14.932277"><ele>453.0</ele><time>2026-03-22T11:34:02.952Z</time></trkpt><trkpt lat="40.6833688" lon="14.9321684"><ele>466.25</ele><time>2026-03-22T11:34:03.955Z</time></trkpt><trkpt lat="40.6832786" lon="14.9320453"><ele>479.5</ele><time>2026-03-22T11:34:04.952Z</time></trkpt><trkpt lat="40.6832184" lon="14.9319262"><ele>492.75</ele><time>2026-03-22T11:34:05.955Z</time></trkpt><trkpt lat="40.6832255" lon="14.931835"><ele>506.0</ele><time>2026-03-22T11:34:06.95Z</time></trkpt><trkpt lat="40.6832369" lon="14.9316371"><ele>507.16666666666663</ele><time>2026-03-22T11:34:08.951Z</time></trkpt><trkpt lat="40.6833058" lon="14.931499"><ele>508.3333333333333</ele><time>2026-03-22T11:34:09.952Z</time></trkpt><trkpt lat="40.6833355" lon="14.9314089"><ele>509.5</ele><time>2026-03-22T11:34:11.03Z</time></trkpt><trkpt lat="40.6833431" lon="14.9313058"><ele>510.66666666666663</ele><time>2026-03-22T11:34:11.953Z</time></trkpt><trkpt lat="40.6833492" lon="14.9312086"><ele>511.8333333333333</ele><time>2026-03-22T11:34:12.96Z</time></trkpt><trkpt lat="40.6833148" lon="14.9311186"><ele>513.0</ele><time>2026-03-22T11:34:13.961Z</time></trkpt><trkpt lat="40.6832697" lon="14.9310111"><ele>513.0</ele><time>2026-03-22T11:34:14.96Z</time></trkpt><trkpt lat="40.6832142" lon="14.9309134"><ele>513.0</ele><time>2026-03-22T11:34:15.958Z</time></trkpt><trkpt lat="40.6831485" lon="14.9308388"><ele>513.0</ele><time>2026-03-22T11:34:16.958Z</time></trkpt><trkpt lat="40.6830829" lon="14.9307648"><ele>513.0</ele><time>2026-03-22T11:34:18.037Z</time></trkpt><trkpt lat="40.6830214" lon="14.930688"><ele>513.0</ele><time>2026-03-22T11:34:18.968Z</time></trkpt><trkpt lat="40.6829411" lon="14.9306234"><ele>513.0</ele><time>2026-03-22T11:34:19.957Z</time></trkpt><trkpt lat="40.6828627" lon="14.9305824"><ele>511.3333333333333</ele><time>2026-03-22T11:34:21.048Z</time></trkpt><trkpt lat="40.6827809" lon="14.9305571"><ele>509.66666666666663</ele><time>2026-03-22T11:34:21.963Z</time></trkpt><trkpt lat="40.6827169" lon="14.930523"><ele>508.0</ele><time>2026-03-22T11:34:23.032Z</time></trkpt><trkpt lat="40.6826396" lon="14.9305187"><ele>506.3333333333333</ele><time>2026-03-22T11:34:24.958Z</time></trkpt><trkpt lat="40.6827068" lon="14.9306191"><ele>504.66666666666663</ele><time>2026-03-22T11:34:28.03Z</time></trkpt><trkpt lat="40.6827569" lon="14.9307034"><ele>503.0</ele><time>2026-03-22T11:34:29.026Z</time></trkpt><trkpt lat="40.6828179" lon="14.9308101"><ele>505.0</ele><time>2026-03-22T11:34:30.036Z</time></trkpt><trkpt lat="40.6828884" lon="14.9309425"><ele>506.99999999999994</ele><time>2026-03-22T11:34:30.973Z</time></trkpt><trkpt lat="40.6829481" lon="14.9310722"><ele>508.99999999999994</ele><time>2026-03-22T11:34:31.971Z</time></trkpt><trkpt lat="40.6829853" lon="14.9311799"><ele>511.0</ele><time>2026-03-22T11:34:32.969Z</time></trkpt><trkpt lat="40.6829894" lon="14.9312921"><ele>513.0</ele><time>2026-03-22T11:34:33.971Z</time></trkpt><trkpt lat="40.6829809" lon="14.9314133"><ele>513.0</ele><time>2026-03-22T11:34:34.971Z</time></trkpt><trkpt lat="40.6829661" lon="14.9315131"><ele>513.0</ele><time>2026-03-22T11:34:35.968Z</time></trkpt><trkpt lat="40.6829452" lon="14.9316137"><ele>513.0</ele><time>2026-03-22T11:34:36.972Z</time></trkpt><trkpt lat="40.6829216" lon="14.9317282"><ele>513.0</ele><time>2026-03-22T11:34:37.969Z</time></trkpt><trkpt lat="40.682903" lon="14.9318884"><ele>513.0</ele><time>2026-03-22T11:34:38.993Z</time></trkpt><trkpt lat="40.6829086" lon="14.9320525"><ele>513.6666666666666</ele><time>2026-03-22T11:34:39.963Z</time></trkpt><trkpt lat="40.682932" lon="14.9321746"><ele>514.3333333333334</ele><time>2026-03-22T11:34:40.974Z</time></trkpt><trkpt lat="40.6829088" lon="14.9322643"><ele>515.0</ele><time>2026-03-22T11:34:41.975Z</time></trkpt><trkpt lat="40.6828733" lon="14.9323672"><ele>515.6666666666667</ele><time>2026-03-22T11:34:42.976Z</time></trkpt><trkpt lat="40.6828217" lon="14.9324538"><ele>516.3333333333334</ele><time>2026-03-22T11:34:43.965Z</time></trkpt><trkpt lat="40.6827464" lon="14.93253"><ele>517.0</ele><time>2026-03-22T11:34:44.965Z</time></trkpt><trkpt lat="40.6826522" lon="14.9325964"><ele>517.0</ele><time>2026-03-22T11:34:45.968Z</time></trkpt><trkpt lat="40.682543" lon="14.9326808"><ele>517.0</ele><time>2026-03-22T11:34:46.971Z</time></trkpt><trkpt lat="40.6824342" lon="14.9327995"><ele>517.0</ele><time>2026-03-22T11:34:47.984Z</time></trkpt><trkpt lat="40.6823377" lon="14.9329439"><ele>517.0</ele><time>2026-03-22T11:34:48.961Z</time></trkpt><trkpt lat="40.6822605" lon="14.9330653"><ele>517.0</ele><time>2026-03-22T11:34:49.978Z</time></trkpt><trkpt lat="40.6821765" lon="14.9331853"><ele>517.0</ele><time>2026-03-22T11:34:50.972Z</time></trkpt><trkpt lat="40.6821017" lon="14.9332966"><ele>517.0</ele><time>2026-03-22T11:34:51.968Z</time></trkpt><trkpt lat="40.6820172" lon="14.9333926"><ele>517.0</ele><time>2026-03-22T11:34:52.966Z</time></trkpt><trkpt lat="40.6819281" lon="14.933517"><ele>522.0</ele><time>2026-03-22T11:34:53.97Z</time></trkpt><trkpt lat="40.6818446" lon="14.9336654"><ele>527.0</ele><time>2026-03-22T11:34:55.027Z</time></trkpt><trkpt lat="40.6817592" lon="14.933819"><ele>532.0</ele><time>2026-03-22T11:34:56.037Z</time></trkpt><trkpt lat="40.681704" lon="14.9339588"><ele>537.0</ele><time>2026-03-22T11:34:56.958Z</time></trkpt><trkpt lat="40.6817026" lon="14.9340849"><ele>537.0</ele><time>2026-03-22T11:34:57.958Z</time></trkpt><trkpt lat="40.6816914" lon="14.9342059"><ele>537.0</ele><time>2026-03-22T11:34:58.952Z</time></trkpt><trkpt lat="40.6817031" lon="14.9343467"><ele>537.0</ele><time>2026-03-22T11:35:00.037Z</time></trkpt><trkpt lat="40.6817081" lon="14.9344727"><ele>537.0</ele><time>2026-03-22T11:35:01.035Z</time></trkpt><trkpt lat="40.6817111" lon="14.9345863"><ele>537.0</ele><time>2026-03-22T11:35:02.971Z</time></trkpt><trkpt lat="40.6816986" lon="14.9344529"><ele>537.0</ele><time>2026-03-22T11:35:05.96Z</time></trkpt><trkpt lat="40.6816567" lon="14.9343827"><ele>537.0</ele><time>2026-03-22T11:35:06.963Z</time></trkpt><trkpt lat="40.6815991" lon="14.9343216"><ele>537.0</ele><time>2026-03-22T11:35:07.967Z</time></trkpt><trkpt lat="40.6815335" lon="14.9341749"><ele>537.0</ele><time>2026-03-22T11:35:09.972Z</time></trkpt><trkpt lat="40.6815338" lon="14.9340237"><ele>537.0</ele><time>2026-03-22T11:35:10.968Z</time></trkpt><trkpt lat="40.6815338" lon="14.9338614"><ele>537.0</ele><time>2026-03-22T11:35:11.974Z</time></trkpt><trkpt lat="40.6815585" lon="14.9336801"><ele>537.0</ele><time>2026-03-22T11:35:12.968Z</time></trkpt><trkpt lat="40.6816041" lon="14.9335039"><ele>537.0</ele><time>2026-03-22T11:35:14.048Z</time></trkpt><trkpt lat="40.6816625" lon="14.9333376"><ele>537.0</ele><time>2026-03-22T11:35:14.965Z</time></trkpt><trkpt lat="40.6817231" lon="14.9331953"><ele>540.25</ele><time>2026-03-22T11:35:16.033Z</time></trkpt><trkpt lat="40.6817839" lon="14.9330509"><ele>543.5</ele><time>2026-03-22T11:35:16.96Z</time></trkpt><trkpt lat="40.6818437" lon="14.9329088"><ele>546.75</ele><time>2026-03-22T11:35:17.964Z</time></trkpt><trkpt lat="40.6818956" lon="14.9327898"><ele>550.0</ele><time>2026-03-22T11:35:18.955Z</time></trkpt><trkpt lat="40.6819443" lon="14.9326414"><ele>547.75</ele><time>2026-03-22T11:35:19.95Z</time></trkpt><trkpt lat="40.681995" lon="14.9324649"><ele>545.5</ele><time>2026-03-22T11:35:20.962Z</time></trkpt><trkpt lat="40.6820511" lon="14.9322965"><ele>543.25</ele><time>2026-03-22T11:35:21.953Z</time></trkpt><trkpt lat="40.6821027" lon="14.9321629"><ele>541.0</ele><time>2026-03-22T11:35:23.043Z</time></trkpt><trkpt lat="40.6821702" lon="14.9320658"><ele>541.0</ele><time>2026-03-22T11:35:23.951Z</time></trkpt><trkpt lat="40.6822277" lon="14.9320029"><ele>541.0</ele><time>2026-03-22T11:35:25.039Z</time></trkpt><trkpt lat="40.6822798" lon="14.9319303"><ele>541.0</ele><time>2026-03-22T11:35:26.032Z</time></trkpt><trkpt lat="40.682319" lon="14.9318305"><ele>541.0</ele><time>2026-03-22T11:35:26.963Z</time></trkpt><trkpt lat="40.6823396" lon="14.9317112"><ele>541.0</ele><time>2026-03-22T11:35:27.964Z</time></trkpt><trkpt lat="40.6823407" lon="14.9315959"><ele>541.0</ele><time>2026-03-22T11:35:28.965Z</time></trkpt><trkpt lat="40.6823419" lon="14.9314941"><ele>542.5</ele><time>2026-03-22T11:35:30.042Z</time></trkpt><trkpt lat="40.6823166" lon="14.9313102"><ele>544.0</ele><time>2026-03-22T11:35:31.959Z</time></trkpt><trkpt lat="40.6822837" lon="14.931215"><ele>545.5</ele><time>2026-03-22T11:35:32.958Z</time></trkpt><trkpt lat="40.6822455" lon="14.9311367"><ele>547.0</ele><time>2026-03-22T11:35:33.946Z</time></trkpt><trkpt lat="40.6822021" lon="14.931066"><ele>548.5</ele><time>2026-03-22T11:35:35.046Z</time></trkpt><trkpt lat="40.6821493" lon="14.9309901"><ele>550.0</ele><time>2026-03-22T11:35:35.95Z</time></trkpt><trkpt lat="40.6820984" lon="14.9309277"><ele>551.0</ele><time>2026-03-22T11:35:36.949Z</time></trkpt><trkpt lat="40.6819927" lon="14.9308358"><ele>552.0</ele><time>2026-03-22T11:35:38.969Z</time></trkpt><trkpt lat="40.6819462" lon="14.9307734"><ele>553.0</ele><time>2026-03-22T11:35:39.966Z</time></trkpt><trkpt lat="40.6818969" lon="14.9306979"><ele>554.0</ele><time>2026-03-22T11:35:40.962Z</time></trkpt><trkpt lat="40.6818503" lon="14.9306183"><ele>555.0</ele><time>2026-03-22T11:35:41.952Z</time></trkpt><trkpt lat="40.6818089" lon="14.930541"><ele>556.0</ele><time>2026-03-22T11:35:42.955Z</time></trkpt><trkpt lat="40.6817685" lon="14.9304424"><ele>556.0</ele><time>2026-03-22T11:35:44.037Z</time></trkpt><trkpt lat="40.6817242" lon="14.93034"><ele>556.0</ele><time>2026-03-22T11:35:44.945Z</time></trkpt><trkpt lat="40.6816734" lon="14.9302394"><ele>556.0</ele><time>2026-03-22T11:35:45.964Z</time></trkpt><trkpt lat="40.681607" lon="14.9301423"><ele>556.0</ele><time>2026-03-22T11:35:46.957Z</time></trkpt><trkpt lat="40.6815296" lon="14.9300442"><ele>556.0</ele><time>2026-03-22T11:35:47.963Z</time></trkpt><trkpt lat="40.6814412" lon="14.9299402"><ele>550.75</ele><time>2026-03-22T11:35:48.943Z</time></trkpt><trkpt lat="40.6813412" lon="14.9298107"><ele>545.5</ele><time>2026-03-22T11:35:49.954Z</time></trkpt><trkpt lat="40.6812541" lon="14.929679"><ele>540.25</ele><time>2026-03-22T11:35:51.032Z</time></trkpt><trkpt lat="40.6811801" lon="14.9295604"><ele>535.0</ele><time>2026-03-22T11:35:51.952Z</time></trkpt><trkpt lat="40.6811189" lon="14.9294574"><ele>536.3333333333334</ele><time>2026-03-22T11:35:52.956Z</time></trkpt><trkpt lat="40.6810755" lon="14.929385"><ele>537.6666666666667</ele><time>2026-03-22T11:35:53.961Z</time></trkpt><trkpt lat="40.6810162" lon="14.9292496"><ele>539.0</ele><time>2026-03-22T11:35:55.956Z</time></trkpt><trkpt lat="40.6809728" lon="14.929183"><ele>540.3333333333334</ele><time>2026-03-22T11:35:56.956Z</time></trkpt><trkpt lat="40.6809488" lon="14.929105"><ele>541.6666666666666</ele><time>2026-03-22T11:35:57.955Z</time></trkpt><trkpt lat="40.6809401" lon="14.9290196"><ele>543.0</ele><time>2026-03-22T11:35:59.041Z</time></trkpt><trkpt lat="40.680941" lon="14.9288832"><ele>543.0</ele><time>2026-03-22T11:36:01.044Z</time></trkpt><trkpt lat="40.6809239" lon="14.928791"><ele>543.0</ele><time>2026-03-22T11:36:01.957Z</time></trkpt><trkpt lat="40.6808895" lon="14.9286858"><ele>543.0</ele><time>2026-03-22T11:36:02.968Z</time></trkpt><trkpt lat="40.6808684" lon="14.9285651"><ele>543.0</ele><time>2026-03-22T11:36:03.957Z</time></trkpt><trkpt lat="40.6808478" lon="14.9284436"><ele>543.0</ele><time>2026-03-22T11:36:04.942Z</time></trkpt><trkpt lat="40.6808281" lon="14.9283242"><ele>543.0</ele><time>2026-03-22T11:36:05.959Z</time></trkpt><trkpt lat="40.6808231" lon="14.9282369"><ele>540.8333333333334</ele><time>2026-03-22T11:36:06.957Z</time></trkpt><trkpt lat="40.6808219" lon="14.9281524"><ele>538.6666666666666</ele><time>2026-03-22T11:36:07.952Z</time></trkpt><trkpt lat="40.6808158" lon="14.9280646"><ele>536.5</ele><time>2026-03-22T11:36:09.041Z</time></trkpt><trkpt lat="40.6808168" lon="14.9279576"><ele>534.3333333333333</ele><time>2026-03-22T11:36:10.032Z</time></trkpt><trkpt lat="40.680825" lon="14.927838"><ele>532.1666666666666</ele><time>2026-03-22T11:36:10.946Z</time></trkpt><trkpt lat="40.6808384" lon="14.9277081"><ele>530.0</ele><time>2026-03-22T11:36:11.958Z</time></trkpt><trkpt lat="40.6808643" lon="14.9275842"><ele>529.0</ele><time>2026-03-22T11:36:12.953Z</time></trkpt><trkpt lat="40.6809013" lon="14.9274739"><ele>528.0</ele><time>2026-03-22T11:36:14.037Z</time></trkpt><trkpt lat="40.6809327" lon="14.927388"><ele>527.0</ele><time>2026-03-22T11:36:15.041Z</time></trkpt><trkpt lat="40.680936" lon="14.9272841"><ele>526.0</ele><time>2026-03-22T11:36:17.968Z</time></trkpt><trkpt lat="40.6808649" lon="14.9273071"><ele>525.0</ele><time>2026-03-22T11:36:21.064Z</time></trkpt><trkpt lat="40.6808125" lon="14.9274167"><ele>524.0</ele><time>2026-03-22T11:36:23.981Z</time></trkpt><trkpt lat="40.6807765" lon="14.9275096"><ele>525.0</ele><time>2026-03-22T11:36:25.974Z</time></trkpt><trkpt lat="40.6807391" lon="14.9276355"><ele>526.0</ele><time>2026-03-22T11:36:27.977Z</time></trkpt><trkpt lat="40.6807235" lon="14.9277327"><ele>527.0</ele><time>2026-03-22T11:36:29.085Z</time></trkpt><trkpt lat="40.680726" lon="14.9278655"><ele>528.0</ele><time>2026-03-22T11:36:30.032Z</time></trkpt><trkpt lat="40.6807314" lon="14.9279849"><ele>529.0</ele><time>2026-03-22T11:36:31.032Z</time></trkpt><trkpt lat="40.6807313" lon="14.9280767"><ele>530.0</ele><time>2026-03-22T11:36:31.96Z</time></trkpt><trkpt lat="40.680723" lon="14.9281657"><ele>530.0</ele><time>2026-03-22T11:36:32.958Z</time></trkpt><trkpt lat="40.680686" lon="14.9283378"><ele>530.0</ele><time>2026-03-22T11:36:34.957Z</time></trkpt><trkpt lat="40.680675" lon="14.9284252"><ele>530.0</ele><time>2026-03-22T11:36:35.954Z</time></trkpt><trkpt lat="40.6806684" lon="14.9285224"><ele>530.0</ele><time>2026-03-22T11:36:36.966Z</time></trkpt><trkpt lat="40.6806668" lon="14.9286151"><ele>530.0</ele><time>2026-03-22T11:36:38.041Z</time></trkpt><trkpt lat="40.6806797" lon="14.9286975"><ele>530.0</ele><time>2026-03-22T11:36:39.026Z</time></trkpt><trkpt lat="40.6807335" lon="14.9288179"><ele>532.6</ele><time>2026-03-22T11:36:40.951Z</time></trkpt><trkpt lat="40.6807955" lon="14.9288853"><ele>535.2</ele><time>2026-03-22T11:36:42.951Z</time></trkpt><trkpt lat="40.6808347" lon="14.9290305"><ele>537.8</ele><time>2026-03-22T11:36:44.956Z</time></trkpt><trkpt lat="40.6808345" lon="14.9291435"><ele>540.4</ele><time>2026-03-22T11:36:46.957Z</time></trkpt><trkpt lat="40.6807959" lon="14.9292589"><ele>543.0</ele><time>2026-03-22T11:36:53.953Z</time></trkpt><trkpt lat="40.680757" lon="14.9293916"><ele>546.0</ele><time>2026-03-22T11:36:55.975Z</time></trkpt><trkpt lat="40.6807792" lon="14.9294708"><ele>549.0</ele><time>2026-03-22T11:36:58.962Z</time></trkpt><trkpt lat="40.6808028" lon="14.9295573"><ele>552.0</ele><time>2026-03-22T11:37:00.953Z</time></trkpt><trkpt lat="40.680819" lon="14.9296456"><ele>555.0</ele><time>2026-03-22T11:37:01.963Z</time></trkpt><trkpt lat="40.6808286" lon="14.9297358"><ele>558.0</ele><time>2026-03-22T11:37:02.956Z</time></trkpt><trkpt lat="40.6808102" lon="14.9298821"><ele>561.0</ele><time>2026-03-22T11:37:04.958Z</time></trkpt><trkpt lat="40.6807511" lon="14.9299977"><ele>564.6</ele><time>2026-03-22T11:37:06.965Z</time></trkpt><trkpt lat="40.6807289" lon="14.9301364"><ele>568.2</ele><time>2026-03-22T11:37:08.944Z</time></trkpt><trkpt lat="40.6807078" lon="14.9302844"><ele>571.8</ele><time>2026-03-22T11:37:10.955Z</time></trkpt><trkpt lat="40.6806988" lon="14.9303773"><ele>575.4</ele><time>2026-03-22T11:37:11.96Z</time></trkpt><trkpt lat="40.680698" lon="14.930471"><ele>579.0</ele><time>2026-03-22T11:37:12.959Z</time></trkpt><trkpt lat="40.6807268" lon="14.9306016"><ele>579.0</ele><time>2026-03-22T11:37:15.032Z</time></trkpt><trkpt lat="40.6807624" lon="14.9307374"><ele>579.0</ele><time>2026-03-22T11:37:16.991Z</time></trkpt><trkpt lat="40.6807446" lon="14.930894"><ele>579.0</ele><time>2026-03-22T11:37:18.972Z</time></trkpt><trkpt lat="40.6807013" lon="14.9310407"><ele>579.0</ele><time>2026-03-22T11:37:20.972Z</time></trkpt><trkpt lat="40.680663" lon="14.9311885"><ele>578.8333333333334</ele><time>2026-03-22T11:37:23.023Z</time></trkpt><trkpt lat="40.6806443" lon="14.9312781"><ele>578.6666666666666</ele><time>2026-03-22T11:37:24.028Z</time></trkpt><trkpt lat="40.6806216" lon="14.9313715"><ele>578.5</ele><time>2026-03-22T11:37:25.033Z</time></trkpt><trkpt lat="40.6806083" lon="14.931461"><ele>578.3333333333333</ele><time>2026-03-22T11:37:25.979Z</time></trkpt><trkpt lat="40.6806407" lon="14.9315454"><ele>578.1666666666666</ele><time>2026-03-22T11:37:26.958Z</time></trkpt><trkpt lat="40.6807193" lon="14.9316441"><ele>578.0</ele><time>2026-03-22T11:37:27.965Z</time></trkpt><trkpt lat="40.6807974" lon="14.9317557"><ele>578.0</ele><time>2026-03-22T11:37:28.976Z</time></trkpt><trkpt lat="40.6808758" lon="14.9318892"><ele>578.0</ele><time>2026-03-22T11:37:30.032Z</time></trkpt><trkpt lat="40.6809552" lon="14.9320308"><ele>578.0</ele><time>2026-03-22T11:37:31.032Z</time></trkpt><trkpt lat="40.6810089" lon="14.9321393"><ele>578.0</ele><time>2026-03-22T11:37:31.961Z</time></trkpt><trkpt lat="40.6810639" lon="14.9322085"><ele>578.0</ele><time>2026-03-22T11:37:32.956Z</time></trkpt><trkpt lat="40.6811336" lon="14.9322587"><ele>577.0</ele><time>2026-03-22T11:37:33.95Z</time></trkpt><trkpt lat="40.6812049" lon="14.9323006"><ele>576.0</ele><time>2026-03-22T11:37:35.036Z</time></trkpt><trkpt lat="40.6812812" lon="14.9323686"><ele>575.0</ele><time>2026-03-22T11:37:36.942Z</time></trkpt><trkpt lat="40.6812542" lon="14.9324519"><ele>574.0</ele><time>2026-03-22T11:37:41.049Z</time></trkpt><trkpt lat="40.6812644" lon="14.9325509"><ele>573.0</ele><time>2026-03-22T11:37:43.962Z</time></trkpt><trkpt lat="40.6812575" lon="14.9326437"><ele>572.0</ele><time>2026-03-22T11:37:45.969Z</time></trkpt><trkpt lat="40.6812607" lon="14.9327534"><ele>568.3333333333333</ele><time>2026-03-22T11:37:48.983Z</time></trkpt><trkpt lat="40.6812491" lon="14.9328596"><ele>564.6666666666666</ele><time>2026-03-22T11:37:51.951Z</time></trkpt><trkpt lat="40.6812368" lon="14.9329588"><ele>561.0</ele><time>2026-03-22T11:37:53.956Z</time></trkpt><trkpt lat="40.6812096" lon="14.9330415"><ele>557.3333333333334</ele><time>2026-03-22T11:37:55.956Z</time></trkpt><trkpt lat="40.6811999" lon="14.9331658"><ele>553.6666666666667</ele><time>2026-03-22T11:37:58.96Z</time></trkpt><trkpt lat="40.6811993" lon="14.9332776"><ele>550.0</ele><time>2026-03-22T11:38:01.048Z</time></trkpt><trkpt lat="40.6811997" lon="14.9333757"><ele>547.4</ele><time>2026-03-22T11:38:01.979Z</time></trkpt><trkpt lat="40.6811963" lon="14.9335128"><ele>544.8</ele><time>2026-03-22T11:38:03.979Z</time></trkpt><trkpt lat="40.6811847" lon="14.9336247"><ele>542.2</ele><time>2026-03-22T11:38:05.981Z</time></trkpt><trkpt lat="40.6811919" lon="14.9337683"><ele>539.6</ele><time>2026-03-22T11:38:07.967Z</time></trkpt><trkpt lat="40.6812179" lon="14.933902"><ele>537.0</ele><time>2026-03-22T11:38:10.063Z</time></trkpt><trkpt lat="40.6813129" lon="14.9340272"><ele>537.0</ele><time>2026-03-22T11:38:11.983Z</time></trkpt><trkpt lat="40.6813527" lon="14.9341026"><ele>537.0</ele><time>2026-03-22T11:38:12.978Z</time></trkpt><trkpt lat="40.6814028" lon="14.9342398"><ele>537.0</ele><time>2026-03-22T11:38:14.97Z</time></trkpt><trkpt lat="40.6814955" lon="14.9343811"><ele>537.0</ele><time>2026-03-22T11:38:16.974Z</time></trkpt><trkpt lat="40.6815496" lon="14.9344596"><ele>537.0</ele><time>2026-03-22T11:38:17.977Z</time></trkpt><trkpt lat="40.6816064" lon="14.9345681"><ele>534.8000000000001</ele><time>2026-03-22T11:38:18.971Z</time></trkpt><trkpt lat="40.6816626" lon="14.9346913"><ele>532.6</ele><time>2026-03-22T11:38:20.024Z</time></trkpt><trkpt lat="40.6817052" lon="14.9347899"><ele>530.4000000000001</ele><time>2026-03-22T11:38:21.031Z</time></trkpt><trkpt lat="40.681751" lon="14.9349272"><ele>528.2</ele><time>2026-03-22T11:38:22.973Z</time></trkpt><trkpt lat="40.6817935" lon="14.9350433"><ele>526.0</ele><time>2026-03-22T11:38:24.975Z</time></trkpt><trkpt lat="40.6818357" lon="14.9351691"><ele>524.0</ele><time>2026-03-22T11:38:26.971Z</time></trkpt><trkpt lat="40.6818579" lon="14.9352602"><ele>522.0</ele><time>2026-03-22T11:38:27.974Z</time></trkpt><trkpt lat="40.6818927" lon="14.9353585"><ele>520.0</ele><time>2026-03-22T11:38:29.028Z</time></trkpt><trkpt lat="40.6819403" lon="14.9354626"><ele>518.0</ele><time>2026-03-22T11:38:29.954Z</time></trkpt><trkpt lat="40.682013" lon="14.9355735"><ele>516.0</ele><time>2026-03-22T11:38:30.976Z</time></trkpt><trkpt lat="40.6820875" lon="14.9356664"><ele>516.0</ele><time>2026-03-22T11:38:31.956Z</time></trkpt><trkpt lat="40.6821552" lon="14.9357201"><ele>516.0</ele><time>2026-03-22T11:38:32.958Z</time></trkpt><trkpt lat="40.6822329" lon="14.935762"><ele>516.0</ele><time>2026-03-22T11:38:33.952Z</time></trkpt><trkpt lat="40.6823209" lon="14.9358394"><ele>516.0</ele><time>2026-03-22T11:38:34.972Z</time></trkpt><trkpt lat="40.682412" lon="14.9359292"><ele>516.0</ele><time>2026-03-22T11:38:36.023Z</time></trkpt><trkpt lat="40.6824984" lon="14.9360407"><ele>516.0</ele><time>2026-03-22T11:38:36.971Z</time></trkpt><trkpt lat="40.6825694" lon="14.9361381"><ele>516.0</ele><time>2026-03-22T11:38:37.976Z</time></trkpt><trkpt lat="40.6826341" lon="14.9361923"><ele>516.0</ele><time>2026-03-22T11:38:39.018Z</time></trkpt><trkpt lat="40.6827413" lon="14.9361979"><ele>516.0</ele><time>2026-03-22T11:38:41.032Z</time></trkpt><trkpt lat="40.682809" lon="14.9362098"><ele>516.0</ele><time>2026-03-22T11:47:16.967Z</time></trkpt><trkpt lat="40.6827163" lon="14.9361832"><ele>516.0</ele><time>2026-03-22T11:47:23.969Z</time></trkpt><trkpt lat="40.6826445" lon="14.9361794"><ele>516.0</ele><time>2026-03-22T11:47:24.968Z</time></trkpt><trkpt lat="40.6825535" lon="14.936129"><ele>516.0</ele><time>2026-03-22T11:47:27.966Z</time></trkpt><trkpt lat="40.6824647" lon="14.9360128"><ele>516.0</ele><time>2026-03-22T11:47:29.968Z</time></trkpt><trkpt lat="40.6824101" lon="14.9359366"><ele>516.0</ele><time>2026-03-22T11:47:30.969Z</time></trkpt><trkpt lat="40.682351" lon="14.9358568"><ele>516.0</ele><time>2026-03-22T11:47:31.962Z</time></trkpt><trkpt lat="40.6822904" lon="14.9357746"><ele>516.0</ele><time>2026-03-22T11:47:32.959Z</time></trkpt><trkpt lat="40.6822291" lon="14.9356736"><ele>516.0</ele><time>2026-03-22T11:47:33.959Z</time></trkpt><trkpt lat="40.6821599" lon="14.9355609"><ele>516.0</ele><time>2026-03-22T11:47:34.96Z</time></trkpt><trkpt lat="40.68207" lon="14.9354169"><ele>516.0</ele><time>2026-03-22T11:47:35.966Z</time></trkpt><trkpt lat="40.6819783" lon="14.9352622"><ele>514.4</ele><time>2026-03-22T11:47:36.969Z</time></trkpt><trkpt lat="40.6819132" lon="14.9351264"><ele>512.8</ele><time>2026-03-22T11:47:37.967Z</time></trkpt><trkpt lat="40.6818763" lon="14.9349943"><ele>511.19999999999993</ele><time>2026-03-22T11:47:38.961Z</time></trkpt><trkpt lat="40.6818369" lon="14.9348718"><ele>509.59999999999997</ele><time>2026-03-22T11:47:40.029Z</time></trkpt><trkpt lat="40.6817947" lon="14.9347868"><ele>508.0</ele><time>2026-03-22T11:47:40.947Z</time></trkpt><trkpt lat="40.6817568" lon="14.93472"><ele>511.00000000000006</ele><time>2026-03-22T11:47:41.953Z</time></trkpt><trkpt lat="40.6817388" lon="14.9346207"><ele>514.0</ele><time>2026-03-22T11:47:43.949Z</time></trkpt><trkpt lat="40.6817367" lon="14.9344999"><ele>517.0</ele><time>2026-03-22T11:47:45.949Z</time></trkpt><trkpt lat="40.6817357" lon="14.9344043"><ele>520.0</ele><time>2026-03-22T11:47:46.954Z</time></trkpt><trkpt lat="40.6817343" lon="14.9343029"><ele>523.0</ele><time>2026-03-22T11:47:48.035Z</time></trkpt><trkpt lat="40.6817306" lon="14.9341978"><ele>526.0</ele><time>2026-03-22T11:47:49.033Z</time></trkpt><trkpt lat="40.6817242" lon="14.9340961"><ele>527.8333333333334</ele><time>2026-03-22T11:47:49.949Z</time></trkpt><trkpt lat="40.681719" lon="14.9339944"><ele>529.6666666666667</ele><time>2026-03-22T11:47:50.952Z</time></trkpt><trkpt lat="40.6817352" lon="14.9339084"><ele>531.5</ele><time>2026-03-22T11:47:51.958Z</time></trkpt><trkpt lat="40.6817576" lon="14.9338048"><ele>533.3333333333334</ele><time>2026-03-22T11:47:52.955Z</time></trkpt><trkpt lat="40.6817825" lon="14.9337028"><ele>535.1666666666666</ele><time>2026-03-22T11:47:53.952Z</time></trkpt><trkpt lat="40.6818296" lon="14.9335831"><ele>537.0</ele><time>2026-03-22T11:47:54.953Z</time></trkpt><trkpt lat="40.6818936" lon="14.9334695"><ele>532.0</ele><time>2026-03-22T11:47:55.973Z</time></trkpt><trkpt lat="40.6819768" lon="14.9333704"><ele>527.0</ele><time>2026-03-22T11:47:56.957Z</time></trkpt><trkpt lat="40.6820641" lon="14.933273"><ele>522.0</ele><time>2026-03-22T11:47:57.968Z</time></trkpt><trkpt lat="40.6821456" lon="14.93316"><ele>517.0</ele><time>2026-03-22T11:47:59.031Z</time></trkpt><trkpt lat="40.6822181" lon="14.9330508"><ele>517.0</ele><time>2026-03-22T11:47:59.962Z</time></trkpt><trkpt lat="40.6822872" lon="14.9329249"><ele>517.0</ele><time>2026-03-22T11:48:00.938Z</time></trkpt><trkpt lat="40.6823487" lon="14.9328144"><ele>517.0</ele><time>2026-03-22T11:48:01.949Z</time></trkpt><trkpt lat="40.6824137" lon="14.9327285"><ele>517.0</ele><time>2026-03-22T11:48:02.956Z</time></trkpt><trkpt lat="40.6824852" lon="14.932659"><ele>517.0</ele><time>2026-03-22T11:48:03.954Z</time></trkpt><trkpt lat="40.6825549" lon="14.9326028"><ele>515.1666666666667</ele><time>2026-03-22T11:48:05.029Z</time></trkpt><trkpt lat="40.6826381" lon="14.9325462"><ele>513.3333333333334</ele><time>2026-03-22T11:48:06.033Z</time></trkpt><trkpt lat="40.6827235" lon="14.9324772"><ele>511.5</ele><time>2026-03-22T11:48:06.958Z</time></trkpt><trkpt lat="40.6827835" lon="14.9324165"><ele>509.66666666666663</ele><time>2026-03-22T11:48:07.956Z</time></trkpt><trkpt lat="40.6828485" lon="14.9323724"><ele>507.8333333333333</ele><time>2026-03-22T11:48:09.07Z</time></trkpt><trkpt lat="40.6829118" lon="14.9323448"><ele>506.0</ele><time>2026-03-22T11:48:10.954Z</time></trkpt><trkpt lat="40.6829654" lon="14.9323949"><ele>505.99999999999994</ele><time>2026-03-22T11:48:16.957Z</time></trkpt><trkpt lat="40.683004" lon="14.9324932"><ele>506.0</ele><time>2026-03-22T11:48:20.952Z</time></trkpt><trkpt lat="40.6830025" lon="14.9325822"><ele>506.0</ele><time>2026-03-22T11:48:23.955Z</time></trkpt><trkpt lat="40.6829442" lon="14.9326398"><ele>506.0</ele><time>2026-03-22T11:48:25.949Z</time></trkpt><trkpt lat="40.6828768" lon="14.9326993"><ele>505.99999999999994</ele><time>2026-03-22T11:48:28.031Z</time></trkpt><trkpt lat="40.6828019" lon="14.932813"><ele>506.0</ele><time>2026-03-22T11:48:29.966Z</time></trkpt><trkpt lat="40.6827186" lon="14.9329279"><ele>506.4</ele><time>2026-03-22T11:48:31.953Z</time></trkpt><trkpt lat="40.6826641" lon="14.9330443"><ele>506.8</ele><time>2026-03-22T11:48:34.018Z</time></trkpt><trkpt lat="40.6826236" lon="14.9331226"><ele>507.19999999999993</ele><time>2026-03-22T11:48:34.958Z</time></trkpt><trkpt lat="40.6825388" lon="14.9333046"><ele>507.59999999999997</ele><time>2026-03-22T11:48:36.952Z</time></trkpt><trkpt lat="40.6824979" lon="14.9334065"><ele>508.0</ele><time>2026-03-22T11:48:37.941Z</time></trkpt><trkpt lat="40.6824588" lon="14.9335232"><ele>508.0</ele><time>2026-03-22T11:48:38.947Z</time></trkpt><trkpt lat="40.6824037" lon="14.9336517"><ele>507.99999999999994</ele><time>2026-03-22T11:48:39.945Z</time></trkpt><trkpt lat="40.6823475" lon="14.933791"><ele>507.99999999999994</ele><time>2026-03-22T11:48:41.035Z</time></trkpt><trkpt lat="40.6822986" lon="14.9339075"><ele>508.0</ele><time>2026-03-22T11:48:41.955Z</time></trkpt><trkpt lat="40.6822639" lon="14.9339961"><ele>508.0</ele><time>2026-03-22T11:48:43.034Z</time></trkpt><trkpt lat="40.6822379" lon="14.9340817"><ele>508.00000000000006</ele><time>2026-03-22T11:48:43.96Z</time></trkpt><trkpt lat="40.6822334" lon="14.9341742"><ele>508.0</ele><time>2026-03-22T11:48:44.953Z</time></trkpt><trkpt lat="40.682233" lon="14.9342852"><ele>508.0</ele><time>2026-03-22T11:48:45.965Z</time></trkpt><trkpt lat="40.6822301" lon="14.9343964"><ele>508.0</ele><time>2026-03-22T11:48:46.961Z</time></trkpt><trkpt lat="40.6822257" lon="14.9345153"><ele>508.00000000000006</ele><time>2026-03-22T11:48:47.966Z</time></trkpt><trkpt lat="40.682252" lon="14.9346238"><ele>508.0</ele><time>2026-03-22T11:48:49.026Z</time></trkpt><trkpt lat="40.6822921" lon="14.9347286"><ele>509.33333333333337</ele><time>2026-03-22T11:48:50.032Z</time></trkpt><trkpt lat="40.6823415" lon="14.9348268"><ele>510.6666666666667</ele><time>2026-03-22T11:48:51.033Z</time></trkpt><trkpt lat="40.6823841" lon="14.9349167"><ele>512.0</ele><time>2026-03-22T11:48:51.954Z</time></trkpt><trkpt lat="40.6824189" lon="14.9349964"><ele>513.3333333333334</ele><time>2026-03-22T11:48:53.018Z</time></trkpt><trkpt lat="40.6824396" lon="14.9351477"><ele>514.6666666666666</ele><time>2026-03-22T11:48:54.965Z</time></trkpt><trkpt lat="40.6824427" lon="14.9352404"><ele>516.0</ele><time>2026-03-22T11:48:55.966Z</time></trkpt><trkpt lat="40.6824503" lon="14.9353665"><ele>516.0</ele><time>2026-03-22T11:48:56.967Z</time></trkpt><trkpt lat="40.6824638" lon="14.9355109"><ele>516.0</ele><time>2026-03-22T11:48:57.979Z</time></trkpt><trkpt lat="40.6824699" lon="14.9356429"><ele>516.0</ele><time>2026-03-22T11:48:59.033Z</time></trkpt><trkpt lat="40.6824673" lon="14.935749"><ele>516.0</ele><time>2026-03-22T11:49:00.041Z</time></trkpt><trkpt lat="40.6824644" lon="14.9358406"><ele>516.0</ele><time>2026-03-22T11:49:00.973Z</time></trkpt><trkpt lat="40.6825175" lon="14.9359547"><ele>516.0</ele><time>2026-03-22T11:49:02.973Z</time></trkpt><trkpt lat="40.6825963" lon="14.9360208"><ele>516.0</ele><time>2026-03-22T11:49:04.964Z</time></trkpt><trkpt lat="40.6826338" lon="14.935922"><ele>516.0</ele><time>2026-03-22T11:49:06.965Z</time></trkpt><trkpt lat="40.6826427" lon="14.9358265"><ele>516.0</ele><time>2026-03-22T11:49:07.966Z</time></trkpt><trkpt lat="40.6826463" lon="14.9357259"><ele>516.0</ele><time>2026-03-22T11:49:09.05Z</time></trkpt><trkpt lat="40.6826556" lon="14.9356338"><ele>516.0</ele><time>2026-03-22T11:49:09.969Z</time></trkpt><trkpt lat="40.6826679" lon="14.9355448"><ele>516.0</ele><time>2026-03-22T11:49:10.958Z</time></trkpt><trkpt lat="40.6826877" lon="14.9354639"><ele>516.0</ele><time>2026-03-22T11:49:11.967Z</time></trkpt><trkpt lat="40.682712" lon="14.9353694"><ele>516.0</ele><time>2026-03-22T11:49:12.967Z</time></trkpt><trkpt lat="40.682734" lon="14.9352658"><ele>516.0</ele><time>2026-03-22T11:49:13.96Z</time></trkpt><trkpt lat="40.6827556" lon="14.93517"><ele>516.0</ele><time>2026-03-22T11:49:15.053Z</time></trkpt><trkpt lat="40.6827782" lon="14.9350712"><ele>516.0</ele><time>2026-03-22T11:49:16.033Z</time></trkpt><trkpt lat="40.6828038" lon="14.9349751"><ele>511.4</ele><time>2026-03-22T11:49:16.972Z</time></trkpt><trkpt lat="40.6828429" lon="14.9348389"><ele>506.8</ele><time>2026-03-22T11:49:18.987Z</time></trkpt><trkpt lat="40.6828789" lon="14.9346903"><ele>502.19999999999993</ele><time>2026-03-22T11:49:21.047Z</time></trkpt><trkpt lat="40.6828817" lon="14.9345648"><ele>497.59999999999997</ele><time>2026-03-22T11:49:22.977Z</time></trkpt><trkpt lat="40.6828477" lon="14.9344225"><ele>493.0</ele><time>2026-03-22T11:49:24.963Z</time></trkpt><trkpt lat="40.6828457" lon="14.9342893"><ele>489.79999999999995</ele><time>2026-03-22T11:49:26.983Z</time></trkpt><trkpt lat="40.6828701" lon="14.9341632"><ele>486.59999999999997</ele><time>2026-03-22T11:49:28.971Z</time></trkpt><trkpt lat="40.6829325" lon="14.9340538"><ele>483.40000000000003</ele><time>2026-03-22T11:49:30.969Z</time></trkpt><trkpt lat="40.6830334" lon="14.9340085"><ele>480.20000000000005</ele><time>2026-03-22T11:49:32.965Z</time></trkpt><trkpt lat="40.6831117" lon="14.9339826"><ele>477.0</ele><time>2026-03-22T11:49:35.03Z</time></trkpt><trkpt lat="40.6832119" lon="14.9339717"><ele>477.0</ele><time>2026-03-22T11:49:37.958Z</time></trkpt><trkpt lat="40.6832788" lon="14.933964"><ele>477.0</ele><time>2026-03-22T11:49:39.958Z</time></trkpt><trkpt lat="40.6833424" lon="14.9339578"><ele>477.0</ele><time>2026-03-22T11:49:42.957Z</time></trkpt><trkpt lat="40.6834094" lon="14.9339581"><ele>477.0</ele><time>2026-03-22T11:49:46.944Z</time></trkpt><trkpt lat="40.6835102" lon="14.9340127"><ele>477.0</ele><time>2026-03-22T11:49:52.944Z</time></trkpt><trkpt lat="40.6835778" lon="14.9340422"><ele>477.0</ele><time>2026-03-22T11:49:55.021Z</time></trkpt><trkpt lat="40.6836774" lon="14.9340723"><ele>474.8333333333333</ele><time>2026-03-22T11:49:56.942Z</time></trkpt><trkpt lat="40.6837637" lon="14.9341251"><ele>472.66666666666663</ele><time>2026-03-22T11:49:58.951Z</time></trkpt><trkpt lat="40.6838078" lon="14.9342003"><ele>470.5</ele><time>2026-03-22T11:50:00.95Z</time></trkpt><trkpt lat="40.68384" lon="14.9342915"><ele>468.3333333333333</ele><time>2026-03-22T11:50:02.951Z</time></trkpt><trkpt lat="40.6838518" lon="14.9344017"><ele>466.16666666666663</ele><time>2026-03-22T11:50:05.952Z</time></trkpt><trkpt lat="40.6838247" lon="14.9344877"><ele>464.0</ele><time>2026-03-22T11:50:07.943Z</time></trkpt><trkpt lat="40.6837566" lon="14.9346258"><ele>463.99999999999994</ele><time>2026-03-22T11:50:09.945Z</time></trkpt><trkpt lat="40.6837053" lon="14.9347022"><ele>464.0</ele><time>2026-03-22T11:50:10.953Z</time></trkpt><trkpt lat="40.6836481" lon="14.9347773"><ele>464.0</ele><time>2026-03-22T11:50:11.946Z</time></trkpt><trkpt lat="40.6835883" lon="14.9348722"><ele>464.0</ele><time>2026-03-22T11:50:12.945Z</time></trkpt><trkpt lat="40.6835425" lon="14.9349733"><ele>463.99999999999994</ele><time>2026-03-22T11:50:13.941Z</time></trkpt><trkpt lat="40.6834985" lon="14.9350692"><ele>464.0</ele><time>2026-03-22T11:50:14.947Z</time></trkpt><trkpt lat="40.6834704" lon="14.935171"><ele>466.6</ele><time>2026-03-22T11:50:16.046Z</time></trkpt><trkpt lat="40.6834553" lon="14.9352883"><ele>469.2</ele><time>2026-03-22T11:50:16.947Z</time></trkpt><trkpt lat="40.6834459" lon="14.9353952"><ele>471.80000000000007</ele><time>2026-03-22T11:50:17.952Z</time></trkpt><trkpt lat="40.6834602" lon="14.9354893"><ele>474.40000000000003</ele><time>2026-03-22T11:50:18.952Z</time></trkpt><trkpt lat="40.6835056" lon="14.9356079"><ele>477.0</ele><time>2026-03-22T11:50:20.958Z</time></trkpt><trkpt lat="40.6836" lon="14.9357007"><ele>477.0</ele><time>2026-03-22T11:50:22.958Z</time></trkpt><trkpt lat="40.6836698" lon="14.9358522"><ele>477.00000000000006</ele><time>2026-03-22T11:50:24.956Z</time></trkpt><trkpt lat="40.6837122" lon="14.9359444"><ele>477.00000000000006</ele><time>2026-03-22T11:50:26.043Z</time></trkpt><trkpt lat="40.683769" lon="14.9360418"><ele>477.0</ele><time>2026-03-22T11:50:26.958Z</time></trkpt><trkpt lat="40.6838444" lon="14.936116"><ele>477.0</ele><time>2026-03-22T11:50:28.991Z</time></trkpt><trkpt lat="40.6839128" lon="14.9361925"><ele>478.20000000000005</ele><time>2026-03-22T11:50:31.964Z</time></trkpt><trkpt lat="40.6839655" lon="14.9362769"><ele>479.40000000000003</ele><time>2026-03-22T11:50:35.038Z</time></trkpt><trkpt lat="40.6839855" lon="14.9364213"><ele>480.59999999999997</ele><time>2026-03-22T11:50:36.961Z</time></trkpt><trkpt lat="40.6840138" lon="14.9365054"><ele>481.79999999999995</ele><time>2026-03-22T11:50:37.963Z</time></trkpt><trkpt lat="40.6840505" lon="14.9366164"><ele>483.0</ele><time>2026-03-22T11:50:38.955Z</time></trkpt><trkpt lat="40.6840968" lon="14.9367346"><ele>483.1428571428571</ele><time>2026-03-22T11:50:39.953Z</time></trkpt><trkpt lat="40.6841064" lon="14.9368301"><ele>483.2857142857143</ele><time>2026-03-22T11:50:40.982Z</time></trkpt><trkpt lat="40.6840995" lon="14.9369401"><ele>483.42857142857144</ele><time>2026-03-22T11:50:41.959Z</time></trkpt><trkpt lat="40.6840715" lon="14.9370333"><ele>483.57142857142856</ele><time>2026-03-22T11:50:42.963Z</time></trkpt><trkpt lat="40.6840446" lon="14.9371161"><ele>483.71428571428567</ele><time>2026-03-22T11:50:43.949Z</time></trkpt><trkpt lat="40.6840126" lon="14.9371896"><ele>483.85714285714283</ele><time>2026-03-22T11:50:44.969Z</time></trkpt><trkpt lat="40.6839878" lon="14.9372798"><ele>484.0</ele><time>2026-03-22T11:50:45.952Z</time></trkpt><trkpt lat="40.6839722" lon="14.9373808"><ele>484.0</ele><time>2026-03-22T11:50:46.956Z</time></trkpt><trkpt lat="40.6839727" lon="14.9374772"><ele>483.99999999999994</ele><time>2026-03-22T11:50:47.955Z</time></trkpt><trkpt lat="40.6839629" lon="14.9375658"><ele>484.0</ele><time>2026-03-22T11:50:48.958Z</time></trkpt><trkpt lat="40.6839504" lon="14.9376528"><ele>484.0</ele><time>2026-03-22T11:50:49.988Z</time></trkpt><trkpt lat="40.6839324" lon="14.937733"><ele>483.99999999999994</ele><time>2026-03-22T11:50:50.962Z</time></trkpt><trkpt lat="40.6839515" lon="14.9378304"><ele>484.0</ele><time>2026-03-22T11:50:52.956Z</time></trkpt><trkpt lat="40.684026" lon="14.9378641"><ele>484.0</ele><time>2026-03-22T11:50:54.959Z</time></trkpt><trkpt lat="40.6841581" lon="14.9378615"><ele>483.4285714285714</ele><time>2026-03-22T11:50:56.951Z</time></trkpt><trkpt lat="40.6842312" lon="14.9378765"><ele>482.8571428571428</ele><time>2026-03-22T11:50:57.955Z</time></trkpt><trkpt lat="40.6843047" lon="14.9378872"><ele>482.2857142857143</ele><time>2026-03-22T11:50:58.949Z</time></trkpt><trkpt lat="40.684362" lon="14.9379277"><ele>481.71428571428567</ele><time>2026-03-22T11:50:59.957Z</time></trkpt><trkpt lat="40.6843989" lon="14.9379988"><ele>481.1428571428571</ele><time>2026-03-22T11:51:00.955Z</time></trkpt><trkpt lat="40.684431" lon="14.9380715"><ele>480.57142857142856</ele><time>2026-03-22T11:51:01.969Z</time></trkpt><trkpt lat="40.6844537" lon="14.9381759"><ele>480.0</ele><time>2026-03-22T11:51:02.96Z</time></trkpt><trkpt lat="40.6844864" lon="14.9382821"><ele>483.3333333333333</ele><time>2026-03-22T11:51:03.955Z</time></trkpt><trkpt lat="40.6845257" lon="14.9383929"><ele>486.66666666666663</ele><time>2026-03-22T11:51:04.953Z</time></trkpt><trkpt lat="40.6845727" lon="14.9384838"><ele>490.0</ele><time>2026-03-22T11:51:05.95Z</time></trkpt><trkpt lat="40.6846311" lon="14.9385638"><ele>493.3333333333333</ele><time>2026-03-22T11:51:06.956Z</time></trkpt><trkpt lat="40.6846815" lon="14.9386301"><ele>496.66666666666663</ele><time>2026-03-22T11:51:07.962Z</time></trkpt><trkpt lat="40.6847369" lon="14.93869"><ele>500.0</ele><time>2026-03-22T11:51:08.948Z</time></trkpt><trkpt lat="40.6848107" lon="14.9387431"><ele>499.99999999999994</ele><time>2026-03-22T11:51:09.951Z</time></trkpt><trkpt lat="40.6848941" lon="14.9387761"><ele>500.0</ele><time>2026-03-22T11:51:10.949Z</time></trkpt><trkpt lat="40.6849724" lon="14.9387489"><ele>500.0</ele><time>2026-03-22T11:51:11.947Z</time></trkpt><trkpt lat="40.6850493" lon="14.9386612"><ele>500.0</ele><time>2026-03-22T11:51:12.954Z</time></trkpt><trkpt lat="40.6850979" lon="14.9385726"><ele>499.99999999999994</ele><time>2026-03-22T11:51:13.952Z</time></trkpt><trkpt lat="40.6851503" lon="14.9385023"><ele>500.0</ele><time>2026-03-22T11:51:14.954Z</time></trkpt><trkpt lat="40.6852211" lon="14.9383764"><ele>500.4</ele><time>2026-03-22T11:51:16.957Z</time></trkpt><trkpt lat="40.6852786" lon="14.9382795"><ele>500.8</ele><time>2026-03-22T11:51:19.031Z</time></trkpt><trkpt lat="40.6853367" lon="14.9381956"><ele>501.20000000000005</ele><time>2026-03-22T11:51:20.97Z</time></trkpt><trkpt lat="40.6854313" lon="14.9381214"><ele>501.6</ele><time>2026-03-22T11:51:23.027Z</time></trkpt><trkpt lat="40.6855015" lon="14.9380572"><ele>502.0</ele><time>2026-03-22T11:51:24.076Z</time></trkpt><trkpt lat="40.6855692" lon="14.9379889"><ele>502.00000000000006</ele><time>2026-03-22T11:51:25.028Z</time></trkpt><trkpt lat="40.6856217" lon="14.9379288"><ele>502.0</ele><time>2026-03-22T11:51:25.959Z</time></trkpt><trkpt lat="40.6857011" lon="14.9378739"><ele>502.0</ele><time>2026-03-22T11:51:27.957Z</time></trkpt><trkpt lat="40.6857075" lon="14.9379912"><ele>502.0</ele><time>2026-03-22T11:51:32.957Z</time></trkpt><trkpt lat="40.6856943" lon="14.9380811"><ele>502.00000000000006</ele><time>2026-03-22T11:51:33.951Z</time></trkpt><trkpt lat="40.6856705" lon="14.9381898"><ele>502.0</ele><time>2026-03-22T11:51:34.957Z</time></trkpt><trkpt lat="40.6856549" lon="14.9382941"><ele>507.75</ele><time>2026-03-22T11:51:35.953Z</time></trkpt><trkpt lat="40.6856011" lon="14.9384294"><ele>513.5</ele><time>2026-03-22T11:51:37.954Z</time></trkpt><trkpt lat="40.685515" lon="14.9385461"><ele>519.25</ele><time>2026-03-22T11:51:39.973Z</time></trkpt><trkpt lat="40.6854218" lon="14.9386175"><ele>525.0</ele><time>2026-03-22T11:51:41.951Z</time></trkpt><trkpt lat="40.68535" lon="14.9387526"><ele>525.0</ele><time>2026-03-22T11:51:43.953Z</time></trkpt><trkpt lat="40.6853002" lon="14.938835"><ele>525.0</ele><time>2026-03-22T11:51:44.959Z</time></trkpt><trkpt lat="40.6852576" lon="14.938926"><ele>525.0</ele><time>2026-03-22T11:51:45.98Z</time></trkpt><trkpt lat="40.6852059" lon="14.9390422"><ele>525.0</ele><time>2026-03-22T11:51:46.954Z</time></trkpt><trkpt lat="40.6851554" lon="14.9391524"><ele>525.0</ele><time>2026-03-22T11:51:47.948Z</time></trkpt><trkpt lat="40.6851141" lon="14.939265"><ele>525.1666666666666</ele><time>2026-03-22T11:51:48.952Z</time></trkpt><trkpt lat="40.6850807" lon="14.9393809"><ele>525.3333333333334</ele><time>2026-03-22T11:51:49.956Z</time></trkpt><trkpt lat="40.685047" lon="14.9394809"><ele>525.5</ele><time>2026-03-22T11:51:50.948Z</time></trkpt><trkpt lat="40.6850224" lon="14.9395829"><ele>525.6666666666667</ele><time>2026-03-22T11:51:51.951Z</time></trkpt><trkpt lat="40.684965" lon="14.9397051"><ele>525.8333333333334</ele><time>2026-03-22T11:51:53.949Z</time></trkpt><trkpt lat="40.6849085" lon="14.9397605"><ele>526.0</ele><time>2026-03-22T11:51:54.962Z</time></trkpt><trkpt lat="40.6848489" lon="14.9397899"><ele>526.0</ele><time>2026-03-22T11:51:55.954Z</time></trkpt><trkpt lat="40.684714" lon="14.9397628"><ele>526.0</ele><time>2026-03-22T11:51:57.954Z</time></trkpt><trkpt lat="40.6846413" lon="14.9397264"><ele>526.0</ele><time>2026-03-22T11:51:58.937Z</time></trkpt><trkpt lat="40.6845823" lon="14.9396689"><ele>526.0</ele><time>2026-03-22T11:51:59.948Z</time></trkpt><trkpt lat="40.6845406" lon="14.9395978"><ele>526.0</ele><time>2026-03-22T11:52:00.951Z</time></trkpt><trkpt lat="40.6845175" lon="14.9395193"><ele>526.0</ele><time>2026-03-22T11:52:01.956Z</time></trkpt><trkpt lat="40.6844901" lon="14.9394435"><ele>526.0</ele><time>2026-03-22T11:52:02.948Z</time></trkpt><trkpt lat="40.6844362" lon="14.9393678"><ele>526.0</ele><time>2026-03-22T11:52:03.95Z</time></trkpt><trkpt lat="40.6843598" lon="14.9393005"><ele>526.0</ele><time>2026-03-22T11:52:04.957Z</time></trkpt><trkpt lat="40.6842788" lon="14.9392345"><ele>526.0</ele><time>2026-03-22T11:52:05.953Z</time></trkpt><trkpt lat="40.6842133" lon="14.9391714"><ele>526.0</ele><time>2026-03-22T11:52:06.948Z</time></trkpt><trkpt lat="40.6841595" lon="14.9391181"><ele>526.0</ele><time>2026-03-22T11:52:07.952Z</time></trkpt><trkpt lat="40.6841042" lon="14.9390494"><ele>523.6</ele><time>2026-03-22T11:52:08.956Z</time></trkpt><trkpt lat="40.6840335" lon="14.9389729"><ele>521.2</ele><time>2026-03-22T11:52:09.956Z</time></trkpt><trkpt lat="40.6839654" lon="14.9389019"><ele>518.8</ele><time>2026-03-22T11:52:10.954Z</time></trkpt><trkpt lat="40.6839006" lon="14.9388445"><ele>516.4</ele><time>2026-03-22T11:52:11.954Z</time></trkpt><trkpt lat="40.6838439" lon="14.938778"><ele>514.0</ele><time>2026-03-22T11:52:12.951Z</time></trkpt><trkpt lat="40.6837495" lon="14.9386754"><ele>519.75</ele><time>2026-03-22T11:52:14.957Z</time></trkpt><trkpt lat="40.6835777" lon="14.9387342"><ele>525.5</ele><time>2026-03-22T11:52:16.957Z</time></trkpt><trkpt lat="40.6834661" lon="14.9387538"><ele>531.25</ele><time>2026-03-22T11:52:17.959Z</time></trkpt><trkpt lat="40.6833695" lon="14.9387592"><ele>537.0</ele><time>2026-03-22T11:52:18.964Z</time></trkpt><trkpt lat="40.6832942" lon="14.9387064"><ele>537.0</ele><time>2026-03-22T11:52:19.958Z</time></trkpt><trkpt lat="40.6832189" lon="14.938592"><ele>537.0</ele><time>2026-03-22T11:52:20.956Z</time></trkpt><trkpt lat="40.6831709" lon="14.9384562"><ele>537.0</ele><time>2026-03-22T11:52:21.958Z</time></trkpt><trkpt lat="40.6831101" lon="14.9383396"><ele>537.0</ele><time>2026-03-22T11:52:22.956Z</time></trkpt><trkpt lat="40.6830816" lon="14.938264"><ele>537.0</ele><time>2026-03-22T11:52:23.964Z</time></trkpt><trkpt lat="40.6830807" lon="14.9381133"><ele>535.6666666666666</ele><time>2026-03-22T11:52:25.956Z</time></trkpt><trkpt lat="40.6830875" lon="14.9379819"><ele>534.3333333333334</ele><time>2026-03-22T11:52:27.959Z</time></trkpt><trkpt lat="40.6830747" lon="14.9378765"><ele>533.0</ele><time>2026-03-22T11:52:29.957Z</time></trkpt><trkpt lat="40.6830483" lon="14.9377971"><ele>531.6666666666667</ele><time>2026-03-22T11:52:31.951Z</time></trkpt><trkpt lat="40.6830467" lon="14.9377058"><ele>530.3333333333334</ele><time>2026-03-22T11:52:34.961Z</time></trkpt><trkpt lat="40.6830691" lon="14.9376072"><ele>529.0</ele><time>2026-03-22T11:52:37.964Z</time></trkpt><trkpt lat="40.6830893" lon="14.9374981"><ele>528.0</ele><time>2026-03-22T11:52:41.035Z</time></trkpt><trkpt lat="40.6831002" lon="14.9374046"><ele>527.0</ele><time>2026-03-22T11:52:42.956Z</time></trkpt><trkpt lat="40.6830928" lon="14.9372492"><ele>526.0</ele><time>2026-03-22T11:52:44.953Z</time></trkpt><trkpt lat="40.6830908" lon="14.9371178"><ele>525.0</ele><time>2026-03-22T11:52:46.947Z</time></trkpt><trkpt lat="40.6831002" lon="14.9370123"><ele>524.0</ele><time>2026-03-22T11:52:49.017Z</time></trkpt><trkpt lat="40.6830477" lon="14.9369427"><ele>523.0</ele><time>2026-03-22T11:52:52.957Z</time></trkpt><trkpt lat="40.6830169" lon="14.9368053"><ele>522.6666666666667</ele><time>2026-03-22T11:52:54.954Z</time></trkpt><trkpt lat="40.6830028" lon="14.9367038"><ele>522.3333333333334</ele><time>2026-03-22T11:52:56.033Z</time></trkpt><trkpt lat="40.6829603" lon="14.93657"><ele>522.0</ele><time>2026-03-22T11:52:57.961Z</time></trkpt><trkpt lat="40.6829112" lon="14.936427"><ele>521.6666666666666</ele><time>2026-03-22T11:52:59.938Z</time></trkpt><trkpt lat="40.6828872" lon="14.9363402"><ele>521.3333333333333</ele><time>2026-03-22T11:53:00.944Z</time></trkpt><trkpt lat="40.6828691" lon="14.9362526"><ele>521.0</ele><time>2026-03-22T11:53:01.95Z</time></trkpt><trkpt lat="40.6828449" lon="14.9361652"><ele>521.0</ele><time>2026-03-22T11:53:03.949Z</time></trkpt><trkpt lat="40.682788" lon="14.9360983"><ele>521.0</ele><time>2026-03-22T11:53:05.956Z</time></trkpt><trkpt lat="40.6826709" lon="14.9360517"><ele>521.0</ele><time>2026-03-22T11:53:07.948Z</time></trkpt><trkpt lat="40.6826068" lon="14.9359851"><ele>521.0</ele><time>2026-03-22T11:53:08.953Z</time></trkpt><trkpt lat="40.6825178" lon="14.9358873"><ele>521.0</ele><time>2026-03-22T11:53:09.949Z</time></trkpt><trkpt lat="40.6824295" lon="14.935784"><ele>519.75</ele><time>2026-03-22T11:53:10.953Z</time></trkpt><trkpt lat="40.6823448" lon="14.9356873"><ele>518.5</ele><time>2026-03-22T11:53:11.948Z</time></trkpt><trkpt lat="40.6822495" lon="14.9355755"><ele>517.25</ele><time>2026-03-22T11:53:12.952Z</time></trkpt><trkpt lat="40.6821614" lon="14.9354621"><ele>516.0</ele><time>2026-03-22T11:53:13.966Z</time></trkpt><trkpt lat="40.6820752" lon="14.9353317"><ele>516.0</ele><time>2026-03-22T11:53:14.954Z</time></trkpt><trkpt lat="40.6819967" lon="14.9351875"><ele>516.0</ele><time>2026-03-22T11:53:15.958Z</time></trkpt><trkpt lat="40.6819311" lon="14.935059"><ele>516.0</ele><time>2026-03-22T11:53:16.94Z</time></trkpt><trkpt lat="40.6818814" lon="14.9349243"><ele>516.0</ele><time>2026-03-22T11:53:17.957Z</time></trkpt><trkpt lat="40.6818361" lon="14.9347946"><ele>517.6666666666666</ele><time>2026-03-22T11:53:18.943Z</time></trkpt><trkpt lat="40.6818082" lon="14.9346857"><ele>519.3333333333334</ele><time>2026-03-22T11:53:19.946Z</time></trkpt><trkpt lat="40.6817837" lon="14.934571"><ele>521.0</ele><time>2026-03-22T11:53:20.954Z</time></trkpt><trkpt lat="40.6817746" lon="14.9344403"><ele>522.6666666666667</ele><time>2026-03-22T11:53:21.942Z</time></trkpt><trkpt lat="40.6817659" lon="14.9343296"><ele>524.3333333333334</ele><time>2026-03-22T11:53:22.951Z</time></trkpt><trkpt lat="40.6817636" lon="14.9342291"><ele>526.0</ele><time>2026-03-22T11:53:23.961Z</time></trkpt><trkpt lat="40.6817633" lon="14.9341115"><ele>528.2</ele><time>2026-03-22T11:53:24.948Z</time></trkpt><trkpt lat="40.6817661" lon="14.9339935"><ele>530.4000000000001</ele><time>2026-03-22T11:53:25.95Z</time></trkpt><trkpt lat="40.6817823" lon="14.933898"><ele>532.6</ele><time>2026-03-22T11:53:26.956Z</time></trkpt><trkpt lat="40.6818155" lon="14.9337646"><ele>534.8000000000001</ele><time>2026-03-22T11:53:27.957Z</time></trkpt><trkpt lat="40.6818599" lon="14.9336402"><ele>537.0</ele><time>2026-03-22T11:53:28.953Z</time></trkpt><trkpt lat="40.6819253" lon="14.9334938"><ele>532.0</ele><time>2026-03-22T11:53:29.957Z</time></trkpt><trkpt lat="40.6820153" lon="14.933406"><ele>527.0</ele><time>2026-03-22T11:53:30.953Z</time></trkpt><trkpt lat="40.6821185" lon="14.933289"><ele>522.0</ele><time>2026-03-22T11:53:31.948Z</time></trkpt><trkpt lat="40.6822131" lon="14.9331471"><ele>517.0</ele><time>2026-03-22T11:53:32.953Z</time></trkpt><trkpt lat="40.6823053" lon="14.9329961"><ele>517.0</ele><time>2026-03-22T11:53:33.956Z</time></trkpt><trkpt lat="40.682397" lon="14.9328661"><ele>517.0</ele><time>2026-03-22T11:53:34.954Z</time></trkpt><trkpt lat="40.6824988" lon="14.9327641"><ele>517.0</ele><time>2026-03-22T11:53:35.955Z</time></trkpt><trkpt lat="40.6826224" lon="14.9326976"><ele>517.0</ele><time>2026-03-22T11:53:36.952Z</time></trkpt><trkpt lat="40.6827294" lon="14.9326475"><ele>515.1666666666667</ele><time>2026-03-22T11:53:37.953Z</time></trkpt><trkpt lat="40.6828171" lon="14.9325688"><ele>513.3333333333334</ele><time>2026-03-22T11:53:38.953Z</time></trkpt><trkpt lat="40.6828646" lon="14.9324985"><ele>511.5</ele><time>2026-03-22T11:53:39.962Z</time></trkpt><trkpt lat="40.6829084" lon="14.9324178"><ele>509.66666666666663</ele><time>2026-03-22T11:53:40.952Z</time></trkpt><trkpt lat="40.6829501" lon="14.9323404"><ele>507.8333333333333</ele><time>2026-03-22T11:53:42.948Z</time></trkpt><trkpt lat="40.683005" lon="14.9323941"><ele>506.0</ele><time>2026-03-22T11:53:47.957Z</time></trkpt><trkpt lat="40.6830368" lon="14.9324875"><ele>507.8333333333333</ele><time>2026-03-22T11:53:50.964Z</time></trkpt><trkpt lat="40.6830358" lon="14.9325814"><ele>509.66666666666663</ele><time>2026-03-22T11:53:53.957Z</time></trkpt><trkpt lat="40.6829535" lon="14.9326584"><ele>511.5</ele><time>2026-03-22T11:53:56.954Z</time></trkpt><trkpt lat="40.6828734" lon="14.9327179"><ele>513.3333333333334</ele><time>2026-03-22T11:53:58.959Z</time></trkpt><trkpt lat="40.682808" lon="14.932812"><ele>515.1666666666667</ele><time>2026-03-22T11:54:00.941Z</time></trkpt><trkpt lat="40.6827583" lon="14.9329024"><ele>517.0</ele><time>2026-03-22T11:54:03.035Z</time></trkpt><trkpt lat="40.6827111" lon="14.9330202"><ele>517.0</ele><time>2026-03-22T11:54:04.953Z</time></trkpt><trkpt lat="40.6826702" lon="14.933189"><ele>517.0</ele><time>2026-03-22T11:54:06.954Z</time></trkpt><trkpt lat="40.6826414" lon="14.9332801"><ele>517.0</ele><time>2026-03-22T11:54:07.957Z</time></trkpt><trkpt lat="40.682597" lon="14.9333876"><ele>517.0</ele><time>2026-03-22T11:54:08.956Z</time></trkpt><trkpt lat="40.6825432" lon="14.9334795"><ele>517.0</ele><time>2026-03-22T11:54:09.958Z</time></trkpt><trkpt lat="40.6824787" lon="14.9335859"><ele>515.2</ele><time>2026-03-22T11:54:11.034Z</time></trkpt><trkpt lat="40.6824211" lon="14.9336889"><ele>513.4000000000001</ele><time>2026-03-22T11:54:11.95Z</time></trkpt><trkpt lat="40.6823522" lon="14.9338003"><ele>511.59999999999997</ele><time>2026-03-22T11:54:12.956Z</time></trkpt><trkpt lat="40.6823024" lon="14.933906"><ele>509.79999999999995</ele><time>2026-03-22T11:54:13.949Z</time></trkpt><trkpt lat="40.6822514" lon="14.9340029"><ele>508.0</ele><time>2026-03-22T11:54:15.026Z</time></trkpt><trkpt lat="40.6822406" lon="14.9341066"><ele>508.00000000000006</ele><time>2026-03-22T11:54:16.028Z</time></trkpt><trkpt lat="40.6822437" lon="14.9342194"><ele>508.0</ele><time>2026-03-22T11:54:16.954Z</time></trkpt><trkpt lat="40.6822454" lon="14.9343372"><ele>508.0</ele><time>2026-03-22T11:54:17.963Z</time></trkpt><trkpt lat="40.6822441" lon="14.9344479"><ele>508.0</ele><time>2026-03-22T11:54:18.952Z</time></trkpt><trkpt lat="40.6822664" lon="14.9345607"><ele>508.00000000000006</ele><time>2026-03-22T11:54:20.038Z</time></trkpt><trkpt lat="40.682294" lon="14.934668"><ele>508.0</ele><time>2026-03-22T11:54:21.033Z</time></trkpt><trkpt lat="40.682339" lon="14.9347892"><ele>509.59999999999997</ele><time>2026-03-22T11:54:21.961Z</time></trkpt><trkpt lat="40.6823869" lon="14.9349129"><ele>511.19999999999993</ele><time>2026-03-22T11:54:22.962Z</time></trkpt><trkpt lat="40.6824275" lon="14.9350106"><ele>512.8</ele><time>2026-03-22T11:54:23.961Z</time></trkpt><trkpt lat="40.6824458" lon="14.9351857"><ele>514.4</ele><time>2026-03-22T11:54:26.031Z</time></trkpt><trkpt lat="40.6824351" lon="14.9353124"><ele>516.0</ele><time>2026-03-22T11:54:26.954Z</time></trkpt><trkpt lat="40.682437" lon="14.9354757"><ele>516.0</ele><time>2026-03-22T11:54:27.956Z</time></trkpt><trkpt lat="40.6824413" lon="14.9356537"><ele>516.0</ele><time>2026-03-22T11:54:28.97Z</time></trkpt><trkpt lat="40.6824532" lon="14.9357933"><ele>516.0</ele><time>2026-03-22T11:54:30.032Z</time></trkpt><trkpt lat="40.6825038" lon="14.9359199"><ele>516.0</ele><time>2026-03-22T11:54:31.984Z</time></trkpt><trkpt lat="40.6825515" lon="14.9360494"><ele>516.0</ele><time>2026-03-22T11:54:33.961Z</time></trkpt><trkpt lat="40.6826015" lon="14.9359568"><ele>516.0</ele><time>2026-03-22T11:54:36.96Z</time></trkpt><trkpt lat="40.6826097" lon="14.9358694"><ele>516.0</ele><time>2026-03-22T11:54:37.955Z</time></trkpt><trkpt lat="40.682625" lon="14.9357656"><ele>516.0</ele><time>2026-03-22T11:54:38.957Z</time></trkpt><trkpt lat="40.6826522" lon="14.935674"><ele>516.0</ele><time>2026-03-22T11:54:39.964Z</time></trkpt><trkpt lat="40.6826853" lon="14.9355662"><ele>516.0</ele><time>2026-03-22T11:54:40.962Z</time></trkpt><trkpt lat="40.6827167" lon="14.9354631"><ele>516.0</ele><time>2026-03-22T11:54:41.961Z</time></trkpt><trkpt lat="40.682741" lon="14.9353587"><ele>516.0</ele><time>2026-03-22T11:54:42.97Z</time></trkpt><trkpt lat="40.6827598" lon="14.9352413"><ele>516.0</ele><time>2026-03-22T11:54:43.966Z</time></trkpt><trkpt lat="40.6827719" lon="14.9351378"><ele>516.0</ele><time>2026-03-22T11:54:44.962Z</time></trkpt><trkpt lat="40.6827838" lon="14.935027"><ele>516.0</ele><time>2026-03-22T11:54:45.964Z</time></trkpt><trkpt lat="40.6828038" lon="14.934928"><ele>516.0</ele><time>2026-03-22T11:54:46.957Z</time></trkpt><trkpt lat="40.6828558" lon="14.9347837"><ele>511.4</ele><time>2026-03-22T11:54:48.96Z</time></trkpt><trkpt lat="40.6828792" lon="14.9346968"><ele>506.8</ele><time>2026-03-22T11:54:49.965Z</time></trkpt><trkpt lat="40.6828953" lon="14.9345607"><ele>502.19999999999993</ele><time>2026-03-22T11:54:51.964Z</time></trkpt><trkpt lat="40.6828704" lon="14.9344463"><ele>497.59999999999997</ele><time>2026-03-22T11:54:53.968Z</time></trkpt><trkpt lat="40.6828356" lon="14.9343448"><ele>493.0</ele><time>2026-03-22T11:54:55.965Z</time></trkpt><trkpt lat="40.6828661" lon="14.934195"><ele>489.79999999999995</ele><time>2026-03-22T11:54:57.96Z</time></trkpt><trkpt lat="40.6829054" lon="14.9340749"><ele>486.59999999999997</ele><time>2026-03-22T11:54:59.97Z</time></trkpt><trkpt lat="40.6829903" lon="14.9339948"><ele>483.40000000000003</ele><time>2026-03-22T11:55:01.954Z</time></trkpt><trkpt lat="40.683068" lon="14.9339537"><ele>480.20000000000005</ele><time>2026-03-22T11:55:03.965Z</time></trkpt><trkpt lat="40.6831557" lon="14.9339394"><ele>477.0</ele><time>2026-03-22T11:55:05.964Z</time></trkpt><trkpt lat="40.6832298" lon="14.9339372"><ele>477.0</ele><time>2026-03-22T11:55:07.97Z</time></trkpt><trkpt lat="40.6833503" lon="14.9339363"><ele>477.00000000000006</ele><time>2026-03-22T11:55:15.027Z</time></trkpt><trkpt lat="40.6834227" lon="14.9339879"><ele>477.00000000000006</ele><time>2026-03-22T11:55:18.964Z</time></trkpt><trkpt lat="40.6835192" lon="14.9339935"><ele>477.0</ele><time>2026-03-22T11:55:21.955Z</time></trkpt><trkpt lat="40.6835898" lon="14.9339992"><ele>477.0</ele><time>2026-03-22T11:55:23.958Z</time></trkpt><trkpt lat="40.6837341" lon="14.934094"><ele>474.8333333333333</ele><time>2026-03-22T11:55:25.966Z</time></trkpt><trkpt lat="40.6838219" lon="14.9341607"><ele>472.66666666666663</ele><time>2026-03-22T11:55:26.977Z</time></trkpt><trkpt lat="40.6838908" lon="14.9342261"><ele>470.5</ele><time>2026-03-22T11:55:27.964Z</time></trkpt><trkpt lat="40.6839354" lon="14.9342959"><ele>468.3333333333333</ele><time>2026-03-22T11:55:28.954Z</time></trkpt><trkpt lat="40.6839677" lon="14.934413"><ele>466.16666666666663</ele><time>2026-03-22T11:55:30.965Z</time></trkpt><trkpt lat="40.6839714" lon="14.9345079"><ele>464.0</ele><time>2026-03-22T11:55:32.962Z</time></trkpt><trkpt lat="40.6838736" lon="14.9345801"><ele>463.99999999999994</ele><time>2026-03-22T11:55:35.967Z</time></trkpt><trkpt lat="40.6838174" lon="14.9346286"><ele>464.0</ele><time>2026-03-22T11:55:36.982Z</time></trkpt><trkpt lat="40.6837625" lon="14.934671"><ele>464.0</ele><time>2026-03-22T11:55:37.964Z</time></trkpt><trkpt lat="40.6836783" lon="14.9347454"><ele>464.0</ele><time>2026-03-22T11:55:39.954Z</time></trkpt><trkpt lat="40.6835888" lon="14.9348094"><ele>463.99999999999994</ele><time>2026-03-22T11:55:41.961Z</time></trkpt><trkpt lat="40.6835379" lon="14.9348804"><ele>464.0</ele><time>2026-03-22T11:55:42.965Z</time></trkpt><trkpt lat="40.6834861" lon="14.9349581"><ele>468.8333333333333</ele><time>2026-03-22T11:55:43.965Z</time></trkpt><trkpt lat="40.683444" lon="14.935033"><ele>473.66666666666663</ele><time>2026-03-22T11:55:44.964Z</time></trkpt><trkpt lat="40.6834061" lon="14.9351192"><ele>478.5</ele><time>2026-03-22T11:55:45.967Z</time></trkpt><trkpt lat="40.6833851" lon="14.9352829"><ele>483.33333333333337</ele><time>2026-03-22T11:55:47.974Z</time></trkpt><trkpt lat="40.6833952" lon="14.9353818"><ele>488.1666666666667</ele><time>2026-03-22T11:55:48.962Z</time></trkpt><trkpt lat="40.6834063" lon="14.9354656"><ele>493.0</ele><time>2026-03-22T11:55:49.97Z</time></trkpt><trkpt lat="40.6834981" lon="14.9355833"><ele>491.33333333333337</ele><time>2026-03-22T11:55:51.979Z</time></trkpt><trkpt lat="40.68355" lon="14.9356516"><ele>489.6666666666667</ele><time>2026-03-22T11:55:52.965Z</time></trkpt><trkpt lat="40.6835875" lon="14.9357195"><ele>488.0</ele><time>2026-03-22T11:55:53.965Z</time></trkpt><trkpt lat="40.6836282" lon="14.9358116"><ele>486.33333333333337</ele><time>2026-03-22T11:55:54.964Z</time></trkpt><trkpt lat="40.6836651" lon="14.9358857"><ele>484.6666666666667</ele><time>2026-03-22T11:55:55.974Z</time></trkpt><trkpt lat="40.6837096" lon="14.9359695"><ele>483.0</ele><time>2026-03-22T11:55:56.967Z</time></trkpt><trkpt lat="40.6837867" lon="14.9360469"><ele>483.0</ele><time>2026-03-22T11:55:58.964Z</time></trkpt><trkpt lat="40.6838431" lon="14.9360977"><ele>483.0</ele><time>2026-03-22T11:56:00.968Z</time></trkpt><trkpt lat="40.6838976" lon="14.9361956"><ele>483.0</ele><time>2026-03-22T11:56:03.968Z</time></trkpt><trkpt lat="40.683941" lon="14.9363054"><ele>483.0</ele><time>2026-03-22T11:56:06.964Z</time></trkpt><trkpt lat="40.6839521" lon="14.936425"><ele>483.0</ele><time>2026-03-22T11:56:08.956Z</time></trkpt><trkpt lat="40.6839849" lon="14.9365005"><ele>483.0</ele><time>2026-03-22T11:56:10.02Z</time></trkpt><trkpt lat="40.6840235" lon="14.9366149"><ele>483.0</ele><time>2026-03-22T11:56:11.019Z</time></trkpt><trkpt lat="40.6840404" lon="14.9367145"><ele>483.0</ele><time>2026-03-22T11:56:11.961Z</time></trkpt><trkpt lat="40.6840459" lon="14.9368229"><ele>483.0</ele><time>2026-03-22T11:56:12.963Z</time></trkpt><trkpt lat="40.6840506" lon="14.9369354"><ele>483.0</ele><time>2026-03-22T11:56:13.952Z</time></trkpt><trkpt lat="40.6840426" lon="14.9370391"><ele>483.0</ele><time>2026-03-22T11:56:14.961Z</time></trkpt><trkpt lat="40.6840199" lon="14.9371214"><ele>483.0</ele><time>2026-03-22T11:56:15.965Z</time></trkpt><trkpt lat="40.6839938" lon="14.9372168"><ele>483.2</ele><time>2026-03-22T11:56:16.963Z</time></trkpt><trkpt lat="40.6839642" lon="14.9373166"><ele>483.4</ele><time>2026-03-22T11:56:18.026Z</time></trkpt><trkpt lat="40.6839574" lon="14.9374228"><ele>483.59999999999997</ele><time>2026-03-22T11:56:19.037Z</time></trkpt><trkpt lat="40.6839524" lon="14.9376056"><ele>483.79999999999995</ele><time>2026-03-22T11:56:20.958Z</time></trkpt><trkpt lat="40.6839473" lon="14.9376993"><ele>484.0</ele><time>2026-03-22T11:56:21.964Z</time></trkpt><trkpt lat="40.6839597" lon="14.937807"><ele>486.79999999999995</ele><time>2026-03-22T11:56:23.962Z</time></trkpt><trkpt lat="40.6840811" lon="14.9378316"><ele>489.59999999999997</ele><time>2026-03-22T11:56:26.008Z</time></trkpt><trkpt lat="40.6841695" lon="14.9378067"><ele>492.4</ele><time>2026-03-22T11:56:26.953Z</time></trkpt><trkpt lat="40.6842614" lon="14.9377847"><ele>495.2</ele><time>2026-03-22T11:56:27.96Z</time></trkpt><trkpt lat="40.6843348" lon="14.9377893"><ele>498.0</ele><time>2026-03-22T11:56:29.021Z</time></trkpt><trkpt lat="40.6844279" lon="14.937877"><ele>498.4</ele><time>2026-03-22T11:56:31.03Z</time></trkpt><trkpt lat="40.6844417" lon="14.9380593"><ele>498.79999999999995</ele><time>2026-03-22T11:56:32.949Z</time></trkpt><trkpt lat="40.684433" lon="14.9381724"><ele>499.2</ele><time>2026-03-22T11:56:33.983Z</time></trkpt><trkpt lat="40.6844393" lon="14.9382807"><ele>499.6</ele><time>2026-03-22T11:56:35.028Z</time></trkpt><trkpt lat="40.6844638" lon="14.9383795"><ele>500.0</ele><time>2026-03-22T11:56:36.027Z</time></trkpt><trkpt lat="40.6845003" lon="14.9384878"><ele>499.99999999999994</ele><time>2026-03-22T11:56:36.967Z</time></trkpt><trkpt lat="40.6845444" lon="14.938576"><ele>500.0</ele><time>2026-03-22T11:56:37.958Z</time></trkpt><trkpt lat="40.6846062" lon="14.938643"><ele>500.0</ele><time>2026-03-22T11:56:38.979Z</time></trkpt><trkpt lat="40.6846671" lon="14.9386821"><ele>500.0</ele><time>2026-03-22T11:56:39.951Z</time></trkpt><trkpt lat="40.6847469" lon="14.938711"><ele>499.99999999999994</ele><time>2026-03-22T11:56:41.011Z</time></trkpt><trkpt lat="40.6848385" lon="14.9387271"><ele>500.0</ele><time>2026-03-22T11:56:41.957Z</time></trkpt><trkpt lat="40.684908" lon="14.9387355"><ele>500.0</ele><time>2026-03-22T11:56:43.011Z</time></trkpt><trkpt lat="40.6849745" lon="14.9387121"><ele>500.0</ele><time>2026-03-22T11:56:44.017Z</time></trkpt><trkpt lat="40.6850231" lon="14.9386514"><ele>500.0</ele><time>2026-03-22T11:56:45.019Z</time></trkpt><trkpt lat="40.6850857" lon="14.9385861"><ele>500.0</ele><time>2026-03-22T11:56:46.015Z</time></trkpt><trkpt lat="40.6851343" lon="14.9385141"><ele>500.0</ele><time>2026-03-22T11:56:46.958Z</time></trkpt><trkpt lat="40.6851705" lon="14.9384411"><ele>500.0</ele><time>2026-03-22T11:56:47.953Z</time></trkpt><trkpt lat="40.6852283" lon="14.938361"><ele>500.0</ele><time>2026-03-22T11:56:49.963Z</time></trkpt><trkpt lat="40.6853259" lon="14.9382925"><ele>500.4</ele><time>2026-03-22T11:56:51.953Z</time></trkpt><trkpt lat="40.6854355" lon="14.9381873"><ele>500.8</ele><time>2026-03-22T11:56:53.948Z</time></trkpt><trkpt lat="40.6855176" lon="14.93808"><ele>501.20000000000005</ele><time>2026-03-22T11:56:54.952Z</time></trkpt><trkpt lat="40.6855896" lon="14.93798"><ele>501.6</ele><time>2026-03-22T11:56:55.947Z</time></trkpt><trkpt lat="40.6856544" lon="14.9379097"><ele>502.0</ele><time>2026-03-22T11:56:56.952Z</time></trkpt><trkpt lat="40.685741" lon="14.9378454"><ele>502.00000000000006</ele><time>2026-03-22T11:56:58.956Z</time></trkpt><trkpt lat="40.6857836" lon="14.9379242"><ele>502.0</ele><time>2026-03-22T11:57:01.965Z</time></trkpt><trkpt lat="40.6857488" lon="14.9380758"><ele>502.0</ele><time>2026-03-22T11:57:03.957Z</time></trkpt><trkpt lat="40.6857263" lon="14.9381668"><ele>502.0</ele><time>2026-03-22T11:57:04.945Z</time></trkpt><trkpt lat="40.6857153" lon="14.938256"><ele>502.00000000000006</ele><time>2026-03-22T11:57:05.964Z</time></trkpt><trkpt lat="40.6856797" lon="14.9383365"><ele>502.0</ele><time>2026-03-22T11:57:06.955Z</time></trkpt><trkpt lat="40.6856514" lon="14.9384167"><ele>506.6</ele><time>2026-03-22T11:57:07.955Z</time></trkpt><trkpt lat="40.685574" lon="14.9385517"><ele>511.20000000000005</ele><time>2026-03-22T11:57:10.024Z</time></trkpt><trkpt lat="40.6855096" lon="14.9386522"><ele>515.8</ele><time>2026-03-22T11:57:11.959Z</time></trkpt><trkpt lat="40.6854305" lon="14.9387643"><ele>520.4</ele><time>2026-03-22T11:57:13.959Z</time></trkpt><trkpt lat="40.6853851" lon="14.9388289"><ele>525.0</ele><time>2026-03-22T11:57:14.955Z</time></trkpt><trkpt lat="40.6853457" lon="14.9389101"><ele>525.0</ele><time>2026-03-22T11:57:15.96Z</time></trkpt><trkpt lat="40.6853081" lon="14.9390297"><ele>525.0</ele><time>2026-03-22T11:57:16.954Z</time></trkpt><trkpt lat="40.685276" lon="14.9391351"><ele>525.0</ele><time>2026-03-22T11:57:17.958Z</time></trkpt><trkpt lat="40.6852371" lon="14.9392306"><ele>525.0</ele><time>2026-03-22T11:57:18.955Z</time></trkpt><trkpt lat="40.6851855" lon="14.93933"><ele>525.0</ele><time>2026-03-22T11:57:19.956Z</time></trkpt><trkpt lat="40.6851335" lon="14.9394397"><ele>525.1666666666666</ele><time>2026-03-22T11:57:20.953Z</time></trkpt><trkpt lat="40.6850826" lon="14.9395516"><ele>525.3333333333334</ele><time>2026-03-22T11:57:21.963Z</time></trkpt><trkpt lat="40.685043" lon="14.9396384"><ele>525.5</ele><time>2026-03-22T11:57:22.952Z</time></trkpt><trkpt lat="40.6849458" lon="14.9397476"><ele>525.6666666666667</ele><time>2026-03-22T11:57:24.953Z</time></trkpt><trkpt lat="40.6848844" lon="14.9398052"><ele>525.8333333333334</ele><time>2026-03-22T11:57:26.034Z</time></trkpt><trkpt lat="40.6848168" lon="14.9398161"><ele>526.0</ele><time>2026-03-22T11:57:26.949Z</time></trkpt><trkpt lat="40.6847382" lon="14.9397942"><ele>526.0</ele><time>2026-03-22T11:57:27.956Z</time></trkpt><trkpt lat="40.6846697" lon="14.9397698"><ele>526.0</ele><time>2026-03-22T11:57:28.948Z</time></trkpt><trkpt lat="40.6846033" lon="14.9397272"><ele>526.0</ele><time>2026-03-22T11:57:29.953Z</time></trkpt><trkpt lat="40.6845571" lon="14.9396554"><ele>526.0</ele><time>2026-03-22T11:57:30.957Z</time></trkpt><trkpt lat="40.6845169" lon="14.9395736"><ele>526.0</ele><time>2026-03-22T11:57:31.961Z</time></trkpt><trkpt lat="40.6844793" lon="14.9394835"><ele>526.0</ele><time>2026-03-22T11:57:32.952Z</time></trkpt><trkpt lat="40.6844358" lon="14.9393939"><ele>526.0</ele><time>2026-03-22T11:57:34.038Z</time></trkpt><trkpt lat="40.6843787" lon="14.9393068"><ele>524.0</ele><time>2026-03-22T11:57:35.026Z</time></trkpt><trkpt lat="40.6843171" lon="14.9392137"><ele>522.0</ele><time>2026-03-22T11:57:36.035Z</time></trkpt><trkpt lat="40.684253" lon="14.9391428"><ele>520.0</ele><time>2026-03-22T11:57:36.953Z</time></trkpt><trkpt lat="40.6841613" lon="14.9390664"><ele>518.0</ele><time>2026-03-22T11:57:38.968Z</time></trkpt><trkpt lat="40.6841063" lon="14.9390231"><ele>516.0</ele><time>2026-03-22T11:57:39.952Z</time></trkpt><trkpt lat="40.6840405" lon="14.9389665"><ele>514.0</ele><time>2026-03-22T11:57:41.01Z</time></trkpt><trkpt lat="40.6839844" lon="14.938916"><ele>514.0</ele><time>2026-03-22T11:57:41.954Z</time></trkpt><trkpt lat="40.683927" lon="14.9388643"><ele>514.0</ele><time>2026-03-22T11:57:42.954Z</time></trkpt><trkpt lat="40.6838714" lon="14.9388072"><ele>514.0</ele><time>2026-03-22T11:57:44.061Z</time></trkpt><trkpt lat="40.6838084" lon="14.9387608"><ele>514.0</ele><time>2026-03-22T11:57:44.989Z</time></trkpt><trkpt lat="40.6837442" lon="14.9387148"><ele>514.0</ele><time>2026-03-22T11:57:45.941Z</time></trkpt><trkpt lat="40.6836723" lon="14.9387022"><ele>514.0</ele><time>2026-03-22T11:57:46.952Z</time></trkpt><trkpt lat="40.6835923" lon="14.9387287"><ele>514.0</ele><time>2026-03-22T11:57:47.954Z</time></trkpt><trkpt lat="40.6835018" lon="14.9387655"><ele>517.8333333333334</ele><time>2026-03-22T11:57:49.037Z</time></trkpt><trkpt lat="40.683407" lon="14.9387766"><ele>521.6666666666667</ele><time>2026-03-22T11:57:50.029Z</time></trkpt><trkpt lat="40.6833246" lon="14.9387748"><ele>525.5</ele><time>2026-03-22T11:57:51.03Z</time></trkpt><trkpt lat="40.683256" lon="14.9387465"><ele>529.3333333333334</ele><time>2026-03-22T11:57:51.958Z</time></trkpt><trkpt lat="40.6831929" lon="14.9386781"><ele>533.1666666666666</ele><time>2026-03-22T11:57:52.958Z</time></trkpt><trkpt lat="40.6831285" lon="14.9385542"><ele>537.0</ele><time>2026-03-22T11:57:53.983Z</time></trkpt><trkpt lat="40.6830618" lon="14.9384221"><ele>535.6666666666666</ele><time>2026-03-22T11:57:55.031Z</time></trkpt><trkpt lat="40.6830384" lon="14.938324"><ele>534.3333333333334</ele><time>2026-03-22T11:57:56.034Z</time></trkpt><trkpt lat="40.6830624" lon="14.9381907"><ele>533.0</ele><time>2026-03-22T11:57:57.956Z</time></trkpt><trkpt lat="40.683078" lon="14.9380655"><ele>531.6666666666667</ele><time>2026-03-22T11:57:59.96Z</time></trkpt><trkpt lat="40.6830831" lon="14.9379708"><ele>530.3333333333334</ele><time>2026-03-22T11:58:01.956Z</time></trkpt><trkpt lat="40.6830793" lon="14.9378759"><ele>529.0</ele><time>2026-03-22T11:58:03.961Z</time></trkpt><trkpt lat="40.6830696" lon="14.9377831"><ele>529.0</ele><time>2026-03-22T11:58:06.044Z</time></trkpt><trkpt lat="40.6830674" lon="14.937686"><ele>529.0</ele><time>2026-03-22T11:58:07.945Z</time></trkpt><trkpt lat="40.6830656" lon="14.9375857"><ele>529.0</ele><time>2026-03-22T11:58:09.956Z</time></trkpt><trkpt lat="40.6830371" lon="14.9374896"><ele>529.0</ele><time>2026-03-22T11:58:11.944Z</time></trkpt><trkpt lat="40.6830137" lon="14.9373992"><ele>529.0</ele><time>2026-03-22T11:58:13.946Z</time></trkpt><trkpt lat="40.6829943" lon="14.9372719"><ele>529.0</ele><time>2026-03-22T11:58:15.953Z</time></trkpt><trkpt lat="40.6829956" lon="14.9371865"><ele>528.1428571428571</ele><time>2026-03-22T11:58:17.957Z</time></trkpt><trkpt lat="40.6830506" lon="14.9371296"><ele>527.2857142857142</ele><time>2026-03-22T11:58:20.957Z</time></trkpt><trkpt lat="40.6830908" lon="14.9370519"><ele>526.4285714285713</ele><time>2026-03-22T11:58:24.027Z</time></trkpt><trkpt lat="40.6830546" lon="14.9369569"><ele>525.5714285714286</ele><time>2026-03-22T11:58:27.959Z</time></trkpt><trkpt lat="40.6830129" lon="14.9368851"><ele>524.7142857142857</ele><time>2026-03-22T11:58:28.953Z</time></trkpt><trkpt lat="40.6829884" lon="14.936788"><ele>523.8571428571428</ele><time>2026-03-22T11:58:29.956Z</time></trkpt><trkpt lat="40.6829764" lon="14.9366976"><ele>523.0</ele><time>2026-03-22T11:58:30.948Z</time></trkpt><trkpt lat="40.6829695" lon="14.9366087"><ele>522.6666666666667</ele><time>2026-03-22T11:58:33.006Z</time></trkpt><trkpt lat="40.682918" lon="14.9364796"><ele>522.3333333333334</ele><time>2026-03-22T11:58:34.952Z</time></trkpt><trkpt lat="40.682893" lon="14.9363982"><ele>522.0</ele><time>2026-03-22T11:58:35.959Z</time></trkpt><trkpt lat="40.6828778" lon="14.9363137"><ele>521.6666666666666</ele><time>2026-03-22T11:58:36.938Z</time></trkpt><trkpt lat="40.6828484" lon="14.9362322"><ele>521.3333333333333</ele><time>2026-03-22T11:59:40.971Z</time></trkpt><trkpt lat="40.6829561" lon="14.9361458"><ele>521.0</ele><time>2026-03-22T11:59:45.022Z</time></trkpt><trkpt lat="40.683022" lon="14.9360844"><ele>521.0</ele><time>2026-03-22T11:59:45.963Z</time></trkpt><trkpt lat="40.6830965" lon="14.9360121"><ele>521.0</ele><time>2026-03-22T11:59:46.96Z</time></trkpt><trkpt lat="40.6831714" lon="14.9359324"><ele>521.0</ele><time>2026-03-22T11:59:47.967Z</time></trkpt><trkpt lat="40.6832371" lon="14.9358584"><ele>521.0</ele><time>2026-03-22T11:59:48.959Z</time></trkpt><trkpt lat="40.683294" lon="14.9358055"><ele>521.0</ele><time>2026-03-22T11:59:49.98Z</time></trkpt><trkpt lat="40.6833893" lon="14.9357374"><ele>519.0</ele><time>2026-03-22T11:59:51.965Z</time></trkpt><trkpt lat="40.6834746" lon="14.9357036"><ele>517.0</ele><time>2026-03-22T11:59:54.966Z</time></trkpt><trkpt lat="40.6835866" lon="14.9357759"><ele>515.0</ele><time>2026-03-22T11:59:56.956Z</time></trkpt><trkpt lat="40.6836399" lon="14.9358242"><ele>513.0</ele><time>2026-03-22T11:59:58.038Z</time></trkpt><trkpt lat="40.6837222" lon="14.9359616"><ele>511.0</ele><time>2026-03-22T12:00:00.036Z</time></trkpt><trkpt lat="40.68379" lon="14.9360585"><ele>505.4</ele><time>2026-03-22T12:00:01.951Z</time></trkpt><trkpt lat="40.6838451" lon="14.9361023"><ele>499.8</ele><time>2026-03-22T12:00:03.96Z</time></trkpt><trkpt lat="40.6839125" lon="14.9361881"><ele>494.19999999999993</ele><time>2026-03-22T12:00:07.048Z</time></trkpt><trkpt lat="40.6839388" lon="14.9363103"><ele>488.59999999999997</ele><time>2026-03-22T12:00:09.961Z</time></trkpt><trkpt lat="40.6839434" lon="14.9364467"><ele>483.0</ele><time>2026-03-22T12:00:11.954Z</time></trkpt><trkpt lat="40.683948" lon="14.9365947"><ele>483.0</ele><time>2026-03-22T12:00:13.949Z</time></trkpt><trkpt lat="40.6839577" lon="14.936711"><ele>483.0</ele><time>2026-03-22T12:00:14.981Z</time></trkpt><trkpt lat="40.6839438" lon="14.9368346"><ele>483.0</ele><time>2026-03-22T12:00:15.955Z</time></trkpt><trkpt lat="40.6839239" lon="14.9369395"><ele>483.0</ele><time>2026-03-22T12:00:16.955Z</time></trkpt><trkpt lat="40.6839037" lon="14.9370381"><ele>483.0</ele><time>2026-03-22T12:00:17.956Z</time></trkpt><trkpt lat="40.6838777" lon="14.9371469"><ele>483.0</ele><time>2026-03-22T12:00:18.955Z</time></trkpt><trkpt lat="40.6838737" lon="14.9372662"><ele>483.1666666666667</ele><time>2026-03-22T12:00:19.95Z</time></trkpt><trkpt lat="40.6838841" lon="14.937391"><ele>483.33333333333337</ele><time>2026-03-22T12:00:20.955Z</time></trkpt><trkpt lat="40.6838965" lon="14.9374881"><ele>483.5</ele><time>2026-03-22T12:00:21.951Z</time></trkpt><trkpt lat="40.6838999" lon="14.9375996"><ele>483.6666666666667</ele><time>2026-03-22T12:00:22.953Z</time></trkpt><trkpt lat="40.6838967" lon="14.937714"><ele>483.83333333333337</ele><time>2026-03-22T12:00:23.953Z</time></trkpt><trkpt lat="40.6839605" lon="14.9378136"><ele>484.0</ele><time>2026-03-22T12:00:25.949Z</time></trkpt><trkpt lat="40.6840236" lon="14.9378211"><ele>483.2</ele><time>2026-03-22T12:00:26.947Z</time></trkpt><trkpt lat="40.6840935" lon="14.9378182"><ele>482.4</ele><time>2026-03-22T12:00:27.96Z</time></trkpt><trkpt lat="40.6841855" lon="14.9377985"><ele>481.6</ele><time>2026-03-22T12:00:28.951Z</time></trkpt><trkpt lat="40.6842825" lon="14.9377859"><ele>480.8</ele><time>2026-03-22T12:00:29.949Z</time></trkpt><trkpt lat="40.6843679" lon="14.9378045"><ele>480.0</ele><time>2026-03-22T12:00:30.955Z</time></trkpt><trkpt lat="40.6844489" lon="14.9379254"><ele>480.0</ele><time>2026-03-22T12:00:32.951Z</time></trkpt><trkpt lat="40.6844588" lon="14.9380277"><ele>480.0</ele><time>2026-03-22T12:00:33.952Z</time></trkpt><trkpt lat="40.6844699" lon="14.9381549"><ele>480.0</ele><time>2026-03-22T12:00:34.948Z</time></trkpt><trkpt lat="40.6844948" lon="14.9382845"><ele>480.0</ele><time>2026-03-22T12:00:35.955Z</time></trkpt><trkpt lat="40.6845313" lon="14.9384078"><ele>480.0</ele><time>2026-03-22T12:00:36.951Z</time></trkpt><trkpt lat="40.6845777" lon="14.9385181"><ele>483.3333333333333</ele><time>2026-03-22T12:00:37.959Z</time></trkpt><trkpt lat="40.6846299" lon="14.9386117"><ele>486.66666666666663</ele><time>2026-03-22T12:00:38.952Z</time></trkpt><trkpt lat="40.6846944" lon="14.9386769"><ele>490.0</ele><time>2026-03-22T12:00:39.939Z</time></trkpt><trkpt lat="40.6847772" lon="14.9387019"><ele>493.3333333333333</ele><time>2026-03-22T12:00:40.953Z</time></trkpt><trkpt lat="40.6848784" lon="14.938708"><ele>496.66666666666663</ele><time>2026-03-22T12:00:41.949Z</time></trkpt><trkpt lat="40.6849505" lon="14.9387109"><ele>500.0</ele><time>2026-03-22T12:00:42.957Z</time></trkpt><trkpt lat="40.685025" lon="14.9386595"><ele>500.0</ele><time>2026-03-22T12:00:43.952Z</time></trkpt><trkpt lat="40.6850981" lon="14.9385891"><ele>500.0</ele><time>2026-03-22T12:00:44.953Z</time></trkpt><trkpt lat="40.6851611" lon="14.9384933"><ele>500.0</ele><time>2026-03-22T12:00:45.953Z</time></trkpt><trkpt lat="40.685209" lon="14.9384182"><ele>500.0</ele><time>2026-03-22T12:00:46.957Z</time></trkpt><trkpt lat="40.6852152" lon="14.9382982"><ele>500.0</ele><time>2026-03-22T12:00:50.956Z</time></trkpt><trkpt lat="40.6852145" lon="14.9381648"><ele>500.4</ele><time>2026-03-22T12:00:52.946Z</time></trkpt><trkpt lat="40.6852291" lon="14.9379863"><ele>500.8</ele><time>2026-03-22T12:00:54.953Z</time></trkpt><trkpt lat="40.6852487" lon="14.9378864"><ele>501.20000000000005</ele><time>2026-03-22T12:00:55.952Z</time></trkpt><trkpt lat="40.68527" lon="14.937804"><ele>501.6</ele><time>2026-03-22T12:00:56.954Z</time></trkpt><trkpt lat="40.6853225" lon="14.9376611"><ele>502.0</ele><time>2026-03-22T12:00:58.949Z</time></trkpt><trkpt lat="40.6853524" lon="14.9375752"><ele>499.33333333333337</ele><time>2026-03-22T12:00:59.953Z</time></trkpt><trkpt lat="40.6853876" lon="14.9374927"><ele>496.6666666666667</ele><time>2026-03-22T12:01:00.946Z</time></trkpt><trkpt lat="40.6853896" lon="14.9373868"><ele>494.0</ele><time>2026-03-22T12:01:02.951Z</time></trkpt><trkpt lat="40.6853091" lon="14.937428"><ele>491.33333333333337</ele><time>2026-03-22T12:01:05.955Z</time></trkpt><trkpt lat="40.6852518" lon="14.9374781"><ele>488.6666666666667</ele><time>2026-03-22T12:01:06.956Z</time></trkpt><trkpt lat="40.685183" lon="14.9375271"><ele>486.0</ele><time>2026-03-22T12:01:07.949Z</time></trkpt><trkpt lat="40.6851031" lon="14.9375697"><ele>484.8</ele><time>2026-03-22T12:01:08.948Z</time></trkpt><trkpt lat="40.6850108" lon="14.9376255"><ele>483.6</ele><time>2026-03-22T12:01:10.948Z</time></trkpt><trkpt lat="40.6849284" lon="14.9375212"><ele>482.4</ele><time>2026-03-22T12:01:12.95Z</time></trkpt><trkpt lat="40.6849224" lon="14.9374255"><ele>481.2</ele><time>2026-03-22T12:01:14.952Z</time></trkpt><trkpt lat="40.6850035" lon="14.937299"><ele>480.0</ele><time>2026-03-22T12:01:16.957Z</time></trkpt><trkpt lat="40.6850561" lon="14.9372166"><ele>477.5</ele><time>2026-03-22T12:01:17.95Z</time></trkpt><trkpt lat="40.6850994" lon="14.9371549"><ele>475.0</ele><time>2026-03-22T12:01:18.949Z</time></trkpt><trkpt lat="40.6851427" lon="14.9370788"><ele>472.5</ele><time>2026-03-22T12:01:19.957Z</time></trkpt><trkpt lat="40.6851581" lon="14.936989"><ele>470.0</ele><time>2026-03-22T12:01:20.951Z</time></trkpt><trkpt lat="40.6851617" lon="14.9368602"><ele>467.5</ele><time>2026-03-22T12:01:21.949Z</time></trkpt><trkpt lat="40.6851843" lon="14.9367026"><ele>465.0</ele><time>2026-03-22T12:01:22.947Z</time></trkpt><trkpt lat="40.6852039" lon="14.9365466"><ele>462.4</ele><time>2026-03-22T12:01:23.957Z</time></trkpt><trkpt lat="40.6852272" lon="14.936413"><ele>459.8</ele><time>2026-03-22T12:01:24.951Z</time></trkpt><trkpt lat="40.6852516" lon="14.9362868"><ele>457.20000000000005</ele><time>2026-03-22T12:01:25.949Z</time></trkpt><trkpt lat="40.6852746" lon="14.9361697"><ele>454.6</ele><time>2026-03-22T12:01:26.941Z</time></trkpt><trkpt lat="40.6852979" lon="14.9360644"><ele>452.0</ele><time>2026-03-22T12:01:27.952Z</time></trkpt><trkpt lat="40.685313" lon="14.9359517"><ele>452.99999999999994</ele><time>2026-03-22T12:01:28.945Z</time></trkpt><trkpt lat="40.6853306" lon="14.9358448"><ele>454.0</ele><time>2026-03-22T12:01:29.95Z</time></trkpt><trkpt lat="40.6853463" lon="14.935743"><ele>455.0</ele><time>2026-03-22T12:01:30.954Z</time></trkpt><trkpt lat="40.6853614" lon="14.9356392"><ele>456.0</ele><time>2026-03-22T12:01:31.952Z</time></trkpt><trkpt lat="40.6853853" lon="14.935545"><ele>456.99999999999994</ele><time>2026-03-22T12:01:32.955Z</time></trkpt><trkpt lat="40.6854104" lon="14.9354352"><ele>458.0</ele><time>2026-03-22T12:01:33.95Z</time></trkpt><trkpt lat="40.6854362" lon="14.9353344"><ele>458.0</ele><time>2026-03-22T12:01:34.95Z</time></trkpt><trkpt lat="40.6854479" lon="14.9352523"><ele>457.99999999999994</ele><time>2026-03-22T12:01:35.954Z</time></trkpt><trkpt lat="40.6854712" lon="14.9350994"><ele>457.99999999999994</ele><time>2026-03-22T12:01:37.955Z</time></trkpt><trkpt lat="40.6854987" lon="14.9349413"><ele>458.0</ele><time>2026-03-22T12:01:39.956Z</time></trkpt><trkpt lat="40.6855319" lon="14.9348457"><ele>458.0</ele><time>2026-03-22T12:01:40.947Z</time></trkpt><trkpt lat="40.6855671" lon="14.9347478"><ele>453.4</ele><time>2026-03-22T12:01:41.951Z</time></trkpt><trkpt lat="40.6856059" lon="14.9346432"><ele>448.79999999999995</ele><time>2026-03-22T12:01:42.949Z</time></trkpt><trkpt lat="40.6856566" lon="14.9345379"><ele>444.2</ele><time>2026-03-22T12:01:43.949Z</time></trkpt><trkpt lat="40.6857225" lon="14.9344323"><ele>439.6</ele><time>2026-03-22T12:01:44.954Z</time></trkpt><trkpt lat="40.6857807" lon="14.9343311"><ele>435.0</ele><time>2026-03-22T12:01:45.946Z</time></trkpt><trkpt lat="40.68583" lon="14.934235"><ele>431.1666666666667</ele><time>2026-03-22T12:01:46.948Z</time></trkpt><trkpt lat="40.6858687" lon="14.9341418"><ele>427.33333333333337</ele><time>2026-03-22T12:01:47.953Z</time></trkpt><trkpt lat="40.6858903" lon="14.9340433"><ele>423.5</ele><time>2026-03-22T12:01:48.955Z</time></trkpt><trkpt lat="40.6859067" lon="14.9339405"><ele>419.6666666666667</ele><time>2026-03-22T12:01:49.943Z</time></trkpt><trkpt lat="40.6859312" lon="14.9338535"><ele>415.83333333333337</ele><time>2026-03-22T12:01:50.949Z</time></trkpt><trkpt lat="40.6859659" lon="14.9337615"><ele>412.0</ele><time>2026-03-22T12:01:51.95Z</time></trkpt><trkpt lat="40.6859993" lon="14.9336583"><ele>412.00000000000006</ele><time>2026-03-22T12:01:52.948Z</time></trkpt><trkpt lat="40.6860362" lon="14.9335677"><ele>412.0</ele><time>2026-03-22T12:01:53.95Z</time></trkpt><trkpt lat="40.6860633" lon="14.9334893"><ele>412.0</ele><time>2026-03-22T12:01:54.953Z</time></trkpt><trkpt lat="40.6861309" lon="14.9333558"><ele>412.0</ele><time>2026-03-22T12:01:56.949Z</time></trkpt><trkpt lat="40.6861736" lon="14.9332829"><ele>412.00000000000006</ele><time>2026-03-22T12:01:57.954Z</time></trkpt><trkpt lat="40.6862245" lon="14.9332067"><ele>412.0</ele><time>2026-03-22T12:01:58.945Z</time></trkpt><trkpt lat="40.6862841" lon="14.933131"><ele>410.40000000000003</ele><time>2026-03-22T12:01:59.95Z</time></trkpt><trkpt lat="40.6863481" lon="14.9330543"><ele>408.8</ele><time>2026-03-22T12:02:00.949Z</time></trkpt><trkpt lat="40.6864012" lon="14.9329929"><ele>407.2</ele><time>2026-03-22T12:02:01.951Z</time></trkpt><trkpt lat="40.6865175" lon="14.9328983"><ele>405.6</ele><time>2026-03-22T12:02:03.946Z</time></trkpt><trkpt lat="40.6865801" lon="14.932843"><ele>404.0</ele><time>2026-03-22T12:02:05.027Z</time></trkpt><trkpt lat="40.6866452" lon="14.9327783"><ele>403.99999999999994</ele><time>2026-03-22T12:02:05.958Z</time></trkpt><trkpt lat="40.6867075" lon="14.9327092"><ele>404.0</ele><time>2026-03-22T12:02:06.965Z</time></trkpt><trkpt lat="40.6867506" lon="14.9326448"><ele>404.0</ele><time>2026-03-22T12:02:07.965Z</time></trkpt><trkpt lat="40.6867982" lon="14.9325814"><ele>404.0</ele><time>2026-03-22T12:02:08.958Z</time></trkpt><trkpt lat="40.6868518" lon="14.9325209"><ele>403.99999999999994</ele><time>2026-03-22T12:02:09.972Z</time></trkpt><trkpt lat="40.6869105" lon="14.9324493"><ele>404.0</ele><time>2026-03-22T12:02:10.963Z</time></trkpt><trkpt lat="40.6869706" lon="14.9323667"><ele>400.16666666666663</ele><time>2026-03-22T12:02:11.959Z</time></trkpt><trkpt lat="40.6870339" lon="14.9322995"><ele>396.3333333333333</ele><time>2026-03-22T12:02:12.963Z</time></trkpt><trkpt lat="40.6871322" lon="14.9322069"><ele>392.5</ele><time>2026-03-22T12:02:14.98Z</time></trkpt><trkpt lat="40.6871862" lon="14.9321427"><ele>388.66666666666663</ele><time>2026-03-22T12:02:15.963Z</time></trkpt><trkpt lat="40.6872402" lon="14.9320821"><ele>384.8333333333333</ele><time>2026-03-22T12:02:16.964Z</time></trkpt><trkpt lat="40.6872952" lon="14.9320144"><ele>381.0</ele><time>2026-03-22T12:02:17.961Z</time></trkpt><trkpt lat="40.6873588" lon="14.9319425"><ele>381.0</ele><time>2026-03-22T12:02:18.957Z</time></trkpt><trkpt lat="40.6874306" lon="14.9318779"><ele>381.0</ele><time>2026-03-22T12:02:19.967Z</time></trkpt><trkpt lat="40.6875044" lon="14.931826"><ele>381.0</ele><time>2026-03-22T12:02:20.961Z</time></trkpt><trkpt lat="40.687574" lon="14.9317734"><ele>381.0</ele><time>2026-03-22T12:02:21.946Z</time></trkpt><trkpt lat="40.6876447" lon="14.931724"><ele>381.0</ele><time>2026-03-22T12:02:23.036Z</time></trkpt><trkpt lat="40.6877204" lon="14.9316897"><ele>381.0</ele><time>2026-03-22T12:02:23.982Z</time></trkpt><trkpt lat="40.6878135" lon="14.9316795"><ele>379.8333333333333</ele><time>2026-03-22T12:02:24.966Z</time></trkpt><trkpt lat="40.6879055" lon="14.931692"><ele>378.6666666666667</ele><time>2026-03-22T12:02:26.027Z</time></trkpt><trkpt lat="40.6879913" lon="14.9317202"><ele>377.5</ele><time>2026-03-22T12:02:26.95Z</time></trkpt><trkpt lat="40.6880725" lon="14.9317581"><ele>376.33333333333337</ele><time>2026-03-22T12:02:27.949Z</time></trkpt><trkpt lat="40.68814" lon="14.9317955"><ele>375.1666666666667</ele><time>2026-03-22T12:02:28.979Z</time></trkpt><trkpt lat="40.688232" lon="14.9317992"><ele>374.0</ele><time>2026-03-22T12:02:31.031Z</time></trkpt><trkpt lat="40.6883253" lon="14.9317058"><ele>367.0</ele><time>2026-03-22T12:02:32.95Z</time></trkpt><trkpt lat="40.6884115" lon="14.9315913"><ele>360.0</ele><time>2026-03-22T12:02:34.955Z</time></trkpt><trkpt lat="40.6884967" lon="14.9315028"><ele>353.0</ele><time>2026-03-22T12:02:36.96Z</time></trkpt><trkpt lat="40.6885627" lon="14.9313168"><ele>346.0</ele><time>2026-03-22T12:02:38.984Z</time></trkpt><trkpt lat="40.6885982" lon="14.9311995"><ele>343.8333333333333</ele><time>2026-03-22T12:02:40.025Z</time></trkpt><trkpt lat="40.6886249" lon="14.9310882"><ele>341.66666666666663</ele><time>2026-03-22T12:02:40.952Z</time></trkpt><trkpt lat="40.6886253" lon="14.9309762"><ele>339.5</ele><time>2026-03-22T12:02:41.956Z</time></trkpt><trkpt lat="40.6886206" lon="14.9308611"><ele>337.3333333333333</ele><time>2026-03-22T12:02:42.952Z</time></trkpt><trkpt lat="40.6886201" lon="14.9307472"><ele>335.1666666666667</ele><time>2026-03-22T12:02:44.027Z</time></trkpt><trkpt lat="40.6886096" lon="14.930644"><ele>333.0</ele><time>2026-03-22T12:02:44.96Z</time></trkpt><trkpt lat="40.6885814" lon="14.9305457"><ele>331.8333333333333</ele><time>2026-03-22T12:02:46.032Z</time></trkpt><trkpt lat="40.6885637" lon="14.9304614"><ele>330.6666666666667</ele><time>2026-03-22T12:02:46.955Z</time></trkpt><trkpt lat="40.6885729" lon="14.9303309"><ele>329.5</ele><time>2026-03-22T12:02:48.977Z</time></trkpt><trkpt lat="40.6886231" lon="14.9302556"><ele>328.33333333333337</ele><time>2026-03-22T12:02:49.957Z</time></trkpt><trkpt lat="40.6886917" lon="14.9301653"><ele>327.1666666666667</ele><time>2026-03-22T12:02:50.954Z</time></trkpt><trkpt lat="40.688766" lon="14.9300712"><ele>326.0</ele><time>2026-03-22T12:02:51.949Z</time></trkpt><trkpt lat="40.6888462" lon="14.9299546"><ele>321.0</ele><time>2026-03-22T12:02:52.94Z</time></trkpt><trkpt lat="40.6889279" lon="14.9298315"><ele>316.0</ele><time>2026-03-22T12:02:53.946Z</time></trkpt><trkpt lat="40.6890026" lon="14.9297012"><ele>311.0</ele><time>2026-03-22T12:02:54.95Z</time></trkpt><trkpt lat="40.6890872" lon="14.9295748"><ele>306.0</ele><time>2026-03-22T12:02:55.94Z</time></trkpt><trkpt lat="40.68919" lon="14.9294513"><ele>306.0</ele><time>2026-03-22T12:02:56.956Z</time></trkpt><trkpt lat="40.6893015" lon="14.9293227"><ele>306.0</ele><time>2026-03-22T12:02:57.95Z</time></trkpt><trkpt lat="40.6893998" lon="14.9292138"><ele>306.0</ele><time>2026-03-22T12:02:58.947Z</time></trkpt><trkpt lat="40.6894983" lon="14.9291232"><ele>306.0</ele><time>2026-03-22T12:02:59.949Z</time></trkpt><trkpt lat="40.6895926" lon="14.9290357"><ele>302.0</ele><time>2026-03-22T12:03:00.957Z</time></trkpt><trkpt lat="40.6896853" lon="14.9289559"><ele>298.0</ele><time>2026-03-22T12:03:01.954Z</time></trkpt><trkpt lat="40.6897649" lon="14.9288901"><ele>294.0</ele><time>2026-03-22T12:03:02.939Z</time></trkpt><trkpt lat="40.6898386" lon="14.9288268"><ele>290.0</ele><time>2026-03-22T12:03:04.072Z</time></trkpt><trkpt lat="40.6899106" lon="14.9287708"><ele>286.0</ele><time>2026-03-22T12:03:05.04Z</time></trkpt><trkpt lat="40.6899758" lon="14.9287108"><ele>286.0</ele><time>2026-03-22T12:03:05.942Z</time></trkpt><trkpt lat="40.6900397" lon="14.928624"><ele>286.0</ele><time>2026-03-22T12:03:06.945Z</time></trkpt><trkpt lat="40.6900811" lon="14.9284827"><ele>286.0</ele><time>2026-03-22T12:03:07.946Z</time></trkpt><trkpt lat="40.6901232" lon="14.928348"><ele>286.0</ele><time>2026-03-22T12:03:08.952Z</time></trkpt><trkpt lat="40.6901798" lon="14.9282359"><ele>286.0</ele><time>2026-03-22T12:03:09.955Z</time></trkpt><trkpt lat="40.6902562" lon="14.9281306"><ele>283.0</ele><time>2026-03-22T12:03:10.945Z</time></trkpt><trkpt lat="40.6903403" lon="14.9280354"><ele>280.0</ele><time>2026-03-22T12:03:11.945Z</time></trkpt><trkpt lat="40.6904204" lon="14.9279446"><ele>277.0</ele><time>2026-03-22T12:03:12.937Z</time></trkpt><trkpt lat="40.6904783" lon="14.927879"><ele>274.0</ele><time>2026-03-22T12:03:14.024Z</time></trkpt><trkpt lat="40.6905278" lon="14.9277374"><ele>271.0</ele><time>2026-03-22T12:03:16.026Z</time></trkpt><trkpt lat="40.6905211" lon="14.9276195"><ele>270.0</ele><time>2026-03-22T12:03:16.944Z</time></trkpt><trkpt lat="40.6905267" lon="14.9275181"><ele>269.0</ele><time>2026-03-22T12:03:17.951Z</time></trkpt><trkpt lat="40.6905317" lon="14.927433"><ele>268.0</ele><time>2026-03-22T12:03:19.008Z</time></trkpt><trkpt lat="40.6905546" lon="14.9273452"><ele>267.0</ele><time>2026-03-22T12:03:20.031Z</time></trkpt><trkpt lat="40.6905824" lon="14.9272647"><ele>266.0</ele><time>2026-03-22T12:03:20.969Z</time></trkpt><trkpt lat="40.690639" lon="14.9271873"><ele>265.0</ele><time>2026-03-22T12:03:22.96Z</time></trkpt><trkpt lat="40.6906246" lon="14.9270851"><ele>264.0</ele><time>2026-03-22T12:03:25.959Z</time></trkpt><trkpt lat="40.6905898" lon="14.926999"><ele>264.0</ele><time>2026-03-22T12:03:26.959Z</time></trkpt><trkpt lat="40.6905397" lon="14.9268798"><ele>264.0</ele><time>2026-03-22T12:03:27.975Z</time></trkpt><trkpt lat="40.6904983" lon="14.9267488"><ele>264.0</ele><time>2026-03-22T12:03:28.966Z</time></trkpt><trkpt lat="40.6904717" lon="14.9266229"><ele>264.0</ele><time>2026-03-22T12:03:29.957Z</time></trkpt><trkpt lat="40.6904544" lon="14.9265184"><ele>264.0</ele><time>2026-03-22T12:03:30.958Z</time></trkpt><trkpt lat="40.6904447" lon="14.9263995"><ele>263.2</ele><time>2026-03-22T12:03:32.967Z</time></trkpt><trkpt lat="40.6904269" lon="14.9262871"><ele>262.4</ele><time>2026-03-22T12:03:34.958Z</time></trkpt><trkpt lat="40.6904121" lon="14.9262059"><ele>261.6</ele><time>2026-03-22T12:03:35.967Z</time></trkpt><trkpt lat="40.6903902" lon="14.9260983"><ele>260.8</ele><time>2026-03-22T12:03:36.961Z</time></trkpt><trkpt lat="40.6903558" lon="14.9259717"><ele>260.0</ele><time>2026-03-22T12:03:37.964Z</time></trkpt><trkpt lat="40.6902977" lon="14.9258321"><ele>260.25</ele><time>2026-03-22T12:03:38.958Z</time></trkpt><trkpt lat="40.6902274" lon="14.9256871"><ele>260.5</ele><time>2026-03-22T12:03:39.969Z</time></trkpt><trkpt lat="40.6901508" lon="14.9255468"><ele>260.75</ele><time>2026-03-22T12:03:40.958Z</time></trkpt><trkpt lat="40.6900671" lon="14.9254172"><ele>261.0</ele><time>2026-03-22T12:03:41.966Z</time></trkpt><trkpt lat="40.6899738" lon="14.92531"><ele>261.0</ele><time>2026-03-22T12:03:42.963Z</time></trkpt><trkpt lat="40.6898694" lon="14.9252319"><ele>261.0</ele><time>2026-03-22T12:03:44.023Z</time></trkpt><trkpt lat="40.6897534" lon="14.9251698"><ele>261.0</ele><time>2026-03-22T12:03:45.031Z</time></trkpt><trkpt lat="40.6896302" lon="14.925118"><ele>261.0</ele><time>2026-03-22T12:03:46.032Z</time></trkpt><trkpt lat="40.6895001" lon="14.9250933"><ele>263.0</ele><time>2026-03-22T12:03:46.957Z</time></trkpt><trkpt lat="40.6893662" lon="14.9250774"><ele>265.0</ele><time>2026-03-22T12:03:48.041Z</time></trkpt><trkpt lat="40.6892345" lon="14.9250684"><ele>267.0</ele><time>2026-03-22T12:03:49.019Z</time></trkpt><trkpt lat="40.6890906" lon="14.9250808"><ele>269.0</ele><time>2026-03-22T12:03:50.034Z</time></trkpt><trkpt lat="40.6889485" lon="14.9251124"><ele>269.0</ele><time>2026-03-22T12:03:51.004Z</time></trkpt><trkpt lat="40.6888191" lon="14.9251436"><ele>269.0</ele><time>2026-03-22T12:03:51.965Z</time></trkpt><trkpt lat="40.6886855" lon="14.9251807"><ele>269.0</ele><time>2026-03-22T12:03:52.953Z</time></trkpt><trkpt lat="40.688553" lon="14.9252159"><ele>269.0</ele><time>2026-03-22T12:03:53.965Z</time></trkpt><trkpt lat="40.6884253" lon="14.92524"><ele>269.0</ele><time>2026-03-22T12:03:54.958Z</time></trkpt><trkpt lat="40.6883035" lon="14.925253"><ele>269.0</ele><time>2026-03-22T12:03:55.957Z</time></trkpt><trkpt lat="40.6881837" lon="14.9252241"><ele>269.0</ele><time>2026-03-22T12:03:56.964Z</time></trkpt><trkpt lat="40.6880721" lon="14.9251626"><ele>269.0</ele><time>2026-03-22T12:03:58.031Z</time></trkpt><trkpt lat="40.68797" lon="14.9250702"><ele>268.0</ele><time>2026-03-22T12:03:59.02Z</time></trkpt><trkpt lat="40.6878845" lon="14.9249651"><ele>267.0</ele><time>2026-03-22T12:03:59.985Z</time></trkpt><trkpt lat="40.6878199" lon="14.9248304"><ele>266.0</ele><time>2026-03-22T12:04:00.977Z</time></trkpt><trkpt lat="40.687783" lon="14.9246699"><ele>265.0</ele><time>2026-03-22T12:04:01.965Z</time></trkpt><trkpt lat="40.6877582" lon="14.9244998"><ele>265.0</ele><time>2026-03-22T12:04:02.952Z</time></trkpt><trkpt lat="40.6877339" lon="14.9243218"><ele>265.0</ele><time>2026-03-22T12:04:04.052Z</time></trkpt><trkpt lat="40.6877096" lon="14.9241399"><ele>265.0</ele><time>2026-03-22T12:04:05.026Z</time></trkpt><trkpt lat="40.6876798" lon="14.9239728"><ele>265.0</ele><time>2026-03-22T12:04:06.032Z</time></trkpt><trkpt lat="40.6876457" lon="14.9238334"><ele>263.5</ele><time>2026-03-22T12:04:06.968Z</time></trkpt><trkpt lat="40.6875782" lon="14.9236986"><ele>262.0</ele><time>2026-03-22T12:04:07.967Z</time></trkpt><trkpt lat="40.6874832" lon="14.923571"><ele>260.5</ele><time>2026-03-22T12:04:08.965Z</time></trkpt><trkpt lat="40.687388" lon="14.9234272"><ele>259.0</ele><time>2026-03-22T12:04:10.037Z</time></trkpt><trkpt lat="40.6872958" lon="14.9232651"><ele>258.0</ele><time>2026-03-22T12:04:10.956Z</time></trkpt><trkpt lat="40.6872186" lon="14.9230872"><ele>257.0</ele><time>2026-03-22T12:04:11.964Z</time></trkpt><trkpt lat="40.6871537" lon="14.9228937"><ele>256.0</ele><time>2026-03-22T12:04:12.952Z</time></trkpt><trkpt lat="40.6870936" lon="14.9226976"><ele>254.33333333333331</ele><time>2026-03-22T12:04:13.951Z</time></trkpt><trkpt lat="40.6870351" lon="14.9224963"><ele>252.66666666666669</ele><time>2026-03-22T12:04:14.952Z</time></trkpt><trkpt lat="40.6869791" lon="14.922291"><ele>251.0</ele><time>2026-03-22T12:04:15.955Z</time></trkpt><trkpt lat="40.686922" lon="14.9220891"><ele>255.66666666666669</ele><time>2026-03-22T12:04:16.955Z</time></trkpt><trkpt lat="40.6868602" lon="14.9218929"><ele>260.3333333333333</ele><time>2026-03-22T12:04:17.944Z</time></trkpt><trkpt lat="40.6867991" lon="14.9216952"><ele>265.0</ele><time>2026-03-22T12:04:18.957Z</time></trkpt><trkpt lat="40.686741" lon="14.921496"><ele>265.0</ele><time>2026-03-22T12:04:19.954Z</time></trkpt><trkpt lat="40.6866897" lon="14.9212971"><ele>265.0</ele><time>2026-03-22T12:04:20.957Z</time></trkpt><trkpt lat="40.6866273" lon="14.9211006"><ele>265.0</ele><time>2026-03-22T12:04:21.954Z</time></trkpt><trkpt lat="40.686569" lon="14.9209099"><ele>264.5</ele><time>2026-03-22T12:04:22.959Z</time></trkpt><trkpt lat="40.6865136" lon="14.9207175"><ele>264.0</ele><time>2026-03-22T12:04:23.958Z</time></trkpt><trkpt lat="40.6864551" lon="14.9205292"><ele>263.5</ele><time>2026-03-22T12:04:25.036Z</time></trkpt><trkpt lat="40.6864071" lon="14.9203572"><ele>263.0</ele><time>2026-03-22T12:04:26.001Z</time></trkpt><trkpt lat="40.6863573" lon="14.9202159"><ele>263.0</ele><time>2026-03-22T12:04:26.955Z</time></trkpt><trkpt lat="40.686288" lon="14.9200863"><ele>263.0</ele><time>2026-03-22T12:04:27.951Z</time></trkpt><trkpt lat="40.6861953" lon="14.9199635"><ele>263.0</ele><time>2026-03-22T12:04:28.953Z</time></trkpt><trkpt lat="40.6860851" lon="14.919856"><ele>263.0</ele><time>2026-03-22T12:04:29.953Z</time></trkpt><trkpt lat="40.6859612" lon="14.9197648"><ele>265.33333333333337</ele><time>2026-03-22T12:04:30.952Z</time></trkpt><trkpt lat="40.6858255" lon="14.9196898"><ele>267.6666666666667</ele><time>2026-03-22T12:04:31.951Z</time></trkpt><trkpt lat="40.6856782" lon="14.9196096"><ele>270.0</ele><time>2026-03-22T12:04:32.964Z</time></trkpt><trkpt lat="40.68554" lon="14.9195229"><ele>270.0</ele><time>2026-03-22T12:04:34.044Z</time></trkpt><trkpt lat="40.6854231" lon="14.9194305"><ele>270.0</ele><time>2026-03-22T12:04:35.022Z</time></trkpt><trkpt lat="40.6853252" lon="14.9193188"><ele>270.0</ele><time>2026-03-22T12:04:36.027Z</time></trkpt><trkpt lat="40.6852426" lon="14.9191995"><ele>270.0</ele><time>2026-03-22T12:04:36.956Z</time></trkpt><trkpt lat="40.6851423" lon="14.9191015"><ele>269.5</ele><time>2026-03-22T12:04:37.963Z</time></trkpt><trkpt lat="40.6850193" lon="14.9190225"><ele>269.0</ele><time>2026-03-22T12:04:39.055Z</time></trkpt><trkpt lat="40.6849124" lon="14.918935"><ele>268.5</ele><time>2026-03-22T12:04:39.988Z</time></trkpt><trkpt lat="40.6848122" lon="14.9188239"><ele>268.0</ele><time>2026-03-22T12:04:41.027Z</time></trkpt><trkpt lat="40.6847377" lon="14.9186941"><ele>268.0</ele><time>2026-03-22T12:04:41.955Z</time></trkpt><trkpt lat="40.684688" lon="14.918535"><ele>268.0</ele><time>2026-03-22T12:04:42.959Z</time></trkpt><trkpt lat="40.6846554" lon="14.9183849"><ele>268.0</ele><time>2026-03-22T12:04:44.08Z</time></trkpt><trkpt lat="40.6846501" lon="14.9181459"><ele>268.0</ele><time>2026-03-22T12:04:46.032Z</time></trkpt><trkpt lat="40.6846909" lon="14.9180357"><ele>267.75</ele><time>2026-03-22T12:04:46.967Z</time></trkpt><trkpt lat="40.6847448" lon="14.9179183"><ele>267.5</ele><time>2026-03-22T12:04:47.968Z</time></trkpt><trkpt lat="40.6847741" lon="14.9177551"><ele>267.25</ele><time>2026-03-22T12:04:49.062Z</time></trkpt><trkpt lat="40.6847907" lon="14.917574"><ele>267.0</ele><time>2026-03-22T12:04:50.029Z</time></trkpt><trkpt lat="40.6847761" lon="14.9173874"><ele>267.6666666666667</ele><time>2026-03-22T12:04:51.03Z</time></trkpt><trkpt lat="40.6847525" lon="14.9171868"><ele>268.33333333333337</ele><time>2026-03-22T12:04:51.962Z</time></trkpt><trkpt lat="40.6847261" lon="14.9169793"><ele>269.0</ele><time>2026-03-22T12:04:52.962Z</time></trkpt><trkpt lat="40.6847013" lon="14.9167762"><ele>267.5</ele><time>2026-03-22T12:04:53.957Z</time></trkpt><trkpt lat="40.6846828" lon="14.9165891"><ele>266.0</ele><time>2026-03-22T12:04:54.967Z</time></trkpt><trkpt lat="40.6846731" lon="14.9164152"><ele>264.5</ele><time>2026-03-22T12:04:55.97Z</time></trkpt><trkpt lat="40.6846587" lon="14.9162452"><ele>263.0</ele><time>2026-03-22T12:04:56.954Z</time></trkpt><trkpt lat="40.6846349" lon="14.916085"><ele>263.0</ele><time>2026-03-22T12:04:57.967Z</time></trkpt><trkpt lat="40.6845951" lon="14.9159102"><ele>263.0</ele><time>2026-03-22T12:04:58.977Z</time></trkpt><trkpt lat="40.6845378" lon="14.9157312"><ele>263.0</ele><time>2026-03-22T12:04:59.955Z</time></trkpt><trkpt lat="40.6844619" lon="14.9155483"><ele>263.0</ele><time>2026-03-22T12:05:01.016Z</time></trkpt><trkpt lat="40.6843669" lon="14.9153836"><ele>263.0</ele><time>2026-03-22T12:05:01.96Z</time></trkpt><trkpt lat="40.6842849" lon="14.9152286"><ele>263.0</ele><time>2026-03-22T12:05:02.963Z</time></trkpt><trkpt lat="40.6842277" lon="14.9150758"><ele>263.0</ele><time>2026-03-22T12:05:03.957Z</time></trkpt><trkpt lat="40.6842031" lon="14.9149024"><ele>263.0</ele><time>2026-03-22T12:05:04.959Z</time></trkpt><trkpt lat="40.6842008" lon="14.9147054"><ele>260.33333333333337</ele><time>2026-03-22T12:05:05.958Z</time></trkpt><trkpt lat="40.6842019" lon="14.9145003"><ele>257.6666666666667</ele><time>2026-03-22T12:05:06.957Z</time></trkpt><trkpt lat="40.6841928" lon="14.9143011"><ele>255.0</ele><time>2026-03-22T12:05:07.96Z</time></trkpt><trkpt lat="40.684176" lon="14.9140999"><ele>255.0</ele><time>2026-03-22T12:05:08.988Z</time></trkpt><trkpt lat="40.684138" lon="14.9138994"><ele>255.0</ele><time>2026-03-22T12:05:09.975Z</time></trkpt><trkpt lat="40.6840833" lon="14.9137005"><ele>255.0</ele><time>2026-03-22T12:05:10.959Z</time></trkpt><trkpt lat="40.684018" lon="14.9135111"><ele>254.5</ele><time>2026-03-22T12:05:11.956Z</time></trkpt><trkpt lat="40.6839546" lon="14.9133301"><ele>254.0</ele><time>2026-03-22T12:05:12.958Z</time></trkpt><trkpt lat="40.6838944" lon="14.9131669"><ele>253.5</ele><time>2026-03-22T12:05:13.962Z</time></trkpt><trkpt lat="40.6838119" lon="14.9130252"><ele>253.0</ele><time>2026-03-22T12:05:14.967Z</time></trkpt><trkpt lat="40.6837025" lon="14.9128934"><ele>254.25</ele><time>2026-03-22T12:05:16.031Z</time></trkpt><trkpt lat="40.6835876" lon="14.9127723"><ele>255.5</ele><time>2026-03-22T12:05:16.955Z</time></trkpt><trkpt lat="40.6834922" lon="14.9126637"><ele>256.75</ele><time>2026-03-22T12:05:17.963Z</time></trkpt><trkpt lat="40.683416" lon="14.9125396"><ele>258.0</ele><time>2026-03-22T12:05:18.956Z</time></trkpt><trkpt lat="40.6833617" lon="14.9123812"><ele>258.0</ele><time>2026-03-22T12:05:19.959Z</time></trkpt><trkpt lat="40.6833183" lon="14.9122057"><ele>258.0</ele><time>2026-03-22T12:05:20.947Z</time></trkpt><trkpt lat="40.6832623" lon="14.9120273"><ele>258.0</ele><time>2026-03-22T12:05:21.964Z</time></trkpt><trkpt lat="40.6831995" lon="14.911857"><ele>258.0</ele><time>2026-03-22T12:05:22.959Z</time></trkpt><trkpt lat="40.6831296" lon="14.9116881"><ele>257.0</ele><time>2026-03-22T12:05:24.036Z</time></trkpt><trkpt lat="40.6830727" lon="14.9115342"><ele>256.0</ele><time>2026-03-22T12:05:25.025Z</time></trkpt><trkpt lat="40.6830381" lon="14.9113693"><ele>255.0</ele><time>2026-03-22T12:05:25.974Z</time></trkpt><trkpt lat="40.6830176" lon="14.9112061"><ele>254.0</ele><time>2026-03-22T12:05:26.968Z</time></trkpt><trkpt lat="40.683028" lon="14.9110401"><ele>254.0</ele><time>2026-03-22T12:05:27.963Z</time></trkpt><trkpt lat="40.6830617" lon="14.9108681"><ele>254.0</ele><time>2026-03-22T12:05:28.958Z</time></trkpt><trkpt lat="40.6831145" lon="14.9106903"><ele>254.0</ele><time>2026-03-22T12:05:30.038Z</time></trkpt><trkpt lat="40.683174" lon="14.9105116"><ele>254.0</ele><time>2026-03-22T12:05:30.954Z</time></trkpt><trkpt lat="40.6832365" lon="14.9103407"><ele>254.0</ele><time>2026-03-22T12:05:31.951Z</time></trkpt><trkpt lat="40.6832842" lon="14.9101778"><ele>254.0</ele><time>2026-03-22T12:05:32.96Z</time></trkpt><trkpt lat="40.6833213" lon="14.9100105"><ele>254.0</ele><time>2026-03-22T12:05:33.979Z</time></trkpt><trkpt lat="40.6833449" lon="14.9098472"><ele>254.0</ele><time>2026-03-22T12:05:35.028Z</time></trkpt><trkpt lat="40.6833451" lon="14.9096918"><ele>254.5</ele><time>2026-03-22T12:05:35.949Z</time></trkpt><trkpt lat="40.6833278" lon="14.9095336"><ele>255.0</ele><time>2026-03-22T12:05:36.958Z</time></trkpt><trkpt lat="40.6832926" lon="14.9093792"><ele>255.5</ele><time>2026-03-22T12:05:37.958Z</time></trkpt><trkpt lat="40.6832378" lon="14.9092454"><ele>256.0</ele><time>2026-03-22T12:05:38.954Z</time></trkpt><trkpt lat="40.6831837" lon="14.9091367"><ele>254.49999999999997</ele><time>2026-03-22T12:05:39.952Z</time></trkpt><trkpt lat="40.6831309" lon="14.9090427"><ele>253.0</ele><time>2026-03-22T12:05:40.959Z</time></trkpt><trkpt lat="40.683089" lon="14.9089679"><ele>251.5</ele><time>2026-03-22T12:05:41.958Z</time></trkpt><trkpt lat="40.6830576" lon="14.908848"><ele>250.0</ele><time>2026-03-22T12:05:44.033Z</time></trkpt><trkpt lat="40.6830881" lon="14.9087746"><ele>248.49999999999997</ele><time>2026-03-22T12:05:44.957Z</time></trkpt><trkpt lat="40.6831638" lon="14.9086727"><ele>247.0</ele><time>2026-03-22T12:05:45.94Z</time></trkpt><trkpt lat="40.6832588" lon="14.9085587"><ele>247.0</ele><time>2026-03-22T12:05:46.954Z</time></trkpt><trkpt lat="40.6833607" lon="14.9084407"><ele>247.0</ele><time>2026-03-22T12:05:48.031Z</time></trkpt><trkpt lat="40.6834802" lon="14.9083241"><ele>247.0</ele><time>2026-03-22T12:05:49.036Z</time></trkpt><trkpt lat="40.6836134" lon="14.9082132"><ele>247.0</ele><time>2026-03-22T12:05:50.03Z</time></trkpt><trkpt lat="40.6837526" lon="14.9081107"><ele>238.33333333333331</ele><time>2026-03-22T12:05:51.031Z</time></trkpt><trkpt lat="40.6838969" lon="14.9080111"><ele>229.66666666666669</ele><time>2026-03-22T12:05:51.955Z</time></trkpt><trkpt lat="40.6840518" lon="14.9079174"><ele>221.0</ele><time>2026-03-22T12:05:52.953Z</time></trkpt><trkpt lat="40.6842075" lon="14.9078314"><ele>221.0</ele><time>2026-03-22T12:05:53.976Z</time></trkpt><trkpt lat="40.6843579" lon="14.9077596"><ele>221.0</ele><time>2026-03-22T12:05:55.026Z</time></trkpt><trkpt lat="40.6845111" lon="14.9076957"><ele>221.0</ele><time>2026-03-22T12:05:56.035Z</time></trkpt><trkpt lat="40.684672" lon="14.9076507"><ele>216.33333333333334</ele><time>2026-03-22T12:05:56.95Z</time></trkpt><trkpt lat="40.6848352" lon="14.9076094"><ele>211.66666666666669</ele><time>2026-03-22T12:05:58.028Z</time></trkpt><trkpt lat="40.6850067" lon="14.9075797"><ele>207.0</ele><time>2026-03-22T12:05:59.015Z</time></trkpt><trkpt lat="40.6851806" lon="14.9075533"><ele>202.0</ele><time>2026-03-22T12:06:00.023Z</time></trkpt><trkpt lat="40.6853483" lon="14.9075335"><ele>197.0</ele><time>2026-03-22T12:06:01.034Z</time></trkpt><trkpt lat="40.685514" lon="14.9075078"><ele>192.0</ele><time>2026-03-22T12:06:01.954Z</time></trkpt><trkpt lat="40.6856737" lon="14.9074815"><ele>192.0</ele><time>2026-03-22T12:06:02.962Z</time></trkpt><trkpt lat="40.6858291" lon="14.9074511"><ele>192.0</ele><time>2026-03-22T12:06:03.983Z</time></trkpt><trkpt lat="40.6859887" lon="14.9074278"><ele>192.0</ele><time>2026-03-22T12:06:04.961Z</time></trkpt><trkpt lat="40.686149" lon="14.9074051"><ele>188.33333333333334</ele><time>2026-03-22T12:06:06.026Z</time></trkpt><trkpt lat="40.6863078" lon="14.9073795"><ele>184.66666666666669</ele><time>2026-03-22T12:06:06.951Z</time></trkpt><trkpt lat="40.6864611" lon="14.9073524"><ele>181.0</ele><time>2026-03-22T12:06:07.966Z</time></trkpt><trkpt lat="40.686611" lon="14.9073322"><ele>181.0</ele><time>2026-03-22T12:06:09.083Z</time></trkpt><trkpt lat="40.6867541" lon="14.907316"><ele>181.0</ele><time>2026-03-22T12:06:10.031Z</time></trkpt><trkpt lat="40.6868862" lon="14.9073105"><ele>181.0</ele><time>2026-03-22T12:06:11.032Z</time></trkpt><trkpt lat="40.6870136" lon="14.9073322"><ele>181.0</ele><time>2026-03-22T12:06:11.955Z</time></trkpt><trkpt lat="40.6871248" lon="14.9073899"><ele>178.0</ele><time>2026-03-22T12:06:12.959Z</time></trkpt><trkpt lat="40.687246" lon="14.9074991"><ele>175.0</ele><time>2026-03-22T12:06:13.98Z</time></trkpt><trkpt lat="40.6873737" lon="14.9076507"><ele>172.0</ele><time>2026-03-22T12:06:15.002Z</time></trkpt><trkpt lat="40.6875007" lon="14.9078154"><ele>172.0</ele><time>2026-03-22T12:06:15.957Z</time></trkpt><trkpt lat="40.6876268" lon="14.9079698"><ele>172.0</ele><time>2026-03-22T12:06:16.956Z</time></trkpt><trkpt lat="40.6877417" lon="14.908114"><ele>172.0</ele><time>2026-03-22T12:06:17.961Z</time></trkpt><trkpt lat="40.6878579" lon="14.9082441"><ele>170.25</ele><time>2026-03-22T12:06:18.954Z</time></trkpt><trkpt lat="40.6879585" lon="14.9083619"><ele>168.5</ele><time>2026-03-22T12:06:19.964Z</time></trkpt><trkpt lat="40.6880541" lon="14.908456"><ele>166.75</ele><time>2026-03-22T12:06:21.033Z</time></trkpt><trkpt lat="40.6881449" lon="14.9085321"><ele>165.0</ele><time>2026-03-22T12:06:21.957Z</time></trkpt><trkpt lat="40.6882494" lon="14.9085763"><ele>165.0</ele><time>2026-03-22T12:06:22.958Z</time></trkpt><trkpt lat="40.6883798" lon="14.9085774"><ele>165.0</ele><time>2026-03-22T12:06:23.992Z</time></trkpt><trkpt lat="40.6885165" lon="14.9085523"><ele>165.0</ele><time>2026-03-22T12:06:24.957Z</time></trkpt><trkpt lat="40.6886695" lon="14.9085103"><ele>165.0</ele><time>2026-03-22T12:06:25.958Z</time></trkpt><trkpt lat="40.6888308" lon="14.9084841"><ele>162.0</ele><time>2026-03-22T12:06:26.963Z</time></trkpt><trkpt lat="40.6889952" lon="14.9084676"><ele>159.0</ele><time>2026-03-22T12:06:27.959Z</time></trkpt><trkpt lat="40.6891607" lon="14.9084582"><ele>156.0</ele><time>2026-03-22T12:06:29.035Z</time></trkpt><trkpt lat="40.6893207" lon="14.9084625"><ele>153.0</ele><time>2026-03-22T12:06:30.022Z</time></trkpt><trkpt lat="40.6894797" lon="14.9084737"><ele>150.0</ele><time>2026-03-22T12:06:31.021Z</time></trkpt><trkpt lat="40.689633" lon="14.9084834"><ele>147.0</ele><time>2026-03-22T12:06:31.967Z</time></trkpt><trkpt lat="40.6897869" lon="14.9085095"><ele>147.0</ele><time>2026-03-22T12:06:33.031Z</time></trkpt><trkpt lat="40.6899499" lon="14.9085295"><ele>147.0</ele><time>2026-03-22T12:06:33.947Z</time></trkpt><trkpt lat="40.6901113" lon="14.9085483"><ele>147.0</ele><time>2026-03-22T12:06:35.028Z</time></trkpt><trkpt lat="40.690273" lon="14.9085681"><ele>143.66666666666666</ele><time>2026-03-22T12:06:36.025Z</time></trkpt><trkpt lat="40.6904324" lon="14.9085857"><ele>140.33333333333331</ele><time>2026-03-22T12:06:36.977Z</time></trkpt><trkpt lat="40.6905912" lon="14.9086059"><ele>137.0</ele><time>2026-03-22T12:06:38.031Z</time></trkpt><trkpt lat="40.6907548" lon="14.9086269"><ele>137.0</ele><time>2026-03-22T12:06:39.031Z</time></trkpt><trkpt lat="40.6909037" lon="14.9086475"><ele>137.0</ele><time>2026-03-22T12:06:40.036Z</time></trkpt><trkpt lat="40.6910521" lon="14.908659"><ele>137.0</ele><time>2026-03-22T12:06:40.991Z</time></trkpt><trkpt lat="40.6911823" lon="14.9086822"><ele>137.0</ele><time>2026-03-22T12:06:41.958Z</time></trkpt><trkpt lat="40.691308" lon="14.9087343"><ele>134.0</ele><time>2026-03-22T12:06:43.034Z</time></trkpt><trkpt lat="40.6914276" lon="14.9088068"><ele>131.0</ele><time>2026-03-22T12:06:44.031Z</time></trkpt><trkpt lat="40.6915518" lon="14.9089109"><ele>128.0</ele><time>2026-03-22T12:06:45.031Z</time></trkpt><trkpt lat="40.6916667" lon="14.9090322"><ele>125.0</ele><time>2026-03-22T12:06:46.03Z</time></trkpt><trkpt lat="40.691782" lon="14.909157"><ele>125.25</ele><time>2026-03-22T12:06:46.963Z</time></trkpt><trkpt lat="40.6918922" lon="14.9092768"><ele>125.5</ele><time>2026-03-22T12:06:47.955Z</time></trkpt><trkpt lat="40.6920023" lon="14.9093886"><ele>125.75</ele><time>2026-03-22T12:06:49.073Z</time></trkpt><trkpt lat="40.6921031" lon="14.9094948"><ele>126.0</ele><time>2026-03-22T12:06:50.036Z</time></trkpt><trkpt lat="40.6922057" lon="14.9095916"><ele>124.25</ele><time>2026-03-22T12:06:50.949Z</time></trkpt><trkpt lat="40.6923117" lon="14.9096714"><ele>122.5</ele><time>2026-03-22T12:06:51.957Z</time></trkpt><trkpt lat="40.692429" lon="14.9097378"><ele>120.75</ele><time>2026-03-22T12:06:52.961Z</time></trkpt><trkpt lat="40.6925556" lon="14.9097861"><ele>119.0</ele><time>2026-03-22T12:06:53.979Z</time></trkpt><trkpt lat="40.6926828" lon="14.9098211"><ele>116.0</ele><time>2026-03-22T12:06:54.959Z</time></trkpt><trkpt lat="40.6928127" lon="14.9098338"><ele>113.0</ele><time>2026-03-22T12:06:55.952Z</time></trkpt><trkpt lat="40.6929319" lon="14.9098168"><ele>110.0</ele><time>2026-03-22T12:06:56.953Z</time></trkpt><trkpt lat="40.6930417" lon="14.9097616"><ele>107.0</ele><time>2026-03-22T12:06:57.954Z</time></trkpt><trkpt lat="40.6931502" lon="14.9096723"><ele>107.0</ele><time>2026-03-22T12:06:58.946Z</time></trkpt><trkpt lat="40.693258" lon="14.9095497"><ele>107.0</ele><time>2026-03-22T12:06:59.95Z</time></trkpt><trkpt lat="40.6933646" lon="14.909409"><ele>107.0</ele><time>2026-03-22T12:07:00.964Z</time></trkpt><trkpt lat="40.6934833" lon="14.9092684"><ele>106.75</ele><time>2026-03-22T12:07:01.953Z</time></trkpt><trkpt lat="40.6935873" lon="14.9091417"><ele>106.5</ele><time>2026-03-22T12:07:02.952Z</time></trkpt><trkpt lat="40.693691" lon="14.909055"><ele>106.25</ele><time>2026-03-22T12:07:03.953Z</time></trkpt><trkpt lat="40.6937958" lon="14.9090091"><ele>106.0</ele><time>2026-03-22T12:07:04.951Z</time></trkpt><trkpt lat="40.6939126" lon="14.9089834"><ele>105.4</ele><time>2026-03-22T12:07:05.95Z</time></trkpt><trkpt lat="40.6940365" lon="14.908975"><ele>104.8</ele><time>2026-03-22T12:07:06.953Z</time></trkpt><trkpt lat="40.6941468" lon="14.9089793"><ele>104.2</ele><time>2026-03-22T12:07:07.955Z</time></trkpt><trkpt lat="40.6942469" lon="14.9090093"><ele>103.60000000000001</ele><time>2026-03-22T12:07:08.947Z</time></trkpt><trkpt lat="40.6943415" lon="14.9090666"><ele>103.0</ele><time>2026-03-22T12:07:09.959Z</time></trkpt><trkpt lat="40.6944378" lon="14.9091701"><ele>103.0</ele><time>2026-03-22T12:07:11.03Z</time></trkpt><trkpt lat="40.6945433" lon="14.9093039"><ele>103.0</ele><time>2026-03-22T12:07:11.949Z</time></trkpt><trkpt lat="40.6946613" lon="14.9094172"><ele>103.0</ele><time>2026-03-22T12:07:12.951Z</time></trkpt><trkpt lat="40.6947942" lon="14.9095126"><ele>103.0</ele><time>2026-03-22T12:07:13.954Z</time></trkpt><trkpt lat="40.694929" lon="14.9096093"><ele>103.0</ele><time>2026-03-22T12:07:14.953Z</time></trkpt><trkpt lat="40.6950673" lon="14.9097073"><ele>103.0</ele><time>2026-03-22T12:07:15.952Z</time></trkpt><trkpt lat="40.6952054" lon="14.9098049"><ele>103.0</ele><time>2026-03-22T12:07:16.959Z</time></trkpt><trkpt lat="40.6953424" lon="14.9099058"><ele>103.66666666666667</ele><time>2026-03-22T12:07:17.952Z</time></trkpt><trkpt lat="40.6954809" lon="14.910011"><ele>104.33333333333334</ele><time>2026-03-22T12:07:18.956Z</time></trkpt><trkpt lat="40.6956099" lon="14.9101275"><ele>105.0</ele><time>2026-03-22T12:07:19.957Z</time></trkpt><trkpt lat="40.6957267" lon="14.9102734"><ele>105.0</ele><time>2026-03-22T12:07:20.961Z</time></trkpt><trkpt lat="40.6958347" lon="14.9104311"><ele>105.0</ele><time>2026-03-22T12:07:21.945Z</time></trkpt><trkpt lat="40.6959426" lon="14.9105921"><ele>105.0</ele><time>2026-03-22T12:07:23.022Z</time></trkpt><trkpt lat="40.6960543" lon="14.9107284"><ele>105.75</ele><time>2026-03-22T12:07:24.032Z</time></trkpt><trkpt lat="40.6961756" lon="14.9108202"><ele>106.5</ele><time>2026-03-22T12:07:25.031Z</time></trkpt><trkpt lat="40.6963047" lon="14.9108573"><ele>107.25</ele><time>2026-03-22T12:07:26.029Z</time></trkpt><trkpt lat="40.6964458" lon="14.9108488"><ele>108.0</ele><time>2026-03-22T12:07:26.968Z</time></trkpt><trkpt lat="40.6965889" lon="14.9108204"><ele>108.0</ele><time>2026-03-22T12:07:27.971Z</time></trkpt><trkpt lat="40.6967371" lon="14.9107879"><ele>108.0</ele><time>2026-03-22T12:07:29.082Z</time></trkpt><trkpt lat="40.6970507" lon="14.9107548"><ele>110.0</ele><time>2026-03-22T12:07:31.024Z</time></trkpt><trkpt lat="40.6972055" lon="14.9107369"><ele>112.0</ele><time>2026-03-22T12:07:31.965Z</time></trkpt><trkpt lat="40.6973648" lon="14.9107146"><ele>114.0</ele><time>2026-03-22T12:07:32.972Z</time></trkpt><trkpt lat="40.6975203" lon="14.9106853"><ele>114.0</ele><time>2026-03-22T12:07:34.064Z</time></trkpt><trkpt lat="40.6976719" lon="14.9106499"><ele>114.0</ele><time>2026-03-22T12:07:35.016Z</time></trkpt><trkpt lat="40.6978235" lon="14.9105986"><ele>114.0</ele><time>2026-03-22T12:07:36.044Z</time></trkpt><trkpt lat="40.6979682" lon="14.9105371"><ele>116.0</ele><time>2026-03-22T12:07:36.966Z</time></trkpt><trkpt lat="40.6981024" lon="14.9104627"><ele>118.0</ele><time>2026-03-22T12:07:37.965Z</time></trkpt><trkpt lat="40.6982254" lon="14.9103922"><ele>120.0</ele><time>2026-03-22T12:07:38.981Z</time></trkpt><trkpt lat="40.6983255" lon="14.910328"><ele>122.0</ele><time>2026-03-22T12:07:40.037Z</time></trkpt><trkpt lat="40.6984065" lon="14.9102746"><ele>121.99999999999999</ele><time>2026-03-22T12:07:41.025Z</time></trkpt><trkpt lat="40.6984697" lon="14.9102335"><ele>122.0</ele><time>2026-03-22T12:07:41.963Z</time></trkpt><trkpt lat="40.6985325" lon="14.9101848"><ele>122.0</ele><time>2026-03-22T12:07:44.001Z</time></trkpt><trkpt lat="40.6985261" lon="14.9100818"><ele>122.0</ele><time>2026-03-22T12:07:46.95Z</time></trkpt><trkpt lat="40.6985058" lon="14.9099637"><ele>121.99999999999999</ele><time>2026-03-22T12:07:47.954Z</time></trkpt><trkpt lat="40.6984806" lon="14.9098141"><ele>122.0</ele><time>2026-03-22T12:07:48.96Z</time></trkpt><trkpt lat="40.6984662" lon="14.9096539"><ele>122.25</ele><time>2026-03-22T12:07:49.964Z</time></trkpt><trkpt lat="40.6984738" lon="14.9094957"><ele>122.5</ele><time>2026-03-22T12:07:50.962Z</time></trkpt><trkpt lat="40.6985168" lon="14.9093484"><ele>122.75</ele><time>2026-03-22T12:07:51.958Z</time></trkpt><trkpt lat="40.6985966" lon="14.9092172"><ele>123.0</ele><time>2026-03-22T12:07:52.966Z</time></trkpt><trkpt lat="40.6986973" lon="14.9091046"><ele>123.33333333333334</ele><time>2026-03-22T12:07:53.963Z</time></trkpt><trkpt lat="40.6988222" lon="14.9089985"><ele>123.66666666666667</ele><time>2026-03-22T12:07:54.962Z</time></trkpt><trkpt lat="40.6989535" lon="14.9088934"><ele>124.0</ele><time>2026-03-22T12:07:55.958Z</time></trkpt><trkpt lat="40.6990924" lon="14.9087876"><ele>124.0</ele><time>2026-03-22T12:07:56.962Z</time></trkpt><trkpt lat="40.6992298" lon="14.9086809"><ele>124.0</ele><time>2026-03-22T12:07:57.963Z</time></trkpt><trkpt lat="40.6993772" lon="14.9085949"><ele>124.0</ele><time>2026-03-22T12:07:58.964Z</time></trkpt><trkpt lat="40.6995233" lon="14.9085344"><ele>124.0</ele><time>2026-03-22T12:07:59.968Z</time></trkpt><trkpt lat="40.6996746" lon="14.9085028"><ele>124.0</ele><time>2026-03-22T12:08:00.972Z</time></trkpt><trkpt lat="40.6998245" lon="14.9084837"><ele>124.0</ele><time>2026-03-22T12:08:01.966Z</time></trkpt><trkpt lat="40.6999635" lon="14.9084664"><ele>124.0</ele><time>2026-03-22T12:08:02.95Z</time></trkpt><trkpt lat="40.7000946" lon="14.9084471"><ele>124.0</ele><time>2026-03-22T12:08:03.964Z</time></trkpt><trkpt lat="40.7002144" lon="14.9084495"><ele>124.0</ele><time>2026-03-22T12:08:04.969Z</time></trkpt><trkpt lat="40.7003311" lon="14.9084795"><ele>124.0</ele><time>2026-03-22T12:08:06.02Z</time></trkpt><trkpt lat="40.7004353" lon="14.9085578"><ele>124.0</ele><time>2026-03-22T12:08:06.955Z</time></trkpt><trkpt lat="40.7005352" lon="14.908667"><ele>123.75</ele><time>2026-03-22T12:08:07.96Z</time></trkpt><trkpt lat="40.7006414" lon="14.9087708"><ele>123.5</ele><time>2026-03-22T12:08:09.039Z</time></trkpt><trkpt lat="40.7007575" lon="14.9088384"><ele>123.25</ele><time>2026-03-22T12:08:10.022Z</time></trkpt><trkpt lat="40.7008823" lon="14.9088661"><ele>123.0</ele><time>2026-03-22T12:08:11.019Z</time></trkpt><trkpt lat="40.7010068" lon="14.9088528"><ele>121.5</ele><time>2026-03-22T12:08:11.966Z</time></trkpt><trkpt lat="40.7011325" lon="14.9087982"><ele>120.0</ele><time>2026-03-22T12:08:12.966Z</time></trkpt><trkpt lat="40.7012516" lon="14.9087089"><ele>118.5</ele><time>2026-03-22T12:08:14.072Z</time></trkpt><trkpt lat="40.7013537" lon="14.9085737"><ele>117.0</ele><time>2026-03-22T12:08:15.033Z</time></trkpt><trkpt lat="40.7014418" lon="14.9084168"><ele>115.66666666666666</ele><time>2026-03-22T12:08:16.031Z</time></trkpt><trkpt lat="40.7015471" lon="14.9082373"><ele>114.33333333333333</ele><time>2026-03-22T12:08:16.957Z</time></trkpt><trkpt lat="40.701665" lon="14.908063"><ele>113.0</ele><time>2026-03-22T12:08:17.955Z</time></trkpt><trkpt lat="40.7017954" lon="14.9079041"><ele>115.66666666666666</ele><time>2026-03-22T12:08:18.959Z</time></trkpt><trkpt lat="40.7019341" lon="14.9077476"><ele>118.33333333333334</ele><time>2026-03-22T12:08:20.041Z</time></trkpt><trkpt lat="40.7020756" lon="14.9075982"><ele>121.0</ele><time>2026-03-22T12:08:21.039Z</time></trkpt><trkpt lat="40.7022107" lon="14.9074562"><ele>123.66666666666667</ele><time>2026-03-22T12:08:21.953Z</time></trkpt><trkpt lat="40.7023419" lon="14.9073139"><ele>126.33333333333334</ele><time>2026-03-22T12:08:22.963Z</time></trkpt><trkpt lat="40.7024625" lon="14.9071728"><ele>129.0</ele><time>2026-03-22T12:08:24.039Z</time></trkpt><trkpt lat="40.7025828" lon="14.9070196"><ele>129.0</ele><time>2026-03-22T12:08:25.009Z</time></trkpt><trkpt lat="40.7027063" lon="14.9068825"><ele>129.0</ele><time>2026-03-22T12:08:26.017Z</time></trkpt><trkpt lat="40.702831" lon="14.9067415"><ele>129.0</ele><time>2026-03-22T12:08:26.949Z</time></trkpt><trkpt lat="40.7029656" lon="14.9066044"><ele>135.0</ele><time>2026-03-22T12:08:27.945Z</time></trkpt><trkpt lat="40.7030964" lon="14.9064642"><ele>141.0</ele><time>2026-03-22T12:08:28.977Z</time></trkpt><trkpt lat="40.7032202" lon="14.9063208"><ele>147.0</ele><time>2026-03-22T12:08:30.017Z</time></trkpt><trkpt lat="40.7033456" lon="14.9061807"><ele>147.0</ele><time>2026-03-22T12:08:30.949Z</time></trkpt><trkpt lat="40.7034732" lon="14.906043"><ele>147.0</ele><time>2026-03-22T12:08:31.939Z</time></trkpt><trkpt lat="40.7035945" lon="14.9059039"><ele>147.0</ele><time>2026-03-22T12:08:32.954Z</time></trkpt><trkpt lat="40.7036845" lon="14.9058044"><ele>147.0</ele><time>2026-03-22T12:08:33.952Z</time></trkpt><trkpt lat="40.7037586" lon="14.9057177"><ele>148.75</ele><time>2026-03-22T12:08:34.94Z</time></trkpt><trkpt lat="40.70383" lon="14.9056267"><ele>150.5</ele><time>2026-03-22T12:08:35.955Z</time></trkpt><trkpt lat="40.7039056" lon="14.9055297"><ele>152.25</ele><time>2026-03-22T12:08:36.954Z</time></trkpt><trkpt lat="40.7039958" lon="14.9054239"><ele>154.0</ele><time>2026-03-22T12:08:38.005Z</time></trkpt><trkpt lat="40.7041038" lon="14.9053139"><ele>154.0</ele><time>2026-03-22T12:08:39.027Z</time></trkpt><trkpt lat="40.7042149" lon="14.9051854"><ele>154.0</ele><time>2026-03-22T12:08:40.034Z</time></trkpt><trkpt lat="40.7043253" lon="14.9050471"><ele>154.0</ele><time>2026-03-22T12:08:40.96Z</time></trkpt><trkpt lat="40.7044318" lon="14.9049177"><ele>154.0</ele><time>2026-03-22T12:08:41.969Z</time></trkpt><trkpt lat="40.7045325" lon="14.9048208"><ele>153.8</ele><time>2026-03-22T12:08:42.964Z</time></trkpt><trkpt lat="40.704612" lon="14.9047321"><ele>153.60000000000002</ele><time>2026-03-22T12:08:43.963Z</time></trkpt><trkpt lat="40.7046625" lon="14.9046671"><ele>153.4</ele><time>2026-03-22T12:08:44.962Z</time></trkpt><trkpt lat="40.7047744" lon="14.9045476"><ele>153.20000000000002</ele><time>2026-03-22T12:08:46.961Z</time></trkpt><trkpt lat="40.7048631" lon="14.904477"><ele>153.0</ele><time>2026-03-22T12:08:47.965Z</time></trkpt><trkpt lat="40.7049724" lon="14.9043912"><ele>153.0</ele><time>2026-03-22T12:08:48.959Z</time></trkpt><trkpt lat="40.7050991" lon="14.9043033"><ele>153.0</ele><time>2026-03-22T12:08:49.967Z</time></trkpt><trkpt lat="40.7052335" lon="14.9042081"><ele>153.0</ele><time>2026-03-22T12:08:50.972Z</time></trkpt><trkpt lat="40.7053751" lon="14.9041147"><ele>154.0</ele><time>2026-03-22T12:08:51.967Z</time></trkpt><trkpt lat="40.7055175" lon="14.9040173"><ele>155.0</ele><time>2026-03-22T12:08:52.966Z</time></trkpt><trkpt lat="40.7056656" lon="14.9039173"><ele>156.0</ele><time>2026-03-22T12:08:53.97Z</time></trkpt><trkpt lat="40.7058192" lon="14.9038141"><ele>156.0</ele><time>2026-03-22T12:08:55.04Z</time></trkpt><trkpt lat="40.7059739" lon="14.9037142"><ele>156.0</ele><time>2026-03-22T12:08:56.026Z</time></trkpt><trkpt lat="40.706122" lon="14.9036095"><ele>156.0</ele><time>2026-03-22T12:08:56.954Z</time></trkpt><trkpt lat="40.7062662" lon="14.9035211"><ele>155.66666666666666</ele><time>2026-03-22T12:08:57.961Z</time></trkpt><trkpt lat="40.7064147" lon="14.9034259"><ele>155.33333333333331</ele><time>2026-03-22T12:08:58.979Z</time></trkpt><trkpt lat="40.7065561" lon="14.9033256"><ele>155.0</ele><time>2026-03-22T12:09:00.028Z</time></trkpt><trkpt lat="40.7066997" lon="14.9032304"><ele>157.25</ele><time>2026-03-22T12:09:00.964Z</time></trkpt><trkpt lat="40.7068448" lon="14.9031393"><ele>159.5</ele><time>2026-03-22T12:09:01.963Z</time></trkpt><trkpt lat="40.7069814" lon="14.9030599"><ele>161.75</ele><time>2026-03-22T12:09:02.946Z</time></trkpt><trkpt lat="40.7071029" lon="14.9029951"><ele>164.0</ele><time>2026-03-22T12:09:04.033Z</time></trkpt><trkpt lat="40.7072115" lon="14.9029541"><ele>164.39999999999998</ele><time>2026-03-22T12:09:04.963Z</time></trkpt><trkpt lat="40.7073034" lon="14.9029528"><ele>164.8</ele><time>2026-03-22T12:09:05.948Z</time></trkpt><trkpt lat="40.7073973" lon="14.9029488"><ele>165.2</ele><time>2026-03-22T12:09:06.957Z</time></trkpt><trkpt lat="40.7074933" lon="14.9029328"><ele>165.60000000000002</ele><time>2026-03-22T12:09:07.951Z</time></trkpt><trkpt lat="40.7075823" lon="14.9028855"><ele>166.0</ele><time>2026-03-22T12:09:09.02Z</time></trkpt><trkpt lat="40.7076667" lon="14.9028172"><ele>167.0</ele><time>2026-03-22T12:09:09.954Z</time></trkpt><trkpt lat="40.7077726" lon="14.9027307"><ele>168.0</ele><time>2026-03-22T12:09:11.02Z</time></trkpt><trkpt lat="40.7078821" lon="14.9026389"><ele>169.0</ele><time>2026-03-22T12:09:11.96Z</time></trkpt><trkpt lat="40.7079913" lon="14.9025393"><ele>170.0</ele><time>2026-03-22T12:09:12.962Z</time></trkpt><trkpt lat="40.7081029" lon="14.902428"><ele>170.0</ele><time>2026-03-22T12:09:13.952Z</time></trkpt><trkpt lat="40.7082218" lon="14.9023305"><ele>170.0</ele><time>2026-03-22T12:09:14.957Z</time></trkpt><trkpt lat="40.7083277" lon="14.9022457"><ele>170.0</ele><time>2026-03-22T12:09:16.031Z</time></trkpt><trkpt lat="40.7084427" lon="14.9021515"><ele>170.0</ele><time>2026-03-22T12:09:16.964Z</time></trkpt><trkpt lat="40.70856" lon="14.9020591"><ele>170.5</ele><time>2026-03-22T12:09:18.034Z</time></trkpt><trkpt lat="40.7086868" lon="14.9019695"><ele>171.0</ele><time>2026-03-22T12:09:19.028Z</time></trkpt><trkpt lat="40.7088137" lon="14.9018748"><ele>171.5</ele><time>2026-03-22T12:09:20.035Z</time></trkpt><trkpt lat="40.7089413" lon="14.9017837"><ele>172.0</ele><time>2026-03-22T12:09:20.982Z</time></trkpt><trkpt lat="40.7090728" lon="14.901703"><ele>170.25</ele><time>2026-03-22T12:09:21.969Z</time></trkpt><trkpt lat="40.7092102" lon="14.90162"><ele>168.5</ele><time>2026-03-22T12:09:22.97Z</time></trkpt><trkpt lat="40.7093449" lon="14.9015437"><ele>166.75</ele><time>2026-03-22T12:09:23.966Z</time></trkpt><trkpt lat="40.7094682" lon="14.9014684"><ele>165.0</ele><time>2026-03-22T12:09:24.96Z</time></trkpt><trkpt lat="40.7095747" lon="14.901411"><ele>165.0</ele><time>2026-03-22T12:09:25.957Z</time></trkpt><trkpt lat="40.7096701" lon="14.9013382"><ele>165.0</ele><time>2026-03-22T12:09:26.963Z</time></trkpt><trkpt lat="40.709758" lon="14.9012657"><ele>165.0</ele><time>2026-03-22T12:09:27.963Z</time></trkpt><trkpt lat="40.7098283" lon="14.9012091"><ele>165.0</ele><time>2026-03-22T12:09:28.978Z</time></trkpt><trkpt lat="40.7098557" lon="14.9010911"><ele>165.0</ele><time>2026-03-22T12:09:30.994Z</time></trkpt><trkpt lat="40.7097885" lon="14.9009473"><ele>163.83333333333334</ele><time>2026-03-22T12:09:32.972Z</time></trkpt><trkpt lat="40.7097564" lon="14.9008647"><ele>162.66666666666666</ele><time>2026-03-22T12:09:33.966Z</time></trkpt><trkpt lat="40.7097473" lon="14.9007475"><ele>161.5</ele><time>2026-03-22T12:09:34.965Z</time></trkpt><trkpt lat="40.7097423" lon="14.9006126"><ele>160.33333333333331</ele><time>2026-03-22T12:09:36.027Z</time></trkpt><trkpt lat="40.7097296" lon="14.9005211"><ele>159.16666666666666</ele><time>2026-03-22T12:09:36.965Z</time></trkpt><trkpt lat="40.7096897" lon="14.9004512"><ele>158.0</ele><time>2026-03-22T12:09:37.965Z</time></trkpt><trkpt lat="40.7096188" lon="14.9003798"><ele>158.0</ele><time>2026-03-22T12:09:38.964Z</time></trkpt><trkpt lat="40.7095276" lon="14.9002991"><ele>158.0</ele><time>2026-03-22T12:09:39.966Z</time></trkpt><trkpt lat="40.7094326" lon="14.9002232"><ele>158.0</ele><time>2026-03-22T12:09:40.963Z</time></trkpt><trkpt lat="40.7093371" lon="14.900137"><ele>158.0</ele><time>2026-03-22T12:09:41.98Z</time></trkpt><trkpt lat="40.7092406" lon="14.9000297"><ele>157.6</ele><time>2026-03-22T12:09:42.965Z</time></trkpt><trkpt lat="40.7091547" lon="14.8999186"><ele>157.20000000000002</ele><time>2026-03-22T12:09:43.985Z</time></trkpt><trkpt lat="40.7090914" lon="14.8998262"><ele>156.8</ele><time>2026-03-22T12:09:44.982Z</time></trkpt><trkpt lat="40.7090154" lon="14.8997674"><ele>156.4</ele><time>2026-03-22T12:09:45.971Z</time></trkpt><trkpt lat="40.7089149" lon="14.8997176"><ele>156.0</ele><time>2026-03-22T12:09:46.966Z</time></trkpt><trkpt lat="40.7088278" lon="14.8996765"><ele>156.0</ele><time>2026-03-22T12:09:47.968Z</time></trkpt><trkpt lat="40.7087456" lon="14.8996374"><ele>156.0</ele><time>2026-03-22T12:09:48.966Z</time></trkpt><trkpt lat="40.708659" lon="14.8995943"><ele>156.0</ele><time>2026-03-22T12:09:49.965Z</time></trkpt><trkpt lat="40.7085756" lon="14.8995183"><ele>156.0</ele><time>2026-03-22T12:09:51.04Z</time></trkpt><trkpt lat="40.7084881" lon="14.8994229"><ele>156.0</ele><time>2026-03-22T12:09:51.956Z</time></trkpt><trkpt lat="40.7084175" lon="14.8993475"><ele>155.6</ele><time>2026-03-22T12:09:52.958Z</time></trkpt><trkpt lat="40.7083393" lon="14.8993047"><ele>155.2</ele><time>2026-03-22T12:09:53.978Z</time></trkpt><trkpt lat="40.7082443" lon="14.8992586"><ele>154.8</ele><time>2026-03-22T12:09:55.033Z</time></trkpt><trkpt lat="40.7081434" lon="14.8992137"><ele>154.4</ele><time>2026-03-22T12:09:55.952Z</time></trkpt><trkpt lat="40.708029" lon="14.8991634"><ele>154.0</ele><time>2026-03-22T12:09:56.96Z</time></trkpt><trkpt lat="40.7079179" lon="14.8991019"><ele>154.0</ele><time>2026-03-22T12:09:57.97Z</time></trkpt><trkpt lat="40.7078073" lon="14.8990607"><ele>154.0</ele><time>2026-03-22T12:09:59.024Z</time></trkpt><trkpt lat="40.7076969" lon="14.8990466"><ele>154.0</ele><time>2026-03-22T12:10:00.036Z</time></trkpt><trkpt lat="40.707577" lon="14.8990274"><ele>154.0</ele><time>2026-03-22T12:10:01.028Z</time></trkpt><trkpt lat="40.7074484" lon="14.8990035"><ele>154.0</ele><time>2026-03-22T12:10:01.961Z</time></trkpt><trkpt lat="40.7073315" lon="14.8989876"><ele>154.0</ele><time>2026-03-22T12:10:02.957Z</time></trkpt><trkpt lat="40.7072192" lon="14.8989745"><ele>154.0</ele><time>2026-03-22T12:10:03.982Z</time></trkpt><trkpt lat="40.7071321" lon="14.8989493"><ele>154.0</ele><time>2026-03-22T12:10:04.955Z</time></trkpt><trkpt lat="40.7070504" lon="14.8988971"><ele>154.0</ele><time>2026-03-22T12:10:06.023Z</time></trkpt><trkpt lat="40.7069754" lon="14.8988139"><ele>153.6</ele><time>2026-03-22T12:10:06.941Z</time></trkpt><trkpt lat="40.7068918" lon="14.8987593"><ele>153.2</ele><time>2026-03-22T12:10:07.955Z</time></trkpt><trkpt lat="40.7068076" lon="14.8987367"><ele>152.79999999999998</ele><time>2026-03-22T12:10:09.013Z</time></trkpt><trkpt lat="40.7067249" lon="14.8987142"><ele>152.4</ele><time>2026-03-22T12:10:09.94Z</time></trkpt><trkpt lat="40.7066257" lon="14.8987002"><ele>152.0</ele><time>2026-03-22T12:10:10.953Z</time></trkpt><trkpt lat="40.7065175" lon="14.8987013"><ele>152.0</ele><time>2026-03-22T12:10:11.965Z</time></trkpt><trkpt lat="40.7064001" lon="14.8987005"><ele>152.0</ele><time>2026-03-22T12:10:12.958Z</time></trkpt><trkpt lat="40.7062856" lon="14.8986894"><ele>152.0</ele><time>2026-03-22T12:10:13.949Z</time></trkpt><trkpt lat="40.7061653" lon="14.8986563"><ele>152.0</ele><time>2026-03-22T12:10:14.957Z</time></trkpt><trkpt lat="40.7060513" lon="14.8986103"><ele>151.75</ele><time>2026-03-22T12:10:15.958Z</time></trkpt><trkpt lat="40.7059359" lon="14.8985518"><ele>151.5</ele><time>2026-03-22T12:10:16.951Z</time></trkpt><trkpt lat="40.7058169" lon="14.898492"><ele>151.25</ele><time>2026-03-22T12:10:17.964Z</time></trkpt><trkpt lat="40.7057" lon="14.8984248"><ele>151.0</ele><time>2026-03-22T12:10:18.957Z</time></trkpt><trkpt lat="40.7055823" lon="14.8983612"><ele>151.5</ele><time>2026-03-22T12:10:20.039Z</time></trkpt><trkpt lat="40.7054622" lon="14.898298"><ele>152.0</ele><time>2026-03-22T12:10:20.969Z</time></trkpt><trkpt lat="40.7053416" lon="14.8982414"><ele>152.5</ele><time>2026-03-22T12:10:21.958Z</time></trkpt><trkpt lat="40.7052321" lon="14.8981954"><ele>153.0</ele><time>2026-03-22T12:10:22.97Z</time></trkpt><trkpt lat="40.7051372" lon="14.8981586"><ele>153.0</ele><time>2026-03-22T12:10:23.961Z</time></trkpt><trkpt lat="40.7050378" lon="14.8981513"><ele>153.0</ele><time>2026-03-22T12:10:24.968Z</time></trkpt><trkpt lat="40.7049561" lon="14.898179"><ele>153.0</ele><time>2026-03-22T12:10:25.952Z</time></trkpt><trkpt lat="40.7048893" lon="14.8982373"><ele>153.0</ele><time>2026-03-22T12:10:26.959Z</time></trkpt><trkpt lat="40.7048203" lon="14.8983113"><ele>153.0</ele><time>2026-03-22T12:10:28.024Z</time></trkpt><trkpt lat="40.7047483" lon="14.8983776"><ele>153.0</ele><time>2026-03-22T12:10:28.954Z</time></trkpt><trkpt lat="40.7046656" lon="14.8984244"><ele>152.8</ele><time>2026-03-22T12:10:29.959Z</time></trkpt><trkpt lat="40.7045741" lon="14.8984393"><ele>152.60000000000002</ele><time>2026-03-22T12:10:30.961Z</time></trkpt><trkpt lat="40.7044662" lon="14.8984487"><ele>152.39999999999998</ele><time>2026-03-22T12:10:31.961Z</time></trkpt><trkpt lat="40.7043573" lon="14.8984575"><ele>152.2</ele><time>2026-03-22T12:10:32.963Z</time></trkpt><trkpt lat="40.7042802" lon="14.8984499"><ele>152.0</ele><time>2026-03-22T12:10:34.038Z</time></trkpt><trkpt lat="40.7041737" lon="14.8983757"><ele>152.0</ele><time>2026-03-22T12:10:35.961Z</time></trkpt><trkpt lat="40.7041186" lon="14.8982402"><ele>152.0</ele><time>2026-03-22T12:10:37.963Z</time></trkpt><trkpt lat="40.7041367" lon="14.8981553"><ele>152.0</ele><time>2026-03-22T12:10:38.959Z</time></trkpt><trkpt lat="40.704203" lon="14.8981063"><ele>152.0</ele><time>2026-03-22T12:10:40.03Z</time></trkpt><trkpt lat="40.7042708" lon="14.898096"><ele>152.0</ele><time>2026-03-22T12:10:41.024Z</time></trkpt><trkpt lat="40.7043303" lon="14.8980294"><ele>152.0</ele><time>2026-03-22T12:10:42.961Z</time></trkpt><trkpt lat="40.7043576" lon="14.897952"><ele>152.0</ele><time>2026-03-22T12:10:43.961Z</time></trkpt><trkpt lat="40.7043744" lon="14.8978266"><ele>152.0</ele><time>2026-03-22T12:10:44.953Z</time></trkpt><trkpt lat="40.704424" lon="14.8976572"><ele>152.0</ele><time>2026-03-22T12:10:45.968Z</time></trkpt><trkpt lat="40.7044791" lon="14.8975096"><ele>152.0</ele><time>2026-03-22T12:10:46.96Z</time></trkpt><trkpt lat="40.7045391" lon="14.8973708"><ele>152.83333333333331</ele><time>2026-03-22T12:10:47.961Z</time></trkpt><trkpt lat="40.7045886" lon="14.897262"><ele>153.66666666666666</ele><time>2026-03-22T12:10:49.028Z</time></trkpt><trkpt lat="40.7046202" lon="14.8971689"><ele>154.5</ele><time>2026-03-22T12:10:49.96Z</time></trkpt><trkpt lat="40.7046325" lon="14.8970831"><ele>155.33333333333334</ele><time>2026-03-22T12:10:50.959Z</time></trkpt><trkpt lat="40.7046436" lon="14.8969911"><ele>156.16666666666669</ele><time>2026-03-22T12:10:51.959Z</time></trkpt><trkpt lat="40.7046321" lon="14.8968883"><ele>157.0</ele><time>2026-03-22T12:10:52.96Z</time></trkpt><trkpt lat="40.7046212" lon="14.8967839"><ele>156.6</ele><time>2026-03-22T12:10:53.957Z</time></trkpt><trkpt lat="40.7045799" lon="14.8966408"><ele>156.2</ele><time>2026-03-22T12:10:55.953Z</time></trkpt><trkpt lat="40.7045186" lon="14.8965833"><ele>155.8</ele><time>2026-03-22T12:10:56.958Z</time></trkpt><trkpt lat="40.7044383" lon="14.8964368"><ele>155.4</ele><time>2026-03-22T12:10:58.957Z</time></trkpt><trkpt lat="40.7043957" lon="14.8963568"><ele>155.0</ele><time>2026-03-22T12:10:59.964Z</time></trkpt><trkpt lat="40.7043258" lon="14.896326"><ele>155.0</ele><time>2026-03-22T12:11:00.96Z</time></trkpt><trkpt lat="40.7042406" lon="14.8963013"><ele>155.0</ele><time>2026-03-22T12:11:01.968Z</time></trkpt><trkpt lat="40.7041405" lon="14.8962856"><ele>155.0</ele><time>2026-03-22T12:11:02.965Z</time></trkpt><trkpt lat="40.7040318" lon="14.8962569"><ele>155.0</ele><time>2026-03-22T12:11:04.03Z</time></trkpt><trkpt lat="40.703925" lon="14.8962365"><ele>155.0</ele><time>2026-03-22T12:11:05.047Z</time></trkpt><trkpt lat="40.703828" lon="14.8962048"><ele>155.0</ele><time>2026-03-22T12:11:05.959Z</time></trkpt><trkpt lat="40.7037382" lon="14.8961811"><ele>155.0</ele><time>2026-03-22T12:11:06.966Z</time></trkpt><trkpt lat="40.7036375" lon="14.8961742"><ele>155.0</ele><time>2026-03-22T12:11:07.967Z</time></trkpt><trkpt lat="40.7035374" lon="14.8961745"><ele>155.0</ele><time>2026-03-22T12:11:08.96Z</time></trkpt><trkpt lat="40.7034495" lon="14.8961696"><ele>155.0</ele><time>2026-03-22T12:11:09.952Z</time></trkpt><trkpt lat="40.7033841" lon="14.8961476"><ele>155.0</ele><time>2026-03-22T12:11:10.958Z</time></trkpt><trkpt lat="40.7033126" lon="14.8960792"><ele>154.75</ele><time>2026-03-22T12:11:13.037Z</time></trkpt><trkpt lat="40.7033174" lon="14.8959805"><ele>154.5</ele><time>2026-03-22T12:11:13.958Z</time></trkpt><trkpt lat="40.7033633" lon="14.8958322"><ele>154.25</ele><time>2026-03-22T12:11:14.957Z</time></trkpt><trkpt lat="40.7034133" lon="14.8956789"><ele>154.0</ele><time>2026-03-22T12:11:15.958Z</time></trkpt><trkpt lat="40.7034562" lon="14.8955189"><ele>152.0</ele><time>2026-03-22T12:11:16.942Z</time></trkpt><trkpt lat="40.7035031" lon="14.8953556"><ele>150.0</ele><time>2026-03-22T12:11:17.961Z</time></trkpt><trkpt lat="40.7035467" lon="14.8951868"><ele>148.0</ele><time>2026-03-22T12:11:19.069Z</time></trkpt><trkpt lat="40.7036402" lon="14.8948429"><ele>145.0</ele><time>2026-03-22T12:11:20.957Z</time></trkpt><trkpt lat="40.7036857" lon="14.8946828"><ele>142.0</ele><time>2026-03-22T12:11:21.953Z</time></trkpt><trkpt lat="40.7037266" lon="14.89453"><ele>139.0</ele><time>2026-03-22T12:11:22.96Z</time></trkpt><trkpt lat="40.7037656" lon="14.8943836"><ele>136.0</ele><time>2026-03-22T12:11:23.97Z</time></trkpt><trkpt lat="40.7038067" lon="14.8942455"><ele>135.0</ele><time>2026-03-22T12:11:24.963Z</time></trkpt><trkpt lat="40.7038397" lon="14.894124"><ele>134.0</ele><time>2026-03-22T12:11:26.027Z</time></trkpt><trkpt lat="40.7038561" lon="14.8940353"><ele>133.0</ele><time>2026-03-22T12:11:26.957Z</time></trkpt><trkpt lat="40.7038606" lon="14.8939498"><ele>132.0</ele><time>2026-03-22T12:11:28.023Z</time></trkpt><trkpt lat="40.703846" lon="14.8937757"><ele>131.0</ele><time>2026-03-22T12:11:29.951Z</time></trkpt><trkpt lat="40.7038359" lon="14.8936916"><ele>130.0</ele><time>2026-03-22T12:11:30.961Z</time></trkpt><trkpt lat="40.7038487" lon="14.893594"><ele>130.0</ele><time>2026-03-22T12:11:31.955Z</time></trkpt><trkpt lat="40.7038771" lon="14.8934934"><ele>130.0</ele><time>2026-03-22T12:11:32.955Z</time></trkpt><trkpt lat="40.7039251" lon="14.8933788"><ele>130.0</ele><time>2026-03-22T12:11:33.956Z</time></trkpt><trkpt lat="40.7039641" lon="14.8932584"><ele>130.0</ele><time>2026-03-22T12:11:35.025Z</time></trkpt><trkpt lat="40.7040033" lon="14.8931231"><ele>130.0</ele><time>2026-03-22T12:11:35.958Z</time></trkpt><trkpt lat="40.7040426" lon="14.8929822"><ele>129.5</ele><time>2026-03-22T12:11:36.953Z</time></trkpt><trkpt lat="40.7040793" lon="14.8928397"><ele>129.0</ele><time>2026-03-22T12:11:37.942Z</time></trkpt><trkpt lat="40.704114" lon="14.8927204"><ele>128.5</ele><time>2026-03-22T12:11:38.952Z</time></trkpt><trkpt lat="40.7041319" lon="14.8926211"><ele>128.0</ele><time>2026-03-22T12:11:39.95Z</time></trkpt><trkpt lat="40.7041611" lon="14.8925349"><ele>127.50000000000001</ele><time>2026-03-22T12:11:42.962Z</time></trkpt><trkpt lat="40.7042352" lon="14.8925053"><ele>127.0</ele><time>2026-03-22T12:11:44.937Z</time></trkpt><trkpt lat="40.7043053" lon="14.8925201"><ele>126.25</ele><time>2026-03-22T12:11:45.953Z</time></trkpt><trkpt lat="40.7044219" lon="14.8925448"><ele>125.5</ele><time>2026-03-22T12:11:46.951Z</time></trkpt><trkpt lat="40.7045594" lon="14.8925895"><ele>124.75</ele><time>2026-03-22T12:11:47.951Z</time></trkpt><trkpt lat="40.7047171" lon="14.8926548"><ele>124.0</ele><time>2026-03-22T12:11:48.944Z</time></trkpt><trkpt lat="40.7048794" lon="14.8927246"><ele>124.0</ele><time>2026-03-22T12:11:49.957Z</time></trkpt><trkpt lat="40.7050259" lon="14.892786"><ele>124.0</ele><time>2026-03-22T12:11:50.96Z</time></trkpt><trkpt lat="40.7051736" lon="14.8928475"><ele>124.0</ele><time>2026-03-22T12:11:51.957Z</time></trkpt><trkpt lat="40.7053317" lon="14.8929137"><ele>123.0</ele><time>2026-03-22T12:11:52.952Z</time></trkpt><trkpt lat="40.7054821" lon="14.8929796"><ele>122.0</ele><time>2026-03-22T12:11:53.947Z</time></trkpt><trkpt lat="40.7056356" lon="14.893049"><ele>121.0</ele><time>2026-03-22T12:11:54.966Z</time></trkpt><trkpt lat="40.7057882" lon="14.8931144"><ele>121.0</ele><time>2026-03-22T12:11:55.954Z</time></trkpt><trkpt lat="40.7059492" lon="14.8931877"><ele>121.0</ele><time>2026-03-22T12:11:56.962Z</time></trkpt><trkpt lat="40.7061078" lon="14.8932545"><ele>121.0</ele><time>2026-03-22T12:11:57.955Z</time></trkpt><trkpt lat="40.7062636" lon="14.8933194"><ele>121.0</ele><time>2026-03-22T12:11:58.957Z</time></trkpt><trkpt lat="40.7064265" lon="14.8933747"><ele>121.0</ele><time>2026-03-22T12:12:00.05Z</time></trkpt><trkpt lat="40.7065871" lon="14.8934229"><ele>121.0</ele><time>2026-03-22T12:12:01.032Z</time></trkpt><trkpt lat="40.7067431" lon="14.8934667"><ele>121.0</ele><time>2026-03-22T12:12:01.955Z</time></trkpt><trkpt lat="40.7069045" lon="14.8935041"><ele>121.0</ele><time>2026-03-22T12:12:02.961Z</time></trkpt><trkpt lat="40.7070643" lon="14.8935287"><ele>121.0</ele><time>2026-03-22T12:12:03.946Z</time></trkpt><trkpt lat="40.7072267" lon="14.8935355"><ele>121.0</ele><time>2026-03-22T12:12:05.026Z</time></trkpt><trkpt lat="40.7073924" lon="14.8935297"><ele>121.0</ele><time>2026-03-22T12:12:06.032Z</time></trkpt><trkpt lat="40.7075537" lon="14.893519"><ele>121.0</ele><time>2026-03-22T12:12:07.004Z</time></trkpt><trkpt lat="40.707718" lon="14.8935015"><ele>121.0</ele><time>2026-03-22T12:12:08.034Z</time></trkpt><trkpt lat="40.7078712" lon="14.8934595"><ele>121.0</ele><time>2026-03-22T12:12:08.959Z</time></trkpt><trkpt lat="40.7080231" lon="14.8933908"><ele>121.0</ele><time>2026-03-22T12:12:09.956Z</time></trkpt><trkpt lat="40.7081685" lon="14.8932935"><ele>121.0</ele><time>2026-03-22T12:12:10.956Z</time></trkpt><trkpt lat="40.708303" lon="14.8931856"><ele>121.0</ele><time>2026-03-22T12:12:11.96Z</time></trkpt><trkpt lat="40.7084287" lon="14.8930578"><ele>121.0</ele><time>2026-03-22T12:12:12.961Z</time></trkpt><trkpt lat="40.7085438" lon="14.8929187"><ele>121.0</ele><time>2026-03-22T12:12:14.051Z</time></trkpt><trkpt lat="40.7086593" lon="14.8927797"><ele>121.0</ele><time>2026-03-22T12:12:15.031Z</time></trkpt><trkpt lat="40.7087728" lon="14.8926412"><ele>121.0</ele><time>2026-03-22T12:12:15.964Z</time></trkpt><trkpt lat="40.7088816" lon="14.8925061"><ele>121.0</ele><time>2026-03-22T12:12:16.949Z</time></trkpt><trkpt lat="40.708984" lon="14.8923754"><ele>121.0</ele><time>2026-03-22T12:12:17.971Z</time></trkpt><trkpt lat="40.7090725" lon="14.8922638"><ele>121.0</ele><time>2026-03-22T12:12:18.97Z</time></trkpt><trkpt lat="40.7091552" lon="14.8921725"><ele>121.0</ele><time>2026-03-22T12:12:19.981Z</time></trkpt><trkpt lat="40.7092307" lon="14.8920953"><ele>121.00000000000001</ele><time>2026-03-22T12:12:20.968Z</time></trkpt><trkpt lat="40.7092969" lon="14.8920291"><ele>121.0</ele><time>2026-03-22T12:12:21.957Z</time></trkpt><trkpt lat="40.709356" lon="14.891987"><ele>121.0</ele><time>2026-03-22T12:12:22.965Z</time></trkpt><trkpt lat="40.7094147" lon="14.8919446"><ele>121.0</ele><time>2026-03-22T12:12:23.978Z</time></trkpt><trkpt lat="40.7094498" lon="14.8918718"><ele>121.00000000000001</ele><time>2026-03-22T12:12:24.969Z</time></trkpt><trkpt lat="40.7094421" lon="14.8917769"><ele>121.0</ele><time>2026-03-22T12:12:26.078Z</time></trkpt><trkpt lat="40.7093753" lon="14.8915447"><ele>121.5</ele><time>2026-03-22T12:12:27.97Z</time></trkpt><trkpt lat="40.7093438" lon="14.8914143"><ele>122.0</ele><time>2026-03-22T12:12:28.971Z</time></trkpt><trkpt lat="40.7093303" lon="14.891261"><ele>122.5</ele><time>2026-03-22T12:12:29.973Z</time></trkpt><trkpt lat="40.7093218" lon="14.8910967"><ele>123.0</ele><time>2026-03-22T12:12:30.968Z</time></trkpt><trkpt lat="40.7093088" lon="14.8909458"><ele>123.5</ele><time>2026-03-22T12:12:32.004Z</time></trkpt><trkpt lat="40.709287" lon="14.8908009"><ele>124.0</ele><time>2026-03-22T12:12:32.987Z</time></trkpt><trkpt lat="40.7092385" lon="14.8906496"><ele>124.5</ele><time>2026-03-22T12:12:33.97Z</time></trkpt><trkpt lat="40.7091655" lon="14.8904931"><ele>125.0</ele><time>2026-03-22T12:12:34.955Z</time></trkpt><trkpt lat="40.7090802" lon="14.8903448"><ele>125.0</ele><time>2026-03-22T12:12:35.969Z</time></trkpt><trkpt lat="40.7090095" lon="14.8902005"><ele>125.0</ele><time>2026-03-22T12:12:36.967Z</time></trkpt><trkpt lat="40.7089541" lon="14.8900622"><ele>125.0</ele><time>2026-03-22T12:12:37.962Z</time></trkpt><trkpt lat="40.7089269" lon="14.889905"><ele>125.0</ele><time>2026-03-22T12:12:38.967Z</time></trkpt><trkpt lat="40.7089182" lon="14.889729"><ele>125.75</ele><time>2026-03-22T12:12:39.971Z</time></trkpt><trkpt lat="40.7089194" lon="14.8895511"><ele>126.5</ele><time>2026-03-22T12:12:41.021Z</time></trkpt><trkpt lat="40.7089203" lon="14.8893513"><ele>127.25</ele><time>2026-03-22T12:12:41.967Z</time></trkpt><trkpt lat="40.708919" lon="14.8891593"><ele>128.0</ele><time>2026-03-22T12:12:42.961Z</time></trkpt><trkpt lat="40.7089138" lon="14.8889608"><ele>128.75</ele><time>2026-03-22T12:12:43.951Z</time></trkpt><trkpt lat="40.7089218" lon="14.8887894"><ele>129.5</ele><time>2026-03-22T12:12:44.959Z</time></trkpt><trkpt lat="40.708941" lon="14.8886384"><ele>130.25</ele><time>2026-03-22T12:12:45.964Z</time></trkpt><trkpt lat="40.7089908" lon="14.8885133"><ele>131.0</ele><time>2026-03-22T12:12:46.962Z</time></trkpt><trkpt lat="40.7090627" lon="14.8883859"><ele>132.25</ele><time>2026-03-22T12:12:47.971Z</time></trkpt><trkpt lat="40.7091559" lon="14.8882793"><ele>133.5</ele><time>2026-03-22T12:12:48.96Z</time></trkpt><trkpt lat="40.7092471" lon="14.8881682"><ele>134.75</ele><time>2026-03-22T12:12:50.03Z</time></trkpt><trkpt lat="40.7092989" lon="14.8880178"><ele>136.0</ele><time>2026-03-22T12:12:51.033Z</time></trkpt><trkpt lat="40.7093147" lon="14.887846"><ele>136.0</ele><time>2026-03-22T12:12:51.963Z</time></trkpt><trkpt lat="40.7092971" lon="14.8876523"><ele>136.0</ele><time>2026-03-22T12:12:53.043Z</time></trkpt><trkpt lat="40.7092685" lon="14.8874748"><ele>136.0</ele><time>2026-03-22T12:12:54.031Z</time></trkpt><trkpt lat="40.7092655" lon="14.8873083"><ele>136.0</ele><time>2026-03-22T12:12:55.033Z</time></trkpt><trkpt lat="40.7092975" lon="14.8871483"><ele>136.4</ele><time>2026-03-22T12:12:55.972Z</time></trkpt><trkpt lat="40.7093449" lon="14.8870294"><ele>136.8</ele><time>2026-03-22T12:12:56.961Z</time></trkpt><trkpt lat="40.7093966" lon="14.8869478"><ele>137.20000000000002</ele><time>2026-03-22T12:12:57.955Z</time></trkpt><trkpt lat="40.7094995" lon="14.8868924"><ele>137.6</ele><time>2026-03-22T12:13:00.027Z</time></trkpt><trkpt lat="40.7096316" lon="14.8868981"><ele>138.0</ele><time>2026-03-22T12:13:01.975Z</time></trkpt><trkpt lat="40.7097255" lon="14.8869123"><ele>139.0</ele><time>2026-03-22T12:13:02.969Z</time></trkpt><trkpt lat="40.7098445" lon="14.8869369"><ele>140.0</ele><time>2026-03-22T12:13:04.027Z</time></trkpt><trkpt lat="40.7099575" lon="14.8869556"><ele>141.0</ele><time>2026-03-22T12:13:05.025Z</time></trkpt><trkpt lat="40.7100589" lon="14.8869811"><ele>142.0</ele><time>2026-03-22T12:13:06.034Z</time></trkpt><trkpt lat="40.7101446" lon="14.8869932"><ele>143.0</ele><time>2026-03-22T12:13:06.965Z</time></trkpt><trkpt lat="40.7102143" lon="14.8869991"><ele>144.0</ele><time>2026-03-22T12:13:07.965Z</time></trkpt><trkpt lat="40.7102979" lon="14.8870009"><ele>145.0</ele><time>2026-03-22T12:13:10.035Z</time></trkpt><trkpt lat="40.7103375" lon="14.8868553"><ele>146.0</ele><time>2026-03-22T12:13:22.943Z</time></trkpt><trkpt lat="40.7103735" lon="14.8867595"><ele>147.0</ele><time>2026-03-22T12:13:24.029Z</time></trkpt><trkpt lat="40.7104098" lon="14.8866418"><ele>148.0</ele><time>2026-03-22T12:13:25.038Z</time></trkpt><trkpt lat="40.7104513" lon="14.8865252"><ele>148.75</ele><time>2026-03-22T12:13:25.952Z</time></trkpt><trkpt lat="40.7105049" lon="14.8863991"><ele>149.5</ele><time>2026-03-22T12:13:26.958Z</time></trkpt><trkpt lat="40.7105657" lon="14.8862612"><ele>150.25</ele><time>2026-03-22T12:13:27.956Z</time></trkpt><trkpt lat="40.7106295" lon="14.8861311"><ele>151.0</ele><time>2026-03-22T12:13:28.956Z</time></trkpt><trkpt lat="40.7106945" lon="14.8859897"><ele>153.25</ele><time>2026-03-22T12:13:29.955Z</time></trkpt><trkpt lat="40.7107608" lon="14.8858435"><ele>155.5</ele><time>2026-03-22T12:13:30.953Z</time></trkpt><trkpt lat="40.7108258" lon="14.8856917"><ele>157.75</ele><time>2026-03-22T12:13:31.953Z</time></trkpt><trkpt lat="40.7108922" lon="14.8855415"><ele>160.0</ele><time>2026-03-22T12:13:32.94Z</time></trkpt><trkpt lat="40.7109584" lon="14.8853901"><ele>160.0</ele><time>2026-03-22T12:13:33.976Z</time></trkpt><trkpt lat="40.711022" lon="14.8852329"><ele>160.0</ele><time>2026-03-22T12:13:34.965Z</time></trkpt><trkpt lat="40.711083" lon="14.8850772"><ele>160.0</ele><time>2026-03-22T12:13:35.951Z</time></trkpt><trkpt lat="40.711147" lon="14.8849257"><ele>160.0</ele><time>2026-03-22T12:13:36.975Z</time></trkpt><trkpt lat="40.7112211" lon="14.8847774"><ele>163.5</ele><time>2026-03-22T12:13:37.952Z</time></trkpt><trkpt lat="40.7113216" lon="14.8846449"><ele>167.0</ele><time>2026-03-22T12:13:38.955Z</time></trkpt><trkpt lat="40.7114264" lon="14.8845269"><ele>170.5</ele><time>2026-03-22T12:13:39.955Z</time></trkpt><trkpt lat="40.7115264" lon="14.8844161"><ele>174.0</ele><time>2026-03-22T12:13:40.952Z</time></trkpt><trkpt lat="40.7116128" lon="14.8843192"><ele>174.6</ele><time>2026-03-22T12:13:41.948Z</time></trkpt><trkpt lat="40.7117013" lon="14.8842306"><ele>175.2</ele><time>2026-03-22T12:13:42.953Z</time></trkpt><trkpt lat="40.7117819" lon="14.8841537"><ele>175.79999999999998</ele><time>2026-03-22T12:13:43.953Z</time></trkpt><trkpt lat="40.711856" lon="14.884081"><ele>176.39999999999998</ele><time>2026-03-22T12:13:44.947Z</time></trkpt><trkpt lat="40.711928" lon="14.8840022"><ele>177.0</ele><time>2026-03-22T12:13:45.954Z</time></trkpt><trkpt lat="40.7119976" lon="14.8839248"><ele>178.0</ele><time>2026-03-22T12:13:46.959Z</time></trkpt><trkpt lat="40.7120651" lon="14.8838543"><ele>179.0</ele><time>2026-03-22T12:13:48.04Z</time></trkpt><trkpt lat="40.7121394" lon="14.8838005"><ele>180.0</ele><time>2026-03-22T12:13:49.03Z</time></trkpt><trkpt lat="40.7122153" lon="14.8837512"><ele>181.0</ele><time>2026-03-22T12:13:50.037Z</time></trkpt><trkpt lat="40.7122871" lon="14.8837103"><ele>182.0</ele><time>2026-03-22T12:13:51.045Z</time></trkpt><trkpt lat="40.7123555" lon="14.8836686"><ele>183.0</ele><time>2026-03-22T12:13:51.955Z</time></trkpt><trkpt lat="40.7124135" lon="14.8836124"><ele>183.0</ele><time>2026-03-22T12:13:52.963Z</time></trkpt><trkpt lat="40.7124746" lon="14.8835423"><ele>183.0</ele><time>2026-03-22T12:13:53.981Z</time></trkpt><trkpt lat="40.7125264" lon="14.8834737"><ele>183.0</ele><time>2026-03-22T12:13:55.026Z</time></trkpt><trkpt lat="40.7125766" lon="14.8833975"><ele>183.0</ele><time>2026-03-22T12:13:56.027Z</time></trkpt><trkpt lat="40.7126282" lon="14.8833135"><ele>183.0</ele><time>2026-03-22T12:13:56.959Z</time></trkpt><trkpt lat="40.7126888" lon="14.8832161"><ele>183.0</ele><time>2026-03-22T12:13:57.966Z</time></trkpt><trkpt lat="40.7127528" lon="14.8831094"><ele>185.0</ele><time>2026-03-22T12:13:58.963Z</time></trkpt><trkpt lat="40.7128304" lon="14.8829879"><ele>187.0</ele><time>2026-03-22T12:13:59.96Z</time></trkpt><trkpt lat="40.7129175" lon="14.8828505"><ele>189.0</ele><time>2026-03-22T12:14:00.963Z</time></trkpt><trkpt lat="40.7130189" lon="14.8827116"><ele>191.0</ele><time>2026-03-22T12:14:01.968Z</time></trkpt><trkpt lat="40.7131314" lon="14.882579"><ele>194.0</ele><time>2026-03-22T12:14:02.957Z</time></trkpt><trkpt lat="40.7132491" lon="14.8824357"><ele>197.0</ele><time>2026-03-22T12:14:03.965Z</time></trkpt><trkpt lat="40.713366" lon="14.882292"><ele>200.0</ele><time>2026-03-22T12:14:05.027Z</time></trkpt><trkpt lat="40.7134817" lon="14.8821491"><ele>201.33333333333334</ele><time>2026-03-22T12:14:06.039Z</time></trkpt><trkpt lat="40.7136042" lon="14.8820134"><ele>202.66666666666669</ele><time>2026-03-22T12:14:06.955Z</time></trkpt><trkpt lat="40.713739" lon="14.8818943"><ele>204.0</ele><time>2026-03-22T12:14:07.952Z</time></trkpt><trkpt lat="40.7138756" lon="14.8817799"><ele>207.66666666666669</ele><time>2026-03-22T12:14:08.951Z</time></trkpt><trkpt lat="40.7140109" lon="14.8816652"><ele>211.33333333333334</ele><time>2026-03-22T12:14:09.961Z</time></trkpt><trkpt lat="40.7141429" lon="14.8815538"><ele>215.0</ele><time>2026-03-22T12:14:10.95Z</time></trkpt><trkpt lat="40.7142728" lon="14.8814487"><ele>215.0</ele><time>2026-03-22T12:14:11.95Z</time></trkpt><trkpt lat="40.7144001" lon="14.8813549"><ele>215.0</ele><time>2026-03-22T12:14:12.955Z</time></trkpt><trkpt lat="40.7145218" lon="14.8812715"><ele>215.0</ele><time>2026-03-22T12:14:14.029Z</time></trkpt><trkpt lat="40.7146414" lon="14.8811833"><ele>215.0</ele><time>2026-03-22T12:14:14.944Z</time></trkpt><trkpt lat="40.7147578" lon="14.8810924"><ele>216.0</ele><time>2026-03-22T12:14:15.942Z</time></trkpt><trkpt lat="40.7148699" lon="14.8809858"><ele>217.0</ele><time>2026-03-22T12:14:16.95Z</time></trkpt><trkpt lat="40.7149639" lon="14.88087"><ele>218.0</ele><time>2026-03-22T12:14:17.957Z</time></trkpt><trkpt lat="40.7150469" lon="14.8807654"><ele>219.0</ele><time>2026-03-22T12:14:18.957Z</time></trkpt><trkpt lat="40.7151322" lon="14.8806664"><ele>220.79999999999998</ele><time>2026-03-22T12:14:19.95Z</time></trkpt><trkpt lat="40.7152202" lon="14.8805789"><ele>222.59999999999997</ele><time>2026-03-22T12:14:21.027Z</time></trkpt><trkpt lat="40.7153121" lon="14.8804927"><ele>224.4</ele><time>2026-03-22T12:14:21.97Z</time></trkpt><trkpt lat="40.7153978" lon="14.8804184"><ele>226.2</ele><time>2026-03-22T12:14:23.026Z</time></trkpt><trkpt lat="40.7154676" lon="14.8803624"><ele>228.0</ele><time>2026-03-22T12:14:24.038Z</time></trkpt><trkpt lat="40.7155394" lon="14.8803171"><ele>229.66666666666666</ele><time>2026-03-22T12:14:25.041Z</time></trkpt><trkpt lat="40.7156098" lon="14.8802596"><ele>231.33333333333331</ele><time>2026-03-22T12:14:26.054Z</time></trkpt><trkpt lat="40.715672" lon="14.8802095"><ele>233.0</ele><time>2026-03-22T12:14:26.957Z</time></trkpt><trkpt lat="40.7157281" lon="14.8801522"><ele>234.66666666666666</ele><time>2026-03-22T12:14:28.033Z</time></trkpt><trkpt lat="40.715782" lon="14.8800796"><ele>236.33333333333331</ele><time>2026-03-22T12:14:29.03Z</time></trkpt><trkpt lat="40.7158366" lon="14.8799821"><ele>238.0</ele><time>2026-03-22T12:14:30.031Z</time></trkpt><trkpt lat="40.7158847" lon="14.8798973"><ele>239.0</ele><time>2026-03-22T12:14:31.035Z</time></trkpt><trkpt lat="40.7159395" lon="14.879787"><ele>240.0</ele><time>2026-03-22T12:14:31.953Z</time></trkpt><trkpt lat="40.7159812" lon="14.879671"><ele>241.0</ele><time>2026-03-22T12:14:32.956Z</time></trkpt><trkpt lat="40.716011" lon="14.8795548"><ele>242.0</ele><time>2026-03-22T12:14:33.96Z</time></trkpt><trkpt lat="40.7160432" lon="14.8794393"><ele>243.0</ele><time>2026-03-22T12:14:35.044Z</time></trkpt><trkpt lat="40.7160711" lon="14.8793243"><ele>246.0</ele><time>2026-03-22T12:14:36.03Z</time></trkpt><trkpt lat="40.7161036" lon="14.879211"><ele>249.0</ele><time>2026-03-22T12:14:36.967Z</time></trkpt><trkpt lat="40.7161361" lon="14.879094"><ele>252.0</ele><time>2026-03-22T12:14:37.968Z</time></trkpt><trkpt lat="40.716174" lon="14.8789779"><ele>255.0</ele><time>2026-03-22T12:14:38.96Z</time></trkpt><trkpt lat="40.7162234" lon="14.8788783"><ele>258.0</ele><time>2026-03-22T12:14:39.979Z</time></trkpt><trkpt lat="40.7162795" lon="14.8787908"><ele>258.0</ele><time>2026-03-22T12:14:41.038Z</time></trkpt><trkpt lat="40.7163494" lon="14.8787022"><ele>258.0</ele><time>2026-03-22T12:14:41.96Z</time></trkpt><trkpt lat="40.7164278" lon="14.8786388"><ele>258.0</ele><time>2026-03-22T12:14:42.959Z</time></trkpt><trkpt lat="40.7165027" lon="14.8785678"><ele>258.0</ele><time>2026-03-22T12:14:43.958Z</time></trkpt><trkpt lat="40.7165856" lon="14.8784916"><ele>258.0</ele><time>2026-03-22T12:14:45.011Z</time></trkpt><trkpt lat="40.7166671" lon="14.8784134"><ele>259.4</ele><time>2026-03-22T12:14:46.032Z</time></trkpt><trkpt lat="40.716742" lon="14.8783445"><ele>260.8</ele><time>2026-03-22T12:14:46.96Z</time></trkpt><trkpt lat="40.7168117" lon="14.8782716"><ele>262.2</ele><time>2026-03-22T12:14:47.961Z</time></trkpt><trkpt lat="40.7168839" lon="14.8781978"><ele>263.6</ele><time>2026-03-22T12:14:48.952Z</time></trkpt><trkpt lat="40.716958" lon="14.8781132"><ele>265.0</ele><time>2026-03-22T12:14:49.961Z</time></trkpt><trkpt lat="40.7170274" lon="14.8780222"><ele>267.16666666666663</ele><time>2026-03-22T12:14:50.962Z</time></trkpt><trkpt lat="40.7170901" lon="14.8779201"><ele>269.3333333333333</ele><time>2026-03-22T12:14:51.963Z</time></trkpt><trkpt lat="40.7171366" lon="14.8778262"><ele>271.5</ele><time>2026-03-22T12:14:52.962Z</time></trkpt><trkpt lat="40.7171705" lon="14.8777268"><ele>273.6666666666667</ele><time>2026-03-22T12:14:54.033Z</time></trkpt><trkpt lat="40.7171958" lon="14.8776285"><ele>275.83333333333337</ele><time>2026-03-22T12:14:55.046Z</time></trkpt><trkpt lat="40.717238" lon="14.8775258"><ele>278.0</ele><time>2026-03-22T12:14:55.961Z</time></trkpt><trkpt lat="40.7172982" lon="14.8774284"><ele>278.6666666666667</ele><time>2026-03-22T12:14:56.957Z</time></trkpt><trkpt lat="40.7173602" lon="14.8773434"><ele>279.33333333333337</ele><time>2026-03-22T12:14:57.963Z</time></trkpt><trkpt lat="40.7174171" lon="14.8772574"><ele>280.0</ele><time>2026-03-22T12:14:58.97Z</time></trkpt><trkpt lat="40.7174681" lon="14.8771717"><ele>280.6666666666667</ele><time>2026-03-22T12:14:59.965Z</time></trkpt><trkpt lat="40.7175175" lon="14.8770938"><ele>281.3333333333333</ele><time>2026-03-22T12:15:00.96Z</time></trkpt><trkpt lat="40.7175559" lon="14.8770041"><ele>282.0</ele><time>2026-03-22T12:15:01.96Z</time></trkpt><trkpt lat="40.7175959" lon="14.8769226"><ele>282.0</ele><time>2026-03-22T12:15:02.964Z</time></trkpt><trkpt lat="40.7176386" lon="14.8768464"><ele>282.0</ele><time>2026-03-22T12:15:04.051Z</time></trkpt><trkpt lat="40.7176869" lon="14.876767"><ele>282.0</ele><time>2026-03-22T12:15:04.964Z</time></trkpt><trkpt lat="40.7177582" lon="14.876684"><ele>282.0</ele><time>2026-03-22T12:15:06.966Z</time></trkpt><trkpt lat="40.7178269" lon="14.8766376"><ele>282.0</ele><time>2026-03-22T12:15:11.04Z</time></trkpt><trkpt lat="40.7179589" lon="14.8766107"><ele>283.8333333333333</ele><time>2026-03-22T12:15:12.962Z</time></trkpt><trkpt lat="40.718049" lon="14.8766069"><ele>285.6666666666667</ele><time>2026-03-22T12:15:13.968Z</time></trkpt><trkpt lat="40.7181348" lon="14.8765996"><ele>287.5</ele><time>2026-03-22T12:15:14.964Z</time></trkpt><trkpt lat="40.7181993" lon="14.8766254"><ele>289.33333333333337</ele><time>2026-03-22T12:15:16.028Z</time></trkpt><trkpt lat="40.7182509" lon="14.8766805"><ele>291.1666666666667</ele><time>2026-03-22T12:15:16.958Z</time></trkpt><trkpt lat="40.7183016" lon="14.8767524"><ele>293.0</ele><time>2026-03-22T12:15:17.96Z</time></trkpt><trkpt lat="40.718354" lon="14.8768472"><ele>293.0</ele><time>2026-03-22T12:15:18.971Z</time></trkpt><trkpt lat="40.7184058" lon="14.8769276"><ele>293.0</ele><time>2026-03-22T12:15:20.02Z</time></trkpt><trkpt lat="40.7184499" lon="14.8770078"><ele>293.0</ele><time>2026-03-22T12:15:21.036Z</time></trkpt><trkpt lat="40.7185156" lon="14.8771062"><ele>293.0</ele><time>2026-03-22T12:15:22.952Z</time></trkpt><trkpt lat="40.7186213" lon="14.8770833"><ele>293.0</ele><time>2026-03-22T12:15:25.033Z</time></trkpt><trkpt lat="40.7186565" lon="14.8770098"><ele>293.0</ele><time>2026-03-22T12:15:26.033Z</time></trkpt><trkpt lat="40.7186954" lon="14.8769192"><ele>294.6</ele><time>2026-03-22T12:15:26.956Z</time></trkpt><trkpt lat="40.7187446" lon="14.8768017"><ele>296.20000000000005</ele><time>2026-03-22T12:15:27.954Z</time></trkpt><trkpt lat="40.71878" lon="14.8766734"><ele>297.8</ele><time>2026-03-22T12:15:28.982Z</time></trkpt><trkpt lat="40.7188119" lon="14.8765255"><ele>299.40000000000003</ele><time>2026-03-22T12:15:30.031Z</time></trkpt><trkpt lat="40.7188404" lon="14.8763876"><ele>301.0</ele><time>2026-03-22T12:15:31.033Z</time></trkpt><trkpt lat="40.7188924" lon="14.8762322"><ele>302.0</ele><time>2026-03-22T12:15:31.957Z</time></trkpt><trkpt lat="40.7189555" lon="14.8760996"><ele>303.0</ele><time>2026-03-22T12:15:32.957Z</time></trkpt><trkpt lat="40.719044" lon="14.8759757"><ele>304.0</ele><time>2026-03-22T12:15:33.961Z</time></trkpt><trkpt lat="40.7191405" lon="14.8758832"><ele>305.0</ele><time>2026-03-22T12:15:35.049Z</time></trkpt><trkpt lat="40.7192097" lon="14.8757796"><ele>306.2</ele><time>2026-03-22T12:15:35.964Z</time></trkpt><trkpt lat="40.719265" lon="14.8756568"><ele>307.4</ele><time>2026-03-22T12:15:36.96Z</time></trkpt><trkpt lat="40.7192936" lon="14.8755173"><ele>308.6</ele><time>2026-03-22T12:15:37.954Z</time></trkpt><trkpt lat="40.7192972" lon="14.8753854"><ele>309.8</ele><time>2026-03-22T12:15:38.943Z</time></trkpt><trkpt lat="40.7193012" lon="14.8752705"><ele>311.0</ele><time>2026-03-22T12:15:39.959Z</time></trkpt><trkpt lat="40.7193406" lon="14.8751705"><ele>311.0</ele><time>2026-03-22T12:15:40.962Z</time></trkpt><trkpt lat="40.719399" lon="14.8751075"><ele>311.0</ele><time>2026-03-22T12:15:41.952Z</time></trkpt><trkpt lat="40.7194888" lon="14.8750741"><ele>311.0</ele><time>2026-03-22T12:15:42.965Z</time></trkpt><trkpt lat="40.719589" lon="14.8750535"><ele>311.0</ele><time>2026-03-22T12:15:44.034Z</time></trkpt><trkpt lat="40.7196979" lon="14.8750354"><ele>311.0</ele><time>2026-03-22T12:15:45.018Z</time></trkpt><trkpt lat="40.7197997" lon="14.8750269"><ele>314.0</ele><time>2026-03-22T12:15:45.958Z</time></trkpt><trkpt lat="40.7199043" lon="14.8750185"><ele>317.0</ele><time>2026-03-22T12:15:46.962Z</time></trkpt><trkpt lat="40.7200109" lon="14.8750044"><ele>320.0</ele><time>2026-03-22T12:15:47.952Z</time></trkpt><trkpt lat="40.7200997" lon="14.8750081"><ele>323.0</ele><time>2026-03-22T12:15:48.957Z</time></trkpt><trkpt lat="40.7201747" lon="14.8749929"><ele>326.0</ele><time>2026-03-22T12:15:49.961Z</time></trkpt><trkpt lat="40.7202377" lon="14.874965"><ele>329.0</ele><time>2026-03-22T12:15:51.034Z</time></trkpt><trkpt lat="40.72026" lon="14.874809"><ele>331.6666666666667</ele><time>2026-03-22T12:15:52.956Z</time></trkpt><trkpt lat="40.7202433" lon="14.8746952"><ele>334.33333333333337</ele><time>2026-03-22T12:15:53.963Z</time></trkpt><trkpt lat="40.7202334" lon="14.8745847"><ele>337.0</ele><time>2026-03-22T12:15:54.956Z</time></trkpt><trkpt lat="40.7202555" lon="14.8744696"><ele>339.6666666666667</ele><time>2026-03-22T12:15:55.96Z</time></trkpt><trkpt lat="40.7203053" lon="14.8743753"><ele>342.3333333333333</ele><time>2026-03-22T12:15:56.955Z</time></trkpt><trkpt lat="40.7203721" lon="14.8742816"><ele>345.0</ele><time>2026-03-22T12:15:57.956Z</time></trkpt><trkpt lat="40.7204331" lon="14.874196"><ele>346.2</ele><time>2026-03-22T12:15:58.959Z</time></trkpt><trkpt lat="40.7204858" lon="14.8741275"><ele>347.4</ele><time>2026-03-22T12:16:00.031Z</time></trkpt><trkpt lat="40.7205977" lon="14.8740401"><ele>348.6</ele><time>2026-03-22T12:16:02.955Z</time></trkpt><trkpt lat="40.7206563" lon="14.8739431"><ele>349.8</ele><time>2026-03-22T12:16:06.051Z</time></trkpt><trkpt lat="40.7206776" lon="14.8738065"><ele>351.0</ele><time>2026-03-22T12:16:07.959Z</time></trkpt><trkpt lat="40.7206585" lon="14.8736875"><ele>351.0</ele><time>2026-03-22T12:16:09.95Z</time></trkpt><trkpt lat="40.7206337" lon="14.8735844"><ele>351.0</ele><time>2026-03-22T12:16:11.95Z</time></trkpt><trkpt lat="40.720698" lon="14.8735895"><ele>351.0</ele><time>2026-03-22T12:16:15.964Z</time></trkpt><trkpt lat="40.7207379" lon="14.8736542"><ele>351.0</ele><time>2026-03-22T12:16:20.96Z</time></trkpt><trkpt lat="40.7206436" lon="14.8736316"><ele>351.0</ele><time>2026-03-22T12:17:43.944Z</time></trkpt><trkpt lat="40.7205676" lon="14.8735911"><ele>351.0</ele><time>2026-03-22T12:17:45.937Z</time></trkpt><trkpt lat="40.7205363" lon="14.8736682"><ele>351.0</ele><time>2026-03-22T12:17:51.946Z</time></trkpt><trkpt lat="40.7206191" lon="14.873706"><ele>351.0</ele><time>2026-03-22T12:17:56.938Z</time></trkpt><trkpt lat="40.7205478" lon="14.8737075"><ele>351.0</ele><time>2026-03-22T12:17:58.932Z</time></trkpt><trkpt lat="40.7206245" lon="14.8737102"><ele>351.0</ele><time>2026-03-22T12:18:02.958Z</time></trkpt><trkpt lat="40.7207033" lon="14.8736956"><ele>351.0</ele><time>2026-03-22T12:18:05.94Z</time></trkpt><trkpt lat="40.7207558" lon="14.8736353"><ele>351.0</ele><time>2026-03-22T12:18:14.941Z</time></trkpt></trkseg></trk></gpx>